<?xml version="1.0" encoding="UTF-8"?>
<TrainingCenterDatabase xmlns="http://www.garmin.com/xmlschemas/TrainingCenterDatabase/v2" xmlns:xsi="http://www.w3.org/2001/XMLSchema-instance" xsi:schemaLocation="http://www.garmin.com/xmlschemas/TrainingCenterDatabase/v2 http://www.garmin.com/xmlschemas/TrainingCenterDatabasev2.xsd">
  <Activities>
    <Activity Sport="Other">
      <Id>2020-02-09T08:28:56.000Z</Id>
      <Lap StartTime="2020-02-09T08:28:56.000Z">
        <TotalTimeSeconds>32077</TotalTimeSeconds>
        <DistanceMeters>77840</DistanceMeters>
        <Track>
          <Trackpoint>
            <Time>2020-02-09T08:28:56.000Z</Time>
            <Position>
              <LatitudeDegrees>38.939247988164424896240234375</LatitudeDegrees>
              <LongitudeDegrees>-2.8471613489091396331787109375</LongitudeDegrees>
            </Position>
            <AltitudeMeters>823</AltitudeMeters>
            <DistanceMeters>0</DistanceMeters>
          </Trackpoint>
          <Trackpoint>
            <Time>2020-02-09T08:28:57.000Z</Time>
            <Position>
              <LatitudeDegrees>38.9392375946044921875</LatitudeDegrees>
              <LongitudeDegrees>-2.8471697308123111724853515625</LongitudeDegrees>
            </Position>
            <AltitudeMeters>823</AltitudeMeters>
            <DistanceMeters>1.3638899323093</DistanceMeters>
          </Trackpoint>
          <Trackpoint>
            <Time>2020-02-09T08:31:54.000Z</Time>
            <Position>
              <LatitudeDegrees>38.9391948468983173370361328125</LatitudeDegrees>
              <LongitudeDegrees>-2.84715573303401470184326171875</LongitudeDegrees>
            </Position>
            <AltitudeMeters>823.4000244140625</AltitudeMeters>
            <DistanceMeters>6.2741143778269</DistanceMeters>
          </Trackpoint>
          <Trackpoint>
            <Time>2020-02-09T08:32:03.000Z</Time>
            <Position>
              <LatitudeDegrees>38.938961327075958251953125</LatitudeDegrees>
              <LongitudeDegrees>-2.84709555096924304962158203125</LongitudeDegrees>
            </Position>
            <AltitudeMeters>825.79998779296875</AltitudeMeters>
            <DistanceMeters>32.782309875894</DistanceMeters>
          </Trackpoint>
          <Trackpoint>
            <Time>2020-02-09T08:32:13.000Z</Time>
            <Position>
              <LatitudeDegrees>38.93865161575376987457275390625</LatitudeDegrees>
              <LongitudeDegrees>-2.847295291721820831298828125</LongitudeDegrees>
            </Position>
            <AltitudeMeters>827</AltitudeMeters>
            <DistanceMeters>71.347822198513</DistanceMeters>
          </Trackpoint>
          <Trackpoint>
            <Time>2020-02-09T08:32:23.000Z</Time>
            <Position>
              <LatitudeDegrees>38.9383740909397602081298828125</LatitudeDegrees>
              <LongitudeDegrees>-2.847529314458370208740234375</LongitudeDegrees>
            </Position>
            <AltitudeMeters>823.79998779296875</AltitudeMeters>
            <DistanceMeters>108.288410879</DistanceMeters>
          </Trackpoint>
          <Trackpoint>
            <Time>2020-02-09T08:32:33.000Z</Time>
            <Position>
              <LatitudeDegrees>38.93802230246365070343017578125</LatitudeDegrees>
              <LongitudeDegrees>-2.84765613265335559844970703125</LongitudeDegrees>
            </Position>
            <AltitudeMeters>823.4000244140625</AltitudeMeters>
            <DistanceMeters>148.95340539371</DistanceMeters>
          </Trackpoint>
          <Trackpoint>
            <Time>2020-02-09T08:32:43.000Z</Time>
            <Position>
              <LatitudeDegrees>38.93761779181659221649169921875</LatitudeDegrees>
              <LongitudeDegrees>-2.84775235690176486968994140625</LongitudeDegrees>
            </Position>
            <AltitudeMeters>824.20001220703125</AltitudeMeters>
            <DistanceMeters>194.7405069349</DistanceMeters>
          </Trackpoint>
          <Trackpoint>
            <Time>2020-02-09T08:32:53.000Z</Time>
            <Position>
              <LatitudeDegrees>38.9373318850994110107421875</LatitudeDegrees>
              <LongitudeDegrees>-2.84757348708808422088623046875</LongitudeDegrees>
            </Position>
            <AltitudeMeters>825.4000244140625</AltitudeMeters>
            <DistanceMeters>230.13052731674</DistanceMeters>
          </Trackpoint>
          <Trackpoint>
            <Time>2020-02-09T08:33:03.000Z</Time>
            <Position>
              <LatitudeDegrees>38.93709459342062473297119140625</LatitudeDegrees>
              <LongitudeDegrees>-2.8473169170320034027099609375</LongitudeDegrees>
            </Position>
            <AltitudeMeters>829.79998779296875</AltitudeMeters>
            <DistanceMeters>264.64053545771</DistanceMeters>
          </Trackpoint>
          <Trackpoint>
            <Time>2020-02-09T08:33:14.000Z</Time>
            <Position>
              <LatitudeDegrees>38.936847746372222900390625</LatitudeDegrees>
              <LongitudeDegrees>-2.84705716185271739959716796875</LongitudeDegrees>
            </Position>
            <AltitudeMeters>827.20001220703125</AltitudeMeters>
            <DistanceMeters>300.14519165132</DistanceMeters>
          </Trackpoint>
          <Trackpoint>
            <Time>2020-02-09T08:33:25.000Z</Time>
            <Position>
              <LatitudeDegrees>38.936592601239681243896484375</LatitudeDegrees>
              <LongitudeDegrees>-2.84681710414588451385498046875</LongitudeDegrees>
            </Position>
            <AltitudeMeters>827.79998779296875</AltitudeMeters>
            <DistanceMeters>335.33601024941</DistanceMeters>
          </Trackpoint>
          <Trackpoint>
            <Time>2020-02-09T08:33:36.000Z</Time>
            <Position>
              <LatitudeDegrees>38.93627844750881195068359375</LatitudeDegrees>
              <LongitudeDegrees>-2.84669321961700916290283203125</LongitudeDegrees>
            </Position>
            <AltitudeMeters>828.5999755859375</AltitudeMeters>
            <DistanceMeters>371.90993967839</DistanceMeters>
          </Trackpoint>
          <Trackpoint>
            <Time>2020-02-09T08:33:46.000Z</Time>
            <Position>
              <LatitudeDegrees>38.9359815604984760284423828125</LatitudeDegrees>
              <LongitudeDegrees>-2.84665248356759548187255859375</LongitudeDegrees>
            </Position>
            <AltitudeMeters>829.4000244140625</AltitudeMeters>
            <DistanceMeters>405.1418563993</DistanceMeters>
          </Trackpoint>
          <Trackpoint>
            <Time>2020-02-09T08:33:56.000Z</Time>
            <Position>
              <LatitudeDegrees>38.93566329963505268096923828125</LatitudeDegrees>
              <LongitudeDegrees>-2.84660001285374164581298828125</LongitudeDegrees>
            </Position>
            <AltitudeMeters>830.20001220703125</AltitudeMeters>
            <DistanceMeters>440.85496403641</DistanceMeters>
          </Trackpoint>
          <Trackpoint>
            <Time>2020-02-09T08:34:06.000Z</Time>
            <Position>
              <LatitudeDegrees>38.9354008622467517852783203125</LatitudeDegrees>
              <LongitudeDegrees>-2.8464428521692752838134765625</LongitudeDegrees>
            </Position>
            <AltitudeMeters>831.4000244140625</AltitudeMeters>
            <DistanceMeters>473.0784093851</DistanceMeters>
          </Trackpoint>
          <Trackpoint>
            <Time>2020-02-09T08:34:16.000Z</Time>
            <Position>
              <LatitudeDegrees>38.9353458769619464874267578125</LatitudeDegrees>
              <LongitudeDegrees>-2.84603909589350223541259765625</LongitudeDegrees>
            </Position>
            <AltitudeMeters>833</AltitudeMeters>
            <DistanceMeters>508.56602104301</DistanceMeters>
          </Trackpoint>
          <Trackpoint>
            <Time>2020-02-09T08:34:26.000Z</Time>
            <Position>
              <LatitudeDegrees>38.9353470504283905029296875</LatitudeDegrees>
              <LongitudeDegrees>-2.845595441758632659912109375</LongitudeDegrees>
            </Position>
            <AltitudeMeters>834.4000244140625</AltitudeMeters>
            <DistanceMeters>546.97633150219</DistanceMeters>
          </Trackpoint>
          <Trackpoint>
            <Time>2020-02-09T08:34:31.000Z</Time>
            <Position>
              <LatitudeDegrees>38.9353348128497600555419921875</LatitudeDegrees>
              <LongitudeDegrees>-2.845386900007724761962890625</LongitudeDegrees>
            </Position>
            <AltitudeMeters>835.79998779296875</AltitudeMeters>
            <DistanceMeters>565.08234970669</DistanceMeters>
          </Trackpoint>
          <Trackpoint>
            <Time>2020-02-09T08:34:36.000Z</Time>
            <Position>
              <LatitudeDegrees>38.93529281951487064361572265625</LatitudeDegrees>
              <LongitudeDegrees>-2.8453716449439525604248046875</LongitudeDegrees>
            </Position>
            <AltitudeMeters>836.4000244140625</AltitudeMeters>
            <DistanceMeters>569.93894930637</DistanceMeters>
          </Trackpoint>
          <Trackpoint>
            <Time>2020-02-09T08:34:39.000Z</Time>
            <Position>
              <LatitudeDegrees>38.9352754689753055572509765625</LatitudeDegrees>
              <LongitudeDegrees>-2.84536267630755901336669921875</LongitudeDegrees>
            </Position>
            <AltitudeMeters>836.79998779296875</AltitudeMeters>
            <DistanceMeters>572.02088030741</DistanceMeters>
          </Trackpoint>
          <Trackpoint>
            <Time>2020-02-09T08:34:42.000Z</Time>
            <Position>
              <LatitudeDegrees>38.9352637343108654022216796875</LatitudeDegrees>
              <LongitudeDegrees>-2.845321185886859893798828125</LongitudeDegrees>
            </Position>
            <AltitudeMeters>837.20001220703125</AltitudeMeters>
            <DistanceMeters>575.84327009474</DistanceMeters>
          </Trackpoint>
          <Trackpoint>
            <Time>2020-02-09T08:34:46.000Z</Time>
            <Position>
              <LatitudeDegrees>38.9352771453559398651123046875</LatitudeDegrees>
              <LongitudeDegrees>-2.84523569047451019287109375</LongitudeDegrees>
            </Position>
            <AltitudeMeters>837.4000244140625</AltitudeMeters>
            <DistanceMeters>583.39535343777</DistanceMeters>
          </Trackpoint>
          <Trackpoint>
            <Time>2020-02-09T08:34:56.000Z</Time>
            <Position>
              <LatitudeDegrees>38.93531461246311664581298828125</LatitudeDegrees>
              <LongitudeDegrees>-2.8448353707790374755859375</LongitudeDegrees>
            </Position>
            <AltitudeMeters>836.79998779296875</AltitudeMeters>
            <DistanceMeters>618.3036727322</DistanceMeters>
          </Trackpoint>
          <Trackpoint>
            <Time>2020-02-09T08:35:04.000Z</Time>
            <Position>
              <LatitudeDegrees>38.9352513290941715240478515625</LatitudeDegrees>
              <LongitudeDegrees>-2.844527252018451690673828125</LongitudeDegrees>
            </Position>
            <AltitudeMeters>834</AltitudeMeters>
            <DistanceMeters>645.89384098239</DistanceMeters>
          </Trackpoint>
          <Trackpoint>
            <Time>2020-02-09T08:35:06.000Z</Time>
            <Position>
              <LatitudeDegrees>38.9352102577686309814453125</LatitudeDegrees>
              <LongitudeDegrees>-2.8445415012538433074951171875</LongitudeDegrees>
            </Position>
            <AltitudeMeters>834.79998779296875</AltitudeMeters>
            <DistanceMeters>650.62994802159</DistanceMeters>
          </Trackpoint>
          <Trackpoint>
            <Time>2020-02-09T08:35:16.000Z</Time>
            <Position>
              <LatitudeDegrees>38.9351299591362476348876953125</LatitudeDegrees>
              <LongitudeDegrees>-2.844903767108917236328125</LongitudeDegrees>
            </Position>
            <AltitudeMeters>840.20001220703125</AltitudeMeters>
            <DistanceMeters>683.24239094829</DistanceMeters>
          </Trackpoint>
          <Trackpoint>
            <Time>2020-02-09T08:35:26.000Z</Time>
            <Position>
              <LatitudeDegrees>38.935081847012042999267578125</LatitudeDegrees>
              <LongitudeDegrees>-2.8453183360397815704345703125</LongitudeDegrees>
            </Position>
            <AltitudeMeters>840.5999755859375</AltitudeMeters>
            <DistanceMeters>719.5317731194</DistanceMeters>
          </Trackpoint>
          <Trackpoint>
            <Time>2020-02-09T08:35:36.000Z</Time>
            <Position>
              <LatitudeDegrees>38.9348815195262432098388671875</LatitudeDegrees>
              <LongitudeDegrees>-2.84570901654660701751708984375</LongitudeDegrees>
            </Position>
            <AltitudeMeters>842.4000244140625</AltitudeMeters>
            <DistanceMeters>760.04359069918</DistanceMeters>
          </Trackpoint>
          <Trackpoint>
            <Time>2020-02-09T08:35:37.000Z</Time>
            <Position>
              <LatitudeDegrees>38.934849165380001068115234375</LatitudeDegrees>
              <LongitudeDegrees>-2.8457394428551197052001953125</LongitudeDegrees>
            </Position>
            <AltitudeMeters>842.79998779296875</AltitudeMeters>
            <DistanceMeters>764.50478879863</DistanceMeters>
          </Trackpoint>
          <Trackpoint>
            <Time>2020-02-09T08:35:46.000Z</Time>
            <Position>
              <LatitudeDegrees>38.93457264639437198638916015625</LatitudeDegrees>
              <LongitudeDegrees>-2.8459808416664600372314453125</LongitudeDegrees>
            </Position>
            <AltitudeMeters>846.20001220703125</AltitudeMeters>
            <DistanceMeters>801.70735304482</DistanceMeters>
          </Trackpoint>
          <Trackpoint>
            <Time>2020-02-09T08:35:56.000Z</Time>
            <Position>
              <LatitudeDegrees>38.934342227876186370849609375</LatitudeDegrees>
              <LongitudeDegrees>-2.8461146168410778045654296875</LongitudeDegrees>
            </Position>
            <AltitudeMeters>848.5999755859375</AltitudeMeters>
            <DistanceMeters>829.84729678052</DistanceMeters>
          </Trackpoint>
          <Trackpoint>
            <Time>2020-02-09T08:36:04.000Z</Time>
            <Position>
              <LatitudeDegrees>38.93423594534397125244140625</LatitudeDegrees>
              <LongitudeDegrees>-2.84614655189216136932373046875</LongitudeDegrees>
            </Position>
            <AltitudeMeters>849.79998779296875</AltitudeMeters>
            <DistanceMeters>841.99585922222</DistanceMeters>
          </Trackpoint>
          <Trackpoint>
            <Time>2020-02-09T08:36:06.000Z</Time>
            <Position>
              <LatitudeDegrees>38.9342071115970611572265625</LatitudeDegrees>
              <LongitudeDegrees>-2.8461441211402416229248046875</LongitudeDegrees>
            </Position>
            <AltitudeMeters>850.20001220703125</AltitudeMeters>
            <DistanceMeters>845.21276264085</DistanceMeters>
          </Trackpoint>
          <Trackpoint>
            <Time>2020-02-09T08:36:16.000Z</Time>
            <Position>
              <LatitudeDegrees>38.93405984155833721160888671875</LatitudeDegrees>
              <LongitudeDegrees>-2.846174128353595733642578125</LongitudeDegrees>
            </Position>
            <AltitudeMeters>851.4000244140625</AltitudeMeters>
            <DistanceMeters>861.80846484175</DistanceMeters>
          </Trackpoint>
          <Trackpoint>
            <Time>2020-02-09T08:36:26.000Z</Time>
            <Position>
              <LatitudeDegrees>38.93393562175333499908447265625</LatitudeDegrees>
              <LongitudeDegrees>-2.846234478056430816650390625</LongitudeDegrees>
            </Position>
            <AltitudeMeters>852</AltitudeMeters>
            <DistanceMeters>876.58870872783</DistanceMeters>
          </Trackpoint>
          <Trackpoint>
            <Time>2020-02-09T08:36:36.000Z</Time>
            <Position>
              <LatitudeDegrees>38.9338020980358123779296875</LatitudeDegrees>
              <LongitudeDegrees>-2.846280746161937713623046875</LongitudeDegrees>
            </Position>
            <AltitudeMeters>852.5999755859375</AltitudeMeters>
            <DistanceMeters>891.98098327256</DistanceMeters>
          </Trackpoint>
          <Trackpoint>
            <Time>2020-02-09T08:36:46.000Z</Time>
            <Position>
              <LatitudeDegrees>38.9336560852825641632080078125</LatitudeDegrees>
              <LongitudeDegrees>-2.84625233151018619537353515625</LongitudeDegrees>
            </Position>
            <AltitudeMeters>853.79998779296875</AltitudeMeters>
            <DistanceMeters>908.41758350041</DistanceMeters>
          </Trackpoint>
          <Trackpoint>
            <Time>2020-02-09T08:36:56.000Z</Time>
            <Position>
              <LatitudeDegrees>38.9334964938461780548095703125</LatitudeDegrees>
              <LongitudeDegrees>-2.84619801677763462066650390625</LongitudeDegrees>
            </Position>
            <AltitudeMeters>856.5999755859375</AltitudeMeters>
            <DistanceMeters>926.79241841776</DistanceMeters>
          </Trackpoint>
          <Trackpoint>
            <Time>2020-02-09T08:37:06.000Z</Time>
            <Position>
              <LatitudeDegrees>38.9333362318575382232666015625</LatitudeDegrees>
              <LongitudeDegrees>-2.84615761600434780120849609375</LongitudeDegrees>
            </Position>
            <AltitudeMeters>860.4000244140625</AltitudeMeters>
            <DistanceMeters>944.96961559126</DistanceMeters>
          </Trackpoint>
          <Trackpoint>
            <Time>2020-02-09T08:37:16.000Z</Time>
            <Position>
              <LatitudeDegrees>38.93316230736672878265380859375</LatitudeDegrees>
              <LongitudeDegrees>-2.846223413944244384765625</LongitudeDegrees>
            </Position>
            <AltitudeMeters>863.4000244140625</AltitudeMeters>
            <DistanceMeters>965.14886897597</DistanceMeters>
          </Trackpoint>
          <Trackpoint>
            <Time>2020-02-09T08:37:26.000Z</Time>
            <Position>
              <LatitudeDegrees>38.93300590105354785919189453125</LatitudeDegrees>
              <LongitudeDegrees>-2.8462678380310535430908203125</LongitudeDegrees>
            </Position>
            <AltitudeMeters>865.5999755859375</AltitudeMeters>
            <DistanceMeters>982.9769544221</DistanceMeters>
          </Trackpoint>
          <Trackpoint>
            <Time>2020-02-09T08:37:32.000Z</Time>
            <Position>
              <LatitudeDegrees>38.9329191483557224273681640625</LatitudeDegrees>
              <LongitudeDegrees>-2.84622617997229099273681640625</LongitudeDegrees>
            </Position>
            <AltitudeMeters>866.79998779296875</AltitudeMeters>
            <DistanceMeters>993.28461562334</DistanceMeters>
          </Trackpoint>
          <Trackpoint>
            <Time>2020-02-09T08:37:35.000Z</Time>
            <Position>
              <LatitudeDegrees>38.9329043962061405181884765625</LatitudeDegrees>
              <LongitudeDegrees>-2.84617136232554912567138671875</LongitudeDegrees>
            </Position>
            <AltitudeMeters>867</AltitudeMeters>
            <DistanceMeters>998.30756630839</DistanceMeters>
          </Trackpoint>
          <Trackpoint>
            <Time>2020-02-09T08:37:36.000Z</Time>
            <Position>
              <LatitudeDegrees>38.93290900625288486480712890625</LatitudeDegrees>
              <LongitudeDegrees>-2.8461511619389057159423828125</LongitudeDegrees>
            </Position>
            <AltitudeMeters>866.79998779296875</AltitudeMeters>
            <DistanceMeters>1000.1304947577</DistanceMeters>
          </Trackpoint>
          <Trackpoint>
            <Time>2020-02-09T08:37:46.000Z</Time>
            <Position>
              <LatitudeDegrees>38.93302023410797119140625</LatitudeDegrees>
              <LongitudeDegrees>-2.8459965996444225311279296875</LongitudeDegrees>
            </Position>
            <AltitudeMeters>865</AltitudeMeters>
            <DistanceMeters>1018.3605222774</DistanceMeters>
          </Trackpoint>
          <Trackpoint>
            <Time>2020-02-09T08:37:56.000Z</Time>
            <Position>
              <LatitudeDegrees>38.9331303723156452178955078125</LatitudeDegrees>
              <LongitudeDegrees>-2.84586735069751739501953125</LongitudeDegrees>
            </Position>
            <AltitudeMeters>863.5999755859375</AltitudeMeters>
            <DistanceMeters>1034.9584008211</DistanceMeters>
          </Trackpoint>
          <Trackpoint>
            <Time>2020-02-09T08:38:06.000Z</Time>
            <Position>
              <LatitudeDegrees>38.93327496014535427093505859375</LatitudeDegrees>
              <LongitudeDegrees>-2.84572653472423553466796875</LongitudeDegrees>
            </Position>
            <AltitudeMeters>863</AltitudeMeters>
            <DistanceMeters>1055.1479439234</DistanceMeters>
          </Trackpoint>
          <Trackpoint>
            <Time>2020-02-09T08:38:16.000Z</Time>
            <Position>
              <LatitudeDegrees>38.9334505610167980194091796875</LatitudeDegrees>
              <LongitudeDegrees>-2.84572225995361804962158203125</LongitudeDegrees>
            </Position>
            <AltitudeMeters>860.5999755859375</AltitudeMeters>
            <DistanceMeters>1074.6962117483</DistanceMeters>
          </Trackpoint>
          <Trackpoint>
            <Time>2020-02-09T08:38:26.000Z</Time>
            <Position>
              <LatitudeDegrees>38.9336161874234676361083984375</LatitudeDegrees>
              <LongitudeDegrees>-2.84553953446447849273681640625</LongitudeDegrees>
            </Position>
            <AltitudeMeters>860.4000244140625</AltitudeMeters>
            <DistanceMeters>1098.9885046746</DistanceMeters>
          </Trackpoint>
          <Trackpoint>
            <Time>2020-02-09T08:38:36.000Z</Time>
            <Position>
              <LatitudeDegrees>38.933636136353015899658203125</LatitudeDegrees>
              <LongitudeDegrees>-2.845299057662487030029296875</LongitudeDegrees>
            </Position>
            <AltitudeMeters>863</AltitudeMeters>
            <DistanceMeters>1119.9267522458</DistanceMeters>
          </Trackpoint>
          <Trackpoint>
            <Time>2020-02-09T08:38:46.000Z</Time>
            <Position>
              <LatitudeDegrees>38.933473862707614898681640625</LatitudeDegrees>
              <LongitudeDegrees>-2.84524700604379177093505859375</LongitudeDegrees>
            </Position>
            <AltitudeMeters>865.4000244140625</AltitudeMeters>
            <DistanceMeters>1138.5418040443</DistanceMeters>
          </Trackpoint>
          <Trackpoint>
            <Time>2020-02-09T08:38:56.000Z</Time>
            <Position>
              <LatitudeDegrees>38.933301866054534912109375</LatitudeDegrees>
              <LongitudeDegrees>-2.845428474247455596923828125</LongitudeDegrees>
            </Position>
            <AltitudeMeters>865.79998779296875</AltitudeMeters>
            <DistanceMeters>1163.3069764038</DistanceMeters>
          </Trackpoint>
          <Trackpoint>
            <Time>2020-02-09T08:39:06.000Z</Time>
            <Position>
              <LatitudeDegrees>38.933056779205799102783203125</LatitudeDegrees>
              <LongitudeDegrees>-2.845545820891857147216796875</LongitudeDegrees>
            </Position>
            <AltitudeMeters>867.79998779296875</AltitudeMeters>
            <DistanceMeters>1192.416188918</DistanceMeters>
          </Trackpoint>
          <Trackpoint>
            <Time>2020-02-09T08:39:16.000Z</Time>
            <Position>
              <LatitudeDegrees>38.93282133154571056365966796875</LatitudeDegrees>
              <LongitudeDegrees>-2.84564732573926448822021484375</LongitudeDegrees>
            </Position>
            <AltitudeMeters>868.5999755859375</AltitudeMeters>
            <DistanceMeters>1220.0563876775</DistanceMeters>
          </Trackpoint>
          <Trackpoint>
            <Time>2020-02-09T08:39:26.000Z</Time>
            <Position>
              <LatitudeDegrees>38.93260650336742401123046875</LatitudeDegrees>
              <LongitudeDegrees>-2.8457025624811649322509765625</LongitudeDegrees>
            </Position>
            <AltitudeMeters>869.4000244140625</AltitudeMeters>
            <DistanceMeters>1244.4406943835</DistanceMeters>
          </Trackpoint>
          <Trackpoint>
            <Time>2020-02-09T08:39:37.000Z</Time>
            <Position>
              <LatitudeDegrees>38.932392932474613189697265625</LatitudeDegrees>
              <LongitudeDegrees>-2.84575335681438446044921875</LongitudeDegrees>
            </Position>
            <AltitudeMeters>870.4000244140625</AltitudeMeters>
            <DistanceMeters>1268.6148629762</DistanceMeters>
          </Trackpoint>
          <Trackpoint>
            <Time>2020-02-09T08:39:47.000Z</Time>
            <Position>
              <LatitudeDegrees>38.93216335214674472808837890625</LatitudeDegrees>
              <LongitudeDegrees>-2.84579836763441562652587890625</LongitudeDegrees>
            </Position>
            <AltitudeMeters>871.5999755859375</AltitudeMeters>
            <DistanceMeters>1294.4630026774</DistanceMeters>
          </Trackpoint>
          <Trackpoint>
            <Time>2020-02-09T08:39:57.000Z</Time>
            <Position>
              <LatitudeDegrees>38.9319512061774730682373046875</LatitudeDegrees>
              <LongitudeDegrees>-2.84590884111821651458740234375</LongitudeDegrees>
            </Position>
            <AltitudeMeters>872.79998779296875</AltitudeMeters>
            <DistanceMeters>1319.9390250186</DistanceMeters>
          </Trackpoint>
          <Trackpoint>
            <Time>2020-02-09T08:40:07.000Z</Time>
            <Position>
              <LatitudeDegrees>38.93180678598582744598388671875</LatitudeDegrees>
              <LongitudeDegrees>-2.8460475616157054901123046875</LongitudeDegrees>
            </Position>
            <AltitudeMeters>874.5999755859375</AltitudeMeters>
            <DistanceMeters>1340.0047432586</DistanceMeters>
          </Trackpoint>
          <Trackpoint>
            <Time>2020-02-09T08:40:11.000Z</Time>
            <Position>
              <LatitudeDegrees>38.9317862503230571746826171875</LatitudeDegrees>
              <LongitudeDegrees>-2.8461350686848163604736328125</LongitudeDegrees>
            </Position>
            <AltitudeMeters>875.20001220703125</AltitudeMeters>
            <DistanceMeters>1347.9182494435</DistanceMeters>
          </Trackpoint>
          <Trackpoint>
            <Time>2020-02-09T08:40:17.000Z</Time>
            <Position>
              <LatitudeDegrees>38.9318011701107025146484375</LatitudeDegrees>
              <LongitudeDegrees>-2.8462701849639415740966796875</LongitudeDegrees>
            </Position>
            <AltitudeMeters>876</AltitudeMeters>
            <DistanceMeters>1359.7337046537</DistanceMeters>
          </Trackpoint>
          <Trackpoint>
            <Time>2020-02-09T08:40:26.000Z</Time>
            <Position>
              <LatitudeDegrees>38.93170394003391265869140625</LatitudeDegrees>
              <LongitudeDegrees>-2.84643606282770633697509765625</LongitudeDegrees>
            </Position>
            <AltitudeMeters>877.4000244140625</AltitudeMeters>
            <DistanceMeters>1377.7163648444</DistanceMeters>
          </Trackpoint>
          <Trackpoint>
            <Time>2020-02-09T08:40:27.000Z</Time>
            <Position>
              <LatitudeDegrees>38.93170058727264404296875</LatitudeDegrees>
              <LongitudeDegrees>-2.84645215608179569244384765625</LongitudeDegrees>
            </Position>
            <AltitudeMeters>877.5999755859375</AltitudeMeters>
            <DistanceMeters>1379.1575163222</DistanceMeters>
          </Trackpoint>
          <Trackpoint>
            <Time>2020-02-09T08:40:36.000Z</Time>
            <Position>
              <LatitudeDegrees>38.9317104779183864593505859375</LatitudeDegrees>
              <LongitudeDegrees>-2.84654804505407810211181640625</LongitudeDegrees>
            </Position>
            <AltitudeMeters>878.20001220703125</AltitudeMeters>
            <DistanceMeters>1387.5317371017</DistanceMeters>
          </Trackpoint>
          <Trackpoint>
            <Time>2020-02-09T08:40:37.000Z</Time>
            <Position>
              <LatitudeDegrees>38.93171961419284343719482421875</LatitudeDegrees>
              <LongitudeDegrees>-2.84656204283237457275390625</LongitudeDegrees>
            </Position>
            <AltitudeMeters>878.20001220703125</AltitudeMeters>
            <DistanceMeters>1389.1161490593</DistanceMeters>
          </Trackpoint>
          <Trackpoint>
            <Time>2020-02-09T08:40:48.000Z</Time>
            <Position>
              <LatitudeDegrees>38.9317341148853302001953125</LatitudeDegrees>
              <LongitudeDegrees>-2.8468877635896205902099609375</LongitudeDegrees>
            </Position>
            <AltitudeMeters>879.20001220703125</AltitudeMeters>
            <DistanceMeters>1417.3635492006</DistanceMeters>
          </Trackpoint>
          <Trackpoint>
            <Time>2020-02-09T08:40:59.000Z</Time>
            <Position>
              <LatitudeDegrees>38.93135466612875461578369140625</LatitudeDegrees>
              <LongitudeDegrees>-2.847222201526165008544921875</LongitudeDegrees>
            </Position>
            <AltitudeMeters>882</AltitudeMeters>
            <DistanceMeters>1468.5699884183</DistanceMeters>
          </Trackpoint>
          <Trackpoint>
            <Time>2020-02-09T08:41:04.000Z</Time>
            <Position>
              <LatitudeDegrees>38.9311847649514675140380859375</LatitudeDegrees>
              <LongitudeDegrees>-2.84732806496322154998779296875</LongitudeDegrees>
            </Position>
            <AltitudeMeters>883</AltitudeMeters>
            <DistanceMeters>1489.5846473137</DistanceMeters>
          </Trackpoint>
          <Trackpoint>
            <Time>2020-02-09T08:41:09.000Z</Time>
            <Position>
              <LatitudeDegrees>38.9310697652399539947509765625</LatitudeDegrees>
              <LongitudeDegrees>-2.84753493033349514007568359375</LongitudeDegrees>
            </Position>
            <AltitudeMeters>884</AltitudeMeters>
            <DistanceMeters>1511.5988732278</DistanceMeters>
          </Trackpoint>
          <Trackpoint>
            <Time>2020-02-09T08:41:19.000Z</Time>
            <Position>
              <LatitudeDegrees>38.930975385010242462158203125</LatitudeDegrees>
              <LongitudeDegrees>-2.84800850786268711090087890625</LongitudeDegrees>
            </Position>
            <AltitudeMeters>883.4000244140625</AltitudeMeters>
            <DistanceMeters>1553.9264215497</DistanceMeters>
          </Trackpoint>
          <Trackpoint>
            <Time>2020-02-09T08:41:23.000Z</Time>
            <Position>
              <LatitudeDegrees>38.93100597895681858062744140625</LatitudeDegrees>
              <LongitudeDegrees>-2.848203890025615692138671875</LongitudeDegrees>
            </Position>
            <AltitudeMeters>882.79998779296875</AltitudeMeters>
            <DistanceMeters>1571.1826030745</DistanceMeters>
          </Trackpoint>
          <Trackpoint>
            <Time>2020-02-09T08:41:29.000Z</Time>
            <Position>
              <LatitudeDegrees>38.93093138001859188079833984375</LatitudeDegrees>
              <LongitudeDegrees>-2.84848024137318134307861328125</LongitudeDegrees>
            </Position>
            <AltitudeMeters>882.5999755859375</AltitudeMeters>
            <DistanceMeters>1596.5094955052</DistanceMeters>
          </Trackpoint>
          <Trackpoint>
            <Time>2020-02-09T08:41:33.000Z</Time>
            <Position>
              <LatitudeDegrees>38.93081344664096832275390625</LatitudeDegrees>
              <LongitudeDegrees>-2.8486117534339427947998046875</LongitudeDegrees>
            </Position>
            <AltitudeMeters>882.79998779296875</AltitudeMeters>
            <DistanceMeters>1613.8866574221</DistanceMeters>
          </Trackpoint>
          <Trackpoint>
            <Time>2020-02-09T08:41:39.000Z</Time>
            <Position>
              <LatitudeDegrees>38.9306406117975711822509765625</LatitudeDegrees>
              <LongitudeDegrees>-2.84883781336247920989990234375</LongitudeDegrees>
            </Position>
            <AltitudeMeters>883</AltitudeMeters>
            <DistanceMeters>1641.3301356224</DistanceMeters>
          </Trackpoint>
          <Trackpoint>
            <Time>2020-02-09T08:41:40.000Z</Time>
            <Position>
              <LatitudeDegrees>38.9306121133267879486083984375</LatitudeDegrees>
              <LongitudeDegrees>-2.84887435846030712127685546875</LongitudeDegrees>
            </Position>
            <AltitudeMeters>883</AltitudeMeters>
            <DistanceMeters>1645.8115293801</DistanceMeters>
          </Trackpoint>
          <Trackpoint>
            <Time>2020-02-09T08:41:44.000Z</Time>
            <Position>
              <LatitudeDegrees>38.930512368679046630859375</LatitudeDegrees>
              <LongitudeDegrees>-2.84907686524093151092529296875</LongitudeDegrees>
            </Position>
            <AltitudeMeters>882.79998779296875</AltitudeMeters>
            <DistanceMeters>1666.5643717377</DistanceMeters>
          </Trackpoint>
          <Trackpoint>
            <Time>2020-02-09T08:41:46.000Z</Time>
            <Position>
              <LatitudeDegrees>38.93051882274448871612548828125</LatitudeDegrees>
              <LongitudeDegrees>-2.8492127358913421630859375</LongitudeDegrees>
            </Position>
            <AltitudeMeters>882.4000244140625</AltitudeMeters>
            <DistanceMeters>1678.3507492988</DistanceMeters>
          </Trackpoint>
          <Trackpoint>
            <Time>2020-02-09T08:41:48.000Z</Time>
            <Position>
              <LatitudeDegrees>38.93060331232845783233642578125</LatitudeDegrees>
              <LongitudeDegrees>-2.8492967225611209869384765625</LongitudeDegrees>
            </Position>
            <AltitudeMeters>881.4000244140625</AltitudeMeters>
            <DistanceMeters>1690.2385874685</DistanceMeters>
          </Trackpoint>
          <Trackpoint>
            <Time>2020-02-09T08:41:49.000Z</Time>
            <Position>
              <LatitudeDegrees>38.9306560344994068145751953125</LatitudeDegrees>
              <LongitudeDegrees>-2.84932681359350681304931640625</LongitudeDegrees>
            </Position>
            <AltitudeMeters>881</AltitudeMeters>
            <DistanceMeters>1696.6597500613</DistanceMeters>
          </Trackpoint>
          <Trackpoint>
            <Time>2020-02-09T08:41:50.000Z</Time>
            <Position>
              <LatitudeDegrees>38.9307036437094211578369140625</LatitudeDegrees>
              <LongitudeDegrees>-2.84936553798615932464599609375</LongitudeDegrees>
            </Position>
            <AltitudeMeters>880.5999755859375</AltitudeMeters>
            <DistanceMeters>1702.930793269</DistanceMeters>
          </Trackpoint>
          <Trackpoint>
            <Time>2020-02-09T08:41:53.000Z</Time>
            <Position>
              <LatitudeDegrees>38.93079827539622783660888671875</LatitudeDegrees>
              <LongitudeDegrees>-2.84949746914207935333251953125</LongitudeDegrees>
            </Position>
            <AltitudeMeters>879.4000244140625</AltitudeMeters>
            <DistanceMeters>1718.4687507862</DistanceMeters>
          </Trackpoint>
          <Trackpoint>
            <Time>2020-02-09T08:41:56.000Z</Time>
            <Position>
              <LatitudeDegrees>38.93092987127602100372314453125</LatitudeDegrees>
              <LongitudeDegrees>-2.849561087787151336669921875</LongitudeDegrees>
            </Position>
            <AltitudeMeters>878</AltitudeMeters>
            <DistanceMeters>1734.1173166313</DistanceMeters>
          </Trackpoint>
          <Trackpoint>
            <Time>2020-02-09T08:41:58.000Z</Time>
            <Position>
              <LatitudeDegrees>38.931013606488704681396484375</LatitudeDegrees>
              <LongitudeDegrees>-2.84964499063789844512939453125</LongitudeDegrees>
            </Position>
            <AltitudeMeters>876.79998779296875</AltitudeMeters>
            <DistanceMeters>1745.934300262</DistanceMeters>
          </Trackpoint>
          <Trackpoint>
            <Time>2020-02-09T08:41:59.000Z</Time>
            <Position>
              <LatitudeDegrees>38.93102810718119144439697265625</LatitudeDegrees>
              <LongitudeDegrees>-2.8497128002345561981201171875</LongitudeDegrees>
            </Position>
            <AltitudeMeters>876.4000244140625</AltitudeMeters>
            <DistanceMeters>1752.023429418</DistanceMeters>
          </Trackpoint>
          <Trackpoint>
            <Time>2020-02-09T08:42:01.000Z</Time>
            <Position>
              <LatitudeDegrees>38.93105677329003810882568359375</LatitudeDegrees>
              <LongitudeDegrees>-2.84985219128429889678955078125</LongitudeDegrees>
            </Position>
            <AltitudeMeters>875.4000244140625</AltitudeMeters>
            <DistanceMeters>1764.5070610719</DistanceMeters>
          </Trackpoint>
          <Trackpoint>
            <Time>2020-02-09T08:42:03.000Z</Time>
            <Position>
              <LatitudeDegrees>38.93112458288669586181640625</LatitudeDegrees>
              <LongitudeDegrees>-2.8499692864716053009033203125</LongitudeDegrees>
            </Position>
            <AltitudeMeters>874.5999755859375</AltitudeMeters>
            <DistanceMeters>1777.1466857676</DistanceMeters>
          </Trackpoint>
          <Trackpoint>
            <Time>2020-02-09T08:42:09.000Z</Time>
            <Position>
              <LatitudeDegrees>38.9312390796840190887451171875</LatitudeDegrees>
              <LongitudeDegrees>-2.8503406047821044921875</LongitudeDegrees>
            </Position>
            <AltitudeMeters>872.79998779296875</AltitudeMeters>
            <DistanceMeters>1811.7298826224</DistanceMeters>
          </Trackpoint>
          <Trackpoint>
            <Time>2020-02-09T08:42:10.000Z</Time>
            <Position>
              <LatitudeDegrees>38.93126715905964374542236328125</LatitudeDegrees>
              <LongitudeDegrees>-2.85036046989262104034423828125</LongitudeDegrees>
            </Position>
            <AltitudeMeters>872.5999755859375</AltitudeMeters>
            <DistanceMeters>1815.2981325836</DistanceMeters>
          </Trackpoint>
          <Trackpoint>
            <Time>2020-02-09T08:42:14.000Z</Time>
            <Position>
              <LatitudeDegrees>38.931357599794864654541015625</LatitudeDegrees>
              <LongitudeDegrees>-2.85048720426857471466064453125</LongitudeDegrees>
            </Position>
            <AltitudeMeters>872.20001220703125</AltitudeMeters>
            <DistanceMeters>1830.1891552872</DistanceMeters>
          </Trackpoint>
          <Trackpoint>
            <Time>2020-02-09T08:42:16.000Z</Time>
            <Position>
              <LatitudeDegrees>38.93137696199119091033935546875</LatitudeDegrees>
              <LongitudeDegrees>-2.8506063111126422882080078125</LongitudeDegrees>
            </Position>
            <AltitudeMeters>871.20001220703125</AltitudeMeters>
            <DistanceMeters>1840.7246998696</DistanceMeters>
          </Trackpoint>
          <Trackpoint>
            <Time>2020-02-09T08:42:18.000Z</Time>
            <Position>
              <LatitudeDegrees>38.9313872717320919036865234375</LatitudeDegrees>
              <LongitudeDegrees>-2.850741930305957794189453125</LongitudeDegrees>
            </Position>
            <AltitudeMeters>869</AltitudeMeters>
            <DistanceMeters>1852.5229467048</DistanceMeters>
          </Trackpoint>
          <Trackpoint>
            <Time>2020-02-09T08:42:19.000Z</Time>
            <Position>
              <LatitudeDegrees>38.9313988387584686279296875</LatitudeDegrees>
              <LongitudeDegrees>-2.8507980890572071075439453125</LongitudeDegrees>
            </Position>
            <AltitudeMeters>868</AltitudeMeters>
            <DistanceMeters>1857.5512877874</DistanceMeters>
          </Trackpoint>
          <Trackpoint>
            <Time>2020-02-09T08:42:20.000Z</Time>
            <Position>
              <LatitudeDegrees>38.9314204640686511993408203125</LatitudeDegrees>
              <LongitudeDegrees>-2.85084142349660396575927734375</LongitudeDegrees>
            </Position>
            <AltitudeMeters>867.20001220703125</AltitudeMeters>
            <DistanceMeters>1862.0084357743</DistanceMeters>
          </Trackpoint>
          <Trackpoint>
            <Time>2020-02-09T08:42:22.000Z</Time>
            <Position>
              <LatitudeDegrees>38.931452147662639617919921875</LatitudeDegrees>
              <LongitudeDegrees>-2.850943766534328460693359375</LongitudeDegrees>
            </Position>
            <AltitudeMeters>865.5999755859375</AltitudeMeters>
            <DistanceMeters>1871.5452554718</DistanceMeters>
          </Trackpoint>
          <Trackpoint>
            <Time>2020-02-09T08:42:25.000Z</Time>
            <Position>
              <LatitudeDegrees>38.93148173578083515167236328125</LatitudeDegrees>
              <LongitudeDegrees>-2.85109958611428737640380859375</LongitudeDegrees>
            </Position>
            <AltitudeMeters>863.5999755859375</AltitudeMeters>
            <DistanceMeters>1885.4321670269</DistanceMeters>
          </Trackpoint>
          <Trackpoint>
            <Time>2020-02-09T08:42:29.000Z</Time>
            <Position>
              <LatitudeDegrees>38.93146497197449207305908203125</LatitudeDegrees>
              <LongitudeDegrees>-2.851284407079219818115234375</LongitudeDegrees>
            </Position>
            <AltitudeMeters>861.4000244140625</AltitudeMeters>
            <DistanceMeters>1901.5424884747</DistanceMeters>
          </Trackpoint>
          <Trackpoint>
            <Time>2020-02-09T08:42:31.000Z</Time>
            <Position>
              <LatitudeDegrees>38.93150143325328826904296875</LatitudeDegrees>
              <LongitudeDegrees>-2.85140250809490680694580078125</LongitudeDegrees>
            </Position>
            <AltitudeMeters>859.4000244140625</AltitudeMeters>
            <DistanceMeters>1912.5434468194</DistanceMeters>
          </Trackpoint>
          <Trackpoint>
            <Time>2020-02-09T08:42:33.000Z</Time>
            <Position>
              <LatitudeDegrees>38.93149740993976593017578125</LatitudeDegrees>
              <LongitudeDegrees>-2.85150401294231414794921875</LongitudeDegrees>
            </Position>
            <AltitudeMeters>857.79998779296875</AltitudeMeters>
            <DistanceMeters>1921.343043714</DistanceMeters>
          </Trackpoint>
          <Trackpoint>
            <Time>2020-02-09T08:42:35.000Z</Time>
            <Position>
              <LatitudeDegrees>38.93147754482924938201904296875</LatitudeDegrees>
              <LongitudeDegrees>-2.85163569264113903045654296875</LongitudeDegrees>
            </Position>
            <AltitudeMeters>856</AltitudeMeters>
            <DistanceMeters>1932.9569255733</DistanceMeters>
          </Trackpoint>
          <Trackpoint>
            <Time>2020-02-09T08:42:39.000Z</Time>
            <Position>
              <LatitudeDegrees>38.9315227232873439788818359375</LatitudeDegrees>
              <LongitudeDegrees>-2.85191212780773639678955078125</LongitudeDegrees>
            </Position>
            <AltitudeMeters>852.4000244140625</AltitudeMeters>
            <DistanceMeters>1957.4137079352</DistanceMeters>
          </Trackpoint>
          <Trackpoint>
            <Time>2020-02-09T08:42:40.000Z</Time>
            <Position>
              <LatitudeDegrees>38.93154300749301910400390625</LatitudeDegrees>
              <LongitudeDegrees>-2.85197180695831775665283203125</LongitudeDegrees>
            </Position>
            <AltitudeMeters>851.5999755859375</AltitudeMeters>
            <DistanceMeters>1963.0524045185</DistanceMeters>
          </Trackpoint>
          <Trackpoint>
            <Time>2020-02-09T08:42:44.000Z</Time>
            <Position>
              <LatitudeDegrees>38.93156840465962886810302734375</LatitudeDegrees>
              <LongitudeDegrees>-2.85210005007684230804443359375</LongitudeDegrees>
            </Position>
            <AltitudeMeters>850.20001220703125</AltitudeMeters>
            <DistanceMeters>1974.510120318</DistanceMeters>
          </Trackpoint>
          <Trackpoint>
            <Time>2020-02-09T08:42:48.000Z</Time>
            <Position>
              <LatitudeDegrees>38.9315183646976947784423828125</LatitudeDegrees>
              <LongitudeDegrees>-2.8521006368100643157958984375</LongitudeDegrees>
            </Position>
            <AltitudeMeters>850.5999755859375</AltitudeMeters>
            <DistanceMeters>1980.0795289568</DistanceMeters>
          </Trackpoint>
          <Trackpoint>
            <Time>2020-02-09T08:42:55.000Z</Time>
            <Position>
              <LatitudeDegrees>38.93141585402190685272216796875</LatitudeDegrees>
              <LongitudeDegrees>-2.8521231003105640411376953125</LongitudeDegrees>
            </Position>
            <AltitudeMeters>851.4000244140625</AltitudeMeters>
            <DistanceMeters>1991.6536891443</DistanceMeters>
          </Trackpoint>
          <Trackpoint>
            <Time>2020-02-09T08:42:59.000Z</Time>
            <Position>
              <LatitudeDegrees>38.93139858730137348175048828125</LatitudeDegrees>
              <LongitudeDegrees>-2.8521613217890262603759765625</LongitudeDegrees>
            </Position>
            <AltitudeMeters>851.20001220703125</AltitudeMeters>
            <DistanceMeters>1995.4808008479</DistanceMeters>
          </Trackpoint>
          <Trackpoint>
            <Time>2020-02-09T08:43:01.000Z</Time>
            <Position>
              <LatitudeDegrees>38.931383080780506134033203125</LatitudeDegrees>
              <LongitudeDegrees>-2.85218068398535251617431640625</LongitudeDegrees>
            </Position>
            <AltitudeMeters>851.20001220703125</AltitudeMeters>
            <DistanceMeters>1997.8848076957</DistanceMeters>
          </Trackpoint>
          <Trackpoint>
            <Time>2020-02-09T08:43:03.000Z</Time>
            <Position>
              <LatitudeDegrees>38.93137780018150806427001953125</LatitudeDegrees>
              <LongitudeDegrees>-2.85218906588852405548095703125</LongitudeDegrees>
            </Position>
            <AltitudeMeters>851.20001220703125</AltitudeMeters>
            <DistanceMeters>1998.8158755442</DistanceMeters>
          </Trackpoint>
          <Trackpoint>
            <Time>2020-02-09T08:43:14.000Z</Time>
            <Position>
              <LatitudeDegrees>38.9313621260225772857666015625</LatitudeDegrees>
              <LongitudeDegrees>-2.85222142003476619720458984375</LongitudeDegrees>
            </Position>
            <AltitudeMeters>851</AltitudeMeters>
            <DistanceMeters>2002.1159167851</DistanceMeters>
          </Trackpoint>
          <Trackpoint>
            <Time>2020-02-09T08:43:19.000Z</Time>
            <Position>
              <LatitudeDegrees>38.9313265867531299591064453125</LatitudeDegrees>
              <LongitudeDegrees>-2.8523507528007030487060546875</LongitudeDegrees>
            </Position>
            <AltitudeMeters>850.4000244140625</AltitudeMeters>
            <DistanceMeters>2013.992355395</DistanceMeters>
          </Trackpoint>
          <Trackpoint>
            <Time>2020-02-09T08:43:28.000Z</Time>
            <Position>
              <LatitudeDegrees>38.93118082545697689056396484375</LatitudeDegrees>
              <LongitudeDegrees>-2.85255837254226207733154296875</LongitudeDegrees>
            </Position>
            <AltitudeMeters>850.4000244140625</AltitudeMeters>
            <DistanceMeters>2038.2070194178</DistanceMeters>
          </Trackpoint>
          <Trackpoint>
            <Time>2020-02-09T08:43:38.000Z</Time>
            <Position>
              <LatitudeDegrees>38.93096038140356540679931640625</LatitudeDegrees>
              <LongitudeDegrees>-2.85278669558465480804443359375</LongitudeDegrees>
            </Position>
            <AltitudeMeters>852.79998779296875</AltitudeMeters>
            <DistanceMeters>2069.71607819</DistanceMeters>
          </Trackpoint>
          <Trackpoint>
            <Time>2020-02-09T08:43:48.000Z</Time>
            <Position>
              <LatitudeDegrees>38.93077857792377471923828125</LatitudeDegrees>
              <LongitudeDegrees>-2.85292885266244411468505859375</LongitudeDegrees>
            </Position>
            <AltitudeMeters>853</AltitudeMeters>
            <DistanceMeters>2093.4004263697</DistanceMeters>
          </Trackpoint>
          <Trackpoint>
            <Time>2020-02-09T08:43:58.000Z</Time>
            <Position>
              <LatitudeDegrees>38.93055486492812633514404296875</LatitudeDegrees>
              <LongitudeDegrees>-2.8530214726924896240234375</LongitudeDegrees>
            </Position>
            <AltitudeMeters>852.79998779296875</AltitudeMeters>
            <DistanceMeters>2119.5597119677</DistanceMeters>
          </Trackpoint>
          <Trackpoint>
            <Time>2020-02-09T08:44:08.000Z</Time>
            <Position>
              <LatitudeDegrees>38.93031966872513294219970703125</LatitudeDegrees>
              <LongitudeDegrees>-2.8530702553689479827880859375</LongitudeDegrees>
            </Position>
            <AltitudeMeters>853.79998779296875</AltitudeMeters>
            <DistanceMeters>2146.0760818594</DistanceMeters>
          </Trackpoint>
          <Trackpoint>
            <Time>2020-02-09T08:44:18.000Z</Time>
            <Position>
              <LatitudeDegrees>38.93006938509643077850341796875</LatitudeDegrees>
              <LongitudeDegrees>-2.85306128673255443572998046875</LongitudeDegrees>
            </Position>
            <AltitudeMeters>856.5999755859375</AltitudeMeters>
            <DistanceMeters>2173.9440328872</DistanceMeters>
          </Trackpoint>
          <Trackpoint>
            <Time>2020-02-09T08:44:28.000Z</Time>
            <Position>
              <LatitudeDegrees>38.92983770929276943206787109375</LatitudeDegrees>
              <LongitudeDegrees>-2.85297713242471218109130859375</LongitudeDegrees>
            </Position>
            <AltitudeMeters>860.20001220703125</AltitudeMeters>
            <DistanceMeters>2200.7397129176</DistanceMeters>
          </Trackpoint>
          <Trackpoint>
            <Time>2020-02-09T08:44:38.000Z</Time>
            <Position>
              <LatitudeDegrees>38.929622881114482879638671875</LatitudeDegrees>
              <LongitudeDegrees>-2.85281033255159854888916015625</LongitudeDegrees>
            </Position>
            <AltitudeMeters>858.79998779296875</AltitudeMeters>
            <DistanceMeters>2228.6736880317</DistanceMeters>
          </Trackpoint>
          <Trackpoint>
            <Time>2020-02-09T08:44:48.000Z</Time>
            <Position>
              <LatitudeDegrees>38.929455243051052093505859375</LatitudeDegrees>
              <LongitudeDegrees>-2.85257312469184398651123046875</LongitudeDegrees>
            </Position>
            <AltitudeMeters>856</AltitudeMeters>
            <DistanceMeters>2256.4218140598</DistanceMeters>
          </Trackpoint>
          <Trackpoint>
            <Time>2020-02-09T08:44:58.000Z</Time>
            <Position>
              <LatitudeDegrees>38.929199092090129852294921875</LatitudeDegrees>
              <LongitudeDegrees>-2.85242057405412197113037109375</LongitudeDegrees>
            </Position>
            <AltitudeMeters>860.79998779296875</AltitudeMeters>
            <DistanceMeters>2287.8430549316</DistanceMeters>
          </Trackpoint>
          <Trackpoint>
            <Time>2020-02-09T08:45:08.000Z</Time>
            <Position>
              <LatitudeDegrees>38.92895174212753772735595703125</LatitudeDegrees>
              <LongitudeDegrees>-2.85227288492023944854736328125</LongitudeDegrees>
            </Position>
            <AltitudeMeters>866.4000244140625</AltitudeMeters>
            <DistanceMeters>2318.1984014211</DistanceMeters>
          </Trackpoint>
          <Trackpoint>
            <Time>2020-02-09T08:45:18.000Z</Time>
            <Position>
              <LatitudeDegrees>38.9287084154784679412841796875</LatitudeDegrees>
              <LongitudeDegrees>-2.85214195959270000457763671875</LongitudeDegrees>
            </Position>
            <AltitudeMeters>866.79998779296875</AltitudeMeters>
            <DistanceMeters>2347.557811787</DistanceMeters>
          </Trackpoint>
          <Trackpoint>
            <Time>2020-02-09T08:45:28.000Z</Time>
            <Position>
              <LatitudeDegrees>38.92845167778432369232177734375</LatitudeDegrees>
              <LongitudeDegrees>-2.85206132568418979644775390625</LongitudeDegrees>
            </Position>
            <AltitudeMeters>866.79998779296875</AltitudeMeters>
            <DistanceMeters>2376.9737606102</DistanceMeters>
          </Trackpoint>
          <Trackpoint>
            <Time>2020-02-09T08:45:38.000Z</Time>
            <Position>
              <LatitudeDegrees>38.9281941018998622894287109375</LatitudeDegrees>
              <LongitudeDegrees>-2.85199326463043689727783203125</LongitudeDegrees>
            </Position>
            <AltitudeMeters>868</AltitudeMeters>
            <DistanceMeters>2406.2419886362</DistanceMeters>
          </Trackpoint>
          <Trackpoint>
            <Time>2020-02-09T08:45:48.000Z</Time>
            <Position>
              <LatitudeDegrees>38.9279154874384403228759765625</LatitudeDegrees>
              <LongitudeDegrees>-2.85187491215765476226806640625</LongitudeDegrees>
            </Position>
            <AltitudeMeters>868.4000244140625</AltitudeMeters>
            <DistanceMeters>2438.9016072762</DistanceMeters>
          </Trackpoint>
          <Trackpoint>
            <Time>2020-02-09T08:45:58.000Z</Time>
            <Position>
              <LatitudeDegrees>38.92764181829988956451416015625</LatitudeDegrees>
              <LongitudeDegrees>-2.851770557463169097900390625</LongitudeDegrees>
            </Position>
            <AltitudeMeters>869.79998779296875</AltitudeMeters>
            <DistanceMeters>2470.6735160247</DistanceMeters>
          </Trackpoint>
          <Trackpoint>
            <Time>2020-02-09T08:46:08.000Z</Time>
            <Position>
              <LatitudeDegrees>38.927406370639801025390625</LatitudeDegrees>
              <LongitudeDegrees>-2.8515913523733615875244140625</LongitudeDegrees>
            </Position>
            <AltitudeMeters>872.4000244140625</AltitudeMeters>
            <DistanceMeters>2501.1286514187</DistanceMeters>
          </Trackpoint>
          <Trackpoint>
            <Time>2020-02-09T08:46:18.000Z</Time>
            <Position>
              <LatitudeDegrees>38.9272011816501617431640625</LatitudeDegrees>
              <LongitudeDegrees>-2.8513221256434917449951171875</LongitudeDegrees>
            </Position>
            <AltitudeMeters>874.4000244140625</AltitudeMeters>
            <DistanceMeters>2533.7629613658</DistanceMeters>
          </Trackpoint>
          <Trackpoint>
            <Time>2020-02-09T08:46:28.000Z</Time>
            <Position>
              <LatitudeDegrees>38.92704351805150508880615234375</LatitudeDegrees>
              <LongitudeDegrees>-2.8510706685483455657958984375</LongitudeDegrees>
            </Position>
            <AltitudeMeters>870.79998779296875</AltitudeMeters>
            <DistanceMeters>2561.7273068802</DistanceMeters>
          </Trackpoint>
          <Trackpoint>
            <Time>2020-02-09T08:46:39.000Z</Time>
            <Position>
              <LatitudeDegrees>38.92699624411761760711669921875</LatitudeDegrees>
              <LongitudeDegrees>-2.8507149405777454376220703125</LongitudeDegrees>
            </Position>
            <AltitudeMeters>869.5999755859375</AltitudeMeters>
            <DistanceMeters>2592.9750614537</DistanceMeters>
          </Trackpoint>
          <Trackpoint>
            <Time>2020-02-09T08:46:50.000Z</Time>
            <Position>
              <LatitudeDegrees>38.92694209702312946319580078125</LatitudeDegrees>
              <LongitudeDegrees>-2.85039357841014862060546875</LongitudeDegrees>
            </Position>
            <AltitudeMeters>870.20001220703125</AltitudeMeters>
            <DistanceMeters>2621.4459912255</DistanceMeters>
          </Trackpoint>
          <Trackpoint>
            <Time>2020-02-09T08:47:00.000Z</Time>
            <Position>
              <LatitudeDegrees>38.9269374869763851165771484375</LatitudeDegrees>
              <LongitudeDegrees>-2.85009694285690784454345703125</LongitudeDegrees>
            </Position>
            <AltitudeMeters>871.20001220703125</AltitudeMeters>
            <DistanceMeters>2647.1359146778</DistanceMeters>
          </Trackpoint>
          <Trackpoint>
            <Time>2020-02-09T08:47:11.000Z</Time>
            <Position>
              <LatitudeDegrees>38.92683397047221660614013671875</LatitudeDegrees>
              <LongitudeDegrees>-2.84981464035809040069580078125</LongitudeDegrees>
            </Position>
            <AltitudeMeters>875.20001220703125</AltitudeMeters>
            <DistanceMeters>2674.1589460005</DistanceMeters>
          </Trackpoint>
          <Trackpoint>
            <Time>2020-02-09T08:47:21.000Z</Time>
            <Position>
              <LatitudeDegrees>38.92661486752331256866455078125</LatitudeDegrees>
              <LongitudeDegrees>-2.84974473528563976287841796875</LongitudeDegrees>
            </Position>
            <AltitudeMeters>877.20001220703125</AltitudeMeters>
            <DistanceMeters>2699.2855618621</DistanceMeters>
          </Trackpoint>
          <Trackpoint>
            <Time>2020-02-09T08:47:32.000Z</Time>
            <Position>
              <LatitudeDegrees>38.9263326488435268402099609375</LatitudeDegrees>
              <LongitudeDegrees>-2.84982629120349884033203125</LongitudeDegrees>
            </Position>
            <AltitudeMeters>877.4000244140625</AltitudeMeters>
            <DistanceMeters>2731.4812521794</DistanceMeters>
          </Trackpoint>
          <Trackpoint>
            <Time>2020-02-09T08:47:42.000Z</Time>
            <Position>
              <LatitudeDegrees>38.926067613065242767333984375</LatitudeDegrees>
              <LongitudeDegrees>-2.84985068254172801971435546875</LongitudeDegrees>
            </Position>
            <AltitudeMeters>876.79998779296875</AltitudeMeters>
            <DistanceMeters>2761.0557885977</DistanceMeters>
          </Trackpoint>
          <Trackpoint>
            <Time>2020-02-09T08:47:51.000Z</Time>
            <Position>
              <LatitudeDegrees>38.9258404634892940521240234375</LatitudeDegrees>
              <LongitudeDegrees>-2.84997875802218914031982421875</LongitudeDegrees>
            </Position>
            <AltitudeMeters>878.79998779296875</AltitudeMeters>
            <DistanceMeters>2788.6632979417</DistanceMeters>
          </Trackpoint>
          <Trackpoint>
            <Time>2020-02-09T08:47:54.000Z</Time>
            <Position>
              <LatitudeDegrees>38.92576863057911396026611328125</LatitudeDegrees>
              <LongitudeDegrees>-2.8499743156135082244873046875</LongitudeDegrees>
            </Position>
            <AltitudeMeters>879.5999755859375</AltitudeMeters>
            <DistanceMeters>2796.6670072251</DistanceMeters>
          </Trackpoint>
          <Trackpoint>
            <Time>2020-02-09T08:48:02.000Z</Time>
            <Position>
              <LatitudeDegrees>38.9256691373884677886962890625</LatitudeDegrees>
              <LongitudeDegrees>-2.84974238835275173187255859375</LongitudeDegrees>
            </Position>
            <AltitudeMeters>883</AltitudeMeters>
            <DistanceMeters>2819.5997709508</DistanceMeters>
          </Trackpoint>
          <Trackpoint>
            <Time>2020-02-09T08:48:12.000Z</Time>
            <Position>
              <LatitudeDegrees>38.92551968805491924285888671875</LatitudeDegrees>
              <LongitudeDegrees>-2.84949076361954212188720703125</LongitudeDegrees>
            </Position>
            <AltitudeMeters>884.4000244140625</AltitudeMeters>
            <DistanceMeters>2847.0114781391</DistanceMeters>
          </Trackpoint>
          <Trackpoint>
            <Time>2020-02-09T08:48:23.000Z</Time>
            <Position>
              <LatitudeDegrees>38.92542245797812938690185546875</LatitudeDegrees>
              <LongitudeDegrees>-2.8491532243788242340087890625</LongitudeDegrees>
            </Position>
            <AltitudeMeters>884.79998779296875</AltitudeMeters>
            <DistanceMeters>2878.1777777727</DistanceMeters>
          </Trackpoint>
          <Trackpoint>
            <Time>2020-02-09T08:48:33.000Z</Time>
            <Position>
              <LatitudeDegrees>38.92535188235342502593994140625</LatitudeDegrees>
              <LongitudeDegrees>-2.8488494642078876495361328125</LongitudeDegrees>
            </Position>
            <AltitudeMeters>884.4000244140625</AltitudeMeters>
            <DistanceMeters>2905.6281650002</DistanceMeters>
          </Trackpoint>
          <Trackpoint>
            <Time>2020-02-09T08:48:43.000Z</Time>
            <Position>
              <LatitudeDegrees>38.92534308135509490966796875</LatitudeDegrees>
              <LongitudeDegrees>-2.84852818585932254791259765625</LongitudeDegrees>
            </Position>
            <AltitudeMeters>883.20001220703125</AltitudeMeters>
            <DistanceMeters>2933.4646672887</DistanceMeters>
          </Trackpoint>
          <Trackpoint>
            <Time>2020-02-09T08:48:53.000Z</Time>
            <Position>
              <LatitudeDegrees>38.92525129951536655426025390625</LatitudeDegrees>
              <LongitudeDegrees>-2.84821386449038982391357421875</LongitudeDegrees>
            </Position>
            <AltitudeMeters>882.20001220703125</AltitudeMeters>
            <DistanceMeters>2962.5353878549</DistanceMeters>
          </Trackpoint>
          <Trackpoint>
            <Time>2020-02-09T08:49:03.000Z</Time>
            <Position>
              <LatitudeDegrees>38.92525750212371349334716796875</LatitudeDegrees>
              <LongitudeDegrees>-2.84793139435350894927978515625</LongitudeDegrees>
            </Position>
            <AltitudeMeters>882.20001220703125</AltitudeMeters>
            <DistanceMeters>2987.0039825916</DistanceMeters>
          </Trackpoint>
          <Trackpoint>
            <Time>2020-02-09T08:49:13.000Z</Time>
            <Position>
              <LatitudeDegrees>38.9253288321197032928466796875</LatitudeDegrees>
              <LongitudeDegrees>-2.847668118774890899658203125</LongitudeDegrees>
            </Position>
            <AltitudeMeters>883.20001220703125</AltitudeMeters>
            <DistanceMeters>3011.1437608234</DistanceMeters>
          </Trackpoint>
          <Trackpoint>
            <Time>2020-02-09T08:49:22.000Z</Time>
            <Position>
              <LatitudeDegrees>38.9254163391888141632080078125</LatitudeDegrees>
              <LongitudeDegrees>-2.84746251069009304046630859375</LongitudeDegrees>
            </Position>
            <AltitudeMeters>884.4000244140625</AltitudeMeters>
            <DistanceMeters>3031.4372490968</DistanceMeters>
          </Trackpoint>
          <Trackpoint>
            <Time>2020-02-09T08:49:31.000Z</Time>
            <Position>
              <LatitudeDegrees>38.92549219541251659393310546875</LatitudeDegrees>
              <LongitudeDegrees>-2.84731649793684482574462890625</LongitudeDegrees>
            </Position>
            <AltitudeMeters>885.4000244140625</AltitudeMeters>
            <DistanceMeters>3046.6406324945</DistanceMeters>
          </Trackpoint>
          <Trackpoint>
            <Time>2020-02-09T08:49:33.000Z</Time>
            <Position>
              <LatitudeDegrees>38.925498984754085540771484375</LatitudeDegrees>
              <LongitudeDegrees>-2.84728732891380786895751953125</LongitudeDegrees>
            </Position>
            <AltitudeMeters>885.5999755859375</AltitudeMeters>
            <DistanceMeters>3049.277516804</DistanceMeters>
          </Trackpoint>
          <Trackpoint>
            <Time>2020-02-09T08:49:43.000Z</Time>
            <Position>
              <LatitudeDegrees>38.9255608431994915008544921875</LatitudeDegrees>
              <LongitudeDegrees>-2.84714433364570140838623046875</LongitudeDegrees>
            </Position>
            <AltitudeMeters>887</AltitudeMeters>
            <DistanceMeters>3063.445104432</DistanceMeters>
          </Trackpoint>
          <Trackpoint>
            <Time>2020-02-09T08:49:52.000Z</Time>
            <Position>
              <LatitudeDegrees>38.92560903914272785186767578125</LatitudeDegrees>
              <LongitudeDegrees>-2.8470195271074771881103515625</LongitudeDegrees>
            </Position>
            <AltitudeMeters>888</AltitudeMeters>
            <DistanceMeters>3075.5101295988</DistanceMeters>
          </Trackpoint>
          <Trackpoint>
            <Time>2020-02-09T08:49:55.000Z</Time>
            <Position>
              <LatitudeDegrees>38.92562337219715118408203125</LatitudeDegrees>
              <LongitudeDegrees>-2.84698893316090106964111328125</LongitudeDegrees>
            </Position>
            <AltitudeMeters>888.4000244140625</AltitudeMeters>
            <DistanceMeters>3078.6025155635</DistanceMeters>
          </Trackpoint>
          <Trackpoint>
            <Time>2020-02-09T08:49:57.000Z</Time>
            <Position>
              <LatitudeDegrees>38.9256419800221920013427734375</LatitudeDegrees>
              <LongitudeDegrees>-2.8469652123749256134033203125</LongitudeDegrees>
            </Position>
            <AltitudeMeters>888.5999755859375</AltitudeMeters>
            <DistanceMeters>3081.5190772395</DistanceMeters>
          </Trackpoint>
          <Trackpoint>
            <Time>2020-02-09T08:49:59.000Z</Time>
            <Position>
              <LatitudeDegrees>38.925654888153076171875</LatitudeDegrees>
              <LongitudeDegrees>-2.84693889319896697998046875</LongitudeDegrees>
            </Position>
            <AltitudeMeters>889</AltitudeMeters>
            <DistanceMeters>3084.210196209</DistanceMeters>
          </Trackpoint>
          <Trackpoint>
            <Time>2020-02-09T08:50:03.000Z</Time>
            <Position>
              <LatitudeDegrees>38.92570425756275653839111328125</LatitudeDegrees>
              <LongitudeDegrees>-2.84691148437559604644775390625</LongitudeDegrees>
            </Position>
            <AltitudeMeters>889.4000244140625</AltitudeMeters>
            <DistanceMeters>3090.1961249865</DistanceMeters>
          </Trackpoint>
          <Trackpoint>
            <Time>2020-02-09T08:50:14.000Z</Time>
            <Position>
              <LatitudeDegrees>38.92585731111466884613037109375</LatitudeDegrees>
              <LongitudeDegrees>-2.846885584294795989990234375</LongitudeDegrees>
            </Position>
            <AltitudeMeters>890.5999755859375</AltitudeMeters>
            <DistanceMeters>3107.3783634687</DistanceMeters>
          </Trackpoint>
          <Trackpoint>
            <Time>2020-02-09T08:50:20.000Z</Time>
            <Position>
              <LatitudeDegrees>38.9258951134979724884033203125</LatitudeDegrees>
              <LongitudeDegrees>-2.84686806611716747283935546875</LongitudeDegrees>
            </Position>
            <AltitudeMeters>891</AltitudeMeters>
            <DistanceMeters>3111.8506804659</DistanceMeters>
          </Trackpoint>
          <Trackpoint>
            <Time>2020-02-09T08:50:33.000Z</Time>
            <Position>
              <LatitudeDegrees>38.92592051066458225250244140625</LatitudeDegrees>
              <LongitudeDegrees>-2.8468247316777706146240234375</LongitudeDegrees>
            </Position>
            <AltitudeMeters>891.4000244140625</AltitudeMeters>
            <DistanceMeters>3116.5484998355</DistanceMeters>
          </Trackpoint>
          <Trackpoint>
            <Time>2020-02-09T08:50:34.000Z</Time>
            <Position>
              <LatitudeDegrees>38.9259329997003078460693359375</LatitudeDegrees>
              <LongitudeDegrees>-2.8468029387295246124267578125</LongitudeDegrees>
            </Position>
            <AltitudeMeters>891.5999755859375</AltitudeMeters>
            <DistanceMeters>3118.8954865484</DistanceMeters>
          </Trackpoint>
          <Trackpoint>
            <Time>2020-02-09T08:50:43.000Z</Time>
            <Position>
              <LatitudeDegrees>38.92597013153135776519775390625</LatitudeDegrees>
              <LongitudeDegrees>-2.84657319076359272003173828125</LongitudeDegrees>
            </Position>
            <AltitudeMeters>892.5999755859375</AltitudeMeters>
            <DistanceMeters>3139.2136558752</DistanceMeters>
          </Trackpoint>
          <Trackpoint>
            <Time>2020-02-09T08:50:44.000Z</Time>
            <Position>
              <LatitudeDegrees>38.9259578101336956024169921875</LatitudeDegrees>
              <LongitudeDegrees>-2.84655542112886905670166015625</LongitudeDegrees>
            </Position>
            <AltitudeMeters>892.5999755859375</AltitudeMeters>
            <DistanceMeters>3141.2737859508</DistanceMeters>
          </Trackpoint>
          <Trackpoint>
            <Time>2020-02-09T08:50:54.000Z</Time>
            <Position>
              <LatitudeDegrees>38.9257455803453922271728515625</LatitudeDegrees>
              <LongitudeDegrees>-2.8464368171989917755126953125</LongitudeDegrees>
            </Position>
            <AltitudeMeters>891.4000244140625</AltitudeMeters>
            <DistanceMeters>3167.031460079</DistanceMeters>
          </Trackpoint>
          <Trackpoint>
            <Time>2020-02-09T08:51:04.000Z</Time>
            <Position>
              <LatitudeDegrees>38.9255460910499095916748046875</LatitudeDegrees>
              <LongitudeDegrees>-2.84622768871486186981201171875</LongitudeDegrees>
            </Position>
            <AltitudeMeters>891.20001220703125</AltitudeMeters>
            <DistanceMeters>3195.6829205892</DistanceMeters>
          </Trackpoint>
          <Trackpoint>
            <Time>2020-02-09T08:51:14.000Z</Time>
            <Position>
              <LatitudeDegrees>38.925354145467281341552734375</LatitudeDegrees>
              <LongitudeDegrees>-2.8459945879876613616943359375</LongitudeDegrees>
            </Position>
            <AltitudeMeters>891.79998779296875</AltitudeMeters>
            <DistanceMeters>3225.073379117</DistanceMeters>
          </Trackpoint>
          <Trackpoint>
            <Time>2020-02-09T08:51:24.000Z</Time>
            <Position>
              <LatitudeDegrees>38.92520234920084476470947265625</LatitudeDegrees>
              <LongitudeDegrees>-2.845702059566974639892578125</LongitudeDegrees>
            </Position>
            <AltitudeMeters>892</AltitudeMeters>
            <DistanceMeters>3255.5208044251</DistanceMeters>
          </Trackpoint>
          <Trackpoint>
            <Time>2020-02-09T08:51:34.000Z</Time>
            <Position>
              <LatitudeDegrees>38.925043009221553802490234375</LatitudeDegrees>
              <LongitudeDegrees>-2.8453025780618190765380859375</LongitudeDegrees>
            </Position>
            <AltitudeMeters>892</AltitudeMeters>
            <DistanceMeters>3294.3931194041</DistanceMeters>
          </Trackpoint>
          <Trackpoint>
            <Time>2020-02-09T08:51:37.000Z</Time>
            <Position>
              <LatitudeDegrees>38.92498944886028766632080078125</LatitudeDegrees>
              <LongitudeDegrees>-2.8451620973646640777587890625</LongitudeDegrees>
            </Position>
            <AltitudeMeters>892</AltitudeMeters>
            <DistanceMeters>3307.9393433584</DistanceMeters>
          </Trackpoint>
          <Trackpoint>
            <Time>2020-02-09T08:51:40.000Z</Time>
            <Position>
              <LatitudeDegrees>38.92489020712673664093017578125</LatitudeDegrees>
              <LongitudeDegrees>-2.84507920034229755401611328125</LongitudeDegrees>
            </Position>
            <AltitudeMeters>891.79998779296875</AltitudeMeters>
            <DistanceMeters>3321.1128018678</DistanceMeters>
          </Trackpoint>
          <Trackpoint>
            <Time>2020-02-09T08:51:42.000Z</Time>
            <Position>
              <LatitudeDegrees>38.9248058013617992401123046875</LatitudeDegrees>
              <LongitudeDegrees>-2.84502639435231685638427734375</LongitudeDegrees>
            </Position>
            <AltitudeMeters>891.20001220703125</AltitudeMeters>
            <DistanceMeters>3331.5609880324</DistanceMeters>
          </Trackpoint>
          <Trackpoint>
            <Time>2020-02-09T08:51:44.000Z</Time>
            <Position>
              <LatitudeDegrees>38.92474251799285411834716796875</LatitudeDegrees>
              <LongitudeDegrees>-2.84492430277168750762939453125</LongitudeDegrees>
            </Position>
            <AltitudeMeters>890.5999755859375</AltitudeMeters>
            <DistanceMeters>3342.8639753159</DistanceMeters>
          </Trackpoint>
          <Trackpoint>
            <Time>2020-02-09T08:51:54.000Z</Time>
            <Position>
              <LatitudeDegrees>38.9245325513184070587158203125</LatitudeDegrees>
              <LongitudeDegrees>-2.8444479592144489288330078125</LongitudeDegrees>
            </Position>
            <AltitudeMeters>889.79998779296875</AltitudeMeters>
            <DistanceMeters>3390.2709735918</DistanceMeters>
          </Trackpoint>
          <Trackpoint>
            <Time>2020-02-09T08:52:04.000Z</Time>
            <Position>
              <LatitudeDegrees>38.92427262850105762481689453125</LatitudeDegrees>
              <LongitudeDegrees>-2.844122909009456634521484375</LongitudeDegrees>
            </Position>
            <AltitudeMeters>889.5999755859375</AltitudeMeters>
            <DistanceMeters>3430.6337313217</DistanceMeters>
          </Trackpoint>
          <Trackpoint>
            <Time>2020-02-09T08:52:13.000Z</Time>
            <Position>
              <LatitudeDegrees>38.92395143397152423858642578125</LatitudeDegrees>
              <LongitudeDegrees>-2.844136990606784820556640625</LongitudeDegrees>
            </Position>
            <AltitudeMeters>890</AltitudeMeters>
            <DistanceMeters>3466.4041899686</DistanceMeters>
          </Trackpoint>
          <Trackpoint>
            <Time>2020-02-09T08:52:14.000Z</Time>
            <Position>
              <LatitudeDegrees>38.9239116199314594268798828125</LatitudeDegrees>
              <LongitudeDegrees>-2.84411184489727020263671875</LongitudeDegrees>
            </Position>
            <AltitudeMeters>890</AltitudeMeters>
            <DistanceMeters>3471.3419228895</DistanceMeters>
          </Trackpoint>
          <Trackpoint>
            <Time>2020-02-09T08:52:15.000Z</Time>
            <Position>
              <LatitudeDegrees>38.9238730631768703460693359375</LatitudeDegrees>
              <LongitudeDegrees>-2.84407974220812320709228515625</LongitudeDegrees>
            </Position>
            <AltitudeMeters>889.79998779296875</AltitudeMeters>
            <DistanceMeters>3476.4548546615</DistanceMeters>
          </Trackpoint>
          <Trackpoint>
            <Time>2020-02-09T08:52:17.000Z</Time>
            <Position>
              <LatitudeDegrees>38.923797123134136199951171875</LatitudeDegrees>
              <LongitudeDegrees>-2.843970693647861480712890625</LongitudeDegrees>
            </Position>
            <AltitudeMeters>889.4000244140625</AltitudeMeters>
            <DistanceMeters>3489.1280128959</DistanceMeters>
          </Trackpoint>
          <Trackpoint>
            <Time>2020-02-09T08:52:19.000Z</Time>
            <Position>
              <LatitudeDegrees>38.92374716699123382568359375</LatitudeDegrees>
              <LongitudeDegrees>-2.8438293747603893280029296875</LongitudeDegrees>
            </Position>
            <AltitudeMeters>890</AltitudeMeters>
            <DistanceMeters>3502.5691713063</DistanceMeters>
          </Trackpoint>
          <Trackpoint>
            <Time>2020-02-09T08:52:21.000Z</Time>
            <Position>
              <LatitudeDegrees>38.92374792136251926422119140625</LatitudeDegrees>
              <LongitudeDegrees>-2.84371881745755672454833984375</LongitudeDegrees>
            </Position>
            <AltitudeMeters>890.20001220703125</AltitudeMeters>
            <DistanceMeters>3512.1428475023</DistanceMeters>
          </Trackpoint>
          <Trackpoint>
            <Time>2020-02-09T08:52:23.000Z</Time>
            <Position>
              <LatitudeDegrees>38.92380760051310062408447265625</LatitudeDegrees>
              <LongitudeDegrees>-2.84364488907158374786376953125</LongitudeDegrees>
            </Position>
            <AltitudeMeters>889.79998779296875</AltitudeMeters>
            <DistanceMeters>3521.3677832965</DistanceMeters>
          </Trackpoint>
          <Trackpoint>
            <Time>2020-02-09T08:52:25.000Z</Time>
            <Position>
              <LatitudeDegrees>38.923868872225284576416015625</LatitudeDegrees>
              <LongitudeDegrees>-2.84356274642050266265869140625</LongitudeDegrees>
            </Position>
            <AltitudeMeters>889.20001220703125</AltitudeMeters>
            <DistanceMeters>3531.2212792206</DistanceMeters>
          </Trackpoint>
          <Trackpoint>
            <Time>2020-02-09T08:52:27.000Z</Time>
            <Position>
              <LatitudeDegrees>38.9239025674760341644287109375</LatitudeDegrees>
              <LongitudeDegrees>-2.84344908781349658966064453125</LongitudeDegrees>
            </Position>
            <AltitudeMeters>889.20001220703125</AltitudeMeters>
            <DistanceMeters>3541.7533948218</DistanceMeters>
          </Trackpoint>
          <Trackpoint>
            <Time>2020-02-09T08:52:30.000Z</Time>
            <Position>
              <LatitudeDegrees>38.923930227756500244140625</LatitudeDegrees>
              <LongitudeDegrees>-2.84325546585023403167724609375</LongitudeDegrees>
            </Position>
            <AltitudeMeters>887.5999755859375</AltitudeMeters>
            <DistanceMeters>3558.7995028766</DistanceMeters>
          </Trackpoint>
          <Trackpoint>
            <Time>2020-02-09T08:52:33.000Z</Time>
            <Position>
              <LatitudeDegrees>38.92403273843228816986083984375</LatitudeDegrees>
              <LongitudeDegrees>-2.843032591044902801513671875</LongitudeDegrees>
            </Position>
            <AltitudeMeters>884.5999755859375</AltitudeMeters>
            <DistanceMeters>3581.2185584961</DistanceMeters>
          </Trackpoint>
          <Trackpoint>
            <Time>2020-02-09T08:52:34.000Z</Time>
            <Position>
              <LatitudeDegrees>38.92407431267201900482177734375</LatitudeDegrees>
              <LongitudeDegrees>-2.8429578244686126708984375</LongitudeDegrees>
            </Position>
            <AltitudeMeters>883.5999755859375</AltitudeMeters>
            <DistanceMeters>3589.1764430203</DistanceMeters>
          </Trackpoint>
          <Trackpoint>
            <Time>2020-02-09T08:52:35.000Z</Time>
            <Position>
              <LatitudeDegrees>38.92409141175448894500732421875</LatitudeDegrees>
              <LongitudeDegrees>-2.84288062714040279388427734375</LongitudeDegrees>
            </Position>
            <AltitudeMeters>882.79998779296875</AltitudeMeters>
            <DistanceMeters>3596.1263983366</DistanceMeters>
          </Trackpoint>
          <Trackpoint>
            <Time>2020-02-09T08:52:41.000Z</Time>
            <Position>
              <LatitudeDegrees>38.92405989579856395721435546875</LatitudeDegrees>
              <LongitudeDegrees>-2.84240872599184513092041015625</LongitudeDegrees>
            </Position>
            <AltitudeMeters>882.20001220703125</AltitudeMeters>
            <DistanceMeters>3637.1389859071</DistanceMeters>
          </Trackpoint>
          <Trackpoint>
            <Time>2020-02-09T08:52:43.000Z</Time>
            <Position>
              <LatitudeDegrees>38.92408722080290317535400390625</LatitudeDegrees>
              <LongitudeDegrees>-2.84226246178150177001953125</LongitudeDegrees>
            </Position>
            <AltitudeMeters>881.20001220703125</AltitudeMeters>
            <DistanceMeters>3650.1642335527</DistanceMeters>
          </Trackpoint>
          <Trackpoint>
            <Time>2020-02-09T08:52:44.000Z</Time>
            <Position>
              <LatitudeDegrees>38.92411069013178348541259765625</LatitudeDegrees>
              <LongitudeDegrees>-2.8421942330896854400634765625</LongitudeDegrees>
            </Position>
            <AltitudeMeters>880.5999755859375</AltitudeMeters>
            <DistanceMeters>3656.6232546218</DistanceMeters>
          </Trackpoint>
          <Trackpoint>
            <Time>2020-02-09T08:52:45.000Z</Time>
            <Position>
              <LatitudeDegrees>38.92414036206901073455810546875</LatitudeDegrees>
              <LongitudeDegrees>-2.84213245846331119537353515625</LongitudeDegrees>
            </Position>
            <AltitudeMeters>880</AltitudeMeters>
            <DistanceMeters>3662.908680975</DistanceMeters>
          </Trackpoint>
          <Trackpoint>
            <Time>2020-02-09T08:52:49.000Z</Time>
            <Position>
              <LatitudeDegrees>38.92429291270673274993896484375</LatitudeDegrees>
              <LongitudeDegrees>-2.84202114678919315338134765625</LongitudeDegrees>
            </Position>
            <AltitudeMeters>877</AltitudeMeters>
            <DistanceMeters>3682.4329132776</DistanceMeters>
          </Trackpoint>
          <Trackpoint>
            <Time>2020-02-09T08:52:51.000Z</Time>
            <Position>
              <LatitudeDegrees>38.924383185803890228271484375</LatitudeDegrees>
              <LongitudeDegrees>-2.84196046181023120880126953125</LongitudeDegrees>
            </Position>
            <AltitudeMeters>875.20001220703125</AltitudeMeters>
            <DistanceMeters>3693.7713963478</DistanceMeters>
          </Trackpoint>
          <Trackpoint>
            <Time>2020-02-09T08:52:54.000Z</Time>
            <Position>
              <LatitudeDegrees>38.924515284597873687744140625</LatitudeDegrees>
              <LongitudeDegrees>-2.84179148264229297637939453125</LongitudeDegrees>
            </Position>
            <AltitudeMeters>874</AltitudeMeters>
            <DistanceMeters>3714.5142284206</DistanceMeters>
          </Trackpoint>
          <Trackpoint>
            <Time>2020-02-09T08:52:55.000Z</Time>
            <Position>
              <LatitudeDegrees>38.92454822547733783721923828125</LatitudeDegrees>
              <LongitudeDegrees>-2.8417298756539821624755859375</LongitudeDegrees>
            </Position>
            <AltitudeMeters>873.5999755859375</AltitudeMeters>
            <DistanceMeters>3720.987214957</DistanceMeters>
          </Trackpoint>
          <Trackpoint>
            <Time>2020-02-09T08:52:57.000Z</Time>
            <Position>
              <LatitudeDegrees>38.92456255853176116943359375</LatitudeDegrees>
              <LongitudeDegrees>-2.84160154871642589569091796875</LongitudeDegrees>
            </Position>
            <AltitudeMeters>873</AltitudeMeters>
            <DistanceMeters>3732.2132448363</DistanceMeters>
          </Trackpoint>
          <Trackpoint>
            <Time>2020-02-09T08:53:00.000Z</Time>
            <Position>
              <LatitudeDegrees>38.92456482164561748504638671875</LatitudeDegrees>
              <LongitudeDegrees>-2.841411530971527099609375</LongitudeDegrees>
            </Position>
            <AltitudeMeters>872.79998779296875</AltitudeMeters>
            <DistanceMeters>3748.6690624217</DistanceMeters>
          </Trackpoint>
          <Trackpoint>
            <Time>2020-02-09T08:53:04.000Z</Time>
            <Position>
              <LatitudeDegrees>38.9246468804776668548583984375</LatitudeDegrees>
              <LongitudeDegrees>-2.84117440693080425262451171875</LongitudeDegrees>
            </Position>
            <AltitudeMeters>872.20001220703125</AltitudeMeters>
            <DistanceMeters>3771.1414237824</DistanceMeters>
          </Trackpoint>
          <Trackpoint>
            <Time>2020-02-09T08:53:09.000Z</Time>
            <Position>
              <LatitudeDegrees>38.92475944943726062774658203125</LatitudeDegrees>
              <LongitudeDegrees>-2.8408630192279815673828125</LongitudeDegrees>
            </Position>
            <AltitudeMeters>871.4000244140625</AltitudeMeters>
            <DistanceMeters>3800.8732463523</DistanceMeters>
          </Trackpoint>
          <Trackpoint>
            <Time>2020-02-09T08:53:14.000Z</Time>
            <Position>
              <LatitudeDegrees>38.9249080605804920196533203125</LatitudeDegrees>
              <LongitudeDegrees>-2.84051760099828243255615234375</LongitudeDegrees>
            </Position>
            <AltitudeMeters>868.5999755859375</AltitudeMeters>
            <DistanceMeters>3835.0519658903</DistanceMeters>
          </Trackpoint>
          <Trackpoint>
            <Time>2020-02-09T08:53:21.000Z</Time>
            <Position>
              <LatitudeDegrees>38.92514526844024658203125</LatitudeDegrees>
              <LongitudeDegrees>-2.83992315642535686492919921875</LongitudeDegrees>
            </Position>
            <AltitudeMeters>864.20001220703125</AltitudeMeters>
            <DistanceMeters>3892.9007612072</DistanceMeters>
          </Trackpoint>
          <Trackpoint>
            <Time>2020-02-09T08:53:24.000Z</Time>
            <Position>
              <LatitudeDegrees>38.92524878494441509246826171875</LatitudeDegrees>
              <LongitudeDegrees>-2.8396732918918132781982421875</LongitudeDegrees>
            </Position>
            <AltitudeMeters>861.20001220703125</AltitudeMeters>
            <DistanceMeters>3917.4128648792</DistanceMeters>
          </Trackpoint>
          <Trackpoint>
            <Time>2020-02-09T08:53:26.000Z</Time>
            <Position>
              <LatitudeDegrees>38.92534601502120494842529296875</LatitudeDegrees>
              <LongitudeDegrees>-2.8396077454090118408203125</LongitudeDegrees>
            </Position>
            <AltitudeMeters>859.5999755859375</AltitudeMeters>
            <DistanceMeters>3929.6325761719</DistanceMeters>
          </Trackpoint>
          <Trackpoint>
            <Time>2020-02-09T08:53:29.000Z</Time>
            <Position>
              <LatitudeDegrees>38.92550267279148101806640625</LatitudeDegrees>
              <LongitudeDegrees>-2.839597351849079132080078125</LongitudeDegrees>
            </Position>
            <AltitudeMeters>857.79998779296875</AltitudeMeters>
            <DistanceMeters>3947.0921672495</DistanceMeters>
          </Trackpoint>
          <Trackpoint>
            <Time>2020-02-09T08:53:31.000Z</Time>
            <Position>
              <LatitudeDegrees>38.92559529282152652740478515625</LatitudeDegrees>
              <LongitudeDegrees>-2.83962844870984554290771484375</LongitudeDegrees>
            </Position>
            <AltitudeMeters>857</AltitudeMeters>
            <DistanceMeters>3957.7466072149</DistanceMeters>
          </Trackpoint>
          <Trackpoint>
            <Time>2020-02-09T08:53:33.000Z</Time>
            <Position>
              <LatitudeDegrees>38.92568028531968593597412109375</LatitudeDegrees>
              <LongitudeDegrees>-2.83970103599131107330322265625</LongitudeDegrees>
            </Position>
            <AltitudeMeters>856.5999755859375</AltitudeMeters>
            <DistanceMeters>3969.1037904892</DistanceMeters>
          </Trackpoint>
          <Trackpoint>
            <Time>2020-02-09T08:53:34.000Z</Time>
            <Position>
              <LatitudeDegrees>38.9257232844829559326171875</LatitudeDegrees>
              <LongitudeDegrees>-2.83974730409681797027587890625</LongitudeDegrees>
            </Position>
            <AltitudeMeters>856.5999755859375</AltitudeMeters>
            <DistanceMeters>3975.345244629</DistanceMeters>
          </Trackpoint>
          <Trackpoint>
            <Time>2020-02-09T08:53:35.000Z</Time>
            <Position>
              <LatitudeDegrees>38.92576980404555797576904296875</LatitudeDegrees>
              <LongitudeDegrees>-2.839791141450405120849609375</LongitudeDegrees>
            </Position>
            <AltitudeMeters>856.4000244140625</AltitudeMeters>
            <DistanceMeters>3981.7650007684</DistanceMeters>
          </Trackpoint>
          <Trackpoint>
            <Time>2020-02-09T08:53:38.000Z</Time>
            <Position>
              <LatitudeDegrees>38.92593358643352985382080078125</LatitudeDegrees>
              <LongitudeDegrees>-2.8399135172367095947265625</LongitudeDegrees>
            </Position>
            <AltitudeMeters>855.4000244140625</AltitudeMeters>
            <DistanceMeters>4002.8502274365</DistanceMeters>
          </Trackpoint>
          <Trackpoint>
            <Time>2020-02-09T08:53:40.000Z</Time>
            <Position>
              <LatitudeDegrees>38.9260198362171649932861328125</LatitudeDegrees>
              <LongitudeDegrees>-2.84004402346909046173095703125</LongitudeDegrees>
            </Position>
            <AltitudeMeters>855.4000244140625</AltitudeMeters>
            <DistanceMeters>4017.6780493014</DistanceMeters>
          </Trackpoint>
          <Trackpoint>
            <Time>2020-02-09T08:53:43.000Z</Time>
            <Position>
              <LatitudeDegrees>38.9261402003467082977294921875</LatitudeDegrees>
              <LongitudeDegrees>-2.84023328684270381927490234375</LongitudeDegrees>
            </Position>
            <AltitudeMeters>854.5999755859375</AltitudeMeters>
            <DistanceMeters>4038.8449166379</DistanceMeters>
          </Trackpoint>
          <Trackpoint>
            <Time>2020-02-09T08:53:44.000Z</Time>
            <Position>
              <LatitudeDegrees>38.9261712133884429931640625</LatitudeDegrees>
              <LongitudeDegrees>-2.84031274728477001190185546875</LongitudeDegrees>
            </Position>
            <AltitudeMeters>854.4000244140625</AltitudeMeters>
            <DistanceMeters>4046.5414938949</DistanceMeters>
          </Trackpoint>
          <Trackpoint>
            <Time>2020-02-09T08:53:45.000Z</Time>
            <Position>
              <LatitudeDegrees>38.9261926710605621337890625</LatitudeDegrees>
              <LongitudeDegrees>-2.84040075726807117462158203125</LongitudeDegrees>
            </Position>
            <AltitudeMeters>854.4000244140625</AltitudeMeters>
            <DistanceMeters>4054.5276963669</DistanceMeters>
          </Trackpoint>
          <Trackpoint>
            <Time>2020-02-09T08:53:48.000Z</Time>
            <Position>
              <LatitudeDegrees>38.92626835964620113372802734375</LatitudeDegrees>
              <LongitudeDegrees>-2.84066780470311641693115234375</LongitudeDegrees>
            </Position>
            <AltitudeMeters>854.4000244140625</AltitudeMeters>
            <DistanceMeters>4079.1375973642</DistanceMeters>
          </Trackpoint>
          <Trackpoint>
            <Time>2020-02-09T08:53:50.000Z</Time>
            <Position>
              <LatitudeDegrees>38.92634329386055469512939453125</LatitudeDegrees>
              <LongitudeDegrees>-2.84082756377756595611572265625</LongitudeDegrees>
            </Position>
            <AltitudeMeters>853.79998779296875</AltitudeMeters>
            <DistanceMeters>4095.290461778</DistanceMeters>
          </Trackpoint>
          <Trackpoint>
            <Time>2020-02-09T08:53:52.000Z</Time>
            <Position>
              <LatitudeDegrees>38.92641621641814708709716796875</LatitudeDegrees>
              <LongitudeDegrees>-2.840976677834987640380859375</LongitudeDegrees>
            </Position>
            <AltitudeMeters>853</AltitudeMeters>
            <DistanceMeters>4110.5412872956</DistanceMeters>
          </Trackpoint>
          <Trackpoint>
            <Time>2020-02-09T08:53:54.000Z</Time>
            <Position>
              <LatitudeDegrees>38.9265197329223155975341796875</LatitudeDegrees>
              <LongitudeDegrees>-2.841045744717121124267578125</LongitudeDegrees>
            </Position>
            <AltitudeMeters>851.20001220703125</AltitudeMeters>
            <DistanceMeters>4123.5224373417</DistanceMeters>
          </Trackpoint>
          <Trackpoint>
            <Time>2020-02-09T08:53:56.000Z</Time>
            <Position>
              <LatitudeDegrees>38.92660061828792095184326171875</LatitudeDegrees>
              <LongitudeDegrees>-2.84096896648406982421875</LongitudeDegrees>
            </Position>
            <AltitudeMeters>849</AltitudeMeters>
            <DistanceMeters>4134.7138251144</DistanceMeters>
          </Trackpoint>
          <Trackpoint>
            <Time>2020-02-09T08:53:59.000Z</Time>
            <Position>
              <LatitudeDegrees>38.92667622305452823638916015625</LatitudeDegrees>
              <LongitudeDegrees>-2.84075506031513214111328125</LongitudeDegrees>
            </Position>
            <AltitudeMeters>846.20001220703125</AltitudeMeters>
            <DistanceMeters>4155.0575333206</DistanceMeters>
          </Trackpoint>
          <Trackpoint>
            <Time>2020-02-09T08:54:03.000Z</Time>
            <Position>
              <LatitudeDegrees>38.9268010295927524566650390625</LatitudeDegrees>
              <LongitudeDegrees>-2.84049161709845066070556640625</LongitudeDegrees>
            </Position>
            <AltitudeMeters>841.79998779296875</AltitudeMeters>
            <DistanceMeters>4181.7652812313</DistanceMeters>
          </Trackpoint>
          <Trackpoint>
            <Time>2020-02-09T08:54:04.000Z</Time>
            <Position>
              <LatitudeDegrees>38.9268271811306476593017578125</LatitudeDegrees>
              <LongitudeDegrees>-2.84045331180095672607421875</LongitudeDegrees>
            </Position>
            <AltitudeMeters>841</AltitudeMeters>
            <DistanceMeters>4186.178655778</DistanceMeters>
          </Trackpoint>
          <Trackpoint>
            <Time>2020-02-09T08:54:09.000Z</Time>
            <Position>
              <LatitudeDegrees>38.92690270207822322845458984375</LatitudeDegrees>
              <LongitudeDegrees>-2.84036002121865749359130859375</LongitudeDegrees>
            </Position>
            <AltitudeMeters>838.79998779296875</AltitudeMeters>
            <DistanceMeters>4197.8363849943</DistanceMeters>
          </Trackpoint>
          <Trackpoint>
            <Time>2020-02-09T08:54:14.000Z</Time>
            <Position>
              <LatitudeDegrees>38.92696523107588291168212890625</LatitudeDegrees>
              <LongitudeDegrees>-2.84037955105304718017578125</LongitudeDegrees>
            </Position>
            <AltitudeMeters>838.5999755859375</AltitudeMeters>
            <DistanceMeters>4204.9994077051</DistanceMeters>
          </Trackpoint>
          <Trackpoint>
            <Time>2020-02-09T08:54:16.000Z</Time>
            <Position>
              <LatitudeDegrees>38.92693555913865566253662109375</LatitudeDegrees>
              <LongitudeDegrees>-2.840377874672412872314453125</LongitudeDegrees>
            </Position>
            <AltitudeMeters>838.79998779296875</AltitudeMeters>
            <DistanceMeters>4208.302184165</DistanceMeters>
          </Trackpoint>
          <Trackpoint>
            <Time>2020-02-09T08:54:22.000Z</Time>
            <Position>
              <LatitudeDegrees>38.926859535276889801025390625</LatitudeDegrees>
              <LongitudeDegrees>-2.84034912474453449249267578125</LongitudeDegrees>
            </Position>
            <AltitudeMeters>839.79998779296875</AltitudeMeters>
            <DistanceMeters>4217.1217691036</DistanceMeters>
          </Trackpoint>
          <Trackpoint>
            <Time>2020-02-09T08:56:24.000Z</Time>
            <Position>
              <LatitudeDegrees>38.9268265105783939361572265625</LatitudeDegrees>
              <LongitudeDegrees>-2.84028726629912853240966796875</LongitudeDegrees>
            </Position>
            <AltitudeMeters>840</AltitudeMeters>
            <DistanceMeters>4223.6184280371</DistanceMeters>
          </Trackpoint>
          <Trackpoint>
            <Time>2020-02-09T08:56:30.000Z</Time>
            <Position>
              <LatitudeDegrees>38.92689851112663745880126953125</LatitudeDegrees>
              <LongitudeDegrees>-2.8403441794216632843017578125</LongitudeDegrees>
            </Position>
            <AltitudeMeters>838.79998779296875</AltitudeMeters>
            <DistanceMeters>4233.0265526804</DistanceMeters>
          </Trackpoint>
          <Trackpoint>
            <Time>2020-02-09T08:56:34.000Z</Time>
            <Position>
              <LatitudeDegrees>38.92691611312329769134521484375</LatitudeDegrees>
              <LongitudeDegrees>-2.84038365818560123443603515625</LongitudeDegrees>
            </Position>
            <AltitudeMeters>838.79998779296875</AltitudeMeters>
            <DistanceMeters>4236.9652924955</DistanceMeters>
          </Trackpoint>
          <Trackpoint>
            <Time>2020-02-09T08:56:36.000Z</Time>
            <Position>
              <LatitudeDegrees>38.926941342651844024658203125</LatitudeDegrees>
              <LongitudeDegrees>-2.8403829038143157958984375</LongitudeDegrees>
            </Position>
            <AltitudeMeters>838.79998779296875</AltitudeMeters>
            <DistanceMeters>4239.7746139103</DistanceMeters>
          </Trackpoint>
          <Trackpoint>
            <Time>2020-02-09T08:56:40.000Z</Time>
            <Position>
              <LatitudeDegrees>38.92691753804683685302734375</LatitudeDegrees>
              <LongitudeDegrees>-2.840339653193950653076171875</LongitudeDegrees>
            </Position>
            <AltitudeMeters>838.5999755859375</AltitudeMeters>
            <DistanceMeters>4244.3615604017</DistanceMeters>
          </Trackpoint>
          <Trackpoint>
            <Time>2020-02-09T08:56:41.000Z</Time>
            <Position>
              <LatitudeDegrees>38.92690655775368213653564453125</LatitudeDegrees>
              <LongitudeDegrees>-2.84033537842333316802978515625</LongitudeDegrees>
            </Position>
            <AltitudeMeters>838.5999755859375</AltitudeMeters>
            <DistanceMeters>4245.6364775597</DistanceMeters>
          </Trackpoint>
          <Trackpoint>
            <Time>2020-02-09T08:56:43.000Z</Time>
            <Position>
              <LatitudeDegrees>38.92687772400677204132080078125</LatitudeDegrees>
              <LongitudeDegrees>-2.84032029099762439727783203125</LongitudeDegrees>
            </Position>
            <AltitudeMeters>839.20001220703125</AltitudeMeters>
            <DistanceMeters>4249.102022491</DistanceMeters>
          </Trackpoint>
          <Trackpoint>
            <Time>2020-02-09T08:56:44.000Z</Time>
            <Position>
              <LatitudeDegrees>38.9268640615046024322509765625</LatitudeDegrees>
              <LongitudeDegrees>-2.84032330848276615142822265625</LongitudeDegrees>
            </Position>
            <AltitudeMeters>839.4000244140625</AltitudeMeters>
            <DistanceMeters>4250.646023845</DistanceMeters>
          </Trackpoint>
          <Trackpoint>
            <Time>2020-02-09T08:56:48.000Z</Time>
            <Position>
              <LatitudeDegrees>38.926823325455188751220703125</LatitudeDegrees>
              <LongitudeDegrees>-2.8403176926076412200927734375</LongitudeDegrees>
            </Position>
            <AltitudeMeters>840.4000244140625</AltitudeMeters>
            <DistanceMeters>4255.2053259817</DistanceMeters>
          </Trackpoint>
          <Trackpoint>
            <Time>2020-02-09T08:56:51.000Z</Time>
            <Position>
              <LatitudeDegrees>38.926828019320964813232421875</LatitudeDegrees>
              <LongitudeDegrees>-2.8402912057936191558837890625</LongitudeDegrees>
            </Position>
            <AltitudeMeters>840</AltitudeMeters>
            <DistanceMeters>4257.5561570653</DistanceMeters>
          </Trackpoint>
          <Trackpoint>
            <Time>2020-02-09T08:56:54.000Z</Time>
            <Position>
              <LatitudeDegrees>38.92686213366687297821044921875</LatitudeDegrees>
              <LongitudeDegrees>-2.8403069637715816497802734375</LongitudeDegrees>
            </Position>
            <AltitudeMeters>839.4000244140625</AltitudeMeters>
            <DistanceMeters>4261.5900382922</DistanceMeters>
          </Trackpoint>
          <Trackpoint>
            <Time>2020-02-09T08:57:02.000Z</Time>
            <Position>
              <LatitudeDegrees>38.92695643007755279541015625</LatitudeDegrees>
              <LongitudeDegrees>-2.84037494100630283355712890625</LongitudeDegrees>
            </Position>
            <AltitudeMeters>838.5999755859375</AltitudeMeters>
            <DistanceMeters>4273.6228370398</DistanceMeters>
          </Trackpoint>
          <Trackpoint>
            <Time>2020-02-09T08:57:04.000Z</Time>
            <Position>
              <LatitudeDegrees>38.926950059831142425537109375</LatitudeDegrees>
              <LongitudeDegrees>-2.84039027988910675048828125</LongitudeDegrees>
            </Position>
            <AltitudeMeters>838.79998779296875</AltitudeMeters>
            <DistanceMeters>4275.1253413197</DistanceMeters>
          </Trackpoint>
          <Trackpoint>
            <Time>2020-02-09T08:57:06.000Z</Time>
            <Position>
              <LatitudeDegrees>38.92692114226520061492919921875</LatitudeDegrees>
              <LongitudeDegrees>-2.84038768149912357330322265625</LongitudeDegrees>
            </Position>
            <AltitudeMeters>838.79998779296875</AltitudeMeters>
            <DistanceMeters>4278.3506549577</DistanceMeters>
          </Trackpoint>
          <Trackpoint>
            <Time>2020-02-09T08:57:08.000Z</Time>
            <Position>
              <LatitudeDegrees>38.92690672539174556732177734375</LatitudeDegrees>
              <LongitudeDegrees>-2.84037024714052677154541015625</LongitudeDegrees>
            </Position>
            <AltitudeMeters>838.79998779296875</AltitudeMeters>
            <DistanceMeters>4280.5506824516</DistanceMeters>
          </Trackpoint>
          <Trackpoint>
            <Time>2020-02-09T08:57:10.000Z</Time>
            <Position>
              <LatitudeDegrees>38.9268851839005947113037109375</LatitudeDegrees>
              <LongitudeDegrees>-2.84035365097224712371826171875</LongitudeDegrees>
            </Position>
            <AltitudeMeters>839.20001220703125</AltitudeMeters>
            <DistanceMeters>4283.347117003</DistanceMeters>
          </Trackpoint>
          <Trackpoint>
            <Time>2020-02-09T08:57:14.000Z</Time>
            <Position>
              <LatitudeDegrees>38.92684838734567165374755859375</LatitudeDegrees>
              <LongitudeDegrees>-2.840345688164234161376953125</LongitudeDegrees>
            </Position>
            <AltitudeMeters>840</AltitudeMeters>
            <DistanceMeters>4287.5012084903</DistanceMeters>
          </Trackpoint>
          <Trackpoint>
            <Time>2020-02-09T08:57:16.000Z</Time>
            <Position>
              <LatitudeDegrees>38.9268322102725505828857421875</LatitudeDegrees>
              <LongitudeDegrees>-2.8403373062610626220703125</LongitudeDegrees>
            </Position>
            <AltitudeMeters>840.20001220703125</AltitudeMeters>
            <DistanceMeters>4289.4393807738</DistanceMeters>
          </Trackpoint>
          <Trackpoint>
            <Time>2020-02-09T08:57:19.000Z</Time>
            <Position>
              <LatitudeDegrees>38.92679574899375438690185546875</LatitudeDegrees>
              <LongitudeDegrees>-2.840319536626338958740234375</LongitudeDegrees>
            </Position>
            <AltitudeMeters>841</AltitudeMeters>
            <DistanceMeters>4293.7795120463</DistanceMeters>
          </Trackpoint>
          <Trackpoint>
            <Time>2020-02-09T08:57:22.000Z</Time>
            <Position>
              <LatitudeDegrees>38.92679549753665924072265625</LatitudeDegrees>
              <LongitudeDegrees>-2.84027896821498870849609375</LongitudeDegrees>
            </Position>
            <AltitudeMeters>840.5999755859375</AltitudeMeters>
            <DistanceMeters>4297.2942160986</DistanceMeters>
          </Trackpoint>
          <Trackpoint>
            <Time>2020-02-09T08:57:24.000Z</Time>
            <Position>
              <LatitudeDegrees>38.92681804485619068145751953125</LatitudeDegrees>
              <LongitudeDegrees>-2.84028106369078159332275390625</LongitudeDegrees>
            </Position>
            <AltitudeMeters>840.20001220703125</AltitudeMeters>
            <DistanceMeters>4299.8119757503</DistanceMeters>
          </Trackpoint>
          <Trackpoint>
            <Time>2020-02-09T08:57:33.000Z</Time>
            <Position>
              <LatitudeDegrees>38.92692768014967441558837890625</LatitudeDegrees>
              <LongitudeDegrees>-2.84035004675388336181640625</LongitudeDegrees>
            </Position>
            <AltitudeMeters>838.5999755859375</AltitudeMeters>
            <DistanceMeters>4313.3981375552</DistanceMeters>
          </Trackpoint>
          <Trackpoint>
            <Time>2020-02-09T08:57:34.000Z</Time>
            <Position>
              <LatitudeDegrees>38.9269287697970867156982421875</LatitudeDegrees>
              <LongitudeDegrees>-2.840361781418323516845703125</LongitudeDegrees>
            </Position>
            <AltitudeMeters>838.5999755859375</AltitudeMeters>
            <DistanceMeters>4314.4216065912</DistanceMeters>
          </Trackpoint>
          <Trackpoint>
            <Time>2020-02-09T08:57:37.000Z</Time>
            <Position>
              <LatitudeDegrees>38.926906473934650421142578125</LatitudeDegrees>
              <LongitudeDegrees>-2.8403646312654018402099609375</LongitudeDegrees>
            </Position>
            <AltitudeMeters>838.79998779296875</AltitudeMeters>
            <DistanceMeters>4316.9177541722</DistanceMeters>
          </Trackpoint>
          <Trackpoint>
            <Time>2020-02-09T08:57:39.000Z</Time>
            <Position>
              <LatitudeDegrees>38.9268878661096096038818359375</LatitudeDegrees>
              <LongitudeDegrees>-2.840365804731845855712890625</LongitudeDegrees>
            </Position>
            <AltitudeMeters>839.20001220703125</AltitudeMeters>
            <DistanceMeters>4318.9931689413</DistanceMeters>
          </Trackpoint>
          <Trackpoint>
            <Time>2020-02-09T08:57:42.000Z</Time>
            <Position>
              <LatitudeDegrees>38.9268674142658710479736328125</LatitudeDegrees>
              <LongitudeDegrees>-2.84038298763334751129150390625</LongitudeDegrees>
            </Position>
            <AltitudeMeters>839.79998779296875</AltitudeMeters>
            <DistanceMeters>4321.7126601819</DistanceMeters>
          </Trackpoint>
          <Trackpoint>
            <Time>2020-02-09T08:57:44.000Z</Time>
            <Position>
              <LatitudeDegrees>38.9268526621162891387939453125</LatitudeDegrees>
              <LongitudeDegrees>-2.84038625657558441162109375</LongitudeDegrees>
            </Position>
            <AltitudeMeters>840.20001220703125</AltitudeMeters>
            <DistanceMeters>4323.3776627249</DistanceMeters>
          </Trackpoint>
          <Trackpoint>
            <Time>2020-02-09T08:57:45.000Z</Time>
            <Position>
              <LatitudeDegrees>38.926844783127307891845703125</LatitudeDegrees>
              <LongitudeDegrees>-2.8403837420046329498291015625</LongitudeDegrees>
            </Position>
            <AltitudeMeters>840.20001220703125</AltitudeMeters>
            <DistanceMeters>4324.2791652928</DistanceMeters>
          </Trackpoint>
          <Trackpoint>
            <Time>2020-02-09T08:57:54.000Z</Time>
            <Position>
              <LatitudeDegrees>38.92673808149993419647216796875</LatitudeDegrees>
              <LongitudeDegrees>-2.84051072783768177032470703125</LongitudeDegrees>
            </Position>
            <AltitudeMeters>843.4000244140625</AltitudeMeters>
            <DistanceMeters>4340.4633055954</DistanceMeters>
          </Trackpoint>
          <Trackpoint>
            <Time>2020-02-09T08:57:57.000Z</Time>
            <Position>
              <LatitudeDegrees>38.9267259277403354644775390625</LatitudeDegrees>
              <LongitudeDegrees>-2.840492539107799530029296875</LongitudeDegrees>
            </Position>
            <AltitudeMeters>843.4000244140625</AltitudeMeters>
            <DistanceMeters>4342.5408947127</DistanceMeters>
          </Trackpoint>
          <Trackpoint>
            <Time>2020-02-09T08:57:59.000Z</Time>
            <Position>
              <LatitudeDegrees>38.9267371594905853271484375</LatitudeDegrees>
              <LongitudeDegrees>-2.8404739312827587127685546875</LongitudeDegrees>
            </Position>
            <AltitudeMeters>843.20001220703125</AltitudeMeters>
            <DistanceMeters>4344.5789906781</DistanceMeters>
          </Trackpoint>
          <Trackpoint>
            <Time>2020-02-09T08:58:01.000Z</Time>
            <Position>
              <LatitudeDegrees>38.9267728663980960845947265625</LatitudeDegrees>
              <LongitudeDegrees>-2.84045331180095672607421875</LongitudeDegrees>
            </Position>
            <AltitudeMeters>842.20001220703125</AltitudeMeters>
            <DistanceMeters>4348.9357349539</DistanceMeters>
          </Trackpoint>
          <Trackpoint>
            <Time>2020-02-09T08:58:04.000Z</Time>
            <Position>
              <LatitudeDegrees>38.926820643246173858642578125</LatitudeDegrees>
              <LongitudeDegrees>-2.8403949737548828125</LongitudeDegrees>
            </Position>
            <AltitudeMeters>840.79998779296875</AltitudeMeters>
            <DistanceMeters>4356.2706647732</DistanceMeters>
          </Trackpoint>
          <Trackpoint>
            <Time>2020-02-09T08:58:09.000Z</Time>
            <Position>
              <LatitudeDegrees>38.92687018029391765594482421875</LatitudeDegrees>
              <LongitudeDegrees>-2.840337641537189483642578125</LongitudeDegrees>
            </Position>
            <AltitudeMeters>839.4000244140625</AltitudeMeters>
            <DistanceMeters>4363.6900546404</DistanceMeters>
          </Trackpoint>
          <Trackpoint>
            <Time>2020-02-09T08:58:12.000Z</Time>
            <Position>
              <LatitudeDegrees>38.92683983780443668365478515625</LatitudeDegrees>
              <LongitudeDegrees>-2.84031442366540431976318359375</LongitudeDegrees>
            </Position>
            <AltitudeMeters>840</AltitudeMeters>
            <DistanceMeters>4367.6207620571</DistanceMeters>
          </Trackpoint>
          <Trackpoint>
            <Time>2020-02-09T08:58:14.000Z</Time>
            <Position>
              <LatitudeDegrees>38.926827013492584228515625</LatitudeDegrees>
              <LongitudeDegrees>-2.84032666124403476715087890625</LongitudeDegrees>
            </Position>
            <AltitudeMeters>840.20001220703125</AltitudeMeters>
            <DistanceMeters>4369.3985490959</DistanceMeters>
          </Trackpoint>
          <Trackpoint>
            <Time>2020-02-09T08:58:15.000Z</Time>
            <Position>
              <LatitudeDegrees>38.92682475037872791290283203125</LatitudeDegrees>
              <LongitudeDegrees>-2.84032548777759075164794921875</LongitudeDegrees>
            </Position>
            <AltitudeMeters>840.4000244140625</AltitudeMeters>
            <DistanceMeters>4369.6673252324</DistanceMeters>
          </Trackpoint>
          <Trackpoint>
            <Time>2020-02-09T08:59:20.000Z</Time>
            <Position>
              <LatitudeDegrees>38.92678879201412200927734375</LatitudeDegrees>
              <LongitudeDegrees>-2.8402875177562236785888671875</LongitudeDegrees>
            </Position>
            <AltitudeMeters>840.79998779296875</AltitudeMeters>
            <DistanceMeters>4374.8460632098</DistanceMeters>
          </Trackpoint>
          <Trackpoint>
            <Time>2020-02-09T08:59:24.000Z</Time>
            <Position>
              <LatitudeDegrees>38.926755599677562713623046875</LatitudeDegrees>
              <LongitudeDegrees>-2.84024602733552455902099609375</LongitudeDegrees>
            </Position>
            <AltitudeMeters>841.4000244140625</AltitudeMeters>
            <DistanceMeters>4379.9985795606</DistanceMeters>
          </Trackpoint>
          <Trackpoint>
            <Time>2020-02-09T08:59:27.000Z</Time>
            <Position>
              <LatitudeDegrees>38.9267452061176300048828125</LatitudeDegrees>
              <LongitudeDegrees>-2.84021149389445781707763671875</LongitudeDegrees>
            </Position>
            <AltitudeMeters>841.4000244140625</AltitudeMeters>
            <DistanceMeters>4383.2042350308</DistanceMeters>
          </Trackpoint>
          <Trackpoint>
            <Time>2020-02-09T08:59:29.000Z</Time>
            <Position>
              <LatitudeDegrees>38.92672953195869922637939453125</LatitudeDegrees>
              <LongitudeDegrees>-2.84018416889011859893798828125</LongitudeDegrees>
            </Position>
            <AltitudeMeters>841.5999755859375</AltitudeMeters>
            <DistanceMeters>4386.1454615153</DistanceMeters>
          </Trackpoint>
          <Trackpoint>
            <Time>2020-02-09T08:59:31.000Z</Time>
            <Position>
              <LatitudeDegrees>38.926703631877899169921875</LatitudeDegrees>
              <LongitudeDegrees>-2.84016765654087066650390625</LongitudeDegrees>
            </Position>
            <AltitudeMeters>842</AltitudeMeters>
            <DistanceMeters>4389.3623649339</DistanceMeters>
          </Trackpoint>
          <Trackpoint>
            <Time>2020-02-09T08:59:33.000Z</Time>
            <Position>
              <LatitudeDegrees>38.92670405097305774688720703125</LatitudeDegrees>
              <LongitudeDegrees>-2.8401456959545612335205078125</LongitudeDegrees>
            </Position>
            <AltitudeMeters>841.79998779296875</AltitudeMeters>
            <DistanceMeters>4391.2628992213</DistanceMeters>
          </Trackpoint>
          <Trackpoint>
            <Time>2020-02-09T08:59:34.000Z</Time>
            <Position>
              <LatitudeDegrees>38.92671477980911731719970703125</LatitudeDegrees>
              <LongitudeDegrees>-2.84014728851616382598876953125</LongitudeDegrees>
            </Position>
            <AltitudeMeters>841.5999755859375</AltitudeMeters>
            <DistanceMeters>4392.4649026452</DistanceMeters>
          </Trackpoint>
          <Trackpoint>
            <Time>2020-02-09T08:59:44.000Z</Time>
            <Position>
              <LatitudeDegrees>38.92685475759208202362060546875</LatitudeDegrees>
              <LongitudeDegrees>-2.84030579030513763427734375</LongitudeDegrees>
            </Position>
            <AltitudeMeters>839.5999755859375</AltitudeMeters>
            <DistanceMeters>4413.2273155416</DistanceMeters>
          </Trackpoint>
          <Trackpoint>
            <Time>2020-02-09T08:59:54.000Z</Time>
            <Position>
              <LatitudeDegrees>38.92704905010759830474853515625</LatitudeDegrees>
              <LongitudeDegrees>-2.84039254300296306610107421875</LongitudeDegrees>
            </Position>
            <AltitudeMeters>838.20001220703125</AltitudeMeters>
            <DistanceMeters>4436.119880197</DistanceMeters>
          </Trackpoint>
          <Trackpoint>
            <Time>2020-02-09T09:00:04.000Z</Time>
            <Position>
              <LatitudeDegrees>38.9272794686257839202880859375</LatitudeDegrees>
              <LongitudeDegrees>-2.84048273228108882904052734375</LongitudeDegrees>
            </Position>
            <AltitudeMeters>837.4000244140625</AltitudeMeters>
            <DistanceMeters>4462.9283630728</DistanceMeters>
          </Trackpoint>
          <Trackpoint>
            <Time>2020-02-09T09:00:14.000Z</Time>
            <Position>
              <LatitudeDegrees>38.9276097156107425689697265625</LatitudeDegrees>
              <LongitudeDegrees>-2.8406083770096302032470703125</LongitudeDegrees>
            </Position>
            <AltitudeMeters>836.5999755859375</AltitudeMeters>
            <DistanceMeters>4501.2617203426</DistanceMeters>
          </Trackpoint>
          <Trackpoint>
            <Time>2020-02-09T09:00:24.000Z</Time>
            <Position>
              <LatitudeDegrees>38.9280086942017078399658203125</LatitudeDegrees>
              <LongitudeDegrees>-2.84075883217155933380126953125</LongitudeDegrees>
            </Position>
            <AltitudeMeters>836.5999755859375</AltitudeMeters>
            <DistanceMeters>4547.5403156174</DistanceMeters>
          </Trackpoint>
          <Trackpoint>
            <Time>2020-02-09T09:00:34.000Z</Time>
            <Position>
              <LatitudeDegrees>38.9284304715692996978759765625</LatitudeDegrees>
              <LongitudeDegrees>-2.84091423265635967254638671875</LongitudeDegrees>
            </Position>
            <AltitudeMeters>835.79998779296875</AltitudeMeters>
            <DistanceMeters>4596.3753568174</DistanceMeters>
          </Trackpoint>
          <Trackpoint>
            <Time>2020-02-09T09:00:44.000Z</Time>
            <Position>
              <LatitudeDegrees>38.928862474858760833740234375</LatitudeDegrees>
              <LongitudeDegrees>-2.8410787694156169891357421875</LongitudeDegrees>
            </Position>
            <AltitudeMeters>837.20001220703125</AltitudeMeters>
            <DistanceMeters>4646.5244392628</DistanceMeters>
          </Trackpoint>
          <Trackpoint>
            <Time>2020-02-09T09:00:54.000Z</Time>
            <Position>
              <LatitudeDegrees>38.929297663271427154541015625</LatitudeDegrees>
              <LongitudeDegrees>-2.84125621430575847625732421875</LongitudeDegrees>
            </Position>
            <AltitudeMeters>839</AltitudeMeters>
            <DistanceMeters>4697.3400136448</DistanceMeters>
          </Trackpoint>
          <Trackpoint>
            <Time>2020-02-09T09:01:04.000Z</Time>
            <Position>
              <LatitudeDegrees>38.929718099534511566162109375</LatitudeDegrees>
              <LongitudeDegrees>-2.84153633750975131988525390625</LongitudeDegrees>
            </Position>
            <AltitudeMeters>840.20001220703125</AltitudeMeters>
            <DistanceMeters>4750.0473840753</DistanceMeters>
          </Trackpoint>
          <Trackpoint>
            <Time>2020-02-09T09:01:14.000Z</Time>
            <Position>
              <LatitudeDegrees>38.93012152053415775299072265625</LatitudeDegrees>
              <LongitudeDegrees>-2.84186088480055332183837890625</LongitudeDegrees>
            </Position>
            <AltitudeMeters>837</AltitudeMeters>
            <DistanceMeters>4803.0170851541</DistanceMeters>
          </Trackpoint>
          <Trackpoint>
            <Time>2020-02-09T09:01:21.000Z</Time>
            <Position>
              <LatitudeDegrees>38.93039636313915252685546875</LatitudeDegrees>
              <LongitudeDegrees>-2.8420661576092243194580078125</LongitudeDegrees>
            </Position>
            <AltitudeMeters>837.5999755859375</AltitudeMeters>
            <DistanceMeters>4838.3961320046</DistanceMeters>
          </Trackpoint>
          <Trackpoint>
            <Time>2020-02-09T09:01:23.000Z</Time>
            <Position>
              <LatitudeDegrees>38.9304796792566776275634765625</LatitudeDegrees>
              <LongitudeDegrees>-2.842051573097705841064453125</LongitudeDegrees>
            </Position>
            <AltitudeMeters>837.20001220703125</AltitudeMeters>
            <DistanceMeters>4847.7551779766</DistanceMeters>
          </Trackpoint>
          <Trackpoint>
            <Time>2020-02-09T09:01:24.000Z</Time>
            <Position>
              <LatitudeDegrees>38.93051412887871265411376953125</LatitudeDegrees>
              <LongitudeDegrees>-2.842028774321079254150390625</LongitudeDegrees>
            </Position>
            <AltitudeMeters>837</AltitudeMeters>
            <DistanceMeters>4852.0681766405</DistanceMeters>
          </Trackpoint>
          <Trackpoint>
            <Time>2020-02-09T09:01:34.000Z</Time>
            <Position>
              <LatitudeDegrees>38.9309007860720157623291015625</LatitudeDegrees>
              <LongitudeDegrees>-2.8417996130883693695068359375</LongitudeDegrees>
            </Position>
            <AltitudeMeters>834</AltitudeMeters>
            <DistanceMeters>4899.457647533</DistanceMeters>
          </Trackpoint>
          <Trackpoint>
            <Time>2020-02-09T09:01:36.000Z</Time>
            <Position>
              <LatitudeDegrees>38.930983431637287139892578125</LatitudeDegrees>
              <LongitudeDegrees>-2.8417499922215938568115234375</LongitudeDegrees>
            </Position>
            <AltitudeMeters>833.4000244140625</AltitudeMeters>
            <DistanceMeters>4909.6099523221</DistanceMeters>
          </Trackpoint>
          <Trackpoint>
            <Time>2020-02-09T09:01:41.000Z</Time>
            <Position>
              <LatitudeDegrees>38.93117294646799564361572265625</LatitudeDegrees>
              <LongitudeDegrees>-2.841572128236293792724609375</LongitudeDegrees>
            </Position>
            <AltitudeMeters>833</AltitudeMeters>
            <DistanceMeters>4935.7267443187</DistanceMeters>
          </Trackpoint>
          <Trackpoint>
            <Time>2020-02-09T09:01:45.000Z</Time>
            <Position>
              <LatitudeDegrees>38.93128090538084506988525390625</LatitudeDegrees>
              <LongitudeDegrees>-2.84137071110308170318603515625</LongitudeDegrees>
            </Position>
            <AltitudeMeters>833</AltitudeMeters>
            <DistanceMeters>4956.9047007078</DistanceMeters>
          </Trackpoint>
          <Trackpoint>
            <Time>2020-02-09T09:01:55.000Z</Time>
            <Position>
              <LatitudeDegrees>38.93153621815145015716552734375</LatitudeDegrees>
              <LongitudeDegrees>-2.84083527512848377227783203125</LongitudeDegrees>
            </Position>
            <AltitudeMeters>833.20001220703125</AltitudeMeters>
            <DistanceMeters>5011.2799133474</DistanceMeters>
          </Trackpoint>
          <Trackpoint>
            <Time>2020-02-09T09:01:57.000Z</Time>
            <Position>
              <LatitudeDegrees>38.9315720088779926300048828125</LatitudeDegrees>
              <LongitudeDegrees>-2.840731255710124969482421875</LongitudeDegrees>
            </Position>
            <AltitudeMeters>833.79998779296875</AltitudeMeters>
            <DistanceMeters>5021.1279091338</DistanceMeters>
          </Trackpoint>
          <Trackpoint>
            <Time>2020-02-09T09:01:59.000Z</Time>
            <Position>
              <LatitudeDegrees>38.9315860904753208160400390625</LatitudeDegrees>
              <LongitudeDegrees>-2.84061952494084835052490234375</LongitudeDegrees>
            </Position>
            <AltitudeMeters>834.20001220703125</AltitudeMeters>
            <DistanceMeters>5030.9276470375</DistanceMeters>
          </Trackpoint>
          <Trackpoint>
            <Time>2020-02-09T09:02:05.000Z</Time>
            <Position>
              <LatitudeDegrees>38.9315088093280792236328125</LatitudeDegrees>
              <LongitudeDegrees>-2.840265892446041107177734375</LongitudeDegrees>
            </Position>
            <AltitudeMeters>835.4000244140625</AltitudeMeters>
            <DistanceMeters>5062.7310880854</DistanceMeters>
          </Trackpoint>
          <Trackpoint>
            <Time>2020-02-09T09:02:15.000Z</Time>
            <Position>
              <LatitudeDegrees>38.93138098530471324920654296875</LatitudeDegrees>
              <LongitudeDegrees>-2.83964789472520351409912109375</LongitudeDegrees>
            </Position>
            <AltitudeMeters>835.4000244140625</AltitudeMeters>
            <DistanceMeters>5118.0975043542</DistanceMeters>
          </Trackpoint>
          <Trackpoint>
            <Time>2020-02-09T09:02:23.000Z</Time>
            <Position>
              <LatitudeDegrees>38.9312625490128993988037109375</LatitudeDegrees>
              <LongitudeDegrees>-2.839180268347263336181640625</LongitudeDegrees>
            </Position>
            <AltitudeMeters>835.4000244140625</AltitudeMeters>
            <DistanceMeters>5160.6773198572</DistanceMeters>
          </Trackpoint>
          <Trackpoint>
            <Time>2020-02-09T09:02:25.000Z</Time>
            <Position>
              <LatitudeDegrees>38.931220807135105133056640625</LatitudeDegrees>
              <LongitudeDegrees>-2.83907859586179256439208984375</LongitudeDegrees>
            </Position>
            <AltitudeMeters>836.4000244140625</AltitudeMeters>
            <DistanceMeters>5170.6306594308</DistanceMeters>
          </Trackpoint>
          <Trackpoint>
            <Time>2020-02-09T09:02:35.000Z</Time>
            <Position>
              <LatitudeDegrees>38.93099424429237842559814453125</LatitudeDegrees>
              <LongitudeDegrees>-2.8385635279119014739990234375</LongitudeDegrees>
            </Position>
            <AltitudeMeters>835.4000244140625</AltitudeMeters>
            <DistanceMeters>5221.8621337319</DistanceMeters>
          </Trackpoint>
          <Trackpoint>
            <Time>2020-02-09T09:02:45.000Z</Time>
            <Position>
              <LatitudeDegrees>38.9307673461735248565673828125</LatitudeDegrees>
              <LongitudeDegrees>-2.8380632959306240081787109375</LongitudeDegrees>
            </Position>
            <AltitudeMeters>835.79998779296875</AltitudeMeters>
            <DistanceMeters>5271.9984299578</DistanceMeters>
          </Trackpoint>
          <Trackpoint>
            <Time>2020-02-09T09:02:55.000Z</Time>
            <Position>
              <LatitudeDegrees>38.93053877167403697967529296875</LatitudeDegrees>
              <LongitudeDegrees>-2.83755308948457241058349609375</LongitudeDegrees>
            </Position>
            <AltitudeMeters>834.4000244140625</AltitudeMeters>
            <DistanceMeters>5322.9755460883</DistanceMeters>
          </Trackpoint>
          <Trackpoint>
            <Time>2020-02-09T09:03:05.000Z</Time>
            <Position>
              <LatitudeDegrees>38.93032587133347988128662109375</LatitudeDegrees>
              <LongitudeDegrees>-2.83706559799611568450927734375</LongitudeDegrees>
            </Position>
            <AltitudeMeters>832.79998779296875</AltitudeMeters>
            <DistanceMeters>5371.3808149671</DistanceMeters>
          </Trackpoint>
          <Trackpoint>
            <Time>2020-02-09T09:03:07.000Z</Time>
            <Position>
              <LatitudeDegrees>38.9302788488566875457763671875</LatitudeDegrees>
              <LongitudeDegrees>-2.836964763700962066650390625</LongitudeDegrees>
            </Position>
            <AltitudeMeters>833.20001220703125</AltitudeMeters>
            <DistanceMeters>5381.5597686028</DistanceMeters>
          </Trackpoint>
          <Trackpoint>
            <Time>2020-02-09T09:03:14.000Z</Time>
            <Position>
              <LatitudeDegrees>38.93007961101830005645751953125</LatitudeDegrees>
              <LongitudeDegrees>-2.83664046786725521087646484375</LongitudeDegrees>
            </Position>
            <AltitudeMeters>834.4000244140625</AltitudeMeters>
            <DistanceMeters>5417.3390617367</DistanceMeters>
          </Trackpoint>
          <Trackpoint>
            <Time>2020-02-09T09:03:15.000Z</Time>
            <Position>
              <LatitudeDegrees>38.930048011243343353271484375</LatitudeDegrees>
              <LongitudeDegrees>-2.8366008214652538299560546875</LongitudeDegrees>
            </Position>
            <AltitudeMeters>834.5999755859375</AltitudeMeters>
            <DistanceMeters>5422.2529628764</DistanceMeters>
          </Trackpoint>
          <Trackpoint>
            <Time>2020-02-09T09:03:17.000Z</Time>
            <Position>
              <LatitudeDegrees>38.92998305149376392364501953125</LatitudeDegrees>
              <LongitudeDegrees>-2.83652194775640964508056640625</LongitudeDegrees>
            </Position>
            <AltitudeMeters>834.79998779296875</AltitudeMeters>
            <DistanceMeters>5432.1985879129</DistanceMeters>
          </Trackpoint>
          <Trackpoint>
            <Time>2020-02-09T09:03:19.000Z</Time>
            <Position>
              <LatitudeDegrees>38.92990543507039546966552734375</LatitudeDegrees>
              <LongitudeDegrees>-2.8364667110145092010498046875</LongitudeDegrees>
            </Position>
            <AltitudeMeters>835</AltitudeMeters>
            <DistanceMeters>5442.0731393175</DistanceMeters>
          </Trackpoint>
          <Trackpoint>
            <Time>2020-02-09T09:03:21.000Z</Time>
            <Position>
              <LatitudeDegrees>38.92982178367674350738525390625</LatitudeDegrees>
              <LongitudeDegrees>-2.83643712289631366729736328125</LongitudeDegrees>
            </Position>
            <AltitudeMeters>835.20001220703125</AltitudeMeters>
            <DistanceMeters>5451.7294620835</DistanceMeters>
          </Trackpoint>
          <Trackpoint>
            <Time>2020-02-09T09:03:25.000Z</Time>
            <Position>
              <LatitudeDegrees>38.929651714861392974853515625</LatitudeDegrees>
              <LongitudeDegrees>-2.8364368714392185211181640625</LongitudeDegrees>
            </Position>
            <AltitudeMeters>835.79998779296875</AltitudeMeters>
            <DistanceMeters>5470.6583924077</DistanceMeters>
          </Trackpoint>
          <Trackpoint>
            <Time>2020-02-09T09:03:35.000Z</Time>
            <Position>
              <LatitudeDegrees>38.9292753674089908599853515625</LatitudeDegrees>
              <LongitudeDegrees>-2.83645690418779850006103515625</LongitudeDegrees>
            </Position>
            <AltitudeMeters>837.79998779296875</AltitudeMeters>
            <DistanceMeters>5512.5824083071</DistanceMeters>
          </Trackpoint>
          <Trackpoint>
            <Time>2020-02-09T09:03:45.000Z</Time>
            <Position>
              <LatitudeDegrees>38.928910084068775177001953125</LatitudeDegrees>
              <LongitudeDegrees>-2.8364646993577480316162109375</LongitudeDegrees>
            </Position>
            <AltitudeMeters>837.20001220703125</AltitudeMeters>
            <DistanceMeters>5553.2447380122</DistanceMeters>
          </Trackpoint>
          <Trackpoint>
            <Time>2020-02-09T09:03:55.000Z</Time>
            <Position>
              <LatitudeDegrees>38.92882735468447208404541015625</LatitudeDegrees>
              <LongitudeDegrees>-2.83630770631134510040283203125</LongitudeDegrees>
            </Position>
            <AltitudeMeters>839</AltitudeMeters>
            <DistanceMeters>5569.6631984152</DistanceMeters>
          </Trackpoint>
          <Trackpoint>
            <Time>2020-02-09T09:04:05.000Z</Time>
            <Position>
              <LatitudeDegrees>38.92879952676594257354736328125</LatitudeDegrees>
              <LongitudeDegrees>-2.836139313876628875732421875</LongitudeDegrees>
            </Position>
            <AltitudeMeters>841</AltitudeMeters>
            <DistanceMeters>5584.5690707783</DistanceMeters>
          </Trackpoint>
          <Trackpoint>
            <Time>2020-02-09T09:04:09.000Z</Time>
            <Position>
              <LatitudeDegrees>38.928786702454090118408203125</LatitudeDegrees>
              <LongitudeDegrees>-2.83607049845159053802490234375</LongitudeDegrees>
            </Position>
            <AltitudeMeters>841.79998779296875</AltitudeMeters>
            <DistanceMeters>5590.6966361883</DistanceMeters>
          </Trackpoint>
          <Trackpoint>
            <Time>2020-02-09T09:04:13.000Z</Time>
            <Position>
              <LatitudeDegrees>38.92877639271318912506103515625</LatitudeDegrees>
              <LongitudeDegrees>-2.83600486814975738525390625</LongitudeDegrees>
            </Position>
            <AltitudeMeters>842.5999755859375</AltitudeMeters>
            <DistanceMeters>5596.49404462</DistanceMeters>
          </Trackpoint>
          <Trackpoint>
            <Time>2020-02-09T09:04:15.000Z</Time>
            <Position>
              <LatitudeDegrees>38.92876013182103633880615234375</LatitudeDegrees>
              <LongitudeDegrees>-2.835977375507354736328125</LongitudeDegrees>
            </Position>
            <AltitudeMeters>843</AltitudeMeters>
            <DistanceMeters>5599.4839903853</DistanceMeters>
          </Trackpoint>
          <Trackpoint>
            <Time>2020-02-09T09:04:19.000Z</Time>
            <Position>
              <LatitudeDegrees>38.9287332259118556976318359375</LatitudeDegrees>
              <LongitudeDegrees>-2.83591174520552158355712890625</LongitudeDegrees>
            </Position>
            <AltitudeMeters>843.79998779296875</AltitudeMeters>
            <DistanceMeters>5605.9065591235</DistanceMeters>
          </Trackpoint>
          <Trackpoint>
            <Time>2020-02-09T09:04:23.000Z</Time>
            <Position>
              <LatitudeDegrees>38.92872140742838382720947265625</LatitudeDegrees>
              <LongitudeDegrees>-2.83590286038815975189208984375</LongitudeDegrees>
            </Position>
            <AltitudeMeters>843.79998779296875</AltitudeMeters>
            <DistanceMeters>5607.4269865534</DistanceMeters>
          </Trackpoint>
          <Trackpoint>
            <Time>2020-02-09T09:04:52.000Z</Time>
            <Position>
              <LatitudeDegrees>38.92852820456027984619140625</LatitudeDegrees>
              <LongitudeDegrees>-2.83588827587664127349853515625</LongitudeDegrees>
            </Position>
            <AltitudeMeters>844</AltitudeMeters>
            <DistanceMeters>5628.9680985987</DistanceMeters>
          </Trackpoint>
          <Trackpoint>
            <Time>2020-02-09T09:04:55.000Z</Time>
            <Position>
              <LatitudeDegrees>38.92847749404609203338623046875</LatitudeDegrees>
              <LongitudeDegrees>-2.83587075769901275634765625</LongitudeDegrees>
            </Position>
            <AltitudeMeters>844.20001220703125</AltitudeMeters>
            <DistanceMeters>5634.8120483855</DistanceMeters>
          </Trackpoint>
          <Trackpoint>
            <Time>2020-02-09T09:05:05.000Z</Time>
            <Position>
              <LatitudeDegrees>38.92834849655628204345703125</LatitudeDegrees>
              <LongitudeDegrees>-2.83574611879885196685791015625</LongitudeDegrees>
            </Position>
            <AltitudeMeters>845.20001220703125</AltitudeMeters>
            <DistanceMeters>5652.7733543246</DistanceMeters>
          </Trackpoint>
          <Trackpoint>
            <Time>2020-02-09T09:05:11.000Z</Time>
            <Position>
              <LatitudeDegrees>38.9282396994531154632568359375</LatitudeDegrees>
              <LongitudeDegrees>-2.83561469055712223052978515625</LongitudeDegrees>
            </Position>
            <AltitudeMeters>846.4000244140625</AltitudeMeters>
            <DistanceMeters>5669.3908071275</DistanceMeters>
          </Trackpoint>
          <Trackpoint>
            <Time>2020-02-09T09:05:15.000Z</Time>
            <Position>
              <LatitudeDegrees>38.92817683517932891845703125</LatitudeDegrees>
              <LongitudeDegrees>-2.8356412611901760101318359375</LongitudeDegrees>
            </Position>
            <AltitudeMeters>846.20001220703125</AltitudeMeters>
            <DistanceMeters>5676.7558372835</DistanceMeters>
          </Trackpoint>
          <Trackpoint>
            <Time>2020-02-09T09:05:25.000Z</Time>
            <Position>
              <LatitudeDegrees>38.92793971113860607147216796875</LatitudeDegrees>
              <LongitudeDegrees>-2.83566665835678577423095703125</LongitudeDegrees>
            </Position>
            <AltitudeMeters>846.20001220703125</AltitudeMeters>
            <DistanceMeters>5703.2396649455</DistanceMeters>
          </Trackpoint>
          <Trackpoint>
            <Time>2020-02-09T09:05:35.000Z</Time>
            <Position>
              <LatitudeDegrees>38.9277414791285991668701171875</LatitudeDegrees>
              <LongitudeDegrees>-2.8356694243848323822021484375</LongitudeDegrees>
            </Position>
            <AltitudeMeters>845.20001220703125</AltitudeMeters>
            <DistanceMeters>5725.3044915136</DistanceMeters>
          </Trackpoint>
          <Trackpoint>
            <Time>2020-02-09T09:05:44.000Z</Time>
            <Position>
              <LatitudeDegrees>38.927579708397388458251953125</LatitudeDegrees>
              <LongitudeDegrees>-2.8355735354125499725341796875</LongitudeDegrees>
            </Position>
            <AltitudeMeters>843.20001220703125</AltitudeMeters>
            <DistanceMeters>5745.132083603</DistanceMeters>
          </Trackpoint>
          <Trackpoint>
            <Time>2020-02-09T09:05:55.000Z</Time>
            <Position>
              <LatitudeDegrees>38.92740343697369098663330078125</LatitudeDegrees>
              <LongitudeDegrees>-2.8353918157517910003662109375</LongitudeDegrees>
            </Position>
            <AltitudeMeters>841.20001220703125</AltitudeMeters>
            <DistanceMeters>5770.2815099257</DistanceMeters>
          </Trackpoint>
          <Trackpoint>
            <Time>2020-02-09T09:06:05.000Z</Time>
            <Position>
              <LatitudeDegrees>38.92727418802678585052490234375</LatitudeDegrees>
              <LongitudeDegrees>-2.8352518379688262939453125</LongitudeDegrees>
            </Position>
            <AltitudeMeters>840.20001220703125</AltitudeMeters>
            <DistanceMeters>5789.092479479</DistanceMeters>
          </Trackpoint>
          <Trackpoint>
            <Time>2020-02-09T09:06:06.000Z</Time>
            <Position>
              <LatitudeDegrees>38.9272727631032466888427734375</LatitudeDegrees>
              <LongitudeDegrees>-2.83523817546665668487548828125</LongitudeDegrees>
            </Position>
            <AltitudeMeters>840.4000244140625</AltitudeMeters>
            <DistanceMeters>5790.286946757</DistanceMeters>
          </Trackpoint>
          <Trackpoint>
            <Time>2020-02-09T09:06:15.000Z</Time>
            <Position>
              <LatitudeDegrees>38.92725993879139423370361328125</LatitudeDegrees>
              <LongitudeDegrees>-2.834990657866001129150390625</LongitudeDegrees>
            </Position>
            <AltitudeMeters>840.20001220703125</AltitudeMeters>
            <DistanceMeters>5811.7663477187</DistanceMeters>
          </Trackpoint>
          <Trackpoint>
            <Time>2020-02-09T09:06:19.000Z</Time>
            <Position>
              <LatitudeDegrees>38.9272513054311275482177734375</LatitudeDegrees>
              <LongitudeDegrees>-2.83484590239822864532470703125</LongitudeDegrees>
            </Position>
            <AltitudeMeters>838.79998779296875</AltitudeMeters>
            <DistanceMeters>5824.3372004252</DistanceMeters>
          </Trackpoint>
          <Trackpoint>
            <Time>2020-02-09T09:06:22.000Z</Time>
            <Position>
              <LatitudeDegrees>38.92725893296301364898681640625</LatitudeDegrees>
              <LongitudeDegrees>-2.83474314026534557342529296875</LongitudeDegrees>
            </Position>
            <AltitudeMeters>837.79998779296875</AltitudeMeters>
            <DistanceMeters>5833.2747647592</DistanceMeters>
          </Trackpoint>
          <Trackpoint>
            <Time>2020-02-09T09:06:24.000Z</Time>
            <Position>
              <LatitudeDegrees>38.92726681195199489593505859375</LatitudeDegrees>
              <LongitudeDegrees>-2.83469050191342830657958984375</LongitudeDegrees>
            </Position>
            <AltitudeMeters>837.4000244140625</AltitudeMeters>
            <DistanceMeters>5837.9165060698</DistanceMeters>
          </Trackpoint>
          <Trackpoint>
            <Time>2020-02-09T09:06:25.000Z</Time>
            <Position>
              <LatitudeDegrees>38.9272580109536647796630859375</LatitudeDegrees>
              <LongitudeDegrees>-2.83466644585132598876953125</LongitudeDegrees>
            </Position>
            <AltitudeMeters>837.20001220703125</AltitudeMeters>
            <DistanceMeters>5840.2188211813</DistanceMeters>
          </Trackpoint>
          <Trackpoint>
            <Time>2020-02-09T09:06:27.000Z</Time>
            <Position>
              <LatitudeDegrees>38.92724015749990940093994140625</LatitudeDegrees>
              <LongitudeDegrees>-2.834619171917438507080078125</LongitudeDegrees>
            </Position>
            <AltitudeMeters>837</AltitudeMeters>
            <DistanceMeters>5844.7692019661</DistanceMeters>
          </Trackpoint>
          <Trackpoint>
            <Time>2020-02-09T09:06:34.000Z</Time>
            <Position>
              <LatitudeDegrees>38.9271287620067596435546875</LatitudeDegrees>
              <LongitudeDegrees>-2.834391184151172637939453125</LongitudeDegrees>
            </Position>
            <AltitudeMeters>835.20001220703125</AltitudeMeters>
            <DistanceMeters>5868.0807870773</DistanceMeters>
          </Trackpoint>
          <Trackpoint>
            <Time>2020-02-09T09:06:35.000Z</Time>
            <Position>
              <LatitudeDegrees>38.9271352998912334442138671875</LatitudeDegrees>
              <LongitudeDegrees>-2.8343613445758819580078125</LongitudeDegrees>
            </Position>
            <AltitudeMeters>835</AltitudeMeters>
            <DistanceMeters>5870.7651866381</DistanceMeters>
          </Trackpoint>
          <Trackpoint>
            <Time>2020-02-09T09:06:36.000Z</Time>
            <Position>
              <LatitudeDegrees>38.92714896239340305328369140625</LatitudeDegrees>
              <LongitudeDegrees>-2.83434332348406314849853515625</LongitudeDegrees>
            </Position>
            <AltitudeMeters>835</AltitudeMeters>
            <DistanceMeters>5872.9445948627</DistanceMeters>
          </Trackpoint>
          <Trackpoint>
            <Time>2020-02-09T09:06:41.000Z</Time>
            <Position>
              <LatitudeDegrees>38.927231691777706146240234375</LatitudeDegrees>
              <LongitudeDegrees>-2.8343008272349834442138671875</LongitudeDegrees>
            </Position>
            <AltitudeMeters>835.4000244140625</AltitudeMeters>
            <DistanceMeters>5882.860667795</DistanceMeters>
          </Trackpoint>
          <Trackpoint>
            <Time>2020-02-09T09:06:43.000Z</Time>
            <Position>
              <LatitudeDegrees>38.9272684045135974884033203125</LatitudeDegrees>
              <LongitudeDegrees>-2.83428096212446689605712890625</LongitudeDegrees>
            </Position>
            <AltitudeMeters>835.4000244140625</AltitudeMeters>
            <DistanceMeters>5887.2924187205</DistanceMeters>
          </Trackpoint>
          <Trackpoint>
            <Time>2020-02-09T09:06:45.000Z</Time>
            <Position>
              <LatitudeDegrees>38.9272848330438137054443359375</LatitudeDegrees>
              <LongitudeDegrees>-2.834221534430980682373046875</LongitudeDegrees>
            </Position>
            <AltitudeMeters>835.20001220703125</AltitudeMeters>
            <DistanceMeters>5892.7529418106</DistanceMeters>
          </Trackpoint>
          <Trackpoint>
            <Time>2020-02-09T09:06:55.000Z</Time>
            <Position>
              <LatitudeDegrees>38.92740243114531040191650390625</LatitudeDegrees>
              <LongitudeDegrees>-2.833915092051029205322265625</LongitudeDegrees>
            </Position>
            <AltitudeMeters>835.5999755859375</AltitudeMeters>
            <DistanceMeters>5922.3393838124</DistanceMeters>
          </Trackpoint>
          <Trackpoint>
            <Time>2020-02-09T09:07:05.000Z</Time>
            <Position>
              <LatitudeDegrees>38.92742539756000041961669921875</LatitudeDegrees>
              <LongitudeDegrees>-2.83355575986206531524658203125</LongitudeDegrees>
            </Position>
            <AltitudeMeters>835.4000244140625</AltitudeMeters>
            <DistanceMeters>5953.5576481827</DistanceMeters>
          </Trackpoint>
          <Trackpoint>
            <Time>2020-02-09T09:07:15.000Z</Time>
            <Position>
              <LatitudeDegrees>38.927532769739627838134765625</LatitudeDegrees>
              <LongitudeDegrees>-2.833195589482784271240234375</LongitudeDegrees>
            </Position>
            <AltitudeMeters>836.20001220703125</AltitudeMeters>
            <DistanceMeters>5986.954908283</DistanceMeters>
          </Trackpoint>
          <Trackpoint>
            <Time>2020-02-09T09:07:25.000Z</Time>
            <Position>
              <LatitudeDegrees>38.92766662873327732086181640625</LatitudeDegrees>
              <LongitudeDegrees>-2.8328926675021648406982421875</LongitudeDegrees>
            </Position>
            <AltitudeMeters>837.20001220703125</AltitudeMeters>
            <DistanceMeters>6017.1200158252</DistanceMeters>
          </Trackpoint>
          <Trackpoint>
            <Time>2020-02-09T09:07:35.000Z</Time>
            <Position>
              <LatitudeDegrees>38.92777995206415653228759765625</LatitudeDegrees>
              <LongitudeDegrees>-2.83258563838899135589599609375</LongitudeDegrees>
            </Position>
            <AltitudeMeters>838.5999755859375</AltitudeMeters>
            <DistanceMeters>6046.5448656906</DistanceMeters>
          </Trackpoint>
          <Trackpoint>
            <Time>2020-02-09T09:07:45.000Z</Time>
            <Position>
              <LatitudeDegrees>38.92774642445147037506103515625</LatitudeDegrees>
              <LongitudeDegrees>-2.83223041333258152008056640625</LongitudeDegrees>
            </Position>
            <AltitudeMeters>839.5999755859375</AltitudeMeters>
            <DistanceMeters>6077.5279466615</DistanceMeters>
          </Trackpoint>
          <Trackpoint>
            <Time>2020-02-09T09:07:55.000Z</Time>
            <Position>
              <LatitudeDegrees>38.92785605974495410919189453125</LatitudeDegrees>
              <LongitudeDegrees>-2.83193721435964107513427734375</LongitudeDegrees>
            </Position>
            <AltitudeMeters>842.4000244140625</AltitudeMeters>
            <DistanceMeters>6105.6953138889</DistanceMeters>
          </Trackpoint>
          <Trackpoint>
            <Time>2020-02-09T09:08:01.000Z</Time>
            <Position>
              <LatitudeDegrees>38.92795328982174396514892578125</LatitudeDegrees>
              <LongitudeDegrees>-2.83178181387484073638916015625</LongitudeDegrees>
            </Position>
            <AltitudeMeters>844.20001220703125</AltitudeMeters>
            <DistanceMeters>6122.9630040696</DistanceMeters>
          </Trackpoint>
          <Trackpoint>
            <Time>2020-02-09T09:08:05.000Z</Time>
            <Position>
              <LatitudeDegrees>38.9279265515506267547607421875</LatitudeDegrees>
              <LongitudeDegrees>-2.83165021799504756927490234375</LongitudeDegrees>
            </Position>
            <AltitudeMeters>844.5999755859375</AltitudeMeters>
            <DistanceMeters>6134.7390341286</DistanceMeters>
          </Trackpoint>
          <Trackpoint>
            <Time>2020-02-09T09:08:06.000Z</Time>
            <Position>
              <LatitudeDegrees>38.92791808582842350006103515625</LatitudeDegrees>
              <LongitudeDegrees>-2.83161987550556659698486328125</LongitudeDegrees>
            </Position>
            <AltitudeMeters>844.5999755859375</AltitudeMeters>
            <DistanceMeters>6137.5306207691</DistanceMeters>
          </Trackpoint>
          <Trackpoint>
            <Time>2020-02-09T09:08:15.000Z</Time>
            <Position>
              <LatitudeDegrees>38.9278430677950382232666015625</LatitudeDegrees>
              <LongitudeDegrees>-2.8313275985419750213623046875</LongitudeDegrees>
            </Position>
            <AltitudeMeters>845.4000244140625</AltitudeMeters>
            <DistanceMeters>6164.179642551</DistanceMeters>
          </Trackpoint>
          <Trackpoint>
            <Time>2020-02-09T09:08:25.000Z</Time>
            <Position>
              <LatitudeDegrees>38.9277778565883636474609375</LatitudeDegrees>
              <LongitudeDegrees>-2.8310032188892364501953125</LongitudeDegrees>
            </Position>
            <AltitudeMeters>846.79998779296875</AltitudeMeters>
            <DistanceMeters>6193.1891055609</DistanceMeters>
          </Trackpoint>
          <Trackpoint>
            <Time>2020-02-09T09:08:35.000Z</Time>
            <Position>
              <LatitudeDegrees>38.9278122223913669586181640625</LatitudeDegrees>
              <LongitudeDegrees>-2.83071010373532772064208984375</LongitudeDegrees>
            </Position>
            <AltitudeMeters>849</AltitudeMeters>
            <DistanceMeters>6218.8554675302</DistanceMeters>
          </Trackpoint>
          <Trackpoint>
            <Time>2020-02-09T09:08:45.000Z</Time>
            <Position>
              <LatitudeDegrees>38.92783292569220066070556640625</LatitudeDegrees>
              <LongitudeDegrees>-2.83042914234101772308349609375</LongitudeDegrees>
            </Position>
            <AltitudeMeters>851.4000244140625</AltitudeMeters>
            <DistanceMeters>6243.2917492647</DistanceMeters>
          </Trackpoint>
          <Trackpoint>
            <Time>2020-02-09T09:08:55.000Z</Time>
            <Position>
              <LatitudeDegrees>38.9278583228588104248046875</LatitudeDegrees>
              <LongitudeDegrees>-2.8301289863884449005126953125</LongitudeDegrees>
            </Position>
            <AltitudeMeters>853.79998779296875</AltitudeMeters>
            <DistanceMeters>6269.4342875039</DistanceMeters>
          </Trackpoint>
          <Trackpoint>
            <Time>2020-02-09T09:09:04.000Z</Time>
            <Position>
              <LatitudeDegrees>38.92791942693293094635009765625</LatitudeDegrees>
              <LongitudeDegrees>-2.82985263504087924957275390625</LongitudeDegrees>
            </Position>
            <AltitudeMeters>855.79998779296875</AltitudeMeters>
            <DistanceMeters>6294.3102413258</DistanceMeters>
          </Trackpoint>
          <Trackpoint>
            <Time>2020-02-09T09:09:15.000Z</Time>
            <Position>
              <LatitudeDegrees>38.92792814411222934722900390625</LatitudeDegrees>
              <LongitudeDegrees>-2.8294916264712810516357421875</LongitudeDegrees>
            </Position>
            <AltitudeMeters>856.79998779296875</AltitudeMeters>
            <DistanceMeters>6325.5837048292</DistanceMeters>
          </Trackpoint>
          <Trackpoint>
            <Time>2020-02-09T09:09:25.000Z</Time>
            <Position>
              <LatitudeDegrees>38.92783191986382007598876953125</LatitudeDegrees>
              <LongitudeDegrees>-2.82922499813139438629150390625</LongitudeDegrees>
            </Position>
            <AltitudeMeters>856.20001220703125</AltitudeMeters>
            <DistanceMeters>6351.0331292405</DistanceMeters>
          </Trackpoint>
          <Trackpoint>
            <Time>2020-02-09T09:09:35.000Z</Time>
            <Position>
              <LatitudeDegrees>38.92764533869922161102294921875</LatitudeDegrees>
              <LongitudeDegrees>-2.82897748053073883056640625</LongitudeDegrees>
            </Position>
            <AltitudeMeters>855.5999755859375</AltitudeMeters>
            <DistanceMeters>6380.8756028165</DistanceMeters>
          </Trackpoint>
          <Trackpoint>
            <Time>2020-02-09T09:09:45.000Z</Time>
            <Position>
              <LatitudeDegrees>38.9274524711072444915771484375</LatitudeDegrees>
              <LongitudeDegrees>-2.8286745585501194000244140625</LongitudeDegrees>
            </Position>
            <AltitudeMeters>856.20001220703125</AltitudeMeters>
            <DistanceMeters>6414.7691155423</DistanceMeters>
          </Trackpoint>
          <Trackpoint>
            <Time>2020-02-09T09:09:55.000Z</Time>
            <Position>
              <LatitudeDegrees>38.92728206701576709747314453125</LatitudeDegrees>
              <LongitudeDegrees>-2.8282812796533107757568359375</LongitudeDegrees>
            </Position>
            <AltitudeMeters>855.5999755859375</AltitudeMeters>
            <DistanceMeters>6453.7472158237</DistanceMeters>
          </Trackpoint>
          <Trackpoint>
            <Time>2020-02-09T09:10:05.000Z</Time>
            <Position>
              <LatitudeDegrees>38.92712197266519069671630859375</LatitudeDegrees>
              <LongitudeDegrees>-2.82782907597720623016357421875</LongitudeDegrees>
            </Position>
            <AltitudeMeters>855.5999755859375</AltitudeMeters>
            <DistanceMeters>6496.7660938476</DistanceMeters>
          </Trackpoint>
          <Trackpoint>
            <Time>2020-02-09T09:10:16.000Z</Time>
            <Position>
              <LatitudeDegrees>38.92694301903247833251953125</LatitudeDegrees>
              <LongitudeDegrees>-2.82732347957789897918701171875</LongitudeDegrees>
            </Position>
            <AltitudeMeters>855.79998779296875</AltitudeMeters>
            <DistanceMeters>6544.8621922617</DistanceMeters>
          </Trackpoint>
          <Trackpoint>
            <Time>2020-02-09T09:10:27.000Z</Time>
            <Position>
              <LatitudeDegrees>38.926743529736995697021484375</LatitudeDegrees>
              <LongitudeDegrees>-2.8267487324774265289306640625</LongitudeDegrees>
            </Position>
            <AltitudeMeters>855.4000244140625</AltitudeMeters>
            <DistanceMeters>6599.3565125104</DistanceMeters>
          </Trackpoint>
          <Trackpoint>
            <Time>2020-02-09T09:10:38.000Z</Time>
            <Position>
              <LatitudeDegrees>38.926559127867221832275390625</LatitudeDegrees>
              <LongitudeDegrees>-2.82619158737361431121826171875</LongitudeDegrees>
            </Position>
            <AltitudeMeters>861.20001220703125</AltitudeMeters>
            <DistanceMeters>6651.7826741801</DistanceMeters>
          </Trackpoint>
          <Trackpoint>
            <Time>2020-02-09T09:10:39.000Z</Time>
            <Position>
              <LatitudeDegrees>38.92654647119343280792236328125</LatitudeDegrees>
              <LongitudeDegrees>-2.82614112831652164459228515625</LongitudeDegrees>
            </Position>
            <AltitudeMeters>861</AltitudeMeters>
            <DistanceMeters>6656.3735562762</DistanceMeters>
          </Trackpoint>
          <Trackpoint>
            <Time>2020-02-09T09:10:47.000Z</Time>
            <Position>
              <LatitudeDegrees>38.92642996273934841156005859375</LatitudeDegrees>
              <LongitudeDegrees>-2.82575757242739200592041015625</LongitudeDegrees>
            </Position>
            <AltitudeMeters>860.20001220703125</AltitudeMeters>
            <DistanceMeters>6692.0266879881</DistanceMeters>
          </Trackpoint>
          <Trackpoint>
            <Time>2020-02-09T09:10:57.000Z</Time>
            <Position>
              <LatitudeDegrees>38.92630171962082386016845703125</LatitudeDegrees>
              <LongitudeDegrees>-2.825393043458461761474609375</LongitudeDegrees>
            </Position>
            <AltitudeMeters>860</AltitudeMeters>
            <DistanceMeters>6726.6678031353</DistanceMeters>
          </Trackpoint>
          <Trackpoint>
            <Time>2020-02-09T09:11:08.000Z</Time>
            <Position>
              <LatitudeDegrees>38.92619610764086246490478515625</LatitudeDegrees>
              <LongitudeDegrees>-2.824955172836780548095703125</LongitudeDegrees>
            </Position>
            <AltitudeMeters>859.4000244140625</AltitudeMeters>
            <DistanceMeters>6766.3625899323</DistanceMeters>
          </Trackpoint>
          <Trackpoint>
            <Time>2020-02-09T09:11:18.000Z</Time>
            <Position>
              <LatitudeDegrees>38.92616660334169864654541015625</LatitudeDegrees>
              <LongitudeDegrees>-2.8244527615606784820556640625</LongitudeDegrees>
            </Position>
            <AltitudeMeters>859.20001220703125</AltitudeMeters>
            <DistanceMeters>6809.9892706708</DistanceMeters>
          </Trackpoint>
          <Trackpoint>
            <Time>2020-02-09T09:11:28.000Z</Time>
            <Position>
              <LatitudeDegrees>38.92616861499845981597900390625</LatitudeDegrees>
              <LongitudeDegrees>-2.82417674548923969268798828125</LongitudeDegrees>
            </Position>
            <AltitudeMeters>859.4000244140625</AltitudeMeters>
            <DistanceMeters>6833.8899534193</DistanceMeters>
          </Trackpoint>
          <Trackpoint>
            <Time>2020-02-09T09:11:30.000Z</Time>
            <Position>
              <LatitudeDegrees>38.926172219216823577880859375</LatitudeDegrees>
              <LongitudeDegrees>-2.82420826144516468048095703125</LongitudeDegrees>
            </Position>
            <AltitudeMeters>859.5999755859375</AltitudeMeters>
            <DistanceMeters>6836.6490029734</DistanceMeters>
          </Trackpoint>
          <Trackpoint>
            <Time>2020-02-09T09:11:38.000Z</Time>
            <Position>
              <LatitudeDegrees>38.9261562936007976531982421875</LatitudeDegrees>
              <LongitudeDegrees>-2.82453917898237705230712890625</LongitudeDegrees>
            </Position>
            <AltitudeMeters>858.79998779296875</AltitudeMeters>
            <DistanceMeters>6865.3574525491</DistanceMeters>
          </Trackpoint>
          <Trackpoint>
            <Time>2020-02-09T09:11:41.000Z</Time>
            <Position>
              <LatitudeDegrees>38.92618387006223201751708984375</LatitudeDegrees>
              <LongitudeDegrees>-2.82468100078403949737548828125</LongitudeDegrees>
            </Position>
            <AltitudeMeters>859.4000244140625</AltitudeMeters>
            <DistanceMeters>6878.0156386918</DistanceMeters>
          </Trackpoint>
          <Trackpoint>
            <Time>2020-02-09T09:11:48.000Z</Time>
            <Position>
              <LatitudeDegrees>38.9261935092508792877197265625</LatitudeDegrees>
              <LongitudeDegrees>-2.82475962303578853607177734375</LongitudeDegrees>
            </Position>
            <AltitudeMeters>859.5999755859375</AltitudeMeters>
            <DistanceMeters>6884.9075326329</DistanceMeters>
          </Trackpoint>
          <Trackpoint>
            <Time>2020-02-09T09:11:59.000Z</Time>
            <Position>
              <LatitudeDegrees>38.92616945318877696990966796875</LatitudeDegrees>
              <LongitudeDegrees>-2.824334241449832916259765625</LongitudeDegrees>
            </Position>
            <AltitudeMeters>859.4000244140625</AltitudeMeters>
            <DistanceMeters>6921.8376085262</DistanceMeters>
          </Trackpoint>
          <Trackpoint>
            <Time>2020-02-09T09:12:09.000Z</Time>
            <Position>
              <LatitudeDegrees>38.9261418767273426055908203125</LatitudeDegrees>
              <LongitudeDegrees>-2.823893018066883087158203125</LongitudeDegrees>
            </Position>
            <AltitudeMeters>857.4000244140625</AltitudeMeters>
            <DistanceMeters>6960.1655473706</DistanceMeters>
          </Trackpoint>
          <Trackpoint>
            <Time>2020-02-09T09:12:19.000Z</Time>
            <Position>
              <LatitudeDegrees>38.92621840350329875946044921875</LatitudeDegrees>
              <LongitudeDegrees>-2.82343980856239795684814453125</LongitudeDegrees>
            </Position>
            <AltitudeMeters>857.4000244140625</AltitudeMeters>
            <DistanceMeters>7000.3217276017</DistanceMeters>
          </Trackpoint>
          <Trackpoint>
            <Time>2020-02-09T09:12:29.000Z</Time>
            <Position>
              <LatitudeDegrees>38.92632870934903621673583984375</LatitudeDegrees>
              <LongitudeDegrees>-2.82296053133904933929443359375</LongitudeDegrees>
            </Position>
            <AltitudeMeters>857.5999755859375</AltitudeMeters>
            <DistanceMeters>7043.5993805588</DistanceMeters>
          </Trackpoint>
          <Trackpoint>
            <Time>2020-02-09T09:12:39.000Z</Time>
            <Position>
              <LatitudeDegrees>38.92646265216171741485595703125</LatitudeDegrees>
              <LongitudeDegrees>-2.8224424459040164947509765625</LongitudeDegrees>
            </Position>
            <AltitudeMeters>859</AltitudeMeters>
            <DistanceMeters>7090.8715177799</DistanceMeters>
          </Trackpoint>
          <Trackpoint>
            <Time>2020-02-09T09:12:41.000Z</Time>
            <Position>
              <LatitudeDegrees>38.9264979399740695953369140625</LatitudeDegrees>
              <LongitudeDegrees>-2.82233297824859619140625</LongitudeDegrees>
            </Position>
            <AltitudeMeters>858.5999755859375</AltitudeMeters>
            <DistanceMeters>7101.1308828202</DistanceMeters>
          </Trackpoint>
          <Trackpoint>
            <Time>2020-02-09T09:12:48.000Z</Time>
            <Position>
              <LatitudeDegrees>38.9266558550298213958740234375</LatitudeDegrees>
              <LongitudeDegrees>-2.8219901584088802337646484375</LongitudeDegrees>
            </Position>
            <AltitudeMeters>858.20001220703125</AltitudeMeters>
            <DistanceMeters>7135.6280669719</DistanceMeters>
          </Trackpoint>
          <Trackpoint>
            <Time>2020-02-09T09:12:59.000Z</Time>
            <Position>
              <LatitudeDegrees>38.9267778955399990081787109375</LatitudeDegrees>
              <LongitudeDegrees>-2.82143418677151203155517578125</LongitudeDegrees>
            </Position>
            <AltitudeMeters>857.5999755859375</AltitudeMeters>
            <DistanceMeters>7185.6478764527</DistanceMeters>
          </Trackpoint>
          <Trackpoint>
            <Time>2020-02-09T09:13:00.000Z</Time>
            <Position>
              <LatitudeDegrees>38.9267732016742229461669921875</LatitudeDegrees>
              <LongitudeDegrees>-2.821373753249645233154296875</LongitudeDegrees>
            </Position>
            <AltitudeMeters>857.20001220703125</AltitudeMeters>
            <DistanceMeters>7190.9062121277</DistanceMeters>
          </Trackpoint>
          <Trackpoint>
            <Time>2020-02-09T09:13:09.000Z</Time>
            <Position>
              <LatitudeDegrees>38.92676557414233684539794921875</LatitudeDegrees>
              <LongitudeDegrees>-2.82100670970976352691650390625</LongitudeDegrees>
            </Position>
            <AltitudeMeters>855.4000244140625</AltitudeMeters>
            <DistanceMeters>7222.698861855</DistanceMeters>
          </Trackpoint>
          <Trackpoint>
            <Time>2020-02-09T09:13:15.000Z</Time>
            <Position>
              <LatitudeDegrees>38.9267899654805660247802734375</LatitudeDegrees>
              <LongitudeDegrees>-2.82071988098323345184326171875</LongitudeDegrees>
            </Position>
            <AltitudeMeters>855.5999755859375</AltitudeMeters>
            <DistanceMeters>7247.6823953112</DistanceMeters>
          </Trackpoint>
          <Trackpoint>
            <Time>2020-02-09T09:13:18.000Z</Time>
            <Position>
              <LatitudeDegrees>38.92677940428256988525390625</LatitudeDegrees>
              <LongitudeDegrees>-2.82055936753749847412109375</LongitudeDegrees>
            </Position>
            <AltitudeMeters>855.5999755859375</AltitudeMeters>
            <DistanceMeters>7261.6302971932</DistanceMeters>
          </Trackpoint>
          <Trackpoint>
            <Time>2020-02-09T09:13:19.000Z</Time>
            <Position>
              <LatitudeDegrees>38.92678334377706050872802734375</LatitudeDegrees>
              <LongitudeDegrees>-2.82050396315753459930419921875</LongitudeDegrees>
            </Position>
            <AltitudeMeters>855.5999755859375</AltitudeMeters>
            <DistanceMeters>7266.4476923878</DistanceMeters>
          </Trackpoint>
          <Trackpoint>
            <Time>2020-02-09T09:13:26.000Z</Time>
            <Position>
              <LatitudeDegrees>38.92694310285151004791259765625</LatitudeDegrees>
              <LongitudeDegrees>-2.82019852660596370697021484375</LongitudeDegrees>
            </Position>
            <AltitudeMeters>856.5999755859375</AltitudeMeters>
            <DistanceMeters>7298.3163713321</DistanceMeters>
          </Trackpoint>
          <Trackpoint>
            <Time>2020-02-09T09:13:28.000Z</Time>
            <Position>
              <LatitudeDegrees>38.92702541314065456390380859375</LatitudeDegrees>
              <LongitudeDegrees>-2.8201441280543804168701171875</LongitudeDegrees>
            </Position>
            <AltitudeMeters>857.79998779296875</AltitudeMeters>
            <DistanceMeters>7308.6178983242</DistanceMeters>
          </Trackpoint>
          <Trackpoint>
            <Time>2020-02-09T09:13:39.000Z</Time>
            <Position>
              <LatitudeDegrees>38.9272905327379703521728515625</LatitudeDegrees>
              <LongitudeDegrees>-2.81974238343536853790283203125</LongitudeDegrees>
            </Position>
            <AltitudeMeters>862.79998779296875</AltitudeMeters>
            <DistanceMeters>7354.23369071</DistanceMeters>
          </Trackpoint>
          <Trackpoint>
            <Time>2020-02-09T09:13:49.000Z</Time>
            <Position>
              <LatitudeDegrees>38.92722741700708866119384765625</LatitudeDegrees>
              <LongitudeDegrees>-2.8192730806767940521240234375</LongitudeDegrees>
            </Position>
            <AltitudeMeters>863</AltitudeMeters>
            <DistanceMeters>7395.4718907958</DistanceMeters>
          </Trackpoint>
          <Trackpoint>
            <Time>2020-02-09T09:13:59.000Z</Time>
            <Position>
              <LatitudeDegrees>38.92709188163280487060546875</LatitudeDegrees>
              <LongitudeDegrees>-2.81884451396763324737548828125</LongitudeDegrees>
            </Position>
            <AltitudeMeters>863.20001220703125</AltitudeMeters>
            <DistanceMeters>7435.5292297443</DistanceMeters>
          </Trackpoint>
          <Trackpoint>
            <Time>2020-02-09T09:14:09.000Z</Time>
            <Position>
              <LatitudeDegrees>38.9268684200942516326904296875</LatitudeDegrees>
              <LongitudeDegrees>-2.8184379078447818756103515625</LongitudeDegrees>
            </Position>
            <AltitudeMeters>859.79998779296875</AltitudeMeters>
            <DistanceMeters>7478.6352369818</DistanceMeters>
          </Trackpoint>
          <Trackpoint>
            <Time>2020-02-09T09:14:19.000Z</Time>
            <Position>
              <LatitudeDegrees>38.9266397617757320404052734375</LatitudeDegrees>
              <LongitudeDegrees>-2.8179745562374591827392578125</LongitudeDegrees>
            </Position>
            <AltitudeMeters>859.79998779296875</AltitudeMeters>
            <DistanceMeters>7526.1468836552</DistanceMeters>
          </Trackpoint>
          <Trackpoint>
            <Time>2020-02-09T09:14:20.000Z</Time>
            <Position>
              <LatitudeDegrees>38.9266102574765682220458984375</LatitudeDegrees>
              <LongitudeDegrees>-2.81786550767719745635986328125</LongitudeDegrees>
            </Position>
            <AltitudeMeters>860</AltitudeMeters>
            <DistanceMeters>7536.143675941</DistanceMeters>
          </Trackpoint>
          <Trackpoint>
            <Time>2020-02-09T09:14:22.000Z</Time>
            <Position>
              <LatitudeDegrees>38.926604725420475006103515625</LatitudeDegrees>
              <LongitudeDegrees>-2.81780649907886981964111328125</LongitudeDegrees>
            </Position>
            <AltitudeMeters>859.79998779296875</AltitudeMeters>
            <DistanceMeters>7541.2900546883</DistanceMeters>
          </Trackpoint>
          <Trackpoint>
            <Time>2020-02-09T09:14:24.000Z</Time>
            <Position>
              <LatitudeDegrees>38.92660439014434814453125</LatitudeDegrees>
              <LongitudeDegrees>-2.8176878951489925384521484375</LongitudeDegrees>
            </Position>
            <AltitudeMeters>859.5999755859375</AltitudeMeters>
            <DistanceMeters>7551.5590971321</DistanceMeters>
          </Trackpoint>
          <Trackpoint>
            <Time>2020-02-09T09:14:29.000Z</Time>
            <Position>
              <LatitudeDegrees>38.92664353363215923309326171875</LatitudeDegrees>
              <LongitudeDegrees>-2.81736929900944232940673828125</LongitudeDegrees>
            </Position>
            <AltitudeMeters>859.20001220703125</AltitudeMeters>
            <DistanceMeters>7579.4875762005</DistanceMeters>
          </Trackpoint>
          <Trackpoint>
            <Time>2020-02-09T09:14:38.000Z</Time>
            <Position>
              <LatitudeDegrees>38.9267084933817386627197265625</LatitudeDegrees>
              <LongitudeDegrees>-2.81660168431699275970458984375</LongitudeDegrees>
            </Position>
            <AltitudeMeters>858.20001220703125</AltitudeMeters>
            <DistanceMeters>7646.3455388575</DistanceMeters>
          </Trackpoint>
          <Trackpoint>
            <Time>2020-02-09T09:14:39.000Z</Time>
            <Position>
              <LatitudeDegrees>38.92670941539108753204345703125</LatitudeDegrees>
              <LongitudeDegrees>-2.81649984419345855712890625</LongitudeDegrees>
            </Position>
            <AltitudeMeters>858</AltitudeMeters>
            <DistanceMeters>7655.1640998702</DistanceMeters>
          </Trackpoint>
          <Trackpoint>
            <Time>2020-02-09T09:14:44.000Z</Time>
            <Position>
              <LatitudeDegrees>38.92675115726888179779052734375</LatitudeDegrees>
              <LongitudeDegrees>-2.81600355170667171478271484375</LongitudeDegrees>
            </Position>
            <AltitudeMeters>857.79998779296875</AltitudeMeters>
            <DistanceMeters>7698.38715524</DistanceMeters>
          </Trackpoint>
          <Trackpoint>
            <Time>2020-02-09T09:14:48.000Z</Time>
            <Position>
              <LatitudeDegrees>38.92686045728623867034912109375</LatitudeDegrees>
              <LongitudeDegrees>-2.81567397527396678924560546875</LongitudeDegrees>
            </Position>
            <AltitudeMeters>857.20001220703125</AltitudeMeters>
            <DistanceMeters>7729.4092661762</DistanceMeters>
          </Trackpoint>
          <Trackpoint>
            <Time>2020-02-09T09:14:52.000Z</Time>
            <Position>
              <LatitudeDegrees>38.9269673265516757965087890625</LatitudeDegrees>
              <LongitudeDegrees>-2.81538379378616809844970703125</LongitudeDegrees>
            </Position>
            <AltitudeMeters>857</AltitudeMeters>
            <DistanceMeters>7757.2084377839</DistanceMeters>
          </Trackpoint>
          <Trackpoint>
            <Time>2020-02-09T09:14:54.000Z</Time>
            <Position>
              <LatitudeDegrees>38.92698233015835285186767578125</LatitudeDegrees>
              <LongitudeDegrees>-2.815234847366809844970703125</LongitudeDegrees>
            </Position>
            <AltitudeMeters>856.4000244140625</AltitudeMeters>
            <DistanceMeters>7770.2128705529</DistanceMeters>
          </Trackpoint>
          <Trackpoint>
            <Time>2020-02-09T09:14:58.000Z</Time>
            <Position>
              <LatitudeDegrees>38.9269758760929107666015625</LatitudeDegrees>
              <LongitudeDegrees>-2.81496905721724033355712890625</LongitudeDegrees>
            </Position>
            <AltitudeMeters>855.4000244140625</AltitudeMeters>
            <DistanceMeters>7793.2379826704</DistanceMeters>
          </Trackpoint>
          <Trackpoint>
            <Time>2020-02-09T09:15:03.000Z</Time>
            <Position>
              <LatitudeDegrees>38.92698316834867000579833984375</LatitudeDegrees>
              <LongitudeDegrees>-2.814619950950145721435546875</LongitudeDegrees>
            </Position>
            <AltitudeMeters>855.79998779296875</AltitudeMeters>
            <DistanceMeters>7823.4767911905</DistanceMeters>
          </Trackpoint>
          <Trackpoint>
            <Time>2020-02-09T09:15:09.000Z</Time>
            <Position>
              <LatitudeDegrees>38.92694779671728610992431640625</LatitudeDegrees>
              <LongitudeDegrees>-2.81422507949173450469970703125</LongitudeDegrees>
            </Position>
            <AltitudeMeters>854.5999755859375</AltitudeMeters>
            <DistanceMeters>7857.8935203707</DistanceMeters>
          </Trackpoint>
          <Trackpoint>
            <Time>2020-02-09T09:15:13.000Z</Time>
            <Position>
              <LatitudeDegrees>38.92690974287688732147216796875</LatitudeDegrees>
              <LongitudeDegrees>-2.81394395045936107635498046875</LongitudeDegrees>
            </Position>
            <AltitudeMeters>857.4000244140625</AltitudeMeters>
            <DistanceMeters>7882.6015625447</DistanceMeters>
          </Trackpoint>
          <Trackpoint>
            <Time>2020-02-09T09:15:17.000Z</Time>
            <Position>
              <LatitudeDegrees>38.92682810313999652862548828125</LatitudeDegrees>
              <LongitudeDegrees>-2.81370473094284534454345703125</LongitudeDegrees>
            </Position>
            <AltitudeMeters>861</AltitudeMeters>
            <DistanceMeters>7905.2203160694</DistanceMeters>
          </Trackpoint>
          <Trackpoint>
            <Time>2020-02-09T09:15:19.000Z</Time>
            <Position>
              <LatitudeDegrees>38.9267822541296482086181640625</LatitudeDegrees>
              <LongitudeDegrees>-2.81360146589577198028564453125</LongitudeDegrees>
            </Position>
            <AltitudeMeters>862.5999755859375</AltitudeMeters>
            <DistanceMeters>7915.514828061</DistanceMeters>
          </Trackpoint>
          <Trackpoint>
            <Time>2020-02-09T09:15:25.000Z</Time>
            <Position>
              <LatitudeDegrees>38.92659508623182773590087890625</LatitudeDegrees>
              <LongitudeDegrees>-2.81330801546573638916015625</LongitudeDegrees>
            </Position>
            <AltitudeMeters>863</AltitudeMeters>
            <DistanceMeters>7948.3720923923</DistanceMeters>
          </Trackpoint>
          <Trackpoint>
            <Time>2020-02-09T09:15:29.000Z</Time>
            <Position>
              <LatitudeDegrees>38.92643281258642673492431640625</LatitudeDegrees>
              <LongitudeDegrees>-2.81313098967075347900390625</LongitudeDegrees>
            </Position>
            <AltitudeMeters>864.79998779296875</AltitudeMeters>
            <DistanceMeters>7972.0610153424</DistanceMeters>
          </Trackpoint>
          <Trackpoint>
            <Time>2020-02-09T09:15:31.000Z</Time>
            <Position>
              <LatitudeDegrees>38.92634279094636440277099609375</LatitudeDegrees>
              <LongitudeDegrees>-2.81305722892284393310546875</LongitudeDegrees>
            </Position>
            <AltitudeMeters>865.20001220703125</AltitudeMeters>
            <DistanceMeters>7983.9427751078</DistanceMeters>
          </Trackpoint>
          <Trackpoint>
            <Time>2020-02-09T09:15:38.000Z</Time>
            <Position>
              <LatitudeDegrees>38.9259960316121578216552734375</LatitudeDegrees>
              <LongitudeDegrees>-2.8129252977669239044189453125</LongitudeDegrees>
            </Position>
            <AltitudeMeters>864.5999755859375</AltitudeMeters>
            <DistanceMeters>8024.1929550421</DistanceMeters>
          </Trackpoint>
          <Trackpoint>
            <Time>2020-02-09T09:15:40.000Z</Time>
            <Position>
              <LatitudeDegrees>38.9258897490799427032470703125</LatitudeDegrees>
              <LongitudeDegrees>-2.81292714178562164306640625</LongitudeDegrees>
            </Position>
            <AltitudeMeters>864.5999755859375</AltitudeMeters>
            <DistanceMeters>8036.0236855724</DistanceMeters>
          </Trackpoint>
          <Trackpoint>
            <Time>2020-02-09T09:15:50.000Z</Time>
            <Position>
              <LatitudeDegrees>38.92537082545459270477294921875</LatitudeDegrees>
              <LongitudeDegrees>-2.813080362975597381591796875</LongitudeDegrees>
            </Position>
            <AltitudeMeters>859.79998779296875</AltitudeMeters>
            <DistanceMeters>8095.2850143628</DistanceMeters>
          </Trackpoint>
          <Trackpoint>
            <Time>2020-02-09T09:15:58.000Z</Time>
            <Position>
              <LatitudeDegrees>38.9249883592128753662109375</LatitudeDegrees>
              <LongitudeDegrees>-2.813266776502132415771484375</LongitudeDegrees>
            </Position>
            <AltitudeMeters>855.4000244140625</AltitudeMeters>
            <DistanceMeters>8140.8118361972</DistanceMeters>
          </Trackpoint>
          <Trackpoint>
            <Time>2020-02-09T09:16:00.000Z</Time>
            <Position>
              <LatitudeDegrees>38.924902863800525665283203125</LatitudeDegrees>
              <LongitudeDegrees>-2.81323249451816082000732421875</LongitudeDegrees>
            </Position>
            <AltitudeMeters>856.20001220703125</AltitudeMeters>
            <DistanceMeters>8150.7801340052</DistanceMeters>
          </Trackpoint>
          <Trackpoint>
            <Time>2020-02-09T09:16:01.000Z</Time>
            <Position>
              <LatitudeDegrees>38.924869336187839508056640625</LatitudeDegrees>
              <LongitudeDegrees>-2.813187651336193084716796875</LongitudeDegrees>
            </Position>
            <AltitudeMeters>857</AltitudeMeters>
            <DistanceMeters>8156.1657264088</DistanceMeters>
          </Trackpoint>
          <Trackpoint>
            <Time>2020-02-09T09:16:02.000Z</Time>
            <Position>
              <LatitudeDegrees>38.9248440228402614593505859375</LatitudeDegrees>
              <LongitudeDegrees>-2.813130654394626617431640625</LongitudeDegrees>
            </Position>
            <AltitudeMeters>858.20001220703125</AltitudeMeters>
            <DistanceMeters>8161.8490866332</DistanceMeters>
          </Trackpoint>
          <Trackpoint>
            <Time>2020-02-09T09:16:10.000Z</Time>
            <Position>
              <LatitudeDegrees>38.92475433647632598876953125</LatitudeDegrees>
              <LongitudeDegrees>-2.81257853843271732330322265625</LongitudeDegrees>
            </Position>
            <AltitudeMeters>860.20001220703125</AltitudeMeters>
            <DistanceMeters>8210.6878258887</DistanceMeters>
          </Trackpoint>
          <Trackpoint>
            <Time>2020-02-09T09:16:20.000Z</Time>
            <Position>
              <LatitudeDegrees>38.92467713914811611175537109375</LatitudeDegrees>
              <LongitudeDegrees>-2.8118644841015338897705078125</LongitudeDegrees>
            </Position>
            <AltitudeMeters>859.5999755859375</AltitudeMeters>
            <DistanceMeters>8273.1119153738</DistanceMeters>
          </Trackpoint>
          <Trackpoint>
            <Time>2020-02-09T09:16:31.000Z</Time>
            <Position>
              <LatitudeDegrees>38.924556188285350799560546875</LatitudeDegrees>
              <LongitudeDegrees>-2.81120038591325283050537109375</LongitudeDegrees>
            </Position>
            <AltitudeMeters>860.5999755859375</AltitudeMeters>
            <DistanceMeters>8332.1709992426</DistanceMeters>
          </Trackpoint>
          <Trackpoint>
            <Time>2020-02-09T09:16:36.000Z</Time>
            <Position>
              <LatitudeDegrees>38.92448402009904384613037109375</LatitudeDegrees>
              <LongitudeDegrees>-2.8108995594084262847900390625</LongitudeDegrees>
            </Position>
            <AltitudeMeters>861.5999755859375</AltitudeMeters>
            <DistanceMeters>8359.4299220069</DistanceMeters>
          </Trackpoint>
          <Trackpoint>
            <Time>2020-02-09T09:16:42.000Z</Time>
            <Position>
              <LatitudeDegrees>38.924370445311069488525390625</LatitudeDegrees>
              <LongitudeDegrees>-2.8105542249977588653564453125</LongitudeDegrees>
            </Position>
            <AltitudeMeters>862</AltitudeMeters>
            <DistanceMeters>8391.8947249835</DistanceMeters>
          </Trackpoint>
          <Trackpoint>
            <Time>2020-02-09T09:16:52.000Z</Time>
            <Position>
              <LatitudeDegrees>38.924123346805572509765625</LatitudeDegrees>
              <LongitudeDegrees>-2.81019807793200016021728515625</LongitudeDegrees>
            </Position>
            <AltitudeMeters>863.20001220703125</AltitudeMeters>
            <DistanceMeters>8433.2157234489</DistanceMeters>
          </Trackpoint>
          <Trackpoint>
            <Time>2020-02-09T09:16:57.000Z</Time>
            <Position>
              <LatitudeDegrees>38.923943303525447845458984375</LatitudeDegrees>
              <LongitudeDegrees>-2.8101731836795806884765625</LongitudeDegrees>
            </Position>
            <AltitudeMeters>862.79998779296875</AltitudeMeters>
            <DistanceMeters>8453.370349686</DistanceMeters>
          </Trackpoint>
          <Trackpoint>
            <Time>2020-02-09T09:17:01.000Z</Time>
            <Position>
              <LatitudeDegrees>38.923746161162853240966796875</LatitudeDegrees>
              <LongitudeDegrees>-2.81023864634335041046142578125</LongitudeDegrees>
            </Position>
            <AltitudeMeters>861.4000244140625</AltitudeMeters>
            <DistanceMeters>8476.0329759201</DistanceMeters>
          </Trackpoint>
          <Trackpoint>
            <Time>2020-02-09T09:17:02.000Z</Time>
            <Position>
              <LatitudeDegrees>38.9236933551728725433349609375</LatitudeDegrees>
              <LongitudeDegrees>-2.81025306321680545806884765625</LongitudeDegrees>
            </Position>
            <AltitudeMeters>861</AltitudeMeters>
            <DistanceMeters>8482.0414903474</DistanceMeters>
          </Trackpoint>
          <Trackpoint>
            <Time>2020-02-09T09:17:06.000Z</Time>
            <Position>
              <LatitudeDegrees>38.923470564186573028564453125</LatitudeDegrees>
              <LongitudeDegrees>-2.81024233438074588775634765625</LongitudeDegrees>
            </Position>
            <AltitudeMeters>860.79998779296875</AltitudeMeters>
            <DistanceMeters>8506.8560206213</DistanceMeters>
          </Trackpoint>
          <Trackpoint>
            <Time>2020-02-09T09:17:09.000Z</Time>
            <Position>
              <LatitudeDegrees>38.92331910319626331329345703125</LatitudeDegrees>
              <LongitudeDegrees>-2.81018835492432117462158203125</LongitudeDegrees>
            </Position>
            <AltitudeMeters>860.5999755859375</AltitudeMeters>
            <DistanceMeters>8524.3497135043</DistanceMeters>
          </Trackpoint>
          <Trackpoint>
            <Time>2020-02-09T09:17:12.000Z</Time>
            <Position>
              <LatitudeDegrees>38.92316873185336589813232421875</LatitudeDegrees>
              <LongitudeDegrees>-2.81010587699711322784423828125</LongitudeDegrees>
            </Position>
            <AltitudeMeters>859.79998779296875</AltitudeMeters>
            <DistanceMeters>8542.5462748016</DistanceMeters>
          </Trackpoint>
          <Trackpoint>
            <Time>2020-02-09T09:17:21.000Z</Time>
            <Position>
              <LatitudeDegrees>38.92275047488510608673095703125</LatitudeDegrees>
              <LongitudeDegrees>-2.809909991919994354248046875</LongitudeDegrees>
            </Position>
            <AltitudeMeters>860.4000244140625</AltitudeMeters>
            <DistanceMeters>8592.093025066</DistanceMeters>
          </Trackpoint>
          <Trackpoint>
            <Time>2020-02-09T09:17:22.000Z</Time>
            <Position>
              <LatitudeDegrees>38.92270068638026714324951171875</LatitudeDegrees>
              <LongitudeDegrees>-2.8098995983600616455078125</LongitudeDegrees>
            </Position>
            <AltitudeMeters>860.5999755859375</AltitudeMeters>
            <DistanceMeters>8597.7084526492</DistanceMeters>
          </Trackpoint>
          <Trackpoint>
            <Time>2020-02-09T09:17:32.000Z</Time>
            <Position>
              <LatitudeDegrees>38.92219685018062591552734375</LatitudeDegrees>
              <LongitudeDegrees>-2.8098756261169910430908203125</LongitudeDegrees>
            </Position>
            <AltitudeMeters>860</AltitudeMeters>
            <DistanceMeters>8653.8248453366</DistanceMeters>
          </Trackpoint>
          <Trackpoint>
            <Time>2020-02-09T09:17:42.000Z</Time>
            <Position>
              <LatitudeDegrees>38.92167658545076847076416015625</LatitudeDegrees>
              <LongitudeDegrees>-2.80987671576440334320068359375</LongitudeDegrees>
            </Position>
            <AltitudeMeters>859.5999755859375</AltitudeMeters>
            <DistanceMeters>8711.7314460507</DistanceMeters>
          </Trackpoint>
          <Trackpoint>
            <Time>2020-02-09T09:17:52.000Z</Time>
            <Position>
              <LatitudeDegrees>38.9212357811629772186279296875</LatitudeDegrees>
              <LongitudeDegrees>-2.80978032387793064117431640625</LongitudeDegrees>
            </Position>
            <AltitudeMeters>862.4000244140625</AltitudeMeters>
            <DistanceMeters>8761.4987789832</DistanceMeters>
          </Trackpoint>
          <Trackpoint>
            <Time>2020-02-09T09:18:02.000Z</Time>
            <Position>
              <LatitudeDegrees>38.920884244143962860107421875</LatitudeDegrees>
              <LongitudeDegrees>-2.8096957504749298095703125</LongitudeDegrees>
            </Position>
            <AltitudeMeters>862.5999755859375</AltitudeMeters>
            <DistanceMeters>8801.3049921145</DistanceMeters>
          </Trackpoint>
          <Trackpoint>
            <Time>2020-02-09T09:18:12.000Z</Time>
            <Position>
              <LatitudeDegrees>38.92060906626284122467041015625</LatitudeDegrees>
              <LongitudeDegrees>-2.8095705248415470123291015625</LongitudeDegrees>
            </Position>
            <AltitudeMeters>863.5999755859375</AltitudeMeters>
            <DistanceMeters>8833.7957916831</DistanceMeters>
          </Trackpoint>
          <Trackpoint>
            <Time>2020-02-09T09:18:22.000Z</Time>
            <Position>
              <LatitudeDegrees>38.9203722774982452392578125</LatitudeDegrees>
              <LongitudeDegrees>-2.8093297965824604034423828125</LongitudeDegrees>
            </Position>
            <AltitudeMeters>863.4000244140625</AltitudeMeters>
            <DistanceMeters>8867.3983182046</DistanceMeters>
          </Trackpoint>
          <Trackpoint>
            <Time>2020-02-09T09:18:32.000Z</Time>
            <Position>
              <LatitudeDegrees>38.92012174241244792938232421875</LatitudeDegrees>
              <LongitudeDegrees>-2.8089978732168674468994140625</LongitudeDegrees>
            </Position>
            <AltitudeMeters>863.4000244140625</AltitudeMeters>
            <DistanceMeters>8907.4450605996</DistanceMeters>
          </Trackpoint>
          <Trackpoint>
            <Time>2020-02-09T09:18:41.000Z</Time>
            <Position>
              <LatitudeDegrees>38.91972645185887813568115234375</LatitudeDegrees>
              <LongitudeDegrees>-2.80846050940454006195068359375</LongitudeDegrees>
            </Position>
            <AltitudeMeters>861.5999755859375</AltitudeMeters>
            <DistanceMeters>8971.4846061751</DistanceMeters>
          </Trackpoint>
          <Trackpoint>
            <Time>2020-02-09T09:18:42.000Z</Time>
            <Position>
              <LatitudeDegrees>38.91962863504886627197265625</LatitudeDegrees>
              <LongitudeDegrees>-2.80833595432341098785400390625</LongitudeDegrees>
            </Position>
            <AltitudeMeters>861.20001220703125</AltitudeMeters>
            <DistanceMeters>8986.8098552182</DistanceMeters>
          </Trackpoint>
          <Trackpoint>
            <Time>2020-02-09T09:18:53.000Z</Time>
            <Position>
              <LatitudeDegrees>38.91927064396440982818603515625</LatitudeDegrees>
              <LongitudeDegrees>-2.8078586049377918243408203125</LongitudeDegrees>
            </Position>
            <AltitudeMeters>860.5999755859375</AltitudeMeters>
            <DistanceMeters>9044.2236874818</DistanceMeters>
          </Trackpoint>
          <Trackpoint>
            <Time>2020-02-09T09:19:03.000Z</Time>
            <Position>
              <LatitudeDegrees>38.918875940144062042236328125</LatitudeDegrees>
              <LongitudeDegrees>-2.8073335625231266021728515625</LongitudeDegrees>
            </Position>
            <AltitudeMeters>861.20001220703125</AltitudeMeters>
            <DistanceMeters>9107.447096582</DistanceMeters>
          </Trackpoint>
          <Trackpoint>
            <Time>2020-02-09T09:19:13.000Z</Time>
            <Position>
              <LatitudeDegrees>38.91848224215209484100341796875</LatitudeDegrees>
              <LongitudeDegrees>-2.80679804272949695587158203125</LongitudeDegrees>
            </Position>
            <AltitudeMeters>862.20001220703125</AltitudeMeters>
            <DistanceMeters>9171.249450777</DistanceMeters>
          </Trackpoint>
          <Trackpoint>
            <Time>2020-02-09T09:19:20.000Z</Time>
            <Position>
              <LatitudeDegrees>38.91831745393574237823486328125</LatitudeDegrees>
              <LongitudeDegrees>-2.80648313462734222412109375</LongitudeDegrees>
            </Position>
            <AltitudeMeters>865.79998779296875</AltitudeMeters>
            <DistanceMeters>9204.1139972273</DistanceMeters>
          </Trackpoint>
          <Trackpoint>
            <Time>2020-02-09T09:19:23.000Z</Time>
            <Position>
              <LatitudeDegrees>38.91829063184559345245361328125</LatitudeDegrees>
              <LongitudeDegrees>-2.80632681213319301605224609375</LongitudeDegrees>
            </Position>
            <AltitudeMeters>867.20001220703125</AltitudeMeters>
            <DistanceMeters>9217.9765026576</DistanceMeters>
          </Trackpoint>
          <Trackpoint>
            <Time>2020-02-09T09:19:33.000Z</Time>
            <Position>
              <LatitudeDegrees>38.918324410915374755859375</LatitudeDegrees>
              <LongitudeDegrees>-2.80588642694056034088134765625</LongitudeDegrees>
            </Position>
            <AltitudeMeters>870.4000244140625</AltitudeMeters>
            <DistanceMeters>9256.2977263033</DistanceMeters>
          </Trackpoint>
          <Trackpoint>
            <Time>2020-02-09T09:19:43.000Z</Time>
            <Position>
              <LatitudeDegrees>38.91835534013807773590087890625</LatitudeDegrees>
              <LongitudeDegrees>-2.80543782748281955718994140625</LongitudeDegrees>
            </Position>
            <AltitudeMeters>871.79998779296875</AltitudeMeters>
            <DistanceMeters>9295.2977133032</DistanceMeters>
          </Trackpoint>
          <Trackpoint>
            <Time>2020-02-09T09:19:53.000Z</Time>
            <Position>
              <LatitudeDegrees>38.9182628877460956573486328125</LatitudeDegrees>
              <LongitudeDegrees>-2.8050144575536251068115234375</LongitudeDegrees>
            </Position>
            <AltitudeMeters>874</AltitudeMeters>
            <DistanceMeters>9333.3772310966</DistanceMeters>
          </Trackpoint>
          <Trackpoint>
            <Time>2020-02-09T09:20:03.000Z</Time>
            <Position>
              <LatitudeDegrees>38.9180841855704784393310546875</LatitudeDegrees>
              <LongitudeDegrees>-2.80462277121841907501220703125</LongitudeDegrees>
            </Position>
            <AltitudeMeters>876.20001220703125</AltitudeMeters>
            <DistanceMeters>9372.6978570909</DistanceMeters>
          </Trackpoint>
          <Trackpoint>
            <Time>2020-02-09T09:20:13.000Z</Time>
            <Position>
              <LatitudeDegrees>38.9179517515003681182861328125</LatitudeDegrees>
              <LongitudeDegrees>-2.80419009737670421600341796875</LongitudeDegrees>
            </Position>
            <AltitudeMeters>876.5999755859375</AltitudeMeters>
            <DistanceMeters>9412.9616078351</DistanceMeters>
          </Trackpoint>
          <Trackpoint>
            <Time>2020-02-09T09:20:23.000Z</Time>
            <Position>
              <LatitudeDegrees>38.917882852256298065185546875</LatitudeDegrees>
              <LongitudeDegrees>-2.80372959561645984649658203125</LongitudeDegrees>
            </Position>
            <AltitudeMeters>877</AltitudeMeters>
            <DistanceMeters>9453.5708269916</DistanceMeters>
          </Trackpoint>
          <Trackpoint>
            <Time>2020-02-09T09:20:33.000Z</Time>
            <Position>
              <LatitudeDegrees>38.9177750609815120697021484375</LatitudeDegrees>
              <LongitudeDegrees>-2.803275883197784423828125</LongitudeDegrees>
            </Position>
            <AltitudeMeters>877.4000244140625</AltitudeMeters>
            <DistanceMeters>9494.652382429</DistanceMeters>
          </Trackpoint>
          <Trackpoint>
            <Time>2020-02-09T09:20:43.000Z</Time>
            <Position>
              <LatitudeDegrees>38.91760717146098613739013671875</LatitudeDegrees>
              <LongitudeDegrees>-2.8028475679457187652587890625</LongitudeDegrees>
            </Position>
            <AltitudeMeters>878.4000244140625</AltitudeMeters>
            <DistanceMeters>9536.1850361202</DistanceMeters>
          </Trackpoint>
          <Trackpoint>
            <Time>2020-02-09T09:20:54.000Z</Time>
            <Position>
              <LatitudeDegrees>38.91747205518186092376708984375</LatitudeDegrees>
              <LongitudeDegrees>-2.80235228128731250762939453125</LongitudeDegrees>
            </Position>
            <AltitudeMeters>879.20001220703125</AltitudeMeters>
            <DistanceMeters>9581.6362251926</DistanceMeters>
          </Trackpoint>
          <Trackpoint>
            <Time>2020-02-09T09:21:04.000Z</Time>
            <Position>
              <LatitudeDegrees>38.91753190197050571441650390625</LatitudeDegrees>
              <LongitudeDegrees>-2.80188775621354579925537109375</LongitudeDegrees>
            </Position>
            <AltitudeMeters>879</AltitudeMeters>
            <DistanceMeters>9622.4113235345</DistanceMeters>
          </Trackpoint>
          <Trackpoint>
            <Time>2020-02-09T09:21:14.000Z</Time>
            <Position>
              <LatitudeDegrees>38.91765779815614223480224609375</LatitudeDegrees>
              <LongitudeDegrees>-2.80145265161991119384765625</LongitudeDegrees>
            </Position>
            <AltitudeMeters>879.5999755859375</AltitudeMeters>
            <DistanceMeters>9662.6117795129</DistanceMeters>
          </Trackpoint>
          <Trackpoint>
            <Time>2020-02-09T09:21:24.000Z</Time>
            <Position>
              <LatitudeDegrees>38.91782660968601703643798828125</LatitudeDegrees>
              <LongitudeDegrees>-2.80104503966867923736572265625</LongitudeDegrees>
            </Position>
            <AltitudeMeters>881.79998779296875</AltitudeMeters>
            <DistanceMeters>9702.599513213</DistanceMeters>
          </Trackpoint>
          <Trackpoint>
            <Time>2020-02-09T09:21:34.000Z</Time>
            <Position>
              <LatitudeDegrees>38.9180218242108821868896484375</LatitudeDegrees>
              <LongitudeDegrees>-2.80063985846936702728271484375</LongitudeDegrees>
            </Position>
            <AltitudeMeters>884.5999755859375</AltitudeMeters>
            <DistanceMeters>9743.8699992637</DistanceMeters>
          </Trackpoint>
          <Trackpoint>
            <Time>2020-02-09T09:21:44.000Z</Time>
            <Position>
              <LatitudeDegrees>38.91826850362122058868408203125</LatitudeDegrees>
              <LongitudeDegrees>-2.80028161592781543731689453125</LongitudeDegrees>
            </Position>
            <AltitudeMeters>887.5999755859375</AltitudeMeters>
            <DistanceMeters>9785.2975054497</DistanceMeters>
          </Trackpoint>
          <Trackpoint>
            <Time>2020-02-09T09:21:54.000Z</Time>
            <Position>
              <LatitudeDegrees>38.91853907145559787750244140625</LatitudeDegrees>
              <LongitudeDegrees>-2.7999796159565448760986328125</LongitudeDegrees>
            </Position>
            <AltitudeMeters>890.4000244140625</AltitudeMeters>
            <DistanceMeters>9825.18292418</DistanceMeters>
          </Trackpoint>
          <Trackpoint>
            <Time>2020-02-09T09:22:04.000Z</Time>
            <Position>
              <LatitudeDegrees>38.91879471950232982635498046875</LatitudeDegrees>
              <LongitudeDegrees>-2.7997107245028018951416015625</LongitudeDegrees>
            </Position>
            <AltitudeMeters>891.79998779296875</AltitudeMeters>
            <DistanceMeters>9861.9502814956</DistanceMeters>
          </Trackpoint>
          <Trackpoint>
            <Time>2020-02-09T09:22:14.000Z</Time>
            <Position>
              <LatitudeDegrees>38.919003345072269439697265625</LatitudeDegrees>
              <LongitudeDegrees>-2.799439318478107452392578125</LongitudeDegrees>
            </Position>
            <AltitudeMeters>893.4000244140625</AltitudeMeters>
            <DistanceMeters>9894.9893906055</DistanceMeters>
          </Trackpoint>
          <Trackpoint>
            <Time>2020-02-09T09:22:24.000Z</Time>
            <Position>
              <LatitudeDegrees>38.919236026704311370849609375</LatitudeDegrees>
              <LongitudeDegrees>-2.79920085333287715911865234375</LongitudeDegrees>
            </Position>
            <AltitudeMeters>894.4000244140625</AltitudeMeters>
            <DistanceMeters>9928.1125736933</DistanceMeters>
          </Trackpoint>
          <Trackpoint>
            <Time>2020-02-09T09:22:34.000Z</Time>
            <Position>
              <LatitudeDegrees>38.91943492926657199859619140625</LatitudeDegrees>
              <LongitudeDegrees>-2.7989231608808040618896484375</LongitudeDegrees>
            </Position>
            <AltitudeMeters>894</AltitudeMeters>
            <DistanceMeters>9960.7984483831</DistanceMeters>
          </Trackpoint>
          <Trackpoint>
            <Time>2020-02-09T09:22:44.000Z</Time>
            <Position>
              <LatitudeDegrees>38.9195791818201541900634765625</LatitudeDegrees>
              <LongitudeDegrees>-2.7987126074731349945068359375</LongitudeDegrees>
            </Position>
            <AltitudeMeters>894.4000244140625</AltitudeMeters>
            <DistanceMeters>9985.0933432518</DistanceMeters>
          </Trackpoint>
          <Trackpoint>
            <Time>2020-02-09T09:22:54.000Z</Time>
            <Position>
              <LatitudeDegrees>38.91974539496004581451416015625</LatitudeDegrees>
              <LongitudeDegrees>-2.7986898086965084075927734375</LongitudeDegrees>
            </Position>
            <AltitudeMeters>894.79998779296875</AltitudeMeters>
            <DistanceMeters>10003.698447936</DistanceMeters>
          </Trackpoint>
          <Trackpoint>
            <Time>2020-02-09T09:23:04.000Z</Time>
            <Position>
              <LatitudeDegrees>38.919897191226482391357421875</LatitudeDegrees>
              <LongitudeDegrees>-2.7987146191298961639404296875</LongitudeDegrees>
            </Position>
            <AltitudeMeters>895.20001220703125</AltitudeMeters>
            <DistanceMeters>10020.729716695</DistanceMeters>
          </Trackpoint>
          <Trackpoint>
            <Time>2020-02-09T09:23:07.000Z</Time>
            <Position>
              <LatitudeDegrees>38.91993901692330837249755859375</LatitudeDegrees>
              <LongitudeDegrees>-2.798747308552265167236328125</LongitudeDegrees>
            </Position>
            <AltitudeMeters>895.5999755859375</AltitudeMeters>
            <DistanceMeters>10026.177822905</DistanceMeters>
          </Trackpoint>
          <Trackpoint>
            <Time>2020-02-09T09:23:14.000Z</Time>
            <Position>
              <LatitudeDegrees>38.9200799167156219482421875</LatitudeDegrees>
              <LongitudeDegrees>-2.79872844927012920379638671875</LongitudeDegrees>
            </Position>
            <AltitudeMeters>896.4000244140625</AltitudeMeters>
            <DistanceMeters>10041.94510024</DistanceMeters>
          </Trackpoint>
          <Trackpoint>
            <Time>2020-02-09T09:23:24.000Z</Time>
            <Position>
              <LatitudeDegrees>38.920303881168365478515625</LatitudeDegrees>
              <LongitudeDegrees>-2.79874437488615512847900390625</LongitudeDegrees>
            </Position>
            <AltitudeMeters>897.5999755859375</AltitudeMeters>
            <DistanceMeters>10066.911097648</DistanceMeters>
          </Trackpoint>
          <Trackpoint>
            <Time>2020-02-09T09:23:34.000Z</Time>
            <Position>
              <LatitudeDegrees>38.92053295858204364776611328125</LatitudeDegrees>
              <LongitudeDegrees>-2.79885551892220973968505859375</LongitudeDegrees>
            </Position>
            <AltitudeMeters>898.79998779296875</AltitudeMeters>
            <DistanceMeters>10094.164056891</DistanceMeters>
          </Trackpoint>
          <Trackpoint>
            <Time>2020-02-09T09:23:44.000Z</Time>
            <Position>
              <LatitudeDegrees>38.920770585536956787109375</LatitudeDegrees>
              <LongitudeDegrees>-2.79897563159465789794921875</LongitudeDegrees>
            </Position>
            <AltitudeMeters>900</AltitudeMeters>
            <DistanceMeters>10122.584194428</DistanceMeters>
          </Trackpoint>
          <Trackpoint>
            <Time>2020-02-09T09:23:54.000Z</Time>
            <Position>
              <LatitudeDegrees>38.9209689013659954071044921875</LatitudeDegrees>
              <LongitudeDegrees>-2.799018882215023040771484375</LongitudeDegrees>
            </Position>
            <AltitudeMeters>901</AltitudeMeters>
            <DistanceMeters>10144.972617402</DistanceMeters>
          </Trackpoint>
          <Trackpoint>
            <Time>2020-02-09T09:24:04.000Z</Time>
            <Position>
              <LatitudeDegrees>38.92115271650254726409912109375</LatitudeDegrees>
              <LongitudeDegrees>-2.79904344119131565093994140625</LongitudeDegrees>
            </Position>
            <AltitudeMeters>901.5999755859375</AltitudeMeters>
            <DistanceMeters>10165.541895505</DistanceMeters>
          </Trackpoint>
          <Trackpoint>
            <Time>2020-02-09T09:24:14.000Z</Time>
            <Position>
              <LatitudeDegrees>38.921326808631420135498046875</LatitudeDegrees>
              <LongitudeDegrees>-2.7990736998617649078369140625</LongitudeDegrees>
            </Position>
            <AltitudeMeters>902.5999755859375</AltitudeMeters>
            <DistanceMeters>10185.094782159</DistanceMeters>
          </Trackpoint>
          <Trackpoint>
            <Time>2020-02-09T09:24:24.000Z</Time>
            <Position>
              <LatitudeDegrees>38.9215053431689739227294921875</LatitudeDegrees>
              <LongitudeDegrees>-2.79906691052019596099853515625</LongitudeDegrees>
            </Position>
            <AltitudeMeters>903.79998779296875</AltitudeMeters>
            <DistanceMeters>10204.974679685</DistanceMeters>
          </Trackpoint>
          <Trackpoint>
            <Time>2020-02-09T09:24:34.000Z</Time>
            <Position>
              <LatitudeDegrees>38.92169435508549213409423828125</LatitudeDegrees>
              <LongitudeDegrees>-2.79912424273788928985595703125</LongitudeDegrees>
            </Position>
            <AltitudeMeters>905.79998779296875</AltitudeMeters>
            <DistanceMeters>10226.589863126</DistanceMeters>
          </Trackpoint>
          <Trackpoint>
            <Time>2020-02-09T09:24:44.000Z</Time>
            <Position>
              <LatitudeDegrees>38.92192871309816837310791015625</LatitudeDegrees>
              <LongitudeDegrees>-2.7990934811532497406005859375</LongitudeDegrees>
            </Position>
            <AltitudeMeters>907.20001220703125</AltitudeMeters>
            <DistanceMeters>10252.810005002</DistanceMeters>
          </Trackpoint>
          <Trackpoint>
            <Time>2020-02-09T09:24:54.000Z</Time>
            <Position>
              <LatitudeDegrees>38.9221631549298763275146484375</LatitudeDegrees>
              <LongitudeDegrees>-2.79911234043538570404052734375</LongitudeDegrees>
            </Position>
            <AltitudeMeters>908.5999755859375</AltitudeMeters>
            <DistanceMeters>10278.954961048</DistanceMeters>
          </Trackpoint>
          <Trackpoint>
            <Time>2020-02-09T09:25:04.000Z</Time>
            <Position>
              <LatitudeDegrees>38.922407738864421844482421875</LatitudeDegrees>
              <LongitudeDegrees>-2.7990867756307125091552734375</LongitudeDegrees>
            </Position>
            <AltitudeMeters>909.5999755859375</AltitudeMeters>
            <DistanceMeters>10306.267496907</DistanceMeters>
          </Trackpoint>
          <Trackpoint>
            <Time>2020-02-09T09:25:14.000Z</Time>
            <Position>
              <LatitudeDegrees>38.92265106551349163055419921875</LatitudeDegrees>
              <LongitudeDegrees>-2.7990535832941532135009765625</LongitudeDegrees>
            </Position>
            <AltitudeMeters>910.5999755859375</AltitudeMeters>
            <DistanceMeters>10333.50222619</DistanceMeters>
          </Trackpoint>
          <Trackpoint>
            <Time>2020-02-09T09:25:24.000Z</Time>
            <Position>
              <LatitudeDegrees>38.92287008464336395263671875</LatitudeDegrees>
              <LongitudeDegrees>-2.798983342945575714111328125</LongitudeDegrees>
            </Position>
            <AltitudeMeters>911.79998779296875</AltitudeMeters>
            <DistanceMeters>10358.626685661</DistanceMeters>
          </Trackpoint>
          <Trackpoint>
            <Time>2020-02-09T09:25:34.000Z</Time>
            <Position>
              <LatitudeDegrees>38.92306781373918056488037109375</LatitudeDegrees>
              <LongitudeDegrees>-2.79884629882872104644775390625</LongitudeDegrees>
            </Position>
            <AltitudeMeters>912.5999755859375</AltitudeMeters>
            <DistanceMeters>10383.630090477</DistanceMeters>
          </Trackpoint>
          <Trackpoint>
            <Time>2020-02-09T09:25:44.000Z</Time>
            <Position>
              <LatitudeDegrees>38.923286832869052886962890625</LatitudeDegrees>
              <LongitudeDegrees>-2.79879215173423290252685546875</LongitudeDegrees>
            </Position>
            <AltitudeMeters>913.79998779296875</AltitudeMeters>
            <DistanceMeters>10408.45408042</DistanceMeters>
          </Trackpoint>
          <Trackpoint>
            <Time>2020-02-09T09:25:54.000Z</Time>
            <Position>
              <LatitudeDegrees>38.92350669018924236297607421875</LatitudeDegrees>
              <LongitudeDegrees>-2.79882702045142650604248046875</LongitudeDegrees>
            </Position>
            <AltitudeMeters>915.20001220703125</AltitudeMeters>
            <DistanceMeters>10433.110171074</DistanceMeters>
          </Trackpoint>
          <Trackpoint>
            <Time>2020-02-09T09:26:04.000Z</Time>
            <Position>
              <LatitudeDegrees>38.92374054528772830963134765625</LatitudeDegrees>
              <LongitudeDegrees>-2.79887781478464603424072265625</LongitudeDegrees>
            </Position>
            <AltitudeMeters>917</AltitudeMeters>
            <DistanceMeters>10459.507935546</DistanceMeters>
          </Trackpoint>
          <Trackpoint>
            <Time>2020-02-09T09:26:14.000Z</Time>
            <Position>
              <LatitudeDegrees>38.9240222610533237457275390625</LatitudeDegrees>
              <LongitudeDegrees>-2.79880665242671966552734375</LongitudeDegrees>
            </Position>
            <AltitudeMeters>918.79998779296875</AltitudeMeters>
            <DistanceMeters>10491.463344079</DistanceMeters>
          </Trackpoint>
          <Trackpoint>
            <Time>2020-02-09T09:26:24.000Z</Time>
            <Position>
              <LatitudeDegrees>38.92428788356482982635498046875</LatitudeDegrees>
              <LongitudeDegrees>-2.7988095022737979888916015625</LongitudeDegrees>
            </Position>
            <AltitudeMeters>920.79998779296875</AltitudeMeters>
            <DistanceMeters>10521.028719094</DistanceMeters>
          </Trackpoint>
          <Trackpoint>
            <Time>2020-02-09T09:26:34.000Z</Time>
            <Position>
              <LatitudeDegrees>38.92456431873142719268798828125</LatitudeDegrees>
              <LongitudeDegrees>-2.7987109310925006866455078125</LongitudeDegrees>
            </Position>
            <AltitudeMeters>922</AltitudeMeters>
            <DistanceMeters>10552.958543564</DistanceMeters>
          </Trackpoint>
          <Trackpoint>
            <Time>2020-02-09T09:26:44.000Z</Time>
            <Position>
              <LatitudeDegrees>38.92484108917415142059326171875</LatitudeDegrees>
              <LongitudeDegrees>-2.7986173890531063079833984375</LongitudeDegrees>
            </Position>
            <AltitudeMeters>923</AltitudeMeters>
            <DistanceMeters>10584.810783812</DistanceMeters>
          </Trackpoint>
          <Trackpoint>
            <Time>2020-02-09T09:26:54.000Z</Time>
            <Position>
              <LatitudeDegrees>38.92512741498649120330810546875</LatitudeDegrees>
              <LongitudeDegrees>-2.798558212816715240478515625</LongitudeDegrees>
            </Position>
            <AltitudeMeters>924.20001220703125</AltitudeMeters>
            <DistanceMeters>10617.088828361</DistanceMeters>
          </Trackpoint>
          <Trackpoint>
            <Time>2020-02-09T09:27:04.000Z</Time>
            <Position>
              <LatitudeDegrees>38.925410471856594085693359375</LatitudeDegrees>
              <LongitudeDegrees>-2.79864848591387271881103515625</LongitudeDegrees>
            </Position>
            <AltitudeMeters>925.20001220703125</AltitudeMeters>
            <DistanceMeters>10649.548763352</DistanceMeters>
          </Trackpoint>
          <Trackpoint>
            <Time>2020-02-09T09:27:14.000Z</Time>
            <Position>
              <LatitudeDegrees>38.92570375464856624603271484375</LatitudeDegrees>
              <LongitudeDegrees>-2.798768095672130584716796875</LongitudeDegrees>
            </Position>
            <AltitudeMeters>926</AltitudeMeters>
            <DistanceMeters>10683.79531542</DistanceMeters>
          </Trackpoint>
          <Trackpoint>
            <Time>2020-02-09T09:27:24.000Z</Time>
            <Position>
              <LatitudeDegrees>38.9259256236255168914794921875</LatitudeDegrees>
              <LongitudeDegrees>-2.79903623275458812713623046875</LongitudeDegrees>
            </Position>
            <AltitudeMeters>926.5999755859375</AltitudeMeters>
            <DistanceMeters>10717.690160245</DistanceMeters>
          </Trackpoint>
          <Trackpoint>
            <Time>2020-02-09T09:27:34.000Z</Time>
            <Position>
              <LatitudeDegrees>38.926054202020168304443359375</LatitudeDegrees>
              <LongitudeDegrees>-2.79939950443804264068603515625</LongitudeDegrees>
            </Position>
            <AltitudeMeters>927.4000244140625</AltitudeMeters>
            <DistanceMeters>10752.247758681</DistanceMeters>
          </Trackpoint>
          <Trackpoint>
            <Time>2020-02-09T09:27:44.000Z</Time>
            <Position>
              <LatitudeDegrees>38.9263437129557132720947265625</LatitudeDegrees>
              <LongitudeDegrees>-2.799682728946208953857421875</LongitudeDegrees>
            </Position>
            <AltitudeMeters>926.79998779296875</AltitudeMeters>
            <DistanceMeters>10792.741628851</DistanceMeters>
          </Trackpoint>
          <Trackpoint>
            <Time>2020-02-09T09:27:54.000Z</Time>
            <Position>
              <LatitudeDegrees>38.92654278315603733062744140625</LatitudeDegrees>
              <LongitudeDegrees>-2.80004591681063175201416015625</LongitudeDegrees>
            </Position>
            <AltitudeMeters>926.79998779296875</AltitudeMeters>
            <DistanceMeters>10831.210902927</DistanceMeters>
          </Trackpoint>
          <Trackpoint>
            <Time>2020-02-09T09:27:58.000Z</Time>
            <Position>
              <LatitudeDegrees>38.9265882968902587890625</LatitudeDegrees>
              <LongitudeDegrees>-2.8001908399164676666259765625</LongitudeDegrees>
            </Position>
            <AltitudeMeters>926.5999755859375</AltitudeMeters>
            <DistanceMeters>10844.743454434</DistanceMeters>
          </Trackpoint>
          <Trackpoint>
            <Time>2020-02-09T09:28:04.000Z</Time>
            <Position>
              <LatitudeDegrees>38.9264774881303310394287109375</LatitudeDegrees>
              <LongitudeDegrees>-2.80043684877455234527587890625</LongitudeDegrees>
            </Position>
            <AltitudeMeters>927</AltitudeMeters>
            <DistanceMeters>10869.357758181</DistanceMeters>
          </Trackpoint>
          <Trackpoint>
            <Time>2020-02-09T09:28:14.000Z</Time>
            <Position>
              <LatitudeDegrees>38.9264446310698986053466796875</LatitudeDegrees>
              <LongitudeDegrees>-2.8008659183979034423828125</LongitudeDegrees>
            </Position>
            <AltitudeMeters>926.4000244140625</AltitudeMeters>
            <DistanceMeters>10906.689471883</DistanceMeters>
          </Trackpoint>
          <Trackpoint>
            <Time>2020-02-09T09:28:24.000Z</Time>
            <Position>
              <LatitudeDegrees>38.92635771073400974273681640625</LatitudeDegrees>
              <LongitudeDegrees>-2.80128476209938526153564453125</LongitudeDegrees>
            </Position>
            <AltitudeMeters>926</AltitudeMeters>
            <DistanceMeters>10944.224302331</DistanceMeters>
          </Trackpoint>
          <Trackpoint>
            <Time>2020-02-09T09:28:34.000Z</Time>
            <Position>
              <LatitudeDegrees>38.92636575736105442047119140625</LatitudeDegrees>
              <LongitudeDegrees>-2.80172497965395450592041015625</LongitudeDegrees>
            </Position>
            <AltitudeMeters>925.5999755859375</AltitudeMeters>
            <DistanceMeters>10982.352402293</DistanceMeters>
          </Trackpoint>
          <Trackpoint>
            <Time>2020-02-09T09:28:36.000Z</Time>
            <Position>
              <LatitudeDegrees>38.92639576457440853118896484375</LatitudeDegrees>
              <LongitudeDegrees>-2.80179840512573719024658203125</LongitudeDegrees>
            </Position>
            <AltitudeMeters>925.20001220703125</AltitudeMeters>
            <DistanceMeters>10989.534309884</DistanceMeters>
          </Trackpoint>
          <Trackpoint>
            <Time>2020-02-09T09:28:44.000Z</Time>
            <Position>
              <LatitudeDegrees>38.926621489226818084716796875</LatitudeDegrees>
              <LongitudeDegrees>-2.80213066376745700836181640625</LongitudeDegrees>
            </Position>
            <AltitudeMeters>923.5999755859375</AltitudeMeters>
            <DistanceMeters>11027.729611822</DistanceMeters>
          </Trackpoint>
          <Trackpoint>
            <Time>2020-02-09T09:28:46.000Z</Time>
            <Position>
              <LatitudeDegrees>38.92669583670794963836669921875</LatitudeDegrees>
              <LongitudeDegrees>-2.80221800319850444793701171875</LongitudeDegrees>
            </Position>
            <AltitudeMeters>923.20001220703125</AltitudeMeters>
            <DistanceMeters>11038.93954241</DistanceMeters>
          </Trackpoint>
          <Trackpoint>
            <Time>2020-02-09T09:28:50.000Z</Time>
            <Position>
              <LatitudeDegrees>38.92685945145785808563232421875</LatitudeDegrees>
              <LongitudeDegrees>-2.8022980503737926483154296875</LongitudeDegrees>
            </Position>
            <AltitudeMeters>922.4000244140625</AltitudeMeters>
            <DistanceMeters>11058.424422035</DistanceMeters>
          </Trackpoint>
          <Trackpoint>
            <Time>2020-02-09T09:28:52.000Z</Time>
            <Position>
              <LatitudeDegrees>38.92691846005618572235107421875</LatitudeDegrees>
              <LongitudeDegrees>-2.8022554703056812286376953125</LongitudeDegrees>
            </Position>
            <AltitudeMeters>922.20001220703125</AltitudeMeters>
            <DistanceMeters>11065.956150935</DistanceMeters>
          </Trackpoint>
          <Trackpoint>
            <Time>2020-02-09T09:28:54.000Z</Time>
            <Position>
              <LatitudeDegrees>38.92695249058306217193603515625</LatitudeDegrees>
              <LongitudeDegrees>-2.8021625988185405731201171875</LongitudeDegrees>
            </Position>
            <AltitudeMeters>922</AltitudeMeters>
            <DistanceMeters>11074.845086129</DistanceMeters>
          </Trackpoint>
          <Trackpoint>
            <Time>2020-02-09T09:28:56.000Z</Time>
            <Position>
              <LatitudeDegrees>38.9269850961863994598388671875</LatitudeDegrees>
              <LongitudeDegrees>-2.802055813372135162353515625</LongitudeDegrees>
            </Position>
            <AltitudeMeters>921.79998779296875</AltitudeMeters>
            <DistanceMeters>11084.777991808</DistanceMeters>
          </Trackpoint>
          <Trackpoint>
            <Time>2020-02-09T09:29:00.000Z</Time>
            <Position>
              <LatitudeDegrees>38.927095234394073486328125</LatitudeDegrees>
              <LongitudeDegrees>-2.80185523442924022674560546875</LongitudeDegrees>
            </Position>
            <AltitudeMeters>921</AltitudeMeters>
            <DistanceMeters>11106.036170838</DistanceMeters>
          </Trackpoint>
          <Trackpoint>
            <Time>2020-02-09T09:29:04.000Z</Time>
            <Position>
              <LatitudeDegrees>38.9272065460681915283203125</LatitudeDegrees>
              <LongitudeDegrees>-2.80161400325596332550048828125</LongitudeDegrees>
            </Position>
            <AltitudeMeters>920.20001220703125</AltitudeMeters>
            <DistanceMeters>11130.321771774</DistanceMeters>
          </Trackpoint>
          <Trackpoint>
            <Time>2020-02-09T09:29:05.000Z</Time>
            <Position>
              <LatitudeDegrees>38.9272707514464855194091796875</LatitudeDegrees>
              <LongitudeDegrees>-2.80149632133543491363525390625</LongitudeDegrees>
            </Position>
            <AltitudeMeters>919.79998779296875</AltitudeMeters>
            <DistanceMeters>11142.767369439</DistanceMeters>
          </Trackpoint>
          <Trackpoint>
            <Time>2020-02-09T09:29:07.000Z</Time>
            <Position>
              <LatitudeDegrees>38.92731249332427978515625</LatitudeDegrees>
              <LongitudeDegrees>-2.80145675875246524810791015625</LongitudeDegrees>
            </Position>
            <AltitudeMeters>919.4000244140625</AltitudeMeters>
            <DistanceMeters>11148.539020157</DistanceMeters>
          </Trackpoint>
          <Trackpoint>
            <Time>2020-02-09T09:29:09.000Z</Time>
            <Position>
              <LatitudeDegrees>38.927412070333957672119140625</LatitudeDegrees>
              <LongitudeDegrees>-2.80139305628836154937744140625</LongitudeDegrees>
            </Position>
            <AltitudeMeters>918.5999755859375</AltitudeMeters>
            <DistanceMeters>11160.918780147</DistanceMeters>
          </Trackpoint>
          <Trackpoint>
            <Time>2020-02-09T09:29:11.000Z</Time>
            <Position>
              <LatitudeDegrees>38.9274962246417999267578125</LatitudeDegrees>
              <LongitudeDegrees>-2.80132063664495944976806640625</LongitudeDegrees>
            </Position>
            <AltitudeMeters>917.79998779296875</AltitudeMeters>
            <DistanceMeters>11172.190166285</DistanceMeters>
          </Trackpoint>
          <Trackpoint>
            <Time>2020-02-09T09:29:13.000Z</Time>
            <Position>
              <LatitudeDegrees>38.9276013337075710296630859375</LatitudeDegrees>
              <LongitudeDegrees>-2.801290713250637054443359375</LongitudeDegrees>
            </Position>
            <AltitudeMeters>916.79998779296875</AltitudeMeters>
            <DistanceMeters>11184.172579042</DistanceMeters>
          </Trackpoint>
          <Trackpoint>
            <Time>2020-02-09T09:29:14.000Z</Time>
            <Position>
              <LatitudeDegrees>38.927664868533611297607421875</LatitudeDegrees>
              <LongitudeDegrees>-2.80128962360322475433349609375</LongitudeDegrees>
            </Position>
            <AltitudeMeters>916.20001220703125</AltitudeMeters>
            <DistanceMeters>11191.245529169</DistanceMeters>
          </Trackpoint>
          <Trackpoint>
            <Time>2020-02-09T09:29:16.000Z</Time>
            <Position>
              <LatitudeDegrees>38.92779017798602581024169921875</LatitudeDegrees>
              <LongitudeDegrees>-2.8012838400900363922119140625</LongitudeDegrees>
            </Position>
            <AltitudeMeters>915.4000244140625</AltitudeMeters>
            <DistanceMeters>11205.201844904</DistanceMeters>
          </Trackpoint>
          <Trackpoint>
            <Time>2020-02-09T09:29:18.000Z</Time>
            <Position>
              <LatitudeDegrees>38.92792244441807270050048828125</LatitudeDegrees>
              <LongitudeDegrees>-2.80123916454613208770751953125</LongitudeDegrees>
            </Position>
            <AltitudeMeters>915.20001220703125</AltitudeMeters>
            <DistanceMeters>11220.42333305</DistanceMeters>
          </Trackpoint>
          <Trackpoint>
            <Time>2020-02-09T09:29:20.000Z</Time>
            <Position>
              <LatitudeDegrees>38.92800156958401203155517578125</LatitudeDegrees>
              <LongitudeDegrees>-2.80128794722259044647216796875</LongitudeDegrees>
            </Position>
            <AltitudeMeters>914.79998779296875</AltitudeMeters>
            <DistanceMeters>11230.191228817</DistanceMeters>
          </Trackpoint>
          <Trackpoint>
            <Time>2020-02-09T09:29:22.000Z</Time>
            <Position>
              <LatitudeDegrees>38.928017579019069671630859375</LatitudeDegrees>
              <LongitudeDegrees>-2.80143094249069690704345703125</LongitudeDegrees>
            </Position>
            <AltitudeMeters>914.5999755859375</AltitudeMeters>
            <DistanceMeters>11242.700152217</DistanceMeters>
          </Trackpoint>
          <Trackpoint>
            <Time>2020-02-09T09:29:24.000Z</Time>
            <Position>
              <LatitudeDegrees>38.92806611023843288421630859375</LatitudeDegrees>
              <LongitudeDegrees>-2.801575362682342529296875</LongitudeDegrees>
            </Position>
            <AltitudeMeters>912.79998779296875</AltitudeMeters>
            <DistanceMeters>11256.321826518</DistanceMeters>
          </Trackpoint>
          <Trackpoint>
            <Time>2020-02-09T09:29:32.000Z</Time>
            <Position>
              <LatitudeDegrees>38.92838336527347564697265625</LatitudeDegrees>
              <LongitudeDegrees>-2.80196000821888446807861328125</LongitudeDegrees>
            </Position>
            <AltitudeMeters>907.79998779296875</AltitudeMeters>
            <DistanceMeters>11304.861412687</DistanceMeters>
          </Trackpoint>
          <Trackpoint>
            <Time>2020-02-09T09:29:34.000Z</Time>
            <Position>
              <LatitudeDegrees>38.92843860201537609100341796875</LatitudeDegrees>
              <LongitudeDegrees>-2.8020248003304004669189453125</LongitudeDegrees>
            </Position>
            <AltitudeMeters>906.79998779296875</AltitudeMeters>
            <DistanceMeters>11313.18371323</DistanceMeters>
          </Trackpoint>
          <Trackpoint>
            <Time>2020-02-09T09:29:44.000Z</Time>
            <Position>
              <LatitudeDegrees>38.928635157644748687744140625</LatitudeDegrees>
              <LongitudeDegrees>-2.80218682251870632171630859375</LongitudeDegrees>
            </Position>
            <AltitudeMeters>903.4000244140625</AltitudeMeters>
            <DistanceMeters>11339.172260085</DistanceMeters>
          </Trackpoint>
          <Trackpoint>
            <Time>2020-02-09T09:29:54.000Z</Time>
            <Position>
              <LatitudeDegrees>38.92885635606944561004638671875</LatitudeDegrees>
              <LongitudeDegrees>-2.8022940270602703094482421875</LongitudeDegrees>
            </Position>
            <AltitudeMeters>899.79998779296875</AltitudeMeters>
            <DistanceMeters>11365.483851459</DistanceMeters>
          </Trackpoint>
          <Trackpoint>
            <Time>2020-02-09T09:30:04.000Z</Time>
            <Position>
              <LatitudeDegrees>38.9291962422430515289306640625</LatitudeDegrees>
              <LongitudeDegrees>-2.80232026241719722747802734375</LongitudeDegrees>
            </Position>
            <AltitudeMeters>894.4000244140625</AltitudeMeters>
            <DistanceMeters>11403.381882393</DistanceMeters>
          </Trackpoint>
          <Trackpoint>
            <Time>2020-02-09T09:30:09.000Z</Time>
            <Position>
              <LatitudeDegrees>38.929482400417327880859375</LatitudeDegrees>
              <LongitudeDegrees>-2.80227064155042171478271484375</LongitudeDegrees>
            </Position>
            <AltitudeMeters>888.79998779296875</AltitudeMeters>
            <DistanceMeters>11435.52030494</DistanceMeters>
          </Trackpoint>
          <Trackpoint>
            <Time>2020-02-09T09:30:14.000Z</Time>
            <Position>
              <LatitudeDegrees>38.92968817614018917083740234375</LatitudeDegrees>
              <LongitudeDegrees>-2.80214424245059490203857421875</LongitudeDegrees>
            </Position>
            <AltitudeMeters>882.4000244140625</AltitudeMeters>
            <DistanceMeters>11460.904001963</DistanceMeters>
          </Trackpoint>
          <Trackpoint>
            <Time>2020-02-09T09:30:19.000Z</Time>
            <Position>
              <LatitudeDegrees>38.92969488166272640228271484375</LatitudeDegrees>
              <LongitudeDegrees>-2.8021354414522647857666015625</LongitudeDegrees>
            </Position>
            <AltitudeMeters>882.20001220703125</AltitudeMeters>
            <DistanceMeters>11461.970674187</DistanceMeters>
          </Trackpoint>
          <Trackpoint>
            <Time>2020-02-09T09:31:52.000Z</Time>
            <Position>
              <LatitudeDegrees>38.929688595235347747802734375</LatitudeDegrees>
              <LongitudeDegrees>-2.80207157135009765625</LongitudeDegrees>
            </Position>
            <AltitudeMeters>882.79998779296875</AltitudeMeters>
            <DistanceMeters>11467.544134778</DistanceMeters>
          </Trackpoint>
          <Trackpoint>
            <Time>2020-02-09T09:31:55.000Z</Time>
            <Position>
              <LatitudeDegrees>38.929685913026332855224609375</LatitudeDegrees>
              <LongitudeDegrees>-2.80198867432773113250732421875</LongitudeDegrees>
            </Position>
            <AltitudeMeters>883.20001220703125</AltitudeMeters>
            <DistanceMeters>11474.727928127</DistanceMeters>
          </Trackpoint>
          <Trackpoint>
            <Time>2020-02-09T09:32:05.000Z</Time>
            <Position>
              <LatitudeDegrees>38.92974249087274074554443359375</LatitudeDegrees>
              <LongitudeDegrees>-2.8017575852572917938232421875</LongitudeDegrees>
            </Position>
            <AltitudeMeters>882.4000244140625</AltitudeMeters>
            <DistanceMeters>11495.703878039</DistanceMeters>
          </Trackpoint>
          <Trackpoint>
            <Time>2020-02-09T09:32:15.000Z</Time>
            <Position>
              <LatitudeDegrees>38.92985564656555652618408203125</LatitudeDegrees>
              <LongitudeDegrees>-2.801459692418575286865234375</LongitudeDegrees>
            </Position>
            <AltitudeMeters>882.20001220703125</AltitudeMeters>
            <DistanceMeters>11524.406979866</DistanceMeters>
          </Trackpoint>
          <Trackpoint>
            <Time>2020-02-09T09:32:25.000Z</Time>
            <Position>
              <LatitudeDegrees>38.92995857633650302886962890625</LatitudeDegrees>
              <LongitudeDegrees>-2.80119390226900577545166015625</LongitudeDegrees>
            </Position>
            <AltitudeMeters>882.20001220703125</AltitudeMeters>
            <DistanceMeters>11550.113945544</DistanceMeters>
          </Trackpoint>
          <Trackpoint>
            <Time>2020-02-09T09:32:34.000Z</Time>
            <Position>
              <LatitudeDegrees>38.93006117083132266998291015625</LatitudeDegrees>
              <LongitudeDegrees>-2.80102693475782871246337890625</LongitudeDegrees>
            </Position>
            <AltitudeMeters>881</AltitudeMeters>
            <DistanceMeters>11568.536388191</DistanceMeters>
          </Trackpoint>
          <Trackpoint>
            <Time>2020-02-09T09:32:35.000Z</Time>
            <Position>
              <LatitudeDegrees>38.9300632663071155548095703125</LatitudeDegrees>
              <LongitudeDegrees>-2.80101033858954906463623046875</LongitudeDegrees>
            </Position>
            <AltitudeMeters>881.20001220703125</AltitudeMeters>
            <DistanceMeters>11569.990017403</DistanceMeters>
          </Trackpoint>
          <Trackpoint>
            <Time>2020-02-09T09:32:38.000Z</Time>
            <Position>
              <LatitudeDegrees>38.93007491715252399444580078125</LatitudeDegrees>
              <LongitudeDegrees>-2.80099332332611083984375</LongitudeDegrees>
            </Position>
            <AltitudeMeters>881</AltitudeMeters>
            <DistanceMeters>11571.951346689</DistanceMeters>
          </Trackpoint>
          <Trackpoint>
            <Time>2020-02-09T09:32:48.000Z</Time>
            <Position>
              <LatitudeDegrees>38.930125124752521514892578125</LatitudeDegrees>
              <LongitudeDegrees>-2.8008976019918918609619140625</LongitudeDegrees>
            </Position>
            <AltitudeMeters>880.79998779296875</AltitudeMeters>
            <DistanceMeters>11581.947687316</DistanceMeters>
          </Trackpoint>
          <Trackpoint>
            <Time>2020-02-09T09:32:55.000Z</Time>
            <Position>
              <LatitudeDegrees>38.930223025381565093994140625</LatitudeDegrees>
              <LongitudeDegrees>-2.80079341493546962738037109375</LongitudeDegrees>
            </Position>
            <AltitudeMeters>880</AltitudeMeters>
            <DistanceMeters>11596.094225908</DistanceMeters>
          </Trackpoint>
          <Trackpoint>
            <Time>2020-02-09T09:33:05.000Z</Time>
            <Position>
              <LatitudeDegrees>38.93036744557321071624755859375</LatitudeDegrees>
              <LongitudeDegrees>-2.80062812380492687225341796875</LongitudeDegrees>
            </Position>
            <AltitudeMeters>880.4000244140625</AltitudeMeters>
            <DistanceMeters>11617.616046024</DistanceMeters>
          </Trackpoint>
          <Trackpoint>
            <Time>2020-02-09T09:33:11.000Z</Time>
            <Position>
              <LatitudeDegrees>38.9304032362997531890869140625</LatitudeDegrees>
              <LongitudeDegrees>-2.80058722011744976043701171875</LongitudeDegrees>
            </Position>
            <AltitudeMeters>880.5999755859375</AltitudeMeters>
            <DistanceMeters>11622.946019804</DistanceMeters>
          </Trackpoint>
          <Trackpoint>
            <Time>2020-02-09T09:33:50.000Z</Time>
            <Position>
              <LatitudeDegrees>38.93046618439257144927978515625</LatitudeDegrees>
              <LongitudeDegrees>-2.80050172470510005950927734375</LongitudeDegrees>
            </Position>
            <AltitudeMeters>881.20001220703125</AltitudeMeters>
            <DistanceMeters>11633.138271735</DistanceMeters>
          </Trackpoint>
          <Trackpoint>
            <Time>2020-02-09T09:33:55.000Z</Time>
            <Position>
              <LatitudeDegrees>38.93053441308438777923583984375</LatitudeDegrees>
              <LongitudeDegrees>-2.8003735654056072235107421875</LongitudeDegrees>
            </Position>
            <AltitudeMeters>882.79998779296875</AltitudeMeters>
            <DistanceMeters>11646.584467872</DistanceMeters>
          </Trackpoint>
          <Trackpoint>
            <Time>2020-02-09T09:34:05.000Z</Time>
            <Position>
              <LatitudeDegrees>38.93071780912578105926513671875</LatitudeDegrees>
              <LongitudeDegrees>-2.800121605396270751953125</LongitudeDegrees>
            </Position>
            <AltitudeMeters>884.79998779296875</AltitudeMeters>
            <DistanceMeters>11676.460359089</DistanceMeters>
          </Trackpoint>
          <Trackpoint>
            <Time>2020-02-09T09:34:15.000Z</Time>
            <Position>
              <LatitudeDegrees>38.93103531561791896820068359375</LatitudeDegrees>
              <LongitudeDegrees>-2.80000962316989898681640625</LongitudeDegrees>
            </Position>
            <AltitudeMeters>879.20001220703125</AltitudeMeters>
            <DistanceMeters>11713.105203308</DistanceMeters>
          </Trackpoint>
          <Trackpoint>
            <Time>2020-02-09T09:34:25.000Z</Time>
            <Position>
              <LatitudeDegrees>38.93139674328267574310302734375</LatitudeDegrees>
              <LongitudeDegrees>-2.80009545385837554931640625</LongitudeDegrees>
            </Position>
            <AltitudeMeters>872.4000244140625</AltitudeMeters>
            <DistanceMeters>11754.013293299</DistanceMeters>
          </Trackpoint>
          <Trackpoint>
            <Time>2020-02-09T09:34:35.000Z</Time>
            <Position>
              <LatitudeDegrees>38.93171064555644989013671875</LatitudeDegrees>
              <LongitudeDegrees>-2.80007776804268360137939453125</LongitudeDegrees>
            </Position>
            <AltitudeMeters>868.79998779296875</AltitudeMeters>
            <DistanceMeters>11788.984931714</DistanceMeters>
          </Trackpoint>
          <Trackpoint>
            <Time>2020-02-09T09:34:45.000Z</Time>
            <Position>
              <LatitudeDegrees>38.932100571691989898681640625</LatitudeDegrees>
              <LongitudeDegrees>-2.8000009059906005859375</LongitudeDegrees>
            </Position>
            <AltitudeMeters>866</AltitudeMeters>
            <DistanceMeters>11832.891798602</DistanceMeters>
          </Trackpoint>
          <Trackpoint>
            <Time>2020-02-09T09:34:46.000Z</Time>
            <Position>
              <LatitudeDegrees>38.93212110735476016998291015625</LatitudeDegrees>
              <LongitudeDegrees>-2.799977101385593414306640625</LongitudeDegrees>
            </Position>
            <AltitudeMeters>865.79998779296875</AltitudeMeters>
            <DistanceMeters>11835.968082092</DistanceMeters>
          </Trackpoint>
          <Trackpoint>
            <Time>2020-02-09T09:34:55.000Z</Time>
            <Position>
              <LatitudeDegrees>38.9321801997721195220947265625</LatitudeDegrees>
              <LongitudeDegrees>-2.79970259405672550201416015625</LongitudeDegrees>
            </Position>
            <AltitudeMeters>867.5999755859375</AltitudeMeters>
            <DistanceMeters>11860.62856725</DistanceMeters>
          </Trackpoint>
          <Trackpoint>
            <Time>2020-02-09T09:35:05.000Z</Time>
            <Position>
              <LatitudeDegrees>38.93218497745692729949951171875</LatitudeDegrees>
              <LongitudeDegrees>-2.7993603609502315521240234375</LongitudeDegrees>
            </Position>
            <AltitudeMeters>875.4000244140625</AltitudeMeters>
            <DistanceMeters>11890.264107314</DistanceMeters>
          </Trackpoint>
          <Trackpoint>
            <Time>2020-02-09T09:35:15.000Z</Time>
            <Position>
              <LatitudeDegrees>38.93212663941085338592529296875</LatitudeDegrees>
              <LongitudeDegrees>-2.7991042099893093109130859375</LongitudeDegrees>
            </Position>
            <AltitudeMeters>880.5999755859375</AltitudeMeters>
            <DistanceMeters>11913.3726036</DistanceMeters>
          </Trackpoint>
          <Trackpoint>
            <Time>2020-02-09T09:35:24.000Z</Time>
            <Position>
              <LatitudeDegrees>38.93209495581686496734619140625</LatitudeDegrees>
              <LongitudeDegrees>-2.79887915588915348052978515625</LongitudeDegrees>
            </Position>
            <AltitudeMeters>883</AltitudeMeters>
            <DistanceMeters>11933.174447187</DistanceMeters>
          </Trackpoint>
          <Trackpoint>
            <Time>2020-02-09T09:35:35.000Z</Time>
            <Position>
              <LatitudeDegrees>38.93204952590167522430419921875</LatitudeDegrees>
              <LongitudeDegrees>-2.79861445538699626922607421875</LongitudeDegrees>
            </Position>
            <AltitudeMeters>886.20001220703125</AltitudeMeters>
            <DistanceMeters>11956.6435448</DistanceMeters>
          </Trackpoint>
          <Trackpoint>
            <Time>2020-02-09T09:35:46.000Z</Time>
            <Position>
              <LatitudeDegrees>38.93206528387963771820068359375</LatitudeDegrees>
              <LongitudeDegrees>-2.79837406240403652191162109375</LongitudeDegrees>
            </Position>
            <AltitudeMeters>887.4000244140625</AltitudeMeters>
            <DistanceMeters>11977.5308403</DistanceMeters>
          </Trackpoint>
          <Trackpoint>
            <Time>2020-02-09T09:35:57.000Z</Time>
            <Position>
              <LatitudeDegrees>38.932079784572124481201171875</LatitudeDegrees>
              <LongitudeDegrees>-2.79812729917466640472412109375</LongitudeDegrees>
            </Position>
            <AltitudeMeters>887.4000244140625</AltitudeMeters>
            <DistanceMeters>11998.956783133</DistanceMeters>
          </Trackpoint>
          <Trackpoint>
            <Time>2020-02-09T09:36:08.000Z</Time>
            <Position>
              <LatitudeDegrees>38.9320695586502552032470703125</LatitudeDegrees>
              <LongitudeDegrees>-2.79786896891891956329345703125</LongitudeDegrees>
            </Position>
            <AltitudeMeters>885.4000244140625</AltitudeMeters>
            <DistanceMeters>12021.352061784</DistanceMeters>
          </Trackpoint>
          <Trackpoint>
            <Time>2020-02-09T09:36:18.000Z</Time>
            <Position>
              <LatitudeDegrees>38.932076431810855865478515625</LatitudeDegrees>
              <LongitudeDegrees>-2.79758448712527751922607421875</LongitudeDegrees>
            </Position>
            <AltitudeMeters>882.79998779296875</AltitudeMeters>
            <DistanceMeters>12045.994597787</DistanceMeters>
          </Trackpoint>
          <Trackpoint>
            <Time>2020-02-09T09:36:27.000Z</Time>
            <Position>
              <LatitudeDegrees>38.93204030580818653106689453125</LatitudeDegrees>
              <LongitudeDegrees>-2.79734753072261810302734375</LongitudeDegrees>
            </Position>
            <AltitudeMeters>883</AltitudeMeters>
            <DistanceMeters>12066.900906884</DistanceMeters>
          </Trackpoint>
          <Trackpoint>
            <Time>2020-02-09T09:36:38.000Z</Time>
            <Position>
              <LatitudeDegrees>38.93208355642855167388916015625</LatitudeDegrees>
              <LongitudeDegrees>-2.797052823007106781005859375</LongitudeDegrees>
            </Position>
            <AltitudeMeters>879.5999755859375</AltitudeMeters>
            <DistanceMeters>12092.867032659</DistanceMeters>
          </Trackpoint>
          <Trackpoint>
            <Time>2020-02-09T09:36:46.000Z</Time>
            <Position>
              <LatitudeDegrees>38.93211624585092067718505859375</LatitudeDegrees>
              <LongitudeDegrees>-2.796844951808452606201171875</LongitudeDegrees>
            </Position>
            <AltitudeMeters>877.4000244140625</AltitudeMeters>
            <DistanceMeters>12111.228593979</DistanceMeters>
          </Trackpoint>
          <Trackpoint>
            <Time>2020-02-09T09:36:48.000Z</Time>
            <Position>
              <LatitudeDegrees>38.93213921226561069488525390625</LatitudeDegrees>
              <LongitudeDegrees>-2.79682307504117488861083984375</LongitudeDegrees>
            </Position>
            <AltitudeMeters>877.20001220703125</AltitudeMeters>
            <DistanceMeters>12114.41021553</DistanceMeters>
          </Trackpoint>
          <Trackpoint>
            <Time>2020-02-09T09:36:59.000Z</Time>
            <Position>
              <LatitudeDegrees>38.93229478038847446441650390625</LatitudeDegrees>
              <LongitudeDegrees>-2.79692399315536022186279296875</LongitudeDegrees>
            </Position>
            <AltitudeMeters>879</AltitudeMeters>
            <DistanceMeters>12133.804979369</DistanceMeters>
          </Trackpoint>
          <Trackpoint>
            <Time>2020-02-09T09:37:09.000Z</Time>
            <Position>
              <LatitudeDegrees>38.93246275372803211212158203125</LatitudeDegrees>
              <LongitudeDegrees>-2.7972256578505039215087890625</LongitudeDegrees>
            </Position>
            <AltitudeMeters>879</AltitudeMeters>
            <DistanceMeters>12165.924852247</DistanceMeters>
          </Trackpoint>
          <Trackpoint>
            <Time>2020-02-09T09:37:19.000Z</Time>
            <Position>
              <LatitudeDegrees>38.932807333767414093017578125</LatitudeDegrees>
              <LongitudeDegrees>-2.79760225676000118255615234375</LongitudeDegrees>
            </Position>
            <AltitudeMeters>873.5999755859375</AltitudeMeters>
            <DistanceMeters>12216.264261978</DistanceMeters>
          </Trackpoint>
          <Trackpoint>
            <Time>2020-02-09T09:37:29.000Z</Time>
            <Position>
              <LatitudeDegrees>38.933124504983425140380859375</LatitudeDegrees>
              <LongitudeDegrees>-2.79798857867717742919921875</LongitudeDegrees>
            </Position>
            <AltitudeMeters>875.4000244140625</AltitudeMeters>
            <DistanceMeters>12264.895105694</DistanceMeters>
          </Trackpoint>
          <Trackpoint>
            <Time>2020-02-09T09:37:35.000Z</Time>
            <Position>
              <LatitudeDegrees>38.93326775170862674713134765625</LatitudeDegrees>
              <LongitudeDegrees>-2.79824095778167247772216796875</LongitudeDegrees>
            </Position>
            <AltitudeMeters>873</AltitudeMeters>
            <DistanceMeters>12291.944356032</DistanceMeters>
          </Trackpoint>
          <Trackpoint>
            <Time>2020-02-09T09:37:39.000Z</Time>
            <Position>
              <LatitudeDegrees>38.93337621353566646575927734375</LatitudeDegrees>
              <LongitudeDegrees>-2.79836408793926239013671875</LongitudeDegrees>
            </Position>
            <AltitudeMeters>872</AltitudeMeters>
            <DistanceMeters>12308.049632055</DistanceMeters>
          </Trackpoint>
          <Trackpoint>
            <Time>2020-02-09T09:37:49.000Z</Time>
            <Position>
              <LatitudeDegrees>38.93366455100476741790771484375</LatitudeDegrees>
              <LongitudeDegrees>-2.7984492480754852294921875</LongitudeDegrees>
            </Position>
            <AltitudeMeters>873</AltitudeMeters>
            <DistanceMeters>12340.978273981</DistanceMeters>
          </Trackpoint>
          <Trackpoint>
            <Time>2020-02-09T09:37:59.000Z</Time>
            <Position>
              <LatitudeDegrees>38.9338813908398151397705078125</LatitudeDegrees>
              <LongitudeDegrees>-2.79845134355127811431884765625</LongitudeDegrees>
            </Position>
            <AltitudeMeters>874.20001220703125</AltitudeMeters>
            <DistanceMeters>12365.113562901</DistanceMeters>
          </Trackpoint>
          <Trackpoint>
            <Time>2020-02-09T09:38:09.000Z</Time>
            <Position>
              <LatitudeDegrees>38.93406721763312816619873046875</LatitudeDegrees>
              <LongitudeDegrees>-2.79834170825779438018798828125</LongitudeDegrees>
            </Position>
            <AltitudeMeters>876.79998779296875</AltitudeMeters>
            <DistanceMeters>12387.870427449</DistanceMeters>
          </Trackpoint>
          <Trackpoint>
            <Time>2020-02-09T09:38:19.000Z</Time>
            <Position>
              <LatitudeDegrees>38.93423770554363727569580078125</LatitudeDegrees>
              <LongitudeDegrees>-2.7982237748801708221435546875</LongitudeDegrees>
            </Position>
            <AltitudeMeters>880.20001220703125</AltitudeMeters>
            <DistanceMeters>12409.418664749</DistanceMeters>
          </Trackpoint>
          <Trackpoint>
            <Time>2020-02-09T09:38:29.000Z</Time>
            <Position>
              <LatitudeDegrees>38.934373073279857635498046875</LatitudeDegrees>
              <LongitudeDegrees>-2.798058651387691497802734375</LongitudeDegrees>
            </Position>
            <AltitudeMeters>884.4000244140625</AltitudeMeters>
            <DistanceMeters>12430.188470041</DistanceMeters>
          </Trackpoint>
          <Trackpoint>
            <Time>2020-02-09T09:38:39.000Z</Time>
            <Position>
              <LatitudeDegrees>38.9345103688538074493408203125</LatitudeDegrees>
              <LongitudeDegrees>-2.7979092858731746673583984375</LongitudeDegrees>
            </Position>
            <AltitudeMeters>887.20001220703125</AltitudeMeters>
            <DistanceMeters>12450.207330963</DistanceMeters>
          </Trackpoint>
          <Trackpoint>
            <Time>2020-02-09T09:38:48.000Z</Time>
            <Position>
              <LatitudeDegrees>38.93463098444044589996337890625</LatitudeDegrees>
              <LongitudeDegrees>-2.79780996032059192657470703125</LongitudeDegrees>
            </Position>
            <AltitudeMeters>888.79998779296875</AltitudeMeters>
            <DistanceMeters>12466.150027148</DistanceMeters>
          </Trackpoint>
          <Trackpoint>
            <Time>2020-02-09T09:38:59.000Z</Time>
            <Position>
              <LatitudeDegrees>38.93479057587683200836181640625</LatitudeDegrees>
              <LongitudeDegrees>-2.79770401306450366973876953125</LongitudeDegrees>
            </Position>
            <AltitudeMeters>890.4000244140625</AltitudeMeters>
            <DistanceMeters>12486.141353349</DistanceMeters>
          </Trackpoint>
          <Trackpoint>
            <Time>2020-02-09T09:39:09.000Z</Time>
            <Position>
              <LatitudeDegrees>38.93495251424610614776611328125</LatitudeDegrees>
              <LongitudeDegrees>-2.79761600308120250701904296875</LongitudeDegrees>
            </Position>
            <AltitudeMeters>891.5999755859375</AltitudeMeters>
            <DistanceMeters>12505.709474402</DistanceMeters>
          </Trackpoint>
          <Trackpoint>
            <Time>2020-02-09T09:39:19.000Z</Time>
            <Position>
              <LatitudeDegrees>38.93510405905544757843017578125</LatitudeDegrees>
              <LongitudeDegrees>-2.7975381352007389068603515625</LongitudeDegrees>
            </Position>
            <AltitudeMeters>892.79998779296875</AltitudeMeters>
            <DistanceMeters>12523.874247818</DistanceMeters>
          </Trackpoint>
          <Trackpoint>
            <Time>2020-02-09T09:39:29.000Z</Time>
            <Position>
              <LatitudeDegrees>38.93523448146879673004150390625</LatitudeDegrees>
              <LongitudeDegrees>-2.79742875136435031890869140625</LongitudeDegrees>
            </Position>
            <AltitudeMeters>894.5999755859375</AltitudeMeters>
            <DistanceMeters>12541.206141049</DistanceMeters>
          </Trackpoint>
          <Trackpoint>
            <Time>2020-02-09T09:39:30.000Z</Time>
            <Position>
              <LatitudeDegrees>38.93525007180869579315185546875</LatitudeDegrees>
              <LongitudeDegrees>-2.797420956194400787353515625</LongitudeDegrees>
            </Position>
            <AltitudeMeters>894.79998779296875</AltitudeMeters>
            <DistanceMeters>12543.068276746</DistanceMeters>
          </Trackpoint>
          <Trackpoint>
            <Time>2020-02-09T09:39:39.000Z</Time>
            <Position>
              <LatitudeDegrees>38.935313858091831207275390625</LatitudeDegrees>
              <LongitudeDegrees>-2.79735616408288478851318359375</LongitudeDegrees>
            </Position>
            <AltitudeMeters>895.79998779296875</AltitudeMeters>
            <DistanceMeters>12552.117295102</DistanceMeters>
          </Trackpoint>
          <Trackpoint>
            <Time>2020-02-09T09:39:40.000Z</Time>
            <Position>
              <LatitudeDegrees>38.9353187195956707000732421875</LatitudeDegrees>
              <LongitudeDegrees>-2.79735599644482135772705078125</LongitudeDegrees>
            </Position>
            <AltitudeMeters>895.5999755859375</AltitudeMeters>
            <DistanceMeters>12552.654847375</DistanceMeters>
          </Trackpoint>
          <Trackpoint>
            <Time>2020-02-09T09:39:50.000Z</Time>
            <Position>
              <LatitudeDegrees>38.93542357720434665679931640625</LatitudeDegrees>
              <LongitudeDegrees>-2.79733822681009769439697265625</LongitudeDegrees>
            </Position>
            <AltitudeMeters>895.4000244140625</AltitudeMeters>
            <DistanceMeters>12564.426659177</DistanceMeters>
          </Trackpoint>
          <Trackpoint>
            <Time>2020-02-09T09:39:59.000Z</Time>
            <Position>
              <LatitudeDegrees>38.93553690053522586822509765625</LatitudeDegrees>
              <LongitudeDegrees>-2.79732816852629184722900390625</LongitudeDegrees>
            </Position>
            <AltitudeMeters>896</AltitudeMeters>
            <DistanceMeters>12577.069855498</DistanceMeters>
          </Trackpoint>
          <Trackpoint>
            <Time>2020-02-09T09:40:09.000Z</Time>
            <Position>
              <LatitudeDegrees>38.9356876909732818603515625</LatitudeDegrees>
              <LongitudeDegrees>-2.797282151877880096435546875</LongitudeDegrees>
            </Position>
            <AltitudeMeters>897.5999755859375</AltitudeMeters>
            <DistanceMeters>12594.319756338</DistanceMeters>
          </Trackpoint>
          <Trackpoint>
            <Time>2020-02-09T09:40:19.000Z</Time>
            <Position>
              <LatitudeDegrees>38.93585055135190486907958984375</LatitudeDegrees>
              <LongitudeDegrees>-2.79724284075200557708740234375</LongitudeDegrees>
            </Position>
            <AltitudeMeters>899.4000244140625</AltitudeMeters>
            <DistanceMeters>12612.763264129</DistanceMeters>
          </Trackpoint>
          <Trackpoint>
            <Time>2020-02-09T09:40:29.000Z</Time>
            <Position>
              <LatitudeDegrees>38.936010561883449554443359375</LatitudeDegrees>
              <LongitudeDegrees>-2.79715382494032382965087890625</LongitudeDegrees>
            </Position>
            <AltitudeMeters>901.4000244140625</AltitudeMeters>
            <DistanceMeters>12632.168733664</DistanceMeters>
          </Trackpoint>
          <Trackpoint>
            <Time>2020-02-09T09:40:39.000Z</Time>
            <Position>
              <LatitudeDegrees>38.93612983636558055877685546875</LatitudeDegrees>
              <LongitudeDegrees>-2.7969845943152904510498046875</LongitudeDegrees>
            </Position>
            <AltitudeMeters>903</AltitudeMeters>
            <DistanceMeters>12651.94022853</DistanceMeters>
          </Trackpoint>
          <Trackpoint>
            <Time>2020-02-09T09:40:49.000Z</Time>
            <Position>
              <LatitudeDegrees>38.9362581633031368255615234375</LatitudeDegrees>
              <LongitudeDegrees>-2.7967951633036136627197265625</LongitudeDegrees>
            </Position>
            <AltitudeMeters>904.20001220703125</AltitudeMeters>
            <DistanceMeters>12673.688063225</DistanceMeters>
          </Trackpoint>
          <Trackpoint>
            <Time>2020-02-09T09:40:59.000Z</Time>
            <Position>
              <LatitudeDegrees>38.936339803040027618408203125</LatitudeDegrees>
              <LongitudeDegrees>-2.79654420912265777587890625</LongitudeDegrees>
            </Position>
            <AltitudeMeters>904.5999755859375</AltitudeMeters>
            <DistanceMeters>12697.238397938</DistanceMeters>
          </Trackpoint>
          <Trackpoint>
            <Time>2020-02-09T09:41:09.000Z</Time>
            <Position>
              <LatitudeDegrees>38.93647265620529651641845703125</LatitudeDegrees>
              <LongitudeDegrees>-2.79630951583385467529296875</LongitudeDegrees>
            </Position>
            <AltitudeMeters>904.5999755859375</AltitudeMeters>
            <DistanceMeters>12722.367888699</DistanceMeters>
          </Trackpoint>
          <Trackpoint>
            <Time>2020-02-09T09:41:19.000Z</Time>
            <Position>
              <LatitudeDegrees>38.93665974028408527374267578125</LatitudeDegrees>
              <LongitudeDegrees>-2.79611279256641864776611328125</LongitudeDegrees>
            </Position>
            <AltitudeMeters>904.4000244140625</AltitudeMeters>
            <DistanceMeters>12749.268674302</DistanceMeters>
          </Trackpoint>
          <Trackpoint>
            <Time>2020-02-09T09:41:29.000Z</Time>
            <Position>
              <LatitudeDegrees>38.936869539320468902587890625</LatitudeDegrees>
              <LongitudeDegrees>-2.7959107048809528350830078125</LongitudeDegrees>
            </Position>
            <AltitudeMeters>904.20001220703125</AltitudeMeters>
            <DistanceMeters>12778.446982465</DistanceMeters>
          </Trackpoint>
          <Trackpoint>
            <Time>2020-02-09T09:41:39.000Z</Time>
            <Position>
              <LatitudeDegrees>38.9370765723288059234619140625</LatitudeDegrees>
              <LongitudeDegrees>-2.7957216091454029083251953125</LongitudeDegrees>
            </Position>
            <AltitudeMeters>905.4000244140625</AltitudeMeters>
            <DistanceMeters>12806.713556788</DistanceMeters>
          </Trackpoint>
          <Trackpoint>
            <Time>2020-02-09T09:41:49.000Z</Time>
            <Position>
              <LatitudeDegrees>38.93729793839156627655029296875</LatitudeDegrees>
              <LongitudeDegrees>-2.795589677989482879638671875</LongitudeDegrees>
            </Position>
            <AltitudeMeters>906.79998779296875</AltitudeMeters>
            <DistanceMeters>12833.870755344</DistanceMeters>
          </Trackpoint>
          <Trackpoint>
            <Time>2020-02-09T09:41:59.000Z</Time>
            <Position>
              <LatitudeDegrees>38.937528692185878753662109375</LatitudeDegrees>
              <LongitudeDegrees>-2.79549839906394481658935546875</LongitudeDegrees>
            </Position>
            <AltitudeMeters>908</AltitudeMeters>
            <DistanceMeters>12860.74232085</DistanceMeters>
          </Trackpoint>
          <Trackpoint>
            <Time>2020-02-09T09:42:09.000Z</Time>
            <Position>
              <LatitudeDegrees>38.93776782788336277008056640625</LatitudeDegrees>
              <LongitudeDegrees>-2.7954429946839809417724609375</LongitudeDegrees>
            </Position>
            <AltitudeMeters>909.20001220703125</AltitudeMeters>
            <DistanceMeters>12887.787397887</DistanceMeters>
          </Trackpoint>
          <Trackpoint>
            <Time>2020-02-09T09:42:19.000Z</Time>
            <Position>
              <LatitudeDegrees>38.9379407465457916259765625</LatitudeDegrees>
              <LongitudeDegrees>-2.79527485370635986328125</LongitudeDegrees>
            </Position>
            <AltitudeMeters>910</AltitudeMeters>
            <DistanceMeters>12911.918570871</DistanceMeters>
          </Trackpoint>
          <Trackpoint>
            <Time>2020-02-09T09:42:30.000Z</Time>
            <Position>
              <LatitudeDegrees>38.93812640570104122161865234375</LatitudeDegrees>
              <LongitudeDegrees>-2.79506773687899112701416015625</LongitudeDegrees>
            </Position>
            <AltitudeMeters>911</AltitudeMeters>
            <DistanceMeters>12939.277684464</DistanceMeters>
          </Trackpoint>
          <Trackpoint>
            <Time>2020-02-09T09:42:40.000Z</Time>
            <Position>
              <LatitudeDegrees>38.9382792077958583831787109375</LatitudeDegrees>
              <LongitudeDegrees>-2.794907055795192718505859375</LongitudeDegrees>
            </Position>
            <AltitudeMeters>911.5999755859375</AltitudeMeters>
            <DistanceMeters>12961.249208915</DistanceMeters>
          </Trackpoint>
          <Trackpoint>
            <Time>2020-02-09T09:42:50.000Z</Time>
            <Position>
              <LatitudeDegrees>38.9384200237691402435302734375</LatitudeDegrees>
              <LongitudeDegrees>-2.794701866805553436279296875</LongitudeDegrees>
            </Position>
            <AltitudeMeters>912.5999755859375</AltitudeMeters>
            <DistanceMeters>12984.938894241</DistanceMeters>
          </Trackpoint>
          <Trackpoint>
            <Time>2020-02-09T09:43:00.000Z</Time>
            <Position>
              <LatitudeDegrees>38.93855740316212177276611328125</LatitudeDegrees>
              <LongitudeDegrees>-2.79449743218719959259033203125</LongitudeDegrees>
            </Position>
            <AltitudeMeters>913.5999755859375</AltitudeMeters>
            <DistanceMeters>13008.327437821</DistanceMeters>
          </Trackpoint>
          <Trackpoint>
            <Time>2020-02-09T09:43:10.000Z</Time>
            <Position>
              <LatitudeDegrees>38.93868899904191493988037109375</LatitudeDegrees>
              <LongitudeDegrees>-2.79431604780256748199462890625</LongitudeDegrees>
            </Position>
            <AltitudeMeters>914.5999755859375</AltitudeMeters>
            <DistanceMeters>13029.800952288</DistanceMeters>
          </Trackpoint>
          <Trackpoint>
            <Time>2020-02-09T09:43:20.000Z</Time>
            <Position>
              <LatitudeDegrees>38.93879896961152553558349609375</LatitudeDegrees>
              <LongitudeDegrees>-2.79415679164230823516845703125</LongitudeDegrees>
            </Position>
            <AltitudeMeters>915</AltitudeMeters>
            <DistanceMeters>13048.237604302</DistanceMeters>
          </Trackpoint>
          <Trackpoint>
            <Time>2020-02-09T09:43:22.000Z</Time>
            <Position>
              <LatitudeDegrees>38.93880114890635013580322265625</LatitudeDegrees>
              <LongitudeDegrees>-2.7941515110433101654052734375</LongitudeDegrees>
            </Position>
            <AltitudeMeters>915</AltitudeMeters>
            <DistanceMeters>13048.758087052</DistanceMeters>
          </Trackpoint>
          <Trackpoint>
            <Time>2020-02-09T09:43:40.000Z</Time>
            <Position>
              <LatitudeDegrees>38.93888848833739757537841796875</LatitudeDegrees>
              <LongitudeDegrees>-2.79406056739389896392822265625</LongitudeDegrees>
            </Position>
            <AltitudeMeters>915</AltitudeMeters>
            <DistanceMeters>13061.267371392</DistanceMeters>
          </Trackpoint>
          <Trackpoint>
            <Time>2020-02-09T09:43:50.000Z</Time>
            <Position>
              <LatitudeDegrees>38.9390248619019985198974609375</LatitudeDegrees>
              <LongitudeDegrees>-2.7938789315521717071533203125</LongitudeDegrees>
            </Position>
            <AltitudeMeters>915</AltitudeMeters>
            <DistanceMeters>13083.122689363</DistanceMeters>
          </Trackpoint>
          <Trackpoint>
            <Time>2020-02-09T09:44:00.000Z</Time>
            <Position>
              <LatitudeDegrees>38.93918286077678203582763671875</LatitudeDegrees>
              <LongitudeDegrees>-2.7937411330640316009521484375</LongitudeDegrees>
            </Position>
            <AltitudeMeters>915</AltitudeMeters>
            <DistanceMeters>13104.372583543</DistanceMeters>
          </Trackpoint>
          <Trackpoint>
            <Time>2020-02-09T09:44:10.000Z</Time>
            <Position>
              <LatitudeDegrees>38.9393242634832859039306640625</LatitudeDegrees>
              <LongitudeDegrees>-2.7936083637177944183349609375</LongitudeDegrees>
            </Position>
            <AltitudeMeters>915</AltitudeMeters>
            <DistanceMeters>13123.861633683</DistanceMeters>
          </Trackpoint>
          <Trackpoint>
            <Time>2020-02-09T09:44:19.000Z</Time>
            <Position>
              <LatitudeDegrees>38.939455188810825347900390625</LatitudeDegrees>
              <LongitudeDegrees>-2.79349981807172298431396484375</LongitudeDegrees>
            </Position>
            <AltitudeMeters>915.4000244140625</AltitudeMeters>
            <DistanceMeters>13141.201079903</DistanceMeters>
          </Trackpoint>
          <Trackpoint>
            <Time>2020-02-09T09:44:20.000Z</Time>
            <Position>
              <LatitudeDegrees>38.93947320990264415740966796875</LatitudeDegrees>
              <LongitudeDegrees>-2.793501913547515869140625</LongitudeDegrees>
            </Position>
            <AltitudeMeters>915.4000244140625</AltitudeMeters>
            <DistanceMeters>13143.216900927</DistanceMeters>
          </Trackpoint>
          <Trackpoint>
            <Time>2020-02-09T09:44:30.000Z</Time>
            <Position>
              <LatitudeDegrees>38.9396394230425357818603515625</LatitudeDegrees>
              <LongitudeDegrees>-2.7935423143208026885986328125</LongitudeDegrees>
            </Position>
            <AltitudeMeters>916.5999755859375</AltitudeMeters>
            <DistanceMeters>13162.044184871</DistanceMeters>
          </Trackpoint>
          <Trackpoint>
            <Time>2020-02-09T09:44:39.000Z</Time>
            <Position>
              <LatitudeDegrees>38.939734809100627899169921875</LatitudeDegrees>
              <LongitudeDegrees>-2.79348657466471195220947265625</LongitudeDegrees>
            </Position>
            <AltitudeMeters>917.4000244140625</AltitudeMeters>
            <DistanceMeters>13173.705786444</DistanceMeters>
          </Trackpoint>
          <Trackpoint>
            <Time>2020-02-09T09:44:40.000Z</Time>
            <Position>
              <LatitudeDegrees>38.93974025733768939971923828125</LatitudeDegrees>
              <LongitudeDegrees>-2.7934849821031093597412109375</LongitudeDegrees>
            </Position>
            <AltitudeMeters>917.4000244140625</AltitudeMeters>
            <DistanceMeters>13174.321629939</DistanceMeters>
          </Trackpoint>
          <Trackpoint>
            <Time>2020-02-09T09:44:41.000Z</Time>
            <Position>
              <LatitudeDegrees>38.93974143080413341522216796875</LatitudeDegrees>
              <LongitudeDegrees>-2.7934843115508556365966796875</LongitudeDegrees>
            </Position>
            <AltitudeMeters>917.4000244140625</AltitudeMeters>
            <DistanceMeters>13174.511683368</DistanceMeters>
          </Trackpoint>
          <Trackpoint>
            <Time>2020-02-09T09:47:45.000Z</Time>
            <Position>
              <LatitudeDegrees>38.939669430255889892578125</LatitudeDegrees>
              <LongitudeDegrees>-2.793510295450687408447265625</LongitudeDegrees>
            </Position>
            <AltitudeMeters>916.79998779296875</AltitudeMeters>
            <DistanceMeters>13182.835068886</DistanceMeters>
          </Trackpoint>
          <Trackpoint>
            <Time>2020-02-09T09:47:51.000Z</Time>
            <Position>
              <LatitudeDegrees>38.93961017020046710968017578125</LatitudeDegrees>
              <LongitudeDegrees>-2.79354223050177097320556640625</LongitudeDegrees>
            </Position>
            <AltitudeMeters>916.4000244140625</AltitudeMeters>
            <DistanceMeters>13189.986736732</DistanceMeters>
          </Trackpoint>
          <Trackpoint>
            <Time>2020-02-09T09:47:52.000Z</Time>
            <Position>
              <LatitudeDegrees>38.9396089129149913787841796875</LatitudeDegrees>
              <LongitudeDegrees>-2.7935419790446758270263671875</LongitudeDegrees>
            </Position>
            <AltitudeMeters>916.4000244140625</AltitudeMeters>
            <DistanceMeters>13190.151327829</DistanceMeters>
          </Trackpoint>
          <Trackpoint>
            <Time>2020-02-09T09:48:08.000Z</Time>
            <Position>
              <LatitudeDegrees>38.939530961215496063232421875</LatitudeDegrees>
              <LongitudeDegrees>-2.79354491271078586578369140625</LongitudeDegrees>
            </Position>
            <AltitudeMeters>915.79998779296875</AltitudeMeters>
            <DistanceMeters>13198.831590374</DistanceMeters>
          </Trackpoint>
          <Trackpoint>
            <Time>2020-02-09T09:48:11.000Z</Time>
            <Position>
              <LatitudeDegrees>38.93947136588394641876220703125</LatitudeDegrees>
              <LongitudeDegrees>-2.79355983249843120574951171875</LongitudeDegrees>
            </Position>
            <AltitudeMeters>915.4000244140625</AltitudeMeters>
            <DistanceMeters>13205.589853957</DistanceMeters>
          </Trackpoint>
          <Trackpoint>
            <Time>2020-02-09T09:48:21.000Z</Time>
            <Position>
              <LatitudeDegrees>38.9392069168388843536376953125</LatitudeDegrees>
              <LongitudeDegrees>-2.79382587410509586334228515625</LongitudeDegrees>
            </Position>
            <AltitudeMeters>915</AltitudeMeters>
            <DistanceMeters>13242.9637532</DistanceMeters>
          </Trackpoint>
          <Trackpoint>
            <Time>2020-02-09T09:48:22.000Z</Time>
            <Position>
              <LatitudeDegrees>38.93917682580649852752685546875</LatitudeDegrees>
              <LongitudeDegrees>-2.7938410453498363494873046875</LongitudeDegrees>
            </Position>
            <AltitudeMeters>915</AltitudeMeters>
            <DistanceMeters>13246.560988186</DistanceMeters>
          </Trackpoint>
          <Trackpoint>
            <Time>2020-02-09T09:48:26.000Z</Time>
            <Position>
              <LatitudeDegrees>38.939064927399158477783203125</LatitudeDegrees>
              <LongitudeDegrees>-2.79383274726569652557373046875</LongitudeDegrees>
            </Position>
            <AltitudeMeters>915</AltitudeMeters>
            <DistanceMeters>13259.03593658</DistanceMeters>
          </Trackpoint>
          <Trackpoint>
            <Time>2020-02-09T09:48:29.000Z</Time>
            <Position>
              <LatitudeDegrees>38.9389749057590961456298828125</LatitudeDegrees>
              <LongitudeDegrees>-2.793920002877712249755859375</LongitudeDegrees>
            </Position>
            <AltitudeMeters>915</AltitudeMeters>
            <DistanceMeters>13271.58378153</DistanceMeters>
          </Trackpoint>
          <Trackpoint>
            <Time>2020-02-09T09:48:31.000Z</Time>
            <Position>
              <LatitudeDegrees>38.938914723694324493408203125</LatitudeDegrees>
              <LongitudeDegrees>-2.7940103597939014434814453125</LongitudeDegrees>
            </Position>
            <AltitudeMeters>915</AltitudeMeters>
            <DistanceMeters>13281.882240047</DistanceMeters>
          </Trackpoint>
          <Trackpoint>
            <Time>2020-02-09T09:48:41.000Z</Time>
            <Position>
              <LatitudeDegrees>38.93866938538849353790283203125</LatitudeDegrees>
              <LongitudeDegrees>-2.7943342365324497222900390625</LongitudeDegrees>
            </Position>
            <AltitudeMeters>914.4000244140625</AltitudeMeters>
            <DistanceMeters>13321.020789428</DistanceMeters>
          </Trackpoint>
          <Trackpoint>
            <Time>2020-02-09T09:48:51.000Z</Time>
            <Position>
              <LatitudeDegrees>38.93850007094442844390869140625</LatitudeDegrees>
              <LongitudeDegrees>-2.79470681212842464447021484375</LongitudeDegrees>
            </Position>
            <AltitudeMeters>912.5999755859375</AltitudeMeters>
            <DistanceMeters>13358.37740924</DistanceMeters>
          </Trackpoint>
          <Trackpoint>
            <Time>2020-02-09T09:48:59.000Z</Time>
            <Position>
              <LatitudeDegrees>38.9384396374225616455078125</LatitudeDegrees>
              <LongitudeDegrees>-2.794818878173828125</LongitudeDegrees>
            </Position>
            <AltitudeMeters>912.20001220703125</AltitudeMeters>
            <DistanceMeters>13370.182924893</DistanceMeters>
          </Trackpoint>
          <Trackpoint>
            <Time>2020-02-09T09:49:06.000Z</Time>
            <Position>
              <LatitudeDegrees>38.938408456742763519287109375</LatitudeDegrees>
              <LongitudeDegrees>-2.7949115820229053497314453125</LongitudeDegrees>
            </Position>
            <AltitudeMeters>911.5999755859375</AltitudeMeters>
            <DistanceMeters>13378.926415453</DistanceMeters>
          </Trackpoint>
          <Trackpoint>
            <Time>2020-02-09T09:49:08.000Z</Time>
            <Position>
              <LatitudeDegrees>38.9383752644062042236328125</LatitudeDegrees>
              <LongitudeDegrees>-2.79494536109268665313720703125</LongitudeDegrees>
            </Position>
            <AltitudeMeters>911.4000244140625</AltitudeMeters>
            <DistanceMeters>13383.638629155</DistanceMeters>
          </Trackpoint>
          <Trackpoint>
            <Time>2020-02-09T09:49:10.000Z</Time>
            <Position>
              <LatitudeDegrees>38.93834416754543781280517578125</LatitudeDegrees>
              <LongitudeDegrees>-2.7949350513517856597900390625</LongitudeDegrees>
            </Position>
            <AltitudeMeters>911.5999755859375</AltitudeMeters>
            <DistanceMeters>13387.211936879</DistanceMeters>
          </Trackpoint>
          <Trackpoint>
            <Time>2020-02-09T09:49:11.000Z</Time>
            <Position>
              <LatitudeDegrees>38.93833125941455364227294921875</LatitudeDegrees>
              <LongitudeDegrees>-2.79491920955479145050048828125</LongitudeDegrees>
            </Position>
            <AltitudeMeters>911.5999755859375</AltitudeMeters>
            <DistanceMeters>13389.196152928</DistanceMeters>
          </Trackpoint>
          <Trackpoint>
            <Time>2020-02-09T09:49:13.000Z</Time>
            <Position>
              <LatitudeDegrees>38.938296474516391754150390625</LatitudeDegrees>
              <LongitudeDegrees>-2.7948954887688159942626953125</LongitudeDegrees>
            </Position>
            <AltitudeMeters>911.79998779296875</AltitudeMeters>
            <DistanceMeters>13393.578728951</DistanceMeters>
          </Trackpoint>
          <Trackpoint>
            <Time>2020-02-09T09:49:15.000Z</Time>
            <Position>
              <LatitudeDegrees>38.938262946903705596923828125</LatitudeDegrees>
              <LongitudeDegrees>-2.79492038302123546600341796875</LongitudeDegrees>
            </Position>
            <AltitudeMeters>911.5999755859375</AltitudeMeters>
            <DistanceMeters>13397.887538203</DistanceMeters>
          </Trackpoint>
          <Trackpoint>
            <Time>2020-02-09T09:49:21.000Z</Time>
            <Position>
              <LatitudeDegrees>38.9381001703441143035888671875</LatitudeDegrees>
              <LongitudeDegrees>-2.79510478489100933074951171875</LongitudeDegrees>
            </Position>
            <AltitudeMeters>910.79998779296875</AltitudeMeters>
            <DistanceMeters>13422.034796767</DistanceMeters>
          </Trackpoint>
          <Trackpoint>
            <Time>2020-02-09T09:49:23.000Z</Time>
            <Position>
              <LatitudeDegrees>38.93803085200488567352294921875</LatitudeDegrees>
              <LongitudeDegrees>-2.79518977738916873931884765625</LongitudeDegrees>
            </Position>
            <AltitudeMeters>910.4000244140625</AltitudeMeters>
            <DistanceMeters>13432.696438398</DistanceMeters>
          </Trackpoint>
          <Trackpoint>
            <Time>2020-02-09T09:49:31.000Z</Time>
            <Position>
              <LatitudeDegrees>38.93770311959087848663330078125</LatitudeDegrees>
              <LongitudeDegrees>-2.79547962360084056854248046875</LongitudeDegrees>
            </Position>
            <AltitudeMeters>908.79998779296875</AltitudeMeters>
            <DistanceMeters>13476.971239635</DistanceMeters>
          </Trackpoint>
          <Trackpoint>
            <Time>2020-02-09T09:49:39.000Z</Time>
            <Position>
              <LatitudeDegrees>38.9373987726867198944091796875</LatitudeDegrees>
              <LongitudeDegrees>-2.795540392398834228515625</LongitudeDegrees>
            </Position>
            <AltitudeMeters>907.4000244140625</AltitudeMeters>
            <DistanceMeters>13511.251789342</DistanceMeters>
          </Trackpoint>
          <Trackpoint>
            <Time>2020-02-09T09:49:41.000Z</Time>
            <Position>
              <LatitudeDegrees>38.9373012073338031768798828125</LatitudeDegrees>
              <LongitudeDegrees>-2.7955908514559268951416015625</LongitudeDegrees>
            </Position>
            <AltitudeMeters>906.79998779296875</AltitudeMeters>
            <DistanceMeters>13522.956673785</DistanceMeters>
          </Trackpoint>
          <Trackpoint>
            <Time>2020-02-09T09:49:45.000Z</Time>
            <Position>
              <LatitudeDegrees>38.93708855845034122467041015625</LatitudeDegrees>
              <LongitudeDegrees>-2.79571716673672199249267578125</LongitudeDegrees>
            </Position>
            <AltitudeMeters>905.4000244140625</AltitudeMeters>
            <DistanceMeters>13549.029171261</DistanceMeters>
          </Trackpoint>
          <Trackpoint>
            <Time>2020-02-09T09:49:50.000Z</Time>
            <Position>
              <LatitudeDegrees>38.9368442259728908538818359375</LatitudeDegrees>
              <LongitudeDegrees>-2.7959348447620868682861328125</LongitudeDegrees>
            </Position>
            <AltitudeMeters>904.20001220703125</AltitudeMeters>
            <DistanceMeters>13582.115530039</DistanceMeters>
          </Trackpoint>
          <Trackpoint>
            <Time>2020-02-09T09:49:59.000Z</Time>
            <Position>
              <LatitudeDegrees>38.9364328421652317047119140625</LatitudeDegrees>
              <LongitudeDegrees>-2.7963455580174922943115234375</LongitudeDegrees>
            </Position>
            <AltitudeMeters>904.5999755859375</AltitudeMeters>
            <DistanceMeters>13640.088524022</DistanceMeters>
          </Trackpoint>
          <Trackpoint>
            <Time>2020-02-09T09:50:01.000Z</Time>
            <Position>
              <LatitudeDegrees>38.93635489046573638916015625</LatitudeDegrees>
              <LongitudeDegrees>-2.79645209200680255889892578125</LongitudeDegrees>
            </Position>
            <AltitudeMeters>904.5999755859375</AltitudeMeters>
            <DistanceMeters>13652.750989712</DistanceMeters>
          </Trackpoint>
          <Trackpoint>
            <Time>2020-02-09T09:50:03.000Z</Time>
            <Position>
              <LatitudeDegrees>38.9363071136176586151123046875</LatitudeDegrees>
              <LongitudeDegrees>-2.79658100567758083343505859375</LongitudeDegrees>
            </Position>
            <AltitudeMeters>904.79998779296875</AltitudeMeters>
            <DistanceMeters>13665.113596388</DistanceMeters>
          </Trackpoint>
          <Trackpoint>
            <Time>2020-02-09T09:50:05.000Z</Time>
            <Position>
              <LatitudeDegrees>38.9362782798707485198974609375</LatitudeDegrees>
              <LongitudeDegrees>-2.79670639894902706146240234375</LongitudeDegrees>
            </Position>
            <AltitudeMeters>904.79998779296875</AltitudeMeters>
            <DistanceMeters>13676.433747218</DistanceMeters>
          </Trackpoint>
          <Trackpoint>
            <Time>2020-02-09T09:50:07.000Z</Time>
            <Position>
              <LatitudeDegrees>38.9362310059368610382080078125</LatitudeDegrees>
              <LongitudeDegrees>-2.79681754298508167266845703125</LongitudeDegrees>
            </Position>
            <AltitudeMeters>904</AltitudeMeters>
            <DistanceMeters>13687.4009993</DistanceMeters>
          </Trackpoint>
          <Trackpoint>
            <Time>2020-02-09T09:50:11.000Z</Time>
            <Position>
              <LatitudeDegrees>38.9360922016203403472900390625</LatitudeDegrees>
              <LongitudeDegrees>-2.79702055267989635467529296875</LongitudeDegrees>
            </Position>
            <AltitudeMeters>902.79998779296875</AltitudeMeters>
            <DistanceMeters>13710.801701547</DistanceMeters>
          </Trackpoint>
          <Trackpoint>
            <Time>2020-02-09T09:50:13.000Z</Time>
            <Position>
              <LatitudeDegrees>38.936021290719509124755859375</LatitudeDegrees>
              <LongitudeDegrees>-2.797122895717620849609375</LongitudeDegrees>
            </Position>
            <AltitudeMeters>901.5999755859375</AltitudeMeters>
            <DistanceMeters>13722.667490686</DistanceMeters>
          </Trackpoint>
          <Trackpoint>
            <Time>2020-02-09T09:50:17.000Z</Time>
            <Position>
              <LatitudeDegrees>38.935824148356914520263671875</LatitudeDegrees>
              <LongitudeDegrees>-2.797262370586395263671875</LongitudeDegrees>
            </Position>
            <AltitudeMeters>899</AltitudeMeters>
            <DistanceMeters>13747.712934587</DistanceMeters>
          </Trackpoint>
          <Trackpoint>
            <Time>2020-02-09T09:50:22.000Z</Time>
            <Position>
              <LatitudeDegrees>38.9355643093585968017578125</LatitudeDegrees>
              <LongitudeDegrees>-2.79734753072261810302734375</LongitudeDegrees>
            </Position>
            <AltitudeMeters>896.20001220703125</AltitudeMeters>
            <DistanceMeters>13777.558585204</DistanceMeters>
          </Trackpoint>
          <Trackpoint>
            <Time>2020-02-09T09:50:30.000Z</Time>
            <Position>
              <LatitudeDegrees>38.935372531414031982421875</LatitudeDegrees>
              <LongitudeDegrees>-2.79736856929957866668701171875</LongitudeDegrees>
            </Position>
            <AltitudeMeters>895</AltitudeMeters>
            <DistanceMeters>13798.981366889</DistanceMeters>
          </Trackpoint>
          <Trackpoint>
            <Time>2020-02-09T09:50:47.000Z</Time>
            <Position>
              <LatitudeDegrees>38.935329616069793701171875</LatitudeDegrees>
              <LongitudeDegrees>-2.7974298410117626190185546875</LongitudeDegrees>
            </Position>
            <AltitudeMeters>894</AltitudeMeters>
            <DistanceMeters>13806.119132036</DistanceMeters>
          </Trackpoint>
          <Trackpoint>
            <Time>2020-02-09T09:50:49.000Z</Time>
            <Position>
              <LatitudeDegrees>38.9353049732744693756103515625</LatitudeDegrees>
              <LongitudeDegrees>-2.79747099615633487701416015625</LongitudeDegrees>
            </Position>
            <AltitudeMeters>893.20001220703125</AltitudeMeters>
            <DistanceMeters>13810.614608772</DistanceMeters>
          </Trackpoint>
          <Trackpoint>
            <Time>2020-02-09T09:50:52.000Z</Time>
            <Position>
              <LatitudeDegrees>38.93524051643908023834228515625</LatitudeDegrees>
              <LongitudeDegrees>-2.797518186271190643310546875</LongitudeDegrees>
            </Position>
            <AltitudeMeters>892.5999755859375</AltitudeMeters>
            <DistanceMeters>13818.869909307</DistanceMeters>
          </Trackpoint>
          <Trackpoint>
            <Time>2020-02-09T09:51:01.000Z</Time>
            <Position>
              <LatitudeDegrees>38.9350481517612934112548828125</LatitudeDegrees>
              <LongitudeDegrees>-2.797681130468845367431640625</LongitudeDegrees>
            </Position>
            <AltitudeMeters>890</AltitudeMeters>
            <DistanceMeters>13844.510399074</DistanceMeters>
          </Trackpoint>
          <Trackpoint>
            <Time>2020-02-09T09:51:12.000Z</Time>
            <Position>
              <LatitudeDegrees>38.93486131913959980010986328125</LatitudeDegrees>
              <LongitudeDegrees>-2.79781767167150974273681640625</LongitudeDegrees>
            </Position>
            <AltitudeMeters>887.79998779296875</AltitudeMeters>
            <DistanceMeters>13868.430720221</DistanceMeters>
          </Trackpoint>
          <Trackpoint>
            <Time>2020-02-09T09:51:22.000Z</Time>
            <Position>
              <LatitudeDegrees>38.9348003827035427093505859375</LatitudeDegrees>
              <LongitudeDegrees>-2.79787190258502960205078125</LongitudeDegrees>
            </Position>
            <AltitudeMeters>887</AltitudeMeters>
            <DistanceMeters>13876.678907654</DistanceMeters>
          </Trackpoint>
          <Trackpoint>
            <Time>2020-02-09T09:51:49.000Z</Time>
            <Position>
              <LatitudeDegrees>38.9347752369940280914306640625</LatitudeDegrees>
              <LongitudeDegrees>-2.7979019097983837127685546875</LongitudeDegrees>
            </Position>
            <AltitudeMeters>886.4000244140625</AltitudeMeters>
            <DistanceMeters>13880.495386831</DistanceMeters>
          </Trackpoint>
          <Trackpoint>
            <Time>2020-02-09T09:51:54.000Z</Time>
            <Position>
              <LatitudeDegrees>38.93467926420271396636962890625</LatitudeDegrees>
              <LongitudeDegrees>-2.79801699332892894744873046875</LongitudeDegrees>
            </Position>
            <AltitudeMeters>884.4000244140625</AltitudeMeters>
            <DistanceMeters>13895.102943312</DistanceMeters>
          </Trackpoint>
          <Trackpoint>
            <Time>2020-02-09T09:52:05.000Z</Time>
            <Position>
              <LatitudeDegrees>38.934546746313571929931640625</LatitudeDegrees>
              <LongitudeDegrees>-2.798248417675495147705078125</LongitudeDegrees>
            </Position>
            <AltitudeMeters>880.4000244140625</AltitudeMeters>
            <DistanceMeters>13919.982708387</DistanceMeters>
          </Trackpoint>
          <Trackpoint>
            <Time>2020-02-09T09:52:15.000Z</Time>
            <Position>
              <LatitudeDegrees>38.93443644046783447265625</LatitudeDegrees>
              <LongitudeDegrees>-2.7984383516013622283935546875</LongitudeDegrees>
            </Position>
            <AltitudeMeters>877.79998779296875</AltitudeMeters>
            <DistanceMeters>13940.504298849</DistanceMeters>
          </Trackpoint>
          <Trackpoint>
            <Time>2020-02-09T09:52:25.000Z</Time>
            <Position>
              <LatitudeDegrees>38.9342434890568256378173828125</LatitudeDegrees>
              <LongitudeDegrees>-2.79868100769817829132080078125</LongitudeDegrees>
            </Position>
            <AltitudeMeters>873.79998779296875</AltitudeMeters>
            <DistanceMeters>13970.54717156</DistanceMeters>
          </Trackpoint>
          <Trackpoint>
            <Time>2020-02-09T09:52:35.000Z</Time>
            <Position>
              <LatitudeDegrees>38.93407073803246021270751953125</LatitudeDegrees>
              <LongitudeDegrees>-2.79893715865910053253173828125</LongitudeDegrees>
            </Position>
            <AltitudeMeters>870.20001220703125</AltitudeMeters>
            <DistanceMeters>13999.898891667</DistanceMeters>
          </Trackpoint>
          <Trackpoint>
            <Time>2020-02-09T09:52:40.000Z</Time>
            <Position>
              <LatitudeDegrees>38.93403167836368083953857421875</LatitudeDegrees>
              <LongitudeDegrees>-2.79905182309448719024658203125</LongitudeDegrees>
            </Position>
            <AltitudeMeters>868.5999755859375</AltitudeMeters>
            <DistanceMeters>14010.736104142</DistanceMeters>
          </Trackpoint>
          <Trackpoint>
            <Time>2020-02-09T09:52:45.000Z</Time>
            <Position>
              <LatitudeDegrees>38.9341003261506557464599609375</LatitudeDegrees>
              <LongitudeDegrees>-2.79911586083471775054931640625</LongitudeDegrees>
            </Position>
            <AltitudeMeters>868.20001220703125</AltitudeMeters>
            <DistanceMeters>14020.175849602</DistanceMeters>
          </Trackpoint>
          <Trackpoint>
            <Time>2020-02-09T09:52:47.000Z</Time>
            <Position>
              <LatitudeDegrees>38.934125639498233795166015625</LatitudeDegrees>
              <LongitudeDegrees>-2.79913011007010936737060546875</LongitudeDegrees>
            </Position>
            <AltitudeMeters>868</AltitudeMeters>
            <DistanceMeters>14023.252133092</DistanceMeters>
          </Trackpoint>
          <Trackpoint>
            <Time>2020-02-09T09:52:49.000Z</Time>
            <Position>
              <LatitudeDegrees>38.93412505276501178741455078125</LatitudeDegrees>
              <LongitudeDegrees>-2.799136228859424591064453125</LongitudeDegrees>
            </Position>
            <AltitudeMeters>868</AltitudeMeters>
            <DistanceMeters>14023.789685365</DistanceMeters>
          </Trackpoint>
          <Trackpoint>
            <Time>2020-02-09T09:54:30.000Z</Time>
            <Position>
              <LatitudeDegrees>38.934281207621097564697265625</LatitudeDegrees>
              <LongitudeDegrees>-2.79918425716459751129150390625</LongitudeDegrees>
            </Position>
            <AltitudeMeters>868</AltitudeMeters>
            <DistanceMeters>14041.660266876</DistanceMeters>
          </Trackpoint>
          <Trackpoint>
            <Time>2020-02-09T09:54:35.000Z</Time>
            <Position>
              <LatitudeDegrees>38.93442378379404544830322265625</LatitudeDegrees>
              <LongitudeDegrees>-2.7992832474410533905029296875</LongitudeDegrees>
            </Position>
            <AltitudeMeters>868</AltitudeMeters>
            <DistanceMeters>14059.695576232</DistanceMeters>
          </Trackpoint>
          <Trackpoint>
            <Time>2020-02-09T09:54:45.000Z</Time>
            <Position>
              <LatitudeDegrees>38.93466568551957607269287109375</LatitudeDegrees>
              <LongitudeDegrees>-2.79960326850414276123046875</LongitudeDegrees>
            </Position>
            <AltitudeMeters>871.20001220703125</AltitudeMeters>
            <DistanceMeters>14098.329516433</DistanceMeters>
          </Trackpoint>
          <Trackpoint>
            <Time>2020-02-09T09:54:55.000Z</Time>
            <Position>
              <LatitudeDegrees>38.9348332397639751434326171875</LatitudeDegrees>
              <LongitudeDegrees>-2.7999903447926044464111328125</LongitudeDegrees>
            </Position>
            <AltitudeMeters>870.79998779296875</AltitudeMeters>
            <DistanceMeters>14136.681243532</DistanceMeters>
          </Trackpoint>
          <Trackpoint>
            <Time>2020-02-09T09:55:03.000Z</Time>
            <Position>
              <LatitudeDegrees>38.93484807573258876800537109375</LatitudeDegrees>
              <LongitudeDegrees>-2.80037767253816127777099609375</LongitudeDegrees>
            </Position>
            <AltitudeMeters>869.4000244140625</AltitudeMeters>
            <DistanceMeters>14170.255675808</DistanceMeters>
          </Trackpoint>
          <Trackpoint>
            <Time>2020-02-09T09:55:05.000Z</Time>
            <Position>
              <LatitudeDegrees>38.93482879735529422760009765625</LatitudeDegrees>
              <LongitudeDegrees>-2.80049971304833889007568359375</LongitudeDegrees>
            </Position>
            <AltitudeMeters>868.5999755859375</AltitudeMeters>
            <DistanceMeters>14181.036916182</DistanceMeters>
          </Trackpoint>
          <Trackpoint>
            <Time>2020-02-09T09:55:06.000Z</Time>
            <Position>
              <LatitudeDegrees>38.9347971975803375244140625</LatitudeDegrees>
              <LongitudeDegrees>-2.80061471275985240936279296875</LongitudeDegrees>
            </Position>
            <AltitudeMeters>867.5999755859375</AltitudeMeters>
            <DistanceMeters>14191.596432455</DistanceMeters>
          </Trackpoint>
          <Trackpoint>
            <Time>2020-02-09T09:55:11.000Z</Time>
            <Position>
              <LatitudeDegrees>38.9347192458808422088623046875</LatitudeDegrees>
              <LongitudeDegrees>-2.8008406050503253936767578125</LongitudeDegrees>
            </Position>
            <AltitudeMeters>865.4000244140625</AltitudeMeters>
            <DistanceMeters>14212.991797962</DistanceMeters>
          </Trackpoint>
          <Trackpoint>
            <Time>2020-02-09T09:55:17.000Z</Time>
            <Position>
              <LatitudeDegrees>38.93457683734595775604248046875</LatitudeDegrees>
              <LongitudeDegrees>-2.8010778129100799560546875</LongitudeDegrees>
            </Position>
            <AltitudeMeters>865.20001220703125</AltitudeMeters>
            <DistanceMeters>14238.934265026</DistanceMeters>
          </Trackpoint>
          <Trackpoint>
            <Time>2020-02-09T09:55:18.000Z</Time>
            <Position>
              <LatitudeDegrees>38.9345482550561428070068359375</LatitudeDegrees>
              <LongitudeDegrees>-2.80112206935882568359375</LongitudeDegrees>
            </Position>
            <AltitudeMeters>865.4000244140625</AltitudeMeters>
            <DistanceMeters>14243.913882473</DistanceMeters>
          </Trackpoint>
          <Trackpoint>
            <Time>2020-02-09T09:55:27.000Z</Time>
            <Position>
              <LatitudeDegrees>38.9343987219035625457763671875</LatitudeDegrees>
              <LongitudeDegrees>-2.801475785672664642333984375</LongitudeDegrees>
            </Position>
            <AltitudeMeters>867.4000244140625</AltitudeMeters>
            <DistanceMeters>14278.768354842</DistanceMeters>
          </Trackpoint>
          <Trackpoint>
            <Time>2020-02-09T09:55:34.000Z</Time>
            <Position>
              <LatitudeDegrees>38.93431096337735652923583984375</LatitudeDegrees>
              <LongitudeDegrees>-2.80158407986164093017578125</LongitudeDegrees>
            </Position>
            <AltitudeMeters>868</AltitudeMeters>
            <DistanceMeters>14292.30757756</DistanceMeters>
          </Trackpoint>
          <Trackpoint>
            <Time>2020-02-09T09:55:37.000Z</Time>
            <Position>
              <LatitudeDegrees>38.93425648100674152374267578125</LatitudeDegrees>
              <LongitudeDegrees>-2.80162087641656398773193359375</LongitudeDegrees>
            </Position>
            <AltitudeMeters>867.79998779296875</AltitudeMeters>
            <DistanceMeters>14299.157415311</DistanceMeters>
          </Trackpoint>
          <Trackpoint>
            <Time>2020-02-09T09:55:47.000Z</Time>
            <Position>
              <LatitudeDegrees>38.93404877744615077972412109375</LatitudeDegrees>
              <LongitudeDegrees>-2.801820449531078338623046875</LongitudeDegrees>
            </Position>
            <AltitudeMeters>867.4000244140625</AltitudeMeters>
            <DistanceMeters>14328.018954279</DistanceMeters>
          </Trackpoint>
          <Trackpoint>
            <Time>2020-02-09T09:55:57.000Z</Time>
            <Position>
              <LatitudeDegrees>38.9338347874581813812255859375</LatitudeDegrees>
              <LongitudeDegrees>-2.80207081697881221771240234375</LongitudeDegrees>
            </Position>
            <AltitudeMeters>866.79998779296875</AltitudeMeters>
            <DistanceMeters>14360.223618536</DistanceMeters>
          </Trackpoint>
          <Trackpoint>
            <Time>2020-02-09T09:56:07.000Z</Time>
            <Position>
              <LatitudeDegrees>38.93363454379141330718994140625</LatitudeDegrees>
              <LongitudeDegrees>-2.80225974507629871368408203125</LongitudeDegrees>
            </Position>
            <AltitudeMeters>865.5999755859375</AltitudeMeters>
            <DistanceMeters>14387.869207334</DistanceMeters>
          </Trackpoint>
          <Trackpoint>
            <Time>2020-02-09T09:56:17.000Z</Time>
            <Position>
              <LatitudeDegrees>38.93336883746087551116943359375</LatitudeDegrees>
              <LongitudeDegrees>-2.8024794347584247589111328125</LongitudeDegrees>
            </Position>
            <AltitudeMeters>865.5999755859375</AltitudeMeters>
            <DistanceMeters>14423.031403036</DistanceMeters>
          </Trackpoint>
          <Trackpoint>
            <Time>2020-02-09T09:56:27.000Z</Time>
            <Position>
              <LatitudeDegrees>38.93322399817407131195068359375</LatitudeDegrees>
              <LongitudeDegrees>-2.80271731317043304443359375</LongitudeDegrees>
            </Position>
            <AltitudeMeters>864.4000244140625</AltitudeMeters>
            <DistanceMeters>14449.185682815</DistanceMeters>
          </Trackpoint>
          <Trackpoint>
            <Time>2020-02-09T09:56:29.000Z</Time>
            <Position>
              <LatitudeDegrees>38.933211676776409149169921875</LatitudeDegrees>
              <LongitudeDegrees>-2.80276098288595676422119140625</LongitudeDegrees>
            </Position>
            <AltitudeMeters>864</AltitudeMeters>
            <DistanceMeters>14453.208355681</DistanceMeters>
          </Trackpoint>
          <Trackpoint>
            <Time>2020-02-09T09:56:34.000Z</Time>
            <Position>
              <LatitudeDegrees>38.9332307875156402587890625</LatitudeDegrees>
              <LongitudeDegrees>-2.80283725820481777191162109375</LongitudeDegrees>
            </Position>
            <AltitudeMeters>863.5999755859375</AltitudeMeters>
            <DistanceMeters>14460.145956668</DistanceMeters>
          </Trackpoint>
          <Trackpoint>
            <Time>2020-02-09T09:56:37.000Z</Time>
            <Position>
              <LatitudeDegrees>38.9332514069974422454833984375</LatitudeDegrees>
              <LongitudeDegrees>-2.8028686903417110443115234375</LongitudeDegrees>
            </Position>
            <AltitudeMeters>863.5999755859375</AltitudeMeters>
            <DistanceMeters>14463.704069535</DistanceMeters>
          </Trackpoint>
          <Trackpoint>
            <Time>2020-02-09T09:56:42.000Z</Time>
            <Position>
              <LatitudeDegrees>38.93326842226088047027587890625</LatitudeDegrees>
              <LongitudeDegrees>-2.80290515162050724029541015625</LongitudeDegrees>
            </Position>
            <AltitudeMeters>863.5999755859375</AltitudeMeters>
            <DistanceMeters>14467.384438357</DistanceMeters>
          </Trackpoint>
          <Trackpoint>
            <Time>2020-02-09T09:56:54.000Z</Time>
            <Position>
              <LatitudeDegrees>38.9333058893680572509765625</LatitudeDegrees>
              <LongitudeDegrees>-2.80296139419078826904296875</LongitudeDegrees>
            </Position>
            <AltitudeMeters>864</AltitudeMeters>
            <DistanceMeters>14473.795749297</DistanceMeters>
          </Trackpoint>
          <Trackpoint>
            <Time>2020-02-09T09:56:57.000Z</Time>
            <Position>
              <LatitudeDegrees>38.93336866982281208038330078125</LatitudeDegrees>
              <LongitudeDegrees>-2.803053595125675201416015625</LongitudeDegrees>
            </Position>
            <AltitudeMeters>864.4000244140625</AltitudeMeters>
            <DistanceMeters>14484.404323316</DistanceMeters>
          </Trackpoint>
          <Trackpoint>
            <Time>2020-02-09T09:57:07.000Z</Time>
            <Position>
              <LatitudeDegrees>38.9336235634982585906982421875</LatitudeDegrees>
              <LongitudeDegrees>-2.80350814573466777801513671875</LongitudeDegrees>
            </Position>
            <AltitudeMeters>867</AltitudeMeters>
            <DistanceMeters>14532.918788219</DistanceMeters>
          </Trackpoint>
          <Trackpoint>
            <Time>2020-02-09T09:57:11.000Z</Time>
            <Position>
              <LatitudeDegrees>38.9337043650448322296142578125</LatitudeDegrees>
              <LongitudeDegrees>-2.80375306494534015655517578125</LongitudeDegrees>
            </Position>
            <AltitudeMeters>868.5999755859375</AltitudeMeters>
            <DistanceMeters>14555.951742678</DistanceMeters>
          </Trackpoint>
          <Trackpoint>
            <Time>2020-02-09T09:57:15.000Z</Time>
            <Position>
              <LatitudeDegrees>38.93371970392763614654541015625</LatitudeDegrees>
              <LongitudeDegrees>-2.8039992414414882659912109375</LongitudeDegrees>
            </Position>
            <AltitudeMeters>869</AltitudeMeters>
            <DistanceMeters>14577.333809237</DistanceMeters>
          </Trackpoint>
          <Trackpoint>
            <Time>2020-02-09T09:57:17.000Z</Time>
            <Position>
              <LatitudeDegrees>38.93368869088590145111083984375</LatitudeDegrees>
              <LongitudeDegrees>-2.8041263110935688018798828125</LongitudeDegrees>
            </Position>
            <AltitudeMeters>868.20001220703125</AltitudeMeters>
            <DistanceMeters>14588.863804268</DistanceMeters>
          </Trackpoint>
          <Trackpoint>
            <Time>2020-02-09T09:57:18.000Z</Time>
            <Position>
              <LatitudeDegrees>38.93366388045251369476318359375</LatitudeDegrees>
              <LongitudeDegrees>-2.80418850481510162353515625</LongitudeDegrees>
            </Position>
            <AltitudeMeters>867.5999755859375</AltitudeMeters>
            <DistanceMeters>14594.914253004</DistanceMeters>
          </Trackpoint>
          <Trackpoint>
            <Time>2020-02-09T09:57:27.000Z</Time>
            <Position>
              <LatitudeDegrees>38.93340052105486392974853515625</LatitudeDegrees>
              <LongitudeDegrees>-2.8047646768391132354736328125</LongitudeDegrees>
            </Position>
            <AltitudeMeters>864.79998779296875</AltitudeMeters>
            <DistanceMeters>14652.773349866</DistanceMeters>
          </Trackpoint>
          <Trackpoint>
            <Time>2020-02-09T09:57:37.000Z</Time>
            <Position>
              <LatitudeDegrees>38.9331565238535404205322265625</LatitudeDegrees>
              <LongitudeDegrees>-2.80534856021404266357421875</LongitudeDegrees>
            </Position>
            <AltitudeMeters>864.20001220703125</AltitudeMeters>
            <DistanceMeters>14710.158471259</DistanceMeters>
          </Trackpoint>
          <Trackpoint>
            <Time>2020-02-09T09:57:47.000Z</Time>
            <Position>
              <LatitudeDegrees>38.9329000376164913177490234375</LatitudeDegrees>
              <LongitudeDegrees>-2.8059173561632633209228515625</LongitudeDegrees>
            </Position>
            <AltitudeMeters>864.20001220703125</AltitudeMeters>
            <DistanceMeters>14767.08082161</DistanceMeters>
          </Trackpoint>
          <Trackpoint>
            <Time>2020-02-09T09:57:57.000Z</Time>
            <Position>
              <LatitudeDegrees>38.9326811023056507110595703125</LatitudeDegrees>
              <LongitudeDegrees>-2.806490175426006317138671875</LongitudeDegrees>
            </Position>
            <AltitudeMeters>864</AltitudeMeters>
            <DistanceMeters>14822.338672172</DistanceMeters>
          </Trackpoint>
          <Trackpoint>
            <Time>2020-02-09T09:58:07.000Z</Time>
            <Position>
              <LatitudeDegrees>38.93261480145156383514404296875</LatitudeDegrees>
              <LongitudeDegrees>-2.8069627471268177032470703125</LongitudeDegrees>
            </Position>
            <AltitudeMeters>865.79998779296875</AltitudeMeters>
            <DistanceMeters>14863.914135763</DistanceMeters>
          </Trackpoint>
          <Trackpoint>
            <Time>2020-02-09T09:58:16.000Z</Time>
            <Position>
              <LatitudeDegrees>38.93270247615873813629150390625</LatitudeDegrees>
              <LongitudeDegrees>-2.8072447143495082855224609375</LongitudeDegrees>
            </Position>
            <AltitudeMeters>866.79998779296875</AltitudeMeters>
            <DistanceMeters>14890.20495548</DistanceMeters>
          </Trackpoint>
          <Trackpoint>
            <Time>2020-02-09T09:58:27.000Z</Time>
            <Position>
              <LatitudeDegrees>38.93278880976140499114990234375</LatitudeDegrees>
              <LongitudeDegrees>-2.8075367398560047149658203125</LongitudeDegrees>
            </Position>
            <AltitudeMeters>868.4000244140625</AltitudeMeters>
            <DistanceMeters>14917.252870432</DistanceMeters>
          </Trackpoint>
          <Trackpoint>
            <Time>2020-02-09T09:58:37.000Z</Time>
            <Position>
              <LatitudeDegrees>38.93280590884387493133544921875</LatitudeDegrees>
              <LongitudeDegrees>-2.8077908791601657867431640625</LongitudeDegrees>
            </Position>
            <AltitudeMeters>868.79998779296875</AltitudeMeters>
            <DistanceMeters>14939.338354561</DistanceMeters>
          </Trackpoint>
          <Trackpoint>
            <Time>2020-02-09T09:58:44.000Z</Time>
            <Position>
              <LatitudeDegrees>38.93281169235706329345703125</LatitudeDegrees>
              <LongitudeDegrees>-2.8079308569431304931640625</LongitudeDegrees>
            </Position>
            <AltitudeMeters>868.79998779296875</AltitudeMeters>
            <DistanceMeters>14951.474274254</DistanceMeters>
          </Trackpoint>
          <Trackpoint>
            <Time>2020-02-09T09:58:46.000Z</Time>
            <Position>
              <LatitudeDegrees>38.93282518722116947174072265625</LatitudeDegrees>
              <LongitudeDegrees>-2.80795005150139331817626953125</LongitudeDegrees>
            </Position>
            <AltitudeMeters>869</AltitudeMeters>
            <DistanceMeters>14953.712955211</DistanceMeters>
          </Trackpoint>
          <Trackpoint>
            <Time>2020-02-09T09:58:47.000Z</Time>
            <Position>
              <LatitudeDegrees>38.93285251222550868988037109375</LatitudeDegrees>
              <LongitudeDegrees>-2.807947285473346710205078125</LongitudeDegrees>
            </Position>
            <AltitudeMeters>869.20001220703125</AltitudeMeters>
            <DistanceMeters>14956.762705813</DistanceMeters>
          </Trackpoint>
          <Trackpoint>
            <Time>2020-02-09T09:58:49.000Z</Time>
            <Position>
              <LatitudeDegrees>38.93286458216607570648193359375</LatitudeDegrees>
              <LongitudeDegrees>-2.807936556637287139892578125</LongitudeDegrees>
            </Position>
            <AltitudeMeters>869.4000244140625</AltitudeMeters>
            <DistanceMeters>14958.397607225</DistanceMeters>
          </Trackpoint>
          <Trackpoint>
            <Time>2020-02-09T09:58:54.000Z</Time>
            <Position>
              <LatitudeDegrees>38.9329214952886104583740234375</LatitudeDegrees>
              <LongitudeDegrees>-2.80785734765231609344482421875</LongitudeDegrees>
            </Position>
            <AltitudeMeters>870</AltitudeMeters>
            <DistanceMeters>14967.733468077</DistanceMeters>
          </Trackpoint>
          <Trackpoint>
            <Time>2020-02-09T09:58:58.000Z</Time>
            <Position>
              <LatitudeDegrees>38.9329888857901096343994140625</LatitudeDegrees>
              <LongitudeDegrees>-2.80782214365899562835693359375</LongitudeDegrees>
            </Position>
            <AltitudeMeters>870.5999755859375</AltitudeMeters>
            <DistanceMeters>14975.830279485</DistanceMeters>
          </Trackpoint>
          <Trackpoint>
            <Time>2020-02-09T09:59:08.000Z</Time>
            <Position>
              <LatitudeDegrees>38.9331625588238239288330078125</LatitudeDegrees>
              <LongitudeDegrees>-2.80780437402427196502685546875</LongitudeDegrees>
            </Position>
            <AltitudeMeters>872.5999755859375</AltitudeMeters>
            <DistanceMeters>14995.221783895</DistanceMeters>
          </Trackpoint>
          <Trackpoint>
            <Time>2020-02-09T09:59:18.000Z</Time>
            <Position>
              <LatitudeDegrees>38.9333382435142993927001953125</LatitudeDegrees>
              <LongitudeDegrees>-2.80784276314079761505126953125</LongitudeDegrees>
            </Position>
            <AltitudeMeters>874</AltitudeMeters>
            <DistanceMeters>15015.05643389</DistanceMeters>
          </Trackpoint>
          <Trackpoint>
            <Time>2020-02-09T09:59:28.000Z</Time>
            <Position>
              <LatitudeDegrees>38.933506719768047332763671875</LatitudeDegrees>
              <LongitudeDegrees>-2.807908393442630767822265625</LongitudeDegrees>
            </Position>
            <AltitudeMeters>874.20001220703125</AltitudeMeters>
            <DistanceMeters>15034.65014972</DistanceMeters>
          </Trackpoint>
          <Trackpoint>
            <Time>2020-02-09T09:59:38.000Z</Time>
            <Position>
              <LatitudeDegrees>38.93368609249591827392578125</LatitudeDegrees>
              <LongitudeDegrees>-2.8079799748957157135009765625</LongitudeDegrees>
            </Position>
            <AltitudeMeters>876</AltitudeMeters>
            <DistanceMeters>15055.554299052</DistanceMeters>
          </Trackpoint>
          <Trackpoint>
            <Time>2020-02-09T09:59:48.000Z</Time>
            <Position>
              <LatitudeDegrees>38.9338669739663600921630859375</LatitudeDegrees>
              <LongitudeDegrees>-2.8080497123301029205322265625</LongitudeDegrees>
            </Position>
            <AltitudeMeters>879</AltitudeMeters>
            <DistanceMeters>15076.572610111</DistanceMeters>
          </Trackpoint>
          <Trackpoint>
            <Time>2020-02-09T09:59:58.000Z</Time>
            <Position>
              <LatitudeDegrees>38.9340500347316265106201171875</LatitudeDegrees>
              <LongitudeDegrees>-2.8081157617270946502685546875</LongitudeDegrees>
            </Position>
            <AltitudeMeters>880.79998779296875</AltitudeMeters>
            <DistanceMeters>15097.734784176</DistanceMeters>
          </Trackpoint>
          <Trackpoint>
            <Time>2020-02-09T10:00:08.000Z</Time>
            <Position>
              <LatitudeDegrees>38.93422982655465602874755859375</LatitudeDegrees>
              <LongitudeDegrees>-2.80818021856248378753662109375</LongitudeDegrees>
            </Position>
            <AltitudeMeters>882.4000244140625</AltitudeMeters>
            <DistanceMeters>15118.509806047</DistanceMeters>
          </Trackpoint>
          <Trackpoint>
            <Time>2020-02-09T10:00:18.000Z</Time>
            <Position>
              <LatitudeDegrees>38.93440450541675090789794921875</LatitudeDegrees>
              <LongitudeDegrees>-2.808242328464984893798828125</LongitudeDegrees>
            </Position>
            <AltitudeMeters>883.79998779296875</AltitudeMeters>
            <DistanceMeters>15138.681898271</DistanceMeters>
          </Trackpoint>
          <Trackpoint>
            <Time>2020-02-09T10:00:28.000Z</Time>
            <Position>
              <LatitudeDegrees>38.93457482568919658660888671875</LatitudeDegrees>
              <LongitudeDegrees>-2.8083152510225772857666015625</LongitudeDegrees>
            </Position>
            <AltitudeMeters>885.20001220703125</AltitudeMeters>
            <DistanceMeters>15158.662380738</DistanceMeters>
          </Trackpoint>
          <Trackpoint>
            <Time>2020-02-09T10:00:38.000Z</Time>
            <Position>
              <LatitudeDegrees>38.934725113213062286376953125</LatitudeDegrees>
              <LongitudeDegrees>-2.80846084468066692352294921875</LongitudeDegrees>
            </Position>
            <AltitudeMeters>886.5999755859375</AltitudeMeters>
            <DistanceMeters>15179.607096387</DistanceMeters>
          </Trackpoint>
          <Trackpoint>
            <Time>2020-02-09T10:00:48.000Z</Time>
            <Position>
              <LatitudeDegrees>38.93481940962374210357666015625</LatitudeDegrees>
              <LongitudeDegrees>-2.80869235284626483917236328125</LongitudeDegrees>
            </Position>
            <AltitudeMeters>887.5999755859375</AltitudeMeters>
            <DistanceMeters>15202.232236684</DistanceMeters>
          </Trackpoint>
          <Trackpoint>
            <Time>2020-02-09T10:00:58.000Z</Time>
            <Position>
              <LatitudeDegrees>38.9348982833325862884521484375</LatitudeDegrees>
              <LongitudeDegrees>-2.80892939306795597076416015625</LongitudeDegrees>
            </Position>
            <AltitudeMeters>888.4000244140625</AltitudeMeters>
            <DistanceMeters>15224.55320077</DistanceMeters>
          </Trackpoint>
          <Trackpoint>
            <Time>2020-02-09T10:01:08.000Z</Time>
            <Position>
              <LatitudeDegrees>38.93496961332857608795166015625</LatitudeDegrees>
              <LongitudeDegrees>-2.80913391150534152984619140625</LongitudeDegrees>
            </Position>
            <AltitudeMeters>889.20001220703125</AltitudeMeters>
            <DistanceMeters>15243.958204963</DistanceMeters>
          </Trackpoint>
          <Trackpoint>
            <Time>2020-02-09T10:01:18.000Z</Time>
            <Position>
              <LatitudeDegrees>38.935069777071475982666015625</LatitudeDegrees>
              <LongitudeDegrees>-2.80930087901651859283447265625</LongitudeDegrees>
            </Position>
            <AltitudeMeters>890.79998779296875</AltitudeMeters>
            <DistanceMeters>15262.213477384</DistanceMeters>
          </Trackpoint>
          <Trackpoint>
            <Time>2020-02-09T10:01:28.000Z</Time>
            <Position>
              <LatitudeDegrees>38.935234062373638153076171875</LatitudeDegrees>
              <LongitudeDegrees>-2.809421829879283905029296875</LongitudeDegrees>
            </Position>
            <AltitudeMeters>893.4000244140625</AltitudeMeters>
            <DistanceMeters>15283.284995097</DistanceMeters>
          </Trackpoint>
          <Trackpoint>
            <Time>2020-02-09T10:01:38.000Z</Time>
            <Position>
              <LatitudeDegrees>38.9354221522808074951171875</LatitudeDegrees>
              <LongitudeDegrees>-2.809513695538043975830078125</LongitudeDegrees>
            </Position>
            <AltitudeMeters>895.20001220703125</AltitudeMeters>
            <DistanceMeters>15305.679467307</DistanceMeters>
          </Trackpoint>
          <Trackpoint>
            <Time>2020-02-09T10:01:48.000Z</Time>
            <Position>
              <LatitudeDegrees>38.9356151036918163299560546875</LatitudeDegrees>
              <LongitudeDegrees>-2.80958133749663829803466796875</LongitudeDegrees>
            </Position>
            <AltitudeMeters>897</AltitudeMeters>
            <DistanceMeters>15327.939665302</DistanceMeters>
          </Trackpoint>
          <Trackpoint>
            <Time>2020-02-09T10:01:58.000Z</Time>
            <Position>
              <LatitudeDegrees>38.93580763600766658782958984375</LatitudeDegrees>
              <LongitudeDegrees>-2.809621989727020263671875</LongitudeDegrees>
            </Position>
            <AltitudeMeters>898</AltitudeMeters>
            <DistanceMeters>15349.656128466</DistanceMeters>
          </Trackpoint>
          <Trackpoint>
            <Time>2020-02-09T10:02:08.000Z</Time>
            <Position>
              <LatitudeDegrees>38.93599974922835826873779296875</LatitudeDegrees>
              <LongitudeDegrees>-2.80961419455707073211669921875</LongitudeDegrees>
            </Position>
            <AltitudeMeters>898.79998779296875</AltitudeMeters>
            <DistanceMeters>15371.04917253</DistanceMeters>
          </Trackpoint>
          <Trackpoint>
            <Time>2020-02-09T10:02:18.000Z</Time>
            <Position>
              <LatitudeDegrees>38.9361951313912868499755859375</LatitudeDegrees>
              <LongitudeDegrees>-2.80955024063587188720703125</LongitudeDegrees>
            </Position>
            <AltitudeMeters>900</AltitudeMeters>
            <DistanceMeters>15393.489565641</DistanceMeters>
          </Trackpoint>
          <Trackpoint>
            <Time>2020-02-09T10:02:28.000Z</Time>
            <Position>
              <LatitudeDegrees>38.93637442030012607574462890625</LatitudeDegrees>
              <LongitudeDegrees>-2.80942107550799846649169921875</LongitudeDegrees>
            </Position>
            <AltitudeMeters>901.4000244140625</AltitudeMeters>
            <DistanceMeters>15416.364372955</DistanceMeters>
          </Trackpoint>
          <Trackpoint>
            <Time>2020-02-09T10:02:38.000Z</Time>
            <Position>
              <LatitudeDegrees>38.9365446567535400390625</LatitudeDegrees>
              <LongitudeDegrees>-2.80926190316677093505859375</LongitudeDegrees>
            </Position>
            <AltitudeMeters>902.79998779296875</AltitudeMeters>
            <DistanceMeters>15439.793228172</DistanceMeters>
          </Trackpoint>
          <Trackpoint>
            <Time>2020-02-09T10:02:48.000Z</Time>
            <Position>
              <LatitudeDegrees>38.93672394566237926483154296875</LatitudeDegrees>
              <LongitudeDegrees>-2.8091034851968288421630859375</LongitudeDegrees>
            </Position>
            <AltitudeMeters>904.5999755859375</AltitudeMeters>
            <DistanceMeters>15464.007332812</DistanceMeters>
          </Trackpoint>
          <Trackpoint>
            <Time>2020-02-09T10:02:58.000Z</Time>
            <Position>
              <LatitudeDegrees>38.936928547918796539306640625</LatitudeDegrees>
              <LongitudeDegrees>-2.8089150600135326385498046875</LongitudeDegrees>
            </Position>
            <AltitudeMeters>906.79998779296875</AltitudeMeters>
            <DistanceMeters>15492.01975118</DistanceMeters>
          </Trackpoint>
          <Trackpoint>
            <Time>2020-02-09T10:03:08.000Z</Time>
            <Position>
              <LatitudeDegrees>38.93714538775384426116943359375</LatitudeDegrees>
              <LongitudeDegrees>-2.80871733091771602630615234375</LongitudeDegrees>
            </Position>
            <AltitudeMeters>908</AltitudeMeters>
            <DistanceMeters>15521.608939944</DistanceMeters>
          </Trackpoint>
          <Trackpoint>
            <Time>2020-02-09T10:03:18.000Z</Time>
            <Position>
              <LatitudeDegrees>38.9373799972236156463623046875</LatitudeDegrees>
              <LongitudeDegrees>-2.80850552022457122802734375</LongitudeDegrees>
            </Position>
            <AltitudeMeters>909.20001220703125</AltitudeMeters>
            <DistanceMeters>15553.516980606</DistanceMeters>
          </Trackpoint>
          <Trackpoint>
            <Time>2020-02-09T10:03:28.000Z</Time>
            <Position>
              <LatitudeDegrees>38.9376027882099151611328125</LatitudeDegrees>
              <LongitudeDegrees>-2.80830628238618373870849609375</LongitudeDegrees>
            </Position>
            <AltitudeMeters>910.5999755859375</AltitudeMeters>
            <DistanceMeters>15583.723221419</DistanceMeters>
          </Trackpoint>
          <Trackpoint>
            <Time>2020-02-09T10:03:38.000Z</Time>
            <Position>
              <LatitudeDegrees>38.93783790059387683868408203125</LatitudeDegrees>
              <LongitudeDegrees>-2.8081590123474597930908203125</LongitudeDegrees>
            </Position>
            <AltitudeMeters>911.79998779296875</AltitudeMeters>
            <DistanceMeters>15612.832433933</DistanceMeters>
          </Trackpoint>
          <Trackpoint>
            <Time>2020-02-09T10:03:48.000Z</Time>
            <Position>
              <LatitudeDegrees>38.938107378780841827392578125</LatitudeDegrees>
              <LongitudeDegrees>-2.80809422023594379425048828125</LongitudeDegrees>
            </Position>
            <AltitudeMeters>912.4000244140625</AltitudeMeters>
            <DistanceMeters>15643.345924752</DistanceMeters>
          </Trackpoint>
          <Trackpoint>
            <Time>2020-02-09T10:03:58.000Z</Time>
            <Position>
              <LatitudeDegrees>38.93838406540453433990478515625</LatitudeDegrees>
              <LongitudeDegrees>-2.808037139475345611572265625</LongitudeDegrees>
            </Position>
            <AltitudeMeters>913.5999755859375</AltitudeMeters>
            <DistanceMeters>15674.535539613</DistanceMeters>
          </Trackpoint>
          <Trackpoint>
            <Time>2020-02-09T10:04:08.000Z</Time>
            <Position>
              <LatitudeDegrees>38.93864725716412067413330078125</LatitudeDegrees>
              <LongitudeDegrees>-2.8079823218286037445068359375</LongitudeDegrees>
            </Position>
            <AltitudeMeters>914.79998779296875</AltitudeMeters>
            <DistanceMeters>15704.211121243</DistanceMeters>
          </Trackpoint>
          <Trackpoint>
            <Time>2020-02-09T10:04:18.000Z</Time>
            <Position>
              <LatitudeDegrees>38.9389051683247089385986328125</LatitudeDegrees>
              <LongitudeDegrees>-2.80793060548603534698486328125</LongitudeDegrees>
            </Position>
            <AltitudeMeters>915.79998779296875</AltitudeMeters>
            <DistanceMeters>15733.26413082</DistanceMeters>
          </Trackpoint>
          <Trackpoint>
            <Time>2020-02-09T10:04:28.000Z</Time>
            <Position>
              <LatitudeDegrees>38.93916710279881954193115234375</LatitudeDegrees>
              <LongitudeDegrees>-2.80787075869739055633544921875</LongitudeDegrees>
            </Position>
            <AltitudeMeters>917.4000244140625</AltitudeMeters>
            <DistanceMeters>15762.874674591</DistanceMeters>
          </Trackpoint>
          <Trackpoint>
            <Time>2020-02-09T10:04:38.000Z</Time>
            <Position>
              <LatitudeDegrees>38.9394338987767696380615234375</LatitudeDegrees>
              <LongitudeDegrees>-2.807811833918094635009765625</LongitudeDegrees>
            </Position>
            <AltitudeMeters>919.4000244140625</AltitudeMeters>
            <DistanceMeters>15793.004587387</DistanceMeters>
          </Trackpoint>
          <Trackpoint>
            <Time>2020-02-09T10:04:48.000Z</Time>
            <Position>
              <LatitudeDegrees>38.93970094621181488037109375</LatitudeDegrees>
              <LongitudeDegrees>-2.8077550046145915985107421875</LongitudeDegrees>
            </Position>
            <AltitudeMeters>920</AltitudeMeters>
            <DistanceMeters>15823.132102449</DistanceMeters>
          </Trackpoint>
          <Trackpoint>
            <Time>2020-02-09T10:04:58.000Z</Time>
            <Position>
              <LatitudeDegrees>38.93992868252098560333251953125</LatitudeDegrees>
              <LongitudeDegrees>-2.807744778692722320556640625</LongitudeDegrees>
            </Position>
            <AltitudeMeters>920.4000244140625</AltitudeMeters>
            <DistanceMeters>15848.495335993</DistanceMeters>
          </Trackpoint>
          <Trackpoint>
            <Time>2020-02-09T10:05:06.000Z</Time>
            <Position>
              <LatitudeDegrees>38.94001610577106475830078125</LatitudeDegrees>
              <LongitudeDegrees>-2.807821221649646759033203125</LongitudeDegrees>
            </Position>
            <AltitudeMeters>920.79998779296875</AltitudeMeters>
            <DistanceMeters>15860.262928026</DistanceMeters>
          </Trackpoint>
          <Trackpoint>
            <Time>2020-02-09T10:05:08.000Z</Time>
            <Position>
              <LatitudeDegrees>38.94002993591129779815673828125</LatitudeDegrees>
              <LongitudeDegrees>-2.80784108676016330718994140625</LongitudeDegrees>
            </Position>
            <AltitudeMeters>920.79998779296875</AltitudeMeters>
            <DistanceMeters>15862.571118898</DistanceMeters>
          </Trackpoint>
          <Trackpoint>
            <Time>2020-02-09T10:05:09.000Z</Time>
            <Position>
              <LatitudeDegrees>38.94003043882548809051513671875</LatitudeDegrees>
              <LongitudeDegrees>-2.807841338217258453369140625</LongitudeDegrees>
            </Position>
            <AltitudeMeters>920.79998779296875</AltitudeMeters>
            <DistanceMeters>15862.705506967</DistanceMeters>
          </Trackpoint>
          <Trackpoint>
            <Time>2020-02-09T10:05:46.000Z</Time>
            <Position>
              <LatitudeDegrees>38.94006346352398395538330078125</LatitudeDegrees>
              <LongitudeDegrees>-2.8079974092543125152587890625</LongitudeDegrees>
            </Position>
            <AltitudeMeters>920.79998779296875</AltitudeMeters>
            <DistanceMeters>15876.708008523</DistanceMeters>
          </Trackpoint>
          <Trackpoint>
            <Time>2020-02-09T10:05:47.000Z</Time>
            <Position>
              <LatitudeDegrees>38.94006748683750629425048828125</LatitudeDegrees>
              <LongitudeDegrees>-2.80801811255514621734619140625</LongitudeDegrees>
            </Position>
            <AltitudeMeters>920.79998779296875</AltitudeMeters>
            <DistanceMeters>15878.557981218</DistanceMeters>
          </Trackpoint>
          <Trackpoint>
            <Time>2020-02-09T10:05:48.000Z</Time>
            <Position>
              <LatitudeDegrees>38.94006832502782344818115234375</LatitudeDegrees>
              <LongitudeDegrees>-2.8080393187701702117919921875</LongitudeDegrees>
            </Position>
            <AltitudeMeters>920.79998779296875</AltitudeMeters>
            <DistanceMeters>15880.395710412</DistanceMeters>
          </Trackpoint>
          <Trackpoint>
            <Time>2020-02-09T10:05:58.000Z</Time>
            <Position>
              <LatitudeDegrees>38.93995173275470733642578125</LatitudeDegrees>
              <LongitudeDegrees>-2.8083450905978679656982421875</LongitudeDegrees>
            </Position>
            <AltitudeMeters>920.5999755859375</AltitudeMeters>
            <DistanceMeters>15909.876360632</DistanceMeters>
          </Trackpoint>
          <Trackpoint>
            <Time>2020-02-09T10:06:02.000Z</Time>
            <Position>
              <LatitudeDegrees>38.93983237445354461669921875</LatitudeDegrees>
              <LongitudeDegrees>-2.80849688686430454254150390625</LongitudeDegrees>
            </Position>
            <AltitudeMeters>920.20001220703125</AltitudeMeters>
            <DistanceMeters>15928.562585396</DistanceMeters>
          </Trackpoint>
          <Trackpoint>
            <Time>2020-02-09T10:06:05.000Z</Time>
            <Position>
              <LatitudeDegrees>38.9397537522017955780029296875</LatitudeDegrees>
              <LongitudeDegrees>-2.8086448274552822113037109375</LongitudeDegrees>
            </Position>
            <AltitudeMeters>919.79998779296875</AltitudeMeters>
            <DistanceMeters>15944.07436856</DistanceMeters>
          </Trackpoint>
          <Trackpoint>
            <Time>2020-02-09T10:06:07.000Z</Time>
            <Position>
              <LatitudeDegrees>38.93972449935972690582275390625</LatitudeDegrees>
              <LongitudeDegrees>-2.80875588767230510711669921875</LongitudeDegrees>
            </Position>
            <AltitudeMeters>919.4000244140625</AltitudeMeters>
            <DistanceMeters>15954.225339071</DistanceMeters>
          </Trackpoint>
          <Trackpoint>
            <Time>2020-02-09T10:06:08.000Z</Time>
            <Position>
              <LatitudeDegrees>38.93972567282617092132568359375</LatitudeDegrees>
              <LongitudeDegrees>-2.80880936421453952789306640625</LongitudeDegrees>
            </Position>
            <AltitudeMeters>919.4000244140625</AltitudeMeters>
            <DistanceMeters>15958.856368282</DistanceMeters>
          </Trackpoint>
          <Trackpoint>
            <Time>2020-02-09T10:06:15.000Z</Time>
            <Position>
              <LatitudeDegrees>38.93968745134770870208740234375</LatitudeDegrees>
              <LongitudeDegrees>-2.8091383539140224456787109375</LongitudeDegrees>
            </Position>
            <AltitudeMeters>918.20001220703125</AltitudeMeters>
            <DistanceMeters>15987.653696288</DistanceMeters>
          </Trackpoint>
          <Trackpoint>
            <Time>2020-02-09T10:06:18.000Z</Time>
            <Position>
              <LatitudeDegrees>38.9395861141383647918701171875</LatitudeDegrees>
              <LongitudeDegrees>-2.80924924649298191070556640625</LongitudeDegrees>
            </Position>
            <AltitudeMeters>917.79998779296875</AltitudeMeters>
            <DistanceMeters>16002.465066148</DistanceMeters>
          </Trackpoint>
          <Trackpoint>
            <Time>2020-02-09T10:06:22.000Z</Time>
            <Position>
              <LatitudeDegrees>38.9394696056842803955078125</LatitudeDegrees>
              <LongitudeDegrees>-2.80943088233470916748046875</LongitudeDegrees>
            </Position>
            <AltitudeMeters>916.20001220703125</AltitudeMeters>
            <DistanceMeters>16022.846911912</DistanceMeters>
          </Trackpoint>
          <Trackpoint>
            <Time>2020-02-09T10:06:24.000Z</Time>
            <Position>
              <LatitudeDegrees>38.93940984271466732025146484375</LatitudeDegrees>
              <LongitudeDegrees>-2.8095240890979766845703125</LongitudeDegrees>
            </Position>
            <AltitudeMeters>915.4000244140625</AltitudeMeters>
            <DistanceMeters>16033.304168996</DistanceMeters>
          </Trackpoint>
          <Trackpoint>
            <Time>2020-02-09T10:06:27.000Z</Time>
            <Position>
              <LatitudeDegrees>38.93933658488094806671142578125</LatitudeDegrees>
              <LongitudeDegrees>-2.809695415198802947998046875</LongitudeDegrees>
            </Position>
            <AltitudeMeters>913.79998779296875</AltitudeMeters>
            <DistanceMeters>16050.229597945</DistanceMeters>
          </Trackpoint>
          <Trackpoint>
            <Time>2020-02-09T10:06:28.000Z</Time>
            <Position>
              <LatitudeDegrees>38.93931596539914608001708984375</LatitudeDegrees>
              <LongitudeDegrees>-2.80975802801549434661865234375</LongitudeDegrees>
            </Position>
            <AltitudeMeters>913.20001220703125</AltitudeMeters>
            <DistanceMeters>16056.115120288</DistanceMeters>
          </Trackpoint>
          <Trackpoint>
            <Time>2020-02-09T10:06:38.000Z</Time>
            <Position>
              <LatitudeDegrees>38.93927053548395633697509765625</LatitudeDegrees>
              <LongitudeDegrees>-2.81013739295303821563720703125</LongitudeDegrees>
            </Position>
            <AltitudeMeters>910</AltitudeMeters>
            <DistanceMeters>16089.344591357</DistanceMeters>
          </Trackpoint>
          <Trackpoint>
            <Time>2020-02-09T10:06:42.000Z</Time>
            <Position>
              <LatitudeDegrees>38.93928528763353824615478515625</LatitudeDegrees>
              <LongitudeDegrees>-2.810286171734333038330078125</LongitudeDegrees>
            </Position>
            <AltitudeMeters>909.4000244140625</AltitudeMeters>
            <DistanceMeters>16102.328871361</DistanceMeters>
          </Trackpoint>
          <Trackpoint>
            <Time>2020-02-09T10:06:48.000Z</Time>
            <Position>
              <LatitudeDegrees>38.939417302608489990234375</LatitudeDegrees>
              <LongitudeDegrees>-2.8102337010204792022705078125</LongitudeDegrees>
            </Position>
            <AltitudeMeters>910.5999755859375</AltitudeMeters>
            <DistanceMeters>16117.708233906</DistanceMeters>
          </Trackpoint>
          <Trackpoint>
            <Time>2020-02-09T10:06:58.000Z</Time>
            <Position>
              <LatitudeDegrees>38.939588628709316253662109375</LatitudeDegrees>
              <LongitudeDegrees>-2.81016991473734378814697265625</LongitudeDegrees>
            </Position>
            <AltitudeMeters>911.20001220703125</AltitudeMeters>
            <DistanceMeters>16137.560858832</DistanceMeters>
          </Trackpoint>
          <Trackpoint>
            <Time>2020-02-09T10:07:08.000Z</Time>
            <Position>
              <LatitudeDegrees>38.93973154015839099884033203125</LatitudeDegrees>
              <LongitudeDegrees>-2.81014912761747837066650390625</LongitudeDegrees>
            </Position>
            <AltitudeMeters>911.5999755859375</AltitudeMeters>
            <DistanceMeters>16153.568841507</DistanceMeters>
          </Trackpoint>
          <Trackpoint>
            <Time>2020-02-09T10:07:18.000Z</Time>
            <Position>
              <LatitudeDegrees>38.9399230666458606719970703125</LatitudeDegrees>
              <LongitudeDegrees>-2.81011350452899932861328125</LongitudeDegrees>
            </Position>
            <AltitudeMeters>912</AltitudeMeters>
            <DistanceMeters>16175.108067061</DistanceMeters>
          </Trackpoint>
          <Trackpoint>
            <Time>2020-02-09T10:07:28.000Z</Time>
            <Position>
              <LatitudeDegrees>38.94011895172297954559326171875</LatitudeDegrees>
              <LongitudeDegrees>-2.81004510819911956787109375</LongitudeDegrees>
            </Position>
            <AltitudeMeters>912.79998779296875</AltitudeMeters>
            <DistanceMeters>16197.700256217</DistanceMeters>
          </Trackpoint>
          <Trackpoint>
            <Time>2020-02-09T10:07:38.000Z</Time>
            <Position>
              <LatitudeDegrees>38.94031927920877933502197265625</LatitudeDegrees>
              <LongitudeDegrees>-2.81004016287624835968017578125</LongitudeDegrees>
            </Position>
            <AltitudeMeters>913.4000244140625</AltitudeMeters>
            <DistanceMeters>16220.001388256</DistanceMeters>
          </Trackpoint>
          <Trackpoint>
            <Time>2020-02-09T10:07:48.000Z</Time>
            <Position>
              <LatitudeDegrees>38.94050426781177520751953125</LatitudeDegrees>
              <LongitudeDegrees>-2.80993044376373291015625</LongitudeDegrees>
            </Position>
            <AltitudeMeters>914.4000244140625</AltitudeMeters>
            <DistanceMeters>16242.676363285</DistanceMeters>
          </Trackpoint>
          <Trackpoint>
            <Time>2020-02-09T10:07:58.000Z</Time>
            <Position>
              <LatitudeDegrees>38.940615244209766387939453125</LatitudeDegrees>
              <LongitudeDegrees>-2.80983162112534046173095703125</LongitudeDegrees>
            </Position>
            <AltitudeMeters>915</AltitudeMeters>
            <DistanceMeters>16257.702007073</DistanceMeters>
          </Trackpoint>
          <Trackpoint>
            <Time>2020-02-09T10:08:08.000Z</Time>
            <Position>
              <LatitudeDegrees>38.9407381229102611541748046875</LatitudeDegrees>
              <LongitudeDegrees>-2.8095752187073230743408203125</LongitudeDegrees>
            </Position>
            <AltitudeMeters>916</AltitudeMeters>
            <DistanceMeters>16283.773985027</DistanceMeters>
          </Trackpoint>
          <Trackpoint>
            <Time>2020-02-09T10:08:18.000Z</Time>
            <Position>
              <LatitudeDegrees>38.940838538110256195068359375</LatitudeDegrees>
              <LongitudeDegrees>-2.80926399864256381988525390625</LongitudeDegrees>
            </Position>
            <AltitudeMeters>917.79998779296875</AltitudeMeters>
            <DistanceMeters>16312.942697761</DistanceMeters>
          </Trackpoint>
          <Trackpoint>
            <Time>2020-02-09T10:08:28.000Z</Time>
            <Position>
              <LatitudeDegrees>38.94092696718871593475341796875</LatitudeDegrees>
              <LongitudeDegrees>-2.80896007083356380462646484375</LongitudeDegrees>
            </Position>
            <AltitudeMeters>919</AltitudeMeters>
            <DistanceMeters>16341.034465425</DistanceMeters>
          </Trackpoint>
          <Trackpoint>
            <Time>2020-02-09T10:08:38.000Z</Time>
            <Position>
              <LatitudeDegrees>38.9410226047039031982421875</LatitudeDegrees>
              <LongitudeDegrees>-2.808659411966800689697265625</LongitudeDegrees>
            </Position>
            <AltitudeMeters>920</AltitudeMeters>
            <DistanceMeters>16369.155148636</DistanceMeters>
          </Trackpoint>
          <Trackpoint>
            <Time>2020-02-09T10:08:48.000Z</Time>
            <Position>
              <LatitudeDegrees>38.94113726913928985595703125</LatitudeDegrees>
              <LongitudeDegrees>-2.808388173580169677734375</LongitudeDegrees>
            </Position>
            <AltitudeMeters>921.20001220703125</AltitudeMeters>
            <DistanceMeters>16395.880134441</DistanceMeters>
          </Trackpoint>
          <Trackpoint>
            <Time>2020-02-09T10:08:58.000Z</Time>
            <Position>
              <LatitudeDegrees>38.9413191564381122589111328125</LatitudeDegrees>
              <LongitudeDegrees>-2.80838725157082080841064453125</LongitudeDegrees>
            </Position>
            <AltitudeMeters>921.5999755859375</AltitudeMeters>
            <DistanceMeters>16416.124616393</DistanceMeters>
          </Trackpoint>
          <Trackpoint>
            <Time>2020-02-09T10:09:08.000Z</Time>
            <Position>
              <LatitudeDegrees>38.9413982816040515899658203125</LatitudeDegrees>
              <LongitudeDegrees>-2.8085006587207317352294921875</LongitudeDegrees>
            </Position>
            <AltitudeMeters>921.4000244140625</AltitudeMeters>
            <DistanceMeters>16429.31314673</DistanceMeters>
          </Trackpoint>
          <Trackpoint>
            <Time>2020-02-09T10:09:12.000Z</Time>
            <Position>
              <LatitudeDegrees>38.94142535515129566192626953125</LatitudeDegrees>
              <LongitudeDegrees>-2.80854332260787487030029296875</LongitudeDegrees>
            </Position>
            <AltitudeMeters>921.20001220703125</AltitudeMeters>
            <DistanceMeters>16434.079662474</DistanceMeters>
          </Trackpoint>
          <Trackpoint>
            <Time>2020-02-09T10:09:18.000Z</Time>
            <Position>
              <LatitudeDegrees>38.94146977923810482025146484375</LatitudeDegrees>
              <LongitudeDegrees>-2.808603756129741668701171875</LongitudeDegrees>
            </Position>
            <AltitudeMeters>921.20001220703125</AltitudeMeters>
            <DistanceMeters>16441.277896885</DistanceMeters>
          </Trackpoint>
          <Trackpoint>
            <Time>2020-02-09T10:09:28.000Z</Time>
            <Position>
              <LatitudeDegrees>38.9415451325476169586181640625</LatitudeDegrees>
              <LongitudeDegrees>-2.80871263705193996429443359375</LongitudeDegrees>
            </Position>
            <AltitudeMeters>921</AltitudeMeters>
            <DistanceMeters>16453.894997091</DistanceMeters>
          </Trackpoint>
          <Trackpoint>
            <Time>2020-02-09T10:09:38.000Z</Time>
            <Position>
              <LatitudeDegrees>38.94162668846547603607177734375</LatitudeDegrees>
              <LongitudeDegrees>-2.80882730148732662200927734375</LongitudeDegrees>
            </Position>
            <AltitudeMeters>921</AltitudeMeters>
            <DistanceMeters>16467.346229069</DistanceMeters>
          </Trackpoint>
          <Trackpoint>
            <Time>2020-02-09T10:09:48.000Z</Time>
            <Position>
              <LatitudeDegrees>38.94174587912857532501220703125</LatitudeDegrees>
              <LongitudeDegrees>-2.80890491791069507598876953125</LongitudeDegrees>
            </Position>
            <AltitudeMeters>921.20001220703125</AltitudeMeters>
            <DistanceMeters>16482.217226753</DistanceMeters>
          </Trackpoint>
          <Trackpoint>
            <Time>2020-02-09T10:09:58.000Z</Time>
            <Position>
              <LatitudeDegrees>38.9418680034577846527099609375</LatitudeDegrees>
              <LongitudeDegrees>-2.80902595259249210357666015625</LongitudeDegrees>
            </Position>
            <AltitudeMeters>921.4000244140625</AltitudeMeters>
            <DistanceMeters>16499.379482824</DistanceMeters>
          </Trackpoint>
          <Trackpoint>
            <Time>2020-02-09T10:10:08.000Z</Time>
            <Position>
              <LatitudeDegrees>38.94202776253223419189453125</LatitudeDegrees>
              <LongitudeDegrees>-2.80912988819181919097900390625</LongitudeDegrees>
            </Position>
            <AltitudeMeters>921.5999755859375</AltitudeMeters>
            <DistanceMeters>16519.307923857</DistanceMeters>
          </Trackpoint>
          <Trackpoint>
            <Time>2020-02-09T10:10:18.000Z</Time>
            <Position>
              <LatitudeDegrees>38.942126333713531494140625</LatitudeDegrees>
              <LongitudeDegrees>-2.80937162227928638458251953125</LongitudeDegrees>
            </Position>
            <AltitudeMeters>922.20001220703125</AltitudeMeters>
            <DistanceMeters>16542.935968129</DistanceMeters>
          </Trackpoint>
          <Trackpoint>
            <Time>2020-02-09T10:10:28.000Z</Time>
            <Position>
              <LatitudeDegrees>38.9422763697803020477294921875</LatitudeDegrees>
              <LongitudeDegrees>-2.80954881571233272552490234375</LongitudeDegrees>
            </Position>
            <AltitudeMeters>923.20001220703125</AltitudeMeters>
            <DistanceMeters>16565.610943158</DistanceMeters>
          </Trackpoint>
          <Trackpoint>
            <Time>2020-02-09T10:10:38.000Z</Time>
            <Position>
              <LatitudeDegrees>38.942436464130878448486328125</LatitudeDegrees>
              <LongitudeDegrees>-2.80976615846157073974609375</LongitudeDegrees>
            </Position>
            <AltitudeMeters>923.5999755859375</AltitudeMeters>
            <DistanceMeters>16591.524503405</DistanceMeters>
          </Trackpoint>
          <Trackpoint>
            <Time>2020-02-09T10:10:48.000Z</Time>
            <Position>
              <LatitudeDegrees>38.9425268210470676422119140625</LatitudeDegrees>
              <LongitudeDegrees>-2.810113169252872467041015625</LongitudeDegrees>
            </Position>
            <AltitudeMeters>924</AltitudeMeters>
            <DistanceMeters>16623.203337278</DistanceMeters>
          </Trackpoint>
          <Trackpoint>
            <Time>2020-02-09T10:10:58.000Z</Time>
            <Position>
              <LatitudeDegrees>38.942592032253742218017578125</LatitudeDegrees>
              <LongitudeDegrees>-2.81047828495502471923828125</LongitudeDegrees>
            </Position>
            <AltitudeMeters>925.4000244140625</AltitudeMeters>
            <DistanceMeters>16655.633492123</DistanceMeters>
          </Trackpoint>
          <Trackpoint>
            <Time>2020-02-09T10:11:08.000Z</Time>
            <Position>
              <LatitudeDegrees>38.94280803389847278594970703125</LatitudeDegrees>
              <LongitudeDegrees>-2.81068389303982257843017578125</LongitudeDegrees>
            </Position>
            <AltitudeMeters>926.20001220703125</AltitudeMeters>
            <DistanceMeters>16685.546839227</DistanceMeters>
          </Trackpoint>
          <Trackpoint>
            <Time>2020-02-09T10:11:18.000Z</Time>
            <Position>
              <LatitudeDegrees>38.94289369694888591766357421875</LatitudeDegrees>
              <LongitudeDegrees>-2.81099569983780384063720703125</LongitudeDegrees>
            </Position>
            <AltitudeMeters>927.4000244140625</AltitudeMeters>
            <DistanceMeters>16714.173705934</DistanceMeters>
          </Trackpoint>
          <Trackpoint>
            <Time>2020-02-09T10:11:28.000Z</Time>
            <Position>
              <LatitudeDegrees>38.942964859306812286376953125</LatitudeDegrees>
              <LongitudeDegrees>-2.811360061168670654296875</LongitudeDegrees>
            </Position>
            <AltitudeMeters>929.79998779296875</AltitudeMeters>
            <DistanceMeters>16746.69492429</DistanceMeters>
          </Trackpoint>
          <Trackpoint>
            <Time>2020-02-09T10:11:38.000Z</Time>
            <Position>
              <LatitudeDegrees>38.94300886429846286773681640625</LatitudeDegrees>
              <LongitudeDegrees>-2.81174805946648120880126953125</LongitudeDegrees>
            </Position>
            <AltitudeMeters>931.4000244140625</AltitudeMeters>
            <DistanceMeters>16780.638221912</DistanceMeters>
          </Trackpoint>
          <Trackpoint>
            <Time>2020-02-09T10:11:48.000Z</Time>
            <Position>
              <LatitudeDegrees>38.94301992841064929962158203125</LatitudeDegrees>
              <LongitudeDegrees>-2.81218240968883037567138671875</LongitudeDegrees>
            </Position>
            <AltitudeMeters>932.4000244140625</AltitudeMeters>
            <DistanceMeters>16818.258960892</DistanceMeters>
          </Trackpoint>
          <Trackpoint>
            <Time>2020-02-09T10:11:58.000Z</Time>
            <Position>
              <LatitudeDegrees>38.94303116016089916229248046875</LatitudeDegrees>
              <LongitudeDegrees>-2.8126554004848003387451171875</LongitudeDegrees>
            </Position>
            <AltitudeMeters>933.20001220703125</AltitudeMeters>
            <DistanceMeters>16859.223631719</DistanceMeters>
          </Trackpoint>
          <Trackpoint>
            <Time>2020-02-09T10:12:08.000Z</Time>
            <Position>
              <LatitudeDegrees>38.94303484819829463958740234375</LatitudeDegrees>
              <LongitudeDegrees>-2.8131576441228389739990234375</LongitudeDegrees>
            </Position>
            <AltitudeMeters>933.4000244140625</AltitudeMeters>
            <DistanceMeters>16902.703519989</DistanceMeters>
          </Trackpoint>
          <Trackpoint>
            <Time>2020-02-09T10:12:18.000Z</Time>
            <Position>
              <LatitudeDegrees>38.9430423080921173095703125</LatitudeDegrees>
              <LongitudeDegrees>-2.8136585466563701629638671875</LongitudeDegrees>
            </Position>
            <AltitudeMeters>932.79998779296875</AltitudeMeters>
            <DistanceMeters>16946.073404277</DistanceMeters>
          </Trackpoint>
          <Trackpoint>
            <Time>2020-02-09T10:12:27.000Z</Time>
            <Position>
              <LatitudeDegrees>38.942997716367244720458984375</LatitudeDegrees>
              <LongitudeDegrees>-2.81395937316119670867919921875</LongitudeDegrees>
            </Position>
            <AltitudeMeters>932.4000244140625</AltitudeMeters>
            <DistanceMeters>16972.583984234</DistanceMeters>
          </Trackpoint>
          <Trackpoint>
            <Time>2020-02-09T10:12:28.000Z</Time>
            <Position>
              <LatitudeDegrees>38.94298170693218708038330078125</LatitudeDegrees>
              <LongitudeDegrees>-2.81396792270243167877197265625</LongitudeDegrees>
            </Position>
            <AltitudeMeters>932.4000244140625</AltitudeMeters>
            <DistanceMeters>16974.512815874</DistanceMeters>
          </Trackpoint>
          <Trackpoint>
            <Time>2020-02-09T10:12:38.000Z</Time>
            <Position>
              <LatitudeDegrees>38.9427118934690952301025390625</LatitudeDegrees>
              <LongitudeDegrees>-2.8141557611525058746337890625</LongitudeDegrees>
            </Position>
            <AltitudeMeters>933</AltitudeMeters>
            <DistanceMeters>17008.663386337</DistanceMeters>
          </Trackpoint>
          <Trackpoint>
            <Time>2020-02-09T10:12:42.000Z</Time>
            <Position>
              <LatitudeDegrees>38.94265539944171905517578125</LatitudeDegrees>
              <LongitudeDegrees>-2.81415550969541072845458984375</LongitudeDegrees>
            </Position>
            <AltitudeMeters>932.5999755859375</AltitudeMeters>
            <DistanceMeters>17014.951685371</DistanceMeters>
          </Trackpoint>
          <Trackpoint>
            <Time>2020-02-09T10:12:46.000Z</Time>
            <Position>
              <LatitudeDegrees>38.942608125507831573486328125</LatitudeDegrees>
              <LongitudeDegrees>-2.81414042226970195770263671875</LongitudeDegrees>
            </Position>
            <AltitudeMeters>932.20001220703125</AltitudeMeters>
            <DistanceMeters>17020.372374327</DistanceMeters>
          </Trackpoint>
          <Trackpoint>
            <Time>2020-02-09T10:12:48.000Z</Time>
            <Position>
              <LatitudeDegrees>38.9425667189061641693115234375</LatitudeDegrees>
              <LongitudeDegrees>-2.814156599342823028564453125</LongitudeDegrees>
            </Position>
            <AltitudeMeters>931.79998779296875</AltitudeMeters>
            <DistanceMeters>17025.188832194</DistanceMeters>
          </Trackpoint>
          <Trackpoint>
            <Time>2020-02-09T10:12:55.000Z</Time>
            <Position>
              <LatitudeDegrees>38.9424017630517482757568359375</LatitudeDegrees>
              <LongitudeDegrees>-2.8142499737441539764404296875</LongitudeDegrees>
            </Position>
            <AltitudeMeters>930.4000244140625</AltitudeMeters>
            <DistanceMeters>17045.249374478</DistanceMeters>
          </Trackpoint>
          <Trackpoint>
            <Time>2020-02-09T10:12:58.000Z</Time>
            <Position>
              <LatitudeDegrees>38.94233353435993194580078125</LatitudeDegrees>
              <LongitudeDegrees>-2.814190797507762908935546875</LongitudeDegrees>
            </Position>
            <AltitudeMeters>930.20001220703125</AltitudeMeters>
            <DistanceMeters>17054.409476568</DistanceMeters>
          </Trackpoint>
          <Trackpoint>
            <Time>2020-02-09T10:13:04.000Z</Time>
            <Position>
              <LatitudeDegrees>38.94226706586778163909912109375</LatitudeDegrees>
              <LongitudeDegrees>-2.8141802363097667694091796875</LongitudeDegrees>
            </Position>
            <AltitudeMeters>929.5999755859375</AltitudeMeters>
            <DistanceMeters>17061.864078532</DistanceMeters>
          </Trackpoint>
          <Trackpoint>
            <Time>2020-02-09T10:13:46.000Z</Time>
            <Position>
              <LatitudeDegrees>38.9422290958464145660400390625</LatitudeDegrees>
              <LongitudeDegrees>-2.814192138612270355224609375</LongitudeDegrees>
            </Position>
            <AltitudeMeters>929.4000244140625</AltitudeMeters>
            <DistanceMeters>17066.214600366</DistanceMeters>
          </Trackpoint>
          <Trackpoint>
            <Time>2020-02-09T10:13:48.000Z</Time>
            <Position>
              <LatitudeDegrees>38.9421657286584377288818359375</LatitudeDegrees>
              <LongitudeDegrees>-2.814213596284389495849609375</LongitudeDegrees>
            </Position>
            <AltitudeMeters>928.79998779296875</AltitudeMeters>
            <DistanceMeters>17073.507552461</DistanceMeters>
          </Trackpoint>
          <Trackpoint>
            <Time>2020-02-09T10:13:58.000Z</Time>
            <Position>
              <LatitudeDegrees>38.94176088273525238037109375</LatitudeDegrees>
              <LongitudeDegrees>-2.81440780498087406158447265625</LongitudeDegrees>
            </Position>
            <AltitudeMeters>925.5999755859375</AltitudeMeters>
            <DistanceMeters>17121.60186721</DistanceMeters>
          </Trackpoint>
          <Trackpoint>
            <Time>2020-02-09T10:14:02.000Z</Time>
            <Position>
              <LatitudeDegrees>38.9415840245783329010009765625</LatitudeDegrees>
              <LongitudeDegrees>-2.81453638337552547454833984375</LongitudeDegrees>
            </Position>
            <AltitudeMeters>924.4000244140625</AltitudeMeters>
            <DistanceMeters>17144.215430154</DistanceMeters>
          </Trackpoint>
          <Trackpoint>
            <Time>2020-02-09T10:14:06.000Z</Time>
            <Position>
              <LatitudeDegrees>38.9414096809923648834228515625</LatitudeDegrees>
              <LongitudeDegrees>-2.81472564674913883209228515625</LongitudeDegrees>
            </Position>
            <AltitudeMeters>922.79998779296875</AltitudeMeters>
            <DistanceMeters>17169.611930702</DistanceMeters>
          </Trackpoint>
          <Trackpoint>
            <Time>2020-02-09T10:14:07.000Z</Time>
            <Position>
              <LatitudeDegrees>38.94130666740238666534423828125</LatitudeDegrees>
              <LongitudeDegrees>-2.81479370780289173126220703125</LongitudeDegrees>
            </Position>
            <AltitudeMeters>922.20001220703125</AltitudeMeters>
            <DistanceMeters>17182.502681911</DistanceMeters>
          </Trackpoint>
          <Trackpoint>
            <Time>2020-02-09T10:14:09.000Z</Time>
            <Position>
              <LatitudeDegrees>38.9412457309663295745849609375</LatitudeDegrees>
              <LongitudeDegrees>-2.81480862759053707122802734375</LongitudeDegrees>
            </Position>
            <AltitudeMeters>921.79998779296875</AltitudeMeters>
            <DistanceMeters>17189.406357994</DistanceMeters>
          </Trackpoint>
          <Trackpoint>
            <Time>2020-02-09T10:14:11.000Z</Time>
            <Position>
              <LatitudeDegrees>38.94111044704914093017578125</LatitudeDegrees>
              <LongitudeDegrees>-2.8148169256746768951416015625</LongitudeDegrees>
            </Position>
            <AltitudeMeters>921.4000244140625</AltitudeMeters>
            <DistanceMeters>17204.480602375</DistanceMeters>
          </Trackpoint>
          <Trackpoint>
            <Time>2020-02-09T10:14:13.000Z</Time>
            <Position>
              <LatitudeDegrees>38.94100994803011417388916015625</LatitudeDegrees>
              <LongitudeDegrees>-2.81486763618886470794677734375</LongitudeDegrees>
            </Position>
            <AltitudeMeters>920.79998779296875</AltitudeMeters>
            <DistanceMeters>17216.496879766</DistanceMeters>
          </Trackpoint>
          <Trackpoint>
            <Time>2020-02-09T10:14:15.000Z</Time>
            <Position>
              <LatitudeDegrees>38.94091942347586154937744140625</LatitudeDegrees>
              <LongitudeDegrees>-2.81490921042859554290771484375</LongitudeDegrees>
            </Position>
            <AltitudeMeters>920</AltitudeMeters>
            <DistanceMeters>17227.196145118</DistanceMeters>
          </Trackpoint>
          <Trackpoint>
            <Time>2020-02-09T10:14:17.000Z</Time>
            <Position>
              <LatitudeDegrees>38.9408219419419765472412109375</LatitudeDegrees>
              <LongitudeDegrees>-2.81492496840655803680419921875</LongitudeDegrees>
            </Position>
            <AltitudeMeters>919.20001220703125</AltitudeMeters>
            <DistanceMeters>17238.131651615</DistanceMeters>
          </Trackpoint>
          <Trackpoint>
            <Time>2020-02-09T10:14:18.000Z</Time>
            <Position>
              <LatitudeDegrees>38.94077139906585216522216796875</LatitudeDegrees>
              <LongitudeDegrees>-2.8149131499230861663818359375</LongitudeDegrees>
            </Position>
            <AltitudeMeters>919</AltitudeMeters>
            <DistanceMeters>17243.849070327</DistanceMeters>
          </Trackpoint>
          <Trackpoint>
            <Time>2020-02-09T10:14:20.000Z</Time>
            <Position>
              <LatitudeDegrees>38.94067098386585712432861328125</LatitudeDegrees>
              <LongitudeDegrees>-2.8148947097361087799072265625</LongitudeDegrees>
            </Position>
            <AltitudeMeters>918.5999755859375</AltitudeMeters>
            <DistanceMeters>17255.138467961</DistanceMeters>
          </Trackpoint>
          <Trackpoint>
            <Time>2020-02-09T10:14:23.000Z</Time>
            <Position>
              <LatitudeDegrees>38.94052212126553058624267578125</LatitudeDegrees>
              <LongitudeDegrees>-2.81491809524595737457275390625</LongitudeDegrees>
            </Position>
            <AltitudeMeters>917.4000244140625</AltitudeMeters>
            <DistanceMeters>17271.830201801</DistanceMeters>
          </Trackpoint>
          <Trackpoint>
            <Time>2020-02-09T10:14:28.000Z</Time>
            <Position>
              <LatitudeDegrees>38.9402814768254756927490234375</LatitudeDegrees>
              <LongitudeDegrees>-2.8147874213755130767822265625</LongitudeDegrees>
            </Position>
            <AltitudeMeters>917.20001220703125</AltitudeMeters>
            <DistanceMeters>17300.905270784</DistanceMeters>
          </Trackpoint>
          <Trackpoint>
            <Time>2020-02-09T10:14:38.000Z</Time>
            <Position>
              <LatitudeDegrees>38.93982231616973876953125</LatitudeDegrees>
              <LongitudeDegrees>-2.81469513662159442901611328125</LongitudeDegrees>
            </Position>
            <AltitudeMeters>913.5999755859375</AltitudeMeters>
            <DistanceMeters>17352.631585658</DistanceMeters>
          </Trackpoint>
          <Trackpoint>
            <Time>2020-02-09T10:14:41.000Z</Time>
            <Position>
              <LatitudeDegrees>38.9398000203073024749755859375</LatitudeDegrees>
              <LongitudeDegrees>-2.81467870809137821197509765625</LongitudeDegrees>
            </Position>
            <AltitudeMeters>913.4000244140625</AltitudeMeters>
            <DistanceMeters>17355.491873975</DistanceMeters>
          </Trackpoint>
          <Trackpoint>
            <Time>2020-02-09T10:15:07.000Z</Time>
            <Position>
              <LatitudeDegrees>38.93975383602082729339599609375</LatitudeDegrees>
              <LongitudeDegrees>-2.8147002495825290679931640625</LongitudeDegrees>
            </Position>
            <AltitudeMeters>912.79998779296875</AltitudeMeters>
            <DistanceMeters>17360.95900787</DistanceMeters>
          </Trackpoint>
          <Trackpoint>
            <Time>2020-02-09T10:15:08.000Z</Time>
            <Position>
              <LatitudeDegrees>38.9397292770445346832275390625</LatitudeDegrees>
              <LongitudeDegrees>-2.81473989598453044891357421875</LongitudeDegrees>
            </Position>
            <AltitudeMeters>912.4000244140625</AltitudeMeters>
            <DistanceMeters>17365.345702856</DistanceMeters>
          </Trackpoint>
          <Trackpoint>
            <Time>2020-02-09T10:15:10.000Z</Time>
            <Position>
              <LatitudeDegrees>38.93964705057442188262939453125</LatitudeDegrees>
              <LongitudeDegrees>-2.81482036225497722625732421875</LongitudeDegrees>
            </Position>
            <AltitudeMeters>911</AltitudeMeters>
            <DistanceMeters>17376.847468804</DistanceMeters>
          </Trackpoint>
          <Trackpoint>
            <Time>2020-02-09T10:15:12.000Z</Time>
            <Position>
              <LatitudeDegrees>38.93953942693769931793212890625</LatitudeDegrees>
              <LongitudeDegrees>-2.8148538060486316680908203125</LongitudeDegrees>
            </Position>
            <AltitudeMeters>910</AltitudeMeters>
            <DistanceMeters>17389.170935265</DistanceMeters>
          </Trackpoint>
          <Trackpoint>
            <Time>2020-02-09T10:15:15.000Z</Time>
            <Position>
              <LatitudeDegrees>38.93936491571366786956787109375</LatitudeDegrees>
              <LongitudeDegrees>-2.81490258872509002685546875</LongitudeDegrees>
            </Position>
            <AltitudeMeters>909</AltitudeMeters>
            <DistanceMeters>17409.048334361</DistanceMeters>
          </Trackpoint>
          <Trackpoint>
            <Time>2020-02-09T10:15:18.000Z</Time>
            <Position>
              <LatitudeDegrees>38.9392179809510707855224609375</LatitudeDegrees>
              <LongitudeDegrees>-2.81496369279921054840087890625</LongitudeDegrees>
            </Position>
            <AltitudeMeters>908.4000244140625</AltitudeMeters>
            <DistanceMeters>17426.236878252</DistanceMeters>
          </Trackpoint>
          <Trackpoint>
            <Time>2020-02-09T10:15:21.000Z</Time>
            <Position>
              <LatitudeDegrees>38.93908345140516757965087890625</LatitudeDegrees>
              <LongitudeDegrees>-2.8150667063891887664794921875</LongitudeDegrees>
            </Position>
            <AltitudeMeters>907.20001220703125</AltitudeMeters>
            <DistanceMeters>17443.664891658</DistanceMeters>
          </Trackpoint>
          <Trackpoint>
            <Time>2020-02-09T10:15:25.000Z</Time>
            <Position>
              <LatitudeDegrees>38.9389068447053432464599609375</LatitudeDegrees>
              <LongitudeDegrees>-2.81520157121121883392333984375</LongitudeDegrees>
            </Position>
            <AltitudeMeters>905.79998779296875</AltitudeMeters>
            <DistanceMeters>17466.527458112</DistanceMeters>
          </Trackpoint>
          <Trackpoint>
            <Time>2020-02-09T10:15:27.000Z</Time>
            <Position>
              <LatitudeDegrees>38.9388367719948291778564453125</LatitudeDegrees>
              <LongitudeDegrees>-2.81529611907899379730224609375</LongitudeDegrees>
            </Position>
            <AltitudeMeters>904.79998779296875</AltitudeMeters>
            <DistanceMeters>17477.833241237</DistanceMeters>
          </Trackpoint>
          <Trackpoint>
            <Time>2020-02-09T10:15:28.000Z</Time>
            <Position>
              <LatitudeDegrees>38.9388099499046802520751953125</LatitudeDegrees>
              <LongitudeDegrees>-2.81534775160253047943115234375</LongitudeDegrees>
            </Position>
            <AltitudeMeters>904.20001220703125</AltitudeMeters>
            <DistanceMeters>17483.207083853</DistanceMeters>
          </Trackpoint>
          <Trackpoint>
            <Time>2020-02-09T10:15:29.000Z</Time>
            <Position>
              <LatitudeDegrees>38.93878203816711902618408203125</LatitudeDegrees>
              <LongitudeDegrees>-2.81539477407932281494140625</LongitudeDegrees>
            </Position>
            <AltitudeMeters>903.5999755859375</AltitudeMeters>
            <DistanceMeters>17488.326193331</DistanceMeters>
          </Trackpoint>
          <Trackpoint>
            <Time>2020-02-09T10:15:31.000Z</Time>
            <Position>
              <LatitudeDegrees>38.93869168125092983245849609375</LatitudeDegrees>
              <LongitudeDegrees>-2.81546744517982006072998046875</LongitudeDegrees>
            </Position>
            <AltitudeMeters>902.79998779296875</AltitudeMeters>
            <DistanceMeters>17500.188938009</DistanceMeters>
          </Trackpoint>
          <Trackpoint>
            <Time>2020-02-09T10:15:38.000Z</Time>
            <Position>
              <LatitudeDegrees>38.93832773901522159576416015625</LatitudeDegrees>
              <LongitudeDegrees>-2.81572393141686916351318359375</LongitudeDegrees>
            </Position>
            <AltitudeMeters>899</AltitudeMeters>
            <DistanceMeters>17546.383162697</DistanceMeters>
          </Trackpoint>
          <Trackpoint>
            <Time>2020-02-09T10:15:40.000Z</Time>
            <Position>
              <LatitudeDegrees>38.9382272399961948394775390625</LatitudeDegrees>
              <LongitudeDegrees>-2.815800793468952178955078125</LongitudeDegrees>
            </Position>
            <AltitudeMeters>897.79998779296875</AltitudeMeters>
            <DistanceMeters>17559.398700876</DistanceMeters>
          </Trackpoint>
          <Trackpoint>
            <Time>2020-02-09T10:15:43.000Z</Time>
            <Position>
              <LatitudeDegrees>38.93807393498718738555908203125</LatitudeDegrees>
              <LongitudeDegrees>-2.8158787451684474945068359375</LongitudeDegrees>
            </Position>
            <AltitudeMeters>896.20001220703125</AltitudeMeters>
            <DistanceMeters>17577.747963267</DistanceMeters>
          </Trackpoint>
          <Trackpoint>
            <Time>2020-02-09T10:15:46.000Z</Time>
            <Position>
              <LatitudeDegrees>38.93796966411173343658447265625</LatitudeDegrees>
              <LongitudeDegrees>-2.81597455032169818878173828125</LongitudeDegrees>
            </Position>
            <AltitudeMeters>896</AltitudeMeters>
            <DistanceMeters>17592.013052565</DistanceMeters>
          </Trackpoint>
          <Trackpoint>
            <Time>2020-02-09T10:15:48.000Z</Time>
            <Position>
              <LatitudeDegrees>38.937898166477680206298828125</LatitudeDegrees>
              <LongitudeDegrees>-2.81603087671101093292236328125</LongitudeDegrees>
            </Position>
            <AltitudeMeters>895.79998779296875</AltitudeMeters>
            <DistanceMeters>17601.346494987</DistanceMeters>
          </Trackpoint>
          <Trackpoint>
            <Time>2020-02-09T10:15:52.000Z</Time>
            <Position>
              <LatitudeDegrees>38.93773413263261318206787109375</LatitudeDegrees>
              <LongitudeDegrees>-2.8161545097827911376953125</LongitudeDegrees>
            </Position>
            <AltitudeMeters>895.20001220703125</AltitudeMeters>
            <DistanceMeters>17622.510162479</DistanceMeters>
          </Trackpoint>
          <Trackpoint>
            <Time>2020-02-09T10:15:54.000Z</Time>
            <Position>
              <LatitudeDegrees>38.9376569353044033050537109375</LatitudeDegrees>
              <LongitudeDegrees>-2.81622399576008319854736328125</LongitudeDegrees>
            </Position>
            <AltitudeMeters>894.79998779296875</AltitudeMeters>
            <DistanceMeters>17632.999321234</DistanceMeters>
          </Trackpoint>
          <Trackpoint>
            <Time>2020-02-09T10:15:57.000Z</Time>
            <Position>
              <LatitudeDegrees>38.9375402592122554779052734375</LatitudeDegrees>
              <LongitudeDegrees>-2.81628887169063091278076171875</LongitudeDegrees>
            </Position>
            <AltitudeMeters>893.79998779296875</AltitudeMeters>
            <DistanceMeters>17647.147774669</DistanceMeters>
          </Trackpoint>
          <Trackpoint>
            <Time>2020-02-09T10:15:58.000Z</Time>
            <Position>
              <LatitudeDegrees>38.93750078044831752777099609375</LatitudeDegrees>
              <LongitudeDegrees>-2.8163119219243526458740234375</LongitudeDegrees>
            </Position>
            <AltitudeMeters>893.5999755859375</AltitudeMeters>
            <DistanceMeters>17651.974533129</DistanceMeters>
          </Trackpoint>
          <Trackpoint>
            <Time>2020-02-09T10:16:08.000Z</Time>
            <Position>
              <LatitudeDegrees>38.9371858723461627960205078125</LatitudeDegrees>
              <LongitudeDegrees>-2.8163142688572406768798828125</LongitudeDegrees>
            </Position>
            <AltitudeMeters>891.4000244140625</AltitudeMeters>
            <DistanceMeters>17687.025095181</DistanceMeters>
          </Trackpoint>
          <Trackpoint>
            <Time>2020-02-09T10:16:11.000Z</Time>
            <Position>
              <LatitudeDegrees>38.93717296421527862548828125</LatitudeDegrees>
              <LongitudeDegrees>-2.8163082338869571685791015625</LongitudeDegrees>
            </Position>
            <AltitudeMeters>891.20001220703125</AltitudeMeters>
            <DistanceMeters>17688.551450226</DistanceMeters>
          </Trackpoint>
          <Trackpoint>
            <Time>2020-02-09T10:17:09.000Z</Time>
            <Position>
              <LatitudeDegrees>38.93714706413447856903076171875</LatitudeDegrees>
              <LongitudeDegrees>-2.816405631601810455322265625</LongitudeDegrees>
            </Position>
            <AltitudeMeters>891</AltitudeMeters>
            <DistanceMeters>17697.462706717</DistanceMeters>
          </Trackpoint>
          <Trackpoint>
            <Time>2020-02-09T10:17:17.000Z</Time>
            <Position>
              <LatitudeDegrees>38.93686794675886631011962890625</LatitudeDegrees>
              <LongitudeDegrees>-2.816541083157062530517578125</LongitudeDegrees>
            </Position>
            <AltitudeMeters>889</AltitudeMeters>
            <DistanceMeters>17730.668527205</DistanceMeters>
          </Trackpoint>
          <Trackpoint>
            <Time>2020-02-09T10:17:18.000Z</Time>
            <Position>
              <LatitudeDegrees>38.9368257857859134674072265625</LatitudeDegrees>
              <LongitudeDegrees>-2.816539071500301361083984375</LongitudeDegrees>
            </Position>
            <AltitudeMeters>888.4000244140625</AltitudeMeters>
            <DistanceMeters>17735.364423996</DistanceMeters>
          </Trackpoint>
          <Trackpoint>
            <Time>2020-02-09T10:17:28.000Z</Time>
            <Position>
              <LatitudeDegrees>38.93649679608643054962158203125</LatitudeDegrees>
              <LongitudeDegrees>-2.81649582087993621826171875</LongitudeDegrees>
            </Position>
            <AltitudeMeters>884.5999755859375</AltitudeMeters>
            <DistanceMeters>17772.172528394</DistanceMeters>
          </Trackpoint>
          <Trackpoint>
            <Time>2020-02-09T10:17:36.000Z</Time>
            <Position>
              <LatitudeDegrees>38.93622237257659435272216796875</LatitudeDegrees>
              <LongitudeDegrees>-2.816287614405155181884765625</LongitudeDegrees>
            </Position>
            <AltitudeMeters>878.20001220703125</AltitudeMeters>
            <DistanceMeters>17807.638759211</DistanceMeters>
          </Trackpoint>
          <Trackpoint>
            <Time>2020-02-09T10:17:38.000Z</Time>
            <Position>
              <LatitudeDegrees>38.936129920184612274169921875</LatitudeDegrees>
              <LongitudeDegrees>-2.8162592835724353790283203125</LongitudeDegrees>
            </Position>
            <AltitudeMeters>875.4000244140625</AltitudeMeters>
            <DistanceMeters>17818.217072275</DistanceMeters>
          </Trackpoint>
          <Trackpoint>
            <Time>2020-02-09T10:17:41.000Z</Time>
            <Position>
              <LatitudeDegrees>38.93598969094455242156982421875</LatitudeDegrees>
              <LongitudeDegrees>-2.81619901768863201141357421875</LongitudeDegrees>
            </Position>
            <AltitudeMeters>871.20001220703125</AltitudeMeters>
            <DistanceMeters>17834.673987318</DistanceMeters>
          </Trackpoint>
          <Trackpoint>
            <Time>2020-02-09T10:17:45.000Z</Time>
            <Position>
              <LatitudeDegrees>38.93593923188745975494384765625</LatitudeDegrees>
              <LongitudeDegrees>-2.81615492887794971466064453125</LongitudeDegrees>
            </Position>
            <AltitudeMeters>869.4000244140625</AltitudeMeters>
            <DistanceMeters>17841.464242859</DistanceMeters>
          </Trackpoint>
          <Trackpoint>
            <Time>2020-02-09T10:32:32.000Z</Time>
            <Position>
              <LatitudeDegrees>38.9357606135308742523193359375</LatitudeDegrees>
              <LongitudeDegrees>-2.81601763330399990081787109375</LongitudeDegrees>
            </Position>
            <AltitudeMeters>864.20001220703125</AltitudeMeters>
            <DistanceMeters>17864.627382154</DistanceMeters>
          </Trackpoint>
          <Trackpoint>
            <Time>2020-02-09T10:32:38.000Z</Time>
            <Position>
              <LatitudeDegrees>38.935681991279125213623046875</LatitudeDegrees>
              <LongitudeDegrees>-2.81597002409398555755615234375</LongitudeDegrees>
            </Position>
            <AltitudeMeters>862.4000244140625</AltitudeMeters>
            <DistanceMeters>17874.300522912</DistanceMeters>
          </Trackpoint>
          <Trackpoint>
            <Time>2020-02-09T10:34:22.000Z</Time>
            <Position>
              <LatitudeDegrees>38.93566547892987728118896484375</LatitudeDegrees>
              <LongitudeDegrees>-2.81591252423822879791259765625</LongitudeDegrees>
            </Position>
            <AltitudeMeters>861.79998779296875</AltitudeMeters>
            <DistanceMeters>17879.608426312</DistanceMeters>
          </Trackpoint>
          <Trackpoint>
            <Time>2020-02-09T10:34:31.000Z</Time>
            <Position>
              <LatitudeDegrees>38.935468085110187530517578125</LatitudeDegrees>
              <LongitudeDegrees>-2.81577304936945438385009765625</LongitudeDegrees>
            </Position>
            <AltitudeMeters>858.79998779296875</AltitudeMeters>
            <DistanceMeters>17904.678375466</DistanceMeters>
          </Trackpoint>
          <Trackpoint>
            <Time>2020-02-09T10:34:36.000Z</Time>
            <Position>
              <LatitudeDegrees>38.9353026263415813446044921875</LatitudeDegrees>
              <LongitudeDegrees>-2.815699540078639984130859375</LongitudeDegrees>
            </Position>
            <AltitudeMeters>856</AltitudeMeters>
            <DistanceMeters>17924.162791645</DistanceMeters>
          </Trackpoint>
          <Trackpoint>
            <Time>2020-02-09T10:34:39.000Z</Time>
            <Position>
              <LatitudeDegrees>38.93513892777264118194580078125</LatitudeDegrees>
              <LongitudeDegrees>-2.81572409905493259429931640625</LongitudeDegrees>
            </Position>
            <AltitudeMeters>853.79998779296875</AltitudeMeters>
            <DistanceMeters>17942.50639376</DistanceMeters>
          </Trackpoint>
          <Trackpoint>
            <Time>2020-02-09T10:34:41.000Z</Time>
            <Position>
              <LatitudeDegrees>38.93502610735595226287841796875</LatitudeDegrees>
              <LongitudeDegrees>-2.81579031608998775482177734375</LongitudeDegrees>
            </Position>
            <AltitudeMeters>852.79998779296875</AltitudeMeters>
            <DistanceMeters>17956.30982134</DistanceMeters>
          </Trackpoint>
          <Trackpoint>
            <Time>2020-02-09T10:34:44.000Z</Time>
            <Position>
              <LatitudeDegrees>38.93483935855329036712646484375</LatitudeDegrees>
              <LongitudeDegrees>-2.8159109316766262054443359375</LongitudeDegrees>
            </Position>
            <AltitudeMeters>850.79998779296875</AltitudeMeters>
            <DistanceMeters>17979.57099458</DistanceMeters>
          </Trackpoint>
          <Trackpoint>
            <Time>2020-02-09T10:34:46.000Z</Time>
            <Position>
              <LatitudeDegrees>38.93472100608050823211669921875</LatitudeDegrees>
              <LongitudeDegrees>-2.8159253485500812530517578125</LongitudeDegrees>
            </Position>
            <AltitudeMeters>850.20001220703125</AltitudeMeters>
            <DistanceMeters>17992.802590179</DistanceMeters>
          </Trackpoint>
          <Trackpoint>
            <Time>2020-02-09T10:34:48.000Z</Time>
            <Position>
              <LatitudeDegrees>38.93461086787283420562744140625</LatitudeDegrees>
              <LongitudeDegrees>-2.81590280123054981231689453125</LongitudeDegrees>
            </Position>
            <AltitudeMeters>849.79998779296875</AltitudeMeters>
            <DistanceMeters>18005.21585826</DistanceMeters>
          </Trackpoint>
          <Trackpoint>
            <Time>2020-02-09T10:34:50.000Z</Time>
            <Position>
              <LatitudeDegrees>38.93453878350555896759033203125</LatitudeDegrees>
              <LongitudeDegrees>-2.8159297071397304534912109375</LongitudeDegrees>
            </Position>
            <AltitudeMeters>849.20001220703125</AltitudeMeters>
            <DistanceMeters>18013.570646762</DistanceMeters>
          </Trackpoint>
          <Trackpoint>
            <Time>2020-02-09T10:34:51.000Z</Time>
            <Position>
              <LatitudeDegrees>38.93452302552759647369384765625</LatitudeDegrees>
              <LongitudeDegrees>-2.815953008830547332763671875</LongitudeDegrees>
            </Position>
            <AltitudeMeters>849</AltitudeMeters>
            <DistanceMeters>18016.244935554</DistanceMeters>
          </Trackpoint>
          <Trackpoint>
            <Time>2020-02-09T10:34:56.000Z</Time>
            <Position>
              <LatitudeDegrees>38.93448480404913425445556640625</LatitudeDegrees>
              <LongitudeDegrees>-2.816019393503665924072265625</LongitudeDegrees>
            </Position>
            <AltitudeMeters>848.20001220703125</AltitudeMeters>
            <DistanceMeters>18023.395972045</DistanceMeters>
          </Trackpoint>
          <Trackpoint>
            <Time>2020-02-09T10:35:01.000Z</Time>
            <Position>
              <LatitudeDegrees>38.9344828762114048004150390625</LatitudeDegrees>
              <LongitudeDegrees>-2.81604596413671970367431640625</LongitudeDegrees>
            </Position>
            <AltitudeMeters>848</AltitudeMeters>
            <DistanceMeters>18025.706118183</DistanceMeters>
          </Trackpoint>
          <Trackpoint>
            <Time>2020-02-09T10:36:16.000Z</Time>
            <Position>
              <LatitudeDegrees>38.93444222398102283477783203125</LatitudeDegrees>
              <LongitudeDegrees>-2.81608955003321170806884765625</LongitudeDegrees>
            </Position>
            <AltitudeMeters>847.4000244140625</AltitudeMeters>
            <DistanceMeters>18031.597774474</DistanceMeters>
          </Trackpoint>
          <Trackpoint>
            <Time>2020-02-09T10:36:22.000Z</Time>
            <Position>
              <LatitudeDegrees>38.9343608357012271881103515625</LatitudeDegrees>
              <LongitudeDegrees>-2.81627596355974674224853515625</LongitudeDegrees>
            </Position>
            <AltitudeMeters>846</AltitudeMeters>
            <DistanceMeters>18050.105553643</DistanceMeters>
          </Trackpoint>
          <Trackpoint>
            <Time>2020-02-09T10:36:27.000Z</Time>
            <Position>
              <LatitudeDegrees>38.934276513755321502685546875</LatitudeDegrees>
              <LongitudeDegrees>-2.81650478951632976531982421875</LongitudeDegrees>
            </Position>
            <AltitudeMeters>844.79998779296875</AltitudeMeters>
            <DistanceMeters>18072.027085937</DistanceMeters>
          </Trackpoint>
          <Trackpoint>
            <Time>2020-02-09T10:36:31.000Z</Time>
            <Position>
              <LatitudeDegrees>38.9342446625232696533203125</LatitudeDegrees>
              <LongitudeDegrees>-2.8167279995977878570556640625</LongitudeDegrees>
            </Position>
            <AltitudeMeters>843.20001220703125</AltitudeMeters>
            <DistanceMeters>18091.674878891</DistanceMeters>
          </Trackpoint>
          <Trackpoint>
            <Time>2020-02-09T10:36:32.000Z</Time>
            <Position>
              <LatitudeDegrees>38.9342367835342884063720703125</LatitudeDegrees>
              <LongitudeDegrees>-2.81679061241447925567626953125</LongitudeDegrees>
            </Position>
            <AltitudeMeters>842.79998779296875</AltitudeMeters>
            <DistanceMeters>18097.166732433</DistanceMeters>
          </Trackpoint>
          <Trackpoint>
            <Time>2020-02-09T10:36:33.000Z</Time>
            <Position>
              <LatitudeDegrees>38.9342190138995647430419921875</LatitudeDegrees>
              <LongitudeDegrees>-2.81685112975537776947021484375</LongitudeDegrees>
            </Position>
            <AltitudeMeters>842.5999755859375</AltitudeMeters>
            <DistanceMeters>18102.767668566</DistanceMeters>
          </Trackpoint>
          <Trackpoint>
            <Time>2020-02-09T10:36:35.000Z</Time>
            <Position>
              <LatitudeDegrees>38.93414583988487720489501953125</LatitudeDegrees>
              <LongitudeDegrees>-2.81695003621280193328857421875</LongitudeDegrees>
            </Position>
            <AltitudeMeters>842.4000244140625</AltitudeMeters>
            <DistanceMeters>18114.585416333</DistanceMeters>
          </Trackpoint>
          <Trackpoint>
            <Time>2020-02-09T10:36:38.000Z</Time>
            <Position>
              <LatitudeDegrees>38.93400653265416622161865234375</LatitudeDegrees>
              <LongitudeDegrees>-2.81706218607723712921142578125</LongitudeDegrees>
            </Position>
            <AltitudeMeters>842.79998779296875</AltitudeMeters>
            <DistanceMeters>18132.88021842</DistanceMeters>
          </Trackpoint>
          <Trackpoint>
            <Time>2020-02-09T10:36:42.000Z</Time>
            <Position>
              <LatitudeDegrees>38.933848701417446136474609375</LatitudeDegrees>
              <LongitudeDegrees>-2.8170763514935970306396484375</LongitudeDegrees>
            </Position>
            <AltitudeMeters>843.79998779296875</AltitudeMeters>
            <DistanceMeters>18150.489927536</DistanceMeters>
          </Trackpoint>
          <Trackpoint>
            <Time>2020-02-09T10:36:52.000Z</Time>
            <Position>
              <LatitudeDegrees>38.93367075361311435699462890625</LatitudeDegrees>
              <LongitudeDegrees>-2.8168996609747409820556640625</LongitudeDegrees>
            </Position>
            <AltitudeMeters>846.20001220703125</AltitudeMeters>
            <DistanceMeters>18175.515713874</DistanceMeters>
          </Trackpoint>
          <Trackpoint>
            <Time>2020-02-09T10:36:54.000Z</Time>
            <Position>
              <LatitudeDegrees>38.93364829011261463165283203125</LatitudeDegrees>
              <LongitudeDegrees>-2.81684073619544506072998046875</LongitudeDegrees>
            </Position>
            <AltitudeMeters>846.79998779296875</AltitudeMeters>
            <DistanceMeters>18181.196690305</DistanceMeters>
          </Trackpoint>
          <Trackpoint>
            <Time>2020-02-09T10:36:57.000Z</Time>
            <Position>
              <LatitudeDegrees>38.9335769601166248321533203125</LatitudeDegrees>
              <LongitudeDegrees>-2.8168185241520404815673828125</LongitudeDegrees>
            </Position>
            <AltitudeMeters>847.4000244140625</AltitudeMeters>
            <DistanceMeters>18189.365672183</DistanceMeters>
          </Trackpoint>
          <Trackpoint>
            <Time>2020-02-09T10:37:02.000Z</Time>
            <Position>
              <LatitudeDegrees>38.9334361441433429718017578125</LatitudeDegrees>
              <LongitudeDegrees>-2.8168862499296665191650390625</LongitudeDegrees>
            </Position>
            <AltitudeMeters>851</AltitudeMeters>
            <DistanceMeters>18206.099550112</DistanceMeters>
          </Trackpoint>
          <Trackpoint>
            <Time>2020-02-09T10:37:05.000Z</Time>
            <Position>
              <LatitudeDegrees>38.93337504006922245025634765625</LatitudeDegrees>
              <LongitudeDegrees>-2.8169484436511993408203125</LongitudeDegrees>
            </Position>
            <AltitudeMeters>852.5999755859375</AltitudeMeters>
            <DistanceMeters>18214.773568611</DistanceMeters>
          </Trackpoint>
          <Trackpoint>
            <Time>2020-02-09T10:37:12.000Z</Time>
            <Position>
              <LatitudeDegrees>38.933409489691257476806640625</LatitudeDegrees>
              <LongitudeDegrees>-2.8171688877046108245849609375</LongitudeDegrees>
            </Position>
            <AltitudeMeters>850.20001220703125</AltitudeMeters>
            <DistanceMeters>18234.240829543</DistanceMeters>
          </Trackpoint>
          <Trackpoint>
            <Time>2020-02-09T10:37:22.000Z</Time>
            <Position>
              <LatitudeDegrees>38.93349188379943370819091796875</LatitudeDegrees>
              <LongitudeDegrees>-2.817507684230804443359375</LongitudeDegrees>
            </Position>
            <AltitudeMeters>845.5999755859375</AltitudeMeters>
            <DistanceMeters>18264.973708936</DistanceMeters>
          </Trackpoint>
          <Trackpoint>
            <Time>2020-02-09T10:37:32.000Z</Time>
            <Position>
              <LatitudeDegrees>38.9334720186889171600341796875</LatitudeDegrees>
              <LongitudeDegrees>-2.81789400614798069000244140625</LongitudeDegrees>
            </Position>
            <AltitudeMeters>843.20001220703125</AltitudeMeters>
            <DistanceMeters>18298.494037274</DistanceMeters>
          </Trackpoint>
          <Trackpoint>
            <Time>2020-02-09T10:37:42.000Z</Time>
            <Position>
              <LatitudeDegrees>38.93334000371396541595458984375</LatitudeDegrees>
              <LongitudeDegrees>-2.818171866238117218017578125</LongitudeDegrees>
            </Position>
            <AltitudeMeters>844.4000244140625</AltitudeMeters>
            <DistanceMeters>18326.68335612</DistanceMeters>
          </Trackpoint>
          <Trackpoint>
            <Time>2020-02-09T10:37:45.000Z</Time>
            <Position>
              <LatitudeDegrees>38.9332737028598785400390625</LatitudeDegrees>
              <LongitudeDegrees>-2.8183296136558055877685546875</LongitudeDegrees>
            </Position>
            <AltitudeMeters>844.79998779296875</AltitudeMeters>
            <DistanceMeters>18342.207359474</DistanceMeters>
          </Trackpoint>
          <Trackpoint>
            <Time>2020-02-09T10:37:48.000Z</Time>
            <Position>
              <LatitudeDegrees>38.93320958130061626434326171875</LatitudeDegrees>
              <LongitudeDegrees>-2.8185103274881839752197265625</LongitudeDegrees>
            </Position>
            <AltitudeMeters>844.4000244140625</AltitudeMeters>
            <DistanceMeters>18359.40430698</DistanceMeters>
          </Trackpoint>
          <Trackpoint>
            <Time>2020-02-09T10:37:51.000Z</Time>
            <Position>
              <LatitudeDegrees>38.93314361572265625</LatitudeDegrees>
              <LongitudeDegrees>-2.8186699189245700836181640625</LongitudeDegrees>
            </Position>
            <AltitudeMeters>844.20001220703125</AltitudeMeters>
            <DistanceMeters>18375.051430123</DistanceMeters>
          </Trackpoint>
          <Trackpoint>
            <Time>2020-02-09T10:37:52.000Z</Time>
            <Position>
              <LatitudeDegrees>38.9331240020692348480224609375</LatitudeDegrees>
              <LongitudeDegrees>-2.81872767023742198944091796875</LongitudeDegrees>
            </Position>
            <AltitudeMeters>844</AltitudeMeters>
            <DistanceMeters>18380.506989852</DistanceMeters>
          </Trackpoint>
          <Trackpoint>
            <Time>2020-02-09T10:38:03.000Z</Time>
            <Position>
              <LatitudeDegrees>38.9329526759684085845947265625</LatitudeDegrees>
              <LongitudeDegrees>-2.8192583285272121429443359375</LongitudeDegrees>
            </Position>
            <AltitudeMeters>844.5999755859375</AltitudeMeters>
            <DistanceMeters>18430.251273823</DistanceMeters>
          </Trackpoint>
          <Trackpoint>
            <Time>2020-02-09T10:38:10.000Z</Time>
            <Position>
              <LatitudeDegrees>38.93288302235305309295654296875</LatitudeDegrees>
              <LongitudeDegrees>-2.81956695020198822021484375</LongitudeDegrees>
            </Position>
            <AltitudeMeters>846.20001220703125</AltitudeMeters>
            <DistanceMeters>18458.073498984</DistanceMeters>
          </Trackpoint>
          <Trackpoint>
            <Time>2020-02-09T10:38:13.000Z</Time>
            <Position>
              <LatitudeDegrees>38.93289509229362010955810546875</LatitudeDegrees>
              <LongitudeDegrees>-2.8197246976196765899658203125</LongitudeDegrees>
            </Position>
            <AltitudeMeters>846.4000244140625</AltitudeMeters>
            <DistanceMeters>18471.797212199</DistanceMeters>
          </Trackpoint>
          <Trackpoint>
            <Time>2020-02-09T10:38:15.000Z</Time>
            <Position>
              <LatitudeDegrees>38.93293440341949462890625</LatitudeDegrees>
              <LongitudeDegrees>-2.8198162280023097991943359375</LongitudeDegrees>
            </Position>
            <AltitudeMeters>846</AltitudeMeters>
            <DistanceMeters>18480.849223779</DistanceMeters>
          </Trackpoint>
          <Trackpoint>
            <Time>2020-02-09T10:38:22.000Z</Time>
            <Position>
              <LatitudeDegrees>38.93312685191631317138671875</LatitudeDegrees>
              <LongitudeDegrees>-2.8201364167034626007080078125</LongitudeDegrees>
            </Position>
            <AltitudeMeters>845.20001220703125</AltitudeMeters>
            <DistanceMeters>18515.88239149</DistanceMeters>
          </Trackpoint>
          <Trackpoint>
            <Time>2020-02-09T10:38:23.000Z</Time>
            <Position>
              <LatitudeDegrees>38.93315945751965045928955078125</LatitudeDegrees>
              <LongitudeDegrees>-2.82018075697124004364013671875</LongitudeDegrees>
            </Position>
            <AltitudeMeters>845.5999755859375</AltitudeMeters>
            <DistanceMeters>18521.16556916</DistanceMeters>
          </Trackpoint>
          <Trackpoint>
            <Time>2020-02-09T10:38:29.000Z</Time>
            <Position>
              <LatitudeDegrees>38.93337470479309558868408203125</LatitudeDegrees>
              <LongitudeDegrees>-2.8203808329999446868896484375</LongitudeDegrees>
            </Position>
            <AltitudeMeters>846.20001220703125</AltitudeMeters>
            <DistanceMeters>18550.72972244</DistanceMeters>
          </Trackpoint>
          <Trackpoint>
            <Time>2020-02-09T10:38:31.000Z</Time>
            <Position>
              <LatitudeDegrees>38.93344997428357601165771484375</LatitudeDegrees>
              <LongitudeDegrees>-2.82042969949543476104736328125</LongitudeDegrees>
            </Position>
            <AltitudeMeters>845.79998779296875</AltitudeMeters>
            <DistanceMeters>18560.114783209</DistanceMeters>
          </Trackpoint>
          <Trackpoint>
            <Time>2020-02-09T10:38:32.000Z</Time>
            <Position>
              <LatitudeDegrees>38.933491967618465423583984375</LatitudeDegrees>
              <LongitudeDegrees>-2.8204519115388393402099609375</LongitudeDegrees>
            </Position>
            <AltitudeMeters>845.5999755859375</AltitudeMeters>
            <DistanceMeters>18565.168203455</DistanceMeters>
          </Trackpoint>
          <Trackpoint>
            <Time>2020-02-09T10:38:36.000Z</Time>
            <Position>
              <LatitudeDegrees>38.9336634613573551177978515625</LatitudeDegrees>
              <LongitudeDegrees>-2.820568419992923736572265625</LongitudeDegrees>
            </Position>
            <AltitudeMeters>845.79998779296875</AltitudeMeters>
            <DistanceMeters>18586.757051631</DistanceMeters>
          </Trackpoint>
          <Trackpoint>
            <Time>2020-02-09T10:38:42.000Z</Time>
            <Position>
              <LatitudeDegrees>38.933897316455841064453125</LatitudeDegrees>
              <LongitudeDegrees>-2.8207358904182910919189453125</LongitudeDegrees>
            </Position>
            <AltitudeMeters>845.20001220703125</AltitudeMeters>
            <DistanceMeters>18616.551525865</DistanceMeters>
          </Trackpoint>
          <Trackpoint>
            <Time>2020-02-09T10:38:52.000Z</Time>
            <Position>
              <LatitudeDegrees>38.9342232048511505126953125</LatitudeDegrees>
              <LongitudeDegrees>-2.820933870971202850341796875</LongitudeDegrees>
            </Position>
            <AltitudeMeters>841</AltitudeMeters>
            <DistanceMeters>18656.669571865</DistanceMeters>
          </Trackpoint>
          <Trackpoint>
            <Time>2020-02-09T10:39:03.000Z</Time>
            <Position>
              <LatitudeDegrees>38.93449075520038604736328125</LatitudeDegrees>
              <LongitudeDegrees>-2.8210517205297946929931640625</LongitudeDegrees>
            </Position>
            <AltitudeMeters>836.79998779296875</AltitudeMeters>
            <DistanceMeters>18688.147950927</DistanceMeters>
          </Trackpoint>
          <Trackpoint>
            <Time>2020-02-09T10:39:14.000Z</Time>
            <Position>
              <LatitudeDegrees>38.93437231890857219696044921875</LatitudeDegrees>
              <LongitudeDegrees>-2.82151197083294391632080078125</LongitudeDegrees>
            </Position>
            <AltitudeMeters>838.20001220703125</AltitudeMeters>
            <DistanceMeters>18730.119433779</DistanceMeters>
          </Trackpoint>
          <Trackpoint>
            <Time>2020-02-09T10:39:16.000Z</Time>
            <Position>
              <LatitudeDegrees>38.9342867396771907806396484375</LatitudeDegrees>
              <LongitudeDegrees>-2.82164775766432285308837890625</LongitudeDegrees>
            </Position>
            <AltitudeMeters>841.20001220703125</AltitudeMeters>
            <DistanceMeters>18745.249883145</DistanceMeters>
          </Trackpoint>
          <Trackpoint>
            <Time>2020-02-09T10:39:20.000Z</Time>
            <Position>
              <LatitudeDegrees>38.9340889267623424530029296875</LatitudeDegrees>
              <LongitudeDegrees>-2.82189636491239070892333984375</LongitudeDegrees>
            </Position>
            <AltitudeMeters>844.5999755859375</AltitudeMeters>
            <DistanceMeters>18776.039858388</DistanceMeters>
          </Trackpoint>
          <Trackpoint>
            <Time>2020-02-09T10:39:24.000Z</Time>
            <Position>
              <LatitudeDegrees>38.93395171500742435455322265625</LatitudeDegrees>
              <LongitudeDegrees>-2.82219559885561466217041015625</LongitudeDegrees>
            </Position>
            <AltitudeMeters>844</AltitudeMeters>
            <DistanceMeters>18806.113373918</DistanceMeters>
          </Trackpoint>
          <Trackpoint>
            <Time>2020-02-09T10:39:26.000Z</Time>
            <Position>
              <LatitudeDegrees>38.93389530479907989501953125</LatitudeDegrees>
              <LongitudeDegrees>-2.82232250086963176727294921875</LongitudeDegrees>
            </Position>
            <AltitudeMeters>844.4000244140625</AltitudeMeters>
            <DistanceMeters>18818.767992666</DistanceMeters>
          </Trackpoint>
          <Trackpoint>
            <Time>2020-02-09T10:39:29.000Z</Time>
            <Position>
              <LatitudeDegrees>38.93380955792963504791259765625</LatitudeDegrees>
              <LongitudeDegrees>-2.82251863740384578704833984375</LongitudeDegrees>
            </Position>
            <AltitudeMeters>845</AltitudeMeters>
            <DistanceMeters>18838.246846637</DistanceMeters>
          </Trackpoint>
          <Trackpoint>
            <Time>2020-02-09T10:39:34.000Z</Time>
            <Position>
              <LatitudeDegrees>38.93375775776803493499755859375</LatitudeDegrees>
              <LongitudeDegrees>-2.82267906703054904937744140625</LongitudeDegrees>
            </Position>
            <AltitudeMeters>843.4000244140625</AltitudeMeters>
            <DistanceMeters>18853.285706122</DistanceMeters>
          </Trackpoint>
          <Trackpoint>
            <Time>2020-02-09T10:39:44.000Z</Time>
            <Position>
              <LatitudeDegrees>38.9335739426314830780029296875</LatitudeDegrees>
              <LongitudeDegrees>-2.822868414223194122314453125</LongitudeDegrees>
            </Position>
            <AltitudeMeters>843.5999755859375</AltitudeMeters>
            <DistanceMeters>18879.502403825</DistanceMeters>
          </Trackpoint>
          <Trackpoint>
            <Time>2020-02-09T10:39:54.000Z</Time>
            <Position>
              <LatitudeDegrees>38.93337386660277843475341796875</LatitudeDegrees>
              <LongitudeDegrees>-2.823002524673938751220703125</LongitudeDegrees>
            </Position>
            <AltitudeMeters>845.5999755859375</AltitudeMeters>
            <DistanceMeters>18904.616617916</DistanceMeters>
          </Trackpoint>
          <Trackpoint>
            <Time>2020-02-09T10:40:04.000Z</Time>
            <Position>
              <LatitudeDegrees>38.93316306173801422119140625</LatitudeDegrees>
              <LongitudeDegrees>-2.82318047247827053070068359375</LongitudeDegrees>
            </Position>
            <AltitudeMeters>847</AltitudeMeters>
            <DistanceMeters>18932.685714263</DistanceMeters>
          </Trackpoint>
          <Trackpoint>
            <Time>2020-02-09T10:40:14.000Z</Time>
            <Position>
              <LatitudeDegrees>38.93293079920113086700439453125</LatitudeDegrees>
              <LongitudeDegrees>-2.8234248049557209014892578125</LongitudeDegrees>
            </Position>
            <AltitudeMeters>847.79998779296875</AltitudeMeters>
            <DistanceMeters>18966.088922276</DistanceMeters>
          </Trackpoint>
          <Trackpoint>
            <Time>2020-02-09T10:40:24.000Z</Time>
            <Position>
              <LatitudeDegrees>38.93275729380548000335693359375</LatitudeDegrees>
              <LongitudeDegrees>-2.8238378651440143585205078125</LongitudeDegrees>
            </Position>
            <AltitudeMeters>845</AltitudeMeters>
            <DistanceMeters>19006.732371244</DistanceMeters>
          </Trackpoint>
          <Trackpoint>
            <Time>2020-02-09T10:40:34.000Z</Time>
            <Position>
              <LatitudeDegrees>38.9326723851263523101806640625</LatitudeDegrees>
              <LongitudeDegrees>-2.82427095808088779449462890625</LongitudeDegrees>
            </Position>
            <AltitudeMeters>840.4000244140625</AltitudeMeters>
            <DistanceMeters>19045.402289773</DistanceMeters>
          </Trackpoint>
          <Trackpoint>
            <Time>2020-02-09T10:40:43.000Z</Time>
            <Position>
              <LatitudeDegrees>38.9326301403343677520751953125</LatitudeDegrees>
              <LongitudeDegrees>-2.82471251673996448516845703125</LongitudeDegrees>
            </Position>
            <AltitudeMeters>839.20001220703125</AltitudeMeters>
            <DistanceMeters>19083.920592174</DistanceMeters>
          </Trackpoint>
          <Trackpoint>
            <Time>2020-02-09T10:40:44.000Z</Time>
            <Position>
              <LatitudeDegrees>38.9326298050582408905029296875</LatitudeDegrees>
              <LongitudeDegrees>-2.824765741825103759765625</LongitudeDegrees>
            </Position>
            <AltitudeMeters>839</AltitudeMeters>
            <DistanceMeters>19088.528163087</DistanceMeters>
          </Trackpoint>
          <Trackpoint>
            <Time>2020-02-09T10:40:54.000Z</Time>
            <Position>
              <LatitudeDegrees>38.9326489157974720001220703125</LatitudeDegrees>
              <LongitudeDegrees>-2.825292460620403289794921875</LongitudeDegrees>
            </Position>
            <AltitudeMeters>836.5999755859375</AltitudeMeters>
            <DistanceMeters>19134.181156677</DistanceMeters>
          </Trackpoint>
          <Trackpoint>
            <Time>2020-02-09T10:41:04.000Z</Time>
            <Position>
              <LatitudeDegrees>38.932518325746059417724609375</LatitudeDegrees>
              <LongitudeDegrees>-2.82572337426245212554931640625</LongitudeDegrees>
            </Position>
            <AltitudeMeters>838.5999755859375</AltitudeMeters>
            <DistanceMeters>19174.221133848</DistanceMeters>
          </Trackpoint>
          <Trackpoint>
            <Time>2020-02-09T10:41:09.000Z</Time>
            <Position>
              <LatitudeDegrees>38.93237608484923839569091796875</LatitudeDegrees>
              <LongitudeDegrees>-2.8259370289742946624755859375</LongitudeDegrees>
            </Position>
            <AltitudeMeters>842</AltitudeMeters>
            <DistanceMeters>19198.569121826</DistanceMeters>
          </Trackpoint>
          <Trackpoint>
            <Time>2020-02-09T10:41:14.000Z</Time>
            <Position>
              <LatitudeDegrees>38.93231187947094440460205078125</LatitudeDegrees>
              <LongitudeDegrees>-2.82616577111184597015380859375</LongitudeDegrees>
            </Position>
            <AltitudeMeters>844.20001220703125</AltitudeMeters>
            <DistanceMeters>19219.623490794</DistanceMeters>
          </Trackpoint>
          <Trackpoint>
            <Time>2020-02-09T10:41:16.000Z</Time>
            <Position>
              <LatitudeDegrees>38.93227600492537021636962890625</LatitudeDegrees>
              <LongitudeDegrees>-2.82626752741634845733642578125</LongitudeDegrees>
            </Position>
            <AltitudeMeters>845.20001220703125</AltitudeMeters>
            <DistanceMeters>19229.296631551</DistanceMeters>
          </Trackpoint>
          <Trackpoint>
            <Time>2020-02-09T10:41:24.000Z</Time>
            <Position>
              <LatitudeDegrees>38.93229863606393337249755859375</LatitudeDegrees>
              <LongitudeDegrees>-2.82674060203135013580322265625</LongitudeDegrees>
            </Position>
            <AltitudeMeters>844.5999755859375</AltitudeMeters>
            <DistanceMeters>19270.333101499</DistanceMeters>
          </Trackpoint>
          <Trackpoint>
            <Time>2020-02-09T10:41:32.000Z</Time>
            <Position>
              <LatitudeDegrees>38.93227902241051197052001953125</LatitudeDegrees>
              <LongitudeDegrees>-2.8272452764213085174560546875</LongitudeDegrees>
            </Position>
            <AltitudeMeters>842.20001220703125</AltitudeMeters>
            <DistanceMeters>19314.082661876</DistanceMeters>
          </Trackpoint>
          <Trackpoint>
            <Time>2020-02-09T10:41:35.000Z</Time>
            <Position>
              <LatitudeDegrees>38.93223593942821025848388671875</LatitudeDegrees>
              <LongitudeDegrees>-2.827377878129482269287109375</LongitudeDegrees>
            </Position>
            <AltitudeMeters>843</AltitudeMeters>
            <DistanceMeters>19326.524994075</DistanceMeters>
          </Trackpoint>
          <Trackpoint>
            <Time>2020-02-09T10:41:45.000Z</Time>
            <Position>
              <LatitudeDegrees>38.93210652284324169158935546875</LatitudeDegrees>
              <LongitudeDegrees>-2.827592454850673675537109375</LongitudeDegrees>
            </Position>
            <AltitudeMeters>845.5999755859375</AltitudeMeters>
            <DistanceMeters>19350.032920785</DistanceMeters>
          </Trackpoint>
          <Trackpoint>
            <Time>2020-02-09T10:41:47.000Z</Time>
            <Position>
              <LatitudeDegrees>38.9321074448525905609130859375</LatitudeDegrees>
              <LongitudeDegrees>-2.82759605906903743743896484375</LongitudeDegrees>
            </Position>
            <AltitudeMeters>845.4000244140625</AltitudeMeters>
            <DistanceMeters>19350.36210298</DistanceMeters>
          </Trackpoint>
          <Trackpoint>
            <Time>2020-02-09T10:41:58.000Z</Time>
            <Position>
              <LatitudeDegrees>38.93211574293673038482666015625</LatitudeDegrees>
              <LongitudeDegrees>-2.827650122344493865966796875</LongitudeDegrees>
            </Position>
            <AltitudeMeters>845</AltitudeMeters>
            <DistanceMeters>19355.134298784</DistanceMeters>
          </Trackpoint>
          <Trackpoint>
            <Time>2020-02-09T10:42:00.000Z</Time>
            <Position>
              <LatitudeDegrees>38.932097218930721282958984375</LatitudeDegrees>
              <LongitudeDegrees>-2.82768876291811466217041015625</LongitudeDegrees>
            </Position>
            <AltitudeMeters>845.20001220703125</AltitudeMeters>
            <DistanceMeters>19359.063857375</DistanceMeters>
          </Trackpoint>
          <Trackpoint>
            <Time>2020-02-09T10:42:02.000Z</Time>
            <Position>
              <LatitudeDegrees>38.9320586621761322021484375</LatitudeDegrees>
              <LongitudeDegrees>-2.8277384676039218902587890625</LongitudeDegrees>
            </Position>
            <AltitudeMeters>846</AltitudeMeters>
            <DistanceMeters>19365.142596784</DistanceMeters>
          </Trackpoint>
          <Trackpoint>
            <Time>2020-02-09T10:42:05.000Z</Time>
            <Position>
              <LatitudeDegrees>38.93203175626695156097412109375</LatitudeDegrees>
              <LongitudeDegrees>-2.82783729024231433868408203125</LongitudeDegrees>
            </Position>
            <AltitudeMeters>846.4000244140625</AltitudeMeters>
            <DistanceMeters>19374.207567586</DistanceMeters>
          </Trackpoint>
          <Trackpoint>
            <Time>2020-02-09T10:42:14.000Z</Time>
            <Position>
              <LatitudeDegrees>38.93188457004725933074951171875</LatitudeDegrees>
              <LongitudeDegrees>-2.82818044535815715789794921875</LongitudeDegrees>
            </Position>
            <AltitudeMeters>848.79998779296875</AltitudeMeters>
            <DistanceMeters>19408.135431719</DistanceMeters>
          </Trackpoint>
          <Trackpoint>
            <Time>2020-02-09T10:42:15.000Z</Time>
            <Position>
              <LatitudeDegrees>38.93186621367931365966796875</LatitudeDegrees>
              <LongitudeDegrees>-2.82824791967868804931640625</LongitudeDegrees>
            </Position>
            <AltitudeMeters>849.20001220703125</AltitudeMeters>
            <DistanceMeters>19414.324582249</DistanceMeters>
          </Trackpoint>
          <Trackpoint>
            <Time>2020-02-09T10:42:16.000Z</Time>
            <Position>
              <LatitudeDegrees>38.93186059780418872833251953125</LatitudeDegrees>
              <LongitudeDegrees>-2.82832176424562931060791015625</LongitudeDegrees>
            </Position>
            <AltitudeMeters>849.20001220703125</AltitudeMeters>
            <DistanceMeters>19420.748556824</DistanceMeters>
          </Trackpoint>
          <Trackpoint>
            <Time>2020-02-09T10:42:20.000Z</Time>
            <Position>
              <LatitudeDegrees>38.9318717457354068756103515625</LatitudeDegrees>
              <LongitudeDegrees>-2.82867095433175563812255859375</LongitudeDegrees>
            </Position>
            <AltitudeMeters>852</AltitudeMeters>
            <DistanceMeters>19451.007217417</DistanceMeters>
          </Trackpoint>
          <Trackpoint>
            <Time>2020-02-09T10:42:22.000Z</Time>
            <Position>
              <LatitudeDegrees>38.93191709183156490325927734375</LatitudeDegrees>
              <LongitudeDegrees>-2.828818894922733306884765625</LongitudeDegrees>
            </Position>
            <AltitudeMeters>852.4000244140625</AltitudeMeters>
            <DistanceMeters>19464.774617483</DistanceMeters>
          </Trackpoint>
          <Trackpoint>
            <Time>2020-02-09T10:42:24.000Z</Time>
            <Position>
              <LatitudeDegrees>38.93198347650468349456787109375</LatitudeDegrees>
              <LongitudeDegrees>-2.82896029762923717498779296875</LongitudeDegrees>
            </Position>
            <AltitudeMeters>853</AltitudeMeters>
            <DistanceMeters>19479.074164713</DistanceMeters>
          </Trackpoint>
          <Trackpoint>
            <Time>2020-02-09T10:42:33.000Z</Time>
            <Position>
              <LatitudeDegrees>38.9322968758642673492431640625</LatitudeDegrees>
              <LongitudeDegrees>-2.829522974789142608642578125</LongitudeDegrees>
            </Position>
            <AltitudeMeters>851.79998779296875</AltitudeMeters>
            <DistanceMeters>19538.991654247</DistanceMeters>
          </Trackpoint>
          <Trackpoint>
            <Time>2020-02-09T10:42:34.000Z</Time>
            <Position>
              <LatitudeDegrees>38.9323364384472370147705078125</LatitudeDegrees>
              <LongitudeDegrees>-2.8295727632939815521240234375</LongitudeDegrees>
            </Position>
            <AltitudeMeters>851.5999755859375</AltitudeMeters>
            <DistanceMeters>19545.153021089</DistanceMeters>
          </Trackpoint>
          <Trackpoint>
            <Time>2020-02-09T10:42:43.000Z</Time>
            <Position>
              <LatitudeDegrees>38.93271270208060741424560546875</LatitudeDegrees>
              <LongitudeDegrees>-2.830070145428180694580078125</LongitudeDegrees>
            </Position>
            <AltitudeMeters>842.4000244140625</AltitudeMeters>
            <DistanceMeters>19605.222232722</DistanceMeters>
          </Trackpoint>
          <Trackpoint>
            <Time>2020-02-09T10:42:44.000Z</Time>
            <Position>
              <LatitudeDegrees>38.9327484928071498870849609375</LatitudeDegrees>
              <LongitudeDegrees>-2.83012202940881252288818359375</LongitudeDegrees>
            </Position>
            <AltitudeMeters>842.4000244140625</AltitudeMeters>
            <DistanceMeters>19611.226988773</DistanceMeters>
          </Trackpoint>
          <Trackpoint>
            <Time>2020-02-09T10:42:51.000Z</Time>
            <Position>
              <LatitudeDegrees>38.932975642383098602294921875</LatitudeDegrees>
              <LongitudeDegrees>-2.8303656913340091705322265625</LongitudeDegrees>
            </Position>
            <AltitudeMeters>845.20001220703125</AltitudeMeters>
            <DistanceMeters>19644.155082231</DistanceMeters>
          </Trackpoint>
          <Trackpoint>
            <Time>2020-02-09T10:42:54.000Z</Time>
            <Position>
              <LatitudeDegrees>38.93305133096873760223388671875</LatitudeDegrees>
              <LongitudeDegrees>-2.83048010431230068206787109375</LongitudeDegrees>
            </Position>
            <AltitudeMeters>847</AltitudeMeters>
            <DistanceMeters>19657.158820597</DistanceMeters>
          </Trackpoint>
          <Trackpoint>
            <Time>2020-02-09T10:43:04.000Z</Time>
            <Position>
              <LatitudeDegrees>38.93314537592232227325439453125</LatitudeDegrees>
              <LongitudeDegrees>-2.83086081035435199737548828125</LongitudeDegrees>
            </Position>
            <AltitudeMeters>845.79998779296875</AltitudeMeters>
            <DistanceMeters>19691.742539671</DistanceMeters>
          </Trackpoint>
          <Trackpoint>
            <Time>2020-02-09T10:43:14.000Z</Time>
            <Position>
              <LatitudeDegrees>38.93301595933735370635986328125</LatitudeDegrees>
              <LongitudeDegrees>-2.83130907453596591949462890625</LongitudeDegrees>
            </Position>
            <AltitudeMeters>845.4000244140625</AltitudeMeters>
            <DistanceMeters>19733.13995466</DistanceMeters>
          </Trackpoint>
          <Trackpoint>
            <Time>2020-02-09T10:43:21.000Z</Time>
            <Position>
              <LatitudeDegrees>38.93285837955772876739501953125</LatitudeDegrees>
              <LongitudeDegrees>-2.8316008485853672027587890625</LongitudeDegrees>
            </Position>
            <AltitudeMeters>847.20001220703125</AltitudeMeters>
            <DistanceMeters>19763.893394897</DistanceMeters>
          </Trackpoint>
          <Trackpoint>
            <Time>2020-02-09T10:43:23.000Z</Time>
            <Position>
              <LatitudeDegrees>38.93279333598911762237548828125</LatitudeDegrees>
              <LongitudeDegrees>-2.8316724300384521484375</LongitudeDegrees>
            </Position>
            <AltitudeMeters>848.79998779296875</AltitudeMeters>
            <DistanceMeters>19773.423584238</DistanceMeters>
          </Trackpoint>
          <Trackpoint>
            <Time>2020-02-09T10:43:24.000Z</Time>
            <Position>
              <LatitudeDegrees>38.93275109119713306427001953125</LatitudeDegrees>
              <LongitudeDegrees>-2.83170537091791629791259765625</LongitudeDegrees>
            </Position>
            <AltitudeMeters>849.79998779296875</AltitudeMeters>
            <DistanceMeters>19778.923652973</DistanceMeters>
          </Trackpoint>
          <Trackpoint>
            <Time>2020-02-09T10:43:26.000Z</Time>
            <Position>
              <LatitudeDegrees>38.9326680265367031097412109375</LatitudeDegrees>
              <LongitudeDegrees>-2.83178164623677730560302734375</LongitudeDegrees>
            </Position>
            <AltitudeMeters>850.4000244140625</AltitudeMeters>
            <DistanceMeters>19790.284811043</DistanceMeters>
          </Trackpoint>
          <Trackpoint>
            <Time>2020-02-09T10:43:34.000Z</Time>
            <Position>
              <LatitudeDegrees>38.9322781004011631011962890625</LatitudeDegrees>
              <LongitudeDegrees>-2.83228606916964054107666015625</LongitudeDegrees>
            </Position>
            <AltitudeMeters>847.5999755859375</AltitudeMeters>
            <DistanceMeters>19851.85478921</DistanceMeters>
          </Trackpoint>
          <Trackpoint>
            <Time>2020-02-09T10:43:35.000Z</Time>
            <Position>
              <LatitudeDegrees>38.93221733160316944122314453125</LatitudeDegrees>
              <LongitudeDegrees>-2.83234926871955394744873046875</LongitudeDegrees>
            </Position>
            <AltitudeMeters>847.5999755859375</AltitudeMeters>
            <DistanceMeters>19860.554795</DistanceMeters>
          </Trackpoint>
          <Trackpoint>
            <Time>2020-02-09T10:43:43.000Z</Time>
            <Position>
              <LatitudeDegrees>38.93177191726863384246826171875</LatitudeDegrees>
              <LongitudeDegrees>-2.83281966112554073333740234375</LongitudeDegrees>
            </Position>
            <AltitudeMeters>846.5999755859375</AltitudeMeters>
            <DistanceMeters>19924.714085266</DistanceMeters>
          </Trackpoint>
          <Trackpoint>
            <Time>2020-02-09T10:43:44.000Z</Time>
            <Position>
              <LatitudeDegrees>38.93167519010603427886962890625</LatitudeDegrees>
              <LongitudeDegrees>-2.832894511520862579345703125</LongitudeDegrees>
            </Position>
            <AltitudeMeters>846.5999755859375</AltitudeMeters>
            <DistanceMeters>19937.279908626</DistanceMeters>
          </Trackpoint>
          <Trackpoint>
            <Time>2020-02-09T10:43:45.000Z</Time>
            <Position>
              <LatitudeDegrees>38.93167519010603427886962890625</LatitudeDegrees>
              <LongitudeDegrees>-2.832894511520862579345703125</LongitudeDegrees>
            </Position>
            <AltitudeMeters>846.5999755859375</AltitudeMeters>
            <DistanceMeters>19937.279908626</DistanceMeters>
          </Trackpoint>
          <Trackpoint>
            <Time>2020-02-09T10:43:51.000Z</Time>
            <Position>
              <LatitudeDegrees>38.93143571913242340087890625</LatitudeDegrees>
              <LongitudeDegrees>-2.83313029445707798004150390625</LongitudeDegrees>
            </Position>
            <AltitudeMeters>845.79998779296875</AltitudeMeters>
            <DistanceMeters>19970.853130574</DistanceMeters>
          </Trackpoint>
          <Trackpoint>
            <Time>2020-02-09T10:43:55.000Z</Time>
            <Position>
              <LatitudeDegrees>38.93128794617950916290283203125</LatitudeDegrees>
              <LongitudeDegrees>-2.833280079066753387451171875</LongitudeDegrees>
            </Position>
            <AltitudeMeters>845.4000244140625</AltitudeMeters>
            <DistanceMeters>19991.798277358</DistanceMeters>
          </Trackpoint>
          <Trackpoint>
            <Time>2020-02-09T10:43:57.000Z</Time>
            <Position>
              <LatitudeDegrees>38.93120412714779376983642578125</LatitudeDegrees>
              <LongitudeDegrees>-2.8333251737058162689208984375</LongitudeDegrees>
            </Position>
            <AltitudeMeters>846</AltitudeMeters>
            <DistanceMeters>20001.911370149</DistanceMeters>
          </Trackpoint>
          <Trackpoint>
            <Time>2020-02-09T10:44:06.000Z</Time>
            <Position>
              <LatitudeDegrees>38.93087647855281829833984375</LatitudeDegrees>
              <LongitudeDegrees>-2.83350513316690921783447265625</LongitudeDegrees>
            </Position>
            <AltitudeMeters>851.4000244140625</AltitudeMeters>
            <DistanceMeters>20041.568489857</DistanceMeters>
          </Trackpoint>
          <Trackpoint>
            <Time>2020-02-09T10:44:17.000Z</Time>
            <Position>
              <LatitudeDegrees>38.9304600656032562255859375</LatitudeDegrees>
              <LongitudeDegrees>-2.83390830270946025848388671875</LongitudeDegrees>
            </Position>
            <AltitudeMeters>856.5999755859375</AltitudeMeters>
            <DistanceMeters>20099.591073306</DistanceMeters>
          </Trackpoint>
          <Trackpoint>
            <Time>2020-02-09T10:44:25.000Z</Time>
            <Position>
              <LatitudeDegrees>38.93012948334217071533203125</LatitudeDegrees>
              <LongitudeDegrees>-2.83449335955083370208740234375</LongitudeDegrees>
            </Position>
            <AltitudeMeters>855.20001220703125</AltitudeMeters>
            <DistanceMeters>20162.199905619</DistanceMeters>
          </Trackpoint>
          <Trackpoint>
            <Time>2020-02-09T10:44:27.000Z</Time>
            <Position>
              <LatitudeDegrees>38.93005144782364368438720703125</LatitudeDegrees>
              <LongitudeDegrees>-2.83467709086835384368896484375</LongitudeDegrees>
            </Position>
            <AltitudeMeters>854</AltitudeMeters>
            <DistanceMeters>20180.324865785</DistanceMeters>
          </Trackpoint>
          <Trackpoint>
            <Time>2020-02-09T10:44:28.000Z</Time>
            <Position>
              <LatitudeDegrees>38.9300267212092876434326171875</LatitudeDegrees>
              <LongitudeDegrees>-2.8347755782306194305419921875</LongitudeDegrees>
            </Position>
            <AltitudeMeters>853</AltitudeMeters>
            <DistanceMeters>20189.285638059</DistanceMeters>
          </Trackpoint>
          <Trackpoint>
            <Time>2020-02-09T10:44:35.000Z</Time>
            <Position>
              <LatitudeDegrees>38.92996896989643573760986328125</LatitudeDegrees>
              <LongitudeDegrees>-2.835488207638263702392578125</LongitudeDegrees>
            </Position>
            <AltitudeMeters>842</AltitudeMeters>
            <DistanceMeters>20251.321417887</DistanceMeters>
          </Trackpoint>
          <Trackpoint>
            <Time>2020-02-09T10:44:36.000Z</Time>
            <Position>
              <LatitudeDegrees>38.92995941452682018280029296875</LatitudeDegrees>
              <LongitudeDegrees>-2.8355775587260723114013671875</LongitudeDegrees>
            </Position>
            <AltitudeMeters>841.20001220703125</AltitudeMeters>
            <DistanceMeters>20259.130393891</DistanceMeters>
          </Trackpoint>
          <Trackpoint>
            <Time>2020-02-09T10:44:38.000Z</Time>
            <Position>
              <LatitudeDegrees>38.9299499429762363433837890625</LatitudeDegrees>
              <LongitudeDegrees>-2.8357426822185516357421875</LongitudeDegrees>
            </Position>
            <AltitudeMeters>840</AltitudeMeters>
            <DistanceMeters>20273.466520978</DistanceMeters>
          </Trackpoint>
          <Trackpoint>
            <Time>2020-02-09T10:44:46.000Z</Time>
            <Position>
              <LatitudeDegrees>38.93000870011746883392333984375</LatitudeDegrees>
              <LongitudeDegrees>-2.83628826029598712921142578125</LongitudeDegrees>
            </Position>
            <AltitudeMeters>835.4000244140625</AltitudeMeters>
            <DistanceMeters>20321.155069522</DistanceMeters>
          </Trackpoint>
          <Trackpoint>
            <Time>2020-02-09T10:44:56.000Z</Time>
            <Position>
              <LatitudeDegrees>38.9300858974456787109375</LatitudeDegrees>
              <LongitudeDegrees>-2.8366273082792758941650390625</LongitudeDegrees>
            </Position>
            <AltitudeMeters>834.4000244140625</AltitudeMeters>
            <DistanceMeters>20351.742455161</DistanceMeters>
          </Trackpoint>
          <Trackpoint>
            <Time>2020-02-09T10:45:06.000Z</Time>
            <Position>
              <LatitudeDegrees>38.9302218519151210784912109375</LatitudeDegrees>
              <LongitudeDegrees>-2.8368750773370265960693359375</LongitudeDegrees>
            </Position>
            <AltitudeMeters>833.4000244140625</AltitudeMeters>
            <DistanceMeters>20377.994950173</DistanceMeters>
          </Trackpoint>
          <Trackpoint>
            <Time>2020-02-09T10:45:17.000Z</Time>
            <Position>
              <LatitudeDegrees>38.93040667288005352020263671875</LatitudeDegrees>
              <LongitudeDegrees>-2.83723331987857818603515625</LongitudeDegrees>
            </Position>
            <AltitudeMeters>832.20001220703125</AltitudeMeters>
            <DistanceMeters>20415.214137522</DistanceMeters>
          </Trackpoint>
          <Trackpoint>
            <Time>2020-02-09T10:45:27.000Z</Time>
            <Position>
              <LatitudeDegrees>38.93057984299957752227783203125</LatitudeDegrees>
              <LongitudeDegrees>-2.8376175463199615478515625</LongitudeDegrees>
            </Position>
            <AltitudeMeters>834.79998779296875</AltitudeMeters>
            <DistanceMeters>20453.661809934</DistanceMeters>
          </Trackpoint>
          <Trackpoint>
            <Time>2020-02-09T10:45:33.000Z</Time>
            <Position>
              <LatitudeDegrees>38.93071177415549755096435546875</LatitudeDegrees>
              <LongitudeDegrees>-2.8378685005009174346923828125</LongitudeDegrees>
            </Position>
            <AltitudeMeters>836</AltitudeMeters>
            <DistanceMeters>20479.886772892</DistanceMeters>
          </Trackpoint>
          <Trackpoint>
            <Time>2020-02-09T10:45:37.000Z</Time>
            <Position>
              <LatitudeDegrees>38.93078838475048542022705078125</LatitudeDegrees>
              <LongitudeDegrees>-2.8380539081990718841552734375</LongitudeDegrees>
            </Position>
            <AltitudeMeters>835.79998779296875</AltitudeMeters>
            <DistanceMeters>20498.063970065</DistanceMeters>
          </Trackpoint>
          <Trackpoint>
            <Time>2020-02-09T10:45:39.000Z</Time>
            <Position>
              <LatitudeDegrees>38.93082694150507450103759765625</LatitudeDegrees>
              <LongitudeDegrees>-2.83814736641943454742431640625</LongitudeDegrees>
            </Position>
            <AltitudeMeters>835.5999755859375</AltitudeMeters>
            <DistanceMeters>20507.223086298</DistanceMeters>
          </Trackpoint>
          <Trackpoint>
            <Time>2020-02-09T10:45:47.000Z</Time>
            <Position>
              <LatitudeDegrees>38.9309906400740146636962890625</LatitudeDegrees>
              <LongitudeDegrees>-2.83853041939437389373779296875</LongitudeDegrees>
            </Position>
            <AltitudeMeters>835.4000244140625</AltitudeMeters>
            <DistanceMeters>20545.064007825</DistanceMeters>
          </Trackpoint>
          <Trackpoint>
            <Time>2020-02-09T10:45:57.000Z</Time>
            <Position>
              <LatitudeDegrees>38.931186608970165252685546875</LatitudeDegrees>
              <LongitudeDegrees>-2.83894993364810943603515625</LongitudeDegrees>
            </Position>
            <AltitudeMeters>836.4000244140625</AltitudeMeters>
            <DistanceMeters>20587.432284119</DistanceMeters>
          </Trackpoint>
          <Trackpoint>
            <Time>2020-02-09T10:46:07.000Z</Time>
            <Position>
              <LatitudeDegrees>38.9313291013240814208984375</LatitudeDegrees>
              <LongitudeDegrees>-2.839388810098171234130859375</LongitudeDegrees>
            </Position>
            <AltitudeMeters>835.20001220703125</AltitudeMeters>
            <DistanceMeters>20628.607919787</DistanceMeters>
          </Trackpoint>
          <Trackpoint>
            <Time>2020-02-09T10:46:17.000Z</Time>
            <Position>
              <LatitudeDegrees>38.9314452745020389556884765625</LatitudeDegrees>
              <LongitudeDegrees>-2.83987370319664478302001953125</LongitudeDegrees>
            </Position>
            <AltitudeMeters>835.5999755859375</AltitudeMeters>
            <DistanceMeters>20672.536890027</DistanceMeters>
          </Trackpoint>
          <Trackpoint>
            <Time>2020-02-09T10:46:27.000Z</Time>
            <Position>
              <LatitudeDegrees>38.93152666278183460235595703125</LatitudeDegrees>
              <LongitudeDegrees>-2.84038080833852291107177734375</LongitudeDegrees>
            </Position>
            <AltitudeMeters>835.20001220703125</AltitudeMeters>
            <DistanceMeters>20717.36754911</DistanceMeters>
          </Trackpoint>
          <Trackpoint>
            <Time>2020-02-09T10:46:28.000Z</Time>
            <Position>
              <LatitudeDegrees>38.931535296142101287841796875</LatitudeDegrees>
              <LongitudeDegrees>-2.84043478779494762420654296875</LongitudeDegrees>
            </Position>
            <AltitudeMeters>835.20001220703125</AltitudeMeters>
            <DistanceMeters>20722.138798707</DistanceMeters>
          </Trackpoint>
          <Trackpoint>
            <Time>2020-02-09T10:46:34.000Z</Time>
            <Position>
              <LatitudeDegrees>38.93156982958316802978515625</LatitudeDegrees>
              <LongitudeDegrees>-2.8407448343932628631591796875</LongitudeDegrees>
            </Position>
            <AltitudeMeters>833.5999755859375</AltitudeMeters>
            <DistanceMeters>20749.256899036</DistanceMeters>
          </Trackpoint>
          <Trackpoint>
            <Time>2020-02-09T10:46:36.000Z</Time>
            <Position>
              <LatitudeDegrees>38.9315347932279109954833984375</LatitudeDegrees>
              <LongitudeDegrees>-2.84084650687873363494873046875</LongitudeDegrees>
            </Position>
            <AltitudeMeters>833.20001220703125</AltitudeMeters>
            <DistanceMeters>20758.884657586</DistanceMeters>
          </Trackpoint>
          <Trackpoint>
            <Time>2020-02-09T10:46:37.000Z</Time>
            <Position>
              <LatitudeDegrees>38.93151023425161838531494140625</LatitudeDegrees>
              <LongitudeDegrees>-2.84089763648808002471923828125</LongitudeDegrees>
            </Position>
            <AltitudeMeters>833</AltitudeMeters>
            <DistanceMeters>20764.087749856</DistanceMeters>
          </Trackpoint>
          <Trackpoint>
            <Time>2020-02-09T10:46:47.000Z</Time>
            <Position>
              <LatitudeDegrees>38.93123899586498737335205078125</LatitudeDegrees>
              <LongitudeDegrees>-2.84140306524932384490966796875</LongitudeDegrees>
            </Position>
            <AltitudeMeters>833</AltitudeMeters>
            <DistanceMeters>20817.251778362</DistanceMeters>
          </Trackpoint>
          <Trackpoint>
            <Time>2020-02-09T10:46:48.000Z</Time>
            <Position>
              <LatitudeDegrees>38.9311934821307659149169921875</LatitudeDegrees>
              <LongitudeDegrees>-2.84150331281125545501708984375</LongitudeDegrees>
            </Position>
            <AltitudeMeters>833</AltitudeMeters>
            <DistanceMeters>20827.301274616</DistanceMeters>
          </Trackpoint>
          <Trackpoint>
            <Time>2020-02-09T10:46:54.000Z</Time>
            <Position>
              <LatitudeDegrees>38.93105207942426204681396484375</LatitudeDegrees>
              <LongitudeDegrees>-2.8417070768773555755615234375</LongitudeDegrees>
            </Position>
            <AltitudeMeters>833</AltitudeMeters>
            <DistanceMeters>20850.943264205</DistanceMeters>
          </Trackpoint>
          <Trackpoint>
            <Time>2020-02-09T10:46:57.000Z</Time>
            <Position>
              <LatitudeDegrees>38.93094780854880809783935546875</LatitudeDegrees>
              <LongitudeDegrees>-2.84178963862359523773193359375</LongitudeDegrees>
            </Position>
            <AltitudeMeters>833.79998779296875</AltitudeMeters>
            <DistanceMeters>20864.573553738</DistanceMeters>
          </Trackpoint>
          <Trackpoint>
            <Time>2020-02-09T10:47:04.000Z</Time>
            <Position>
              <LatitudeDegrees>38.9307240955531597137451171875</LatitudeDegrees>
              <LongitudeDegrees>-2.84192274324595928192138671875</LongitudeDegrees>
            </Position>
            <AltitudeMeters>835.5999755859375</AltitudeMeters>
            <DistanceMeters>20892.010779415</DistanceMeters>
          </Trackpoint>
          <Trackpoint>
            <Time>2020-02-09T10:47:06.000Z</Time>
            <Position>
              <LatitudeDegrees>38.93073432147502899169921875</LatitudeDegrees>
              <LongitudeDegrees>-2.841993235051631927490234375</LongitudeDegrees>
            </Position>
            <AltitudeMeters>836</AltitudeMeters>
            <DistanceMeters>20898.218868192</DistanceMeters>
          </Trackpoint>
          <Trackpoint>
            <Time>2020-02-09T10:47:07.000Z</Time>
            <Position>
              <LatitudeDegrees>38.930757455527782440185546875</LatitudeDegrees>
              <LongitudeDegrees>-2.8420286066830158233642578125</LongitudeDegrees>
            </Position>
            <AltitudeMeters>836.4000244140625</AltitudeMeters>
            <DistanceMeters>20902.219030121</DistanceMeters>
          </Trackpoint>
          <Trackpoint>
            <Time>2020-02-09T10:47:08.000Z</Time>
            <Position>
              <LatitudeDegrees>38.93079391680657863616943359375</LatitudeDegrees>
              <LongitudeDegrees>-2.8420537523925304412841796875</LongitudeDegrees>
            </Position>
            <AltitudeMeters>836.5999755859375</AltitudeMeters>
            <DistanceMeters>20906.824640782</DistanceMeters>
          </Trackpoint>
          <Trackpoint>
            <Time>2020-02-09T10:47:11.000Z</Time>
            <Position>
              <LatitudeDegrees>38.9309353195130825042724609375</LatitudeDegrees>
              <LongitudeDegrees>-2.84211250953376293182373046875</LongitudeDegrees>
            </Position>
            <AltitudeMeters>837.5999755859375</AltitudeMeters>
            <DistanceMeters>20923.365295428</DistanceMeters>
          </Trackpoint>
          <Trackpoint>
            <Time>2020-02-09T10:47:14.000Z</Time>
            <Position>
              <LatitudeDegrees>38.93107336945831775665283203125</LatitudeDegrees>
              <LongitudeDegrees>-2.84222356975078582763671875</LongitudeDegrees>
            </Position>
            <AltitudeMeters>839</AltitudeMeters>
            <DistanceMeters>20941.491251991</DistanceMeters>
          </Trackpoint>
          <Trackpoint>
            <Time>2020-02-09T10:47:17.000Z</Time>
            <Position>
              <LatitudeDegrees>38.931238241493701934814453125</LatitudeDegrees>
              <LongitudeDegrees>-2.8422894515097141265869140625</LongitudeDegrees>
            </Position>
            <AltitudeMeters>839.4000244140625</AltitudeMeters>
            <DistanceMeters>20960.708040905</DistanceMeters>
          </Trackpoint>
          <Trackpoint>
            <Time>2020-02-09T10:47:20.000Z</Time>
            <Position>
              <LatitudeDegrees>38.931402862071990966796875</LatitudeDegrees>
              <LongitudeDegrees>-2.8422757051885128021240234375</LongitudeDegrees>
            </Position>
            <AltitudeMeters>838.5999755859375</AltitudeMeters>
            <DistanceMeters>20979.069602226</DistanceMeters>
          </Trackpoint>
          <Trackpoint>
            <Time>2020-02-09T10:47:22.000Z</Time>
            <Position>
              <LatitudeDegrees>38.93149598501622676849365234375</LatitudeDegrees>
              <LongitudeDegrees>-2.84220085479319095611572265625</LongitudeDegrees>
            </Position>
            <AltitudeMeters>837.4000244140625</AltitudeMeters>
            <DistanceMeters>20991.293746572</DistanceMeters>
          </Trackpoint>
          <Trackpoint>
            <Time>2020-02-09T10:47:24.000Z</Time>
            <Position>
              <LatitudeDegrees>38.9315810613334178924560546875</LatitudeDegrees>
              <LongitudeDegrees>-2.84209440462291240692138671875</LongitudeDegrees>
            </Position>
            <AltitudeMeters>836</AltitudeMeters>
            <DistanceMeters>21004.507586215</DistanceMeters>
          </Trackpoint>
          <Trackpoint>
            <Time>2020-02-09T10:47:26.000Z</Time>
            <Position>
              <LatitudeDegrees>38.93168826587498188018798828125</LatitudeDegrees>
              <LongitudeDegrees>-2.84206490032374858856201171875</LongitudeDegrees>
            </Position>
            <AltitudeMeters>835</AltitudeMeters>
            <DistanceMeters>21016.709919209</DistanceMeters>
          </Trackpoint>
          <Trackpoint>
            <Time>2020-02-09T10:47:27.000Z</Time>
            <Position>
              <LatitudeDegrees>38.931741155683994293212890625</LatitudeDegrees>
              <LongitudeDegrees>-2.842080406844615936279296875</LongitudeDegrees>
            </Position>
            <AltitudeMeters>834.79998779296875</AltitudeMeters>
            <DistanceMeters>21022.747668674</DistanceMeters>
          </Trackpoint>
          <Trackpoint>
            <Time>2020-02-09T10:47:38.000Z</Time>
            <Position>
              <LatitudeDegrees>38.93222051672637462615966796875</LatitudeDegrees>
              <LongitudeDegrees>-2.84225349314510822296142578125</LongitudeDegrees>
            </Position>
            <AltitudeMeters>834.79998779296875</AltitudeMeters>
            <DistanceMeters>21078.166088348</DistanceMeters>
          </Trackpoint>
          <Trackpoint>
            <Time>2020-02-09T10:47:48.000Z</Time>
            <Position>
              <LatitudeDegrees>38.93256031908094882965087890625</LatitudeDegrees>
              <LongitudeDegrees>-2.8422002680599689483642578125</LongitudeDegrees>
            </Position>
            <AltitudeMeters>832.20001220703125</AltitudeMeters>
            <DistanceMeters>21116.266468515</DistanceMeters>
          </Trackpoint>
          <Trackpoint>
            <Time>2020-02-09T10:47:58.000Z</Time>
            <Position>
              <LatitudeDegrees>38.93289173953235149383544921875</LatitudeDegrees>
              <LongitudeDegrees>-2.84213866107165813446044921875</LongitudeDegrees>
            </Position>
            <AltitudeMeters>831</AltitudeMeters>
            <DistanceMeters>21153.537782415</DistanceMeters>
          </Trackpoint>
          <Trackpoint>
            <Time>2020-02-09T10:48:08.000Z</Time>
            <Position>
              <LatitudeDegrees>38.93322047777473926544189453125</LatitudeDegrees>
              <LongitudeDegrees>-2.8421224839985370635986328125</LongitudeDegrees>
            </Position>
            <AltitudeMeters>831</AltitudeMeters>
            <DistanceMeters>21190.153783971</DistanceMeters>
          </Trackpoint>
          <Trackpoint>
            <Time>2020-02-09T10:48:18.000Z</Time>
            <Position>
              <LatitudeDegrees>38.93359213136136531829833984375</LatitudeDegrees>
              <LongitudeDegrees>-2.84215006045997142791748046875</LongitudeDegrees>
            </Position>
            <AltitudeMeters>831</AltitudeMeters>
            <DistanceMeters>21231.588373672</DistanceMeters>
          </Trackpoint>
          <Trackpoint>
            <Time>2020-02-09T10:48:28.000Z</Time>
            <Position>
              <LatitudeDegrees>38.93398624844849109649658203125</LatitudeDegrees>
              <LongitudeDegrees>-2.842085100710391998291015625</LongitudeDegrees>
            </Position>
            <AltitudeMeters>831</AltitudeMeters>
            <DistanceMeters>21275.81348393</DistanceMeters>
          </Trackpoint>
          <Trackpoint>
            <Time>2020-02-09T10:48:30.000Z</Time>
            <Position>
              <LatitudeDegrees>38.93407174386084079742431640625</LatitudeDegrees>
              <LongitudeDegrees>-2.84210094250738620758056640625</LongitudeDegrees>
            </Position>
            <AltitudeMeters>831</AltitudeMeters>
            <DistanceMeters>21285.427633008</DistanceMeters>
          </Trackpoint>
          <Trackpoint>
            <Time>2020-02-09T10:48:32.000Z</Time>
            <Position>
              <LatitudeDegrees>38.93416293896734714508056640625</LatitudeDegrees>
              <LongitudeDegrees>-2.84216179512441158294677734375</LongitudeDegrees>
            </Position>
            <AltitudeMeters>831</AltitudeMeters>
            <DistanceMeters>21296.863654918</DistanceMeters>
          </Trackpoint>
          <Trackpoint>
            <Time>2020-02-09T10:48:36.000Z</Time>
            <Position>
              <LatitudeDegrees>38.93432848155498504638671875</LatitudeDegrees>
              <LongitudeDegrees>-2.8423182852566242218017578125</LongitudeDegrees>
            </Position>
            <AltitudeMeters>831</AltitudeMeters>
            <DistanceMeters>21319.734119451</DistanceMeters>
          </Trackpoint>
          <Trackpoint>
            <Time>2020-02-09T10:48:38.000Z</Time>
            <Position>
              <LatitudeDegrees>38.93441523425281047821044921875</LatitudeDegrees>
              <LongitudeDegrees>-2.84235759638249874114990234375</LongitudeDegrees>
            </Position>
            <AltitudeMeters>831</AltitudeMeters>
            <DistanceMeters>21329.972338405</DistanceMeters>
          </Trackpoint>
          <Trackpoint>
            <Time>2020-02-09T10:48:39.000Z</Time>
            <Position>
              <LatitudeDegrees>38.93445831723511219024658203125</LatitudeDegrees>
              <LongitudeDegrees>-2.84236463718116283416748046875</LongitudeDegrees>
            </Position>
            <AltitudeMeters>831</AltitudeMeters>
            <DistanceMeters>21334.806574419</DistanceMeters>
          </Trackpoint>
          <Trackpoint>
            <Time>2020-02-09T10:48:41.000Z</Time>
            <Position>
              <LatitudeDegrees>38.93455035053193569183349609375</LatitudeDegrees>
              <LongitudeDegrees>-2.8423588536679744720458984375</LongitudeDegrees>
            </Position>
            <AltitudeMeters>831</AltitudeMeters>
            <DistanceMeters>21345.06241814</DistanceMeters>
          </Trackpoint>
          <Trackpoint>
            <Time>2020-02-09T10:48:48.000Z</Time>
            <Position>
              <LatitudeDegrees>38.9347852952778339385986328125</LatitudeDegrees>
              <LongitudeDegrees>-2.842485420405864715576171875</LongitudeDegrees>
            </Position>
            <AltitudeMeters>831</AltitudeMeters>
            <DistanceMeters>21373.415275055</DistanceMeters>
          </Trackpoint>
          <Trackpoint>
            <Time>2020-02-09T10:48:51.000Z</Time>
            <Position>
              <LatitudeDegrees>38.93486551009118556976318359375</LatitudeDegrees>
              <LongitudeDegrees>-2.8426220454275608062744140625</LongitudeDegrees>
            </Position>
            <AltitudeMeters>831.5999755859375</AltitudeMeters>
            <DistanceMeters>21388.235177864</DistanceMeters>
          </Trackpoint>
          <Trackpoint>
            <Time>2020-02-09T10:48:53.000Z</Time>
            <Position>
              <LatitudeDegrees>38.93491110764443874359130859375</LatitudeDegrees>
              <LongitudeDegrees>-2.8427266515791416168212890625</LongitudeDegrees>
            </Position>
            <AltitudeMeters>832.5999755859375</AltitudeMeters>
            <DistanceMeters>21398.616601772</DistanceMeters>
          </Trackpoint>
          <Trackpoint>
            <Time>2020-02-09T10:48:58.000Z</Time>
            <Position>
              <LatitudeDegrees>38.93507354892790317535400390625</LatitudeDegrees>
              <LongitudeDegrees>-2.842996381223201751708984375</LongitudeDegrees>
            </Position>
            <AltitudeMeters>832.5999755859375</AltitudeMeters>
            <DistanceMeters>21428.150042374</DistanceMeters>
          </Trackpoint>
          <Trackpoint>
            <Time>2020-02-09T10:49:04.000Z</Time>
            <Position>
              <LatitudeDegrees>38.93529600463807582855224609375</LatitudeDegrees>
              <LongitudeDegrees>-2.84327424131333827972412109375</LongitudeDegrees>
            </Position>
            <AltitudeMeters>831</AltitudeMeters>
            <DistanceMeters>21462.671823452</DistanceMeters>
          </Trackpoint>
          <Trackpoint>
            <Time>2020-02-09T10:49:08.000Z</Time>
            <Position>
              <LatitudeDegrees>38.93547520972788333892822265625</LatitudeDegrees>
              <LongitudeDegrees>-2.8433931805193424224853515625</LongitudeDegrees>
            </Position>
            <AltitudeMeters>831</AltitudeMeters>
            <DistanceMeters>21485.118855227</DistanceMeters>
          </Trackpoint>
          <Trackpoint>
            <Time>2020-02-09T10:49:11.000Z</Time>
            <Position>
              <LatitudeDegrees>38.9356063865125179290771484375</LatitudeDegrees>
              <LongitudeDegrees>-2.8434786759316921234130859375</LongitudeDegrees>
            </Position>
            <AltitudeMeters>831</AltitudeMeters>
            <DistanceMeters>21501.488292859</DistanceMeters>
          </Trackpoint>
          <Trackpoint>
            <Time>2020-02-09T10:49:16.000Z</Time>
            <Position>
              <LatitudeDegrees>38.93579036928713321685791015625</LatitudeDegrees>
              <LongitudeDegrees>-2.8436714597046375274658203125</LongitudeDegrees>
            </Position>
            <AltitudeMeters>831</AltitudeMeters>
            <DistanceMeters>21527.90640309</DistanceMeters>
          </Trackpoint>
          <Trackpoint>
            <Time>2020-02-09T10:49:18.000Z</Time>
            <Position>
              <LatitudeDegrees>38.9358352124691009521484375</LatitudeDegrees>
              <LongitudeDegrees>-2.84377665258944034576416015625</LongitudeDegrees>
            </Position>
            <AltitudeMeters>831</AltitudeMeters>
            <DistanceMeters>21538.291305737</DistanceMeters>
          </Trackpoint>
          <Trackpoint>
            <Time>2020-02-09T10:49:26.000Z</Time>
            <Position>
              <LatitudeDegrees>38.93594291992485523223876953125</LatitudeDegrees>
              <LongitudeDegrees>-2.84428845159709453582763671875</LongitudeDegrees>
            </Position>
            <AltitudeMeters>831.5999755859375</AltitudeMeters>
            <DistanceMeters>21584.193930359</DistanceMeters>
          </Trackpoint>
          <Trackpoint>
            <Time>2020-02-09T10:49:28.000Z</Time>
            <Position>
              <LatitudeDegrees>38.9359880983829498291015625</LatitudeDegrees>
              <LongitudeDegrees>-2.8443802334368228912353515625</LongitudeDegrees>
            </Position>
            <AltitudeMeters>831.5999755859375</AltitudeMeters>
            <DistanceMeters>21593.597734834</DistanceMeters>
          </Trackpoint>
          <Trackpoint>
            <Time>2020-02-09T10:49:29.000Z</Time>
            <Position>
              <LatitudeDegrees>38.93600444309413433074951171875</LatitudeDegrees>
              <LongitudeDegrees>-2.84441434778273105621337890625</LongitudeDegrees>
            </Position>
            <AltitudeMeters>831.4000244140625</AltitudeMeters>
            <DistanceMeters>21597.067186073</DistanceMeters>
          </Trackpoint>
          <Trackpoint>
            <Time>2020-02-09T10:49:33.000Z</Time>
            <Position>
              <LatitudeDegrees>38.93601668067276477813720703125</LatitudeDegrees>
              <LongitudeDegrees>-2.844603359699249267578125</LongitudeDegrees>
            </Position>
            <AltitudeMeters>830.79998779296875</AltitudeMeters>
            <DistanceMeters>21613.48784631</DistanceMeters>
          </Trackpoint>
          <Trackpoint>
            <Time>2020-02-09T10:49:36.000Z</Time>
            <Position>
              <LatitudeDegrees>38.93600779585540294647216796875</LatitudeDegrees>
              <LongitudeDegrees>-2.84476119093596935272216796875</LongitudeDegrees>
            </Position>
            <AltitudeMeters>830.4000244140625</AltitudeMeters>
            <DistanceMeters>21627.187851379</DistanceMeters>
          </Trackpoint>
          <Trackpoint>
            <Time>2020-02-09T10:49:38.000Z</Time>
            <Position>
              <LatitudeDegrees>38.9360073767602443695068359375</LatitudeDegrees>
              <LongitudeDegrees>-2.84486244432628154754638671875</LongitudeDegrees>
            </Position>
            <AltitudeMeters>830.20001220703125</AltitudeMeters>
            <DistanceMeters>21635.954033589</DistanceMeters>
          </Trackpoint>
          <Trackpoint>
            <Time>2020-02-09T10:49:40.000Z</Time>
            <Position>
              <LatitudeDegrees>38.9359601028263568878173828125</LatitudeDegrees>
              <LongitudeDegrees>-2.84496051259338855743408203125</LongitudeDegrees>
            </Position>
            <AltitudeMeters>830.5999755859375</AltitudeMeters>
            <DistanceMeters>21645.942240863</DistanceMeters>
          </Trackpoint>
          <Trackpoint>
            <Time>2020-02-09T10:49:43.000Z</Time>
            <Position>
              <LatitudeDegrees>38.93582590855658054351806640625</LatitudeDegrees>
              <LongitudeDegrees>-2.8450598381459712982177734375</LongitudeDegrees>
            </Position>
            <AltitudeMeters>832</AltitudeMeters>
            <DistanceMeters>21663.176953932</DistanceMeters>
          </Trackpoint>
          <Trackpoint>
            <Time>2020-02-09T10:49:45.000Z</Time>
            <Position>
              <LatitudeDegrees>38.93576153554022312164306640625</LatitudeDegrees>
              <LongitudeDegrees>-2.84514860250055789947509765625</LongitudeDegrees>
            </Position>
            <AltitudeMeters>832.20001220703125</AltitudeMeters>
            <DistanceMeters>21673.683316502</DistanceMeters>
          </Trackpoint>
          <Trackpoint>
            <Time>2020-02-09T10:49:47.000Z</Time>
            <Position>
              <LatitudeDegrees>38.935740999877452850341796875</LatitudeDegrees>
              <LongitudeDegrees>-2.84526108764111995697021484375</LongitudeDegrees>
            </Position>
            <AltitudeMeters>831.79998779296875</AltitudeMeters>
            <DistanceMeters>21683.686429871</DistanceMeters>
          </Trackpoint>
          <Trackpoint>
            <Time>2020-02-09T10:49:48.000Z</Time>
            <Position>
              <LatitudeDegrees>38.935740329325199127197265625</LatitudeDegrees>
              <LongitudeDegrees>-2.84531674347817897796630859375</LongitudeDegrees>
            </Position>
            <AltitudeMeters>831.4000244140625</AltitudeMeters>
            <DistanceMeters>21688.504762211</DistanceMeters>
          </Trackpoint>
          <Trackpoint>
            <Time>2020-02-09T10:49:50.000Z</Time>
            <Position>
              <LatitudeDegrees>38.935739658772945404052734375</LatitudeDegrees>
              <LongitudeDegrees>-2.8454279713332653045654296875</LongitudeDegrees>
            </Position>
            <AltitudeMeters>831</AltitudeMeters>
            <DistanceMeters>21698.134865278</DistanceMeters>
          </Trackpoint>
          <Trackpoint>
            <Time>2020-02-09T10:49:52.000Z</Time>
            <Position>
              <LatitudeDegrees>38.93573152832686901092529296875</LatitudeDegrees>
              <LongitudeDegrees>-2.84553852863609790802001953125</LongitudeDegrees>
            </Position>
            <AltitudeMeters>831.4000244140625</AltitudeMeters>
            <DistanceMeters>21707.749483968</DistanceMeters>
          </Trackpoint>
          <Trackpoint>
            <Time>2020-02-09T10:49:55.000Z</Time>
            <Position>
              <LatitudeDegrees>38.9357123337686061859130859375</LatitudeDegrees>
              <LongitudeDegrees>-2.84571203403174877166748046875</LongitudeDegrees>
            </Position>
            <AltitudeMeters>831.79998779296875</AltitudeMeters>
            <DistanceMeters>21722.921950438</DistanceMeters>
          </Trackpoint>
          <Trackpoint>
            <Time>2020-02-09T10:49:58.000Z</Time>
            <Position>
              <LatitudeDegrees>38.93568157218396663665771484375</LatitudeDegrees>
              <LongitudeDegrees>-2.84588017500936985015869140625</LongitudeDegrees>
            </Position>
            <AltitudeMeters>832.4000244140625</AltitudeMeters>
            <DistanceMeters>21737.876208799</DistanceMeters>
          </Trackpoint>
          <Trackpoint>
            <Time>2020-02-09T10:50:08.000Z</Time>
            <Position>
              <LatitudeDegrees>38.93564050085842609405517578125</LatitudeDegrees>
              <LongitudeDegrees>-2.846210338175296783447265625</LongitudeDegrees>
            </Position>
            <AltitudeMeters>831.4000244140625</AltitudeMeters>
            <DistanceMeters>21766.823972682</DistanceMeters>
          </Trackpoint>
          <Trackpoint>
            <Time>2020-02-09T10:50:17.000Z</Time>
            <Position>
              <LatitudeDegrees>38.9356503076851367950439453125</LatitudeDegrees>
              <LongitudeDegrees>-2.846582829952239990234375</LongitudeDegrees>
            </Position>
            <AltitudeMeters>830.4000244140625</AltitudeMeters>
            <DistanceMeters>21799.091664485</DistanceMeters>
          </Trackpoint>
          <Trackpoint>
            <Time>2020-02-09T10:50:18.000Z</Time>
            <Position>
              <LatitudeDegrees>38.93567671068012714385986328125</LatitudeDegrees>
              <LongitudeDegrees>-2.84659431315958499908447265625</LongitudeDegrees>
            </Position>
            <AltitudeMeters>830.20001220703125</AltitudeMeters>
            <DistanceMeters>21802.195708874</DistanceMeters>
          </Trackpoint>
          <Trackpoint>
            <Time>2020-02-09T10:50:28.000Z</Time>
            <Position>
              <LatitudeDegrees>38.93593856133520603179931640625</LatitudeDegrees>
              <LongitudeDegrees>-2.846620380878448486328125</LongitudeDegrees>
            </Position>
            <AltitudeMeters>829.5999755859375</AltitudeMeters>
            <DistanceMeters>21831.42750789</DistanceMeters>
          </Trackpoint>
          <Trackpoint>
            <Time>2020-02-09T10:50:33.000Z</Time>
            <Position>
              <LatitudeDegrees>38.936136625707149505615234375</LatitudeDegrees>
              <LongitudeDegrees>-2.84666002728044986724853515625</LongitudeDegrees>
            </Position>
            <AltitudeMeters>829</AltitudeMeters>
            <DistanceMeters>21853.737951045</DistanceMeters>
          </Trackpoint>
          <Trackpoint>
            <Time>2020-02-09T10:50:38.000Z</Time>
            <Position>
              <LatitudeDegrees>38.93640543334186077117919921875</LatitudeDegrees>
              <LongitudeDegrees>-2.84670948050916194915771484375</LongitudeDegrees>
            </Position>
            <AltitudeMeters>828.20001220703125</AltitudeMeters>
            <DistanceMeters>21883.96167522</DistanceMeters>
          </Trackpoint>
          <Trackpoint>
            <Time>2020-02-09T10:50:47.000Z</Time>
            <Position>
              <LatitudeDegrees>38.93688621930778026580810546875</LatitudeDegrees>
              <LongitudeDegrees>-2.8470701538026332855224609375</LongitudeDegrees>
            </Position>
            <AltitudeMeters>827</AltitudeMeters>
            <DistanceMeters>21945.918218504</DistanceMeters>
          </Trackpoint>
          <Trackpoint>
            <Time>2020-02-09T10:50:48.000Z</Time>
            <Position>
              <LatitudeDegrees>38.936941288411617279052734375</LatitudeDegrees>
              <LongitudeDegrees>-2.847114242613315582275390625</LongitudeDegrees>
            </Position>
            <AltitudeMeters>827.5999755859375</AltitudeMeters>
            <DistanceMeters>21953.139623593</DistanceMeters>
          </Trackpoint>
          <Trackpoint>
            <Time>2020-02-09T10:50:58.000Z</Time>
            <Position>
              <LatitudeDegrees>38.93739684484899044036865234375</LatitudeDegrees>
              <LongitudeDegrees>-2.84759603440761566162109375</LongitudeDegrees>
            </Position>
            <AltitudeMeters>825.20001220703125</AltitudeMeters>
            <DistanceMeters>22018.795862996</DistanceMeters>
          </Trackpoint>
          <Trackpoint>
            <Time>2020-02-09T10:51:00.000Z</Time>
            <Position>
              <LatitudeDegrees>38.937489129602909088134765625</LatitudeDegrees>
              <LongitudeDegrees>-2.8476803563535213470458984375</LongitudeDegrees>
            </Position>
            <AltitudeMeters>824.79998779296875</AltitudeMeters>
            <DistanceMeters>22031.396849632</DistanceMeters>
          </Trackpoint>
          <Trackpoint>
            <Time>2020-02-09T10:51:02.000Z</Time>
            <Position>
              <LatitudeDegrees>38.9375955797731876373291015625</LatitudeDegrees>
              <LongitudeDegrees>-2.84773425199091434478759765625</LongitudeDegrees>
            </Position>
            <AltitudeMeters>824.20001220703125</AltitudeMeters>
            <DistanceMeters>22044.130429357</DistanceMeters>
          </Trackpoint>
          <Trackpoint>
            <Time>2020-02-09T10:51:04.000Z</Time>
            <Position>
              <LatitudeDegrees>38.93771049566566944122314453125</LatitudeDegrees>
              <LongitudeDegrees>-2.84774146042764186859130859375</LongitudeDegrees>
            </Position>
            <AltitudeMeters>823.5999755859375</AltitudeMeters>
            <DistanceMeters>22056.935785977</DistanceMeters>
          </Trackpoint>
          <Trackpoint>
            <Time>2020-02-09T10:51:06.000Z</Time>
            <Position>
              <LatitudeDegrees>38.93782516010105609893798828125</LatitudeDegrees>
              <LongitudeDegrees>-2.8477081842720508575439453125</LongitudeDegrees>
            </Position>
            <AltitudeMeters>823.5999755859375</AltitudeMeters>
            <DistanceMeters>22070.019139105</DistanceMeters>
          </Trackpoint>
          <Trackpoint>
            <Time>2020-02-09T10:51:08.000Z</Time>
            <Position>
              <LatitudeDegrees>38.9379405789077281951904296875</LatitudeDegrees>
              <LongitudeDegrees>-2.8476568870246410369873046875</LongitudeDegrees>
            </Position>
            <AltitudeMeters>823.5999755859375</AltitudeMeters>
            <DistanceMeters>22083.611613642</DistanceMeters>
          </Trackpoint>
          <Trackpoint>
            <Time>2020-02-09T10:51:18.000Z</Time>
            <Position>
              <LatitudeDegrees>38.9384745061397552490234375</LatitudeDegrees>
              <LongitudeDegrees>-2.847397886216640472412109375</LongitudeDegrees>
            </Position>
            <AltitudeMeters>826.4000244140625</AltitudeMeters>
            <DistanceMeters>22147.128140568</DistanceMeters>
          </Trackpoint>
          <Trackpoint>
            <Time>2020-02-09T10:51:21.000Z</Time>
            <Position>
              <LatitudeDegrees>38.93859587609767913818359375</LatitudeDegrees>
              <LongitudeDegrees>-2.84730174578726291656494140625</LongitudeDegrees>
            </Position>
            <AltitudeMeters>827.79998779296875</AltitudeMeters>
            <DistanceMeters>22162.995041061</DistanceMeters>
          </Trackpoint>
          <Trackpoint>
            <Time>2020-02-09T10:51:28.000Z</Time>
            <Position>
              <LatitudeDegrees>38.93883786164224147796630859375</LatitudeDegrees>
              <LongitudeDegrees>-2.8470889292657375335693359375</LongitudeDegrees>
            </Position>
            <AltitudeMeters>828.20001220703125</AltitudeMeters>
            <DistanceMeters>22195.627275655</DistanceMeters>
          </Trackpoint>
          <Trackpoint>
            <Time>2020-02-09T10:51:38.000Z</Time>
            <Position>
              <LatitudeDegrees>38.93918101675808429718017578125</LatitudeDegrees>
              <LongitudeDegrees>-2.84712421707808971405029296875</LongitudeDegrees>
            </Position>
            <AltitudeMeters>823.79998779296875</AltitudeMeters>
            <DistanceMeters>22233.942961321</DistanceMeters>
          </Trackpoint>
          <Trackpoint>
            <Time>2020-02-09T10:51:40.000Z</Time>
            <Position>
              <LatitudeDegrees>38.93922150135040283203125</LatitudeDegrees>
              <LongitudeDegrees>-2.84713997505605220794677734375</LongitudeDegrees>
            </Position>
            <AltitudeMeters>823.4000244140625</AltitudeMeters>
            <DistanceMeters>22238.650381803</DistanceMeters>
          </Trackpoint>
          <Trackpoint>
            <Time>2020-02-09T10:51:44.000Z</Time>
            <Position>
              <LatitudeDegrees>38.93923935480415821075439453125</LatitudeDegrees>
              <LongitudeDegrees>-2.8471298329532146453857421875</LongitudeDegrees>
            </Position>
            <AltitudeMeters>823.4000244140625</AltitudeMeters>
            <DistanceMeters>22240.82148749</DistanceMeters>
          </Trackpoint>
          <Trackpoint>
            <Time>2020-02-09T10:58:11.000Z</Time>
            <Position>
              <LatitudeDegrees>38.93936910666525363922119140625</LatitudeDegrees>
              <LongitudeDegrees>-2.84726603887975215911865234375</LongitudeDegrees>
            </Position>
            <AltitudeMeters>821.5999755859375</AltitudeMeters>
            <DistanceMeters>22259.465622295</DistanceMeters>
          </Trackpoint>
          <Trackpoint>
            <Time>2020-02-09T10:58:13.000Z</Time>
            <Position>
              <LatitudeDegrees>38.93941755406558513641357421875</LatitudeDegrees>
              <LongitudeDegrees>-2.84728079102933406829833984375</LongitudeDegrees>
            </Position>
            <AltitudeMeters>821.5999755859375</AltitudeMeters>
            <DistanceMeters>22265.008213753</DistanceMeters>
          </Trackpoint>
          <Trackpoint>
            <Time>2020-02-09T10:58:17.000Z</Time>
            <Position>
              <LatitudeDegrees>38.93949433229863643646240234375</LatitudeDegrees>
              <LongitudeDegrees>-2.8471315093338489532470703125</LongitudeDegrees>
            </Position>
            <AltitudeMeters>824.5999755859375</AltitudeMeters>
            <DistanceMeters>22280.501648559</DistanceMeters>
          </Trackpoint>
          <Trackpoint>
            <Time>2020-02-09T10:58:27.000Z</Time>
            <Position>
              <LatitudeDegrees>38.9394872076809406280517578125</LatitudeDegrees>
              <LongitudeDegrees>-2.846775613725185394287109375</LongitudeDegrees>
            </Position>
            <AltitudeMeters>827.4000244140625</AltitudeMeters>
            <DistanceMeters>22311.322256299</DistanceMeters>
          </Trackpoint>
          <Trackpoint>
            <Time>2020-02-09T10:58:37.000Z</Time>
            <Position>
              <LatitudeDegrees>38.939471952617168426513671875</LatitudeDegrees>
              <LongitudeDegrees>-2.84647093154489994049072265625</LongitudeDegrees>
            </Position>
            <AltitudeMeters>828.4000244140625</AltitudeMeters>
            <DistanceMeters>22337.75369391</DistanceMeters>
          </Trackpoint>
          <Trackpoint>
            <Time>2020-02-09T10:58:47.000Z</Time>
            <Position>
              <LatitudeDegrees>38.93951185047626495361328125</LatitudeDegrees>
              <LongitudeDegrees>-2.846169769763946533203125</LongitudeDegrees>
            </Position>
            <AltitudeMeters>830.5999755859375</AltitudeMeters>
            <DistanceMeters>22364.201183797</DistanceMeters>
          </Trackpoint>
          <Trackpoint>
            <Time>2020-02-09T10:58:57.000Z</Time>
            <Position>
              <LatitudeDegrees>38.9395592920482158660888671875</LatitudeDegrees>
              <LongitudeDegrees>-2.8458866290748119354248046875</LongitudeDegrees>
            </Position>
            <AltitudeMeters>832.79998779296875</AltitudeMeters>
            <DistanceMeters>22389.275274854</DistanceMeters>
          </Trackpoint>
          <Trackpoint>
            <Time>2020-02-09T10:59:01.000Z</Time>
            <Position>
              <LatitudeDegrees>38.93959474749863147735595703125</LatitudeDegrees>
              <LongitudeDegrees>-2.84578311257064342498779296875</LongitudeDegrees>
            </Position>
            <AltitudeMeters>833</AltitudeMeters>
            <DistanceMeters>22399.067638295</DistanceMeters>
          </Trackpoint>
          <Trackpoint>
            <Time>2020-02-09T10:59:07.000Z</Time>
            <Position>
              <LatitudeDegrees>38.9396974258124828338623046875</LatitudeDegrees>
              <LongitudeDegrees>-2.845677249133586883544921875</LongitudeDegrees>
            </Position>
            <AltitudeMeters>834</AltitudeMeters>
            <DistanceMeters>22413.717170601</DistanceMeters>
          </Trackpoint>
          <Trackpoint>
            <Time>2020-02-09T10:59:17.000Z</Time>
            <Position>
              <LatitudeDegrees>38.93979272805154323577880859375</LatitudeDegrees>
              <LongitudeDegrees>-2.8454802744090557098388671875</LongitudeDegrees>
            </Position>
            <AltitudeMeters>835</AltitudeMeters>
            <DistanceMeters>22433.799532865</DistanceMeters>
          </Trackpoint>
          <Trackpoint>
            <Time>2020-02-09T10:59:26.000Z</Time>
            <Position>
              <LatitudeDegrees>38.93988191150128841400146484375</LatitudeDegrees>
              <LongitudeDegrees>-2.84523678012192249298095703125</LongitudeDegrees>
            </Position>
            <AltitudeMeters>838.20001220703125</AltitudeMeters>
            <DistanceMeters>22457.099300369</DistanceMeters>
          </Trackpoint>
          <Trackpoint>
            <Time>2020-02-09T10:59:34.000Z</Time>
            <Position>
              <LatitudeDegrees>38.9400025270879268646240234375</LatitudeDegrees>
              <LongitudeDegrees>-2.84499554894864559173583984375</LongitudeDegrees>
            </Position>
            <AltitudeMeters>840.4000244140625</AltitudeMeters>
            <DistanceMeters>22481.92583653</DistanceMeters>
          </Trackpoint>
          <Trackpoint>
            <Time>2020-02-09T10:59:36.000Z</Time>
            <Position>
              <LatitudeDegrees>38.9400038681924343109130859375</LatitudeDegrees>
              <LongitudeDegrees>-2.8449212014675140380859375</LongitudeDegrees>
            </Position>
            <AltitudeMeters>840.5999755859375</AltitudeMeters>
            <DistanceMeters>22488.364553868</DistanceMeters>
          </Trackpoint>
          <Trackpoint>
            <Time>2020-02-09T10:59:46.000Z</Time>
            <Position>
              <LatitudeDegrees>38.9400843344628810882568359375</LatitudeDegrees>
              <LongitudeDegrees>-2.8446001745760440826416015625</LongitudeDegrees>
            </Position>
            <AltitudeMeters>841.4000244140625</AltitudeMeters>
            <DistanceMeters>22517.563744398</DistanceMeters>
          </Trackpoint>
          <Trackpoint>
            <Time>2020-02-09T10:59:56.000Z</Time>
            <Position>
              <LatitudeDegrees>38.94020243547856807708740234375</LatitudeDegrees>
              <LongitudeDegrees>-2.8442890383303165435791015625</LongitudeDegrees>
            </Position>
            <AltitudeMeters>842</AltitudeMeters>
            <DistanceMeters>22547.535447296</DistanceMeters>
          </Trackpoint>
          <Trackpoint>
            <Time>2020-02-09T11:00:06.000Z</Time>
            <Position>
              <LatitudeDegrees>38.94026957452297210693359375</LatitudeDegrees>
              <LongitudeDegrees>-2.84393389709293842315673828125</LongitudeDegrees>
            </Position>
            <AltitudeMeters>842.79998779296875</AltitudeMeters>
            <DistanceMeters>22579.175490512</DistanceMeters>
          </Trackpoint>
          <Trackpoint>
            <Time>2020-02-09T11:00:16.000Z</Time>
            <Position>
              <LatitudeDegrees>38.94017812795937061309814453125</LatitudeDegrees>
              <LongitudeDegrees>-2.84362846054136753082275390625</LongitudeDegrees>
            </Position>
            <AltitudeMeters>844.20001220703125</AltitudeMeters>
            <DistanceMeters>22607.508753576</DistanceMeters>
          </Trackpoint>
          <Trackpoint>
            <Time>2020-02-09T11:00:26.000Z</Time>
            <Position>
              <LatitudeDegrees>38.94015616737306118011474609375</LatitudeDegrees>
              <LongitudeDegrees>-2.843313552439212799072265625</LongitudeDegrees>
            </Position>
            <AltitudeMeters>846.20001220703125</AltitudeMeters>
            <DistanceMeters>22634.880076567</DistanceMeters>
          </Trackpoint>
          <Trackpoint>
            <Time>2020-02-09T11:00:36.000Z</Time>
            <Position>
              <LatitudeDegrees>38.94033528864383697509765625</LatitudeDegrees>
              <LongitudeDegrees>-2.84306712448596954345703125</LongitudeDegrees>
            </Position>
            <AltitudeMeters>847</AltitudeMeters>
            <DistanceMeters>22664.079112467</DistanceMeters>
          </Trackpoint>
          <Trackpoint>
            <Time>2020-02-09T11:00:46.000Z</Time>
            <Position>
              <LatitudeDegrees>38.94043427892029285430908203125</LatitudeDegrees>
              <LongitudeDegrees>-2.842794544994831085205078125</LongitudeDegrees>
            </Position>
            <AltitudeMeters>850.5999755859375</AltitudeMeters>
            <DistanceMeters>22690.121980619</DistanceMeters>
          </Trackpoint>
          <Trackpoint>
            <Time>2020-02-09T11:00:56.000Z</Time>
            <Position>
              <LatitudeDegrees>38.9403998292982578277587890625</LatitudeDegrees>
              <LongitudeDegrees>-2.842502854764461517333984375</LongitudeDegrees>
            </Position>
            <AltitudeMeters>852.5999755859375</AltitudeMeters>
            <DistanceMeters>22715.663139216</DistanceMeters>
          </Trackpoint>
          <Trackpoint>
            <Time>2020-02-09T11:01:06.000Z</Time>
            <Position>
              <LatitudeDegrees>38.9403398148715496063232421875</LatitudeDegrees>
              <LongitudeDegrees>-2.8422041237354278564453125</LongitudeDegrees>
            </Position>
            <AltitudeMeters>855</AltitudeMeters>
            <DistanceMeters>22742.37325377</DistanceMeters>
          </Trackpoint>
          <Trackpoint>
            <Time>2020-02-09T11:01:16.000Z</Time>
            <Position>
              <LatitudeDegrees>38.9404068700969219207763671875</LatitudeDegrees>
              <LongitudeDegrees>-2.84191318787634372711181640625</LongitudeDegrees>
            </Position>
            <AltitudeMeters>858.4000244140625</AltitudeMeters>
            <DistanceMeters>22768.642254164</DistanceMeters>
          </Trackpoint>
          <Trackpoint>
            <Time>2020-02-09T11:01:26.000Z</Time>
            <Position>
              <LatitudeDegrees>38.94053620286285877227783203125</LatitudeDegrees>
              <LongitudeDegrees>-2.8416554443538188934326171875</LongitudeDegrees>
            </Position>
            <AltitudeMeters>860.4000244140625</AltitudeMeters>
            <DistanceMeters>22795.195717759</DistanceMeters>
          </Trackpoint>
          <Trackpoint>
            <Time>2020-02-09T11:01:36.000Z</Time>
            <Position>
              <LatitudeDegrees>38.94067299552261829376220703125</LatitudeDegrees>
              <LongitudeDegrees>-2.8414113633334636688232421875</LongitudeDegrees>
            </Position>
            <AltitudeMeters>860.4000244140625</AltitudeMeters>
            <DistanceMeters>22821.23997283</DistanceMeters>
          </Trackpoint>
          <Trackpoint>
            <Time>2020-02-09T11:01:46.000Z</Time>
            <Position>
              <LatitudeDegrees>38.94086946733295917510986328125</LatitudeDegrees>
              <LongitudeDegrees>-2.84126208163797855377197265625</LongitudeDegrees>
            </Position>
            <AltitudeMeters>860</AltitudeMeters>
            <DistanceMeters>22846.640917537</DistanceMeters>
          </Trackpoint>
          <Trackpoint>
            <Time>2020-02-09T11:01:51.000Z</Time>
            <Position>
              <LatitudeDegrees>38.9409667812287807464599609375</LatitudeDegrees>
              <LongitudeDegrees>-2.8411850519478321075439453125</LongitudeDegrees>
            </Position>
            <AltitudeMeters>860</AltitudeMeters>
            <DistanceMeters>22859.360306263</DistanceMeters>
          </Trackpoint>
          <Trackpoint>
            <Time>2020-02-09T11:01:56.000Z</Time>
            <Position>
              <LatitudeDegrees>38.940986730158329010009765625</LatitudeDegrees>
              <LongitudeDegrees>-2.841043733060359954833984375</LongitudeDegrees>
            </Position>
            <AltitudeMeters>860</AltitudeMeters>
            <DistanceMeters>22871.794289486</DistanceMeters>
          </Trackpoint>
          <Trackpoint>
            <Time>2020-02-09T11:02:06.000Z</Time>
            <Position>
              <LatitudeDegrees>38.94092562608420848846435546875</LatitudeDegrees>
              <LongitudeDegrees>-2.84078456461429595947265625</LongitudeDegrees>
            </Position>
            <AltitudeMeters>863</AltitudeMeters>
            <DistanceMeters>22895.238556651</DistanceMeters>
          </Trackpoint>
          <Trackpoint>
            <Time>2020-02-09T11:02:16.000Z</Time>
            <Position>
              <LatitudeDegrees>38.9408655278384685516357421875</LatitudeDegrees>
              <LongitudeDegrees>-2.8405178524553775787353515625</LongitudeDegrees>
            </Position>
            <AltitudeMeters>864.79998779296875</AltitudeMeters>
            <DistanceMeters>22919.277122578</DistanceMeters>
          </Trackpoint>
          <Trackpoint>
            <Time>2020-02-09T11:02:21.000Z</Time>
            <Position>
              <LatitudeDegrees>38.94086502492427825927734375</LatitudeDegrees>
              <LongitudeDegrees>-2.84045909531414508819580078125</LongitudeDegrees>
            </Position>
            <AltitudeMeters>865</AltitudeMeters>
            <DistanceMeters>22924.364381082</DistanceMeters>
          </Trackpoint>
          <Trackpoint>
            <Time>2020-02-09T11:02:33.000Z</Time>
            <Position>
              <LatitudeDegrees>38.94086762331426143646240234375</LatitudeDegrees>
              <LongitudeDegrees>-2.8403626196086406707763671875</LongitudeDegrees>
            </Position>
            <AltitudeMeters>865.20001220703125</AltitudeMeters>
            <DistanceMeters>22932.721871213</DistanceMeters>
          </Trackpoint>
          <Trackpoint>
            <Time>2020-02-09T11:02:36.000Z</Time>
            <Position>
              <LatitudeDegrees>38.9408729039132595062255859375</LatitudeDegrees>
              <LongitudeDegrees>-2.8402694128453731536865234375</LongitudeDegrees>
            </Position>
            <AltitudeMeters>865.4000244140625</AltitudeMeters>
            <DistanceMeters>22940.811988275</DistanceMeters>
          </Trackpoint>
          <Trackpoint>
            <Time>2020-02-09T11:02:46.000Z</Time>
            <Position>
              <LatitudeDegrees>38.94094054587185382843017578125</LatitudeDegrees>
              <LongitudeDegrees>-2.84002373926341533660888671875</LongitudeDegrees>
            </Position>
            <AltitudeMeters>866</AltitudeMeters>
            <DistanceMeters>22963.373179489</DistanceMeters>
          </Trackpoint>
          <Trackpoint>
            <Time>2020-02-09T11:02:53.000Z</Time>
            <Position>
              <LatitudeDegrees>38.9409845508635044097900390625</LatitudeDegrees>
              <LongitudeDegrees>-2.83994637429714202880859375</LongitudeDegrees>
            </Position>
            <AltitudeMeters>865.20001220703125</AltitudeMeters>
            <DistanceMeters>22971.669942275</DistanceMeters>
          </Trackpoint>
          <Trackpoint>
            <Time>2020-02-09T11:02:55.000Z</Time>
            <Position>
              <LatitudeDegrees>38.9410033263266086578369140625</LatitudeDegrees>
              <LongitudeDegrees>-2.8399307839572429656982421875</LongitudeDegrees>
            </Position>
            <AltitudeMeters>864.79998779296875</AltitudeMeters>
            <DistanceMeters>22974.155213344</DistanceMeters>
          </Trackpoint>
          <Trackpoint>
            <Time>2020-02-09T11:02:56.000Z</Time>
            <Position>
              <LatitudeDegrees>38.9410184137523174285888671875</LatitudeDegrees>
              <LongitudeDegrees>-2.8399140201508998870849609375</LongitudeDegrees>
            </Position>
            <AltitudeMeters>864.4000244140625</AltitudeMeters>
            <DistanceMeters>22976.379731695</DistanceMeters>
          </Trackpoint>
          <Trackpoint>
            <Time>2020-02-09T11:03:06.000Z</Time>
            <Position>
              <LatitudeDegrees>38.9411428011953830718994140625</LatitudeDegrees>
              <LongitudeDegrees>-2.83968309871852397918701171875</LongitudeDegrees>
            </Position>
            <AltitudeMeters>864.4000244140625</AltitudeMeters>
            <DistanceMeters>23000.696546159</DistanceMeters>
          </Trackpoint>
          <Trackpoint>
            <Time>2020-02-09T11:03:16.000Z</Time>
            <Position>
              <LatitudeDegrees>38.94127515144646167755126953125</LatitudeDegrees>
              <LongitudeDegrees>-2.83941487781703472137451171875</LongitudeDegrees>
            </Position>
            <AltitudeMeters>866.5999755859375</AltitudeMeters>
            <DistanceMeters>23028.194755395</DistanceMeters>
          </Trackpoint>
          <Trackpoint>
            <Time>2020-02-09T11:03:26.000Z</Time>
            <Position>
              <LatitudeDegrees>38.94126660190522670745849609375</LatitudeDegrees>
              <LongitudeDegrees>-2.83913006074726581573486328125</LongitudeDegrees>
            </Position>
            <AltitudeMeters>868.20001220703125</AltitudeMeters>
            <DistanceMeters>23052.869883243</DistanceMeters>
          </Trackpoint>
          <Trackpoint>
            <Time>2020-02-09T11:03:36.000Z</Time>
            <Position>
              <LatitudeDegrees>38.94112922251224517822265625</LatitudeDegrees>
              <LongitudeDegrees>-2.8389581479132175445556640625</LongitudeDegrees>
            </Position>
            <AltitudeMeters>869.20001220703125</AltitudeMeters>
            <DistanceMeters>23074.207136912</DistanceMeters>
          </Trackpoint>
          <Trackpoint>
            <Time>2020-02-09T11:03:46.000Z</Time>
            <Position>
              <LatitudeDegrees>38.941043727099895477294921875</LatitudeDegrees>
              <LongitudeDegrees>-2.8387509472668170928955078125</LongitudeDegrees>
            </Position>
            <AltitudeMeters>871.5999755859375</AltitudeMeters>
            <DistanceMeters>23094.512191216</DistanceMeters>
          </Trackpoint>
          <Trackpoint>
            <Time>2020-02-09T11:03:56.000Z</Time>
            <Position>
              <LatitudeDegrees>38.94111036323010921478271484375</LatitudeDegrees>
              <LongitudeDegrees>-2.83849488012492656707763671875</LongitudeDegrees>
            </Position>
            <AltitudeMeters>873.20001220703125</AltitudeMeters>
            <DistanceMeters>23117.88760406</DistanceMeters>
          </Trackpoint>
          <Trackpoint>
            <Time>2020-02-09T11:04:07.000Z</Time>
            <Position>
              <LatitudeDegrees>38.9412420429289340972900390625</LatitudeDegrees>
              <LongitudeDegrees>-2.8382674790918827056884765625</LongitudeDegrees>
            </Position>
            <AltitudeMeters>873.79998779296875</AltitudeMeters>
            <DistanceMeters>23142.430265267</DistanceMeters>
          </Trackpoint>
          <Trackpoint>
            <Time>2020-02-09T11:04:18.000Z</Time>
            <Position>
              <LatitudeDegrees>38.9412450604140758514404296875</LatitudeDegrees>
              <LongitudeDegrees>-2.83800805918872356414794921875</LongitudeDegrees>
            </Position>
            <AltitudeMeters>875.4000244140625</AltitudeMeters>
            <DistanceMeters>23164.890769505</DistanceMeters>
          </Trackpoint>
          <Trackpoint>
            <Time>2020-02-09T11:04:28.000Z</Time>
            <Position>
              <LatitudeDegrees>38.9412101916968822479248046875</LatitudeDegrees>
              <LongitudeDegrees>-2.837769091129302978515625</LongitudeDegrees>
            </Position>
            <AltitudeMeters>877.4000244140625</AltitudeMeters>
            <DistanceMeters>23185.939133111</DistanceMeters>
          </Trackpoint>
          <Trackpoint>
            <Time>2020-02-09T11:04:38.000Z</Time>
            <Position>
              <LatitudeDegrees>38.941270373761653900146484375</LatitudeDegrees>
              <LongitudeDegrees>-2.83749056048691272735595703125</LongitudeDegrees>
            </Position>
            <AltitudeMeters>878.4000244140625</AltitudeMeters>
            <DistanceMeters>23210.964197777</DistanceMeters>
          </Trackpoint>
          <Trackpoint>
            <Time>2020-02-09T11:04:48.000Z</Time>
            <Position>
              <LatitudeDegrees>38.94137556664645671844482421875</LatitudeDegrees>
              <LongitudeDegrees>-2.83718562684953212738037109375</LongitudeDegrees>
            </Position>
            <AltitudeMeters>877.79998779296875</AltitudeMeters>
            <DistanceMeters>23239.842158053</DistanceMeters>
          </Trackpoint>
          <Trackpoint>
            <Time>2020-02-09T11:04:58.000Z</Time>
            <Position>
              <LatitudeDegrees>38.94145871512591838836669921875</LatitudeDegrees>
              <LongitudeDegrees>-2.83693559467792510986328125</LongitudeDegrees>
            </Position>
            <AltitudeMeters>877.5999755859375</AltitudeMeters>
            <DistanceMeters>23263.382713085</DistanceMeters>
          </Trackpoint>
          <Trackpoint>
            <Time>2020-02-09T11:05:06.000Z</Time>
            <Position>
              <LatitudeDegrees>38.9415981061756610870361328125</LatitudeDegrees>
              <LongitudeDegrees>-2.83677642233669757843017578125</LongitudeDegrees>
            </Position>
            <AltitudeMeters>876.5999755859375</AltitudeMeters>
            <DistanceMeters>23284.133379704</DistanceMeters>
          </Trackpoint>
          <Trackpoint>
            <Time>2020-02-09T11:05:08.000Z</Time>
            <Position>
              <LatitudeDegrees>38.941592909395694732666015625</LatitudeDegrees>
              <LongitudeDegrees>-2.83672646619379520416259765625</LongitudeDegrees>
            </Position>
            <AltitudeMeters>876.79998779296875</AltitudeMeters>
            <DistanceMeters>23288.496337548</DistanceMeters>
          </Trackpoint>
          <Trackpoint>
            <Time>2020-02-09T11:05:18.000Z</Time>
            <Position>
              <LatitudeDegrees>38.94157405011355876922607421875</LatitudeDegrees>
              <LongitudeDegrees>-2.8364760987460613250732421875</LongitudeDegrees>
            </Position>
            <AltitudeMeters>879.4000244140625</AltitudeMeters>
            <DistanceMeters>23310.271766684</DistanceMeters>
          </Trackpoint>
          <Trackpoint>
            <Time>2020-02-09T11:05:27.000Z</Time>
            <Position>
              <LatitudeDegrees>38.94162115640938282012939453125</LatitudeDegrees>
              <LongitudeDegrees>-2.83640225417912006378173828125</LongitudeDegrees>
            </Position>
            <AltitudeMeters>879.5999755859375</AltitudeMeters>
            <DistanceMeters>23318.539636947</DistanceMeters>
          </Trackpoint>
          <Trackpoint>
            <Time>2020-02-09T11:05:39.000Z</Time>
            <Position>
              <LatitudeDegrees>38.94164077006280422210693359375</LatitudeDegrees>
              <LongitudeDegrees>-2.8363971412181854248046875</LongitudeDegrees>
            </Position>
            <AltitudeMeters>879.4000244140625</AltitudeMeters>
            <DistanceMeters>23320.76821094</DistanceMeters>
          </Trackpoint>
          <Trackpoint>
            <Time>2020-02-09T11:05:44.000Z</Time>
            <Position>
              <LatitudeDegrees>38.9417523331940174102783203125</LatitudeDegrees>
              <LongitudeDegrees>-2.83635766245424747467041015625</LongitudeDegrees>
            </Position>
            <AltitudeMeters>878.4000244140625</AltitudeMeters>
            <DistanceMeters>23333.647048004</DistanceMeters>
          </Trackpoint>
          <Trackpoint>
            <Time>2020-02-09T11:05:48.000Z</Time>
            <Position>
              <LatitudeDegrees>38.941813521087169647216796875</LatitudeDegrees>
              <LongitudeDegrees>-2.83624081872403621673583984375</LongitudeDegrees>
            </Position>
            <AltitudeMeters>878.79998779296875</AltitudeMeters>
            <DistanceMeters>23345.840867698</DistanceMeters>
          </Trackpoint>
          <Trackpoint>
            <Time>2020-02-09T11:05:58.000Z</Time>
            <Position>
              <LatitudeDegrees>38.94197504036128520965576171875</LatitudeDegrees>
              <LongitudeDegrees>-2.83602523617446422576904296875</LongitudeDegrees>
            </Position>
            <AltitudeMeters>879.4000244140625</AltitudeMeters>
            <DistanceMeters>23371.753905236</DistanceMeters>
          </Trackpoint>
          <Trackpoint>
            <Time>2020-02-09T11:06:03.000Z</Time>
            <Position>
              <LatitudeDegrees>38.9420520700514316558837890625</LatitudeDegrees>
              <LongitudeDegrees>-2.83595130778849124908447265625</LongitudeDegrees>
            </Position>
            <AltitudeMeters>879.79998779296875</AltitudeMeters>
            <DistanceMeters>23382.452748585</DistanceMeters>
          </Trackpoint>
          <Trackpoint>
            <Time>2020-02-09T11:06:09.000Z</Time>
            <Position>
              <LatitudeDegrees>38.9421667344868183135986328125</LatitudeDegrees>
              <LongitudeDegrees>-2.8359976597130298614501953125</LongitudeDegrees>
            </Position>
            <AltitudeMeters>879</AltitudeMeters>
            <DistanceMeters>23395.830944095</DistanceMeters>
          </Trackpoint>
          <Trackpoint>
            <Time>2020-02-09T11:06:15.000Z</Time>
            <Position>
              <LatitudeDegrees>38.94229489378631114959716796875</LatitudeDegrees>
              <LongitudeDegrees>-2.836032696068286895751953125</LongitudeDegrees>
            </Position>
            <AltitudeMeters>878.20001220703125</AltitudeMeters>
            <DistanceMeters>23410.41437169</DistanceMeters>
          </Trackpoint>
          <Trackpoint>
            <Time>2020-02-09T11:06:19.000Z</Time>
            <Position>
              <LatitudeDegrees>38.9423350431025028228759765625</LatitudeDegrees>
              <LongitudeDegrees>-2.8359520621597766876220703125</LongitudeDegrees>
            </Position>
            <AltitudeMeters>878.79998779296875</AltitudeMeters>
            <DistanceMeters>23418.702967566</DistanceMeters>
          </Trackpoint>
          <Trackpoint>
            <Time>2020-02-09T11:06:30.000Z</Time>
            <Position>
              <LatitudeDegrees>38.942384831607341766357421875</LatitudeDegrees>
              <LongitudeDegrees>-2.83566481433808803558349609375</LongitudeDegrees>
            </Position>
            <AltitudeMeters>879.79998779296875</AltitudeMeters>
            <DistanceMeters>23444.179521582</DistanceMeters>
          </Trackpoint>
          <Trackpoint>
            <Time>2020-02-09T11:06:40.000Z</Time>
            <Position>
              <LatitudeDegrees>38.942430429160594940185546875</LatitudeDegrees>
              <LongitudeDegrees>-2.83542391844093799591064453125</LongitudeDegrees>
            </Position>
            <AltitudeMeters>880.20001220703125</AltitudeMeters>
            <DistanceMeters>23465.642099702</DistanceMeters>
          </Trackpoint>
          <Trackpoint>
            <Time>2020-02-09T11:06:50.000Z</Time>
            <Position>
              <LatitudeDegrees>38.9425496198236942291259765625</LatitudeDegrees>
              <LongitudeDegrees>-2.83516936004161834716796875</LongitudeDegrees>
            </Position>
            <AltitudeMeters>881.4000244140625</AltitudeMeters>
            <DistanceMeters>23491.36363894</DistanceMeters>
          </Trackpoint>
          <Trackpoint>
            <Time>2020-02-09T11:06:55.000Z</Time>
            <Position>
              <LatitudeDegrees>38.94267811439931392669677734375</LatitudeDegrees>
              <LongitudeDegrees>-2.83508797176182270050048828125</LongitudeDegrees>
            </Position>
            <AltitudeMeters>880.5999755859375</AltitudeMeters>
            <DistanceMeters>23507.306618327</DistanceMeters>
          </Trackpoint>
          <Trackpoint>
            <Time>2020-02-09T11:07:00.000Z</Time>
            <Position>
              <LatitudeDegrees>38.94275204278528690338134765625</LatitudeDegrees>
              <LongitudeDegrees>-2.83513574860990047454833984375</LongitudeDegrees>
            </Position>
            <AltitudeMeters>879.79998779296875</AltitudeMeters>
            <DistanceMeters>23516.515878773</DistanceMeters>
          </Trackpoint>
          <Trackpoint>
            <Time>2020-02-09T11:07:10.000Z</Time>
            <Position>
              <LatitudeDegrees>38.94290358759462833404541015625</LatitudeDegrees>
              <LongitudeDegrees>-2.8353871218860149383544921875</LongitudeDegrees>
            </Position>
            <AltitudeMeters>880</AltitudeMeters>
            <DistanceMeters>23544.048383148</DistanceMeters>
          </Trackpoint>
          <Trackpoint>
            <Time>2020-02-09T11:07:20.000Z</Time>
            <Position>
              <LatitudeDegrees>38.94306242465972900390625</LatitudeDegrees>
              <LongitudeDegrees>-2.83564721234142780303955078125</LongitudeDegrees>
            </Position>
            <AltitudeMeters>880.4000244140625</AltitudeMeters>
            <DistanceMeters>23572.674934412</DistanceMeters>
          </Trackpoint>
          <Trackpoint>
            <Time>2020-02-09T11:07:31.000Z</Time>
            <Position>
              <LatitudeDegrees>38.9433378539979457855224609375</LatitudeDegrees>
              <LongitudeDegrees>-2.83558317460119724273681640625</LongitudeDegrees>
            </Position>
            <AltitudeMeters>882.4000244140625</AltitudeMeters>
            <DistanceMeters>23603.828048156</DistanceMeters>
          </Trackpoint>
          <Trackpoint>
            <Time>2020-02-09T11:07:40.000Z</Time>
            <Position>
              <LatitudeDegrees>38.94353742711246013641357421875</LatitudeDegrees>
              <LongitudeDegrees>-2.83542593009769916534423828125</LongitudeDegrees>
            </Position>
            <AltitudeMeters>883.79998779296875</AltitudeMeters>
            <DistanceMeters>23629.87992996</DistanceMeters>
          </Trackpoint>
          <Trackpoint>
            <Time>2020-02-09T11:07:50.000Z</Time>
            <Position>
              <LatitudeDegrees>38.94378050230443477630615234375</LatitudeDegrees>
              <LongitudeDegrees>-2.83520959317684173583984375</LongitudeDegrees>
            </Position>
            <AltitudeMeters>884.4000244140625</AltitudeMeters>
            <DistanceMeters>23662.783881779</DistanceMeters>
          </Trackpoint>
          <Trackpoint>
            <Time>2020-02-09T11:08:00.000Z</Time>
            <Position>
              <LatitudeDegrees>38.9440238289535045623779296875</LatitudeDegrees>
              <LongitudeDegrees>-2.8349770791828632354736328125</LongitudeDegrees>
            </Position>
            <AltitudeMeters>885.5999755859375</AltitudeMeters>
            <DistanceMeters>23696.527063888</DistanceMeters>
          </Trackpoint>
          <Trackpoint>
            <Time>2020-02-09T11:08:10.000Z</Time>
            <Position>
              <LatitudeDegrees>38.94431241787970066070556640625</LatitudeDegrees>
              <LongitudeDegrees>-2.83478823490440845489501953125</LongitudeDegrees>
            </Position>
            <AltitudeMeters>887.5999755859375</AltitudeMeters>
            <DistanceMeters>23732.568380407</DistanceMeters>
          </Trackpoint>
          <Trackpoint>
            <Time>2020-02-09T11:08:21.000Z</Time>
            <Position>
              <LatitudeDegrees>38.94461433403193950653076171875</LatitudeDegrees>
              <LongitudeDegrees>-2.8345563076436519622802734375</LongitudeDegrees>
            </Position>
            <AltitudeMeters>888.79998779296875</AltitudeMeters>
            <DistanceMeters>23771.713158753</DistanceMeters>
          </Trackpoint>
          <Trackpoint>
            <Time>2020-02-09T11:08:31.000Z</Time>
            <Position>
              <LatitudeDegrees>38.94482790492475032806396484375</LatitudeDegrees>
              <LongitudeDegrees>-2.8342729993164539337158203125</LongitudeDegrees>
            </Position>
            <AltitudeMeters>890.20001220703125</AltitudeMeters>
            <DistanceMeters>23805.867563084</DistanceMeters>
          </Trackpoint>
          <Trackpoint>
            <Time>2020-02-09T11:08:42.000Z</Time>
            <Position>
              <LatitudeDegrees>38.944869227707386016845703125</LatitudeDegrees>
              <LongitudeDegrees>-2.833847701549530029296875</LongitudeDegrees>
            </Position>
            <AltitudeMeters>894</AltitudeMeters>
            <DistanceMeters>23842.969867237</DistanceMeters>
          </Trackpoint>
          <Trackpoint>
            <Time>2020-02-09T11:08:52.000Z</Time>
            <Position>
              <LatitudeDegrees>38.945103250443935394287109375</LatitudeDegrees>
              <LongitudeDegrees>-2.8338130004703998565673828125</LongitudeDegrees>
            </Position>
            <AltitudeMeters>893.4000244140625</AltitudeMeters>
            <DistanceMeters>23869.189664715</DistanceMeters>
          </Trackpoint>
          <Trackpoint>
            <Time>2020-02-09T11:09:01.000Z</Time>
            <Position>
              <LatitudeDegrees>38.9453208446502685546875</LatitudeDegrees>
              <LongitudeDegrees>-2.8339330293238162994384765625</LongitudeDegrees>
            </Position>
            <AltitudeMeters>891.5999755859375</AltitudeMeters>
            <DistanceMeters>23895.543092942</DistanceMeters>
          </Trackpoint>
          <Trackpoint>
            <Time>2020-02-09T11:09:11.000Z</Time>
            <Position>
              <LatitudeDegrees>38.945589400827884674072265625</LatitudeDegrees>
              <LongitudeDegrees>-2.83403201960027217864990234375</LongitudeDegrees>
            </Position>
            <AltitudeMeters>891.4000244140625</AltitudeMeters>
            <DistanceMeters>23926.637890018</DistanceMeters>
          </Trackpoint>
          <Trackpoint>
            <Time>2020-02-09T11:09:21.000Z</Time>
            <Position>
              <LatitudeDegrees>38.9458195678889751434326171875</LatitudeDegrees>
              <LongitudeDegrees>-2.83415573649108409881591796875</LongitudeDegrees>
            </Position>
            <AltitudeMeters>892</AltitudeMeters>
            <DistanceMeters>23954.404234153</DistanceMeters>
          </Trackpoint>
          <Trackpoint>
            <Time>2020-02-09T11:09:32.000Z</Time>
            <Position>
              <LatitudeDegrees>38.94607764668762683868408203125</LatitudeDegrees>
              <LongitudeDegrees>-2.83410242758691310882568359375</LongitudeDegrees>
            </Position>
            <AltitudeMeters>893.4000244140625</AltitudeMeters>
            <DistanceMeters>23983.497155889</DistanceMeters>
          </Trackpoint>
          <Trackpoint>
            <Time>2020-02-09T11:09:42.000Z</Time>
            <Position>
              <LatitudeDegrees>38.9462497271597385406494140625</LatitudeDegrees>
              <LongitudeDegrees>-2.83389757387340068817138671875</LongitudeDegrees>
            </Position>
            <AltitudeMeters>895</AltitudeMeters>
            <DistanceMeters>24009.598557143</DistanceMeters>
          </Trackpoint>
          <Trackpoint>
            <Time>2020-02-09T11:09:52.000Z</Time>
            <Position>
              <LatitudeDegrees>38.94630982540547847747802734375</LatitudeDegrees>
              <LongitudeDegrees>-2.83357084728777408599853515625</LongitudeDegrees>
            </Position>
            <AltitudeMeters>896.4000244140625</AltitudeMeters>
            <DistanceMeters>24038.661200351</DistanceMeters>
          </Trackpoint>
          <Trackpoint>
            <Time>2020-02-09T11:10:02.000Z</Time>
            <Position>
              <LatitudeDegrees>38.9464103244245052337646484375</LatitudeDegrees>
              <LongitudeDegrees>-2.8332825936377048492431640625</LongitudeDegrees>
            </Position>
            <AltitudeMeters>897.4000244140625</AltitudeMeters>
            <DistanceMeters>24066.006117795</DistanceMeters>
          </Trackpoint>
          <Trackpoint>
            <Time>2020-02-09T11:10:12.000Z</Time>
            <Position>
              <LatitudeDegrees>38.9466460235416889190673828125</LatitudeDegrees>
              <LongitudeDegrees>-2.8330619819462299346923828125</LongitudeDegrees>
            </Position>
            <AltitudeMeters>898</AltitudeMeters>
            <DistanceMeters>24098.454644932</DistanceMeters>
          </Trackpoint>
          <Trackpoint>
            <Time>2020-02-09T11:10:16.000Z</Time>
            <Position>
              <LatitudeDegrees>38.94675339572131633758544921875</LatitudeDegrees>
              <LongitudeDegrees>-2.8329077549278736114501953125</LongitudeDegrees>
            </Position>
            <AltitudeMeters>898.20001220703125</AltitudeMeters>
            <DistanceMeters>24116.372410078</DistanceMeters>
          </Trackpoint>
          <Trackpoint>
            <Time>2020-02-09T11:10:18.000Z</Time>
            <Position>
              <LatitudeDegrees>38.9467901922762393951416015625</LatitudeDegrees>
              <LongitudeDegrees>-2.83281412906944751739501953125</LongitudeDegrees>
            </Position>
            <AltitudeMeters>898</AltitudeMeters>
            <DistanceMeters>24125.452808087</DistanceMeters>
          </Trackpoint>
          <Trackpoint>
            <Time>2020-02-09T11:10:22.000Z</Time>
            <Position>
              <LatitudeDegrees>38.94684492610394954681396484375</LatitudeDegrees>
              <LongitudeDegrees>-2.832623608410358428955078125</LongitudeDegrees>
            </Position>
            <AltitudeMeters>897.79998779296875</AltitudeMeters>
            <DistanceMeters>24143.034034344</DistanceMeters>
          </Trackpoint>
          <Trackpoint>
            <Time>2020-02-09T11:10:32.000Z</Time>
            <Position>
              <LatitudeDegrees>38.9469410665333271026611328125</LatitudeDegrees>
              <LongitudeDegrees>-2.832144163548946380615234375</LongitudeDegrees>
            </Position>
            <AltitudeMeters>898.5999755859375</AltitudeMeters>
            <DistanceMeters>24185.893400187</DistanceMeters>
          </Trackpoint>
          <Trackpoint>
            <Time>2020-02-09T11:10:34.000Z</Time>
            <Position>
              <LatitudeDegrees>38.94694685004651546478271484375</LatitudeDegrees>
              <LongitudeDegrees>-2.83203695900738239288330078125</LongitudeDegrees>
            </Position>
            <AltitudeMeters>898.79998779296875</AltitudeMeters>
            <DistanceMeters>24195.196316538</DistanceMeters>
          </Trackpoint>
          <Trackpoint>
            <Time>2020-02-09T11:10:39.000Z</Time>
            <Position>
              <LatitudeDegrees>38.94690326415002346038818359375</LatitudeDegrees>
              <LongitudeDegrees>-2.83177100121974945068359375</LongitudeDegrees>
            </Position>
            <AltitudeMeters>899</AltitudeMeters>
            <DistanceMeters>24218.724017575</DistanceMeters>
          </Trackpoint>
          <Trackpoint>
            <Time>2020-02-09T11:10:42.000Z</Time>
            <Position>
              <LatitudeDegrees>38.946913070976734161376953125</LatitudeDegrees>
              <LongitudeDegrees>-2.8316135890781879425048828125</LongitudeDegrees>
            </Position>
            <AltitudeMeters>899.5999755859375</AltitudeMeters>
            <DistanceMeters>24232.393338765</DistanceMeters>
          </Trackpoint>
          <Trackpoint>
            <Time>2020-02-09T11:10:52.000Z</Time>
            <Position>
              <LatitudeDegrees>38.94698875956237316131591796875</LatitudeDegrees>
              <LongitudeDegrees>-2.8311854414641857147216796875</LongitudeDegrees>
            </Position>
            <AltitudeMeters>902.4000244140625</AltitudeMeters>
            <DistanceMeters>24270.400460844</DistanceMeters>
          </Trackpoint>
          <Trackpoint>
            <Time>2020-02-09T11:11:02.000Z</Time>
            <Position>
              <LatitudeDegrees>38.947100155055522918701171875</LatitudeDegrees>
              <LongitudeDegrees>-2.8308042325079441070556640625</LongitudeDegrees>
            </Position>
            <AltitudeMeters>904.5999755859375</AltitudeMeters>
            <DistanceMeters>24305.651145366</DistanceMeters>
          </Trackpoint>
          <Trackpoint>
            <Time>2020-02-09T11:11:12.000Z</Time>
            <Position>
              <LatitudeDegrees>38.9471110515296459197998046875</LatitudeDegrees>
              <LongitudeDegrees>-2.830363176763057708740234375</LongitudeDegrees>
            </Position>
            <AltitudeMeters>906.4000244140625</AltitudeMeters>
            <DistanceMeters>24343.84916602</DistanceMeters>
          </Trackpoint>
          <Trackpoint>
            <Time>2020-02-09T11:11:22.000Z</Time>
            <Position>
              <LatitudeDegrees>38.9470986463129520416259765625</LatitudeDegrees>
              <LongitudeDegrees>-2.83001038245856761932373046875</LongitudeDegrees>
            </Position>
            <AltitudeMeters>907.5999755859375</AltitudeMeters>
            <DistanceMeters>24374.419128585</DistanceMeters>
          </Trackpoint>
          <Trackpoint>
            <Time>2020-02-09T11:11:32.000Z</Time>
            <Position>
              <LatitudeDegrees>38.94711985252797603607177734375</LatitudeDegrees>
              <LongitudeDegrees>-2.8296862542629241943359375</LongitudeDegrees>
            </Position>
            <AltitudeMeters>908.20001220703125</AltitudeMeters>
            <DistanceMeters>24402.575593763</DistanceMeters>
          </Trackpoint>
          <Trackpoint>
            <Time>2020-02-09T11:11:42.000Z</Time>
            <Position>
              <LatitudeDegrees>38.94722320139408111572265625</LatitudeDegrees>
              <LongitudeDegrees>-2.8294403292238712310791015625</LongitudeDegrees>
            </Position>
            <AltitudeMeters>908.79998779296875</AltitudeMeters>
            <DistanceMeters>24426.772537712</DistanceMeters>
          </Trackpoint>
          <Trackpoint>
            <Time>2020-02-09T11:11:52.000Z</Time>
            <Position>
              <LatitudeDegrees>38.9474017359316349029541015625</LatitudeDegrees>
              <LongitudeDegrees>-2.82925332896411418914794921875</LongitudeDegrees>
            </Position>
            <AltitudeMeters>909.5999755859375</AltitudeMeters>
            <DistanceMeters>24452.402636053</DistanceMeters>
          </Trackpoint>
          <Trackpoint>
            <Time>2020-02-09T11:12:02.000Z</Time>
            <Position>
              <LatitudeDegrees>38.94755034707486629486083984375</LatitudeDegrees>
              <LongitudeDegrees>-2.82902232371270656585693359375</LongitudeDegrees>
            </Position>
            <AltitudeMeters>910.4000244140625</AltitudeMeters>
            <DistanceMeters>24478.353455714</DistanceMeters>
          </Trackpoint>
          <Trackpoint>
            <Time>2020-02-09T11:12:12.000Z</Time>
            <Position>
              <LatitudeDegrees>38.9476981200277805328369140625</LatitudeDegrees>
              <LongitudeDegrees>-2.82880975864827632904052734375</LongitudeDegrees>
            </Position>
            <AltitudeMeters>911.4000244140625</AltitudeMeters>
            <DistanceMeters>24503.033157621</DistanceMeters>
          </Trackpoint>
          <Trackpoint>
            <Time>2020-02-09T11:12:20.000Z</Time>
            <Position>
              <LatitudeDegrees>38.947793506085872650146484375</LatitudeDegrees>
              <LongitudeDegrees>-2.82866089604794979095458984375</LongitudeDegrees>
            </Position>
            <AltitudeMeters>912.4000244140625</AltitudeMeters>
            <DistanceMeters>24519.729218828</DistanceMeters>
          </Trackpoint>
          <Trackpoint>
            <Time>2020-02-09T11:12:22.000Z</Time>
            <Position>
              <LatitudeDegrees>38.9478060789406299591064453125</LatitudeDegrees>
              <LongitudeDegrees>-2.82861538231372833251953125</LongitudeDegrees>
            </Position>
            <AltitudeMeters>912.5999755859375</AltitudeMeters>
            <DistanceMeters>24523.91039426</DistanceMeters>
          </Trackpoint>
          <Trackpoint>
            <Time>2020-02-09T11:12:32.000Z</Time>
            <Position>
              <LatitudeDegrees>38.94791395403444766998291015625</LatitudeDegrees>
              <LongitudeDegrees>-2.82839007675647735595703125</LongitudeDegrees>
            </Position>
            <AltitudeMeters>914</AltitudeMeters>
            <DistanceMeters>24546.812621013</DistanceMeters>
          </Trackpoint>
          <Trackpoint>
            <Time>2020-02-09T11:12:42.000Z</Time>
            <Position>
              <LatitudeDegrees>38.9479646645486354827880859375</LatitudeDegrees>
              <LongitudeDegrees>-2.82817390747368335723876953125</LongitudeDegrees>
            </Position>
            <AltitudeMeters>914.79998779296875</AltitudeMeters>
            <DistanceMeters>24566.357192989</DistanceMeters>
          </Trackpoint>
          <Trackpoint>
            <Time>2020-02-09T11:12:53.000Z</Time>
            <Position>
              <LatitudeDegrees>38.94805208779871463775634765625</LatitudeDegrees>
              <LongitudeDegrees>-2.82797995023429393768310546875</LongitudeDegrees>
            </Position>
            <AltitudeMeters>916.4000244140625</AltitudeMeters>
            <DistanceMeters>24585.762197182</DistanceMeters>
          </Trackpoint>
          <Trackpoint>
            <Time>2020-02-09T11:13:03.000Z</Time>
            <Position>
              <LatitudeDegrees>38.9481406845152378082275390625</LatitudeDegrees>
              <LongitudeDegrees>-2.82777526415884494781494140625</LongitudeDegrees>
            </Position>
            <AltitudeMeters>917.79998779296875</AltitudeMeters>
            <DistanceMeters>24606.03921473</DistanceMeters>
          </Trackpoint>
          <Trackpoint>
            <Time>2020-02-09T11:13:13.000Z</Time>
            <Position>
              <LatitudeDegrees>38.9482176303863525390625</LatitudeDegrees>
              <LongitudeDegrees>-2.82759790308773517608642578125</LongitudeDegrees>
            </Position>
            <AltitudeMeters>919.20001220703125</AltitudeMeters>
            <DistanceMeters>24623.619156888</DistanceMeters>
          </Trackpoint>
          <Trackpoint>
            <Time>2020-02-09T11:13:23.000Z</Time>
            <Position>
              <LatitudeDegrees>38.94830019213259220123291015625</LatitudeDegrees>
              <LongitudeDegrees>-2.82750737853348255157470703125</LongitudeDegrees>
            </Position>
            <AltitudeMeters>919.5999755859375</AltitudeMeters>
            <DistanceMeters>24635.695403597</DistanceMeters>
          </Trackpoint>
          <Trackpoint>
            <Time>2020-02-09T11:13:29.000Z</Time>
            <Position>
              <LatitudeDegrees>38.9483240805566310882568359375</LatitudeDegrees>
              <LongitudeDegrees>-2.82751500606536865234375</LongitudeDegrees>
            </Position>
            <AltitudeMeters>919.5999755859375</AltitudeMeters>
            <DistanceMeters>24638.433096686</DistanceMeters>
          </Trackpoint>
          <Trackpoint>
            <Time>2020-02-09T11:13:33.000Z</Time>
            <Position>
              <LatitudeDegrees>38.9483130164444446563720703125</LatitudeDegrees>
              <LongitudeDegrees>-2.8275725059211254119873046875</LongitudeDegrees>
            </Position>
            <AltitudeMeters>919.5999755859375</AltitudeMeters>
            <DistanceMeters>24643.561018546</DistanceMeters>
          </Trackpoint>
          <Trackpoint>
            <Time>2020-02-09T11:13:35.000Z</Time>
            <Position>
              <LatitudeDegrees>38.94830689765512943267822265625</LatitudeDegrees>
              <LongitudeDegrees>-2.82760150730609893798828125</LongitudeDegrees>
            </Position>
            <AltitudeMeters>919.4000244140625</AltitudeMeters>
            <DistanceMeters>24646.161696776</DistanceMeters>
          </Trackpoint>
          <Trackpoint>
            <Time>2020-02-09T11:13:38.000Z</Time>
            <Position>
              <LatitudeDegrees>38.94829633645713329315185546875</LatitudeDegrees>
              <LongitudeDegrees>-2.827621959149837493896484375</LongitudeDegrees>
            </Position>
            <AltitudeMeters>919.20001220703125</AltitudeMeters>
            <DistanceMeters>24648.286558706</DistanceMeters>
          </Trackpoint>
          <Trackpoint>
            <Time>2020-02-09T11:13:53.000Z</Time>
            <Position>
              <LatitudeDegrees>38.94832014106214046478271484375</LatitudeDegrees>
              <LongitudeDegrees>-2.82767149619758129119873046875</LongitudeDegrees>
            </Position>
            <AltitudeMeters>918.79998779296875</AltitudeMeters>
            <DistanceMeters>24653.327454967</DistanceMeters>
          </Trackpoint>
          <Trackpoint>
            <Time>2020-02-09T11:14:03.000Z</Time>
            <Position>
              <LatitudeDegrees>38.9484441094100475311279296875</LatitudeDegrees>
              <LongitudeDegrees>-2.8279347717761993408203125</LongitudeDegrees>
            </Position>
            <AltitudeMeters>918.4000244140625</AltitudeMeters>
            <DistanceMeters>24679.96817358</DistanceMeters>
          </Trackpoint>
          <Trackpoint>
            <Time>2020-02-09T11:14:13.000Z</Time>
            <Position>
              <LatitudeDegrees>38.9485530741512775421142578125</LatitudeDegrees>
              <LongitudeDegrees>-2.82827164046466350555419921875</LongitudeDegrees>
            </Position>
            <AltitudeMeters>918.20001220703125</AltitudeMeters>
            <DistanceMeters>24711.549369618</DistanceMeters>
          </Trackpoint>
          <Trackpoint>
            <Time>2020-02-09T11:14:23.000Z</Time>
            <Position>
              <LatitudeDegrees>38.94867033697664737701416015625</LatitudeDegrees>
              <LongitudeDegrees>-2.8286182321608066558837890625</LongitudeDegrees>
            </Position>
            <AltitudeMeters>918.20001220703125</AltitudeMeters>
            <DistanceMeters>24744.266585753</DistanceMeters>
          </Trackpoint>
          <Trackpoint>
            <Time>2020-02-09T11:14:33.000Z</Time>
            <Position>
              <LatitudeDegrees>38.948738314211368560791015625</LatitudeDegrees>
              <LongitudeDegrees>-2.82900153659284114837646484375</LongitudeDegrees>
            </Position>
            <AltitudeMeters>918</AltitudeMeters>
            <DistanceMeters>24778.297296057</DistanceMeters>
          </Trackpoint>
          <Trackpoint>
            <Time>2020-02-09T11:14:36.000Z</Time>
            <Position>
              <LatitudeDegrees>38.94879321567714214324951171875</LatitudeDegrees>
              <LongitudeDegrees>-2.82909792847931385040283203125</LongitudeDegrees>
            </Position>
            <AltitudeMeters>918.5999755859375</AltitudeMeters>
            <DistanceMeters>24788.639503533</DistanceMeters>
          </Trackpoint>
          <Trackpoint>
            <Time>2020-02-09T11:14:43.000Z</Time>
            <Position>
              <LatitudeDegrees>38.9490115642547607421875</LatitudeDegrees>
              <LongitudeDegrees>-2.82910647802054882049560546875</LongitudeDegrees>
            </Position>
            <AltitudeMeters>920.4000244140625</AltitudeMeters>
            <DistanceMeters>24812.953347007</DistanceMeters>
          </Trackpoint>
          <Trackpoint>
            <Time>2020-02-09T11:14:53.000Z</Time>
            <Position>
              <LatitudeDegrees>38.94929520785808563232421875</LatitudeDegrees>
              <LongitudeDegrees>-2.8288666717708110809326171875</LongitudeDegrees>
            </Position>
            <AltitudeMeters>922.20001220703125</AltitudeMeters>
            <DistanceMeters>24850.73623632</DistanceMeters>
          </Trackpoint>
          <Trackpoint>
            <Time>2020-02-09T11:14:56.000Z</Time>
            <Position>
              <LatitudeDegrees>38.94938397221267223358154296875</LatitudeDegrees>
              <LongitudeDegrees>-2.8287650831043720245361328125</LongitudeDegrees>
            </Position>
            <AltitudeMeters>922.79998779296875</AltitudeMeters>
            <DistanceMeters>24863.962371087</DistanceMeters>
          </Trackpoint>
          <Trackpoint>
            <Time>2020-02-09T11:15:03.000Z</Time>
            <Position>
              <LatitudeDegrees>38.949635513126850128173828125</LatitudeDegrees>
              <LongitudeDegrees>-2.82856366597115993499755859375</LongitudeDegrees>
            </Position>
            <AltitudeMeters>922.5999755859375</AltitudeMeters>
            <DistanceMeters>24896.944034154</DistanceMeters>
          </Trackpoint>
          <Trackpoint>
            <Time>2020-02-09T11:15:06.000Z</Time>
            <Position>
              <LatitudeDegrees>38.94973106682300567626953125</LatitudeDegrees>
              <LongitudeDegrees>-2.8284418769180774688720703125</LongitudeDegrees>
            </Position>
            <AltitudeMeters>922.5999755859375</AltitudeMeters>
            <DistanceMeters>24911.918809222</DistanceMeters>
          </Trackpoint>
          <Trackpoint>
            <Time>2020-02-09T11:15:09.000Z</Time>
            <Position>
              <LatitudeDegrees>38.94984883256256580352783203125</LatitudeDegrees>
              <LongitudeDegrees>-2.8283540345728397369384765625</LongitudeDegrees>
            </Position>
            <AltitudeMeters>922.4000244140625</AltitudeMeters>
            <DistanceMeters>24927.072218538</DistanceMeters>
          </Trackpoint>
          <Trackpoint>
            <Time>2020-02-09T11:15:11.000Z</Time>
            <Position>
              <LatitudeDegrees>38.9499448053538799285888671875</LatitudeDegrees>
              <LongitudeDegrees>-2.828313298523426055908203125</LongitudeDegrees>
            </Position>
            <AltitudeMeters>922.5999755859375</AltitudeMeters>
            <DistanceMeters>24938.320748715</DistanceMeters>
          </Trackpoint>
          <Trackpoint>
            <Time>2020-02-09T11:15:13.000Z</Time>
            <Position>
              <LatitudeDegrees>38.9500353299081325531005859375</LatitudeDegrees>
              <LongitudeDegrees>-2.82824255526065826416015625</LongitudeDegrees>
            </Position>
            <AltitudeMeters>922.5999755859375</AltitudeMeters>
            <DistanceMeters>24950.111339321</DistanceMeters>
          </Trackpoint>
          <Trackpoint>
            <Time>2020-02-09T11:15:15.000Z</Time>
            <Position>
              <LatitudeDegrees>38.95010414533317089080810546875</LatitudeDegrees>
              <LongitudeDegrees>-2.828144989907741546630859375</LongitudeDegrees>
            </Position>
            <AltitudeMeters>922.5999755859375</AltitudeMeters>
            <DistanceMeters>24961.51216913</DistanceMeters>
          </Trackpoint>
          <Trackpoint>
            <Time>2020-02-09T11:15:17.000Z</Time>
            <Position>
              <LatitudeDegrees>38.9501848630607128143310546875</LatitudeDegrees>
              <LongitudeDegrees>-2.8280635178089141845703125</LongitudeDegrees>
            </Position>
            <AltitudeMeters>922.5999755859375</AltitudeMeters>
            <DistanceMeters>24972.933573786</DistanceMeters>
          </Trackpoint>
          <Trackpoint>
            <Time>2020-02-09T11:15:21.000Z</Time>
            <Position>
              <LatitudeDegrees>38.95036448724567890167236328125</LatitudeDegrees>
              <LongitudeDegrees>-2.827965952455997467041015625</LongitudeDegrees>
            </Position>
            <AltitudeMeters>922.4000244140625</AltitudeMeters>
            <DistanceMeters>24994.636518687</DistanceMeters>
          </Trackpoint>
          <Trackpoint>
            <Time>2020-02-09T11:15:23.000Z</Time>
            <Position>
              <LatitudeDegrees>38.950445540249347686767578125</LatitudeDegrees>
              <LongitudeDegrees>-2.8279976360499858856201171875</LongitudeDegrees>
            </Position>
            <AltitudeMeters>922.5999755859375</AltitudeMeters>
            <DistanceMeters>25004.065735657</DistanceMeters>
          </Trackpoint>
          <Trackpoint>
            <Time>2020-02-09T11:15:33.000Z</Time>
            <Position>
              <LatitudeDegrees>38.95054603926837444305419921875</LatitudeDegrees>
              <LongitudeDegrees>-2.82849879004061222076416015625</LongitudeDegrees>
            </Position>
            <AltitudeMeters>923.20001220703125</AltitudeMeters>
            <DistanceMeters>25048.863953359</DistanceMeters>
          </Trackpoint>
          <Trackpoint>
            <Time>2020-02-09T11:15:35.000Z</Time>
            <Position>
              <LatitudeDegrees>38.95055995322763919830322265625</LatitudeDegrees>
              <LongitudeDegrees>-2.8286158852279186248779296875</LongitudeDegrees>
            </Position>
            <AltitudeMeters>923.20001220703125</AltitudeMeters>
            <DistanceMeters>25059.117155296</DistanceMeters>
          </Trackpoint>
          <Trackpoint>
            <Time>2020-02-09T11:15:38.000Z</Time>
            <Position>
              <LatitudeDegrees>38.95060571841895580291748046875</LatitudeDegrees>
              <LongitudeDegrees>-2.82877807505428791046142578125</LongitudeDegrees>
            </Position>
            <AltitudeMeters>923.4000244140625</AltitudeMeters>
            <DistanceMeters>25074.051473428</DistanceMeters>
          </Trackpoint>
          <Trackpoint>
            <Time>2020-02-09T11:15:40.000Z</Time>
            <Position>
              <LatitudeDegrees>38.95066573284566402435302734375</LatitudeDegrees>
              <LongitudeDegrees>-2.82887262292206287384033203125</LongitudeDegrees>
            </Position>
            <AltitudeMeters>923.4000244140625</AltitudeMeters>
            <DistanceMeters>25084.615264637</DistanceMeters>
          </Trackpoint>
          <Trackpoint>
            <Time>2020-02-09T11:15:42.000Z</Time>
            <Position>
              <LatitudeDegrees>38.95074837841093540191650390625</LatitudeDegrees>
              <LongitudeDegrees>-2.82893992960453033447265625</LongitudeDegrees>
            </Position>
            <AltitudeMeters>923.4000244140625</AltitudeMeters>
            <DistanceMeters>25095.504015883</DistanceMeters>
          </Trackpoint>
          <Trackpoint>
            <Time>2020-02-09T11:15:43.000Z</Time>
            <Position>
              <LatitudeDegrees>38.95078492350876331329345703125</LatitudeDegrees>
              <LongitudeDegrees>-2.82898142002522945404052734375</LongitudeDegrees>
            </Position>
            <AltitudeMeters>923.4000244140625</AltitudeMeters>
            <DistanceMeters>25100.931364164</DistanceMeters>
          </Trackpoint>
          <Trackpoint>
            <Time>2020-02-09T11:15:44.000Z</Time>
            <Position>
              <LatitudeDegrees>38.950815014541149139404296875</LatitudeDegrees>
              <LongitudeDegrees>-2.8290306217968463897705078125</LongitudeDegrees>
            </Position>
            <AltitudeMeters>923.4000244140625</AltitudeMeters>
            <DistanceMeters>25106.349553762</DistanceMeters>
          </Trackpoint>
          <Trackpoint>
            <Time>2020-02-09T11:15:46.000Z</Time>
            <Position>
              <LatitudeDegrees>38.950876034796237945556640625</LatitudeDegrees>
              <LongitudeDegrees>-2.82912877388298511505126953125</LongitudeDegrees>
            </Position>
            <AltitudeMeters>923.20001220703125</AltitudeMeters>
            <DistanceMeters>25117.225858347</DistanceMeters>
          </Trackpoint>
          <Trackpoint>
            <Time>2020-02-09T11:15:53.000Z</Time>
            <Position>
              <LatitudeDegrees>38.9510720036923885345458984375</LatitudeDegrees>
              <LongitudeDegrees>-2.82940085045993328094482421875</LongitudeDegrees>
            </Position>
            <AltitudeMeters>923.20001220703125</AltitudeMeters>
            <DistanceMeters>25149.325201682</DistanceMeters>
          </Trackpoint>
          <Trackpoint>
            <Time>2020-02-09T11:16:03.000Z</Time>
            <Position>
              <LatitudeDegrees>38.951320946216583251953125</LatitudeDegrees>
              <LongitudeDegrees>-2.8299217857420444488525390625</LongitudeDegrees>
            </Position>
            <AltitudeMeters>922.79998779296875</AltitudeMeters>
            <DistanceMeters>25202.248854155</DistanceMeters>
          </Trackpoint>
          <Trackpoint>
            <Time>2020-02-09T11:16:05.000Z</Time>
            <Position>
              <LatitudeDegrees>38.9513462595641613006591796875</LatitudeDegrees>
              <LongitudeDegrees>-2.83002479933202266693115234375</LongitudeDegrees>
            </Position>
            <AltitudeMeters>922.5999755859375</AltitudeMeters>
            <DistanceMeters>25211.599212444</DistanceMeters>
          </Trackpoint>
          <Trackpoint>
            <Time>2020-02-09T11:16:08.000Z</Time>
            <Position>
              <LatitudeDegrees>38.95139177329838275909423828125</LatitudeDegrees>
              <LongitudeDegrees>-2.83015421591699123382568359375</LongitudeDegrees>
            </Position>
            <AltitudeMeters>923</AltitudeMeters>
            <DistanceMeters>25223.893333784</DistanceMeters>
          </Trackpoint>
          <Trackpoint>
            <Time>2020-02-09T11:16:13.000Z</Time>
            <Position>
              <LatitudeDegrees>38.9515437372028827667236328125</LatitudeDegrees>
              <LongitudeDegrees>-2.83030785620212554931640625</LongitudeDegrees>
            </Position>
            <AltitudeMeters>923</AltitudeMeters>
            <DistanceMeters>25245.40927901</DistanceMeters>
          </Trackpoint>
          <Trackpoint>
            <Time>2020-02-09T11:16:23.000Z</Time>
            <Position>
              <LatitudeDegrees>38.95170240662992000579833984375</LatitudeDegrees>
              <LongitudeDegrees>-2.83071965910494327545166015625</LongitudeDegrees>
            </Position>
            <AltitudeMeters>923</AltitudeMeters>
            <DistanceMeters>25285.188828227</DistanceMeters>
          </Trackpoint>
          <Trackpoint>
            <Time>2020-02-09T11:16:33.000Z</Time>
            <Position>
              <LatitudeDegrees>38.95194112323224544525146484375</LatitudeDegrees>
              <LongitudeDegrees>-2.83109164796769618988037109375</LongitudeDegrees>
            </Position>
            <AltitudeMeters>922.4000244140625</AltitudeMeters>
            <DistanceMeters>25326.934010853</DistanceMeters>
          </Trackpoint>
          <Trackpoint>
            <Time>2020-02-09T11:16:36.000Z</Time>
            <Position>
              <LatitudeDegrees>38.95199812017381191253662109375</LatitudeDegrees>
              <LongitudeDegrees>-2.83124235458672046661376953125</LongitudeDegrees>
            </Position>
            <AltitudeMeters>922.5999755859375</AltitudeMeters>
            <DistanceMeters>25341.439520538</DistanceMeters>
          </Trackpoint>
          <Trackpoint>
            <Time>2020-02-09T11:16:39.000Z</Time>
            <Position>
              <LatitudeDegrees>38.95203097723424434661865234375</LatitudeDegrees>
              <LongitudeDegrees>-2.8314094059169292449951171875</LongitudeDegrees>
            </Position>
            <AltitudeMeters>922.79998779296875</AltitudeMeters>
            <DistanceMeters>25356.35417451</DistanceMeters>
          </Trackpoint>
          <Trackpoint>
            <Time>2020-02-09T11:16:43.000Z</Time>
            <Position>
              <LatitudeDegrees>38.9521200768649578094482421875</LatitudeDegrees>
              <LongitudeDegrees>-2.83163412474095821380615234375</LongitudeDegrees>
            </Position>
            <AltitudeMeters>922.79998779296875</AltitudeMeters>
            <DistanceMeters>25378.187169617</DistanceMeters>
          </Trackpoint>
          <Trackpoint>
            <Time>2020-02-09T11:16:50.000Z</Time>
            <Position>
              <LatitudeDegrees>38.9522873796522617340087890625</LatitudeDegrees>
              <LongitudeDegrees>-2.83202304504811763763427734375</LongitudeDegrees>
            </Position>
            <AltitudeMeters>922</AltitudeMeters>
            <DistanceMeters>25416.657617349</DistanceMeters>
          </Trackpoint>
          <Trackpoint>
            <Time>2020-02-09T11:16:53.000Z</Time>
            <Position>
              <LatitudeDegrees>38.952328450977802276611328125</LatitudeDegrees>
              <LongitudeDegrees>-2.83221096731722354888916015625</LongitudeDegrees>
            </Position>
            <AltitudeMeters>922.20001220703125</AltitudeMeters>
            <DistanceMeters>25433.55340992</DistanceMeters>
          </Trackpoint>
          <Trackpoint>
            <Time>2020-02-09T11:16:55.000Z</Time>
            <Position>
              <LatitudeDegrees>38.95239408127963542938232421875</LatitudeDegrees>
              <LongitudeDegrees>-2.832303084433078765869140625</LongitudeDegrees>
            </Position>
            <AltitudeMeters>922.4000244140625</AltitudeMeters>
            <DistanceMeters>25444.367266307</DistanceMeters>
          </Trackpoint>
          <Trackpoint>
            <Time>2020-02-09T11:16:57.000Z</Time>
            <Position>
              <LatitudeDegrees>38.95246499218046665191650390625</LatitudeDegrees>
              <LongitudeDegrees>-2.83238749019801616668701171875</LongitudeDegrees>
            </Position>
            <AltitudeMeters>922.4000244140625</AltitudeMeters>
            <DistanceMeters>25455.122510574</DistanceMeters>
          </Trackpoint>
          <Trackpoint>
            <Time>2020-02-09T11:16:59.000Z</Time>
            <Position>
              <LatitudeDegrees>38.95247764885425567626953125</LatitudeDegrees>
              <LongitudeDegrees>-2.83249343745410442352294921875</LongitudeDegrees>
            </Position>
            <AltitudeMeters>922.79998779296875</AltitudeMeters>
            <DistanceMeters>25464.400641784</DistanceMeters>
          </Trackpoint>
          <Trackpoint>
            <Time>2020-02-09T11:17:03.000Z</Time>
            <Position>
              <LatitudeDegrees>38.95245979540050029754638671875</LatitudeDegrees>
              <LongitudeDegrees>-2.8327069245278835296630859375</LongitudeDegrees>
            </Position>
            <AltitudeMeters>923.4000244140625</AltitudeMeters>
            <DistanceMeters>25482.985836269</DistanceMeters>
          </Trackpoint>
          <Trackpoint>
            <Time>2020-02-09T11:17:05.000Z</Time>
            <Position>
              <LatitudeDegrees>38.95247756503522396087646484375</LatitudeDegrees>
              <LongitudeDegrees>-2.8327997960150241851806640625</LongitudeDegrees>
            </Position>
            <AltitudeMeters>923.5999755859375</AltitudeMeters>
            <DistanceMeters>25491.264621217</DistanceMeters>
          </Trackpoint>
          <Trackpoint>
            <Time>2020-02-09T11:17:13.000Z</Time>
            <Position>
              <LatitudeDegrees>38.95268593914806842803955078125</LatitudeDegrees>
              <LongitudeDegrees>-2.833137251436710357666015625</LongitudeDegrees>
            </Position>
            <AltitudeMeters>923</AltitudeMeters>
            <DistanceMeters>25528.561365792</DistanceMeters>
          </Trackpoint>
          <Trackpoint>
            <Time>2020-02-09T11:17:23.000Z</Time>
            <Position>
              <LatitudeDegrees>38.95296287722885608673095703125</LatitudeDegrees>
              <LongitudeDegrees>-2.83356984145939350128173828125</LongitudeDegrees>
            </Position>
            <AltitudeMeters>922.20001220703125</AltitudeMeters>
            <DistanceMeters>25577.059727636</DistanceMeters>
          </Trackpoint>
          <Trackpoint>
            <Time>2020-02-09T11:17:27.000Z</Time>
            <Position>
              <LatitudeDegrees>38.9530603587627410888671875</LatitudeDegrees>
              <LongitudeDegrees>-2.833760865032672882080078125</LongitudeDegrees>
            </Position>
            <AltitudeMeters>921.79998779296875</AltitudeMeters>
            <DistanceMeters>25596.836017502</DistanceMeters>
          </Trackpoint>
          <Trackpoint>
            <Time>2020-02-09T11:17:30.000Z</Time>
            <Position>
              <LatitudeDegrees>38.95308676175773143768310546875</LatitudeDegrees>
              <LongitudeDegrees>-2.83391115255653858184814453125</LongitudeDegrees>
            </Position>
            <AltitudeMeters>921.5999755859375</AltitudeMeters>
            <DistanceMeters>25610.172298305</DistanceMeters>
          </Trackpoint>
          <Trackpoint>
            <Time>2020-02-09T11:17:32.000Z</Time>
            <Position>
              <LatitudeDegrees>38.95309321582317352294921875</LatitudeDegrees>
              <LongitudeDegrees>-2.8340191952884197235107421875</LongitudeDegrees>
            </Position>
            <AltitudeMeters>921.4000244140625</AltitudeMeters>
            <DistanceMeters>25619.552065615</DistanceMeters>
          </Trackpoint>
          <Trackpoint>
            <Time>2020-02-09T11:17:33.000Z</Time>
            <Position>
              <LatitudeDegrees>38.9530990831553936004638671875</LatitudeDegrees>
              <LongitudeDegrees>-2.83407443203032016754150390625</LongitudeDegrees>
            </Position>
            <AltitudeMeters>921.4000244140625</AltitudeMeters>
            <DistanceMeters>25624.377888565</DistanceMeters>
          </Trackpoint>
          <Trackpoint>
            <Time>2020-02-09T11:17:36.000Z</Time>
            <Position>
              <LatitudeDegrees>38.9531336165964603424072265625</LatitudeDegrees>
              <LongitudeDegrees>-2.8342367894947528839111328125</LongitudeDegrees>
            </Position>
            <AltitudeMeters>921</AltitudeMeters>
            <DistanceMeters>25638.947067571</DistanceMeters>
          </Trackpoint>
          <Trackpoint>
            <Time>2020-02-09T11:17:38.000Z</Time>
            <Position>
              <LatitudeDegrees>38.95318231545388698577880859375</LatitudeDegrees>
              <LongitudeDegrees>-2.8343377076089382171630859375</LongitudeDegrees>
            </Position>
            <AltitudeMeters>921</AltitudeMeters>
            <DistanceMeters>25649.227535201</DistanceMeters>
          </Trackpoint>
          <Trackpoint>
            <Time>2020-02-09T11:17:40.000Z</Time>
            <Position>
              <LatitudeDegrees>38.9532405696809291839599609375</LatitudeDegrees>
              <LongitudeDegrees>-2.83443988300859928131103515625</LongitudeDegrees>
            </Position>
            <AltitudeMeters>921</AltitudeMeters>
            <DistanceMeters>25660.193140425</DistanceMeters>
          </Trackpoint>
          <Trackpoint>
            <Time>2020-02-09T11:17:43.000Z</Time>
            <Position>
              <LatitudeDegrees>38.9533200301229953765869140625</LatitudeDegrees>
              <LongitudeDegrees>-2.8346082754433155059814453125</LongitudeDegrees>
            </Position>
            <AltitudeMeters>920.79998779296875</AltitudeMeters>
            <DistanceMeters>25677.241896995</DistanceMeters>
          </Trackpoint>
          <Trackpoint>
            <Time>2020-02-09T11:17:44.000Z</Time>
            <Position>
              <LatitudeDegrees>38.95334442146122455596923828125</LatitudeDegrees>
              <LongitudeDegrees>-2.83467038534581661224365234375</LongitudeDegrees>
            </Position>
            <AltitudeMeters>920.5999755859375</AltitudeMeters>
            <DistanceMeters>25683.263922152</DistanceMeters>
          </Trackpoint>
          <Trackpoint>
            <Time>2020-02-09T11:17:48.000Z</Time>
            <Position>
              <LatitudeDegrees>38.95340502262115478515625</LatitudeDegrees>
              <LongitudeDegrees>-2.8349355049431324005126953125</LongitudeDegrees>
            </Position>
            <AltitudeMeters>920</AltitudeMeters>
            <DistanceMeters>25707.181978154</DistanceMeters>
          </Trackpoint>
          <Trackpoint>
            <Time>2020-02-09T11:17:50.000Z</Time>
            <Position>
              <LatitudeDegrees>38.95342589356005191802978515625</LatitudeDegrees>
              <LongitudeDegrees>-2.83507606945931911468505859375</LongitudeDegrees>
            </Position>
            <AltitudeMeters>919.79998779296875</AltitudeMeters>
            <DistanceMeters>25719.568301207</DistanceMeters>
          </Trackpoint>
          <Trackpoint>
            <Time>2020-02-09T11:17:52.000Z</Time>
            <Position>
              <LatitudeDegrees>38.95339672453701496124267578125</LatitudeDegrees>
              <LongitudeDegrees>-2.83521587960422039031982421875</LongitudeDegrees>
            </Position>
            <AltitudeMeters>919.79998779296875</AltitudeMeters>
            <DistanceMeters>25732.097421244</DistanceMeters>
          </Trackpoint>
          <Trackpoint>
            <Time>2020-02-09T11:17:53.000Z</Time>
            <Position>
              <LatitudeDegrees>38.9533688127994537353515625</LatitudeDegrees>
              <LongitudeDegrees>-2.83527907915413379669189453125</LongitudeDegrees>
            </Position>
            <AltitudeMeters>920</AltitudeMeters>
            <DistanceMeters>25738.388591648</DistanceMeters>
          </Trackpoint>
          <Trackpoint>
            <Time>2020-02-09T11:17:58.000Z</Time>
            <Position>
              <LatitudeDegrees>38.953231014311313629150390625</LatitudeDegrees>
              <LongitudeDegrees>-2.835569679737091064453125</LongitudeDegrees>
            </Position>
            <AltitudeMeters>920.4000244140625</AltitudeMeters>
            <DistanceMeters>25767.848712272</DistanceMeters>
          </Trackpoint>
          <Trackpoint>
            <Time>2020-02-09T11:18:00.000Z</Time>
            <Position>
              <LatitudeDegrees>38.953196145594120025634765625</LatitudeDegrees>
              <LongitudeDegrees>-2.83570538274943828582763671875</LongitudeDegrees>
            </Position>
            <AltitudeMeters>920.4000244140625</AltitudeMeters>
            <DistanceMeters>25780.218986134</DistanceMeters>
          </Trackpoint>
          <Trackpoint>
            <Time>2020-02-09T11:18:03.000Z</Time>
            <Position>
              <LatitudeDegrees>38.953173346817493438720703125</LatitudeDegrees>
              <LongitudeDegrees>-2.8359197080135345458984375</LongitudeDegrees>
            </Position>
            <AltitudeMeters>920.4000244140625</AltitudeMeters>
            <DistanceMeters>25798.942625144</DistanceMeters>
          </Trackpoint>
          <Trackpoint>
            <Time>2020-02-09T11:18:04.000Z</Time>
            <Position>
              <LatitudeDegrees>38.9531715027987957000732421875</LatitudeDegrees>
              <LongitudeDegrees>-2.8359855897724628448486328125</LongitudeDegrees>
            </Position>
            <AltitudeMeters>920.5999755859375</AltitudeMeters>
            <DistanceMeters>25804.648977364</DistanceMeters>
          </Trackpoint>
          <Trackpoint>
            <Time>2020-02-09T11:18:06.000Z</Time>
            <Position>
              <LatitudeDegrees>38.953186087310314178466796875</LatitudeDegrees>
              <LongitudeDegrees>-2.8361049480736255645751953125</LongitudeDegrees>
            </Position>
            <AltitudeMeters>920.5999755859375</AltitudeMeters>
            <DistanceMeters>25815.106234449</DistanceMeters>
          </Trackpoint>
          <Trackpoint>
            <Time>2020-02-09T11:18:08.000Z</Time>
            <Position>
              <LatitudeDegrees>38.9532204531133174896240234375</LatitudeDegrees>
              <LongitudeDegrees>-2.836219109594821929931640625</LongitudeDegrees>
            </Position>
            <AltitudeMeters>920.5999755859375</AltitudeMeters>
            <DistanceMeters>25825.701606568</DistanceMeters>
          </Trackpoint>
          <Trackpoint>
            <Time>2020-02-09T11:18:13.000Z</Time>
            <Position>
              <LatitudeDegrees>38.95332765765488147735595703125</LatitudeDegrees>
              <LongitudeDegrees>-2.8364978916943073272705078125</LongitudeDegrees>
            </Position>
            <AltitudeMeters>920.20001220703125</AltitudeMeters>
            <DistanceMeters>25852.62051283</DistanceMeters>
          </Trackpoint>
          <Trackpoint>
            <Time>2020-02-09T11:18:15.000Z</Time>
            <Position>
              <LatitudeDegrees>38.9533642865717411041259765625</LatitudeDegrees>
              <LongitudeDegrees>-2.83660543151199817657470703125</LongitudeDegrees>
            </Position>
            <AltitudeMeters>920.20001220703125</AltitudeMeters>
            <DistanceMeters>25862.781708334</DistanceMeters>
          </Trackpoint>
          <Trackpoint>
            <Time>2020-02-09T11:18:23.000Z</Time>
            <Position>
              <LatitudeDegrees>38.95346629433333873748779296875</LatitudeDegrees>
              <LongitudeDegrees>-2.837007679045200347900390625</LongitudeDegrees>
            </Position>
            <AltitudeMeters>920</AltitudeMeters>
            <DistanceMeters>25899.402641869</DistanceMeters>
          </Trackpoint>
          <Trackpoint>
            <Time>2020-02-09T11:18:31.000Z</Time>
            <Position>
              <LatitudeDegrees>38.95355514250695705413818359375</LatitudeDegrees>
              <LongitudeDegrees>-2.83739903010427951812744140625</LongitudeDegrees>
            </Position>
            <AltitudeMeters>920</AltitudeMeters>
            <DistanceMeters>25934.689939317</DistanceMeters>
          </Trackpoint>
          <Trackpoint>
            <Time>2020-02-09T11:18:33.000Z</Time>
            <Position>
              <LatitudeDegrees>38.95355514250695705413818359375</LatitudeDegrees>
              <LongitudeDegrees>-2.83751034177839756011962890625</LongitudeDegrees>
            </Position>
            <AltitudeMeters>920</AltitudeMeters>
            <DistanceMeters>25944.324729706</DistanceMeters>
          </Trackpoint>
          <Trackpoint>
            <Time>2020-02-09T11:18:43.000Z</Time>
            <Position>
              <LatitudeDegrees>38.9535604231059551239013671875</LatitudeDegrees>
              <LongitudeDegrees>-2.83808785490691661834716796875</LongitudeDegrees>
            </Position>
            <AltitudeMeters>919.4000244140625</AltitudeMeters>
            <DistanceMeters>25994.314742861</DistanceMeters>
          </Trackpoint>
          <Trackpoint>
            <Time>2020-02-09T11:18:44.000Z</Time>
            <Position>
              <LatitudeDegrees>38.95356536842882633209228515625</LatitudeDegrees>
              <LongitudeDegrees>-2.83815340138971805572509765625</LongitudeDegrees>
            </Position>
            <AltitudeMeters>919.4000244140625</AltitudeMeters>
            <DistanceMeters>26000.014761725</DistanceMeters>
          </Trackpoint>
          <Trackpoint>
            <Time>2020-02-09T11:18:52.000Z</Time>
            <Position>
              <LatitudeDegrees>38.95364901982247829437255859375</LatitudeDegrees>
              <LongitudeDegrees>-2.8386855684220790863037109375</LongitudeDegrees>
            </Position>
            <AltitudeMeters>918</AltitudeMeters>
            <DistanceMeters>26047.007753912</DistanceMeters>
          </Trackpoint>
          <Trackpoint>
            <Time>2020-02-09T11:18:53.000Z</Time>
            <Position>
              <LatitudeDegrees>38.953643403947353363037109375</LatitudeDegrees>
              <LongitudeDegrees>-2.83875304274260997772216796875</LongitudeDegrees>
            </Position>
            <AltitudeMeters>917.79998779296875</AltitudeMeters>
            <DistanceMeters>26052.880989137</DistanceMeters>
          </Trackpoint>
          <Trackpoint>
            <Time>2020-02-09T11:18:54.000Z</Time>
            <Position>
              <LatitudeDegrees>38.9536325074732303619384765625</LatitudeDegrees>
              <LongitudeDegrees>-2.8388196788728237152099609375</LongitudeDegrees>
            </Position>
            <AltitudeMeters>917.79998779296875</AltitudeMeters>
            <DistanceMeters>26058.774177918</DistanceMeters>
          </Trackpoint>
          <Trackpoint>
            <Time>2020-02-09T11:18:59.000Z</Time>
            <Position>
              <LatitudeDegrees>38.9535339362919330596923828125</LatitudeDegrees>
              <LongitudeDegrees>-2.83915621228516101837158203125</LongitudeDegrees>
            </Position>
            <AltitudeMeters>917.4000244140625</AltitudeMeters>
            <DistanceMeters>26089.900322904</DistanceMeters>
          </Trackpoint>
          <Trackpoint>
            <Time>2020-02-09T11:19:02.000Z</Time>
            <Position>
              <LatitudeDegrees>38.953445591032505035400390625</LatitudeDegrees>
              <LongitudeDegrees>-2.8393480740487575531005859375</LongitudeDegrees>
            </Position>
            <AltitudeMeters>917.4000244140625</AltitudeMeters>
            <DistanceMeters>26109.199871944</DistanceMeters>
          </Trackpoint>
          <Trackpoint>
            <Time>2020-02-09T11:19:03.000Z</Time>
            <Position>
              <LatitudeDegrees>38.95342689938843250274658203125</LatitudeDegrees>
              <LongitudeDegrees>-2.8394151292741298675537109375</LongitudeDegrees>
            </Position>
            <AltitudeMeters>917.20001220703125</AltitudeMeters>
            <DistanceMeters>26115.365634008</DistanceMeters>
          </Trackpoint>
          <Trackpoint>
            <Time>2020-02-09T11:19:04.000Z</Time>
            <Position>
              <LatitudeDegrees>38.95341918803751468658447265625</LatitudeDegrees>
              <LongitudeDegrees>-2.839481346309185028076171875</LongitudeDegrees>
            </Position>
            <AltitudeMeters>917.20001220703125</AltitudeMeters>
            <DistanceMeters>26121.161484625</DistanceMeters>
          </Trackpoint>
          <Trackpoint>
            <Time>2020-02-09T11:19:06.000Z</Time>
            <Position>
              <LatitudeDegrees>38.95342337898910045623779296875</LatitudeDegrees>
              <LongitudeDegrees>-2.83960564993321895599365234375</LongitudeDegrees>
            </Position>
            <AltitudeMeters>916.79998779296875</AltitudeMeters>
            <DistanceMeters>26131.930992591</DistanceMeters>
          </Trackpoint>
          <Trackpoint>
            <Time>2020-02-09T11:19:08.000Z</Time>
            <Position>
              <LatitudeDegrees>38.9533726684749126434326171875</LatitudeDegrees>
              <LongitudeDegrees>-2.83968594856560230255126953125</LongitudeDegrees>
            </Position>
            <AltitudeMeters>916.79998779296875</AltitudeMeters>
            <DistanceMeters>26140.884707947</DistanceMeters>
          </Trackpoint>
          <Trackpoint>
            <Time>2020-02-09T11:19:12.000Z</Time>
            <Position>
              <LatitudeDegrees>38.953240402042865753173828125</LatitudeDegrees>
              <LongitudeDegrees>-2.8397594578564167022705078125</LongitudeDegrees>
            </Position>
            <AltitudeMeters>917.4000244140625</AltitudeMeters>
            <DistanceMeters>26156.922278441</DistanceMeters>
          </Trackpoint>
          <Trackpoint>
            <Time>2020-02-09T11:19:13.000Z</Time>
            <Position>
              <LatitudeDegrees>38.953233025968074798583984375</LatitudeDegrees>
              <LongitudeDegrees>-2.83980446867644786834716796875</LongitudeDegrees>
            </Position>
            <AltitudeMeters>917.20001220703125</AltitudeMeters>
            <DistanceMeters>26160.904339997</DistanceMeters>
          </Trackpoint>
          <Trackpoint>
            <Time>2020-02-09T11:19:16.000Z</Time>
            <Position>
              <LatitudeDegrees>38.9532427489757537841796875</LatitudeDegrees>
              <LongitudeDegrees>-2.83995266072452068328857421875</LongitudeDegrees>
            </Position>
            <AltitudeMeters>916.79998779296875</AltitudeMeters>
            <DistanceMeters>26173.776514354</DistanceMeters>
          </Trackpoint>
          <Trackpoint>
            <Time>2020-02-09T11:19:23.000Z</Time>
            <Position>
              <LatitudeDegrees>38.9531299285590648651123046875</LatitudeDegrees>
              <LongitudeDegrees>-2.84023161046206951141357421875</LongitudeDegrees>
            </Position>
            <AltitudeMeters>917.20001220703125</AltitudeMeters>
            <DistanceMeters>26200.991010671</DistanceMeters>
          </Trackpoint>
          <Trackpoint>
            <Time>2020-02-09T11:19:33.000Z</Time>
            <Position>
              <LatitudeDegrees>38.95295550115406513214111328125</LatitudeDegrees>
              <LongitudeDegrees>-2.8405652940273284912109375</LongitudeDegrees>
            </Position>
            <AltitudeMeters>918</AltitudeMeters>
            <DistanceMeters>26235.791423057</DistanceMeters>
          </Trackpoint>
          <Trackpoint>
            <Time>2020-02-09T11:19:43.000Z</Time>
            <Position>
              <LatitudeDegrees>38.952666409313678741455078125</LatitudeDegrees>
              <LongitudeDegrees>-2.84082152880728244781494140625</LongitudeDegrees>
            </Position>
            <AltitudeMeters>919.20001220703125</AltitudeMeters>
            <DistanceMeters>26274.870863285</DistanceMeters>
          </Trackpoint>
          <Trackpoint>
            <Time>2020-02-09T11:19:47.000Z</Time>
            <Position>
              <LatitudeDegrees>38.9525388367474079132080078125</LatitudeDegrees>
              <LongitudeDegrees>-2.84087483771145343780517578125</LongitudeDegrees>
            </Position>
            <AltitudeMeters>919.4000244140625</AltitudeMeters>
            <DistanceMeters>26289.800948249</DistanceMeters>
          </Trackpoint>
          <Trackpoint>
            <Time>2020-02-09T11:19:53.000Z</Time>
            <Position>
              <LatitudeDegrees>38.95240724086761474609375</LatitudeDegrees>
              <LongitudeDegrees>-2.84107482992112636566162109375</LongitudeDegrees>
            </Position>
            <AltitudeMeters>919.4000244140625</AltitudeMeters>
            <DistanceMeters>26312.476719743</DistanceMeters>
          </Trackpoint>
          <Trackpoint>
            <Time>2020-02-09T11:20:03.000Z</Time>
            <Position>
              <LatitudeDegrees>38.9521348290145397186279296875</LatitudeDegrees>
              <LongitudeDegrees>-2.84134690649807453155517578125</LongitudeDegrees>
            </Position>
            <AltitudeMeters>919.4000244140625</AltitudeMeters>
            <DistanceMeters>26350.868100381</DistanceMeters>
          </Trackpoint>
          <Trackpoint>
            <Time>2020-02-09T11:20:13.000Z</Time>
            <Position>
              <LatitudeDegrees>38.95180583931505680084228515625</LatitudeDegrees>
              <LongitudeDegrees>-2.84145369194447994232177734375</LongitudeDegrees>
            </Position>
            <AltitudeMeters>919.20001220703125</AltitudeMeters>
            <DistanceMeters>26388.633777839</DistanceMeters>
          </Trackpoint>
          <Trackpoint>
            <Time>2020-02-09T11:20:19.000Z</Time>
            <Position>
              <LatitudeDegrees>38.95166091620922088623046875</LatitudeDegrees>
              <LongitudeDegrees>-2.84153960645198822021484375</LongitudeDegrees>
            </Position>
            <AltitudeMeters>918.5999755859375</AltitudeMeters>
            <DistanceMeters>26406.395640937</DistanceMeters>
          </Trackpoint>
          <Trackpoint>
            <Time>2020-02-09T11:20:23.000Z</Time>
            <Position>
              <LatitudeDegrees>38.9515933580696582794189453125</LatitudeDegrees>
              <LongitudeDegrees>-2.841667346656322479248046875</LongitudeDegrees>
            </Position>
            <AltitudeMeters>918</AltitudeMeters>
            <DistanceMeters>26419.767084898</DistanceMeters>
          </Trackpoint>
          <Trackpoint>
            <Time>2020-02-09T11:20:25.000Z</Time>
            <Position>
              <LatitudeDegrees>38.95152269862592220306396484375</LatitudeDegrees>
              <LongitudeDegrees>-2.8417151235044002532958984375</LongitudeDegrees>
            </Position>
            <AltitudeMeters>917.5999755859375</AltitudeMeters>
            <DistanceMeters>26428.652463806</DistanceMeters>
          </Trackpoint>
          <Trackpoint>
            <Time>2020-02-09T11:20:28.000Z</Time>
            <Position>
              <LatitudeDegrees>38.95139160566031932830810546875</LatitudeDegrees>
              <LongitudeDegrees>-2.84176734276115894317626953125</LongitudeDegrees>
            </Position>
            <AltitudeMeters>917</AltitudeMeters>
            <DistanceMeters>26443.927250717</DistanceMeters>
          </Trackpoint>
          <Trackpoint>
            <Time>2020-02-09T11:20:33.000Z</Time>
            <Position>
              <LatitudeDegrees>38.95131164230406284332275390625</LatitudeDegrees>
              <LongitudeDegrees>-2.8418123535811901092529296875</LongitudeDegrees>
            </Position>
            <AltitudeMeters>916.5999755859375</AltitudeMeters>
            <DistanceMeters>26453.64230908</DistanceMeters>
          </Trackpoint>
          <Trackpoint>
            <Time>2020-02-09T11:20:44.000Z</Time>
            <Position>
              <LatitudeDegrees>38.9512738399207592010498046875</LatitudeDegrees>
              <LongitudeDegrees>-2.84181989729404449462890625</LongitudeDegrees>
            </Position>
            <AltitudeMeters>916.4000244140625</AltitudeMeters>
            <DistanceMeters>26457.900523905</DistanceMeters>
          </Trackpoint>
          <Trackpoint>
            <Time>2020-02-09T11:20:46.000Z</Time>
            <Position>
              <LatitudeDegrees>38.951216675341129302978515625</LatitudeDegrees>
              <LongitudeDegrees>-2.84184110350906848907470703125</LongitudeDegrees>
            </Position>
            <AltitudeMeters>916.20001220703125</AltitudeMeters>
            <DistanceMeters>26464.522461024</DistanceMeters>
          </Trackpoint>
          <Trackpoint>
            <Time>2020-02-09T11:20:48.000Z</Time>
            <Position>
              <LatitudeDegrees>38.95112120546400547027587890625</LatitudeDegrees>
              <LongitudeDegrees>-2.8418693505227565765380859375</LongitudeDegrees>
            </Position>
            <AltitudeMeters>915.79998779296875</AltitudeMeters>
            <DistanceMeters>26475.426129511</DistanceMeters>
          </Trackpoint>
          <Trackpoint>
            <Time>2020-02-09T11:20:50.000Z</Time>
            <Position>
              <LatitudeDegrees>38.9510245621204376220703125</LatitudeDegrees>
              <LongitudeDegrees>-2.8419400937855243682861328125</LongitudeDegrees>
            </Position>
            <AltitudeMeters>915.4000244140625</AltitudeMeters>
            <DistanceMeters>26487.803701039</DistanceMeters>
          </Trackpoint>
          <Trackpoint>
            <Time>2020-02-09T11:20:53.000Z</Time>
            <Position>
              <LatitudeDegrees>38.95090796984732151031494140625</LatitudeDegrees>
              <LongitudeDegrees>-2.8421362303197383880615234375</LongitudeDegrees>
            </Position>
            <AltitudeMeters>914.5999755859375</AltitudeMeters>
            <DistanceMeters>26509.172671666</DistanceMeters>
          </Trackpoint>
          <Trackpoint>
            <Time>2020-02-09T11:20:55.000Z</Time>
            <Position>
              <LatitudeDegrees>38.95082616247236728668212890625</LatitudeDegrees>
              <LongitudeDegrees>-2.84227461554110050201416015625</LongitudeDegrees>
            </Position>
            <AltitudeMeters>914</AltitudeMeters>
            <DistanceMeters>26524.21873482</DistanceMeters>
          </Trackpoint>
          <Trackpoint>
            <Time>2020-02-09T11:20:59.000Z</Time>
            <Position>
              <LatitudeDegrees>38.9505954086780548095703125</LatitudeDegrees>
              <LongitudeDegrees>-2.84253646619617938995361328125</LongitudeDegrees>
            </Position>
            <AltitudeMeters>912.79998779296875</AltitudeMeters>
            <DistanceMeters>26558.473064518</DistanceMeters>
          </Trackpoint>
          <Trackpoint>
            <Time>2020-02-09T11:21:01.000Z</Time>
            <Position>
              <LatitudeDegrees>38.95047546364367008209228515625</LatitudeDegrees>
              <LongitudeDegrees>-2.84268901683390140533447265625</LongitudeDegrees>
            </Position>
            <AltitudeMeters>912.20001220703125</AltitudeMeters>
            <DistanceMeters>26577.250400986</DistanceMeters>
          </Trackpoint>
          <Trackpoint>
            <Time>2020-02-09T11:21:03.000Z</Time>
            <Position>
              <LatitudeDegrees>38.95041259936988353729248046875</LatitudeDegrees>
              <LongitudeDegrees>-2.8428802080452442169189453125</LongitudeDegrees>
            </Position>
            <AltitudeMeters>911.5999755859375</AltitudeMeters>
            <DistanceMeters>26595.218241508</DistanceMeters>
          </Trackpoint>
          <Trackpoint>
            <Time>2020-02-09T11:21:07.000Z</Time>
            <Position>
              <LatitudeDegrees>38.95039625465869903564453125</LatitudeDegrees>
              <LongitudeDegrees>-2.84328446723520755767822265625</LongitudeDegrees>
            </Position>
            <AltitudeMeters>910.5999755859375</AltitudeMeters>
            <DistanceMeters>26630.257466007</DistanceMeters>
          </Trackpoint>
          <Trackpoint>
            <Time>2020-02-09T11:21:09.000Z</Time>
            <Position>
              <LatitudeDegrees>38.95032593049108982086181640625</LatitudeDegrees>
              <LongitudeDegrees>-2.8434357605874538421630859375</LongitudeDegrees>
            </Position>
            <AltitudeMeters>909.79998779296875</AltitudeMeters>
            <DistanceMeters>26645.513915476</DistanceMeters>
          </Trackpoint>
          <Trackpoint>
            <Time>2020-02-09T11:21:12.000Z</Time>
            <Position>
              <LatitudeDegrees>38.9502197317779064178466796875</LatitudeDegrees>
              <LongitudeDegrees>-2.8435631655156612396240234375</LongitudeDegrees>
            </Position>
            <AltitudeMeters>908.4000244140625</AltitudeMeters>
            <DistanceMeters>26661.679632667</DistanceMeters>
          </Trackpoint>
          <Trackpoint>
            <Time>2020-02-09T11:21:13.000Z</Time>
            <Position>
              <LatitudeDegrees>38.950210511684417724609375</LatitudeDegrees>
              <LongitudeDegrees>-2.843585126101970672607421875</LongitudeDegrees>
            </Position>
            <AltitudeMeters>908.20001220703125</AltitudeMeters>
            <DistanceMeters>26663.840315319</DistanceMeters>
          </Trackpoint>
          <Trackpoint>
            <Time>2020-02-09T11:21:23.000Z</Time>
            <Position>
              <LatitudeDegrees>38.95011336542665958404541015625</LatitudeDegrees>
              <LongitudeDegrees>-2.8438803367316722869873046875</LongitudeDegrees>
            </Position>
            <AltitudeMeters>905.5999755859375</AltitudeMeters>
            <DistanceMeters>26691.586814149</DistanceMeters>
          </Trackpoint>
          <Trackpoint>
            <Time>2020-02-09T11:21:26.000Z</Time>
            <Position>
              <LatitudeDegrees>38.95007799379527568817138671875</LatitudeDegrees>
              <LongitudeDegrees>-2.844024002552032470703125</LongitudeDegrees>
            </Position>
            <AltitudeMeters>904.4000244140625</AltitudeMeters>
            <DistanceMeters>26704.630420639</DistanceMeters>
          </Trackpoint>
          <Trackpoint>
            <Time>2020-02-09T11:21:29.000Z</Time>
            <Position>
              <LatitudeDegrees>38.95002384670078754425048828125</LatitudeDegrees>
              <LongitudeDegrees>-2.84419541247189044952392578125</LongitudeDegrees>
            </Position>
            <AltitudeMeters>902.79998779296875</AltitudeMeters>
            <DistanceMeters>26720.645171064</DistanceMeters>
          </Trackpoint>
          <Trackpoint>
            <Time>2020-02-09T11:21:33.000Z</Time>
            <Position>
              <LatitudeDegrees>38.95001445896923542022705078125</LatitudeDegrees>
              <LongitudeDegrees>-2.8444281779229640960693359375</LongitudeDegrees>
            </Position>
            <AltitudeMeters>901.4000244140625</AltitudeMeters>
            <DistanceMeters>26740.820172816</DistanceMeters>
          </Trackpoint>
          <Trackpoint>
            <Time>2020-02-09T11:21:35.000Z</Time>
            <Position>
              <LatitudeDegrees>38.949985206127166748046875</LatitudeDegrees>
              <LongitudeDegrees>-2.84453974105417728424072265625</LongitudeDegrees>
            </Position>
            <AltitudeMeters>900.79998779296875</AltitudeMeters>
            <DistanceMeters>26751.011538733</DistanceMeters>
          </Trackpoint>
          <Trackpoint>
            <Time>2020-02-09T11:21:37.000Z</Time>
            <Position>
              <LatitudeDegrees>38.94999115727841854095458984375</LatitudeDegrees>
              <LongitudeDegrees>-2.844645939767360687255859375</LongitudeDegrees>
            </Position>
            <AltitudeMeters>900.20001220703125</AltitudeMeters>
            <DistanceMeters>26760.228640186</DistanceMeters>
          </Trackpoint>
          <Trackpoint>
            <Time>2020-02-09T11:21:40.000Z</Time>
            <Position>
              <LatitudeDegrees>38.949983529746532440185546875</LatitudeDegrees>
              <LongitudeDegrees>-2.844805531203746795654296875</LongitudeDegrees>
            </Position>
            <AltitudeMeters>899.5999755859375</AltitudeMeters>
            <DistanceMeters>26774.068653969</DistanceMeters>
          </Trackpoint>
          <Trackpoint>
            <Time>2020-02-09T11:21:43.000Z</Time>
            <Position>
              <LatitudeDegrees>38.94991588778793811798095703125</LatitudeDegrees>
              <LongitudeDegrees>-2.84498331137001514434814453125</LongitudeDegrees>
            </Position>
            <AltitudeMeters>898.79998779296875</AltitudeMeters>
            <DistanceMeters>26791.199838529</DistanceMeters>
          </Trackpoint>
          <Trackpoint>
            <Time>2020-02-09T11:21:45.000Z</Time>
            <Position>
              <LatitudeDegrees>38.94991119392216205596923828125</LatitudeDegrees>
              <LongitudeDegrees>-2.84506226889789104461669921875</LongitudeDegrees>
            </Position>
            <AltitudeMeters>898.4000244140625</AltitudeMeters>
            <DistanceMeters>26798.054288743</DistanceMeters>
          </Trackpoint>
          <Trackpoint>
            <Time>2020-02-09T11:21:48.000Z</Time>
            <Position>
              <LatitudeDegrees>38.94991152919828891754150390625</LatitudeDegrees>
              <LongitudeDegrees>-2.8451728262007236480712890625</LongitudeDegrees>
            </Position>
            <AltitudeMeters>897.4000244140625</AltitudeMeters>
            <DistanceMeters>26807.623247681</DistanceMeters>
          </Trackpoint>
          <Trackpoint>
            <Time>2020-02-09T11:21:53.000Z</Time>
            <Position>
              <LatitudeDegrees>38.949839361011981964111328125</LatitudeDegrees>
              <LongitudeDegrees>-2.8452918492257595062255859375</LongitudeDegrees>
            </Position>
            <AltitudeMeters>896.5999755859375</AltitudeMeters>
            <DistanceMeters>26820.68726103</DistanceMeters>
          </Trackpoint>
          <Trackpoint>
            <Time>2020-02-09T11:21:59.000Z</Time>
            <Position>
              <LatitudeDegrees>38.94970156252384185791015625</LatitudeDegrees>
              <LongitudeDegrees>-2.8454737365245819091796875</LongitudeDegrees>
            </Position>
            <AltitudeMeters>895.20001220703125</AltitudeMeters>
            <DistanceMeters>26842.667003743</DistanceMeters>
          </Trackpoint>
          <Trackpoint>
            <Time>2020-02-09T11:22:03.000Z</Time>
            <Position>
              <LatitudeDegrees>38.94966241903603076934814453125</LatitudeDegrees>
              <LongitudeDegrees>-2.8457347489893436431884765625</LongitudeDegrees>
            </Position>
            <AltitudeMeters>893.79998779296875</AltitudeMeters>
            <DistanceMeters>26865.676226934</DistanceMeters>
          </Trackpoint>
          <Trackpoint>
            <Time>2020-02-09T11:22:05.000Z</Time>
            <Position>
              <LatitudeDegrees>38.94962235353887081146240234375</LatitudeDegrees>
              <LongitudeDegrees>-2.845874726772308349609375</LongitudeDegrees>
            </Position>
            <AltitudeMeters>893.5999755859375</AltitudeMeters>
            <DistanceMeters>26878.587276897</DistanceMeters>
          </Trackpoint>
          <Trackpoint>
            <Time>2020-02-09T11:22:08.000Z</Time>
            <Position>
              <LatitudeDegrees>38.949524201452732086181640625</LatitudeDegrees>
              <LongitudeDegrees>-2.8460904769599437713623046875</LongitudeDegrees>
            </Position>
            <AltitudeMeters>891.79998779296875</AltitudeMeters>
            <DistanceMeters>26900.222921161</DistanceMeters>
          </Trackpoint>
          <Trackpoint>
            <Time>2020-02-09T11:22:10.000Z</Time>
            <Position>
              <LatitudeDegrees>38.94943359307944774627685546875</LatitudeDegrees>
              <LongitudeDegrees>-2.8461833484470844268798828125</LongitudeDegrees>
            </Position>
            <AltitudeMeters>890.79998779296875</AltitudeMeters>
            <DistanceMeters>26913.119975402</DistanceMeters>
          </Trackpoint>
          <Trackpoint>
            <Time>2020-02-09T11:22:12.000Z</Time>
            <Position>
              <LatitudeDegrees>38.9493262208998203277587890625</LatitudeDegrees>
              <LongitudeDegrees>-2.84623975865542888641357421875</LongitudeDegrees>
            </Position>
            <AltitudeMeters>890.20001220703125</AltitudeMeters>
            <DistanceMeters>26926.029626476</DistanceMeters>
          </Trackpoint>
          <Trackpoint>
            <Time>2020-02-09T11:22:13.000Z</Time>
            <Position>
              <LatitudeDegrees>38.94929126836359500885009765625</LatitudeDegrees>
              <LongitudeDegrees>-2.84627228043973445892333984375</LongitudeDegrees>
            </Position>
            <AltitudeMeters>889.79998779296875</AltitudeMeters>
            <DistanceMeters>26930.832002475</DistanceMeters>
          </Trackpoint>
          <Trackpoint>
            <Time>2020-02-09T11:22:18.000Z</Time>
            <Position>
              <LatitudeDegrees>38.94924826920032501220703125</LatitudeDegrees>
              <LongitudeDegrees>-2.84632994793355464935302734375</LongitudeDegrees>
            </Position>
            <AltitudeMeters>889.5999755859375</AltitudeMeters>
            <DistanceMeters>26937.74613472</DistanceMeters>
          </Trackpoint>
          <Trackpoint>
            <Time>2020-02-09T11:22:28.000Z</Time>
            <Position>
              <LatitudeDegrees>38.94922086037695407867431640625</LatitudeDegrees>
              <LongitudeDegrees>-2.84635241143405437469482421875</LongitudeDegrees>
            </Position>
            <AltitudeMeters>889.4000244140625</AltitudeMeters>
            <DistanceMeters>26941.362147813</DistanceMeters>
          </Trackpoint>
          <Trackpoint>
            <Time>2020-02-09T11:22:33.000Z</Time>
            <Position>
              <LatitudeDegrees>38.9491052739322185516357421875</LatitudeDegrees>
              <LongitudeDegrees>-2.84646405838429927825927734375</LongitudeDegrees>
            </Position>
            <AltitudeMeters>888.5999755859375</AltitudeMeters>
            <DistanceMeters>26957.452278069</DistanceMeters>
          </Trackpoint>
          <Trackpoint>
            <Time>2020-02-09T11:22:38.000Z</Time>
            <Position>
              <LatitudeDegrees>38.949068896472454071044921875</LatitudeDegrees>
              <LongitudeDegrees>-2.8466208837926387786865234375</LongitudeDegrees>
            </Position>
            <AltitudeMeters>887.5999755859375</AltitudeMeters>
            <DistanceMeters>26971.61795344</DistanceMeters>
          </Trackpoint>
          <Trackpoint>
            <Time>2020-02-09T11:22:43.000Z</Time>
            <Position>
              <LatitudeDegrees>38.94900997169315814971923828125</LatitudeDegrees>
              <LongitudeDegrees>-2.84672968089580535888671875</LongitudeDegrees>
            </Position>
            <AltitudeMeters>887</AltitudeMeters>
            <DistanceMeters>26983.094175159</DistanceMeters>
          </Trackpoint>
          <Trackpoint>
            <Time>2020-02-09T11:22:53.000Z</Time>
            <Position>
              <LatitudeDegrees>38.94890570081770420074462890625</LatitudeDegrees>
              <LongitudeDegrees>-2.846960686147212982177734375</LongitudeDegrees>
            </Position>
            <AltitudeMeters>883.5999755859375</AltitudeMeters>
            <DistanceMeters>27006.214000959</DistanceMeters>
          </Trackpoint>
          <Trackpoint>
            <Time>2020-02-09T11:23:00.000Z</Time>
            <Position>
              <LatitudeDegrees>38.94870336167514324188232421875</LatitudeDegrees>
              <LongitudeDegrees>-2.84709136001765727996826171875</LongitudeDegrees>
            </Position>
            <AltitudeMeters>881.4000244140625</AltitudeMeters>
            <DistanceMeters>27031.41597423</DistanceMeters>
          </Trackpoint>
          <Trackpoint>
            <Time>2020-02-09T11:23:02.000Z</Time>
            <Position>
              <LatitudeDegrees>38.9486120827496051788330078125</LatitudeDegrees>
              <LongitudeDegrees>-2.84717760980129241943359375</LongitudeDegrees>
            </Position>
            <AltitudeMeters>880.20001220703125</AltitudeMeters>
            <DistanceMeters>27044.023408766</DistanceMeters>
          </Trackpoint>
          <Trackpoint>
            <Time>2020-02-09T11:23:03.000Z</Time>
            <Position>
              <LatitudeDegrees>38.9485902898013591766357421875</LatitudeDegrees>
              <LongitudeDegrees>-2.84719931893050670623779296875</LongitudeDegrees>
            </Position>
            <AltitudeMeters>879.79998779296875</AltitudeMeters>
            <DistanceMeters>27047.090873461</DistanceMeters>
          </Trackpoint>
          <Trackpoint>
            <Time>2020-02-09T11:23:05.000Z</Time>
            <Position>
              <LatitudeDegrees>38.94857930950820446014404296875</LatitudeDegrees>
              <LongitudeDegrees>-2.84720242023468017578125</LongitudeDegrees>
            </Position>
            <AltitudeMeters>879.5999755859375</AltitudeMeters>
            <DistanceMeters>27048.340754745</DistanceMeters>
          </Trackpoint>
          <Trackpoint>
            <Time>2020-02-09T11:24:23.000Z</Time>
            <Position>
              <LatitudeDegrees>38.94854418933391571044921875</LatitudeDegrees>
              <LongitudeDegrees>-2.8472441621124744415283203125</LongitudeDegrees>
            </Position>
            <AltitudeMeters>879</AltitudeMeters>
            <DistanceMeters>27053.663947385</DistanceMeters>
          </Trackpoint>
          <Trackpoint>
            <Time>2020-02-09T11:24:27.000Z</Time>
            <Position>
              <LatitudeDegrees>38.94842608831822872161865234375</LatitudeDegrees>
              <LongitudeDegrees>-2.8473561443388462066650390625</LongitudeDegrees>
            </Position>
            <AltitudeMeters>877.20001220703125</AltitudeMeters>
            <DistanceMeters>27069.996659598</DistanceMeters>
          </Trackpoint>
          <Trackpoint>
            <Time>2020-02-09T11:24:30.000Z</Time>
            <Position>
              <LatitudeDegrees>38.9482905529439449310302734375</LatitudeDegrees>
              <LongitudeDegrees>-2.84742110408842563629150390625</LongitudeDegrees>
            </Position>
            <AltitudeMeters>876.20001220703125</AltitudeMeters>
            <DistanceMeters>27086.096327739</DistanceMeters>
          </Trackpoint>
          <Trackpoint>
            <Time>2020-02-09T11:24:32.000Z</Time>
            <Position>
              <LatitudeDegrees>38.9482134394347667694091796875</LatitudeDegrees>
              <LongitudeDegrees>-2.8475081920623779296875</LongitudeDegrees>
            </Position>
            <AltitudeMeters>874.79998779296875</AltitudeMeters>
            <DistanceMeters>27097.520104031</DistanceMeters>
          </Trackpoint>
          <Trackpoint>
            <Time>2020-02-09T11:24:34.000Z</Time>
            <Position>
              <LatitudeDegrees>38.94815753214061260223388671875</LatitudeDegrees>
              <LongitudeDegrees>-2.8476367704570293426513671875</LongitudeDegrees>
            </Position>
            <AltitudeMeters>873.5999755859375</AltitudeMeters>
            <DistanceMeters>27110.271400296</DistanceMeters>
          </Trackpoint>
          <Trackpoint>
            <Time>2020-02-09T11:24:35.000Z</Time>
            <Position>
              <LatitudeDegrees>38.94812081940472126007080078125</LatitudeDegrees>
              <LongitudeDegrees>-2.8476904146373271942138671875</LongitudeDegrees>
            </Position>
            <AltitudeMeters>873.20001220703125</AltitudeMeters>
            <DistanceMeters>27116.456172225</DistanceMeters>
          </Trackpoint>
          <Trackpoint>
            <Time>2020-02-09T11:24:37.000Z</Time>
            <Position>
              <LatitudeDegrees>38.9480193145573139190673828125</LatitudeDegrees>
              <LongitudeDegrees>-2.84773710183799266815185546875</LongitudeDegrees>
            </Position>
            <AltitudeMeters>872.5999755859375</AltitudeMeters>
            <DistanceMeters>27128.454400372</DistanceMeters>
          </Trackpoint>
          <Trackpoint>
            <Time>2020-02-09T11:24:39.000Z</Time>
            <Position>
              <LatitudeDegrees>38.94791814498603343963623046875</LatitudeDegrees>
              <LongitudeDegrees>-2.84778052009642124176025390625</LongitudeDegrees>
            </Position>
            <AltitudeMeters>872</AltitudeMeters>
            <DistanceMeters>27140.324754741</DistanceMeters>
          </Trackpoint>
          <Trackpoint>
            <Time>2020-02-09T11:24:41.000Z</Time>
            <Position>
              <LatitudeDegrees>38.94786282442510128021240234375</LatitudeDegrees>
              <LongitudeDegrees>-2.8478493355214595794677734375</LongitudeDegrees>
            </Position>
            <AltitudeMeters>871.5999755859375</AltitudeMeters>
            <DistanceMeters>27148.892455215</DistanceMeters>
          </Trackpoint>
          <Trackpoint>
            <Time>2020-02-09T11:24:43.000Z</Time>
            <Position>
              <LatitudeDegrees>38.94787271507084369659423828125</LatitudeDegrees>
              <LongitudeDegrees>-2.8479653410613536834716796875</LongitudeDegrees>
            </Position>
            <AltitudeMeters>870.79998779296875</AltitudeMeters>
            <DistanceMeters>27158.99482741</DistanceMeters>
          </Trackpoint>
          <Trackpoint>
            <Time>2020-02-09T11:24:44.000Z</Time>
            <Position>
              <LatitudeDegrees>38.947876654565334320068359375</LatitudeDegrees>
              <LongitudeDegrees>-2.84803465940058231353759765625</LongitudeDegrees>
            </Position>
            <AltitudeMeters>870.4000244140625</AltitudeMeters>
            <DistanceMeters>27165.010851545</DistanceMeters>
          </Trackpoint>
          <Trackpoint>
            <Time>2020-02-09T11:24:45.000Z</Time>
            <Position>
              <LatitudeDegrees>38.94783734343945980072021484375</LatitudeDegrees>
              <LongitudeDegrees>-2.84808997996151447296142578125</LongitudeDegrees>
            </Position>
            <AltitudeMeters>870</AltitudeMeters>
            <DistanceMeters>27171.497077424</DistanceMeters>
          </Trackpoint>
          <Trackpoint>
            <Time>2020-02-09T11:24:48.000Z</Time>
            <Position>
              <LatitudeDegrees>38.94777347333729267120361328125</LatitudeDegrees>
              <LongitudeDegrees>-2.84830606542527675628662109375</LongitudeDegrees>
            </Position>
            <AltitudeMeters>868.5999755859375</AltitudeMeters>
            <DistanceMeters>27191.507140382</DistanceMeters>
          </Trackpoint>
          <Trackpoint>
            <Time>2020-02-09T11:24:50.000Z</Time>
            <Position>
              <LatitudeDegrees>38.94774086773395538330078125</LatitudeDegrees>
              <LongitudeDegrees>-2.84846364520490169525146484375</LongitudeDegrees>
            </Position>
            <AltitudeMeters>867.79998779296875</AltitudeMeters>
            <DistanceMeters>27205.622046566</DistanceMeters>
          </Trackpoint>
          <Trackpoint>
            <Time>2020-02-09T11:24:52.000Z</Time>
            <Position>
              <LatitudeDegrees>38.9476776681840419769287109375</LatitudeDegrees>
              <LongitudeDegrees>-2.84858501516282558441162109375</LongitudeDegrees>
            </Position>
            <AltitudeMeters>869.20001220703125</AltitudeMeters>
            <DistanceMeters>27218.265242887</DistanceMeters>
          </Trackpoint>
          <Trackpoint>
            <Time>2020-02-09T11:24:54.000Z</Time>
            <Position>
              <LatitudeDegrees>38.947675488889217376708984375</LatitudeDegrees>
              <LongitudeDegrees>-2.84874075092375278472900390625</LongitudeDegrees>
            </Position>
            <AltitudeMeters>868.79998779296875</AltitudeMeters>
            <DistanceMeters>27231.748324841</DistanceMeters>
          </Trackpoint>
          <Trackpoint>
            <Time>2020-02-09T11:24:56.000Z</Time>
            <Position>
              <LatitudeDegrees>38.94771614111959934234619140625</LatitudeDegrees>
              <LongitudeDegrees>-2.84889581613242626190185546875</LongitudeDegrees>
            </Position>
            <AltitudeMeters>867.4000244140625</AltitudeMeters>
            <DistanceMeters>27245.912725232</DistanceMeters>
          </Trackpoint>
          <Trackpoint>
            <Time>2020-02-09T11:25:02.000Z</Time>
            <Position>
              <LatitudeDegrees>38.947923593223094940185546875</LatitudeDegrees>
              <LongitudeDegrees>-2.8492712415754795074462890625</LongitudeDegrees>
            </Position>
            <AltitudeMeters>865.20001220703125</AltitudeMeters>
            <DistanceMeters>27285.777762715</DistanceMeters>
          </Trackpoint>
          <Trackpoint>
            <Time>2020-02-09T11:25:04.000Z</Time>
            <Position>
              <LatitudeDegrees>38.94800866954028606414794921875</LatitudeDegrees>
              <LongitudeDegrees>-2.84937408752739429473876953125</LongitudeDegrees>
            </Position>
            <AltitudeMeters>865.5999755859375</AltitudeMeters>
            <DistanceMeters>27298.77455501</DistanceMeters>
          </Trackpoint>
          <Trackpoint>
            <Time>2020-02-09T11:25:08.000Z</Time>
            <Position>
              <LatitudeDegrees>38.94820329733192920684814453125</LatitudeDegrees>
              <LongitudeDegrees>-2.84957709722220897674560546875</LongitudeDegrees>
            </Position>
            <AltitudeMeters>866.4000244140625</AltitudeMeters>
            <DistanceMeters>27326.668416462</DistanceMeters>
          </Trackpoint>
          <Trackpoint>
            <Time>2020-02-09T11:25:12.000Z</Time>
            <Position>
              <LatitudeDegrees>38.94843346439301967620849609375</LatitudeDegrees>
              <LongitudeDegrees>-2.84961665980517864227294921875</LongitudeDegrees>
            </Position>
            <AltitudeMeters>862.79998779296875</AltitudeMeters>
            <DistanceMeters>27352.514634661</DistanceMeters>
          </Trackpoint>
          <Trackpoint>
            <Time>2020-02-09T11:25:14.000Z</Time>
            <Position>
              <LatitudeDegrees>38.94853790290653705596923828125</LatitudeDegrees>
              <LongitudeDegrees>-2.84955278970301151275634765625</LongitudeDegrees>
            </Position>
            <AltitudeMeters>861</AltitudeMeters>
            <DistanceMeters>27365.386809017</DistanceMeters>
          </Trackpoint>
          <Trackpoint>
            <Time>2020-02-09T11:25:16.000Z</Time>
            <Position>
              <LatitudeDegrees>38.94860546104609966278076171875</LatitudeDegrees>
              <LongitudeDegrees>-2.8494271449744701385498046875</LongitudeDegrees>
            </Position>
            <AltitudeMeters>860.20001220703125</AltitudeMeters>
            <DistanceMeters>27378.60884668</DistanceMeters>
          </Trackpoint>
          <Trackpoint>
            <Time>2020-02-09T11:25:19.000Z</Time>
            <Position>
              <LatitudeDegrees>38.9487160183489322662353515625</LatitudeDegrees>
              <LongitudeDegrees>-2.8492958843708038330078125</LongitudeDegrees>
            </Position>
            <AltitudeMeters>860</AltitudeMeters>
            <DistanceMeters>27395.357288239</DistanceMeters>
          </Trackpoint>
          <Trackpoint>
            <Time>2020-02-09T11:25:21.000Z</Time>
            <Position>
              <LatitudeDegrees>38.94877611659467220306396484375</LatitudeDegrees>
              <LongitudeDegrees>-2.8493081219494342803955078125</LongitudeDegrees>
            </Position>
            <AltitudeMeters>860.20001220703125</AltitudeMeters>
            <DistanceMeters>27402.130233561</DistanceMeters>
          </Trackpoint>
          <Trackpoint>
            <Time>2020-02-09T11:25:23.000Z</Time>
            <Position>
              <LatitudeDegrees>38.94880092702805995941162109375</LatitudeDegrees>
              <LongitudeDegrees>-2.8494019992649555206298828125</LongitudeDegrees>
            </Position>
            <AltitudeMeters>860.20001220703125</AltitudeMeters>
            <DistanceMeters>27410.712150799</DistanceMeters>
          </Trackpoint>
          <Trackpoint>
            <Time>2020-02-09T11:25:24.000Z</Time>
            <Position>
              <LatitudeDegrees>38.9487969875335693359375</LatitudeDegrees>
              <LongitudeDegrees>-2.84946913830935955047607421875</LongitudeDegrees>
            </Position>
            <AltitudeMeters>860.20001220703125</AltitudeMeters>
            <DistanceMeters>27416.539853391</DistanceMeters>
          </Trackpoint>
          <Trackpoint>
            <Time>2020-02-09T11:25:27.000Z</Time>
            <Position>
              <LatitudeDegrees>38.94880729727447032928466796875</LatitudeDegrees>
              <LongitudeDegrees>-2.849673740565776824951171875</LongitudeDegrees>
            </Position>
            <AltitudeMeters>860.5999755859375</AltitudeMeters>
            <DistanceMeters>27434.287475667</DistanceMeters>
          </Trackpoint>
          <Trackpoint>
            <Time>2020-02-09T11:25:29.000Z</Time>
            <Position>
              <LatitudeDegrees>38.9488625340163707733154296875</LatitudeDegrees>
              <LongitudeDegrees>-2.84978815354406833648681640625</LongitudeDegrees>
            </Position>
            <AltitudeMeters>860.4000244140625</AltitudeMeters>
            <DistanceMeters>27445.944430258</DistanceMeters>
          </Trackpoint>
          <Trackpoint>
            <Time>2020-02-09T11:25:34.000Z</Time>
            <Position>
              <LatitudeDegrees>38.9489215426146984100341796875</LatitudeDegrees>
              <LongitudeDegrees>-2.84984984435141086578369140625</LongitudeDegrees>
            </Position>
            <AltitudeMeters>859</AltitudeMeters>
            <DistanceMeters>27454.409278548</DistanceMeters>
          </Trackpoint>
          <Trackpoint>
            <Time>2020-02-09T11:25:56.000Z</Time>
            <Position>
              <LatitudeDegrees>38.9489466883242130279541015625</LatitudeDegrees>
              <LongitudeDegrees>-2.849863506853580474853515625</LongitudeDegrees>
            </Position>
            <AltitudeMeters>858.4000244140625</AltitudeMeters>
            <DistanceMeters>27457.448648253</DistanceMeters>
          </Trackpoint>
          <Trackpoint>
            <Time>2020-02-09T11:25:59.000Z</Time>
            <Position>
              <LatitudeDegrees>38.94904517568647861480712890625</LatitudeDegrees>
              <LongitudeDegrees>-2.8499114513397216796875</LongitudeDegrees>
            </Position>
            <AltitudeMeters>856.5999755859375</AltitudeMeters>
            <DistanceMeters>27469.169722565</DistanceMeters>
          </Trackpoint>
          <Trackpoint>
            <Time>2020-02-09T11:26:01.000Z</Time>
            <Position>
              <LatitudeDegrees>38.949148356914520263671875</LatitudeDegrees>
              <LongitudeDegrees>-2.849925197660923004150390625</LongitudeDegrees>
            </Position>
            <AltitudeMeters>855</AltitudeMeters>
            <DistanceMeters>27480.715761649</DistanceMeters>
          </Trackpoint>
          <Trackpoint>
            <Time>2020-02-09T11:26:03.000Z</Time>
            <Position>
              <LatitudeDegrees>38.9492672123014926910400390625</LatitudeDegrees>
              <LongitudeDegrees>-2.84992913715541362762451171875</LongitudeDegrees>
            </Position>
            <AltitudeMeters>853.4000244140625</AltitudeMeters>
            <DistanceMeters>27493.949404479</DistanceMeters>
          </Trackpoint>
          <Trackpoint>
            <Time>2020-02-09T11:26:05.000Z</Time>
            <Position>
              <LatitudeDegrees>38.94938028417527675628662109375</LatitudeDegrees>
              <LongitudeDegrees>-2.8499679453670978546142578125</LongitudeDegrees>
            </Position>
            <AltitudeMeters>851.4000244140625</AltitudeMeters>
            <DistanceMeters>27506.975345381</DistanceMeters>
          </Trackpoint>
          <Trackpoint>
            <Time>2020-02-09T11:26:06.000Z</Time>
            <Position>
              <LatitudeDegrees>38.94942437298595905303955078125</LatitudeDegrees>
              <LongitudeDegrees>-2.84999619238078594207763671875</LongitudeDegrees>
            </Position>
            <AltitudeMeters>851</AltitudeMeters>
            <DistanceMeters>27512.458971422</DistanceMeters>
          </Trackpoint>
          <Trackpoint>
            <Time>2020-02-09T11:26:10.000Z</Time>
            <Position>
              <LatitudeDegrees>38.94950182177126407623291015625</LatitudeDegrees>
              <LongitudeDegrees>-2.8501630760729312896728515625</LongitudeDegrees>
            </Position>
            <AltitudeMeters>850.5999755859375</AltitudeMeters>
            <DistanceMeters>27529.281115626</DistanceMeters>
          </Trackpoint>
          <Trackpoint>
            <Time>2020-02-09T11:26:12.000Z</Time>
            <Position>
              <LatitudeDegrees>38.94955672323703765869140625</LatitudeDegrees>
              <LongitudeDegrees>-2.85026474855840206146240234375</LongitudeDegrees>
            </Position>
            <AltitudeMeters>851.4000244140625</AltitudeMeters>
            <DistanceMeters>27539.995140628</DistanceMeters>
          </Trackpoint>
          <Trackpoint>
            <Time>2020-02-09T11:26:15.000Z</Time>
            <Position>
              <LatitudeDegrees>38.949634842574596405029296875</LatitudeDegrees>
              <LongitudeDegrees>-2.85047404468059539794921875</LongitudeDegrees>
            </Position>
            <AltitudeMeters>852.79998779296875</AltitudeMeters>
            <DistanceMeters>27560.090089208</DistanceMeters>
          </Trackpoint>
          <Trackpoint>
            <Time>2020-02-09T11:26:17.000Z</Time>
            <Position>
              <LatitudeDegrees>38.949715308845043182373046875</LatitudeDegrees>
              <LongitudeDegrees>-2.85058409906923770904541015625</LongitudeDegrees>
            </Position>
            <AltitudeMeters>853.4000244140625</AltitudeMeters>
            <DistanceMeters>27573.165157362</DistanceMeters>
          </Trackpoint>
          <Trackpoint>
            <Time>2020-02-09T11:26:20.000Z</Time>
            <Position>
              <LatitudeDegrees>38.9498707093298435211181640625</LatitudeDegrees>
              <LongitudeDegrees>-2.85056666471064090728759765625</LongitudeDegrees>
            </Position>
            <AltitudeMeters>850.20001220703125</AltitudeMeters>
            <DistanceMeters>27590.526982778</DistanceMeters>
          </Trackpoint>
          <Trackpoint>
            <Time>2020-02-09T11:26:22.000Z</Time>
            <Position>
              <LatitudeDegrees>38.95000238902866840362548828125</LatitudeDegrees>
              <LongitudeDegrees>-2.85060237161815166473388671875</LongitudeDegrees>
            </Position>
            <AltitudeMeters>846.5999755859375</AltitudeMeters>
            <DistanceMeters>27605.505375524</DistanceMeters>
          </Trackpoint>
          <Trackpoint>
            <Time>2020-02-09T11:26:24.000Z</Time>
            <Position>
              <LatitudeDegrees>38.95013549365103244781494140625</LatitudeDegrees>
              <LongitudeDegrees>-2.850670516490936279296875</LongitudeDegrees>
            </Position>
            <AltitudeMeters>842.5999755859375</AltitudeMeters>
            <DistanceMeters>27621.451186652</DistanceMeters>
          </Trackpoint>
          <Trackpoint>
            <Time>2020-02-09T11:26:25.000Z</Time>
            <Position>
              <LatitudeDegrees>38.9501939155161380767822265625</LatitudeDegrees>
              <LongitudeDegrees>-2.8507268428802490234375</LongitudeDegrees>
            </Position>
            <AltitudeMeters>840.4000244140625</AltitudeMeters>
            <DistanceMeters>27629.578054382</DistanceMeters>
          </Trackpoint>
          <Trackpoint>
            <Time>2020-02-09T11:26:27.000Z</Time>
            <Position>
              <LatitudeDegrees>38.95029089413583278656005859375</LatitudeDegrees>
              <LongitudeDegrees>-2.85086036659777164459228515625</LongitudeDegrees>
            </Position>
            <AltitudeMeters>838.20001220703125</AltitudeMeters>
            <DistanceMeters>27645.391938694</DistanceMeters>
          </Trackpoint>
          <Trackpoint>
            <Time>2020-02-09T11:26:30.000Z</Time>
            <Position>
              <LatitudeDegrees>38.95040254108607769012451171875</LatitudeDegrees>
              <LongitudeDegrees>-2.85107092000544071197509765625</LongitudeDegrees>
            </Position>
            <AltitudeMeters>841.20001220703125</AltitudeMeters>
            <DistanceMeters>27667.450420943</DistanceMeters>
          </Trackpoint>
          <Trackpoint>
            <Time>2020-02-09T11:26:32.000Z</Time>
            <Position>
              <LatitudeDegrees>38.95044947974383831024169921875</LatitudeDegrees>
              <LongitudeDegrees>-2.8512094728648662567138671875</LongitudeDegrees>
            </Position>
            <AltitudeMeters>843.5999755859375</AltitudeMeters>
            <DistanceMeters>27680.531703319</DistanceMeters>
          </Trackpoint>
          <Trackpoint>
            <Time>2020-02-09T11:26:34.000Z</Time>
            <Position>
              <LatitudeDegrees>38.95051837898790836334228515625</LatitudeDegrees>
              <LongitudeDegrees>-2.85133897326886653900146484375</LongitudeDegrees>
            </Position>
            <AltitudeMeters>846.20001220703125</AltitudeMeters>
            <DistanceMeters>27694.113544196</DistanceMeters>
          </Trackpoint>
          <Trackpoint>
            <Time>2020-02-09T11:26:35.000Z</Time>
            <Position>
              <LatitudeDegrees>38.95056012086570262908935546875</LatitudeDegrees>
              <LongitudeDegrees>-2.8513891808688640594482421875</LongitudeDegrees>
            </Position>
            <AltitudeMeters>847.20001220703125</AltitudeMeters>
            <DistanceMeters>27700.47536804</DistanceMeters>
          </Trackpoint>
          <Trackpoint>
            <Time>2020-02-09T11:26:36.000Z</Time>
            <Position>
              <LatitudeDegrees>38.95060990937054157257080078125</LatitudeDegrees>
              <LongitudeDegrees>-2.8514337725937366485595703125</LongitudeDegrees>
            </Position>
            <AltitudeMeters>846</AltitudeMeters>
            <DistanceMeters>27707.228284894</DistanceMeters>
          </Trackpoint>
          <Trackpoint>
            <Time>2020-02-09T11:26:39.000Z</Time>
            <Position>
              <LatitudeDegrees>38.950758688151836395263671875</LatitudeDegrees>
              <LongitudeDegrees>-2.85155254416167736053466796875</LongitudeDegrees>
            </Position>
            <AltitudeMeters>841.20001220703125</AltitudeMeters>
            <DistanceMeters>27726.719651602</DistanceMeters>
          </Trackpoint>
          <Trackpoint>
            <Time>2020-02-09T11:26:42.000Z</Time>
            <Position>
              <LatitudeDegrees>38.9508609473705291748046875</LatitudeDegrees>
              <LongitudeDegrees>-2.85173996351659297943115234375</LongitudeDegrees>
            </Position>
            <AltitudeMeters>836.4000244140625</AltitudeMeters>
            <DistanceMeters>27746.536766038</DistanceMeters>
          </Trackpoint>
          <Trackpoint>
            <Time>2020-02-09T11:26:45.000Z</Time>
            <Position>
              <LatitudeDegrees>38.95100888796150684356689453125</LatitudeDegrees>
              <LongitudeDegrees>-2.85186954773962497711181640625</LongitudeDegrees>
            </Position>
            <AltitudeMeters>833.4000244140625</AltitudeMeters>
            <DistanceMeters>27766.460222071</DistanceMeters>
          </Trackpoint>
          <Trackpoint>
            <Time>2020-02-09T11:26:47.000Z</Time>
            <Position>
              <LatitudeDegrees>38.9510862529277801513671875</LatitudeDegrees>
              <LongitudeDegrees>-2.851972393691539764404296875</LongitudeDegrees>
            </Position>
            <AltitudeMeters>831.20001220703125</AltitudeMeters>
            <DistanceMeters>27778.845451522</DistanceMeters>
          </Trackpoint>
          <Trackpoint>
            <Time>2020-02-09T11:26:49.000Z</Time>
            <Position>
              <LatitudeDegrees>38.9510817267000675201416015625</LatitudeDegrees>
              <LongitudeDegrees>-2.85210826434195041656494140625</LongitudeDegrees>
            </Position>
            <AltitudeMeters>830.5999755859375</AltitudeMeters>
            <DistanceMeters>27790.617263325</DistanceMeters>
          </Trackpoint>
          <Trackpoint>
            <Time>2020-02-09T11:26:52.000Z</Time>
            <Position>
              <LatitudeDegrees>38.95106219686567783355712890625</LatitudeDegrees>
              <LongitudeDegrees>-2.8523299656808376312255859375</LongitudeDegrees>
            </Position>
            <AltitudeMeters>830.20001220703125</AltitudeMeters>
            <DistanceMeters>27809.929908857</DistanceMeters>
          </Trackpoint>
          <Trackpoint>
            <Time>2020-02-09T11:26:54.000Z</Time>
            <Position>
              <LatitudeDegrees>38.9510314352810382843017578125</LatitudeDegrees>
              <LongitudeDegrees>-2.85247874446213245391845703125</LongitudeDegrees>
            </Position>
            <AltitudeMeters>830.5999755859375</AltitudeMeters>
            <DistanceMeters>27823.255351558</DistanceMeters>
          </Trackpoint>
          <Trackpoint>
            <Time>2020-02-09T11:26:55.000Z</Time>
            <Position>
              <LatitudeDegrees>38.95101995207369327545166015625</LatitudeDegrees>
              <LongitudeDegrees>-2.8525562770664691925048828125</LongitudeDegrees>
            </Position>
            <AltitudeMeters>830.5999755859375</AltitudeMeters>
            <DistanceMeters>27830.088030039</DistanceMeters>
          </Trackpoint>
          <Trackpoint>
            <Time>2020-02-09T11:26:59.000Z</Time>
            <Position>
              <LatitudeDegrees>38.9509925432503223419189453125</LatitudeDegrees>
              <LongitudeDegrees>-2.85285324789583683013916015625</LongitudeDegrees>
            </Position>
            <AltitudeMeters>828.20001220703125</AltitudeMeters>
            <DistanceMeters>27855.973697742</DistanceMeters>
          </Trackpoint>
          <Trackpoint>
            <Time>2020-02-09T11:27:01.000Z</Time>
            <Position>
              <LatitudeDegrees>38.95092825405299663543701171875</LatitudeDegrees>
              <LongitudeDegrees>-2.8529713489115238189697265625</LongitudeDegrees>
            </Position>
            <AltitudeMeters>828.4000244140625</AltitudeMeters>
            <DistanceMeters>27868.451541227</DistanceMeters>
          </Trackpoint>
          <Trackpoint>
            <Time>2020-02-09T11:27:04.000Z</Time>
            <Position>
              <LatitudeDegrees>38.9508245699107646942138671875</LatitudeDegrees>
              <LongitudeDegrees>-2.85310839302837848663330078125</LongitudeDegrees>
            </Position>
            <AltitudeMeters>829.20001220703125</AltitudeMeters>
            <DistanceMeters>27885.001474118</DistanceMeters>
          </Trackpoint>
          <Trackpoint>
            <Time>2020-02-09T11:27:05.000Z</Time>
            <Position>
              <LatitudeDegrees>38.95080353133380413055419921875</LatitudeDegrees>
              <LongitudeDegrees>-2.85316430032253265380859375</LongitudeDegrees>
            </Position>
            <AltitudeMeters>829.20001220703125</AltitudeMeters>
            <DistanceMeters>27890.376996848</DistanceMeters>
          </Trackpoint>
          <Trackpoint>
            <Time>2020-02-09T11:27:06.000Z</Time>
            <Position>
              <LatitudeDegrees>38.9507886953651905059814453125</LatitudeDegrees>
              <LongitudeDegrees>-2.8532199561595916748046875</LongitudeDegrees>
            </Position>
            <AltitudeMeters>829</AltitudeMeters>
            <DistanceMeters>27895.469577682</DistanceMeters>
          </Trackpoint>
          <Trackpoint>
            <Time>2020-02-09T11:27:08.000Z</Time>
            <Position>
              <LatitudeDegrees>38.95079833455383777618408203125</LatitudeDegrees>
              <LongitudeDegrees>-2.85332389175891876220703125</LongitudeDegrees>
            </Position>
            <AltitudeMeters>828.20001220703125</AltitudeMeters>
            <DistanceMeters>27904.529566362</DistanceMeters>
          </Trackpoint>
          <Trackpoint>
            <Time>2020-02-09T11:27:15.000Z</Time>
            <Position>
              <LatitudeDegrees>38.95090813748538494110107421875</LatitudeDegrees>
              <LongitudeDegrees>-2.8535017557442188262939453125</LongitudeDegrees>
            </Position>
            <AltitudeMeters>823.5999755859375</AltitudeMeters>
            <DistanceMeters>27924.186549117</DistanceMeters>
          </Trackpoint>
          <Trackpoint>
            <Time>2020-02-09T11:27:16.000Z</Time>
            <Position>
              <LatitudeDegrees>38.950906209647655487060546875</LatitudeDegrees>
              <LongitudeDegrees>-2.85350217483937740325927734375</LongitudeDegrees>
            </Position>
            <AltitudeMeters>823.5999755859375</AltitudeMeters>
            <DistanceMeters>27924.419316079</DistanceMeters>
          </Trackpoint>
          <Trackpoint>
            <Time>2020-02-09T11:28:26.000Z</Time>
            <Position>
              <LatitudeDegrees>38.9509385637938976287841796875</LatitudeDegrees>
              <LongitudeDegrees>-2.85348608158528804779052734375</LongitudeDegrees>
            </Position>
            <AltitudeMeters>823.4000244140625</AltitudeMeters>
            <DistanceMeters>27928.281658152</DistanceMeters>
          </Trackpoint>
          <Trackpoint>
            <Time>2020-02-09T11:28:28.000Z</Time>
            <Position>
              <LatitudeDegrees>38.95095842890441417694091796875</LatitudeDegrees>
              <LongitudeDegrees>-2.8534675575792789459228515625</LongitudeDegrees>
            </Position>
            <AltitudeMeters>823.4000244140625</AltitudeMeters>
            <DistanceMeters>27931.012746422</DistanceMeters>
          </Trackpoint>
          <Trackpoint>
            <Time>2020-02-09T11:28:35.000Z</Time>
            <Position>
              <LatitudeDegrees>38.95106219686567783355712890625</LatitudeDegrees>
              <LongitudeDegrees>-2.85348222590982913970947265625</LongitudeDegrees>
            </Position>
            <AltitudeMeters>823</AltitudeMeters>
            <DistanceMeters>27942.631681091</DistanceMeters>
          </Trackpoint>
          <Trackpoint>
            <Time>2020-02-09T11:28:45.000Z</Time>
            <Position>
              <LatitudeDegrees>38.95120988599956035614013671875</LatitudeDegrees>
              <LongitudeDegrees>-2.85343587398529052734375</LongitudeDegrees>
            </Position>
            <AltitudeMeters>824.79998779296875</AltitudeMeters>
            <DistanceMeters>27959.552040829</DistanceMeters>
          </Trackpoint>
          <Trackpoint>
            <Time>2020-02-09T11:28:55.000Z</Time>
            <Position>
              <LatitudeDegrees>38.9513234607875347137451171875</LatitudeDegrees>
              <LongitudeDegrees>-2.85331777296960353851318359375</LongitudeDegrees>
            </Position>
            <AltitudeMeters>826.79998779296875</AltitudeMeters>
            <DistanceMeters>27975.80966481</DistanceMeters>
          </Trackpoint>
          <Trackpoint>
            <Time>2020-02-09T11:29:05.000Z</Time>
            <Position>
              <LatitudeDegrees>38.9514403045177459716796875</LatitudeDegrees>
              <LongitudeDegrees>-2.8532328642904758453369140625</LongitudeDegrees>
            </Position>
            <AltitudeMeters>828.79998779296875</AltitudeMeters>
            <DistanceMeters>27990.747610419</DistanceMeters>
          </Trackpoint>
          <Trackpoint>
            <Time>2020-02-09T11:29:06.000Z</Time>
            <Position>
              <LatitudeDegrees>38.95144910551607608795166015625</LatitudeDegrees>
              <LongitudeDegrees>-2.85323940217494964599609375</LongitudeDegrees>
            </Position>
            <AltitudeMeters>828.79998779296875</AltitudeMeters>
            <DistanceMeters>27991.879984409</DistanceMeters>
          </Trackpoint>
          <Trackpoint>
            <Time>2020-02-09T11:29:15.000Z</Time>
            <Position>
              <LatitudeDegrees>38.95154264755547046661376953125</LatitudeDegrees>
              <LongitudeDegrees>-2.8534903563559055328369140625</LongitudeDegrees>
            </Position>
            <AltitudeMeters>829.20001220703125</AltitudeMeters>
            <DistanceMeters>28015.96808504</DistanceMeters>
          </Trackpoint>
          <Trackpoint>
            <Time>2020-02-09T11:29:25.000Z</Time>
            <Position>
              <LatitudeDegrees>38.95133779384195804595947265625</LatitudeDegrees>
              <LongitudeDegrees>-2.8537850640714168548583984375</LongitudeDegrees>
            </Position>
            <AltitudeMeters>827</AltitudeMeters>
            <DistanceMeters>28050.181925362</DistanceMeters>
          </Trackpoint>
          <Trackpoint>
            <Time>2020-02-09T11:29:33.000Z</Time>
            <Position>
              <LatitudeDegrees>38.95111500285565853118896484375</LatitudeDegrees>
              <LongitudeDegrees>-2.85405705682933330535888671875</LongitudeDegrees>
            </Position>
            <AltitudeMeters>824.4000244140625</AltitudeMeters>
            <DistanceMeters>28084.375172907</DistanceMeters>
          </Trackpoint>
          <Trackpoint>
            <Time>2020-02-09T11:29:35.000Z</Time>
            <Position>
              <LatitudeDegrees>38.95107560791075229644775390625</LatitudeDegrees>
              <LongitudeDegrees>-2.8541545383632183074951171875</LongitudeDegrees>
            </Position>
            <AltitudeMeters>824</AltitudeMeters>
            <DistanceMeters>28093.884493887</DistanceMeters>
          </Trackpoint>
          <Trackpoint>
            <Time>2020-02-09T11:29:36.000Z</Time>
            <Position>
              <LatitudeDegrees>38.951060771942138671875</LatitudeDegrees>
              <LongitudeDegrees>-2.85420608706772327423095703125</LongitudeDegrees>
            </Position>
            <AltitudeMeters>824</AltitudeMeters>
            <DistanceMeters>28098.641527792</DistanceMeters>
          </Trackpoint>
          <Trackpoint>
            <Time>2020-02-09T11:29:38.000Z</Time>
            <Position>
              <LatitudeDegrees>38.95103889517486095428466796875</LatitudeDegrees>
              <LongitudeDegrees>-2.85430549643933773040771484375</LongitudeDegrees>
            </Position>
            <AltitudeMeters>823.20001220703125</AltitudeMeters>
            <DistanceMeters>28107.584142454</DistanceMeters>
          </Trackpoint>
          <Trackpoint>
            <Time>2020-02-09T11:29:45.000Z</Time>
            <Position>
              <LatitudeDegrees>38.950997404754161834716796875</LatitudeDegrees>
              <LongitudeDegrees>-2.85468502901494503021240234375</LongitudeDegrees>
            </Position>
            <AltitudeMeters>821</AltitudeMeters>
            <DistanceMeters>28140.758538704</DistanceMeters>
          </Trackpoint>
          <Trackpoint>
            <Time>2020-02-09T11:29:50.000Z</Time>
            <Position>
              <LatitudeDegrees>38.95100486464798450469970703125</LatitudeDegrees>
              <LongitudeDegrees>-2.85494956187903881072998046875</LongitudeDegrees>
            </Position>
            <AltitudeMeters>819.79998779296875</AltitudeMeters>
            <DistanceMeters>28163.671211711</DistanceMeters>
          </Trackpoint>
          <Trackpoint>
            <Time>2020-02-09T11:29:52.000Z</Time>
            <Position>
              <LatitudeDegrees>38.95103855989873409271240234375</LatitudeDegrees>
              <LongitudeDegrees>-2.8550572693347930908203125</LongitudeDegrees>
            </Position>
            <AltitudeMeters>819.5999755859375</AltitudeMeters>
            <DistanceMeters>28173.720258674</DistanceMeters>
          </Trackpoint>
          <Trackpoint>
            <Time>2020-02-09T11:29:55.000Z</Time>
            <Position>
              <LatitudeDegrees>38.95110444165766239166259765625</LatitudeDegrees>
              <LongitudeDegrees>-2.85522046498954296112060546875</LongitudeDegrees>
            </Position>
            <AltitudeMeters>819.4000244140625</AltitudeMeters>
            <DistanceMeters>28189.636027723</DistanceMeters>
          </Trackpoint>
          <Trackpoint>
            <Time>2020-02-09T11:30:00.000Z</Time>
            <Position>
              <LatitudeDegrees>38.9512238837778568267822265625</LatitudeDegrees>
              <LongitudeDegrees>-2.8554741851985454559326171875</LongitudeDegrees>
            </Position>
            <AltitudeMeters>821.4000244140625</AltitudeMeters>
            <DistanceMeters>28215.307842406</DistanceMeters>
          </Trackpoint>
          <Trackpoint>
            <Time>2020-02-09T11:30:05.000Z</Time>
            <Position>
              <LatitudeDegrees>38.95140183158218860626220703125</LatitudeDegrees>
              <LongitudeDegrees>-2.85567560233175754547119140625</LongitudeDegrees>
            </Position>
            <AltitudeMeters>824.4000244140625</AltitudeMeters>
            <DistanceMeters>28241.693631455</DistanceMeters>
          </Trackpoint>
          <Trackpoint>
            <Time>2020-02-09T11:30:15.000Z</Time>
            <Position>
              <LatitudeDegrees>38.951789997518062591552734375</LatitudeDegrees>
              <LongitudeDegrees>-2.856066115200519561767578125</LongitudeDegrees>
            </Position>
            <AltitudeMeters>826.5999755859375</AltitudeMeters>
            <DistanceMeters>28296.548908352</DistanceMeters>
          </Trackpoint>
          <Trackpoint>
            <Time>2020-02-09T11:30:18.000Z</Time>
            <Position>
              <LatitudeDegrees>38.95193039439618587493896484375</LatitudeDegrees>
              <LongitudeDegrees>-2.85613157786428928375244140625</LongitudeDegrees>
            </Position>
            <AltitudeMeters>826.20001220703125</AltitudeMeters>
            <DistanceMeters>28313.170979492</DistanceMeters>
          </Trackpoint>
          <Trackpoint>
            <Time>2020-02-09T11:30:20.000Z</Time>
            <Position>
              <LatitudeDegrees>38.9520282112061977386474609375</LatitudeDegrees>
              <LongitudeDegrees>-2.8561355173587799072265625</LongitudeDegrees>
            </Position>
            <AltitudeMeters>827.79998779296875</AltitudeMeters>
            <DistanceMeters>28324.063461963</DistanceMeters>
          </Trackpoint>
          <Trackpoint>
            <Time>2020-02-09T11:30:22.000Z</Time>
            <Position>
              <LatitudeDegrees>38.95212921313941478729248046875</LatitudeDegrees>
              <LongitudeDegrees>-2.8561313264071941375732421875</LongitudeDegrees>
            </Position>
            <AltitudeMeters>829.5999755859375</AltitudeMeters>
            <DistanceMeters>28335.311189333</DistanceMeters>
          </Trackpoint>
          <Trackpoint>
            <Time>2020-02-09T11:30:24.000Z</Time>
            <Position>
              <LatitudeDegrees>38.9522075839340686798095703125</LatitudeDegrees>
              <LongitudeDegrees>-2.85618673078715801239013671875</LongitudeDegrees>
            </Position>
            <AltitudeMeters>829.5999755859375</AltitudeMeters>
            <DistanceMeters>28345.265436106</DistanceMeters>
          </Trackpoint>
          <Trackpoint>
            <Time>2020-02-09T11:30:25.000Z</Time>
            <Position>
              <LatitudeDegrees>38.9522387646138668060302734375</LatitudeDegrees>
              <LongitudeDegrees>-2.85630458034574985504150390625</LongitudeDegrees>
            </Position>
            <AltitudeMeters>827.5999755859375</AltitudeMeters>
            <DistanceMeters>28356.039973811</DistanceMeters>
          </Trackpoint>
          <Trackpoint>
            <Time>2020-02-09T11:30:29.000Z</Time>
            <Position>
              <LatitudeDegrees>38.95223281346261501312255859375</LatitudeDegrees>
              <LongitudeDegrees>-2.85649619065225124359130859375</LongitudeDegrees>
            </Position>
            <AltitudeMeters>825.20001220703125</AltitudeMeters>
            <DistanceMeters>28372.638396396</DistanceMeters>
          </Trackpoint>
          <Trackpoint>
            <Time>2020-02-09T11:30:32.000Z</Time>
            <Position>
              <LatitudeDegrees>38.9522397704422473907470703125</LatitudeDegrees>
              <LongitudeDegrees>-2.85666634328663349151611328125</LongitudeDegrees>
            </Position>
            <AltitudeMeters>824.79998779296875</AltitudeMeters>
            <DistanceMeters>28387.386224075</DistanceMeters>
          </Trackpoint>
          <Trackpoint>
            <Time>2020-02-09T11:30:35.000Z</Time>
            <Position>
              <LatitudeDegrees>38.9522726275026798248291015625</LatitudeDegrees>
              <LongitudeDegrees>-2.85682006739079952239990234375</LongitudeDegrees>
            </Position>
            <AltitudeMeters>825.4000244140625</AltitudeMeters>
            <DistanceMeters>28401.185398759</DistanceMeters>
          </Trackpoint>
          <Trackpoint>
            <Time>2020-02-09T11:30:36.000Z</Time>
            <Position>
              <LatitudeDegrees>38.95228444598615169525146484375</LatitudeDegrees>
              <LongitudeDegrees>-2.85686918534338474273681640625</LongitudeDegrees>
            </Position>
            <AltitudeMeters>825.79998779296875</AltitudeMeters>
            <DistanceMeters>28405.636464667</DistanceMeters>
          </Trackpoint>
          <Trackpoint>
            <Time>2020-02-09T11:30:39.000Z</Time>
            <Position>
              <LatitudeDegrees>38.9523054845631122589111328125</LatitudeDegrees>
              <LongitudeDegrees>-2.85701117478311061859130859375</LongitudeDegrees>
            </Position>
            <AltitudeMeters>826.20001220703125</AltitudeMeters>
            <DistanceMeters>28418.147553552</DistanceMeters>
          </Trackpoint>
          <Trackpoint>
            <Time>2020-02-09T11:30:46.000Z</Time>
            <Position>
              <LatitudeDegrees>38.952292911708354949951171875</LatitudeDegrees>
              <LongitudeDegrees>-2.85741828382015228271484375</LongitudeDegrees>
            </Position>
            <AltitudeMeters>824.20001220703125</AltitudeMeters>
            <DistanceMeters>28453.412964624</DistanceMeters>
          </Trackpoint>
          <Trackpoint>
            <Time>2020-02-09T11:30:47.000Z</Time>
            <Position>
              <LatitudeDegrees>38.9522959291934967041015625</LatitudeDegrees>
              <LongitudeDegrees>-2.8574744425714015960693359375</LongitudeDegrees>
            </Position>
            <AltitudeMeters>824</AltitudeMeters>
            <DistanceMeters>28458.285342993</DistanceMeters>
          </Trackpoint>
          <Trackpoint>
            <Time>2020-02-09T11:30:54.000Z</Time>
            <Position>
              <LatitudeDegrees>38.95235585980117321014404296875</LatitudeDegrees>
              <LongitudeDegrees>-2.85786529071629047393798828125</LongitudeDegrees>
            </Position>
            <AltitudeMeters>824.4000244140625</AltitudeMeters>
            <DistanceMeters>28492.766817805</DistanceMeters>
          </Trackpoint>
          <Trackpoint>
            <Time>2020-02-09T11:30:56.000Z</Time>
            <Position>
              <LatitudeDegrees>38.952376060187816619873046875</LatitudeDegrees>
              <LongitudeDegrees>-2.8579817153513431549072265625</LongitudeDegrees>
            </Position>
            <AltitudeMeters>824.4000244140625</AltitudeMeters>
            <DistanceMeters>28503.091547943</DistanceMeters>
          </Trackpoint>
          <Trackpoint>
            <Time>2020-02-09T11:31:02.000Z</Time>
            <Position>
              <LatitudeDegrees>38.9523859508335590362548828125</LatitudeDegrees>
              <LongitudeDegrees>-2.8583247028291225433349609375</LongitudeDegrees>
            </Position>
            <AltitudeMeters>822.79998779296875</AltitudeMeters>
            <DistanceMeters>28532.799519118</DistanceMeters>
          </Trackpoint>
          <Trackpoint>
            <Time>2020-02-09T11:31:06.000Z</Time>
            <Position>
              <LatitudeDegrees>38.95237547345459461212158203125</LatitudeDegrees>
              <LongitudeDegrees>-2.85852846689522266387939453125</LongitudeDegrees>
            </Position>
            <AltitudeMeters>822.4000244140625</AltitudeMeters>
            <DistanceMeters>28550.47499888</DistanceMeters>
          </Trackpoint>
          <Trackpoint>
            <Time>2020-02-09T11:31:16.000Z</Time>
            <Position>
              <LatitudeDegrees>38.95235560834407806396484375</LatitudeDegrees>
              <LongitudeDegrees>-2.85903657786548137664794921875</LongitudeDegrees>
            </Position>
            <AltitudeMeters>821</AltitudeMeters>
            <DistanceMeters>28594.510628496</DistanceMeters>
          </Trackpoint>
          <Trackpoint>
            <Time>2020-02-09T11:31:18.000Z</Time>
            <Position>
              <LatitudeDegrees>38.9523926563560962677001953125</LatitudeDegrees>
              <LongitudeDegrees>-2.85912953317165374755859375</LongitudeDegrees>
            </Position>
            <AltitudeMeters>821.4000244140625</AltitudeMeters>
            <DistanceMeters>28603.551660073</DistanceMeters>
          </Trackpoint>
          <Trackpoint>
            <Time>2020-02-09T11:31:21.000Z</Time>
            <Position>
              <LatitudeDegrees>38.95246214233338832855224609375</LatitudeDegrees>
              <LongitudeDegrees>-2.8592617996037006378173828125</LongitudeDegrees>
            </Position>
            <AltitudeMeters>822.5999755859375</AltitudeMeters>
            <DistanceMeters>28617.367838486</DistanceMeters>
          </Trackpoint>
          <Trackpoint>
            <Time>2020-02-09T11:31:26.000Z</Time>
            <Position>
              <LatitudeDegrees>38.9524251781404018402099609375</LatitudeDegrees>
              <LongitudeDegrees>-2.85949808545410633087158203125</LongitudeDegrees>
            </Position>
            <AltitudeMeters>821.79998779296875</AltitudeMeters>
            <DistanceMeters>28638.229611285</DistanceMeters>
          </Trackpoint>
          <Trackpoint>
            <Time>2020-02-09T11:31:31.000Z</Time>
            <Position>
              <LatitudeDegrees>38.952327109873294830322265625</LatitudeDegrees>
              <LongitudeDegrees>-2.85974199883639812469482421875</LongitudeDegrees>
            </Position>
            <AltitudeMeters>819.5999755859375</AltitudeMeters>
            <DistanceMeters>28661.996550547</DistanceMeters>
          </Trackpoint>
          <Trackpoint>
            <Time>2020-02-09T11:31:34.000Z</Time>
            <Position>
              <LatitudeDegrees>38.95228855311870574951171875</LatitudeDegrees>
              <LongitudeDegrees>-2.85990946926176548004150390625</LongitudeDegrees>
            </Position>
            <AltitudeMeters>819</AltitudeMeters>
            <DistanceMeters>28677.113864284</DistanceMeters>
          </Trackpoint>
          <Trackpoint>
            <Time>2020-02-09T11:31:36.000Z</Time>
            <Position>
              <LatitudeDegrees>38.952286876738071441650390625</LatitudeDegrees>
              <LongitudeDegrees>-2.8600272350013256072998046875</LongitudeDegrees>
            </Position>
            <AltitudeMeters>819</AltitudeMeters>
            <DistanceMeters>28687.308773792</DistanceMeters>
          </Trackpoint>
          <Trackpoint>
            <Time>2020-02-09T11:31:38.000Z</Time>
            <Position>
              <LatitudeDegrees>38.95231428556144237518310546875</LatitudeDegrees>
              <LongitudeDegrees>-2.8601435758173465728759765625</LongitudeDegrees>
            </Position>
            <AltitudeMeters>819.5999755859375</AltitudeMeters>
            <DistanceMeters>28697.831024848</DistanceMeters>
          </Trackpoint>
          <Trackpoint>
            <Time>2020-02-09T11:31:43.000Z</Time>
            <Position>
              <LatitudeDegrees>38.95247270353138446807861328125</LatitudeDegrees>
              <LongitudeDegrees>-2.86039411090314388275146484375</LongitudeDegrees>
            </Position>
            <AltitudeMeters>822.4000244140625</AltitudeMeters>
            <DistanceMeters>28725.780189287</DistanceMeters>
          </Trackpoint>
          <Trackpoint>
            <Time>2020-02-09T11:31:46.000Z</Time>
            <Position>
              <LatitudeDegrees>38.95258602686226367950439453125</LatitudeDegrees>
              <LongitudeDegrees>-2.86051196046173572540283203125</LongitudeDegrees>
            </Position>
            <AltitudeMeters>823.79998779296875</AltitudeMeters>
            <DistanceMeters>28742.001669725</DistanceMeters>
          </Trackpoint>
          <Trackpoint>
            <Time>2020-02-09T11:31:48.000Z</Time>
            <Position>
              <LatitudeDegrees>38.9526580274105072021484375</LatitudeDegrees>
              <LongitudeDegrees>-2.86060047335922718048095703125</LongitudeDegrees>
            </Position>
            <AltitudeMeters>824.4000244140625</AltitudeMeters>
            <DistanceMeters>28753.088481735</DistanceMeters>
          </Trackpoint>
          <Trackpoint>
            <Time>2020-02-09T11:31:50.000Z</Time>
            <Position>
              <LatitudeDegrees>38.95269297994673252105712890625</LatitudeDegrees>
              <LongitudeDegrees>-2.8606984578073024749755859375</LongitudeDegrees>
            </Position>
            <AltitudeMeters>824.4000244140625</AltitudeMeters>
            <DistanceMeters>28762.419505102</DistanceMeters>
          </Trackpoint>
          <Trackpoint>
            <Time>2020-02-09T11:31:52.000Z</Time>
            <Position>
              <LatitudeDegrees>38.9526870287954807281494140625</LatitudeDegrees>
              <LongitudeDegrees>-2.86081337369978427886962890625</LongitudeDegrees>
            </Position>
            <AltitudeMeters>823.5999755859375</AltitudeMeters>
            <DistanceMeters>28772.388255839</DistanceMeters>
          </Trackpoint>
          <Trackpoint>
            <Time>2020-02-09T11:31:56.000Z</Time>
            <Position>
              <LatitudeDegrees>38.9526384137570858001708984375</LatitudeDegrees>
              <LongitudeDegrees>-2.86104991100728511810302734375</LongitudeDegrees>
            </Position>
            <AltitudeMeters>821.4000244140625</AltitudeMeters>
            <DistanceMeters>28793.56471981</DistanceMeters>
          </Trackpoint>
          <Trackpoint>
            <Time>2020-02-09T11:32:00.000Z</Time>
            <Position>
              <LatitudeDegrees>38.95260907709598541259765625</LatitudeDegrees>
              <LongitudeDegrees>-2.86127722822129726409912109375</LongitudeDegrees>
            </Position>
            <AltitudeMeters>819</AltitudeMeters>
            <DistanceMeters>28813.509466675</DistanceMeters>
          </Trackpoint>
          <Trackpoint>
            <Time>2020-02-09T11:32:02.000Z</Time>
            <Position>
              <LatitudeDegrees>38.9526229910552501678466796875</LatitudeDegrees>
              <LongitudeDegrees>-2.861393652856349945068359375</LongitudeDegrees>
            </Position>
            <AltitudeMeters>818</AltitudeMeters>
            <DistanceMeters>28823.705261887</DistanceMeters>
          </Trackpoint>
          <Trackpoint>
            <Time>2020-02-09T11:32:06.000Z</Time>
            <Position>
              <LatitudeDegrees>38.95272097550332546234130859375</LatitudeDegrees>
              <LongitudeDegrees>-2.86155181936919689178466796875</LongitudeDegrees>
            </Position>
            <AltitudeMeters>817.4000244140625</AltitudeMeters>
            <DistanceMeters>28841.208243732</DistanceMeters>
          </Trackpoint>
          <Trackpoint>
            <Time>2020-02-09T11:32:08.000Z</Time>
            <Position>
              <LatitudeDegrees>38.952809907495975494384765625</LatitudeDegrees>
              <LongitudeDegrees>-2.861562632024288177490234375</LongitudeDegrees>
            </Position>
            <AltitudeMeters>818.4000244140625</AltitudeMeters>
            <DistanceMeters>28851.151144561</DistanceMeters>
          </Trackpoint>
          <Trackpoint>
            <Time>2020-02-09T11:32:10.000Z</Time>
            <Position>
              <LatitudeDegrees>38.9529005996882915496826171875</LatitudeDegrees>
              <LongitudeDegrees>-2.86153421737253665924072265625</LongitudeDegrees>
            </Position>
            <AltitudeMeters>820</AltitudeMeters>
            <DistanceMeters>28861.54082857</DistanceMeters>
          </Trackpoint>
          <Trackpoint>
            <Time>2020-02-09T11:32:16.000Z</Time>
            <Position>
              <LatitudeDegrees>38.95316219888627529144287109375</LatitudeDegrees>
              <LongitudeDegrees>-2.8613274358212947845458984375</LongitudeDegrees>
            </Position>
            <AltitudeMeters>825</AltitudeMeters>
            <DistanceMeters>28895.71835918</DistanceMeters>
          </Trackpoint>
          <Trackpoint>
            <Time>2020-02-09T11:32:26.000Z</Time>
            <Position>
              <LatitudeDegrees>38.9535748399794101715087890625</LatitudeDegrees>
              <LongitudeDegrees>-2.86097598262131214141845703125</LongitudeDegrees>
            </Position>
            <AltitudeMeters>832.5999755859375</AltitudeMeters>
            <DistanceMeters>28950.80681342</DistanceMeters>
          </Trackpoint>
          <Trackpoint>
            <Time>2020-02-09T11:32:27.000Z</Time>
            <Position>
              <LatitudeDegrees>38.95361565984785556793212890625</LatitudeDegrees>
              <LongitudeDegrees>-2.86094681359827518463134765625</LongitudeDegrees>
            </Position>
            <AltitudeMeters>832.5999755859375</AltitudeMeters>
            <DistanceMeters>28956.00469652</DistanceMeters>
          </Trackpoint>
          <Trackpoint>
            <Time>2020-02-09T11:32:36.000Z</Time>
            <Position>
              <LatitudeDegrees>38.95391740836203098297119140625</LatitudeDegrees>
              <LongitudeDegrees>-2.8607584722340106964111328125</LongitudeDegrees>
            </Position>
            <AltitudeMeters>832</AltitudeMeters>
            <DistanceMeters>28993.337256819</DistanceMeters>
          </Trackpoint>
          <Trackpoint>
            <Time>2020-02-09T11:32:46.000Z</Time>
            <Position>
              <LatitudeDegrees>38.95428503863513469696044921875</LatitudeDegrees>
              <LongitudeDegrees>-2.86060701124370098114013671875</LongitudeDegrees>
            </Position>
            <AltitudeMeters>829</AltitudeMeters>
            <DistanceMeters>29036.304045721</DistanceMeters>
          </Trackpoint>
          <Trackpoint>
            <Time>2020-02-09T11:32:56.000Z</Time>
            <Position>
              <LatitudeDegrees>38.95473548211157321929931640625</LatitudeDegrees>
              <LongitudeDegrees>-2.860401235520839691162109375</LongitudeDegrees>
            </Position>
            <AltitudeMeters>823.5999755859375</AltitudeMeters>
            <DistanceMeters>29089.508993083</DistanceMeters>
          </Trackpoint>
          <Trackpoint>
            <Time>2020-02-09T11:32:57.000Z</Time>
            <Position>
              <LatitudeDegrees>38.954777307808399200439453125</LatitudeDegrees>
              <LongitudeDegrees>-2.8603645227849483489990234375</LongitudeDegrees>
            </Position>
            <AltitudeMeters>823.5999755859375</AltitudeMeters>
            <DistanceMeters>29095.145286983</DistanceMeters>
          </Trackpoint>
          <Trackpoint>
            <Time>2020-02-09T11:33:00.000Z</Time>
            <Position>
              <LatitudeDegrees>38.9548918046057224273681640625</LatitudeDegrees>
              <LongitudeDegrees>-2.86023820750415325164794921875</LongitudeDegrees>
            </Position>
            <AltitudeMeters>824.4000244140625</AltitudeMeters>
            <DistanceMeters>29111.936268096</DistanceMeters>
          </Trackpoint>
          <Trackpoint>
            <Time>2020-02-09T11:33:05.000Z</Time>
            <Position>
              <LatitudeDegrees>38.9549732767045497894287109375</LatitudeDegrees>
              <LongitudeDegrees>-2.8601251356303691864013671875</LongitudeDegrees>
            </Position>
            <AltitudeMeters>825.5999755859375</AltitudeMeters>
            <DistanceMeters>29125.278303059</DistanceMeters>
          </Trackpoint>
          <Trackpoint>
            <Time>2020-02-09T11:33:45.000Z</Time>
            <Position>
              <LatitudeDegrees>38.955076374113559722900390625</LatitudeDegrees>
              <LongitudeDegrees>-2.86008884198963642120361328125</LongitudeDegrees>
            </Position>
            <AltitudeMeters>823.79998779296875</AltitudeMeters>
            <DistanceMeters>29137.175253012</DistanceMeters>
          </Trackpoint>
          <Trackpoint>
            <Time>2020-02-09T11:33:46.000Z</Time>
            <Position>
              <LatitudeDegrees>38.955100513994693756103515625</LatitudeDegrees>
              <LongitudeDegrees>-2.8600730001926422119140625</LongitudeDegrees>
            </Position>
            <AltitudeMeters>823.5999755859375</AltitudeMeters>
            <DistanceMeters>29140.189263115</DistanceMeters>
          </Trackpoint>
          <Trackpoint>
            <Time>2020-02-09T11:33:56.000Z</Time>
            <Position>
              <LatitudeDegrees>38.95519833080470561981201171875</LatitudeDegrees>
              <LongitudeDegrees>-2.86003989167511463165283203125</LongitudeDegrees>
            </Position>
            <AltitudeMeters>821.5999755859375</AltitudeMeters>
            <DistanceMeters>29151.44742251</DistanceMeters>
          </Trackpoint>
          <Trackpoint>
            <Time>2020-02-09T11:34:06.000Z</Time>
            <Position>
              <LatitudeDegrees>38.9554609358310699462890625</LatitudeDegrees>
              <LongitudeDegrees>-2.85973914898931980133056640625</LongitudeDegrees>
            </Position>
            <AltitudeMeters>819.20001220703125</AltitudeMeters>
            <DistanceMeters>29190.58643333</DistanceMeters>
          </Trackpoint>
          <Trackpoint>
            <Time>2020-02-09T11:34:08.000Z</Time>
            <Position>
              <LatitudeDegrees>38.955547101795673370361328125</LatitudeDegrees>
              <LongitudeDegrees>-2.85966153256595134735107421875</LongitudeDegrees>
            </Position>
            <AltitudeMeters>818.4000244140625</AltitudeMeters>
            <DistanceMeters>29202.295174534</DistanceMeters>
          </Trackpoint>
          <Trackpoint>
            <Time>2020-02-09T11:34:12.000Z</Time>
            <Position>
              <LatitudeDegrees>38.955653719604015350341796875</LatitudeDegrees>
              <LongitudeDegrees>-2.85949808545410633087158203125</LongitudeDegrees>
            </Position>
            <AltitudeMeters>818</AltitudeMeters>
            <DistanceMeters>29220.759723437</DistanceMeters>
          </Trackpoint>
          <Trackpoint>
            <Time>2020-02-09T11:34:14.000Z</Time>
            <Position>
              <LatitudeDegrees>38.9557068608701229095458984375</LatitudeDegrees>
              <LongitudeDegrees>-2.85951434634625911712646484375</LongitudeDegrees>
            </Position>
            <AltitudeMeters>816.5999755859375</AltitudeMeters>
            <DistanceMeters>29226.839948183</DistanceMeters>
          </Trackpoint>
          <Trackpoint>
            <Time>2020-02-09T11:34:16.000Z</Time>
            <Position>
              <LatitudeDegrees>38.95570778287947177886962890625</LatitudeDegrees>
              <LongitudeDegrees>-2.85956312902271747589111328125</LongitudeDegrees>
            </Position>
            <AltitudeMeters>816</AltitudeMeters>
            <DistanceMeters>29231.063027744</DistanceMeters>
          </Trackpoint>
          <Trackpoint>
            <Time>2020-02-09T11:34:26.000Z</Time>
            <Position>
              <LatitudeDegrees>38.95571147091686725616455078125</LatitudeDegrees>
              <LongitudeDegrees>-2.85988030023872852325439453125</LongitudeDegrees>
            </Position>
            <AltitudeMeters>813</AltitudeMeters>
            <DistanceMeters>29258.517855571</DistanceMeters>
          </Trackpoint>
          <Trackpoint>
            <Time>2020-02-09T11:34:36.000Z</Time>
            <Position>
              <LatitudeDegrees>38.95574189722537994384765625</LatitudeDegrees>
              <LongitudeDegrees>-2.86023602820932865142822265625</LongitudeDegrees>
            </Position>
            <AltitudeMeters>807.5999755859375</AltitudeMeters>
            <DistanceMeters>29289.492483285</DistanceMeters>
          </Trackpoint>
          <Trackpoint>
            <Time>2020-02-09T11:34:46.000Z</Time>
            <Position>
              <LatitudeDegrees>38.95565715618431568145751953125</LatitudeDegrees>
              <LongitudeDegrees>-2.86039411090314388275146484375</LongitudeDegrees>
            </Position>
            <AltitudeMeters>806.20001220703125</AltitudeMeters>
            <DistanceMeters>29306.110479488</DistanceMeters>
          </Trackpoint>
          <Trackpoint>
            <Time>2020-02-09T11:34:48.000Z</Time>
            <Position>
              <LatitudeDegrees>38.9556548930704593658447265625</LatitudeDegrees>
              <LongitudeDegrees>-2.8603970445692539215087890625</LongitudeDegrees>
            </Position>
            <AltitudeMeters>806</AltitudeMeters>
            <DistanceMeters>29306.466036896</DistanceMeters>
          </Trackpoint>
          <Trackpoint>
            <Time>2020-02-09T11:35:30.000Z</Time>
            <Position>
              <LatitudeDegrees>38.95554081536829471588134765625</LatitudeDegrees>
              <LongitudeDegrees>-2.8606531955301761627197265625</LongitudeDegrees>
            </Position>
            <AltitudeMeters>803.79998779296875</AltitudeMeters>
            <DistanceMeters>29332.014618964</DistanceMeters>
          </Trackpoint>
          <Trackpoint>
            <Time>2020-02-09T11:35:31.000Z</Time>
            <Position>
              <LatitudeDegrees>38.955522291362285614013671875</LatitudeDegrees>
              <LongitudeDegrees>-2.86066819913685321807861328125</LongitudeDegrees>
            </Position>
            <AltitudeMeters>803.79998779296875</AltitudeMeters>
            <DistanceMeters>29334.452197742</DistanceMeters>
          </Trackpoint>
          <Trackpoint>
            <Time>2020-02-09T11:35:36.000Z</Time>
            <Position>
              <LatitudeDegrees>38.95543604157865047454833984375</LatitudeDegrees>
              <LongitudeDegrees>-2.860728465020656585693359375</LongitudeDegrees>
            </Position>
            <AltitudeMeters>804</AltitudeMeters>
            <DistanceMeters>29345.377377394</DistanceMeters>
          </Trackpoint>
          <Trackpoint>
            <Time>2020-02-09T11:35:41.000Z</Time>
            <Position>
              <LatitudeDegrees>38.9553705789148807525634765625</LatitudeDegrees>
              <LongitudeDegrees>-2.86081722937524318695068359375</LongitudeDegrees>
            </Position>
            <AltitudeMeters>803.5999755859375</AltitudeMeters>
            <DistanceMeters>29355.96592919</DistanceMeters>
          </Trackpoint>
          <Trackpoint>
            <Time>2020-02-09T11:35:46.000Z</Time>
            <Position>
              <LatitudeDegrees>38.95518776960670948028564453125</LatitudeDegrees>
              <LongitudeDegrees>-2.86093843169510364532470703125</LongitudeDegrees>
            </Position>
            <AltitudeMeters>803.79998779296875</AltitudeMeters>
            <DistanceMeters>29378.858099387</DistanceMeters>
          </Trackpoint>
          <Trackpoint>
            <Time>2020-02-09T11:35:49.000Z</Time>
            <Position>
              <LatitudeDegrees>38.95500965416431427001953125</LatitudeDegrees>
              <LongitudeDegrees>-2.861018143594264984130859375</LongitudeDegrees>
            </Position>
            <AltitudeMeters>804.79998779296875</AltitudeMeters>
            <DistanceMeters>29399.84889618</DistanceMeters>
          </Trackpoint>
          <Trackpoint>
            <Time>2020-02-09T11:35:55.000Z</Time>
            <Position>
              <LatitudeDegrees>38.95479910075664520263671875</LatitudeDegrees>
              <LongitudeDegrees>-2.861140184104442596435546875</LongitudeDegrees>
            </Position>
            <AltitudeMeters>805.20001220703125</AltitudeMeters>
            <DistanceMeters>29425.554632386</DistanceMeters>
          </Trackpoint>
          <Trackpoint>
            <Time>2020-02-09T11:35:56.000Z</Time>
            <Position>
              <LatitudeDegrees>38.95481997169554233551025390625</LatitudeDegrees>
              <LongitudeDegrees>-2.86116021685302257537841796875</LongitudeDegrees>
            </Position>
            <AltitudeMeters>804.4000244140625</AltitudeMeters>
            <DistanceMeters>29428.452557694</DistanceMeters>
          </Trackpoint>
          <Trackpoint>
            <Time>2020-02-09T11:36:04.000Z</Time>
            <Position>
              <LatitudeDegrees>38.955133371055126190185546875</LatitudeDegrees>
              <LongitudeDegrees>-2.8611416928470134735107421875</LongitudeDegrees>
            </Position>
            <AltitudeMeters>801.79998779296875</AltitudeMeters>
            <DistanceMeters>29463.371351948</DistanceMeters>
          </Trackpoint>
          <Trackpoint>
            <Time>2020-02-09T11:36:06.000Z</Time>
            <Position>
              <LatitudeDegrees>38.95521626807749271392822265625</LatitudeDegrees>
              <LongitudeDegrees>-2.86114655435085296630859375</LongitudeDegrees>
            </Position>
            <AltitudeMeters>801.5999755859375</AltitudeMeters>
            <DistanceMeters>29472.607537967</DistanceMeters>
          </Trackpoint>
          <Trackpoint>
            <Time>2020-02-09T11:36:10.000Z</Time>
            <Position>
              <LatitudeDegrees>38.95533428527414798736572265625</LatitudeDegrees>
              <LongitudeDegrees>-2.8610146231949329376220703125</LongitudeDegrees>
            </Position>
            <AltitudeMeters>802</AltitudeMeters>
            <DistanceMeters>29490.012738469</DistanceMeters>
          </Trackpoint>
          <Trackpoint>
            <Time>2020-02-09T11:36:16.000Z</Time>
            <Position>
              <LatitudeDegrees>38.95539195276796817779541015625</LatitudeDegrees>
              <LongitudeDegrees>-2.8608992882072925567626953125</LongitudeDegrees>
            </Position>
            <AltitudeMeters>802.5999755859375</AltitudeMeters>
            <DistanceMeters>29501.880430001</DistanceMeters>
          </Trackpoint>
          <Trackpoint>
            <Time>2020-02-09T11:36:40.000Z</Time>
            <Position>
              <LatitudeDegrees>38.955350629985332489013671875</LatitudeDegrees>
              <LongitudeDegrees>-2.860981263220310211181640625</LongitudeDegrees>
            </Position>
            <AltitudeMeters>802.20001220703125</AltitudeMeters>
            <DistanceMeters>29510.336205855</DistanceMeters>
          </Trackpoint>
          <Trackpoint>
            <Time>2020-02-09T11:36:43.000Z</Time>
            <Position>
              <LatitudeDegrees>38.95531852729618549346923828125</LatitudeDegrees>
              <LongitudeDegrees>-2.86104823462665081024169921875</LongitudeDegrees>
            </Position>
            <AltitudeMeters>801.79998779296875</AltitudeMeters>
            <DistanceMeters>29517.146380053</DistanceMeters>
          </Trackpoint>
          <Trackpoint>
            <Time>2020-02-09T11:36:46.000Z</Time>
            <Position>
              <LatitudeDegrees>38.9553803019225597381591796875</LatitudeDegrees>
              <LongitudeDegrees>-2.861122079193592071533203125</LongitudeDegrees>
            </Position>
            <AltitudeMeters>800.5999755859375</AltitudeMeters>
            <DistanceMeters>29526.534326905</DistanceMeters>
          </Trackpoint>
          <Trackpoint>
            <Time>2020-02-09T11:36:56.000Z</Time>
            <Position>
              <LatitudeDegrees>38.955573253333568572998046875</LatitudeDegrees>
              <LongitudeDegrees>-2.861409746110439300537109375</LongitudeDegrees>
            </Position>
            <AltitudeMeters>796.4000244140625</AltitudeMeters>
            <DistanceMeters>29559.415080583</DistanceMeters>
          </Trackpoint>
          <Trackpoint>
            <Time>2020-02-09T11:37:06.000Z</Time>
            <Position>
              <LatitudeDegrees>38.9556245505809783935546875</LatitudeDegrees>
              <LongitudeDegrees>-2.86165525205433368682861328125</LongitudeDegrees>
            </Position>
            <AltitudeMeters>794.5999755859375</AltitudeMeters>
            <DistanceMeters>29581.417818101</DistanceMeters>
          </Trackpoint>
          <Trackpoint>
            <Time>2020-02-09T11:37:10.000Z</Time>
            <Position>
              <LatitudeDegrees>38.95559144206345081329345703125</LatitudeDegrees>
              <LongitudeDegrees>-2.86167201586067676544189453125</LongitudeDegrees>
            </Position>
            <AltitudeMeters>794.5999755859375</AltitudeMeters>
            <DistanceMeters>29585.378278022</DistanceMeters>
          </Trackpoint>
          <Trackpoint>
            <Time>2020-02-09T11:37:16.000Z</Time>
            <Position>
              <LatitudeDegrees>38.9554989896714687347412109375</LatitudeDegrees>
              <LongitudeDegrees>-2.861786596477031707763671875</LongitudeDegrees>
            </Position>
            <AltitudeMeters>794.5999755859375</AltitudeMeters>
            <DistanceMeters>29599.669613474</DistanceMeters>
          </Trackpoint>
          <Trackpoint>
            <Time>2020-02-09T11:37:26.000Z</Time>
            <Position>
              <LatitudeDegrees>38.95539714954793453216552734375</LatitudeDegrees>
              <LongitudeDegrees>-2.8621019236743450164794921875</LongitudeDegrees>
            </Position>
            <AltitudeMeters>794.4000244140625</AltitudeMeters>
            <DistanceMeters>29629.222310533</DistanceMeters>
          </Trackpoint>
          <Trackpoint>
            <Time>2020-02-09T11:37:34.000Z</Time>
            <Position>
              <LatitudeDegrees>38.95538440905511379241943359375</LatitudeDegrees>
              <LongitudeDegrees>-2.86234843544661998748779296875</LongitudeDegrees>
            </Position>
            <AltitudeMeters>793.79998779296875</AltitudeMeters>
            <DistanceMeters>29650.605644015</DistanceMeters>
          </Trackpoint>
          <Trackpoint>
            <Time>2020-02-09T11:37:36.000Z</Time>
            <Position>
              <LatitudeDegrees>38.955362029373645782470703125</LatitudeDegrees>
              <LongitudeDegrees>-2.86240140907466411590576171875</LongitudeDegrees>
            </Position>
            <AltitudeMeters>793.79998779296875</AltitudeMeters>
            <DistanceMeters>29655.823467362</DistanceMeters>
          </Trackpoint>
          <Trackpoint>
            <Time>2020-02-09T11:37:37.000Z</Time>
            <Position>
              <LatitudeDegrees>38.95535943098366260528564453125</LatitudeDegrees>
              <LongitudeDegrees>-2.86246712319552898406982421875</LongitudeDegrees>
            </Position>
            <AltitudeMeters>793.5999755859375</AltitudeMeters>
            <DistanceMeters>29661.518731587</DistanceMeters>
          </Trackpoint>
          <Trackpoint>
            <Time>2020-02-09T11:37:46.000Z</Time>
            <Position>
              <LatitudeDegrees>38.95547476597130298614501953125</LatitudeDegrees>
              <LongitudeDegrees>-2.862649261951446533203125</LongitudeDegrees>
            </Position>
            <AltitudeMeters>793.4000244140625</AltitudeMeters>
            <DistanceMeters>29681.848674991</DistanceMeters>
          </Trackpoint>
          <Trackpoint>
            <Time>2020-02-09T11:37:47.000Z</Time>
            <Position>
              <LatitudeDegrees>38.9554906077682971954345703125</LatitudeDegrees>
              <LongitudeDegrees>-2.862644903361797332763671875</LongitudeDegrees>
            </Position>
            <AltitudeMeters>793.4000244140625</AltitudeMeters>
            <DistanceMeters>29683.651680127</DistanceMeters>
          </Trackpoint>
          <Trackpoint>
            <Time>2020-02-09T11:37:50.000Z</Time>
            <Position>
              <LatitudeDegrees>38.955534361302852630615234375</LatitudeDegrees>
              <LongitudeDegrees>-2.8626159019768238067626953125</LongitudeDegrees>
            </Position>
            <AltitudeMeters>793.20001220703125</AltitudeMeters>
            <DistanceMeters>29689.130363737</DistanceMeters>
          </Trackpoint>
          <Trackpoint>
            <Time>2020-02-09T11:37:52.000Z</Time>
            <Position>
              <LatitudeDegrees>38.955557160079479217529296875</LatitudeDegrees>
              <LongitudeDegrees>-2.8626417182385921478271484375</LongitudeDegrees>
            </Position>
            <AltitudeMeters>793.20001220703125</AltitudeMeters>
            <DistanceMeters>29692.510163539</DistanceMeters>
          </Trackpoint>
          <Trackpoint>
            <Time>2020-02-09T11:37:56.000Z</Time>
            <Position>
              <LatitudeDegrees>38.9555472694337368011474609375</LatitudeDegrees>
              <LongitudeDegrees>-2.86273165605962276458740234375</LongitudeDegrees>
            </Position>
            <AltitudeMeters>793.5999755859375</AltitudeMeters>
            <DistanceMeters>29700.372726947</DistanceMeters>
          </Trackpoint>
          <Trackpoint>
            <Time>2020-02-09T11:37:59.000Z</Time>
            <Position>
              <LatitudeDegrees>38.95554115064442157745361328125</LatitudeDegrees>
              <LongitudeDegrees>-2.86276484839618206024169921875</LongitudeDegrees>
            </Position>
            <AltitudeMeters>793.5999755859375</AltitudeMeters>
            <DistanceMeters>29703.326208595</DistanceMeters>
          </Trackpoint>
          <Trackpoint>
            <Time>2020-02-09T11:38:03.000Z</Time>
            <Position>
              <LatitudeDegrees>38.95553008653223514556884765625</LatitudeDegrees>
              <LongitudeDegrees>-2.8627942688763141632080078125</LongitudeDegrees>
            </Position>
            <AltitudeMeters>793.79998779296875</AltitudeMeters>
            <DistanceMeters>29706.15475022</DistanceMeters>
          </Trackpoint>
          <Trackpoint>
            <Time>2020-02-09T11:38:17.000Z</Time>
            <Position>
              <LatitudeDegrees>38.95553377456963062286376953125</LatitudeDegrees>
              <LongitudeDegrees>-2.86293315701186656951904296875</LongitudeDegrees>
            </Position>
            <AltitudeMeters>794.20001220703125</AltitudeMeters>
            <DistanceMeters>29718.18267002</DistanceMeters>
          </Trackpoint>
          <Trackpoint>
            <Time>2020-02-09T11:38:23.000Z</Time>
            <Position>
              <LatitudeDegrees>38.95555288530886173248291015625</LatitudeDegrees>
              <LongitudeDegrees>-2.8630557842552661895751953125</LongitudeDegrees>
            </Position>
            <AltitudeMeters>794.5999755859375</AltitudeMeters>
            <DistanceMeters>29729.007376572</DistanceMeters>
          </Trackpoint>
          <Trackpoint>
            <Time>2020-02-09T11:38:25.000Z</Time>
            <Position>
              <LatitudeDegrees>38.95558641292154788970947265625</LatitudeDegrees>
              <LongitudeDegrees>-2.86307732574641704559326171875</LongitudeDegrees>
            </Position>
            <AltitudeMeters>794.79998779296875</AltitudeMeters>
            <DistanceMeters>29733.179904269</DistanceMeters>
          </Trackpoint>
          <Trackpoint>
            <Time>2020-02-09T11:38:26.000Z</Time>
            <Position>
              <LatitudeDegrees>38.95560720004141330718994140625</LatitudeDegrees>
              <LongitudeDegrees>-2.86307464353740215301513671875</LongitudeDegrees>
            </Position>
            <AltitudeMeters>794.79998779296875</AltitudeMeters>
            <DistanceMeters>29735.503691203</DistanceMeters>
          </Trackpoint>
          <Trackpoint>
            <Time>2020-02-09T11:38:30.000Z</Time>
            <Position>
              <LatitudeDegrees>38.95568582229316234588623046875</LatitudeDegrees>
              <LongitudeDegrees>-2.8630542755126953125</LongitudeDegrees>
            </Position>
            <AltitudeMeters>794.5999755859375</AltitudeMeters>
            <DistanceMeters>29744.430134758</DistanceMeters>
          </Trackpoint>
          <Trackpoint>
            <Time>2020-02-09T11:38:32.000Z</Time>
            <Position>
              <LatitudeDegrees>38.95571482367813587188720703125</LatitudeDegrees>
              <LongitudeDegrees>-2.86308838985860347747802734375</LongitudeDegrees>
            </Position>
            <AltitudeMeters>795</AltitudeMeters>
            <DistanceMeters>29748.805493265</DistanceMeters>
          </Trackpoint>
          <Trackpoint>
            <Time>2020-02-09T11:38:36.000Z</Time>
            <Position>
              <LatitudeDegrees>38.95574457943439483642578125</LatitudeDegrees>
              <LongitudeDegrees>-2.86320221610367298126220703125</LongitudeDegrees>
            </Position>
            <AltitudeMeters>796</AltitudeMeters>
            <DistanceMeters>29759.199522059</DistanceMeters>
          </Trackpoint>
          <Trackpoint>
            <Time>2020-02-09T11:38:40.000Z</Time>
            <Position>
              <LatitudeDegrees>38.95579554140567779541015625</LatitudeDegrees>
              <LongitudeDegrees>-2.86328821443021297454833984375</LongitudeDegrees>
            </Position>
            <AltitudeMeters>796.79998779296875</AltitudeMeters>
            <DistanceMeters>29768.558085594</DistanceMeters>
          </Trackpoint>
          <Trackpoint>
            <Time>2020-02-09T11:38:46.000Z</Time>
            <Position>
              <LatitudeDegrees>38.95591280423104763031005859375</LatitudeDegrees>
              <LongitudeDegrees>-2.863333225250244140625</LongitudeDegrees>
            </Position>
            <AltitudeMeters>797.20001220703125</AltitudeMeters>
            <DistanceMeters>29782.178433991</DistanceMeters>
          </Trackpoint>
          <Trackpoint>
            <Time>2020-02-09T11:38:54.000Z</Time>
            <Position>
              <LatitudeDegrees>38.9559382013976573944091796875</LatitudeDegrees>
              <LongitudeDegrees>-2.86337412893772125244140625</LongitudeDegrees>
            </Position>
            <AltitudeMeters>797.5999755859375</AltitudeMeters>
            <DistanceMeters>29786.708926652</DistanceMeters>
          </Trackpoint>
          <Trackpoint>
            <Time>2020-02-09T11:38:58.000Z</Time>
            <Position>
              <LatitudeDegrees>38.95591489970684051513671875</LatitudeDegrees>
              <LongitudeDegrees>-2.86334504373371601104736328125</LongitudeDegrees>
            </Position>
            <AltitudeMeters>797.4000244140625</AltitudeMeters>
            <DistanceMeters>29790.323690907</DistanceMeters>
          </Trackpoint>
          <Trackpoint>
            <Time>2020-02-09T11:39:00.000Z</Time>
            <Position>
              <LatitudeDegrees>38.955871649086475372314453125</LatitudeDegrees>
              <LongitudeDegrees>-2.86332023330032825469970703125</LongitudeDegrees>
            </Position>
            <AltitudeMeters>797.20001220703125</AltitudeMeters>
            <DistanceMeters>29795.594033888</DistanceMeters>
          </Trackpoint>
          <Trackpoint>
            <Time>2020-02-09T11:39:03.000Z</Time>
            <Position>
              <LatitudeDegrees>38.95584692247211933135986328125</LatitudeDegrees>
              <LongitudeDegrees>-2.8633050620555877685546875</LongitudeDegrees>
            </Position>
            <AltitudeMeters>797</AltitudeMeters>
            <DistanceMeters>29798.643784491</DistanceMeters>
          </Trackpoint>
          <Trackpoint>
            <Time>2020-02-09T11:39:05.000Z</Time>
            <Position>
              <LatitudeDegrees>38.95585991442203521728515625</LatitudeDegrees>
              <LongitudeDegrees>-2.8632981888949871063232421875</LongitudeDegrees>
            </Position>
            <AltitudeMeters>797</AltitudeMeters>
            <DistanceMeters>29800.205232741</DistanceMeters>
          </Trackpoint>
          <Trackpoint>
            <Time>2020-02-09T11:39:06.000Z</Time>
            <Position>
              <LatitudeDegrees>38.9558739960193634033203125</LatitudeDegrees>
              <LongitudeDegrees>-2.8633077442646026611328125</LongitudeDegrees>
            </Position>
            <AltitudeMeters>797</AltitudeMeters>
            <DistanceMeters>29801.977933112</DistanceMeters>
          </Trackpoint>
          <Trackpoint>
            <Time>2020-02-09T11:39:07.000Z</Time>
            <Position>
              <LatitudeDegrees>38.9558887481689453125</LatitudeDegrees>
              <LongitudeDegrees>-2.86332777701318264007568359375</LongitudeDegrees>
            </Position>
            <AltitudeMeters>797.20001220703125</AltitudeMeters>
            <DistanceMeters>29804.36497694</DistanceMeters>
          </Trackpoint>
          <Trackpoint>
            <Time>2020-02-09T11:39:09.000Z</Time>
            <Position>
              <LatitudeDegrees>38.9559036679565906524658203125</LatitudeDegrees>
              <LongitudeDegrees>-2.86337505094707012176513671875</LongitudeDegrees>
            </Position>
            <AltitudeMeters>797.5999755859375</AltitudeMeters>
            <DistanceMeters>29808.781419526</DistanceMeters>
          </Trackpoint>
          <Trackpoint>
            <Time>2020-02-09T11:39:16.000Z</Time>
            <Position>
              <LatitudeDegrees>38.95581825636327266693115234375</LatitudeDegrees>
              <LongitudeDegrees>-2.8635395877063274383544921875</LongitudeDegrees>
            </Position>
            <AltitudeMeters>799.79998779296875</AltitudeMeters>
            <DistanceMeters>29825.904168195</DistanceMeters>
          </Trackpoint>
          <Trackpoint>
            <Time>2020-02-09T11:39:26.000Z</Time>
            <Position>
              <LatitudeDegrees>38.95568699575960636138916015625</LatitudeDegrees>
              <LongitudeDegrees>-2.86376145668327808380126953125</LongitudeDegrees>
            </Position>
            <AltitudeMeters>802.79998779296875</AltitudeMeters>
            <DistanceMeters>29850.032908704</DistanceMeters>
          </Trackpoint>
          <Trackpoint>
            <Time>2020-02-09T11:39:36.000Z</Time>
            <Position>
              <LatitudeDegrees>38.955681882798671722412109375</LatitudeDegrees>
              <LongitudeDegrees>-2.86404074169695377349853515625</LongitudeDegrees>
            </Position>
            <AltitudeMeters>805.4000244140625</AltitudeMeters>
            <DistanceMeters>29874.212306325</DistanceMeters>
          </Trackpoint>
          <Trackpoint>
            <Time>2020-02-09T11:39:46.000Z</Time>
            <Position>
              <LatitudeDegrees>38.955742903053760528564453125</LatitudeDegrees>
              <LongitudeDegrees>-2.8643135726451873779296875</LongitudeDegrees>
            </Position>
            <AltitudeMeters>808.79998779296875</AltitudeMeters>
            <DistanceMeters>29898.783833366</DistanceMeters>
          </Trackpoint>
          <Trackpoint>
            <Time>2020-02-09T11:39:56.000Z</Time>
            <Position>
              <LatitudeDegrees>38.95581657998263835906982421875</LatitudeDegrees>
              <LongitudeDegrees>-2.86460735835134983062744140625</LongitudeDegrees>
            </Position>
            <AltitudeMeters>814.20001220703125</AltitudeMeters>
            <DistanceMeters>29925.50138458</DistanceMeters>
          </Trackpoint>
          <Trackpoint>
            <Time>2020-02-09T11:40:06.000Z</Time>
            <Position>
              <LatitudeDegrees>38.95584725774824619293212890625</LatitudeDegrees>
              <LongitudeDegrees>-2.86496744491159915924072265625</LongitudeDegrees>
            </Position>
            <AltitudeMeters>818</AltitudeMeters>
            <DistanceMeters>29956.853864568</DistanceMeters>
          </Trackpoint>
          <Trackpoint>
            <Time>2020-02-09T11:40:16.000Z</Time>
            <Position>
              <LatitudeDegrees>38.9558879099786281585693359375</LatitudeDegrees>
              <LongitudeDegrees>-2.8652818500995635986328125</LongitudeDegrees>
            </Position>
            <AltitudeMeters>822</AltitudeMeters>
            <DistanceMeters>29984.439614005</DistanceMeters>
          </Trackpoint>
          <Trackpoint>
            <Time>2020-02-09T11:40:26.000Z</Time>
            <Position>
              <LatitudeDegrees>38.9559744112193584442138671875</LatitudeDegrees>
              <LongitudeDegrees>-2.86563095636665821075439453125</LongitudeDegrees>
            </Position>
            <AltitudeMeters>823.5999755859375</AltitudeMeters>
            <DistanceMeters>30016.151781282</DistanceMeters>
          </Trackpoint>
          <Trackpoint>
            <Time>2020-02-09T11:40:36.000Z</Time>
            <Position>
              <LatitudeDegrees>38.95602864213287830352783203125</LatitudeDegrees>
              <LongitudeDegrees>-2.866043262183666229248046875</LongitudeDegrees>
            </Position>
            <AltitudeMeters>826.20001220703125</AltitudeMeters>
            <DistanceMeters>30052.344361861</DistanceMeters>
          </Trackpoint>
          <Trackpoint>
            <Time>2020-02-09T11:40:46.000Z</Time>
            <Position>
              <LatitudeDegrees>38.956009112298488616943359375</LatitudeDegrees>
              <LongitudeDegrees>-2.866446264088153839111328125</LongitudeDegrees>
            </Position>
            <AltitudeMeters>829.5999755859375</AltitudeMeters>
            <DistanceMeters>30087.292495138</DistanceMeters>
          </Trackpoint>
          <Trackpoint>
            <Time>2020-02-09T11:40:56.000Z</Time>
            <Position>
              <LatitudeDegrees>38.95600131712853908538818359375</LatitudeDegrees>
              <LongitudeDegrees>-2.86683342419564723968505859375</LongitudeDegrees>
            </Position>
            <AltitudeMeters>831.4000244140625</AltitudeMeters>
            <DistanceMeters>30120.813092866</DistanceMeters>
          </Trackpoint>
          <Trackpoint>
            <Time>2020-02-09T11:41:06.000Z</Time>
            <Position>
              <LatitudeDegrees>38.95611497573554515838623046875</LatitudeDegrees>
              <LongitudeDegrees>-2.86717750132083892822265625</LongitudeDegrees>
            </Position>
            <AltitudeMeters>829.20001220703125</AltitudeMeters>
            <DistanceMeters>30153.168956516</DistanceMeters>
          </Trackpoint>
          <Trackpoint>
            <Time>2020-02-09T11:41:25.000Z</Time>
            <Position>
              <LatitudeDegrees>38.9561541192233562469482421875</LatitudeDegrees>
              <LongitudeDegrees>-2.86788024008274078369140625</LongitudeDegrees>
            </Position>
            <AltitudeMeters>825.5999755859375</AltitudeMeters>
            <DistanceMeters>30214.147829401</DistanceMeters>
          </Trackpoint>
          <Trackpoint>
            <Time>2020-02-09T11:41:41.000Z</Time>
            <Position>
              <LatitudeDegrees>38.9558071084320545196533203125</LatitudeDegrees>
              <LongitudeDegrees>-2.86845666356384754180908203125</LongitudeDegrees>
            </Position>
            <AltitudeMeters>827.20001220703125</AltitudeMeters>
            <DistanceMeters>30277.241417343</DistanceMeters>
          </Trackpoint>
          <Trackpoint>
            <Time>2020-02-09T11:41:59.000Z</Time>
            <Position>
              <LatitudeDegrees>38.95531676709651947021484375</LatitudeDegrees>
              <LongitudeDegrees>-2.8688010759651660919189453125</LongitudeDegrees>
            </Position>
            <AltitudeMeters>832</AltitudeMeters>
            <DistanceMeters>30339.42781696</DistanceMeters>
          </Trackpoint>
          <Trackpoint>
            <Time>2020-02-09T11:42:15.000Z</Time>
            <Position>
              <LatitudeDegrees>38.9549799822270870208740234375</LatitudeDegrees>
              <LongitudeDegrees>-2.8687606751918792724609375</LongitudeDegrees>
            </Position>
            <AltitudeMeters>836.79998779296875</AltitudeMeters>
            <DistanceMeters>30377.075429613</DistanceMeters>
          </Trackpoint>
          <Trackpoint>
            <Time>2020-02-09T11:42:51.000Z</Time>
            <Position>
              <LatitudeDegrees>38.9548405073583126068115234375</LatitudeDegrees>
              <LongitudeDegrees>-2.86940800957381725311279296875</LongitudeDegrees>
            </Position>
            <AltitudeMeters>838.20001220703125</AltitudeMeters>
            <DistanceMeters>30435.215006969</DistanceMeters>
          </Trackpoint>
          <Trackpoint>
            <Time>2020-02-09T11:43:28.000Z</Time>
            <Position>
              <LatitudeDegrees>38.95460338331758975982666015625</LatitudeDegrees>
              <LongitudeDegrees>-2.87000781856477260589599609375</LongitudeDegrees>
            </Position>
            <AltitudeMeters>847.5999755859375</AltitudeMeters>
            <DistanceMeters>30493.453902503</DistanceMeters>
          </Trackpoint>
          <Trackpoint>
            <Time>2020-02-09T11:43:58.000Z</Time>
            <Position>
              <LatitudeDegrees>38.95421379245817661285400390625</LatitudeDegrees>
              <LongitudeDegrees>-2.869578413665294647216796875</LongitudeDegrees>
            </Position>
            <AltitudeMeters>845</AltitudeMeters>
            <DistanceMeters>30550.56464161</DistanceMeters>
          </Trackpoint>
          <Trackpoint>
            <Time>2020-02-09T11:44:22.000Z</Time>
            <Position>
              <LatitudeDegrees>38.95374591462314128875732421875</LatitudeDegrees>
              <LongitudeDegrees>-2.8692151419818401336669921875</LongitudeDegrees>
            </Position>
            <AltitudeMeters>850.79998779296875</AltitudeMeters>
            <DistanceMeters>30611.396584919</DistanceMeters>
          </Trackpoint>
          <Trackpoint>
            <Time>2020-02-09T11:44:47.000Z</Time>
            <Position>
              <LatitudeDegrees>38.9532476104795932769775390625</LatitudeDegrees>
              <LongitudeDegrees>-2.86895312368869781494140625</LongitudeDegrees>
            </Position>
            <AltitudeMeters>852.20001220703125</AltitudeMeters>
            <DistanceMeters>30671.31648574</DistanceMeters>
          </Trackpoint>
          <Trackpoint>
            <Time>2020-02-09T11:45:02.000Z</Time>
            <Position>
              <LatitudeDegrees>38.95301719196140766143798828125</LatitudeDegrees>
              <LongitudeDegrees>-2.86890459246933460235595703125</LongitudeDegrees>
            </Position>
            <AltitudeMeters>851.5999755859375</AltitudeMeters>
            <DistanceMeters>30697.304163921</DistanceMeters>
          </Trackpoint>
          <Trackpoint>
            <Time>2020-02-09T11:45:06.000Z</Time>
            <Position>
              <LatitudeDegrees>38.952988944947719573974609375</LatitudeDegrees>
              <LongitudeDegrees>-2.86894164048135280609130859375</LongitudeDegrees>
            </Position>
            <AltitudeMeters>851.4000244140625</AltitudeMeters>
            <DistanceMeters>30701.795621455</DistanceMeters>
          </Trackpoint>
          <Trackpoint>
            <Time>2020-02-09T11:45:09.000Z</Time>
            <Position>
              <LatitudeDegrees>38.952976204454898834228515625</LatitudeDegrees>
              <LongitudeDegrees>-2.868943400681018829345703125</LongitudeDegrees>
            </Position>
            <AltitudeMeters>851.4000244140625</AltitudeMeters>
            <DistanceMeters>30703.224186216</DistanceMeters>
          </Trackpoint>
          <Trackpoint>
            <Time>2020-02-09T11:45:19.000Z</Time>
            <Position>
              <LatitudeDegrees>38.95293488167226314544677734375</LatitudeDegrees>
              <LongitudeDegrees>-2.868870310485363006591796875</LongitudeDegrees>
            </Position>
            <AltitudeMeters>852</AltitudeMeters>
            <DistanceMeters>30711.045871962</DistanceMeters>
          </Trackpoint>
          <Trackpoint>
            <Time>2020-02-09T11:45:41.000Z</Time>
            <Position>
              <LatitudeDegrees>38.952488042414188385009765625</LatitudeDegrees>
              <LongitudeDegrees>-2.868483066558837890625</LongitudeDegrees>
            </Position>
            <AltitudeMeters>853.20001220703125</AltitudeMeters>
            <DistanceMeters>30771.020452827</DistanceMeters>
          </Trackpoint>
          <Trackpoint>
            <Time>2020-02-09T11:45:53.000Z</Time>
            <Position>
              <LatitudeDegrees>38.951979763805866241455078125</LatitudeDegrees>
              <LongitudeDegrees>-2.86819632165133953094482421875</LongitudeDegrees>
            </Position>
            <AltitudeMeters>851.4000244140625</AltitudeMeters>
            <DistanceMeters>30832.797903795</DistanceMeters>
          </Trackpoint>
          <Trackpoint>
            <Time>2020-02-09T11:46:07.000Z</Time>
            <Position>
              <LatitudeDegrees>38.9514444954693317413330078125</LatitudeDegrees>
              <LongitudeDegrees>-2.868154831230640411376953125</LongitudeDegrees>
            </Position>
            <AltitudeMeters>853</AltitudeMeters>
            <DistanceMeters>30892.482397059</DistanceMeters>
          </Trackpoint>
          <Trackpoint>
            <Time>2020-02-09T11:46:24.000Z</Time>
            <Position>
              <LatitudeDegrees>38.95088248886168003082275390625</LatitudeDegrees>
              <LongitudeDegrees>-2.86823906935751438140869140625</LongitudeDegrees>
            </Position>
            <AltitudeMeters>856</AltitudeMeters>
            <DistanceMeters>30955.458372271</DistanceMeters>
          </Trackpoint>
          <Trackpoint>
            <Time>2020-02-09T11:46:40.000Z</Time>
            <Position>
              <LatitudeDegrees>38.95033079199492931365966796875</LatitudeDegrees>
              <LongitudeDegrees>-2.86832054145634174346923828125</LongitudeDegrees>
            </Position>
            <AltitudeMeters>862.20001220703125</AltitudeMeters>
            <DistanceMeters>31017.266949837</DistanceMeters>
          </Trackpoint>
          <Trackpoint>
            <Time>2020-02-09T11:46:56.000Z</Time>
            <Position>
              <LatitudeDegrees>38.94980357028543949127197265625</LatitudeDegrees>
              <LongitudeDegrees>-2.8681290149688720703125</LongitudeDegrees>
            </Position>
            <AltitudeMeters>859.20001220703125</AltitudeMeters>
            <DistanceMeters>31078.244638027</DistanceMeters>
          </Trackpoint>
          <Trackpoint>
            <Time>2020-02-09T11:47:11.000Z</Time>
            <Position>
              <LatitudeDegrees>38.94930803216993808746337890625</LatitudeDegrees>
              <LongitudeDegrees>-2.867783010005950927734375</LongitudeDegrees>
            </Position>
            <AltitudeMeters>861.5999755859375</AltitudeMeters>
            <DistanceMeters>31141.006168009</DistanceMeters>
          </Trackpoint>
          <Trackpoint>
            <Time>2020-02-09T11:47:25.000Z</Time>
            <Position>
              <LatitudeDegrees>38.94890838302671909332275390625</LatitudeDegrees>
              <LongitudeDegrees>-2.86730633117258548736572265625</LongitudeDegrees>
            </Position>
            <AltitudeMeters>861.20001220703125</AltitudeMeters>
            <DistanceMeters>31201.678474068</DistanceMeters>
          </Trackpoint>
          <Trackpoint>
            <Time>2020-02-09T11:47:43.000Z</Time>
            <Position>
              <LatitudeDegrees>38.9484622143208980560302734375</LatitudeDegrees>
              <LongitudeDegrees>-2.86689545027911663055419921875</LongitudeDegrees>
            </Position>
            <AltitudeMeters>864.79998779296875</AltitudeMeters>
            <DistanceMeters>31262.760475221</DistanceMeters>
          </Trackpoint>
          <Trackpoint>
            <Time>2020-02-09T11:47:58.000Z</Time>
            <Position>
              <LatitudeDegrees>38.94788864068686962127685546875</LatitudeDegrees>
              <LongitudeDegrees>-2.8670194186270236968994140625</LongitudeDegrees>
            </Position>
            <AltitudeMeters>862.79998779296875</AltitudeMeters>
            <DistanceMeters>31327.495920505</DistanceMeters>
          </Trackpoint>
          <Trackpoint>
            <Time>2020-02-09T11:48:03.000Z</Time>
            <Position>
              <LatitudeDegrees>38.9475231058895587921142578125</LatitudeDegrees>
              <LongitudeDegrees>-2.86718496121466159820556640625</LongitudeDegrees>
            </Position>
            <AltitudeMeters>865</AltitudeMeters>
            <DistanceMeters>31370.63040834</DistanceMeters>
          </Trackpoint>
          <Trackpoint>
            <Time>2020-02-09T11:48:06.000Z</Time>
            <Position>
              <LatitudeDegrees>38.9473445713520050048828125</LatitudeDegrees>
              <LongitudeDegrees>-2.86719359457492828369140625</LongitudeDegrees>
            </Position>
            <AltitudeMeters>867</AltitudeMeters>
            <DistanceMeters>31390.515755897</DistanceMeters>
          </Trackpoint>
          <Trackpoint>
            <Time>2020-02-09T11:48:33.000Z</Time>
            <Position>
              <LatitudeDegrees>38.9468046091496944427490234375</LatitudeDegrees>
              <LongitudeDegrees>-2.86722469143569469451904296875</LongitudeDegrees>
            </Position>
            <AltitudeMeters>871</AltitudeMeters>
            <DistanceMeters>31450.674946531</DistanceMeters>
          </Trackpoint>
          <Trackpoint>
            <Time>2020-02-09T11:49:04.000Z</Time>
            <Position>
              <LatitudeDegrees>38.9462721906602382659912109375</LatitudeDegrees>
              <LongitudeDegrees>-2.86733575165271759033203125</LongitudeDegrees>
            </Position>
            <AltitudeMeters>873.5999755859375</AltitudeMeters>
            <DistanceMeters>31510.708971136</DistanceMeters>
          </Trackpoint>
          <Trackpoint>
            <Time>2020-02-09T11:49:27.000Z</Time>
            <Position>
              <LatitudeDegrees>38.945712111890316009521484375</LatitudeDegrees>
              <LongitudeDegrees>-2.86736668087542057037353515625</LongitudeDegrees>
            </Position>
            <AltitudeMeters>869.79998779296875</AltitudeMeters>
            <DistanceMeters>31573.104267254</DistanceMeters>
          </Trackpoint>
          <Trackpoint>
            <Time>2020-02-09T11:49:38.000Z</Time>
            <Position>
              <LatitudeDegrees>38.9453615806996822357177734375</LatitudeDegrees>
              <LongitudeDegrees>-2.86738763563334941864013671875</LongitudeDegrees>
            </Position>
            <AltitudeMeters>867</AltitudeMeters>
            <DistanceMeters>31612.161056082</DistanceMeters>
          </Trackpoint>
          <Trackpoint>
            <Time>2020-02-09T11:49:49.000Z</Time>
            <Position>
              <LatitudeDegrees>38.944907449185848236083984375</LatitudeDegrees>
              <LongitudeDegrees>-2.86700156517326831817626953125</LongitudeDegrees>
            </Position>
            <AltitudeMeters>865.79998779296875</AltitudeMeters>
            <DistanceMeters>31672.756217302</DistanceMeters>
          </Trackpoint>
          <Trackpoint>
            <Time>2020-02-09T11:49:55.000Z</Time>
            <Position>
              <LatitudeDegrees>38.9448058605194091796875</LatitudeDegrees>
              <LongitudeDegrees>-2.86692445166409015655517578125</LongitudeDegrees>
            </Position>
            <AltitudeMeters>868.5999755859375</AltitudeMeters>
            <DistanceMeters>31685.88641987</DistanceMeters>
          </Trackpoint>
          <Trackpoint>
            <Time>2020-02-09T11:50:00.000Z</Time>
            <Position>
              <LatitudeDegrees>38.94484517164528369903564453125</LatitudeDegrees>
              <LongitudeDegrees>-2.8668641857802867889404296875</LongitudeDegrees>
            </Position>
            <AltitudeMeters>869.79998779296875</AltitudeMeters>
            <DistanceMeters>31692.695267971</DistanceMeters>
          </Trackpoint>
          <Trackpoint>
            <Time>2020-02-09T11:50:05.000Z</Time>
            <Position>
              <LatitudeDegrees>38.94486713223159313201904296875</LatitudeDegrees>
              <LongitudeDegrees>-2.86680467426776885986328125</LongitudeDegrees>
            </Position>
            <AltitudeMeters>871.20001220703125</AltitudeMeters>
            <DistanceMeters>31698.396870833</DistanceMeters>
          </Trackpoint>
          <Trackpoint>
            <Time>2020-02-09T11:54:47.000Z</Time>
            <Position>
              <LatitudeDegrees>38.944801501929759979248046875</LatitudeDegrees>
              <LongitudeDegrees>-2.86690123379230499267578125</LongitudeDegrees>
            </Position>
            <AltitudeMeters>869.4000244140625</AltitudeMeters>
            <DistanceMeters>31709.497520506</DistanceMeters>
          </Trackpoint>
          <Trackpoint>
            <Time>2020-02-09T11:55:07.000Z</Time>
            <Position>
              <LatitudeDegrees>38.94434359855949878692626953125</LatitudeDegrees>
              <LongitudeDegrees>-2.86658473312854766845703125</LongitudeDegrees>
            </Position>
            <AltitudeMeters>876</AltitudeMeters>
            <DistanceMeters>31767.360597019</DistanceMeters>
          </Trackpoint>
          <Trackpoint>
            <Time>2020-02-09T11:55:25.000Z</Time>
            <Position>
              <LatitudeDegrees>38.94381671212613582611083984375</LatitudeDegrees>
              <LongitudeDegrees>-2.86635682918131351470947265625</LongitudeDegrees>
            </Position>
            <AltitudeMeters>876.5999755859375</AltitudeMeters>
            <DistanceMeters>31829.233715967</DistanceMeters>
          </Trackpoint>
          <Trackpoint>
            <Time>2020-02-09T11:55:39.000Z</Time>
            <Position>
              <LatitudeDegrees>38.94332955591380596160888671875</LatitudeDegrees>
              <LongitudeDegrees>-2.86604083143174648284912109375</LongitudeDegrees>
            </Position>
            <AltitudeMeters>881.4000244140625</AltitudeMeters>
            <DistanceMeters>31889.964782835</DistanceMeters>
          </Trackpoint>
          <Trackpoint>
            <Time>2020-02-09T11:55:52.000Z</Time>
            <Position>
              <LatitudeDegrees>38.94283100031316280364990234375</LatitudeDegrees>
              <LongitudeDegrees>-2.86576624028384685516357421875</LongitudeDegrees>
            </Position>
            <AltitudeMeters>884</AltitudeMeters>
            <DistanceMeters>31950.33210653</DistanceMeters>
          </Trackpoint>
          <Trackpoint>
            <Time>2020-02-09T11:56:06.000Z</Time>
            <Position>
              <LatitudeDegrees>38.94233797676861286163330078125</LatitudeDegrees>
              <LongitudeDegrees>-2.86542191170156002044677734375</LongitudeDegrees>
            </Position>
            <AltitudeMeters>882.4000244140625</AltitudeMeters>
            <DistanceMeters>32012.779842942</DistanceMeters>
          </Trackpoint>
          <Trackpoint>
            <Time>2020-02-09T11:56:21.000Z</Time>
            <Position>
              <LatitudeDegrees>38.941863812506198883056640625</LatitudeDegrees>
              <LongitudeDegrees>-2.8650842048227787017822265625</LongitudeDegrees>
            </Position>
            <AltitudeMeters>889</AltitudeMeters>
            <DistanceMeters>32073.111704457</DistanceMeters>
          </Trackpoint>
          <Trackpoint>
            <Time>2020-02-09T11:56:38.000Z</Time>
            <Position>
              <LatitudeDegrees>38.941371627151966094970703125</LatitudeDegrees>
              <LongitudeDegrees>-2.86474348045885562896728515625</LongitudeDegrees>
            </Position>
            <AltitudeMeters>894.79998779296875</AltitudeMeters>
            <DistanceMeters>32135.329171217</DistanceMeters>
          </Trackpoint>
          <Trackpoint>
            <Time>2020-02-09T11:56:56.000Z</Time>
            <Position>
              <LatitudeDegrees>38.94091825000941753387451171875</LatitudeDegrees>
              <LongitudeDegrees>-2.86432564258575439453125</LongitudeDegrees>
            </Position>
            <AltitudeMeters>900.20001220703125</AltitudeMeters>
            <DistanceMeters>32197.416313307</DistanceMeters>
          </Trackpoint>
          <Trackpoint>
            <Time>2020-02-09T11:57:13.000Z</Time>
            <Position>
              <LatitudeDegrees>38.940463364124298095703125</LatitudeDegrees>
              <LongitudeDegrees>-2.863941751420497894287109375</LongitudeDegrees>
            </Position>
            <AltitudeMeters>901.4000244140625</AltitudeMeters>
            <DistanceMeters>32257.978978787</DistanceMeters>
          </Trackpoint>
          <Trackpoint>
            <Time>2020-02-09T11:57:31.000Z</Time>
            <Position>
              <LatitudeDegrees>38.9400186203420162200927734375</LatitudeDegrees>
              <LongitudeDegrees>-2.8634963370859622955322265625</LongitudeDegrees>
            </Position>
            <AltitudeMeters>902.4000244140625</AltitudeMeters>
            <DistanceMeters>32320.726119202</DistanceMeters>
          </Trackpoint>
          <Trackpoint>
            <Time>2020-02-09T11:57:49.000Z</Time>
            <Position>
              <LatitudeDegrees>38.93983212299644947052001953125</LatitudeDegrees>
              <LongitudeDegrees>-2.862952016294002532958984375</LongitudeDegrees>
            </Position>
            <AltitudeMeters>902.4000244140625</AltitudeMeters>
            <DistanceMeters>32372.217885684</DistanceMeters>
          </Trackpoint>
          <Trackpoint>
            <Time>2020-02-09T11:58:05.000Z</Time>
            <Position>
              <LatitudeDegrees>38.94028910435736179351806640625</LatitudeDegrees>
              <LongitudeDegrees>-2.86254272796213626861572265625</LongitudeDegrees>
            </Position>
            <AltitudeMeters>901.79998779296875</AltitudeMeters>
            <DistanceMeters>32434.205756987</DistanceMeters>
          </Trackpoint>
          <Trackpoint>
            <Time>2020-02-09T11:58:12.000Z</Time>
            <Position>
              <LatitudeDegrees>38.94064399413764476776123046875</LatitudeDegrees>
              <LongitudeDegrees>-2.86244130693376064300537109375</LongitudeDegrees>
            </Position>
            <AltitudeMeters>901</AltitudeMeters>
            <DistanceMeters>32474.66973431</DistanceMeters>
          </Trackpoint>
          <Trackpoint>
            <Time>2020-02-09T11:58:14.000Z</Time>
            <Position>
              <LatitudeDegrees>38.94074834883213043212890625</LatitudeDegrees>
              <LongitudeDegrees>-2.86237643100321292877197265625</LongitudeDegrees>
            </Position>
            <AltitudeMeters>900.79998779296875</AltitudeMeters>
            <DistanceMeters>32487.570988862</DistanceMeters>
          </Trackpoint>
          <Trackpoint>
            <Time>2020-02-09T11:58:17.000Z</Time>
            <Position>
              <LatitudeDegrees>38.94089360721409320831298828125</LatitudeDegrees>
              <LongitudeDegrees>-2.86228003911674022674560546875</LongitudeDegrees>
            </Position>
            <AltitudeMeters>900.4000244140625</AltitudeMeters>
            <DistanceMeters>32505.765068731</DistanceMeters>
          </Trackpoint>
          <Trackpoint>
            <Time>2020-02-09T11:58:25.000Z</Time>
            <Position>
              <LatitudeDegrees>38.9410509355366230010986328125</LatitudeDegrees>
              <LongitudeDegrees>-2.8623493574559688568115234375</LongitudeDegrees>
            </Position>
            <AltitudeMeters>900</AltitudeMeters>
            <DistanceMeters>32524.276019024</DistanceMeters>
          </Trackpoint>
          <Trackpoint>
            <Time>2020-02-09T11:58:40.000Z</Time>
            <Position>
              <LatitudeDegrees>38.94107289612293243408203125</LatitudeDegrees>
              <LongitudeDegrees>-2.862389087677001953125</LongitudeDegrees>
            </Position>
            <AltitudeMeters>900</AltitudeMeters>
            <DistanceMeters>32528.495889964</DistanceMeters>
          </Trackpoint>
          <Trackpoint>
            <Time>2020-02-09T11:58:49.000Z</Time>
            <Position>
              <LatitudeDegrees>38.941299878060817718505859375</LatitudeDegrees>
              <LongitudeDegrees>-2.862660996615886688232421875</LongitudeDegrees>
            </Position>
            <AltitudeMeters>899.79998779296875</AltitudeMeters>
            <DistanceMeters>32563.026040465</DistanceMeters>
          </Trackpoint>
          <Trackpoint>
            <Time>2020-02-09T11:58:51.000Z</Time>
            <Position>
              <LatitudeDegrees>38.941368274390697479248046875</LatitudeDegrees>
              <LongitudeDegrees>-2.86277155391871929168701171875</LongitudeDegrees>
            </Position>
            <AltitudeMeters>899.5999755859375</AltitudeMeters>
            <DistanceMeters>32575.255354676</DistanceMeters>
          </Trackpoint>
          <Trackpoint>
            <Time>2020-02-09T11:58:53.000Z</Time>
            <Position>
              <LatitudeDegrees>38.94144630990922451019287109375</LatitudeDegrees>
              <LongitudeDegrees>-2.86287632770836353302001953125</LongitudeDegrees>
            </Position>
            <AltitudeMeters>899.5999755859375</AltitudeMeters>
            <DistanceMeters>32587.81398976</DistanceMeters>
          </Trackpoint>
          <Trackpoint>
            <Time>2020-02-09T11:58:58.000Z</Time>
            <Position>
              <LatitudeDegrees>38.9416433684527873992919921875</LatitudeDegrees>
              <LongitudeDegrees>-2.86321856081485748291015625</LongitudeDegrees>
            </Position>
            <AltitudeMeters>897.79998779296875</AltitudeMeters>
            <DistanceMeters>32624.676026912</DistanceMeters>
          </Trackpoint>
          <Trackpoint>
            <Time>2020-02-09T11:59:00.000Z</Time>
            <Position>
              <LatitudeDegrees>38.94173900596797466278076171875</LatitudeDegrees>
              <LongitudeDegrees>-2.8633514977991580963134765625</LongitudeDegrees>
            </Position>
            <AltitudeMeters>897</AltitudeMeters>
            <DistanceMeters>32640.351978885</DistanceMeters>
          </Trackpoint>
          <Trackpoint>
            <Time>2020-02-09T11:59:02.000Z</Time>
            <Position>
              <LatitudeDegrees>38.94182818941771984100341796875</LatitudeDegrees>
              <LongitudeDegrees>-2.863502204418182373046875</LongitudeDegrees>
            </Position>
            <AltitudeMeters>896.4000244140625</AltitudeMeters>
            <DistanceMeters>32656.745670816</DistanceMeters>
          </Trackpoint>
          <Trackpoint>
            <Time>2020-02-09T11:59:05.000Z</Time>
            <Position>
              <LatitudeDegrees>38.9419521577656269073486328125</LatitudeDegrees>
              <LongitudeDegrees>-2.86367445252835750579833984375</LongitudeDegrees>
            </Position>
            <AltitudeMeters>895.20001220703125</AltitudeMeters>
            <DistanceMeters>32677.061395611</DistanceMeters>
          </Trackpoint>
          <Trackpoint>
            <Time>2020-02-09T11:59:08.000Z</Time>
            <Position>
              <LatitudeDegrees>38.94203438423573970794677734375</LatitudeDegrees>
              <LongitudeDegrees>-2.86383287049829959869384765625</LongitudeDegrees>
            </Position>
            <AltitudeMeters>894.4000244140625</AltitudeMeters>
            <DistanceMeters>32693.549009788</DistanceMeters>
          </Trackpoint>
          <Trackpoint>
            <Time>2020-02-09T11:59:14.000Z</Time>
            <Position>
              <LatitudeDegrees>38.94221023656427860260009765625</LatitudeDegrees>
              <LongitudeDegrees>-2.8640129975974559783935546875</LongitudeDegrees>
            </Position>
            <AltitudeMeters>892.79998779296875</AltitudeMeters>
            <DistanceMeters>32718.573894033</DistanceMeters>
          </Trackpoint>
          <Trackpoint>
            <Time>2020-02-09T11:59:19.000Z</Time>
            <Position>
              <LatitudeDegrees>38.94241425208747386932373046875</LatitudeDegrees>
              <LongitudeDegrees>-2.86407695151865482330322265625</LongitudeDegrees>
            </Position>
            <AltitudeMeters>891</AltitudeMeters>
            <DistanceMeters>32741.94621622</DistanceMeters>
          </Trackpoint>
          <Trackpoint>
            <Time>2020-02-09T11:59:32.000Z</Time>
            <Position>
              <LatitudeDegrees>38.94295572303235530853271484375</LatitudeDegrees>
              <LongitudeDegrees>-2.86416714079678058624267578125</LongitudeDegrees>
            </Position>
            <AltitudeMeters>887.20001220703125</AltitudeMeters>
            <DistanceMeters>32802.716524458</DistanceMeters>
          </Trackpoint>
          <Trackpoint>
            <Time>2020-02-09T11:59:42.000Z</Time>
            <Position>
              <LatitudeDegrees>38.94321019761264324188232421875</LatitudeDegrees>
              <LongitudeDegrees>-2.86436093039810657501220703125</LongitudeDegrees>
            </Position>
            <AltitudeMeters>884.4000244140625</AltitudeMeters>
            <DistanceMeters>32835.635566876</DistanceMeters>
          </Trackpoint>
          <Trackpoint>
            <Time>2020-02-09T11:59:54.000Z</Time>
            <Position>
              <LatitudeDegrees>38.9435943402349948883056640625</LatitudeDegrees>
              <LongitudeDegrees>-2.86489737220108509063720703125</LongitudeDegrees>
            </Position>
            <AltitudeMeters>876.20001220703125</AltitudeMeters>
            <DistanceMeters>32898.759060216</DistanceMeters>
          </Trackpoint>
          <Trackpoint>
            <Time>2020-02-09T11:59:59.000Z</Time>
            <Position>
              <LatitudeDegrees>38.94360012374818325042724609375</LatitudeDegrees>
              <LongitudeDegrees>-2.86492553539574146270751953125</LongitudeDegrees>
            </Position>
            <AltitudeMeters>876</AltitudeMeters>
            <DistanceMeters>32901.280403869</DistanceMeters>
          </Trackpoint>
          <Trackpoint>
            <Time>2020-02-09T12:01:46.000Z</Time>
            <Position>
              <LatitudeDegrees>38.94368679262697696685791015625</LatitudeDegrees>
              <LongitudeDegrees>-2.864965014159679412841796875</LongitudeDegrees>
            </Position>
            <AltitudeMeters>875.20001220703125</AltitudeMeters>
            <DistanceMeters>32911.514211889</DistanceMeters>
          </Trackpoint>
          <Trackpoint>
            <Time>2020-02-09T12:01:50.000Z</Time>
            <Position>
              <LatitudeDegrees>38.94385074265301227569580078125</LatitudeDegrees>
              <LongitudeDegrees>-2.86500298418104648590087890625</LongitudeDegrees>
            </Position>
            <AltitudeMeters>872.5999755859375</AltitudeMeters>
            <DistanceMeters>32930.055869592</DistanceMeters>
          </Trackpoint>
          <Trackpoint>
            <Time>2020-02-09T12:01:54.000Z</Time>
            <Position>
              <LatitudeDegrees>38.9440690912306308746337890625</LatitudeDegrees>
              <LongitudeDegrees>-2.865157462656497955322265625</LongitudeDegrees>
            </Position>
            <AltitudeMeters>869.79998779296875</AltitudeMeters>
            <DistanceMeters>32957.794882079</DistanceMeters>
          </Trackpoint>
          <Trackpoint>
            <Time>2020-02-09T12:01:56.000Z</Time>
            <Position>
              <LatitudeDegrees>38.94419825635850429534912109375</LatitudeDegrees>
              <LongitudeDegrees>-2.86524086259305477142333984375</LongitudeDegrees>
            </Position>
            <AltitudeMeters>868.79998779296875</AltitudeMeters>
            <DistanceMeters>32973.882205999</DistanceMeters>
          </Trackpoint>
          <Trackpoint>
            <Time>2020-02-09T12:02:00.000Z</Time>
            <Position>
              <LatitudeDegrees>38.94451685249805450439453125</LatitudeDegrees>
              <LongitudeDegrees>-2.8653598017990589141845703125</LongitudeDegrees>
            </Position>
            <AltitudeMeters>866.4000244140625</AltitudeMeters>
            <DistanceMeters>33010.807146652</DistanceMeters>
          </Trackpoint>
          <Trackpoint>
            <Time>2020-02-09T12:02:05.000Z</Time>
            <Position>
              <LatitudeDegrees>38.94491842947900295257568359375</LatitudeDegrees>
              <LongitudeDegrees>-2.865491397678852081298828125</LongitudeDegrees>
            </Position>
            <AltitudeMeters>864.4000244140625</AltitudeMeters>
            <DistanceMeters>33056.932217173</DistanceMeters>
          </Trackpoint>
          <Trackpoint>
            <Time>2020-02-09T12:02:07.000Z</Time>
            <Position>
              <LatitudeDegrees>38.94507366232573986053466796875</LatitudeDegrees>
              <LongitudeDegrees>-2.86553741432726383209228515625</LongitudeDegrees>
            </Position>
            <AltitudeMeters>861.4000244140625</AltitudeMeters>
            <DistanceMeters>33074.66329558</DistanceMeters>
          </Trackpoint>
          <Trackpoint>
            <Time>2020-02-09T12:02:09.000Z</Time>
            <Position>
              <LatitudeDegrees>38.9451979659497737884521484375</LatitudeDegrees>
              <LongitudeDegrees>-2.86556473933160305023193359375</LongitudeDegrees>
            </Position>
            <AltitudeMeters>859</AltitudeMeters>
            <DistanceMeters>33088.698969689</DistanceMeters>
          </Trackpoint>
          <Trackpoint>
            <Time>2020-02-09T12:02:11.000Z</Time>
            <Position>
              <LatitudeDegrees>38.9452926814556121826171875</LatitudeDegrees>
              <LongitudeDegrees>-2.8655807487666606903076171875</LongitudeDegrees>
            </Position>
            <AltitudeMeters>857.4000244140625</AltitudeMeters>
            <DistanceMeters>33099.33177539</DistanceMeters>
          </Trackpoint>
          <Trackpoint>
            <Time>2020-02-09T12:02:16.000Z</Time>
            <Position>
              <LatitudeDegrees>38.945621587336063385009765625</LatitudeDegrees>
              <LongitudeDegrees>-2.865704633295536041259765625</LongitudeDegrees>
            </Position>
            <AltitudeMeters>852.5999755859375</AltitudeMeters>
            <DistanceMeters>33137.478107304</DistanceMeters>
          </Trackpoint>
          <Trackpoint>
            <Time>2020-02-09T12:02:18.000Z</Time>
            <Position>
              <LatitudeDegrees>38.9457701146602630615234375</LatitudeDegrees>
              <LongitudeDegrees>-2.8656907193362712860107421875</LongitudeDegrees>
            </Position>
            <AltitudeMeters>851.4000244140625</AltitudeMeters>
            <DistanceMeters>33154.053664787</DistanceMeters>
          </Trackpoint>
          <Trackpoint>
            <Time>2020-02-09T12:02:20.000Z</Time>
            <Position>
              <LatitudeDegrees>38.94590950571000576019287109375</LatitudeDegrees>
              <LongitudeDegrees>-2.8656323812901973724365234375</LongitudeDegrees>
            </Position>
            <AltitudeMeters>850.20001220703125</AltitudeMeters>
            <DistanceMeters>33170.369505359</DistanceMeters>
          </Trackpoint>
          <Trackpoint>
            <Time>2020-02-09T12:02:22.000Z</Time>
            <Position>
              <LatitudeDegrees>38.94601763226091861724853515625</LatitudeDegrees>
              <LongitudeDegrees>-2.86554261110723018646240234375</LongitudeDegrees>
            </Position>
            <AltitudeMeters>849.20001220703125</AltitudeMeters>
            <DistanceMeters>33184.695550781</DistanceMeters>
          </Trackpoint>
          <Trackpoint>
            <Time>2020-02-09T12:02:24.000Z</Time>
            <Position>
              <LatitudeDegrees>38.94608887843787670135498046875</LatitudeDegrees>
              <LongitudeDegrees>-2.86540531553328037261962890625</LongitudeDegrees>
            </Position>
            <AltitudeMeters>848.20001220703125</AltitudeMeters>
            <DistanceMeters>33198.98309459</DistanceMeters>
          </Trackpoint>
          <Trackpoint>
            <Time>2020-02-09T12:02:27.000Z</Time>
            <Position>
              <LatitudeDegrees>38.94617655314505100250244140625</LatitudeDegrees>
              <LongitudeDegrees>-2.86518805660307407379150390625</LongitudeDegrees>
            </Position>
            <AltitudeMeters>846.79998779296875</AltitudeMeters>
            <DistanceMeters>33220.17064259</DistanceMeters>
          </Trackpoint>
          <Trackpoint>
            <Time>2020-02-09T12:02:32.000Z</Time>
            <Position>
              <LatitudeDegrees>38.94641987979412078857421875</LatitudeDegrees>
              <LongitudeDegrees>-2.86487842909991741180419921875</LongitudeDegrees>
            </Position>
            <AltitudeMeters>846</AltitudeMeters>
            <DistanceMeters>33258.27362975</DistanceMeters>
          </Trackpoint>
          <Trackpoint>
            <Time>2020-02-09T12:02:34.000Z</Time>
            <Position>
              <LatitudeDegrees>38.94652674905955791473388671875</LatitudeDegrees>
              <LongitudeDegrees>-2.86480533890426158905029296875</LongitudeDegrees>
            </Position>
            <AltitudeMeters>845.79998779296875</AltitudeMeters>
            <DistanceMeters>33271.74666195</DistanceMeters>
          </Trackpoint>
          <Trackpoint>
            <Time>2020-02-09T12:02:42.000Z</Time>
            <Position>
              <LatitudeDegrees>38.94700233824551105499267578125</LatitudeDegrees>
              <LongitudeDegrees>-2.86472168751060962677001953125</LongitudeDegrees>
            </Position>
            <AltitudeMeters>842</AltitudeMeters>
            <DistanceMeters>33325.17382119</DistanceMeters>
          </Trackpoint>
          <Trackpoint>
            <Time>2020-02-09T12:02:51.000Z</Time>
            <Position>
              <LatitudeDegrees>38.9473786018788814544677734375</LatitudeDegrees>
              <LongitudeDegrees>-2.86447190679609775543212890625</LongitudeDegrees>
            </Position>
            <AltitudeMeters>836.4000244140625</AltitudeMeters>
            <DistanceMeters>33372.304964023</DistanceMeters>
          </Trackpoint>
          <Trackpoint>
            <Time>2020-02-09T12:02:54.000Z</Time>
            <Position>
              <LatitudeDegrees>38.94754464738070964813232421875</LatitudeDegrees>
              <LongitudeDegrees>-2.86434718407690525054931640625</LongitudeDegrees>
            </Position>
            <AltitudeMeters>834</AltitudeMeters>
            <DistanceMeters>33393.708558071</DistanceMeters>
          </Trackpoint>
          <Trackpoint>
            <Time>2020-02-09T12:03:05.000Z</Time>
            <Position>
              <LatitudeDegrees>38.94796960987150669097900390625</LatitudeDegrees>
              <LongitudeDegrees>-2.86410125903785228729248046875</LongitudeDegrees>
            </Position>
            <AltitudeMeters>827.4000244140625</AltitudeMeters>
            <DistanceMeters>33445.577390961</DistanceMeters>
          </Trackpoint>
          <Trackpoint>
            <Time>2020-02-09T12:04:27.000Z</Time>
            <Position>
              <LatitudeDegrees>38.948069103062152862548828125</LatitudeDegrees>
              <LongitudeDegrees>-2.86404074169695377349853515625</LongitudeDegrees>
            </Position>
            <AltitudeMeters>825.79998779296875</AltitudeMeters>
            <DistanceMeters>33457.827362811</DistanceMeters>
          </Trackpoint>
          <Trackpoint>
            <Time>2020-02-09T12:04:35.000Z</Time>
            <Position>
              <LatitudeDegrees>38.948559947311878204345703125</LatitudeDegrees>
              <LongitudeDegrees>-2.86391593515872955322265625</LongitudeDegrees>
            </Position>
            <AltitudeMeters>818.20001220703125</AltitudeMeters>
            <DistanceMeters>33513.517233475</DistanceMeters>
          </Trackpoint>
          <Trackpoint>
            <Time>2020-02-09T12:04:37.000Z</Time>
            <Position>
              <LatitudeDegrees>38.94869196228682994842529296875</LatitudeDegrees>
              <LongitudeDegrees>-2.86385047249495983123779296875</LongitudeDegrees>
            </Position>
            <AltitudeMeters>815.79998779296875</AltitudeMeters>
            <DistanceMeters>33529.265600042</DistanceMeters>
          </Trackpoint>
          <Trackpoint>
            <Time>2020-02-09T12:04:40.000Z</Time>
            <Position>
              <LatitudeDegrees>38.948882482945919036865234375</LatitudeDegrees>
              <LongitudeDegrees>-2.863716445863246917724609375</LongitudeDegrees>
            </Position>
            <AltitudeMeters>812</AltitudeMeters>
            <DistanceMeters>33553.436966905</DistanceMeters>
          </Trackpoint>
          <Trackpoint>
            <Time>2020-02-09T12:04:42.000Z</Time>
            <Position>
              <LatitudeDegrees>38.94900443963706493377685546875</LatitudeDegrees>
              <LongitudeDegrees>-2.8636716865003108978271484375</LongitudeDegrees>
            </Position>
            <AltitudeMeters>809.79998779296875</AltitudeMeters>
            <DistanceMeters>33567.552832688</DistanceMeters>
          </Trackpoint>
          <Trackpoint>
            <Time>2020-02-09T12:04:45.000Z</Time>
            <Position>
              <LatitudeDegrees>38.9490774460136890411376953125</LatitudeDegrees>
              <LongitudeDegrees>-2.863645367324352264404296875</LongitudeDegrees>
            </Position>
            <AltitudeMeters>808.4000244140625</AltitudeMeters>
            <DistanceMeters>33575.992574567</DistanceMeters>
          </Trackpoint>
          <Trackpoint>
            <Time>2020-02-09T12:04:47.000Z</Time>
            <Position>
              <LatitudeDegrees>38.94908197224140167236328125</LatitudeDegrees>
              <LongitudeDegrees>-2.8636156953871250152587890625</LongitudeDegrees>
            </Position>
            <AltitudeMeters>808.20001220703125</AltitudeMeters>
            <DistanceMeters>33578.612280295</DistanceMeters>
          </Trackpoint>
          <Trackpoint>
            <Time>2020-02-09T12:05:05.000Z</Time>
            <Position>
              <LatitudeDegrees>38.948972336947917938232421875</LatitudeDegrees>
              <LongitudeDegrees>-2.8633206523954868316650390625</LongitudeDegrees>
            </Position>
            <AltitudeMeters>810.4000244140625</AltitudeMeters>
            <DistanceMeters>33606.916844981</DistanceMeters>
          </Trackpoint>
          <Trackpoint>
            <Time>2020-02-09T12:05:19.000Z</Time>
            <Position>
              <LatitudeDegrees>38.94906411878764629364013671875</LatitudeDegrees>
              <LongitudeDegrees>-2.86352969706058502197265625</LongitudeDegrees>
            </Position>
            <AltitudeMeters>808.5999755859375</AltitudeMeters>
            <DistanceMeters>33627.696213</DistanceMeters>
          </Trackpoint>
          <Trackpoint>
            <Time>2020-02-09T12:05:53.000Z</Time>
            <Position>
              <LatitudeDegrees>38.94904215820133686065673828125</LatitudeDegrees>
              <LongitudeDegrees>-2.86345736123621463775634765625</LongitudeDegrees>
            </Position>
            <AltitudeMeters>809</AltitudeMeters>
            <DistanceMeters>33634.418303636</DistanceMeters>
          </Trackpoint>
          <Trackpoint>
            <Time>2020-02-09T12:06:14.000Z</Time>
            <Position>
              <LatitudeDegrees>38.94897602498531341552734375</LatitudeDegrees>
              <LongitudeDegrees>-2.8627855516970157623291015625</LongitudeDegrees>
            </Position>
            <AltitudeMeters>812</AltitudeMeters>
            <DistanceMeters>33693.034151885</DistanceMeters>
          </Trackpoint>
          <Trackpoint>
            <Time>2020-02-09T12:06:32.000Z</Time>
            <Position>
              <LatitudeDegrees>38.94916403107345104217529296875</LatitudeDegrees>
              <LongitudeDegrees>-2.862108461558818817138671875</LongitudeDegrees>
            </Position>
            <AltitudeMeters>813</AltitudeMeters>
            <DistanceMeters>33755.266711096</DistanceMeters>
          </Trackpoint>
          <Trackpoint>
            <Time>2020-02-09T12:06:49.000Z</Time>
            <Position>
              <LatitudeDegrees>38.94938816316425800323486328125</LatitudeDegrees>
              <LongitudeDegrees>-2.8614434413611888885498046875</LongitudeDegrees>
            </Position>
            <AltitudeMeters>814.20001220703125</AltitudeMeters>
            <DistanceMeters>33818.003776851</DistanceMeters>
          </Trackpoint>
          <Trackpoint>
            <Time>2020-02-09T12:07:07.000Z</Time>
            <Position>
              <LatitudeDegrees>38.949572145938873291015625</LatitudeDegrees>
              <LongitudeDegrees>-2.86076760850846767425537109375</LongitudeDegrees>
            </Position>
            <AltitudeMeters>817.4000244140625</AltitudeMeters>
            <DistanceMeters>33879.984218289</DistanceMeters>
          </Trackpoint>
          <Trackpoint>
            <Time>2020-02-09T12:07:22.000Z</Time>
            <Position>
              <LatitudeDegrees>38.94964816980063915252685546875</LatitudeDegrees>
              <LongitudeDegrees>-2.86005497910082340240478515625</LongitudeDegrees>
            </Position>
            <AltitudeMeters>815.5999755859375</AltitudeMeters>
            <DistanceMeters>33942.246806394</DistanceMeters>
          </Trackpoint>
          <Trackpoint>
            <Time>2020-02-09T12:07:38.000Z</Time>
            <Position>
              <LatitudeDegrees>38.94975009374320507049560546875</LatitudeDegrees>
              <LongitudeDegrees>-2.8593325428664684295654296875</LongitudeDegrees>
            </Position>
            <AltitudeMeters>813.5999755859375</AltitudeMeters>
            <DistanceMeters>34005.801139004</DistanceMeters>
          </Trackpoint>
          <Trackpoint>
            <Time>2020-02-09T12:07:51.000Z</Time>
            <Position>
              <LatitudeDegrees>38.94969276152551174163818359375</LatitudeDegrees>
              <LongitudeDegrees>-2.858636677265167236328125</LongitudeDegrees>
            </Position>
            <AltitudeMeters>815.20001220703125</AltitudeMeters>
            <DistanceMeters>34066.371855512</DistanceMeters>
          </Trackpoint>
          <Trackpoint>
            <Time>2020-02-09T12:08:05.000Z</Time>
            <Position>
              <LatitudeDegrees>38.9494742453098297119140625</LatitudeDegrees>
              <LongitudeDegrees>-2.85798548720777034759521484375</LongitudeDegrees>
            </Position>
            <AltitudeMeters>817</AltitudeMeters>
            <DistanceMeters>34127.761907835</DistanceMeters>
          </Trackpoint>
          <Trackpoint>
            <Time>2020-02-09T12:08:23.000Z</Time>
            <Position>
              <LatitudeDegrees>38.9490895159542560577392578125</LatitudeDegrees>
              <LongitudeDegrees>-2.85751459188759326934814453125</LongitudeDegrees>
            </Position>
            <AltitudeMeters>816</AltitudeMeters>
            <DistanceMeters>34186.881203227</DistanceMeters>
          </Trackpoint>
          <Trackpoint>
            <Time>2020-02-09T12:08:43.000Z</Time>
            <Position>
              <LatitudeDegrees>38.948557935655117034912109375</LatitudeDegrees>
              <LongitudeDegrees>-2.85738115198910236358642578125</LongitudeDegrees>
            </Position>
            <AltitudeMeters>818.4000244140625</AltitudeMeters>
            <DistanceMeters>34247.164101663</DistanceMeters>
          </Trackpoint>
          <Trackpoint>
            <Time>2020-02-09T12:09:14.000Z</Time>
            <Position>
              <LatitudeDegrees>38.94807606004178524017333984375</LatitudeDegrees>
              <LongitudeDegrees>-2.8573691658675670623779296875</LongitudeDegrees>
            </Position>
            <AltitudeMeters>820.5999755859375</AltitudeMeters>
            <DistanceMeters>34300.807755068</DistanceMeters>
          </Trackpoint>
          <Trackpoint>
            <Time>2020-02-09T12:09:20.000Z</Time>
            <Position>
              <LatitudeDegrees>38.9480525068938732147216796875</LatitudeDegrees>
              <LongitudeDegrees>-2.85737268626689910888671875</LongitudeDegrees>
            </Position>
            <AltitudeMeters>820.79998779296875</AltitudeMeters>
            <DistanceMeters>34303.444639377</DistanceMeters>
          </Trackpoint>
          <Trackpoint>
            <Time>2020-02-09T12:10:10.000Z</Time>
            <Position>
              <LatitudeDegrees>38.947956450283527374267578125</LatitudeDegrees>
              <LongitudeDegrees>-2.857342846691608428955078125</LongitudeDegrees>
            </Position>
            <AltitudeMeters>820.79998779296875</AltitudeMeters>
            <DistanceMeters>34314.443545419</DistanceMeters>
          </Trackpoint>
          <Trackpoint>
            <Time>2020-02-09T12:10:27.000Z</Time>
            <Position>
              <LatitudeDegrees>38.94776794128119945526123046875</LatitudeDegrees>
              <LongitudeDegrees>-2.85737000405788421630859375</LongitudeDegrees>
            </Position>
            <AltitudeMeters>821</AltitudeMeters>
            <DistanceMeters>34335.556163292</DistanceMeters>
          </Trackpoint>
          <Trackpoint>
            <Time>2020-02-09T12:10:49.000Z</Time>
            <Position>
              <LatitudeDegrees>38.94757012836635112762451171875</LatitudeDegrees>
              <LongitudeDegrees>-2.85739808343350887298583984375</LongitudeDegrees>
            </Position>
            <AltitudeMeters>818.79998779296875</AltitudeMeters>
            <DistanceMeters>34357.706969906</DistanceMeters>
          </Trackpoint>
          <Trackpoint>
            <Time>2020-02-09T12:10:56.000Z</Time>
            <Position>
              <LatitudeDegrees>38.947505839169025421142578125</LatitudeDegrees>
              <LongitudeDegrees>-2.857403866946697235107421875</LongitudeDegrees>
            </Position>
            <AltitudeMeters>818</AltitudeMeters>
            <DistanceMeters>34364.880700153</DistanceMeters>
          </Trackpoint>
          <Trackpoint>
            <Time>2020-02-09T12:11:06.000Z</Time>
            <Position>
              <LatitudeDegrees>38.94740064628422260284423828125</LatitudeDegrees>
              <LongitudeDegrees>-2.8574647195637226104736328125</LongitudeDegrees>
            </Position>
            <AltitudeMeters>817.20001220703125</AltitudeMeters>
            <DistanceMeters>34377.719509109</DistanceMeters>
          </Trackpoint>
          <Trackpoint>
            <Time>2020-02-09T12:11:12.000Z</Time>
            <Position>
              <LatitudeDegrees>38.947357647120952606201171875</LatitudeDegrees>
              <LongitudeDegrees>-2.8574417531490325927734375</LongitudeDegrees>
            </Position>
            <AltitudeMeters>816.20001220703125</AltitudeMeters>
            <DistanceMeters>34382.901733278</DistanceMeters>
          </Trackpoint>
          <Trackpoint>
            <Time>2020-02-09T12:11:37.000Z</Time>
            <Position>
              <LatitudeDegrees>38.94715103320777416229248046875</LatitudeDegrees>
              <LongitudeDegrees>-2.8574724309146404266357421875</LongitudeDegrees>
            </Position>
            <AltitudeMeters>813.4000244140625</AltitudeMeters>
            <DistanceMeters>34406.050833833</DistanceMeters>
          </Trackpoint>
          <Trackpoint>
            <Time>2020-02-09T12:11:52.000Z</Time>
            <Position>
              <LatitudeDegrees>38.946739397943019866943359375</LatitudeDegrees>
              <LongitudeDegrees>-2.8573668189346790313720703125</LongitudeDegrees>
            </Position>
            <AltitudeMeters>813.5999755859375</AltitudeMeters>
            <DistanceMeters>34452.769874998</DistanceMeters>
          </Trackpoint>
          <Trackpoint>
            <Time>2020-02-09T12:12:07.000Z</Time>
            <Position>
              <LatitudeDegrees>38.94625383429229259490966796875</LatitudeDegrees>
              <LongitudeDegrees>-2.8570409305393695831298828125</LongitudeDegrees>
            </Position>
            <AltitudeMeters>816</AltitudeMeters>
            <DistanceMeters>34513.733641307</DistanceMeters>
          </Trackpoint>
          <Trackpoint>
            <Time>2020-02-09T12:12:24.000Z</Time>
            <Position>
              <LatitudeDegrees>38.94570481963455677032470703125</LatitudeDegrees>
              <LongitudeDegrees>-2.8569658286869525909423828125</LongitudeDegrees>
            </Position>
            <AltitudeMeters>816.79998779296875</AltitudeMeters>
            <DistanceMeters>34575.185000999</DistanceMeters>
          </Trackpoint>
          <Trackpoint>
            <Time>2020-02-09T12:12:40.000Z</Time>
            <Position>
              <LatitudeDegrees>38.94517407752573490142822265625</LatitudeDegrees>
              <LongitudeDegrees>-2.85685560666024684906005859375</LongitudeDegrees>
            </Position>
            <AltitudeMeters>814.4000244140625</AltitudeMeters>
            <DistanceMeters>34635.023240793</DistanceMeters>
          </Trackpoint>
          <Trackpoint>
            <Time>2020-02-09T12:12:49.000Z</Time>
            <Position>
              <LatitudeDegrees>38.9448506198823451995849609375</LatitudeDegrees>
              <LongitudeDegrees>-2.856906317174434661865234375</LongitudeDegrees>
            </Position>
            <AltitudeMeters>816.20001220703125</AltitudeMeters>
            <DistanceMeters>34671.291341313</DistanceMeters>
          </Trackpoint>
          <Trackpoint>
            <Time>2020-02-09T12:12:51.000Z</Time>
            <Position>
              <LatitudeDegrees>38.9447691477835178375244140625</LatitudeDegrees>
              <LongitudeDegrees>-2.8568763099610805511474609375</LongitudeDegrees>
            </Position>
            <AltitudeMeters>815.4000244140625</AltitudeMeters>
            <DistanceMeters>34680.724388184</DistanceMeters>
          </Trackpoint>
          <Trackpoint>
            <Time>2020-02-09T12:12:53.000Z</Time>
            <Position>
              <LatitudeDegrees>38.9446806348860263824462890625</LatitudeDegrees>
              <LongitudeDegrees>-2.856834568083286285400390625</LongitudeDegrees>
            </Position>
            <AltitudeMeters>814.20001220703125</AltitudeMeters>
            <DistanceMeters>34691.217850537</DistanceMeters>
          </Trackpoint>
          <Trackpoint>
            <Time>2020-02-09T12:12:55.000Z</Time>
            <Position>
              <LatitudeDegrees>38.94458365626633167266845703125</LatitudeDegrees>
              <LongitudeDegrees>-2.8568253479897975921630859375</LongitudeDegrees>
            </Position>
            <AltitudeMeters>813.79998779296875</AltitudeMeters>
            <DistanceMeters>34702.041722848</DistanceMeters>
          </Trackpoint>
          <Trackpoint>
            <Time>2020-02-09T12:13:00.000Z</Time>
            <Position>
              <LatitudeDegrees>38.94434158690273761749267578125</LatitudeDegrees>
              <LongitudeDegrees>-2.85688980482518672943115234375</LongitudeDegrees>
            </Position>
            <AltitudeMeters>815.79998779296875</AltitudeMeters>
            <DistanceMeters>34729.556182478</DistanceMeters>
          </Trackpoint>
          <Trackpoint>
            <Time>2020-02-09T12:13:18.000Z</Time>
            <Position>
              <LatitudeDegrees>38.943784274160861968994140625</LatitudeDegrees>
              <LongitudeDegrees>-2.85700748674571514129638671875</LongitudeDegrees>
            </Position>
            <AltitudeMeters>823.4000244140625</AltitudeMeters>
            <DistanceMeters>34792.417126166</DistanceMeters>
          </Trackpoint>
          <Trackpoint>
            <Time>2020-02-09T12:13:19.000Z</Time>
            <Position>
              <LatitudeDegrees>38.9437462203204631805419921875</LatitudeDegrees>
              <LongitudeDegrees>-2.8570218198001384735107421875</LongitudeDegrees>
            </Position>
            <AltitudeMeters>824.20001220703125</AltitudeMeters>
            <DistanceMeters>34796.83152363</DistanceMeters>
          </Trackpoint>
          <Trackpoint>
            <Time>2020-02-09T12:13:26.000Z</Time>
            <Position>
              <LatitudeDegrees>38.94351127557456493377685546875</LatitudeDegrees>
              <LongitudeDegrees>-2.856897599995136260986328125</LongitudeDegrees>
            </Position>
            <AltitudeMeters>824.5999755859375</AltitudeMeters>
            <DistanceMeters>34825.106083356</DistanceMeters>
          </Trackpoint>
          <Trackpoint>
            <Time>2020-02-09T12:13:28.000Z</Time>
            <Position>
              <LatitudeDegrees>38.94345427863299846649169921875</LatitudeDegrees>
              <LongitudeDegrees>-2.85681000910699367523193359375</LongitudeDegrees>
            </Position>
            <AltitudeMeters>823.4000244140625</AltitudeMeters>
            <DistanceMeters>34834.992059148</DistanceMeters>
          </Trackpoint>
          <Trackpoint>
            <Time>2020-02-09T12:13:30.000Z</Time>
            <Position>
              <LatitudeDegrees>38.9433767460286617279052734375</LatitudeDegrees>
              <LongitudeDegrees>-2.85674798302352428436279296875</LongitudeDegrees>
            </Position>
            <AltitudeMeters>821.20001220703125</AltitudeMeters>
            <DistanceMeters>34845.155920349</DistanceMeters>
          </Trackpoint>
          <Trackpoint>
            <Time>2020-02-09T12:13:42.000Z</Time>
            <Position>
              <LatitudeDegrees>38.94281608052551746368408203125</LatitudeDegrees>
              <LongitudeDegrees>-2.85659643821418285369873046875</LongitudeDegrees>
            </Position>
            <AltitudeMeters>820.20001220703125</AltitudeMeters>
            <DistanceMeters>34908.923094137</DistanceMeters>
          </Trackpoint>
          <Trackpoint>
            <Time>2020-02-09T12:13:45.000Z</Time>
            <Position>
              <LatitudeDegrees>38.94267861731350421905517578125</LatitudeDegrees>
              <LongitudeDegrees>-2.8565822727978229522705078125</LongitudeDegrees>
            </Position>
            <AltitudeMeters>819.79998779296875</AltitudeMeters>
            <DistanceMeters>34924.271600066</DistanceMeters>
          </Trackpoint>
          <Trackpoint>
            <Time>2020-02-09T12:13:53.000Z</Time>
            <Position>
              <LatitudeDegrees>38.94233361817896366119384765625</LatitudeDegrees>
              <LongitudeDegrees>-2.85664874128997325897216796875</LongitudeDegrees>
            </Position>
            <AltitudeMeters>818.5999755859375</AltitudeMeters>
            <DistanceMeters>34963.099403926</DistanceMeters>
          </Trackpoint>
          <Trackpoint>
            <Time>2020-02-09T12:13:56.000Z</Time>
            <Position>
              <LatitudeDegrees>38.94219431094825267791748046875</LatitudeDegrees>
              <LongitudeDegrees>-2.8566251881420612335205078125</LongitudeDegrees>
            </Position>
            <AltitudeMeters>817.4000244140625</AltitudeMeters>
            <DistanceMeters>34978.737579339</DistanceMeters>
          </Trackpoint>
          <Trackpoint>
            <Time>2020-02-09T12:14:07.000Z</Time>
            <Position>
              <LatitudeDegrees>38.94169676117599010467529296875</LatitudeDegrees>
              <LongitudeDegrees>-2.85679324530065059661865234375</LongitudeDegrees>
            </Position>
            <AltitudeMeters>819.4000244140625</AltitudeMeters>
            <DistanceMeters>35035.994940205</DistanceMeters>
          </Trackpoint>
          <Trackpoint>
            <Time>2020-02-09T12:14:10.000Z</Time>
            <Position>
              <LatitudeDegrees>38.941559381783008575439453125</LatitudeDegrees>
              <LongitudeDegrees>-2.85679760389029979705810546875</LongitudeDegrees>
            </Position>
            <AltitudeMeters>820.5999755859375</AltitudeMeters>
            <DistanceMeters>35051.290404255</DistanceMeters>
          </Trackpoint>
          <Trackpoint>
            <Time>2020-02-09T12:14:12.000Z</Time>
            <Position>
              <LatitudeDegrees>38.9414653368294239044189453125</LatitudeDegrees>
              <LongitudeDegrees>-2.8567700274288654327392578125</LongitudeDegrees>
            </Position>
            <AltitudeMeters>821</AltitudeMeters>
            <DistanceMeters>35062.027161488</DistanceMeters>
          </Trackpoint>
          <Trackpoint>
            <Time>2020-02-09T12:14:16.000Z</Time>
            <Position>
              <LatitudeDegrees>38.9412961900234222412109375</LatitudeDegrees>
              <LongitudeDegrees>-2.85665611736476421356201171875</LongitudeDegrees>
            </Position>
            <AltitudeMeters>821.5999755859375</AltitudeMeters>
            <DistanceMeters>35083.280030088</DistanceMeters>
          </Trackpoint>
          <Trackpoint>
            <Time>2020-02-09T12:14:18.000Z</Time>
            <Position>
              <LatitudeDegrees>38.9412318170070648193359375</LatitudeDegrees>
              <LongitudeDegrees>-2.85657816566526889801025390625</LongitudeDegrees>
            </Position>
            <AltitudeMeters>821.5999755859375</AltitudeMeters>
            <DistanceMeters>35093.122522663</DistanceMeters>
          </Trackpoint>
          <Trackpoint>
            <Time>2020-02-09T12:14:20.000Z</Time>
            <Position>
              <LatitudeDegrees>38.94116752780973911285400390625</LatitudeDegrees>
              <LongitudeDegrees>-2.856494598090648651123046875</LongitudeDegrees>
            </Position>
            <AltitudeMeters>821</AltitudeMeters>
            <DistanceMeters>35103.297927152</DistanceMeters>
          </Trackpoint>
          <Trackpoint>
            <Time>2020-02-09T12:14:22.000Z</Time>
            <Position>
              <LatitudeDegrees>38.94109058193862438201904296875</LatitudeDegrees>
              <LongitudeDegrees>-2.85643483512103557586669921875</LongitudeDegrees>
            </Position>
            <AltitudeMeters>820.79998779296875</AltitudeMeters>
            <DistanceMeters>35113.303748334</DistanceMeters>
          </Trackpoint>
          <Trackpoint>
            <Time>2020-02-09T12:14:28.000Z</Time>
            <Position>
              <LatitudeDegrees>38.94085228443145751953125</LatitudeDegrees>
              <LongitudeDegrees>-2.85622595809400081634521484375</LongitudeDegrees>
            </Position>
            <AltitudeMeters>823.4000244140625</AltitudeMeters>
            <DistanceMeters>35145.404216916</DistanceMeters>
          </Trackpoint>
          <Trackpoint>
            <Time>2020-02-09T12:14:30.000Z</Time>
            <Position>
              <LatitudeDegrees>38.94078916870057582855224609375</LatitudeDegrees>
              <LongitudeDegrees>-2.856121100485324859619140625</LongitudeDegrees>
            </Position>
            <AltitudeMeters>823</AltitudeMeters>
            <DistanceMeters>35156.882405593</DistanceMeters>
          </Trackpoint>
          <Trackpoint>
            <Time>2020-02-09T12:14:37.000Z</Time>
            <Position>
              <LatitudeDegrees>38.94057593308389186859130859375</LatitudeDegrees>
              <LongitudeDegrees>-2.85573117434978485107421875</LongitudeDegrees>
            </Position>
            <AltitudeMeters>820.20001220703125</AltitudeMeters>
            <DistanceMeters>35198.14698356</DistanceMeters>
          </Trackpoint>
          <Trackpoint>
            <Time>2020-02-09T12:14:39.000Z</Time>
            <Position>
              <LatitudeDegrees>38.94049613736569881439208984375</LatitudeDegrees>
              <LongitudeDegrees>-2.85564802587032318115234375</LongitudeDegrees>
            </Position>
            <AltitudeMeters>820.79998779296875</AltitudeMeters>
            <DistanceMeters>35209.579451642</DistanceMeters>
          </Trackpoint>
          <Trackpoint>
            <Time>2020-02-09T12:14:49.000Z</Time>
            <Position>
              <LatitudeDegrees>38.93998383544385433197021484375</LatitudeDegrees>
              <LongitudeDegrees>-2.855417691171169281005859375</LongitudeDegrees>
            </Position>
            <AltitudeMeters>822.20001220703125</AltitudeMeters>
            <DistanceMeters>35269.985804536</DistanceMeters>
          </Trackpoint>
          <Trackpoint>
            <Time>2020-02-09T12:14:51.000Z</Time>
            <Position>
              <LatitudeDegrees>38.9398794807493686676025390625</LatitudeDegrees>
              <LongitudeDegrees>-2.85541995428502559661865234375</LongitudeDegrees>
            </Position>
            <AltitudeMeters>824.4000244140625</AltitudeMeters>
            <DistanceMeters>35281.602407412</DistanceMeters>
          </Trackpoint>
          <Trackpoint>
            <Time>2020-02-09T12:14:55.000Z</Time>
            <Position>
              <LatitudeDegrees>38.93969633616507053375244140625</LatitudeDegrees>
              <LongitudeDegrees>-2.85541039891541004180908203125</LongitudeDegrees>
            </Position>
            <AltitudeMeters>827.5999755859375</AltitudeMeters>
            <DistanceMeters>35302.003295219</DistanceMeters>
          </Trackpoint>
          <Trackpoint>
            <Time>2020-02-09T12:15:03.000Z</Time>
            <Position>
              <LatitudeDegrees>38.93936432898044586181640625</LatitudeDegrees>
              <LongitudeDegrees>-2.85518475808203220367431640625</LongitudeDegrees>
            </Position>
            <AltitudeMeters>830.20001220703125</AltitudeMeters>
            <DistanceMeters>35343.801657269</DistanceMeters>
          </Trackpoint>
          <Trackpoint>
            <Time>2020-02-09T12:15:05.000Z</Time>
            <Position>
              <LatitudeDegrees>38.93930892460048198699951171875</LatitudeDegrees>
              <LongitudeDegrees>-2.85509071312844753265380859375</LongitudeDegrees>
            </Position>
            <AltitudeMeters>830.5999755859375</AltitudeMeters>
            <DistanceMeters>35354.01470838</DistanceMeters>
          </Trackpoint>
          <Trackpoint>
            <Time>2020-02-09T12:15:08.000Z</Time>
            <Position>
              <LatitudeDegrees>38.93924094736576080322265625</LatitudeDegrees>
              <LongitudeDegrees>-2.8548954986035823822021484375</LongitudeDegrees>
            </Position>
            <AltitudeMeters>829.79998779296875</AltitudeMeters>
            <DistanceMeters>35372.531023954</DistanceMeters>
          </Trackpoint>
          <Trackpoint>
            <Time>2020-02-09T12:15:19.000Z</Time>
            <Position>
              <LatitudeDegrees>38.93891380168497562408447265625</LatitudeDegrees>
              <LongitudeDegrees>-2.85432703793048858642578125</LongitudeDegrees>
            </Position>
            <AltitudeMeters>827.79998779296875</AltitudeMeters>
            <DistanceMeters>35433.749915046</DistanceMeters>
          </Trackpoint>
          <Trackpoint>
            <Time>2020-02-09T12:15:20.000Z</Time>
            <Position>
              <LatitudeDegrees>38.93887826241552829742431640625</LatitudeDegrees>
              <LongitudeDegrees>-2.8542779199779033660888671875</LongitudeDegrees>
            </Position>
            <AltitudeMeters>827.20001220703125</AltitudeMeters>
            <DistanceMeters>35439.558216484</DistanceMeters>
          </Trackpoint>
          <Trackpoint>
            <Time>2020-02-09T12:15:31.000Z</Time>
            <Position>
              <LatitudeDegrees>38.9385273121297359466552734375</LatitudeDegrees>
              <LongitudeDegrees>-2.85374105907976627349853515625</LongitudeDegrees>
            </Position>
            <AltitudeMeters>824.20001220703125</AltitudeMeters>
            <DistanceMeters>35500.270248104</DistanceMeters>
          </Trackpoint>
          <Trackpoint>
            <Time>2020-02-09T12:15:42.000Z</Time>
            <Position>
              <LatitudeDegrees>38.93811483867466449737548828125</LatitudeDegrees>
              <LongitudeDegrees>-2.85338482819497585296630859375</LongitudeDegrees>
            </Position>
            <AltitudeMeters>819.4000244140625</AltitudeMeters>
            <DistanceMeters>35555.576285693</DistanceMeters>
          </Trackpoint>
          <Trackpoint>
            <Time>2020-02-09T12:15:56.000Z</Time>
            <Position>
              <LatitudeDegrees>38.93773949705064296722412109375</LatitudeDegrees>
              <LongitudeDegrees>-2.853116355836391448974609375</LongitudeDegrees>
            </Position>
            <AltitudeMeters>824</AltitudeMeters>
            <DistanceMeters>35603.382940331</DistanceMeters>
          </Trackpoint>
          <Trackpoint>
            <Time>2020-02-09T12:16:07.000Z</Time>
            <Position>
              <LatitudeDegrees>38.9380254037678241729736328125</LatitudeDegrees>
              <LongitudeDegrees>-2.8528630547225475311279296875</LongitudeDegrees>
            </Position>
            <AltitudeMeters>824.4000244140625</AltitudeMeters>
            <DistanceMeters>35642.029032804</DistanceMeters>
          </Trackpoint>
          <Trackpoint>
            <Time>2020-02-09T12:16:19.000Z</Time>
            <Position>
              <LatitudeDegrees>38.9385638572275638580322265625</LatitudeDegrees>
              <LongitudeDegrees>-2.85263615660369396209716796875</LongitudeDegrees>
            </Position>
            <AltitudeMeters>823.4000244140625</AltitudeMeters>
            <DistanceMeters>35705.097139896</DistanceMeters>
          </Trackpoint>
          <Trackpoint>
            <Time>2020-02-09T12:16:20.000Z</Time>
            <Position>
              <LatitudeDegrees>38.93865111283957958221435546875</LatitudeDegrees>
              <LongitudeDegrees>-2.8525941632688045501708984375</LongitudeDegrees>
            </Position>
            <AltitudeMeters>822.4000244140625</AltitudeMeters>
            <DistanceMeters>35715.467685226</DistanceMeters>
          </Trackpoint>
          <Trackpoint>
            <Time>2020-02-09T12:16:37.000Z</Time>
            <Position>
              <LatitudeDegrees>38.93916760571300983428955078125</LatitudeDegrees>
              <LongitudeDegrees>-2.852317057549953460693359375</LongitudeDegrees>
            </Position>
            <AltitudeMeters>820</AltitudeMeters>
            <DistanceMeters>35777.759128042</DistanceMeters>
          </Trackpoint>
          <Trackpoint>
            <Time>2020-02-09T12:16:55.000Z</Time>
            <Position>
              <LatitudeDegrees>38.9393477328121662139892578125</LatitudeDegrees>
              <LongitudeDegrees>-2.851662598550319671630859375</LongitudeDegrees>
            </Position>
            <AltitudeMeters>830.20001220703125</AltitudeMeters>
            <DistanceMeters>35837.859599736</DistanceMeters>
          </Trackpoint>
          <Trackpoint>
            <Time>2020-02-09T12:17:12.000Z</Time>
            <Position>
              <LatitudeDegrees>38.93936290405690670013427734375</LatitudeDegrees>
              <LongitudeDegrees>-2.85097427666187286376953125</LongitudeDegrees>
            </Position>
            <AltitudeMeters>829.79998779296875</AltitudeMeters>
            <DistanceMeters>35897.472941064</DistanceMeters>
          </Trackpoint>
          <Trackpoint>
            <Time>2020-02-09T12:17:31.000Z</Time>
            <Position>
              <LatitudeDegrees>38.9393001236021518707275390625</LatitudeDegrees>
              <LongitudeDegrees>-2.8506596200168132781982421875</LongitudeDegrees>
            </Position>
            <AltitudeMeters>830.20001220703125</AltitudeMeters>
            <DistanceMeters>35925.595390372</DistanceMeters>
          </Trackpoint>
          <Trackpoint>
            <Time>2020-02-09T12:17:34.000Z</Time>
            <Position>
              <LatitudeDegrees>38.93929048441350460052490234375</LatitudeDegrees>
              <LongitudeDegrees>-2.8506026230752468109130859375</LongitudeDegrees>
            </Position>
            <AltitudeMeters>830</AltitudeMeters>
            <DistanceMeters>35930.645235506</DistanceMeters>
          </Trackpoint>
          <Trackpoint>
            <Time>2020-02-09T12:17:50.000Z</Time>
            <Position>
              <LatitudeDegrees>38.939261734485626220703125</LatitudeDegrees>
              <LongitudeDegrees>-2.8504859469830989837646484375</LongitudeDegrees>
            </Position>
            <AltitudeMeters>830</AltitudeMeters>
            <DistanceMeters>35941.241459858</DistanceMeters>
          </Trackpoint>
          <Trackpoint>
            <Time>2020-02-09T12:18:44.000Z</Time>
            <Position>
              <LatitudeDegrees>38.939251005649566650390625</LatitudeDegrees>
              <LongitudeDegrees>-2.85028788261115550994873046875</LongitudeDegrees>
            </Position>
            <AltitudeMeters>828.79998779296875</AltitudeMeters>
            <DistanceMeters>35958.430003749</DistanceMeters>
          </Trackpoint>
          <Trackpoint>
            <Time>2020-02-09T12:18:49.000Z</Time>
            <Position>
              <LatitudeDegrees>38.93921680748462677001953125</LatitudeDegrees>
              <LongitudeDegrees>-2.85023490898311138153076171875</LongitudeDegrees>
            </Position>
            <AltitudeMeters>829.20001220703125</AltitudeMeters>
            <DistanceMeters>35964.390231994</DistanceMeters>
          </Trackpoint>
          <Trackpoint>
            <Time>2020-02-09T12:18:51.000Z</Time>
            <Position>
              <LatitudeDegrees>38.93919694237411022186279296875</LatitudeDegrees>
              <LongitudeDegrees>-2.85021311603486537933349609375</LongitudeDegrees>
            </Position>
            <AltitudeMeters>829</AltitudeMeters>
            <DistanceMeters>35967.297490419</DistanceMeters>
          </Trackpoint>
          <Trackpoint>
            <Time>2020-02-09T12:19:07.000Z</Time>
            <Position>
              <LatitudeDegrees>38.93899016082286834716796875</LatitudeDegrees>
              <LongitudeDegrees>-2.8498966991901397705078125</LongitudeDegrees>
            </Position>
            <AltitudeMeters>826.4000244140625</AltitudeMeters>
            <DistanceMeters>36003.075647812</DistanceMeters>
          </Trackpoint>
          <Trackpoint>
            <Time>2020-02-09T12:20:27.000Z</Time>
            <Position>
              <LatitudeDegrees>38.93865010701119899749755859375</LatitudeDegrees>
              <LongitudeDegrees>-2.84984883852303028106689453125</LongitudeDegrees>
            </Position>
            <AltitudeMeters>830.20001220703125</AltitudeMeters>
            <DistanceMeters>36041.150422563</DistanceMeters>
          </Trackpoint>
          <Trackpoint>
            <Time>2020-02-09T12:20:29.000Z</Time>
            <Position>
              <LatitudeDegrees>38.9386252127587795257568359375</LatitudeDegrees>
              <LongitudeDegrees>-2.849854119122028350830078125</LongitudeDegrees>
            </Position>
            <AltitudeMeters>830.5999755859375</AltitudeMeters>
            <DistanceMeters>36043.958136355</DistanceMeters>
          </Trackpoint>
          <Trackpoint>
            <Time>2020-02-09T12:20:31.000Z</Time>
            <Position>
              <LatitudeDegrees>38.938593529164791107177734375</LatitudeDegrees>
              <LongitudeDegrees>-2.8498539514839649200439453125</LongitudeDegrees>
            </Position>
            <AltitudeMeters>831</AltitudeMeters>
            <DistanceMeters>36047.48438298</DistanceMeters>
          </Trackpoint>
          <Trackpoint>
            <Time>2020-02-09T12:20:55.000Z</Time>
            <Position>
              <LatitudeDegrees>38.93816881813108921051025390625</LatitudeDegrees>
              <LongitudeDegrees>-2.84994891844689846038818359375</LongitudeDegrees>
            </Position>
            <AltitudeMeters>829.20001220703125</AltitudeMeters>
            <DistanceMeters>36095.465252177</DistanceMeters>
          </Trackpoint>
          <Trackpoint>
            <Time>2020-02-09T12:21:18.000Z</Time>
            <Position>
              <LatitudeDegrees>38.93763857893645763397216796875</LatitudeDegrees>
              <LongitudeDegrees>-2.850202806293964385986328125</LongitudeDegrees>
            </Position>
            <AltitudeMeters>830.5999755859375</AltitudeMeters>
            <DistanceMeters>36158.442159413</DistanceMeters>
          </Trackpoint>
          <Trackpoint>
            <Time>2020-02-09T12:21:38.000Z</Time>
            <Position>
              <LatitudeDegrees>38.93710364587604999542236328125</LatitudeDegrees>
              <LongitudeDegrees>-2.85032744519412517547607421875</LongitudeDegrees>
            </Position>
            <AltitudeMeters>834.5999755859375</AltitudeMeters>
            <DistanceMeters>36218.951123996</DistanceMeters>
          </Trackpoint>
          <Trackpoint>
            <Time>2020-02-09T12:21:42.000Z</Time>
            <Position>
              <LatitudeDegrees>38.9369179867208003997802734375</LatitudeDegrees>
              <LongitudeDegrees>-2.85019643604755401611328125</LongitudeDegrees>
            </Position>
            <AltitudeMeters>832.20001220703125</AltitudeMeters>
            <DistanceMeters>36242.523304503</DistanceMeters>
          </Trackpoint>
          <Trackpoint>
            <Time>2020-02-09T12:21:44.000Z</Time>
            <Position>
              <LatitudeDegrees>38.9368304796516895294189453125</LatitudeDegrees>
              <LongitudeDegrees>-2.85014706663787364959716796875</LongitudeDegrees>
            </Position>
            <AltitudeMeters>833</AltitudeMeters>
            <DistanceMeters>36253.159506724</DistanceMeters>
          </Trackpoint>
          <Trackpoint>
            <Time>2020-02-09T12:22:02.000Z</Time>
            <Position>
              <LatitudeDegrees>38.936319015920162200927734375</LatitudeDegrees>
              <LongitudeDegrees>-2.84991187043488025665283203125</LongitudeDegrees>
            </Position>
            <AltitudeMeters>840</AltitudeMeters>
            <DistanceMeters>36313.618531475</DistanceMeters>
          </Trackpoint>
          <Trackpoint>
            <Time>2020-02-09T12:22:23.000Z</Time>
            <Position>
              <LatitudeDegrees>38.93585004843771457672119140625</LatitudeDegrees>
              <LongitudeDegrees>-2.8495173342525959014892578125</LongitudeDegrees>
            </Position>
            <AltitudeMeters>841</AltitudeMeters>
            <DistanceMeters>36375.998484997</DistanceMeters>
          </Trackpoint>
          <Trackpoint>
            <Time>2020-02-09T12:22:45.000Z</Time>
            <Position>
              <LatitudeDegrees>38.93549834378063678741455078125</LatitudeDegrees>
              <LongitudeDegrees>-2.84894828684628009796142578125</LongitudeDegrees>
            </Position>
            <AltitudeMeters>842.5999755859375</AltitudeMeters>
            <DistanceMeters>36438.923105927</DistanceMeters>
          </Trackpoint>
          <Trackpoint>
            <Time>2020-02-09T12:23:00.000Z</Time>
            <Position>
              <LatitudeDegrees>38.935260213911533355712890625</LatitudeDegrees>
              <LongitudeDegrees>-2.8484256751835346221923828125</LongitudeDegrees>
            </Position>
            <AltitudeMeters>838.20001220703125</AltitudeMeters>
            <DistanceMeters>36491.360634449</DistanceMeters>
          </Trackpoint>
          <Trackpoint>
            <Time>2020-02-09T12:23:07.000Z</Time>
            <Position>
              <LatitudeDegrees>38.9351473934948444366455078125</LatitudeDegrees>
              <LongitudeDegrees>-2.84818586893379688262939453125</LongitudeDegrees>
            </Position>
            <AltitudeMeters>840.20001220703125</AltitudeMeters>
            <DistanceMeters>36515.624473674</DistanceMeters>
          </Trackpoint>
          <Trackpoint>
            <Time>2020-02-09T12:23:26.000Z</Time>
            <Position>
              <LatitudeDegrees>38.9351028017699718475341796875</LatitudeDegrees>
              <LongitudeDegrees>-2.84748916514217853546142578125</LongitudeDegrees>
            </Position>
            <AltitudeMeters>836.79998779296875</AltitudeMeters>
            <DistanceMeters>36576.14694255</DistanceMeters>
          </Trackpoint>
          <Trackpoint>
            <Time>2020-02-09T12:23:57.000Z</Time>
            <Position>
              <LatitudeDegrees>38.93475302495062351226806640625</LatitudeDegrees>
              <LongitudeDegrees>-2.847001254558563232421875</LongitudeDegrees>
            </Position>
            <AltitudeMeters>840.4000244140625</AltitudeMeters>
            <DistanceMeters>36633.592615286</DistanceMeters>
          </Trackpoint>
          <Trackpoint>
            <Time>2020-02-09T12:24:02.000Z</Time>
            <Position>
              <LatitudeDegrees>38.93468747846782207489013671875</LatitudeDegrees>
              <LongitudeDegrees>-2.84693746827542781829833984375</LongitudeDegrees>
            </Position>
            <AltitudeMeters>839.79998779296875</AltitudeMeters>
            <DistanceMeters>36642.742854015</DistanceMeters>
          </Trackpoint>
          <Trackpoint>
            <Time>2020-02-09T12:24:08.000Z</Time>
            <Position>
              <LatitudeDegrees>38.9345978759229183197021484375</LatitudeDegrees>
              <LongitudeDegrees>-2.84671149216592311859130859375</LongitudeDegrees>
            </Position>
            <AltitudeMeters>837.20001220703125</AltitudeMeters>
            <DistanceMeters>36664.702456522</DistanceMeters>
          </Trackpoint>
          <Trackpoint>
            <Time>2020-02-09T12:24:11.000Z</Time>
            <Position>
              <LatitudeDegrees>38.9345791004598140716552734375</LatitudeDegrees>
              <LongitudeDegrees>-2.84652155824005603790283203125</LongitudeDegrees>
            </Position>
            <AltitudeMeters>838.4000244140625</AltitudeMeters>
            <DistanceMeters>36681.278831159</DistanceMeters>
          </Trackpoint>
          <Trackpoint>
            <Time>2020-02-09T12:24:13.000Z</Time>
            <Position>
              <LatitudeDegrees>38.934634588658809661865234375</LatitudeDegrees>
              <LongitudeDegrees>-2.84639046527445316314697265625</LongitudeDegrees>
            </Position>
            <AltitudeMeters>839.20001220703125</AltitudeMeters>
            <DistanceMeters>36694.200018541</DistanceMeters>
          </Trackpoint>
          <Trackpoint>
            <Time>2020-02-09T12:24:23.000Z</Time>
            <Position>
              <LatitudeDegrees>38.93498369492590427398681640625</LatitudeDegrees>
              <LongitudeDegrees>-2.84585620276629924774169921875</LongitudeDegrees>
            </Position>
            <AltitudeMeters>839.4000244140625</AltitudeMeters>
            <DistanceMeters>36754.609884321</DistanceMeters>
          </Trackpoint>
          <Trackpoint>
            <Time>2020-02-09T12:24:44.000Z</Time>
            <Position>
              <LatitudeDegrees>38.93529005348682403564453125</LatitudeDegrees>
              <LongitudeDegrees>-2.84538916312158107757568359375</LongitudeDegrees>
            </Position>
            <AltitudeMeters>836.4000244140625</AltitudeMeters>
            <DistanceMeters>36807.502986175</DistanceMeters>
          </Trackpoint>
          <Trackpoint>
            <Time>2020-02-09T12:31:37.000Z</Time>
            <Position>
              <LatitudeDegrees>38.9353458769619464874267578125</LatitudeDegrees>
              <LongitudeDegrees>-2.84543844871222972869873046875</LongitudeDegrees>
            </Position>
            <AltitudeMeters>835.4000244140625</AltitudeMeters>
            <DistanceMeters>36815.039509301</DistanceMeters>
          </Trackpoint>
          <Trackpoint>
            <Time>2020-02-09T12:31:57.000Z</Time>
            <Position>
              <LatitudeDegrees>38.9353696815669536590576171875</LatitudeDegrees>
              <LongitudeDegrees>-2.84617488272488117218017578125</LongitudeDegrees>
            </Position>
            <AltitudeMeters>832.5999755859375</AltitudeMeters>
            <DistanceMeters>36878.852689778</DistanceMeters>
          </Trackpoint>
          <Trackpoint>
            <Time>2020-02-09T12:32:01.000Z</Time>
            <Position>
              <LatitudeDegrees>38.93540044315159320831298828125</LatitudeDegrees>
              <LongitudeDegrees>-2.84637085162103176116943359375</LongitudeDegrees>
            </Position>
            <AltitudeMeters>831.5999755859375</AltitudeMeters>
            <DistanceMeters>36896.161121714</DistanceMeters>
          </Trackpoint>
          <Trackpoint>
            <Time>2020-02-09T12:32:04.000Z</Time>
            <Position>
              <LatitudeDegrees>38.9354883693158626556396484375</LatitudeDegrees>
              <LongitudeDegrees>-2.8464897908270359039306640625</LongitudeDegrees>
            </Position>
            <AltitudeMeters>831</AltitudeMeters>
            <DistanceMeters>36910.366900411</DistanceMeters>
          </Trackpoint>
          <Trackpoint>
            <Time>2020-02-09T12:32:06.000Z</Time>
            <Position>
              <LatitudeDegrees>38.93557663075625896453857421875</LatitudeDegrees>
              <LongitudeDegrees>-2.846528850495815277099609375</LongitudeDegrees>
            </Position>
            <AltitudeMeters>830.5999755859375</AltitudeMeters>
            <DistanceMeters>36920.755715245</DistanceMeters>
          </Trackpoint>
          <Trackpoint>
            <Time>2020-02-09T12:32:19.000Z</Time>
            <Position>
              <LatitudeDegrees>38.93614836037158966064453125</LatitudeDegrees>
              <LongitudeDegrees>-2.84663354046642780303955078125</LongitudeDegrees>
            </Position>
            <AltitudeMeters>829</AltitudeMeters>
            <DistanceMeters>36985.032630583</DistanceMeters>
          </Trackpoint>
          <Trackpoint>
            <Time>2020-02-09T12:32:25.000Z</Time>
            <Position>
              <LatitudeDegrees>38.936500735580921173095703125</LatitudeDegrees>
              <LongitudeDegrees>-2.84672758542001247406005859375</LongitudeDegrees>
            </Position>
            <AltitudeMeters>828</AltitudeMeters>
            <DistanceMeters>37025.088842372</DistanceMeters>
          </Trackpoint>
          <Trackpoint>
            <Time>2020-02-09T12:32:33.000Z</Time>
            <Position>
              <LatitudeDegrees>38.93695612438023090362548828125</LatitudeDegrees>
              <LongitudeDegrees>-2.84711667336523532867431640625</LongitudeDegrees>
            </Position>
            <AltitudeMeters>827.79998779296875</AltitudeMeters>
            <DistanceMeters>37085.947202799</DistanceMeters>
          </Trackpoint>
          <Trackpoint>
            <Time>2020-02-09T12:32:42.000Z</Time>
            <Position>
              <LatitudeDegrees>38.937412016093730926513671875</LatitudeDegrees>
              <LongitudeDegrees>-2.8475925140082836151123046875</LongitudeDegrees>
            </Position>
            <AltitudeMeters>825.20001220703125</AltitudeMeters>
            <DistanceMeters>37151.306173514</DistanceMeters>
          </Trackpoint>
          <Trackpoint>
            <Time>2020-02-09T12:32:43.000Z</Time>
            <Position>
              <LatitudeDegrees>38.937462307512760162353515625</LatitudeDegrees>
              <LongitudeDegrees>-2.8476374410092830657958984375</LongitudeDegrees>
            </Position>
            <AltitudeMeters>825</AltitudeMeters>
            <DistanceMeters>37158.122311959</DistanceMeters>
          </Trackpoint>
          <Trackpoint>
            <Time>2020-02-09T12:32:45.000Z</Time>
            <Position>
              <LatitudeDegrees>38.9375734515488147735595703125</LatitudeDegrees>
              <LongitudeDegrees>-2.84769820980727672576904296875</LongitudeDegrees>
            </Position>
            <AltitudeMeters>824.4000244140625</AltitudeMeters>
            <DistanceMeters>37171.565149822</DistanceMeters>
          </Trackpoint>
          <Trackpoint>
            <Time>2020-02-09T12:32:47.000Z</Time>
            <Position>
              <LatitudeDegrees>38.9376975037157535552978515625</LatitudeDegrees>
              <LongitudeDegrees>-2.847703658044338226318359375</LongitudeDegrees>
            </Position>
            <AltitudeMeters>823.79998779296875</AltitudeMeters>
            <DistanceMeters>37185.380347819</DistanceMeters>
          </Trackpoint>
          <Trackpoint>
            <Time>2020-02-09T12:32:57.000Z</Time>
            <Position>
              <LatitudeDegrees>38.93824811093509197235107421875</LatitudeDegrees>
              <LongitudeDegrees>-2.84748799167573451995849609375</LongitudeDegrees>
            </Position>
            <AltitudeMeters>824.79998779296875</AltitudeMeters>
            <DistanceMeters>37249.445128822</DistanceMeters>
          </Trackpoint>
          <Trackpoint>
            <Time>2020-02-09T12:33:08.000Z</Time>
            <Position>
              <LatitudeDegrees>38.938743062317371368408203125</LatitudeDegrees>
              <LongitudeDegrees>-2.8471308387815952301025390625</LongitudeDegrees>
            </Position>
            <AltitudeMeters>828.79998779296875</AltitudeMeters>
            <DistanceMeters>37312.618170971</DistanceMeters>
          </Trackpoint>
          <Trackpoint>
            <Time>2020-02-09T12:33:11.000Z</Time>
            <Position>
              <LatitudeDegrees>38.938859067857265472412109375</LatitudeDegrees>
              <LongitudeDegrees>-2.8470540605485439300537109375</LongitudeDegrees>
            </Position>
            <AltitudeMeters>828.4000244140625</AltitudeMeters>
            <DistanceMeters>37327.14016826</DistanceMeters>
          </Trackpoint>
          <Trackpoint>
            <Time>2020-02-09T12:33:14.000Z</Time>
            <Position>
              <LatitudeDegrees>38.93897943198680877685546875</LatitudeDegrees>
              <LongitudeDegrees>-2.84703469835221767425537109375</LongitudeDegrees>
            </Position>
            <AltitudeMeters>826.79998779296875</AltitudeMeters>
            <DistanceMeters>37340.641320918</DistanceMeters>
          </Trackpoint>
          <Trackpoint>
            <Time>2020-02-09T12:33:16.000Z</Time>
            <Position>
              <LatitudeDegrees>38.93906199373304843902587890625</LatitudeDegrees>
              <LongitudeDegrees>-2.84704861231148242950439453125</LongitudeDegrees>
            </Position>
            <AltitudeMeters>825.20001220703125</AltitudeMeters>
            <DistanceMeters>37349.909227216</DistanceMeters>
          </Trackpoint>
          <Trackpoint>
            <Time>2020-02-09T12:33:24.000Z</Time>
            <Position>
              <LatitudeDegrees>38.93931948579847812652587890625</LatitudeDegrees>
              <LongitudeDegrees>-2.84715690650045871734619140625</LongitudeDegrees>
            </Position>
            <AltitudeMeters>822.79998779296875</AltitudeMeters>
            <DistanceMeters>37380.063256588</DistanceMeters>
          </Trackpoint>
          <Trackpoint>
            <Time>2020-02-09T12:33:27.000Z</Time>
            <Position>
              <LatitudeDegrees>38.93932987935841083526611328125</LatitudeDegrees>
              <LongitudeDegrees>-2.847146093845367431640625</LongitudeDegrees>
            </Position>
            <AltitudeMeters>822.79998779296875</AltitudeMeters>
            <DistanceMeters>37381.550659939</DistanceMeters>
          </Trackpoint>
          <Trackpoint>
            <Time>2020-02-09T12:44:03.000Z</Time>
            <Position>
              <LatitudeDegrees>38.93916375003755092620849609375</LatitudeDegrees>
              <LongitudeDegrees>-2.8470741771161556243896484375</LongitudeDegrees>
            </Position>
            <AltitudeMeters>824.20001220703125</AltitudeMeters>
            <DistanceMeters>37401.061474954</DistanceMeters>
          </Trackpoint>
          <Trackpoint>
            <Time>2020-02-09T12:44:18.000Z</Time>
            <Position>
              <LatitudeDegrees>38.9387807808816432952880859375</LatitudeDegrees>
              <LongitudeDegrees>-2.84709823317825794219970703125</LongitudeDegrees>
            </Position>
            <AltitudeMeters>828.79998779296875</AltitudeMeters>
            <DistanceMeters>37443.737463492</DistanceMeters>
          </Trackpoint>
          <Trackpoint>
            <Time>2020-02-09T12:44:20.000Z</Time>
            <Position>
              <LatitudeDegrees>38.9387103728950023651123046875</LatitudeDegrees>
              <LongitudeDegrees>-2.84715883433818817138671875</LongitudeDegrees>
            </Position>
            <AltitudeMeters>828.79998779296875</AltitudeMeters>
            <DistanceMeters>37453.167638083</DistanceMeters>
          </Trackpoint>
          <Trackpoint>
            <Time>2020-02-09T12:44:31.000Z</Time>
            <Position>
              <LatitudeDegrees>38.9382228814065456390380859375</LatitudeDegrees>
              <LongitudeDegrees>-2.84751347266137599945068359375</LongitudeDegrees>
            </Position>
            <AltitudeMeters>824.4000244140625</AltitudeMeters>
            <DistanceMeters>37515.510522218</DistanceMeters>
          </Trackpoint>
          <Trackpoint>
            <Time>2020-02-09T12:44:41.000Z</Time>
            <Position>
              <LatitudeDegrees>38.937655426561832427978515625</LatitudeDegrees>
              <LongitudeDegrees>-2.84773224033415317535400390625</LongitudeDegrees>
            </Position>
            <AltitudeMeters>824</AltitudeMeters>
            <DistanceMeters>37581.447970044</DistanceMeters>
          </Trackpoint>
          <Trackpoint>
            <Time>2020-02-09T12:44:42.000Z</Time>
            <Position>
              <LatitudeDegrees>38.9375999383628368377685546875</LatitudeDegrees>
              <LongitudeDegrees>-2.8477353416383266448974609375</LongitudeDegrees>
            </Position>
            <AltitudeMeters>824.20001220703125</AltitudeMeters>
            <DistanceMeters>37587.629821184</DistanceMeters>
          </Trackpoint>
          <Trackpoint>
            <Time>2020-02-09T12:44:44.000Z</Time>
            <Position>
              <LatitudeDegrees>38.937489800155162811279296875</LatitudeDegrees>
              <LongitudeDegrees>-2.84770860336720943450927734375</LongitudeDegrees>
            </Position>
            <AltitudeMeters>824.79998779296875</AltitudeMeters>
            <DistanceMeters>37600.105131501</DistanceMeters>
          </Trackpoint>
          <Trackpoint>
            <Time>2020-02-09T12:44:46.000Z</Time>
            <Position>
              <LatitudeDegrees>38.9373880438506603240966796875</LatitudeDegrees>
              <LongitudeDegrees>-2.847639955580234527587890625</LongitudeDegrees>
            </Position>
            <AltitudeMeters>825.20001220703125</AltitudeMeters>
            <DistanceMeters>37612.895317773</DistanceMeters>
          </Trackpoint>
          <Trackpoint>
            <Time>2020-02-09T12:44:57.000Z</Time>
            <Position>
              <LatitudeDegrees>38.936933912336826324462890625</LatitudeDegrees>
              <LongitudeDegrees>-2.847205102443695068359375</LongitudeDegrees>
            </Position>
            <AltitudeMeters>827.4000244140625</AltitudeMeters>
            <DistanceMeters>37675.920599577</DistanceMeters>
          </Trackpoint>
          <Trackpoint>
            <Time>2020-02-09T12:45:08.000Z</Time>
            <Position>
              <LatitudeDegrees>38.93657617270946502685546875</LatitudeDegrees>
              <LongitudeDegrees>-2.84684442915022373199462890625</LongitudeDegrees>
            </Position>
            <AltitudeMeters>827.79998779296875</AltitudeMeters>
            <DistanceMeters>37726.521231937</DistanceMeters>
          </Trackpoint>
          <Trackpoint>
            <Time>2020-02-09T12:45:21.000Z</Time>
            <Position>
              <LatitudeDegrees>38.93604509532451629638671875</LatitudeDegrees>
              <LongitudeDegrees>-2.84664913080632686614990234375</LongitudeDegrees>
            </Position>
            <AltitudeMeters>829.20001220703125</AltitudeMeters>
            <DistanceMeters>37788.001827074</DistanceMeters>
          </Trackpoint>
          <Trackpoint>
            <Time>2020-02-09T12:45:23.000Z</Time>
            <Position>
              <LatitudeDegrees>38.935963623225688934326171875</LatitudeDegrees>
              <LongitudeDegrees>-2.8466155193746089935302734375</LongitudeDegrees>
            </Position>
            <AltitudeMeters>829.5999755859375</AltitudeMeters>
            <DistanceMeters>37797.525381442</DistanceMeters>
          </Trackpoint>
          <Trackpoint>
            <Time>2020-02-09T12:45:33.000Z</Time>
            <Position>
              <LatitudeDegrees>38.9354940690100193023681640625</LatitudeDegrees>
              <LongitudeDegrees>-2.8465310297906398773193359375</LongitudeDegrees>
            </Position>
            <AltitudeMeters>830.79998779296875</AltitudeMeters>
            <DistanceMeters>37850.297130657</DistanceMeters>
          </Trackpoint>
          <Trackpoint>
            <Time>2020-02-09T12:45:35.000Z</Time>
            <Position>
              <LatitudeDegrees>38.935405723750591278076171875</LatitudeDegrees>
              <LongitudeDegrees>-2.84647545777261257171630859375</LongitudeDegrees>
            </Position>
            <AltitudeMeters>831.20001220703125</AltitudeMeters>
            <DistanceMeters>37861.243779204</DistanceMeters>
          </Trackpoint>
          <Trackpoint>
            <Time>2020-02-09T12:45:37.000Z</Time>
            <Position>
              <LatitudeDegrees>38.9353390038013458251953125</LatitudeDegrees>
              <LongitudeDegrees>-2.84638308919966220855712890625</LongitudeDegrees>
            </Position>
            <AltitudeMeters>831.79998779296875</AltitudeMeters>
            <DistanceMeters>37872.156967474</DistanceMeters>
          </Trackpoint>
          <Trackpoint>
            <Time>2020-02-09T12:45:39.000Z</Time>
            <Position>
              <LatitudeDegrees>38.935301788151264190673828125</LatitudeDegrees>
              <LongitudeDegrees>-2.84625895321369171142578125</LongitudeDegrees>
            </Position>
            <AltitudeMeters>832.4000244140625</AltitudeMeters>
            <DistanceMeters>37883.674424787</DistanceMeters>
          </Trackpoint>
          <Trackpoint>
            <Time>2020-02-09T12:45:48.000Z</Time>
            <Position>
              <LatitudeDegrees>38.9352872036397457122802734375</LatitudeDegrees>
              <LongitudeDegrees>-2.84564564935863018035888671875</LongitudeDegrees>
            </Position>
            <AltitudeMeters>834.79998779296875</AltitudeMeters>
            <DistanceMeters>37936.797162949</DistanceMeters>
          </Trackpoint>
          <Trackpoint>
            <Time>2020-02-09T12:45:50.000Z</Time>
            <Position>
              <LatitudeDegrees>38.935270607471466064453125</LatitudeDegrees>
              <LongitudeDegrees>-2.845517657697200775146484375</LongitudeDegrees>
            </Position>
            <AltitudeMeters>835.79998779296875</AltitudeMeters>
            <DistanceMeters>37948.031233822</DistanceMeters>
          </Trackpoint>
          <Trackpoint>
            <Time>2020-02-09T12:45:54.000Z</Time>
            <Position>
              <LatitudeDegrees>38.9352436177432537078857421875</LatitudeDegrees>
              <LongitudeDegrees>-2.84524885006248950958251953125</LongitudeDegrees>
            </Position>
            <AltitudeMeters>837.79998779296875</AltitudeMeters>
            <DistanceMeters>37971.496868299</DistanceMeters>
          </Trackpoint>
          <Trackpoint>
            <Time>2020-02-09T12:45:59.000Z</Time>
            <Position>
              <LatitudeDegrees>38.9352573640644550323486328125</LatitudeDegrees>
              <LongitudeDegrees>-2.844946682453155517578125</LongitudeDegrees>
            </Position>
            <AltitudeMeters>838</AltitudeMeters>
            <DistanceMeters>37997.702197021</DistanceMeters>
          </Trackpoint>
          <Trackpoint>
            <Time>2020-02-09T12:46:11.000Z</Time>
            <Position>
              <LatitudeDegrees>38.9352761395275592803955078125</LatitudeDegrees>
              <LongitudeDegrees>-2.8443017788231372833251953125</LongitudeDegrees>
            </Position>
            <AltitudeMeters>831.79998779296875</AltitudeMeters>
            <DistanceMeters>38053.575157632</DistanceMeters>
          </Trackpoint>
          <Trackpoint>
            <Time>2020-02-09T12:46:13.000Z</Time>
            <Position>
              <LatitudeDegrees>38.9352758042514324188232421875</LatitudeDegrees>
              <LongitudeDegrees>-2.84418082796037197113037109375</LongitudeDegrees>
            </Position>
            <AltitudeMeters>831</AltitudeMeters>
            <DistanceMeters>38064.047084309</DistanceMeters>
          </Trackpoint>
          <Trackpoint>
            <Time>2020-02-09T12:46:16.000Z</Time>
            <Position>
              <LatitudeDegrees>38.93527974374592304229736328125</LatitudeDegrees>
              <LongitudeDegrees>-2.844000868499279022216796875</LongitudeDegrees>
            </Position>
            <AltitudeMeters>831</AltitudeMeters>
            <DistanceMeters>38079.633493343</DistanceMeters>
          </Trackpoint>
          <Trackpoint>
            <Time>2020-02-09T12:46:20.000Z</Time>
            <Position>
              <LatitudeDegrees>38.93527320586144924163818359375</LatitudeDegrees>
              <LongitudeDegrees>-2.84374731592833995819091796875</LongitudeDegrees>
            </Position>
            <AltitudeMeters>831</AltitudeMeters>
            <DistanceMeters>38101.597207596</DistanceMeters>
          </Trackpoint>
          <Trackpoint>
            <Time>2020-02-09T12:46:35.000Z</Time>
            <Position>
              <LatitudeDegrees>38.935195840895175933837890625</LatitudeDegrees>
              <LongitudeDegrees>-2.8432185016572475433349609375</LongitudeDegrees>
            </Position>
            <AltitudeMeters>831.4000244140625</AltitudeMeters>
            <DistanceMeters>38148.183176001</DistanceMeters>
          </Trackpoint>
          <Trackpoint>
            <Time>2020-02-09T12:46:42.000Z</Time>
            <Position>
              <LatitudeDegrees>38.9352462999522686004638671875</LatitudeDegrees>
              <LongitudeDegrees>-2.84318757243454456329345703125</LongitudeDegrees>
            </Position>
            <AltitudeMeters>831</AltitudeMeters>
            <DistanceMeters>38154.405067813</DistanceMeters>
          </Trackpoint>
          <Trackpoint>
            <Time>2020-02-09T12:46:44.000Z</Time>
            <Position>
              <LatitudeDegrees>38.93525359220802783966064453125</LatitudeDegrees>
              <LongitudeDegrees>-2.8431940264999866485595703125</LongitudeDegrees>
            </Position>
            <AltitudeMeters>831</AltitudeMeters>
            <DistanceMeters>38155.383427717</DistanceMeters>
          </Trackpoint>
          <Trackpoint>
            <Time>2020-02-09T13:46:23.000Z</Time>
            <Position>
              <LatitudeDegrees>38.93519374541938304901123046875</LatitudeDegrees>
              <LongitudeDegrees>-2.8432315774261951446533203125</LongitudeDegrees>
            </Position>
            <AltitudeMeters>831.4000244140625</AltitudeMeters>
            <DistanceMeters>38162.794902268</DistanceMeters>
          </Trackpoint>
          <Trackpoint>
            <Time>2020-02-09T13:46:28.000Z</Time>
            <Position>
              <LatitudeDegrees>38.9351296238601207733154296875</LatitudeDegrees>
              <LongitudeDegrees>-2.84326971508562564849853515625</LongitudeDegrees>
            </Position>
            <AltitudeMeters>832</AltitudeMeters>
            <DistanceMeters>38170.658614081</DistanceMeters>
          </Trackpoint>
          <Trackpoint>
            <Time>2020-01-19T08:21:20.000Z</Time>
            <Position>
              <LatitudeDegrees>38.9376981742680072784423828125</LatitudeDegrees>
              <LongitudeDegrees>-2.8477681986987590789794921875</LongitudeDegrees>
            </Position>
            <AltitudeMeters>823.5999755859375</AltitudeMeters>
            <DistanceMeters>38653.782037365</DistanceMeters>
          </Trackpoint>
          <Trackpoint>
            <Time>2020-01-19T08:21:21.000Z</Time>
            <Position>
              <LatitudeDegrees>38.93769423477351665496826171875</LatitudeDegrees>
              <LongitudeDegrees>-2.8477604873478412628173828125</LongitudeDegrees>
            </Position>
            <AltitudeMeters>823.79998779296875</AltitudeMeters>
            <DistanceMeters>38654.582746692</DistanceMeters>
          </Trackpoint>
          <Trackpoint>
            <Time>2020-01-19T08:24:10.000Z</Time>
            <Position>
              <LatitudeDegrees>38.9375858567655086517333984375</LatitudeDegrees>
              <LongitudeDegrees>-2.847751267254352569580078125</LongitudeDegrees>
            </Position>
            <AltitudeMeters>824.20001220703125</AltitudeMeters>
            <DistanceMeters>38666.672072035</DistanceMeters>
          </Trackpoint>
          <Trackpoint>
            <Time>2020-01-19T08:24:12.000Z</Time>
            <Position>
              <LatitudeDegrees>38.9375566877424716949462890625</LatitudeDegrees>
              <LongitudeDegrees>-2.8477588109672069549560546875</LongitudeDegrees>
            </Position>
            <AltitudeMeters>824.4000244140625</AltitudeMeters>
            <DistanceMeters>38669.984403975</DistanceMeters>
          </Trackpoint>
          <Trackpoint>
            <Time>2020-01-19T08:24:15.000Z</Time>
            <Position>
              <LatitudeDegrees>38.9375412650406360626220703125</LatitudeDegrees>
              <LongitudeDegrees>-2.8477482497692108154296875</LongitudeDegrees>
            </Position>
            <AltitudeMeters>824.4000244140625</AltitudeMeters>
            <DistanceMeters>38671.931872102</DistanceMeters>
          </Trackpoint>
          <Trackpoint>
            <Time>2020-01-19T08:24:19.000Z</Time>
            <Position>
              <LatitudeDegrees>38.93759096972644329071044921875</LatitudeDegrees>
              <LongitudeDegrees>-2.8477442264556884765625</LongitudeDegrees>
            </Position>
            <AltitudeMeters>824.20001220703125</AltitudeMeters>
            <DistanceMeters>38677.474463559</DistanceMeters>
          </Trackpoint>
          <Trackpoint>
            <Time>2020-01-19T08:24:22.000Z</Time>
            <Position>
              <LatitudeDegrees>38.9376334659755229949951171875</LatitudeDegrees>
              <LongitudeDegrees>-2.84778286702930927276611328125</LongitudeDegrees>
            </Position>
            <AltitudeMeters>824</AltitudeMeters>
            <DistanceMeters>38683.267197289</DistanceMeters>
          </Trackpoint>
          <Trackpoint>
            <Time>2020-01-19T08:24:24.000Z</Time>
            <Position>
              <LatitudeDegrees>38.93764276988804340362548828125</LatitudeDegrees>
              <LongitudeDegrees>-2.8477858006954193115234375</LongitudeDegrees>
            </Position>
            <AltitudeMeters>824</AltitudeMeters>
            <DistanceMeters>38684.333869513</DistanceMeters>
          </Trackpoint>
          <Trackpoint>
            <Time>2020-01-19T08:25:08.000Z</Time>
            <Position>
              <LatitudeDegrees>38.93766649067401885986328125</LatitudeDegrees>
              <LongitudeDegrees>-2.84775923006236553192138671875</LongitudeDegrees>
            </Position>
            <AltitudeMeters>823.79998779296875</AltitudeMeters>
            <DistanceMeters>38687.835703862</DistanceMeters>
          </Trackpoint>
          <Trackpoint>
            <Time>2020-01-19T08:25:09.000Z</Time>
            <Position>
              <LatitudeDegrees>38.93766523338854312896728515625</LatitudeDegrees>
              <LongitudeDegrees>-2.8477363474667072296142578125</LongitudeDegrees>
            </Position>
            <AltitudeMeters>824</AltitudeMeters>
            <DistanceMeters>38689.819919911</DistanceMeters>
          </Trackpoint>
          <Trackpoint>
            <Time>2020-01-19T08:25:10.000Z</Time>
            <Position>
              <LatitudeDegrees>38.93765442073345184326171875</LatitudeDegrees>
              <LongitudeDegrees>-2.8477189131081104278564453125</LongitudeDegrees>
            </Position>
            <AltitudeMeters>824</AltitudeMeters>
            <DistanceMeters>38691.748751551</DistanceMeters>
          </Trackpoint>
          <Trackpoint>
            <Time>2020-01-19T08:25:13.000Z</Time>
            <Position>
              <LatitudeDegrees>38.93757940270006656646728515625</LatitudeDegrees>
              <LongitudeDegrees>-2.84769737161695957183837890625</LongitudeDegrees>
            </Position>
            <AltitudeMeters>824.4000244140625</AltitudeMeters>
            <DistanceMeters>38700.303795068</DistanceMeters>
          </Trackpoint>
          <Trackpoint>
            <Time>2020-01-19T08:25:16.000Z</Time>
            <Position>
              <LatitudeDegrees>38.93749088980257511138916015625</LatitudeDegrees>
              <LongitudeDegrees>-2.8476709686219692230224609375</LongitudeDegrees>
            </Position>
            <AltitudeMeters>824.79998779296875</AltitudeMeters>
            <DistanceMeters>38710.416887859</DistanceMeters>
          </Trackpoint>
          <Trackpoint>
            <Time>2020-01-19T08:25:18.000Z</Time>
            <Position>
              <LatitudeDegrees>38.93744730390608310699462890625</LatitudeDegrees>
              <LongitudeDegrees>-2.84764297306537628173828125</LongitudeDegrees>
            </Position>
            <AltitudeMeters>825</AltitudeMeters>
            <DistanceMeters>38715.839242413</DistanceMeters>
          </Trackpoint>
          <Trackpoint>
            <Time>2020-01-19T08:25:19.000Z</Time>
            <Position>
              <LatitudeDegrees>38.93742366693913936614990234375</LatitudeDegrees>
              <LongitudeDegrees>-2.84762344323098659515380859375</LongitudeDegrees>
            </Position>
            <AltitudeMeters>825</AltitudeMeters>
            <DistanceMeters>38718.966473263</DistanceMeters>
          </Trackpoint>
          <Trackpoint>
            <Time>2020-01-19T08:25:20.000Z</Time>
            <Position>
              <LatitudeDegrees>38.93739785067737102508544921875</LatitudeDegrees>
              <LongitudeDegrees>-2.84759645350277423858642578125</LongitudeDegrees>
            </Position>
            <AltitudeMeters>825.20001220703125</AltitudeMeters>
            <DistanceMeters>38722.668858445</DistanceMeters>
          </Trackpoint>
          <Trackpoint>
            <Time>2020-01-19T08:25:22.000Z</Time>
            <Position>
              <LatitudeDegrees>38.9373531751334667205810546875</LatitudeDegrees>
              <LongitudeDegrees>-2.84754700027406215667724609375</LongitudeDegrees>
            </Position>
            <AltitudeMeters>825.5999755859375</AltitudeMeters>
            <DistanceMeters>38729.230520162</DistanceMeters>
          </Trackpoint>
          <Trackpoint>
            <Time>2020-01-19T08:25:24.000Z</Time>
            <Position>
              <LatitudeDegrees>38.93731285817921161651611328125</LatitudeDegrees>
              <LongitudeDegrees>-2.8475154004991054534912109375</LongitudeDegrees>
            </Position>
            <AltitudeMeters>826.20001220703125</AltitudeMeters>
            <DistanceMeters>38734.485420139</DistanceMeters>
          </Trackpoint>
          <Trackpoint>
            <Time>2020-01-19T08:25:26.000Z</Time>
            <Position>
              <LatitudeDegrees>38.93728201277554035186767578125</LatitudeDegrees>
              <LongitudeDegrees>-2.84751355648040771484375</LongitudeDegrees>
            </Position>
            <AltitudeMeters>826.4000244140625</AltitudeMeters>
            <DistanceMeters>38737.922183149</DistanceMeters>
          </Trackpoint>
          <Trackpoint>
            <Time>2020-01-19T08:25:28.000Z</Time>
            <Position>
              <LatitudeDegrees>38.93726223148405551910400390625</LatitudeDegrees>
              <LongitudeDegrees>-2.847539372742176055908203125</LongitudeDegrees>
            </Position>
            <AltitudeMeters>826</AltitudeMeters>
            <DistanceMeters>38741.059504192</DistanceMeters>
          </Trackpoint>
          <Trackpoint>
            <Time>2020-01-19T08:25:29.000Z</Time>
            <Position>
              <LatitudeDegrees>38.93726550042629241943359375</LatitudeDegrees>
              <LongitudeDegrees>-2.84755839966237545013427734375</LongitudeDegrees>
            </Position>
            <AltitudeMeters>825.79998779296875</AltitudeMeters>
            <DistanceMeters>38742.748736016</DistanceMeters>
          </Trackpoint>
          <Trackpoint>
            <Time>2020-01-19T08:25:39.000Z</Time>
            <Position>
              <LatitudeDegrees>38.93757320009171962738037109375</LatitudeDegrees>
              <LongitudeDegrees>-2.847752608358860015869140625</LongitudeDegrees>
            </Position>
            <AltitudeMeters>824.4000244140625</AltitudeMeters>
            <DistanceMeters>38780.900985521</DistanceMeters>
          </Trackpoint>
          <Trackpoint>
            <Time>2020-01-19T08:25:42.000Z</Time>
            <Position>
              <LatitudeDegrees>38.9376371540129184722900390625</LatitudeDegrees>
              <LongitudeDegrees>-2.847790159285068511962890625</LongitudeDegrees>
            </Position>
            <AltitudeMeters>824</AltitudeMeters>
            <DistanceMeters>38788.726133978</DistanceMeters>
          </Trackpoint>
          <Trackpoint>
            <Time>2020-01-19T08:25:46.000Z</Time>
            <Position>
              <LatitudeDegrees>38.93766774795949459075927734375</LatitudeDegrees>
              <LongitudeDegrees>-2.84781589172780513763427734375</LongitudeDegrees>
            </Position>
            <AltitudeMeters>823.79998779296875</AltitudeMeters>
            <DistanceMeters>38792.794564894</DistanceMeters>
          </Trackpoint>
          <Trackpoint>
            <Time>2020-01-19T08:30:36.000Z</Time>
            <Position>
              <LatitudeDegrees>38.937644697725772857666015625</LatitudeDegrees>
              <LongitudeDegrees>-2.847754620015621185302734375</LongitudeDegrees>
            </Position>
            <AltitudeMeters>824</AltitudeMeters>
            <DistanceMeters>38798.686221185</DistanceMeters>
          </Trackpoint>
          <Trackpoint>
            <Time>2020-01-19T08:30:37.000Z</Time>
            <Position>
              <LatitudeDegrees>38.937623910605907440185546875</LatitudeDegrees>
              <LongitudeDegrees>-2.8477534465491771697998046875</LongitudeDegrees>
            </Position>
            <AltitudeMeters>824</AltitudeMeters>
            <DistanceMeters>38801.000272898</DistanceMeters>
          </Trackpoint>
          <Trackpoint>
            <Time>2020-01-19T08:30:39.000Z</Time>
            <Position>
              <LatitudeDegrees>38.93757403828203678131103515625</LatitudeDegrees>
              <LongitudeDegrees>-2.847747243940830230712890625</LongitudeDegrees>
            </Position>
            <AltitudeMeters>824.4000244140625</AltitudeMeters>
            <DistanceMeters>38806.576972933</DistanceMeters>
          </Trackpoint>
          <Trackpoint>
            <Time>2020-01-19T08:30:41.000Z</Time>
            <Position>
              <LatitudeDegrees>38.93752156756818294525146484375</LatitudeDegrees>
              <LongitudeDegrees>-2.8477400355041027069091796875</LongitudeDegrees>
            </Position>
            <AltitudeMeters>824.5999755859375</AltitudeMeters>
            <DistanceMeters>38812.450208158</DistanceMeters>
          </Trackpoint>
          <Trackpoint>
            <Time>2020-01-19T08:30:44.000Z</Time>
            <Position>
              <LatitudeDegrees>38.93744830973446369171142578125</LatitudeDegrees>
              <LongitudeDegrees>-2.84770332276821136474609375</LongitudeDegrees>
            </Position>
            <AltitudeMeters>824.79998779296875</AltitudeMeters>
            <DistanceMeters>38821.201957035</DistanceMeters>
          </Trackpoint>
          <Trackpoint>
            <Time>2020-01-19T08:30:49.000Z</Time>
            <Position>
              <LatitudeDegrees>38.93731973133981227874755859375</LatitudeDegrees>
              <LongitudeDegrees>-2.8475685417652130126953125</LongitudeDegrees>
            </Position>
            <AltitudeMeters>825.4000244140625</AltitudeMeters>
            <DistanceMeters>38839.666994981</DistanceMeters>
          </Trackpoint>
          <Trackpoint>
            <Time>2020-01-19T08:30:56.000Z</Time>
            <Position>
              <LatitudeDegrees>38.93712937831878662109375</LatitudeDegrees>
              <LongitudeDegrees>-2.84734751097857952117919921875</LongitudeDegrees>
            </Position>
            <AltitudeMeters>830</AltitudeMeters>
            <DistanceMeters>38868.216157838</DistanceMeters>
          </Trackpoint>
          <Trackpoint>
            <Time>2020-01-19T08:30:59.000Z</Time>
            <Position>
              <LatitudeDegrees>38.93704061396420001983642578125</LatitudeDegrees>
              <LongitudeDegrees>-2.84726168029010295867919921875</LongitudeDegrees>
            </Position>
            <AltitudeMeters>829</AltitudeMeters>
            <DistanceMeters>38880.578399291</DistanceMeters>
          </Trackpoint>
          <Trackpoint>
            <Time>2020-01-19T08:31:07.000Z</Time>
            <Position>
              <LatitudeDegrees>38.93682922236621379852294921875</LatitudeDegrees>
              <LongitudeDegrees>-2.8470242209732532501220703125</LongitudeDegrees>
            </Position>
            <AltitudeMeters>827.20001220703125</AltitudeMeters>
            <DistanceMeters>38911.822974888</DistanceMeters>
          </Trackpoint>
          <Trackpoint>
            <Time>2020-01-19T08:31:09.000Z</Time>
            <Position>
              <LatitudeDegrees>38.9367775060236454010009765625</LatitudeDegrees>
              <LongitudeDegrees>-2.8469717502593994140625</LongitudeDegrees>
            </Position>
            <AltitudeMeters>827.4000244140625</AltitudeMeters>
            <DistanceMeters>38919.156057815</DistanceMeters>
          </Trackpoint>
          <Trackpoint>
            <Time>2020-01-19T08:31:13.000Z</Time>
            <Position>
              <LatitudeDegrees>38.93666627816855907440185546875</LatitudeDegrees>
              <LongitudeDegrees>-2.8468622826039791107177734375</LongitudeDegrees>
            </Position>
            <AltitudeMeters>827.5999755859375</AltitudeMeters>
            <DistanceMeters>38934.746811412</DistanceMeters>
          </Trackpoint>
          <Trackpoint>
            <Time>2020-01-19T08:31:19.000Z</Time>
            <Position>
              <LatitudeDegrees>38.93647718243300914764404296875</LatitudeDegrees>
              <LongitudeDegrees>-2.84673781134188175201416015625</LongitudeDegrees>
            </Position>
            <AltitudeMeters>828</AltitudeMeters>
            <DistanceMeters>38958.39185641</DistanceMeters>
          </Trackpoint>
          <Trackpoint>
            <Time>2020-01-19T08:31:26.000Z</Time>
            <Position>
              <LatitudeDegrees>38.93624768592417240142822265625</LatitudeDegrees>
              <LongitudeDegrees>-2.84667159430682659149169921875</LongitudeDegrees>
            </Position>
            <AltitudeMeters>828.5999755859375</AltitudeMeters>
            <DistanceMeters>38984.570638308</DistanceMeters>
          </Trackpoint>
          <Trackpoint>
            <Time>2020-01-19T08:31:29.000Z</Time>
            <Position>
              <LatitudeDegrees>38.93615012057125568389892578125</LatitudeDegrees>
              <LongitudeDegrees>-2.84665415994822978973388671875</LongitudeDegrees>
            </Position>
            <AltitudeMeters>828.79998779296875</AltitudeMeters>
            <DistanceMeters>38995.53377278</DistanceMeters>
          </Trackpoint>
          <Trackpoint>
            <Time>2020-01-19T08:31:34.000Z</Time>
            <Position>
              <LatitudeDegrees>38.93598868511617183685302734375</LatitudeDegrees>
              <LongitudeDegrees>-2.84662515856325626373291015625</LongitudeDegrees>
            </Position>
            <AltitudeMeters>829.4000244140625</AltitudeMeters>
            <DistanceMeters>39013.676410859</DistanceMeters>
          </Trackpoint>
          <Trackpoint>
            <Time>2020-01-19T08:31:39.000Z</Time>
            <Position>
              <LatitudeDegrees>38.935817778110504150390625</LatitudeDegrees>
              <LongitudeDegrees>-2.846601940691471099853515625</LongitudeDegrees>
            </Position>
            <AltitudeMeters>830</AltitudeMeters>
            <DistanceMeters>39032.804653524</DistanceMeters>
          </Trackpoint>
          <Trackpoint>
            <Time>2020-01-19T08:31:45.000Z</Time>
            <Position>
              <LatitudeDegrees>38.93561661243438720703125</LatitudeDegrees>
              <LongitudeDegrees>-2.846559695899486541748046875</LongitudeDegrees>
            </Position>
            <AltitudeMeters>830.4000244140625</AltitudeMeters>
            <DistanceMeters>39055.4915726</DistanceMeters>
          </Trackpoint>
          <Trackpoint>
            <Time>2020-01-19T08:31:49.000Z</Time>
            <Position>
              <LatitudeDegrees>38.93558065406978130340576171875</LatitudeDegrees>
              <LongitudeDegrees>-2.84645148552954196929931640625</LongitudeDegrees>
            </Position>
            <AltitudeMeters>830.79998779296875</AltitudeMeters>
            <DistanceMeters>39065.679836864</DistanceMeters>
          </Trackpoint>
          <Trackpoint>
            <Time>2020-01-19T08:31:53.000Z</Time>
            <Position>
              <LatitudeDegrees>38.935595490038394927978515625</LatitudeDegrees>
              <LongitudeDegrees>-2.84629239700734615325927734375</LongitudeDegrees>
            </Position>
            <AltitudeMeters>831.20001220703125</AltitudeMeters>
            <DistanceMeters>39079.551784421</DistanceMeters>
          </Trackpoint>
          <Trackpoint>
            <Time>2020-01-19T08:31:55.000Z</Time>
            <Position>
              <LatitudeDegrees>38.9356057159602642059326171875</LatitudeDegrees>
              <LongitudeDegrees>-2.84621427766978740692138671875</LongitudeDegrees>
            </Position>
            <AltitudeMeters>831.5999755859375</AltitudeMeters>
            <DistanceMeters>39086.410843997</DistanceMeters>
          </Trackpoint>
          <Trackpoint>
            <Time>2020-01-19T08:31:59.000Z</Time>
            <Position>
              <LatitudeDegrees>38.9356218092143535614013671875</LatitudeDegrees>
              <LongitudeDegrees>-2.84607212059199810028076171875</LongitudeDegrees>
            </Position>
            <AltitudeMeters>832</AltitudeMeters>
            <DistanceMeters>39098.848094879</DistanceMeters>
          </Trackpoint>
          <Trackpoint>
            <Time>2020-01-19T08:32:09.000Z</Time>
            <Position>
              <LatitudeDegrees>38.935700096189975738525390625</LatitudeDegrees>
              <LongitudeDegrees>-2.84571371041238307952880859375</LongitudeDegrees>
            </Position>
            <AltitudeMeters>832</AltitudeMeters>
            <DistanceMeters>39131.077984945</DistanceMeters>
          </Trackpoint>
          <Trackpoint>
            <Time>2020-01-19T08:32:17.000Z</Time>
            <Position>
              <LatitudeDegrees>38.9357294328510761260986328125</LatitudeDegrees>
              <LongitudeDegrees>-2.84537944011390209197998046875</LongitudeDegrees>
            </Position>
            <AltitudeMeters>831.20001220703125</AltitudeMeters>
            <DistanceMeters>39160.201463793</DistanceMeters>
          </Trackpoint>
          <Trackpoint>
            <Time>2020-01-19T08:32:19.000Z</Time>
            <Position>
              <LatitudeDegrees>38.9357364736497402191162109375</LatitudeDegrees>
              <LongitudeDegrees>-2.84528455697000026702880859375</LongitudeDegrees>
            </Position>
            <AltitudeMeters>831.5999755859375</AltitudeMeters>
            <DistanceMeters>39168.45348212</DistanceMeters>
          </Trackpoint>
          <Trackpoint>
            <Time>2020-01-19T08:32:29.000Z</Time>
            <Position>
              <LatitudeDegrees>38.9359460212290287017822265625</LatitudeDegrees>
              <LongitudeDegrees>-2.8449210338294506072998046875</LongitudeDegrees>
            </Position>
            <AltitudeMeters>830.79998779296875</AltitudeMeters>
            <DistanceMeters>39207.626163293</DistanceMeters>
          </Trackpoint>
          <Trackpoint>
            <Time>2020-01-19T08:32:33.000Z</Time>
            <Position>
              <LatitudeDegrees>38.93600963987410068511962890625</LatitudeDegrees>
              <LongitudeDegrees>-2.844786755740642547607421875</LongitudeDegrees>
            </Position>
            <AltitudeMeters>830.4000244140625</AltitudeMeters>
            <DistanceMeters>39221.237890166</DistanceMeters>
          </Trackpoint>
          <Trackpoint>
            <Time>2020-01-19T08:32:35.000Z</Time>
            <Position>
              <LatitudeDegrees>38.93600754439830780029296875</LatitudeDegrees>
              <LongitudeDegrees>-2.8447255678474903106689453125</LongitudeDegrees>
            </Position>
            <AltitudeMeters>830.5999755859375</AltitudeMeters>
            <DistanceMeters>39226.540687357</DistanceMeters>
          </Trackpoint>
          <Trackpoint>
            <Time>2020-01-19T08:32:39.000Z</Time>
            <Position>
              <LatitudeDegrees>38.9360070414841175079345703125</LatitudeDegrees>
              <LongitudeDegrees>-2.84463982097804546356201171875</LongitudeDegrees>
            </Position>
            <AltitudeMeters>830.79998779296875</AltitudeMeters>
            <DistanceMeters>39233.964943994</DistanceMeters>
          </Trackpoint>
          <Trackpoint>
            <Time>2020-01-19T08:32:49.000Z</Time>
            <Position>
              <LatitudeDegrees>38.935942836105823516845703125</LatitudeDegrees>
              <LongitudeDegrees>-2.8442586958408355712890625</LongitudeDegrees>
            </Position>
            <AltitudeMeters>831.4000244140625</AltitudeMeters>
            <DistanceMeters>39267.726185072</DistanceMeters>
          </Trackpoint>
          <Trackpoint>
            <Time>2020-01-19T08:32:52.000Z</Time>
            <Position>
              <LatitudeDegrees>38.93589715473353862762451171875</LatitudeDegrees>
              <LongitudeDegrees>-2.844149060547351837158203125</LongitudeDegrees>
            </Position>
            <AltitudeMeters>831</AltitudeMeters>
            <DistanceMeters>39278.494015937</DistanceMeters>
          </Trackpoint>
          <Trackpoint>
            <Time>2020-01-19T08:32:55.000Z</Time>
            <Position>
              <LatitudeDegrees>38.93587351776659488677978515625</LatitudeDegrees>
              <LongitudeDegrees>-2.84404076635837554931640625</LongitudeDegrees>
            </Position>
            <AltitudeMeters>831</AltitudeMeters>
            <DistanceMeters>39288.232283895</DistanceMeters>
          </Trackpoint>
          <Trackpoint>
            <Time>2020-01-19T08:32:59.000Z</Time>
            <Position>
              <LatitudeDegrees>38.93584820441901683807373046875</LatitudeDegrees>
              <LongitudeDegrees>-2.8438692726194858551025390625</LongitudeDegrees>
            </Position>
            <AltitudeMeters>831</AltitudeMeters>
            <DistanceMeters>39303.34481821</DistanceMeters>
          </Trackpoint>
          <Trackpoint>
            <Time>2020-01-19T08:33:05.000Z</Time>
            <Position>
              <LatitudeDegrees>38.93576824106276035308837890625</LatitudeDegrees>
              <LongitudeDegrees>-2.84359954297542572021484375</LongitudeDegrees>
            </Position>
            <AltitudeMeters>831</AltitudeMeters>
            <DistanceMeters>39328.335579443</DistanceMeters>
          </Trackpoint>
          <Trackpoint>
            <Time>2020-01-19T08:33:09.000Z</Time>
            <Position>
              <LatitudeDegrees>38.935644440352916717529296875</LatitudeDegrees>
              <LongitudeDegrees>-2.84346300177276134490966796875</LongitudeDegrees>
            </Position>
            <AltitudeMeters>831</AltitudeMeters>
            <DistanceMeters>39346.490656427</DistanceMeters>
          </Trackpoint>
          <Trackpoint>
            <Time>2020-01-19T08:33:11.000Z</Time>
            <Position>
              <LatitudeDegrees>38.9355792291462421417236328125</LatitudeDegrees>
              <LongitudeDegrees>-2.84341505728662014007568359375</LongitudeDegrees>
            </Position>
            <AltitudeMeters>831</AltitudeMeters>
            <DistanceMeters>39354.851387361</DistanceMeters>
          </Trackpoint>
          <Trackpoint>
            <Time>2020-01-19T08:33:13.000Z</Time>
            <Position>
              <LatitudeDegrees>38.9355158619582653045654296875</LatitudeDegrees>
              <LongitudeDegrees>-2.8433767519891262054443359375</LongitudeDegrees>
            </Position>
            <AltitudeMeters>831</AltitudeMeters>
            <DistanceMeters>39362.645316039</DistanceMeters>
          </Trackpoint>
          <Trackpoint>
            <Time>2020-01-19T08:33:18.000Z</Time>
            <Position>
              <LatitudeDegrees>38.93533003516495227813720703125</LatitudeDegrees>
              <LongitudeDegrees>-2.84330005757510662078857421875</LongitudeDegrees>
            </Position>
            <AltitudeMeters>831</AltitudeMeters>
            <DistanceMeters>39384.368015564</DistanceMeters>
          </Trackpoint>
          <Trackpoint>
            <Time>2020-01-19T08:33:29.000Z</Time>
            <Position>
              <LatitudeDegrees>38.9350333996117115020751953125</LatitudeDegrees>
              <LongitudeDegrees>-2.84292371012270450592041015625</LongitudeDegrees>
            </Position>
            <AltitudeMeters>833</AltitudeMeters>
            <DistanceMeters>39430.754681055</DistanceMeters>
          </Trackpoint>
          <Trackpoint>
            <Time>2020-01-19T08:33:34.000Z</Time>
            <Position>
              <LatitudeDegrees>38.9349479041993618011474609375</LatitudeDegrees>
              <LongitudeDegrees>-2.84275908954441547393798828125</LongitudeDegrees>
            </Position>
            <AltitudeMeters>833</AltitudeMeters>
            <DistanceMeters>39447.891662881</DistanceMeters>
          </Trackpoint>
          <Trackpoint>
            <Time>2020-01-19T08:33:39.000Z</Time>
            <Position>
              <LatitudeDegrees>38.9348939247429370880126953125</LatitudeDegrees>
              <LongitudeDegrees>-2.84261508844792842864990234375</LongitudeDegrees>
            </Position>
            <AltitudeMeters>831.5999755859375</AltitudeMeters>
            <DistanceMeters>39461.731024188</DistanceMeters>
          </Trackpoint>
          <Trackpoint>
            <Time>2020-01-19T08:33:49.000Z</Time>
            <Position>
              <LatitudeDegrees>38.93469871021807193756103515625</LatitudeDegrees>
              <LongitudeDegrees>-2.84232071600854396820068359375</LongitudeDegrees>
            </Position>
            <AltitudeMeters>831</AltitudeMeters>
            <DistanceMeters>39495.221841216</DistanceMeters>
          </Trackpoint>
          <Trackpoint>
            <Time>2020-01-19T08:33:51.000Z</Time>
            <Position>
              <LatitudeDegrees>38.93461606465280055999755859375</LatitudeDegrees>
              <LongitudeDegrees>-2.84229758195579051971435546875</LongitudeDegrees>
            </Position>
            <AltitudeMeters>831</AltitudeMeters>
            <DistanceMeters>39504.635722998</DistanceMeters>
          </Trackpoint>
          <Trackpoint>
            <Time>2020-01-19T08:33:52.000Z</Time>
            <Position>
              <LatitudeDegrees>38.934566862881183624267578125</LatitudeDegrees>
              <LongitudeDegrees>-2.84229657612740993499755859375</LongitudeDegrees>
            </Position>
            <AltitudeMeters>831</AltitudeMeters>
            <DistanceMeters>39510.11275814</DistanceMeters>
          </Trackpoint>
          <Trackpoint>
            <Time>2020-01-19T08:33:54.000Z</Time>
            <Position>
              <LatitudeDegrees>38.93447390757501125335693359375</LatitudeDegrees>
              <LongitudeDegrees>-2.84229909069836139678955078125</LongitudeDegrees>
            </Position>
            <AltitudeMeters>831</AltitudeMeters>
            <DistanceMeters>39520.461512009</DistanceMeters>
          </Trackpoint>
          <Trackpoint>
            <Time>2020-01-19T08:33:59.000Z</Time>
            <Position>
              <LatitudeDegrees>38.93429503776133060455322265625</LatitudeDegrees>
              <LongitudeDegrees>-2.8422626294195652008056640625</LongitudeDegrees>
            </Position>
            <AltitudeMeters>831</AltitudeMeters>
            <DistanceMeters>39540.618826306</DistanceMeters>
          </Trackpoint>
          <Trackpoint>
            <Time>2020-01-19T08:34:00.000Z</Time>
            <Position>
              <LatitudeDegrees>38.93427827395498752593994140625</LatitudeDegrees>
              <LongitudeDegrees>-2.8422418422996997833251953125</LongitudeDegrees>
            </Position>
            <AltitudeMeters>831</AltitudeMeters>
            <DistanceMeters>39543.212550838</DistanceMeters>
          </Trackpoint>
          <Trackpoint>
            <Time>2020-01-19T08:34:07.000Z</Time>
            <Position>
              <LatitudeDegrees>38.93412170000374317169189453125</LatitudeDegrees>
              <LongitudeDegrees>-2.84206858836114406585693359375</LongitudeDegrees>
            </Position>
            <AltitudeMeters>831</AltitudeMeters>
            <DistanceMeters>39566.206266845</DistanceMeters>
          </Trackpoint>
          <Trackpoint>
            <Time>2020-01-19T08:34:09.000Z</Time>
            <Position>
              <LatitudeDegrees>38.93405313603579998016357421875</LatitudeDegrees>
              <LongitudeDegrees>-2.84205568023025989532470703125</LongitudeDegrees>
            </Position>
            <AltitudeMeters>831</AltitudeMeters>
            <DistanceMeters>39573.920422908</DistanceMeters>
          </Trackpoint>
          <Trackpoint>
            <Time>2020-01-19T08:34:18.000Z</Time>
            <Position>
              <LatitudeDegrees>38.9337513037025928497314453125</LatitudeDegrees>
              <LongitudeDegrees>-2.84210697747766971588134765625</LongitudeDegrees>
            </Position>
            <AltitudeMeters>831</AltitudeMeters>
            <DistanceMeters>39607.807274356</DistanceMeters>
          </Trackpoint>
          <Trackpoint>
            <Time>2020-01-19T08:34:24.000Z</Time>
            <Position>
              <LatitudeDegrees>38.9335414208471775054931640625</LatitudeDegrees>
              <LongitudeDegrees>-2.84213916398584842681884765625</LongitudeDegrees>
            </Position>
            <AltitudeMeters>831</AltitudeMeters>
            <DistanceMeters>39631.333248202</DistanceMeters>
          </Trackpoint>
          <Trackpoint>
            <Time>2020-01-19T08:34:27.000Z</Time>
            <Position>
              <LatitudeDegrees>38.9333935640752315521240234375</LatitudeDegrees>
              <LongitudeDegrees>-2.84214687533676624298095703125</LongitudeDegrees>
            </Position>
            <AltitudeMeters>831</AltitudeMeters>
            <DistanceMeters>39647.803875286</DistanceMeters>
          </Trackpoint>
          <Trackpoint>
            <Time>2020-01-19T08:34:29.000Z</Time>
            <Position>
              <LatitudeDegrees>38.93333530984818935394287109375</LatitudeDegrees>
              <LongitudeDegrees>-2.842158190906047821044921875</LongitudeDegrees>
            </Position>
            <AltitudeMeters>831</AltitudeMeters>
            <DistanceMeters>39654.361407141</DistanceMeters>
          </Trackpoint>
          <Trackpoint>
            <Time>2020-01-19T08:34:38.000Z</Time>
            <Position>
              <LatitudeDegrees>38.933052085340023040771484375</LatitudeDegrees>
              <LongitudeDegrees>-2.84212340600788593292236328125</LongitudeDegrees>
            </Position>
            <AltitudeMeters>831</AltitudeMeters>
            <DistanceMeters>39686.028266617</DistanceMeters>
          </Trackpoint>
          <Trackpoint>
            <Time>2020-01-19T08:34:39.000Z</Time>
            <Position>
              <LatitudeDegrees>38.93301411531865596771240234375</LatitudeDegrees>
              <LongitudeDegrees>-2.84214050509035587310791015625</LongitudeDegrees>
            </Position>
            <AltitudeMeters>831</AltitudeMeters>
            <DistanceMeters>39690.506636832</DistanceMeters>
          </Trackpoint>
          <Trackpoint>
            <Time>2020-01-19T08:34:40.000Z</Time>
            <Position>
              <LatitudeDegrees>38.9329717867076396942138671875</LatitudeDegrees>
              <LongitudeDegrees>-2.84215257503092288970947265625</LongitudeDegrees>
            </Position>
            <AltitudeMeters>831</AltitudeMeters>
            <DistanceMeters>39695.333395291</DistanceMeters>
          </Trackpoint>
          <Trackpoint>
            <Time>2020-01-19T08:34:48.000Z</Time>
            <Position>
              <LatitudeDegrees>38.9325996302068233489990234375</LatitudeDegrees>
              <LongitudeDegrees>-2.84219004213809967041015625</LongitudeDegrees>
            </Position>
            <AltitudeMeters>832</AltitudeMeters>
            <DistanceMeters>39736.881917694</DistanceMeters>
          </Trackpoint>
          <Trackpoint>
            <Time>2020-01-19T08:34:49.000Z</Time>
            <Position>
              <LatitudeDegrees>38.93255210481584072113037109375</LatitudeDegrees>
              <LongitudeDegrees>-2.84219196997582912445068359375</LongitudeDegrees>
            </Position>
            <AltitudeMeters>832.4000244140625</AltitudeMeters>
            <DistanceMeters>39742.173634528</DistanceMeters>
          </Trackpoint>
          <Trackpoint>
            <Time>2020-01-19T08:34:50.000Z</Time>
            <Position>
              <LatitudeDegrees>38.93250466324388980865478515625</LatitudeDegrees>
              <LongitudeDegrees>-2.8421989269554615020751953125</LongitudeDegrees>
            </Position>
            <AltitudeMeters>832.5999755859375</AltitudeMeters>
            <DistanceMeters>39747.488338576</DistanceMeters>
          </Trackpoint>
          <Trackpoint>
            <Time>2020-01-19T08:34:55.000Z</Time>
            <Position>
              <LatitudeDegrees>38.9322787709534168243408203125</LatitudeDegrees>
              <LongitudeDegrees>-2.8422287665307521820068359375</LongitudeDegrees>
            </Position>
            <AltitudeMeters>834.4000244140625</AltitudeMeters>
            <DistanceMeters>39772.762943771</DistanceMeters>
          </Trackpoint>
          <Trackpoint>
            <Time>2020-01-19T08:34:58.000Z</Time>
            <Position>
              <LatitudeDegrees>38.932165615260601043701171875</LatitudeDegrees>
              <LongitudeDegrees>-2.842168919742107391357421875</LongitudeDegrees>
            </Position>
            <AltitudeMeters>834.20001220703125</AltitudeMeters>
            <DistanceMeters>39786.381966136</DistanceMeters>
          </Trackpoint>
          <Trackpoint>
            <Time>2020-01-19T08:34:59.000Z</Time>
            <Position>
              <LatitudeDegrees>38.93211641348898410797119140625</LatitudeDegrees>
              <LongitudeDegrees>-2.8421466238796710968017578125</LongitudeDegrees>
            </Position>
            <AltitudeMeters>834</AltitudeMeters>
            <DistanceMeters>39792.188712681</DistanceMeters>
          </Trackpoint>
          <Trackpoint>
            <Time>2020-01-19T08:35:09.000Z</Time>
            <Position>
              <LatitudeDegrees>38.93166043795645236968994140625</LatitudeDegrees>
              <LongitudeDegrees>-2.841996587812900543212890625</LongitudeDegrees>
            </Position>
            <AltitudeMeters>834.79998779296875</AltitudeMeters>
            <DistanceMeters>39844.575760438</DistanceMeters>
          </Trackpoint>
          <Trackpoint>
            <Time>2020-01-19T08:35:10.000Z</Time>
            <Position>
              <LatitudeDegrees>38.9316263236105442047119140625</LatitudeDegrees>
              <LongitudeDegrees>-2.84200094640254974365234375</LongitudeDegrees>
            </Position>
            <AltitudeMeters>835</AltitudeMeters>
            <DistanceMeters>39848.391056394</DistanceMeters>
          </Trackpoint>
          <Trackpoint>
            <Time>2020-01-19T08:35:12.000Z</Time>
            <Position>
              <LatitudeDegrees>38.931561447679996490478515625</LatitudeDegrees>
              <LongitudeDegrees>-2.84204042516648769378662109375</LongitudeDegrees>
            </Position>
            <AltitudeMeters>835.5999755859375</AltitudeMeters>
            <DistanceMeters>39856.38008514</DistanceMeters>
          </Trackpoint>
          <Trackpoint>
            <Time>2020-01-19T08:35:16.000Z</Time>
            <Position>
              <LatitudeDegrees>38.93147100694477558135986328125</LatitudeDegrees>
              <LongitudeDegrees>-2.84220538102090358734130859375</LongitudeDegrees>
            </Position>
            <AltitudeMeters>837.5999755859375</AltitudeMeters>
            <DistanceMeters>39873.853118207</DistanceMeters>
          </Trackpoint>
          <Trackpoint>
            <Time>2020-01-19T08:35:17.000Z</Time>
            <Position>
              <LatitudeDegrees>38.9314476214349269866943359375</LatitudeDegrees>
              <LongitudeDegrees>-2.84223672933876514434814453125</LongitudeDegrees>
            </Position>
            <AltitudeMeters>838</AltitudeMeters>
            <DistanceMeters>39877.613583565</DistanceMeters>
          </Trackpoint>
          <Trackpoint>
            <Time>2020-01-19T08:35:19.000Z</Time>
            <Position>
              <LatitudeDegrees>38.93139154650270938873291015625</LatitudeDegrees>
              <LongitudeDegrees>-2.84225114621222019195556640625</LongitudeDegrees>
            </Position>
            <AltitudeMeters>838.5999755859375</AltitudeMeters>
            <DistanceMeters>39883.978245609</DistanceMeters>
          </Trackpoint>
          <Trackpoint>
            <Time>2020-01-19T08:35:21.000Z</Time>
            <Position>
              <LatitudeDegrees>38.9313420094549655914306640625</LatitudeDegrees>
              <LongitudeDegrees>-2.8422569297254085540771484375</LongitudeDegrees>
            </Position>
            <AltitudeMeters>838.79998779296875</AltitudeMeters>
            <DistanceMeters>39889.515131875</DistanceMeters>
          </Trackpoint>
          <Trackpoint>
            <Time>2020-01-19T08:35:23.000Z</Time>
            <Position>
              <LatitudeDegrees>38.931285850703716278076171875</LatitudeDegrees>
              <LongitudeDegrees>-2.8422669880092144012451171875</LongitudeDegrees>
            </Position>
            <AltitudeMeters>839</AltitudeMeters>
            <DistanceMeters>39895.825649851</DistanceMeters>
          </Trackpoint>
          <Trackpoint>
            <Time>2020-01-19T08:35:25.000Z</Time>
            <Position>
              <LatitudeDegrees>38.931224159896373748779296875</LatitudeDegrees>
              <LongitudeDegrees>-2.84224309958517551422119140625</LongitudeDegrees>
            </Position>
            <AltitudeMeters>838.79998779296875</AltitudeMeters>
            <DistanceMeters>39902.996232482</DistanceMeters>
          </Trackpoint>
          <Trackpoint>
            <Time>2020-01-19T08:35:26.000Z</Time>
            <Position>
              <LatitudeDegrees>38.9311944879591464996337890625</LatitudeDegrees>
              <LongitudeDegrees>-2.8422237373888492584228515625</LongitudeDegrees>
            </Position>
            <AltitudeMeters>838.79998779296875</AltitudeMeters>
            <DistanceMeters>39906.698617665</DistanceMeters>
          </Trackpoint>
          <Trackpoint>
            <Time>2020-01-19T08:35:28.000Z</Time>
            <Position>
              <LatitudeDegrees>38.93113070167601108551025390625</LatitudeDegrees>
              <LongitudeDegrees>-2.842184342443943023681640625</LongitudeDegrees>
            </Position>
            <AltitudeMeters>838.4000244140625</AltitudeMeters>
            <DistanceMeters>39914.574377634</DistanceMeters>
          </Trackpoint>
          <Trackpoint>
            <Time>2020-01-19T08:35:29.000Z</Time>
            <Position>
              <LatitudeDegrees>38.9310979284346103668212890625</LatitudeDegrees>
              <LongitudeDegrees>-2.8421667404472827911376953125</LongitudeDegrees>
            </Position>
            <AltitudeMeters>838.20001220703125</AltitudeMeters>
            <DistanceMeters>39918.526849297</DistanceMeters>
          </Trackpoint>
          <Trackpoint>
            <Time>2020-01-19T08:35:32.000Z</Time>
            <Position>
              <LatitudeDegrees>38.93100128509104251861572265625</LatitudeDegrees>
              <LongitudeDegrees>-2.84212541766464710235595703125</LongitudeDegrees>
            </Position>
            <AltitudeMeters>837.79998779296875</AltitudeMeters>
            <DistanceMeters>39929.862942887</DistanceMeters>
          </Trackpoint>
          <Trackpoint>
            <Time>2020-01-19T08:35:39.000Z</Time>
            <Position>
              <LatitudeDegrees>38.930806405842304229736328125</LatitudeDegrees>
              <LongitudeDegrees>-2.84199248068034648895263671875</LongitudeDegrees>
            </Position>
            <AltitudeMeters>836</AltitudeMeters>
            <DistanceMeters>39954.418110659</DistanceMeters>
          </Trackpoint>
          <Trackpoint>
            <Time>2020-01-19T08:35:40.000Z</Time>
            <Position>
              <LatitudeDegrees>38.930786289274692535400390625</LatitudeDegrees>
              <LongitudeDegrees>-2.841963060200214385986328125</LongitudeDegrees>
            </Position>
            <AltitudeMeters>835.79998779296875</AltitudeMeters>
            <DistanceMeters>39957.808580731</DistanceMeters>
          </Trackpoint>
          <Trackpoint>
            <Time>2020-01-19T08:35:42.000Z</Time>
            <Position>
              <LatitudeDegrees>38.930769860744476318359375</LatitudeDegrees>
              <LongitudeDegrees>-2.841887287795543670654296875</LongitudeDegrees>
            </Position>
            <AltitudeMeters>835.20001220703125</AltitudeMeters>
            <DistanceMeters>39964.620080769</DistanceMeters>
          </Trackpoint>
          <Trackpoint>
            <Time>2020-01-19T08:35:48.000Z</Time>
            <Position>
              <LatitudeDegrees>38.93094613216817378997802734375</LatitudeDegrees>
              <LongitudeDegrees>-2.84173415042459964752197265625</LongitudeDegrees>
            </Position>
            <AltitudeMeters>833.4000244140625</AltitudeMeters>
            <DistanceMeters>39988.299471951</DistanceMeters>
          </Trackpoint>
          <Trackpoint>
            <Time>2020-01-19T08:35:49.000Z</Time>
            <Position>
              <LatitudeDegrees>38.93098033033311367034912109375</LatitudeDegrees>
              <LongitudeDegrees>-2.84170464612543582916259765625</LongitudeDegrees>
            </Position>
            <AltitudeMeters>833.20001220703125</AltitudeMeters>
            <DistanceMeters>39992.884449373</DistanceMeters>
          </Trackpoint>
          <Trackpoint>
            <Time>2020-01-19T08:35:50.000Z</Time>
            <Position>
              <LatitudeDegrees>38.9310164563357830047607421875</LatitudeDegrees>
              <LongitudeDegrees>-2.8416779078543186187744140625</LongitudeDegrees>
            </Position>
            <AltitudeMeters>833.20001220703125</AltitudeMeters>
            <DistanceMeters>39997.525217878</DistanceMeters>
          </Trackpoint>
          <Trackpoint>
            <Time>2020-01-19T08:35:59.000Z</Time>
            <Position>
              <LatitudeDegrees>38.93126481212675571441650390625</LatitudeDegrees>
              <LongitudeDegrees>-2.84133852459490299224853515625</LongitudeDegrees>
            </Position>
            <AltitudeMeters>833</AltitudeMeters>
            <DistanceMeters>40037.868059349</DistanceMeters>
          </Trackpoint>
          <Trackpoint>
            <Time>2020-01-19T08:36:06.000Z</Time>
            <Position>
              <LatitudeDegrees>38.93143840134143829345703125</LatitudeDegrees>
              <LongitudeDegrees>-2.84098497591912746429443359375</LongitudeDegrees>
            </Position>
            <AltitudeMeters>833</AltitudeMeters>
            <DistanceMeters>40074.066377991</DistanceMeters>
          </Trackpoint>
          <Trackpoint>
            <Time>2020-01-19T08:36:09.000Z</Time>
            <Position>
              <LatitudeDegrees>38.93151216208934783935546875</LatitudeDegrees>
              <LongitudeDegrees>-2.84084600396454334259033203125</LongitudeDegrees>
            </Position>
            <AltitudeMeters>833.20001220703125</AltitudeMeters>
            <DistanceMeters>40088.632767598</DistanceMeters>
          </Trackpoint>
          <Trackpoint>
            <Time>2020-01-19T08:36:12.000Z</Time>
            <Position>
              <LatitudeDegrees>38.93156656064093112945556640625</LatitudeDegrees>
              <LongitudeDegrees>-2.8407059423625469207763671875</LongitudeDegrees>
            </Position>
            <AltitudeMeters>833.79998779296875</AltitudeMeters>
            <DistanceMeters>40102.186655424</DistanceMeters>
          </Trackpoint>
          <Trackpoint>
            <Time>2020-01-19T08:36:14.000Z</Time>
            <Position>
              <LatitudeDegrees>38.931580893695354461669921875</LatitudeDegrees>
              <LongitudeDegrees>-2.8406033478677272796630859375</LongitudeDegrees>
            </Position>
            <AltitudeMeters>834.4000244140625</AltitudeMeters>
            <DistanceMeters>40111.211692239</DistanceMeters>
          </Trackpoint>
          <Trackpoint>
            <Time>2020-01-19T08:36:16.000Z</Time>
            <Position>
              <LatitudeDegrees>38.93156220205128192901611328125</LatitudeDegrees>
              <LongitudeDegrees>-2.8404963947832584381103515625</LongitudeDegrees>
            </Position>
            <AltitudeMeters>834.79998779296875</AltitudeMeters>
            <DistanceMeters>40120.702477904</DistanceMeters>
          </Trackpoint>
          <Trackpoint>
            <Time>2020-01-19T08:36:18.000Z</Time>
            <Position>
              <LatitudeDegrees>38.93153621815145015716552734375</LatitudeDegrees>
              <LongitudeDegrees>-2.840379886329174041748046875</LongitudeDegrees>
            </Position>
            <AltitudeMeters>835.20001220703125</AltitudeMeters>
            <DistanceMeters>40131.19637052</DistanceMeters>
          </Trackpoint>
          <Trackpoint>
            <Time>2020-01-19T08:36:29.000Z</Time>
            <Position>
              <LatitudeDegrees>38.93141685985028743743896484375</LatitudeDegrees>
              <LongitudeDegrees>-2.83969290554523468017578125</LongitudeDegrees>
            </Position>
            <AltitudeMeters>835.5999755859375</AltitudeMeters>
            <DistanceMeters>40192.141766931</DistanceMeters>
          </Trackpoint>
          <Trackpoint>
            <Time>2020-01-19T08:36:33.000Z</Time>
            <Position>
              <LatitudeDegrees>38.93135500140488147735595703125</LatitudeDegrees>
              <LongitudeDegrees>-2.83944454975426197052001953125</LongitudeDegrees>
            </Position>
            <AltitudeMeters>835.4000244140625</AltitudeMeters>
            <DistanceMeters>40214.720162258</DistanceMeters>
          </Trackpoint>
          <Trackpoint>
            <Time>2020-01-19T08:36:36.000Z</Time>
            <Position>
              <LatitudeDegrees>38.93130621872842311859130859375</LatitudeDegrees>
              <LongitudeDegrees>-2.8392666019499301910400390625</LongitudeDegrees>
            </Position>
            <AltitudeMeters>835.20001220703125</AltitudeMeters>
            <DistanceMeters>40231.055915044</DistanceMeters>
          </Trackpoint>
          <Trackpoint>
            <Time>2020-01-19T08:36:38.000Z</Time>
            <Position>
              <LatitudeDegrees>38.9312754571437835693359375</LatitudeDegrees>
              <LongitudeDegrees>-2.8391490876674652099609375</LongitudeDegrees>
            </Position>
            <AltitudeMeters>835.79998779296875</AltitudeMeters>
            <DistanceMeters>40241.790990059</DistanceMeters>
          </Trackpoint>
          <Trackpoint>
            <Time>2020-01-19T08:36:39.000Z</Time>
            <Position>
              <LatitudeDegrees>38.93125106580555438995361328125</LatitudeDegrees>
              <LongitudeDegrees>-2.8390915878117084503173828125</LongitudeDegrees>
            </Position>
            <AltitudeMeters>836.4000244140625</AltitudeMeters>
            <DistanceMeters>40247.462421297</DistanceMeters>
          </Trackpoint>
          <Trackpoint>
            <Time>2020-01-19T08:36:49.000Z</Time>
            <Position>
              <LatitudeDegrees>38.9310085773468017578125</LatitudeDegrees>
              <LongitudeDegrees>-2.83853393979370594024658203125</LongitudeDegrees>
            </Position>
            <AltitudeMeters>835.5999755859375</AltitudeMeters>
            <DistanceMeters>40302.776213892</DistanceMeters>
          </Trackpoint>
          <Trackpoint>
            <Time>2020-01-19T08:36:58.000Z</Time>
            <Position>
              <LatitudeDegrees>38.9307914860546588897705078125</LatitudeDegrees>
              <LongitudeDegrees>-2.83801493234932422637939453125</LongitudeDegrees>
            </Position>
            <AltitudeMeters>836</AltitudeMeters>
            <DistanceMeters>40353.797330275</DistanceMeters>
          </Trackpoint>
          <Trackpoint>
            <Time>2020-01-19T08:36:59.000Z</Time>
            <Position>
              <LatitudeDegrees>38.9307631552219390869140625</LatitudeDegrees>
              <LongitudeDegrees>-2.83796212635934352874755859375</LongitudeDegrees>
            </Position>
            <AltitudeMeters>836</AltitudeMeters>
            <DistanceMeters>40359.351314532</DistanceMeters>
          </Trackpoint>
          <Trackpoint>
            <Time>2020-01-19T08:37:01.000Z</Time>
            <Position>
              <LatitudeDegrees>38.9306952618062496185302734375</LatitudeDegrees>
              <LongitudeDegrees>-2.8378768824040889739990234375</LongitudeDegrees>
            </Position>
            <AltitudeMeters>835.79998779296875</AltitudeMeters>
            <DistanceMeters>40369.91510574</DistanceMeters>
          </Trackpoint>
          <Trackpoint>
            <Time>2020-01-19T08:37:03.000Z</Time>
            <Position>
              <LatitudeDegrees>38.93063818104565143585205078125</LatitudeDegrees>
              <LongitudeDegrees>-2.83779717050492763519287109375</LongitudeDegrees>
            </Position>
            <AltitudeMeters>835.4000244140625</AltitudeMeters>
            <DistanceMeters>40379.295354398</DistanceMeters>
          </Trackpoint>
          <Trackpoint>
            <Time>2020-01-19T08:37:05.000Z</Time>
            <Position>
              <LatitudeDegrees>38.9305738918483257293701171875</LatitudeDegrees>
              <LongitudeDegrees>-2.8377179615199565887451171875</LongitudeDegrees>
            </Position>
            <AltitudeMeters>834.79998779296875</AltitudeMeters>
            <DistanceMeters>40389.206417487</DistanceMeters>
          </Trackpoint>
          <Trackpoint>
            <Time>2020-01-19T08:37:08.000Z</Time>
            <Position>
              <LatitudeDegrees>38.93045000731945037841796875</LatitudeDegrees>
              <LongitudeDegrees>-2.837631292641162872314453125</LongitudeDegrees>
            </Position>
            <AltitudeMeters>833.79998779296875</AltitudeMeters>
            <DistanceMeters>40404.904819196</DistanceMeters>
          </Trackpoint>
          <Trackpoint>
            <Time>2020-01-19T08:37:09.000Z</Time>
            <Position>
              <LatitudeDegrees>38.93041002564132213592529296875</LatitudeDegrees>
              <LongitudeDegrees>-2.83759516663849353790283203125</LongitudeDegrees>
            </Position>
            <AltitudeMeters>833.4000244140625</AltitudeMeters>
            <DistanceMeters>40410.343801677</DistanceMeters>
          </Trackpoint>
          <Trackpoint>
            <Time>2020-01-19T08:37:19.000Z</Time>
            <Position>
              <LatitudeDegrees>38.93002915196120738983154296875</LatitudeDegrees>
              <LongitudeDegrees>-2.83725477755069732666015625</LongitudeDegrees>
            </Position>
            <AltitudeMeters>830.79998779296875</AltitudeMeters>
            <DistanceMeters>40461.9738366</DistanceMeters>
          </Trackpoint>
          <Trackpoint>
            <Time>2020-01-19T08:37:21.000Z</Time>
            <Position>
              <LatitudeDegrees>38.9299558103084564208984375</LatitudeDegrees>
              <LongitudeDegrees>-2.8371778316795825958251953125</LongitudeDegrees>
            </Position>
            <AltitudeMeters>830.20001220703125</AltitudeMeters>
            <DistanceMeters>40472.510238253</DistanceMeters>
          </Trackpoint>
          <Trackpoint>
            <Time>2020-01-19T08:37:29.000Z</Time>
            <Position>
              <LatitudeDegrees>38.9296652935445308685302734375</LatitudeDegrees>
              <LongitudeDegrees>-2.8368767537176609039306640625</LongitudeDegrees>
            </Position>
            <AltitudeMeters>832.5999755859375</AltitudeMeters>
            <DistanceMeters>40514.044957394</DistanceMeters>
          </Trackpoint>
          <Trackpoint>
            <Time>2020-01-19T08:37:37.000Z</Time>
            <Position>
              <LatitudeDegrees>38.9294024370610713958740234375</LatitudeDegrees>
              <LongitudeDegrees>-2.8365408070385456085205078125</LongitudeDegrees>
            </Position>
            <AltitudeMeters>837</AltitudeMeters>
            <DistanceMeters>40555.300671647</DistanceMeters>
          </Trackpoint>
          <Trackpoint>
            <Time>2020-01-19T08:37:39.000Z</Time>
            <Position>
              <LatitudeDegrees>38.92934518866240978240966796875</LatitudeDegrees>
              <LongitudeDegrees>-2.83647232688963413238525390625</LongitudeDegrees>
            </Position>
            <AltitudeMeters>837.5999755859375</AltitudeMeters>
            <DistanceMeters>40564.004309467</DistanceMeters>
          </Trackpoint>
          <Trackpoint>
            <Time>2020-01-19T08:37:41.000Z</Time>
            <Position>
              <LatitudeDegrees>38.9292763732373714447021484375</LatitudeDegrees>
              <LongitudeDegrees>-2.8364368714392185211181640625</LongitudeDegrees>
            </Position>
            <AltitudeMeters>838</AltitudeMeters>
            <DistanceMeters>40572.255780632</DistanceMeters>
          </Trackpoint>
          <Trackpoint>
            <Time>2020-01-19T08:37:49.000Z</Time>
            <Position>
              <LatitudeDegrees>38.92890639603137969970703125</LatitudeDegrees>
              <LongitudeDegrees>-2.836464531719684600830078125</LongitudeDegrees>
            </Position>
            <AltitudeMeters>837.20001220703125</AltitudeMeters>
            <DistanceMeters>40613.504380651</DistanceMeters>
          </Trackpoint>
          <Trackpoint>
            <Time>2020-01-19T08:37:59.000Z</Time>
            <Position>
              <LatitudeDegrees>38.9284123666584491729736328125</LatitudeDegrees>
              <LongitudeDegrees>-2.83650116063654422760009765625</LongitudeDegrees>
            </Position>
            <AltitudeMeters>837.20001220703125</AltitudeMeters>
            <DistanceMeters>40668.582179088</DistanceMeters>
          </Trackpoint>
          <Trackpoint>
            <Time>2020-01-19T08:38:09.000Z</Time>
            <Position>
              <LatitudeDegrees>38.92791070975363254547119140625</LatitudeDegrees>
              <LongitudeDegrees>-2.836525551974773406982421875</LongitudeDegrees>
            </Position>
            <AltitudeMeters>838.5999755859375</AltitudeMeters>
            <DistanceMeters>40724.457563916</DistanceMeters>
          </Trackpoint>
          <Trackpoint>
            <Time>2020-01-19T08:38:18.000Z</Time>
            <Position>
              <LatitudeDegrees>38.92746747471392154693603515625</LatitudeDegrees>
              <LongitudeDegrees>-2.83646629191935062408447265625</LongitudeDegrees>
            </Position>
            <AltitudeMeters>837.20001220703125</AltitudeMeters>
            <DistanceMeters>40774.056593399</DistanceMeters>
          </Trackpoint>
          <Trackpoint>
            <Time>2020-01-19T08:38:19.000Z</Time>
            <Position>
              <LatitudeDegrees>38.9274212904274463653564453125</LatitudeDegrees>
              <LongitudeDegrees>-2.8364427387714385986328125</LongitudeDegrees>
            </Position>
            <AltitudeMeters>837</AltitudeMeters>
            <DistanceMeters>40779.58776859</DistanceMeters>
          </Trackpoint>
          <Trackpoint>
            <Time>2020-01-19T08:38:24.000Z</Time>
            <Position>
              <LatitudeDegrees>38.92720998264849185943603515625</LatitudeDegrees>
              <LongitudeDegrees>-2.8362819738686084747314453125</LongitudeDegrees>
            </Position>
            <AltitudeMeters>836.20001220703125</AltitudeMeters>
            <DistanceMeters>40806.917491292</DistanceMeters>
          </Trackpoint>
          <Trackpoint>
            <Time>2020-01-19T08:38:26.000Z</Time>
            <Position>
              <LatitudeDegrees>38.92714326269924640655517578125</LatitudeDegrees>
              <LongitudeDegrees>-2.83618583343923091888427734375</LongitudeDegrees>
            </Position>
            <AltitudeMeters>835.79998779296875</AltitudeMeters>
            <DistanceMeters>40818.072915241</DistanceMeters>
          </Trackpoint>
          <Trackpoint>
            <Time>2020-01-19T08:38:29.000Z</Time>
            <Position>
              <LatitudeDegrees>38.92706480808556079864501953125</LatitudeDegrees>
              <LongitudeDegrees>-2.8360147587954998016357421875</LongitudeDegrees>
            </Position>
            <AltitudeMeters>835.5999755859375</AltitudeMeters>
            <DistanceMeters>40835.268287382</DistanceMeters>
          </Trackpoint>
          <Trackpoint>
            <Time>2020-01-19T08:38:39.000Z</Time>
            <Position>
              <LatitudeDegrees>38.92683950252830982208251953125</LatitudeDegrees>
              <LongitudeDegrees>-2.835412435233592987060546875</LongitudeDegrees>
            </Position>
            <AltitudeMeters>835.5999755859375</AltitudeMeters>
            <DistanceMeters>40893.137449892</DistanceMeters>
          </Trackpoint>
          <Trackpoint>
            <Time>2020-01-19T08:38:41.000Z</Time>
            <Position>
              <LatitudeDegrees>38.92681385390460491180419921875</LatitudeDegrees>
              <LongitudeDegrees>-2.8352835215628147125244140625</LongitudeDegrees>
            </Position>
            <AltitudeMeters>836</AltitudeMeters>
            <DistanceMeters>40904.658826708</DistanceMeters>
          </Trackpoint>
          <Trackpoint>
            <Time>2020-01-19T08:38:44.000Z</Time>
            <Position>
              <LatitudeDegrees>38.92682173289358615875244140625</LatitudeDegrees>
              <LongitudeDegrees>-2.8350806795060634613037109375</LongitudeDegrees>
            </Position>
            <AltitudeMeters>837.20001220703125</AltitudeMeters>
            <DistanceMeters>40922.244161447</DistanceMeters>
          </Trackpoint>
          <Trackpoint>
            <Time>2020-01-19T08:38:49.000Z</Time>
            <Position>
              <LatitudeDegrees>38.926899768412113189697265625</LatitudeDegrees>
              <LongitudeDegrees>-2.8347717225551605224609375</LongitudeDegrees>
            </Position>
            <AltitudeMeters>835.5999755859375</AltitudeMeters>
            <DistanceMeters>40950.370463674</DistanceMeters>
          </Trackpoint>
          <Trackpoint>
            <Time>2020-01-19T08:38:55.000Z</Time>
            <Position>
              <LatitudeDegrees>38.92702423967421054840087890625</LatitudeDegrees>
              <LongitudeDegrees>-2.83448078669607639312744140625</LongitudeDegrees>
            </Position>
            <AltitudeMeters>835</AltitudeMeters>
            <DistanceMeters>40979.119774916</DistanceMeters>
          </Trackpoint>
          <Trackpoint>
            <Time>2020-01-19T08:38:58.000Z</Time>
            <Position>
              <LatitudeDegrees>38.92710864543914794921875</LatitudeDegrees>
              <LongitudeDegrees>-2.83434768207371234893798828125</LongitudeDegrees>
            </Position>
            <AltitudeMeters>834.79998779296875</AltitudeMeters>
            <DistanceMeters>40993.988647152</DistanceMeters>
          </Trackpoint>
          <Trackpoint>
            <Time>2020-01-19T08:38:59.000Z</Time>
            <Position>
              <LatitudeDegrees>38.92714259214699268341064453125</LatitudeDegrees>
              <LongitudeDegrees>-2.83431281335651874542236328125</LongitudeDegrees>
            </Position>
            <AltitudeMeters>834.79998779296875</AltitudeMeters>
            <DistanceMeters>40998.824750748</DistanceMeters>
          </Trackpoint>
          <Trackpoint>
            <Time>2020-01-19T08:39:01.000Z</Time>
            <Position>
              <LatitudeDegrees>38.9272172749042510986328125</LatitudeDegrees>
              <LongitudeDegrees>-2.8342706523835659027099609375</LongitudeDegrees>
            </Position>
            <AltitudeMeters>835.20001220703125</AltitudeMeters>
            <DistanceMeters>41007.903656948</DistanceMeters>
          </Trackpoint>
          <Trackpoint>
            <Time>2020-01-19T08:39:03.000Z</Time>
            <Position>
              <LatitudeDegrees>38.92727636732161045074462890625</LatitudeDegrees>
              <LongitudeDegrees>-2.834222204983234405517578125</LongitudeDegrees>
            </Position>
            <AltitudeMeters>835.20001220703125</AltitudeMeters>
            <DistanceMeters>41015.705112917</DistanceMeters>
          </Trackpoint>
          <Trackpoint>
            <Time>2020-01-19T08:39:09.000Z</Time>
            <Position>
              <LatitudeDegrees>38.927375189960002899169921875</LatitudeDegrees>
              <LongitudeDegrees>-2.8339799679815769195556640625</LongitudeDegrees>
            </Position>
            <AltitudeMeters>835.5999755859375</AltitudeMeters>
            <DistanceMeters>41039.388507908</DistanceMeters>
          </Trackpoint>
          <Trackpoint>
            <Time>2020-01-19T08:39:11.000Z</Time>
            <Position>
              <LatitudeDegrees>38.927401341497898101806640625</LatitudeDegrees>
              <LongitudeDegrees>-2.83388416282832622528076171875</LongitudeDegrees>
            </Position>
            <AltitudeMeters>835.5999755859375</AltitudeMeters>
            <DistanceMeters>41048.179891433</DistanceMeters>
          </Trackpoint>
          <Trackpoint>
            <Time>2020-01-19T08:39:13.000Z</Time>
            <Position>
              <LatitudeDegrees>38.9274065382778644561767578125</LatitudeDegrees>
              <LongitudeDegrees>-2.8337757848203182220458984375</LongitudeDegrees>
            </Position>
            <AltitudeMeters>835.4000244140625</AltitudeMeters>
            <DistanceMeters>41057.581775197</DistanceMeters>
          </Trackpoint>
          <Trackpoint>
            <Time>2020-01-19T08:39:16.000Z</Time>
            <Position>
              <LatitudeDegrees>38.927417434751987457275390625</LatitudeDegrees>
              <LongitudeDegrees>-2.8336155228316783905029296875</LongitudeDegrees>
            </Position>
            <AltitudeMeters>835.4000244140625</AltitudeMeters>
            <DistanceMeters>41071.51121354</DistanceMeters>
          </Trackpoint>
          <Trackpoint>
            <Time>2020-01-19T08:39:18.000Z</Time>
            <Position>
              <LatitudeDegrees>38.927426151931285858154296875</LatitudeDegrees>
              <LongitudeDegrees>-2.83350982703268527984619140625</LongitudeDegrees>
            </Position>
            <AltitudeMeters>835.5999755859375</AltitudeMeters>
            <DistanceMeters>41080.714588847</DistanceMeters>
          </Trackpoint>
          <Trackpoint>
            <Time>2020-01-19T08:39:19.000Z</Time>
            <Position>
              <LatitudeDegrees>38.92743880860507488250732421875</LatitudeDegrees>
              <LongitudeDegrees>-2.83345987088978290557861328125</LongitudeDegrees>
            </Position>
            <AltitudeMeters>835.5999755859375</AltitudeMeters>
            <DistanceMeters>41085.263977291</DistanceMeters>
          </Trackpoint>
          <Trackpoint>
            <Time>2020-01-19T08:39:22.000Z</Time>
            <Position>
              <LatitudeDegrees>38.9274849928915500640869140625</LatitudeDegrees>
              <LongitudeDegrees>-2.83331352286040782928466796875</LongitudeDegrees>
            </Position>
            <AltitudeMeters>835.79998779296875</AltitudeMeters>
            <DistanceMeters>41098.938582331</DistanceMeters>
          </Trackpoint>
          <Trackpoint>
            <Time>2020-01-19T08:39:25.000Z</Time>
            <Position>
              <LatitudeDegrees>38.92753452993929386138916015625</LatitudeDegrees>
              <LongitudeDegrees>-2.83316734246909618377685546875</LongitudeDegrees>
            </Position>
            <AltitudeMeters>836.20001220703125</AltitudeMeters>
            <DistanceMeters>41112.744626427</DistanceMeters>
          </Trackpoint>
          <Trackpoint>
            <Time>2020-01-19T08:39:27.000Z</Time>
            <Position>
              <LatitudeDegrees>38.9275661297142505645751953125</LatitudeDegrees>
              <LongitudeDegrees>-2.83306877128779888153076171875</LongitudeDegrees>
            </Position>
            <AltitudeMeters>836.5999755859375</AltitudeMeters>
            <DistanceMeters>41121.975922728</DistanceMeters>
          </Trackpoint>
          <Trackpoint>
            <Time>2020-01-19T08:39:29.000Z</Time>
            <Position>
              <LatitudeDegrees>38.92760560847818851470947265625</LatitudeDegrees>
              <LongitudeDegrees>-2.83297665417194366455078125</LongitudeDegrees>
            </Position>
            <AltitudeMeters>836.79998779296875</AltitudeMeters>
            <DistanceMeters>41131.08263575</DistanceMeters>
          </Trackpoint>
          <Trackpoint>
            <Time>2020-01-19T08:39:32.000Z</Time>
            <Position>
              <LatitudeDegrees>38.92767316661775112152099609375</LatitudeDegrees>
              <LongitudeDegrees>-2.83284648321568965911865234375</LongitudeDegrees>
            </Position>
            <AltitudeMeters>837.4000244140625</AltitudeMeters>
            <DistanceMeters>41144.631859126</DistanceMeters>
          </Trackpoint>
          <Trackpoint>
            <Time>2020-01-19T08:39:39.000Z</Time>
            <Position>
              <LatitudeDegrees>38.92779101617634296417236328125</LatitudeDegrees>
              <LongitudeDegrees>-2.832544147968292236328125</LongitudeDegrees>
            </Position>
            <AltitudeMeters>838.79998779296875</AltitudeMeters>
            <DistanceMeters>41173.912117283</DistanceMeters>
          </Trackpoint>
          <Trackpoint>
            <Time>2020-01-19T08:39:49.000Z</Time>
            <Position>
              <LatitudeDegrees>38.92774910666048526763916015625</LatitudeDegrees>
              <LongitudeDegrees>-2.8321242146193981170654296875</LongitudeDegrees>
            </Position>
            <AltitudeMeters>840.20001220703125</AltitudeMeters>
            <DistanceMeters>41210.570389012</DistanceMeters>
          </Trackpoint>
          <Trackpoint>
            <Time>2020-01-19T08:39:51.000Z</Time>
            <Position>
              <LatitudeDegrees>38.92774902284145355224609375</LatitudeDegrees>
              <LongitudeDegrees>-2.8320605121552944183349609375</LongitudeDegrees>
            </Position>
            <AltitudeMeters>840.5999755859375</AltitudeMeters>
            <DistanceMeters>41216.086032904</DistanceMeters>
          </Trackpoint>
          <Trackpoint>
            <Time>2020-01-19T08:39:54.000Z</Time>
            <Position>
              <LatitudeDegrees>38.9278159104287624359130859375</LatitudeDegrees>
              <LongitudeDegrees>-2.831986583769321441650390625</LongitudeDegrees>
            </Position>
            <AltitudeMeters>841.5999755859375</AltitudeMeters>
            <DistanceMeters>41225.904642587</DistanceMeters>
          </Trackpoint>
          <Trackpoint>
            <Time>2020-01-19T08:39:57.000Z</Time>
            <Position>
              <LatitudeDegrees>38.9278920181095600128173828125</LatitudeDegrees>
              <LongitudeDegrees>-2.83191584050655364990234375</LongitudeDegrees>
            </Position>
            <AltitudeMeters>843</AltitudeMeters>
            <DistanceMeters>41236.358445012</DistanceMeters>
          </Trackpoint>
          <Trackpoint>
            <Time>2020-01-19T08:39:59.000Z</Time>
            <Position>
              <LatitudeDegrees>38.9279419742524623870849609375</LatitudeDegrees>
              <LongitudeDegrees>-2.831854484975337982177734375</LongitudeDegrees>
            </Position>
            <AltitudeMeters>843.79998779296875</AltitudeMeters>
            <DistanceMeters>41244.047979494</DistanceMeters>
          </Trackpoint>
          <Trackpoint>
            <Time>2020-01-19T08:40:00.000Z</Time>
            <Position>
              <LatitudeDegrees>38.92795530147850513458251953125</LatitudeDegrees>
              <LongitudeDegrees>-2.831812240183353424072265625</LongitudeDegrees>
            </Position>
            <AltitudeMeters>844.20001220703125</AltitudeMeters>
            <DistanceMeters>41247.99473536</DistanceMeters>
          </Trackpoint>
          <Trackpoint>
            <Time>2020-01-19T08:40:04.000Z</Time>
            <Position>
              <LatitudeDegrees>38.9279449917376041412353515625</LatitudeDegrees>
              <LongitudeDegrees>-2.83163764514029026031494140625</LongitudeDegrees>
            </Position>
            <AltitudeMeters>844.79998779296875</AltitudeMeters>
            <DistanceMeters>41263.155591728</DistanceMeters>
          </Trackpoint>
          <Trackpoint>
            <Time>2020-01-19T08:40:09.000Z</Time>
            <Position>
              <LatitudeDegrees>38.92790257930755615234375</LatitudeDegrees>
              <LongitudeDegrees>-2.83143128268420696258544921875</LongitudeDegrees>
            </Position>
            <AltitudeMeters>845.5999755859375</AltitudeMeters>
            <DistanceMeters>41281.636760831</DistanceMeters>
          </Trackpoint>
          <Trackpoint>
            <Time>2020-01-19T08:40:19.000Z</Time>
            <Position>
              <LatitudeDegrees>38.92781473696231842041015625</LatitudeDegrees>
              <LongitudeDegrees>-2.831021659076213836669921875</LongitudeDegrees>
            </Position>
            <AltitudeMeters>847</AltitudeMeters>
            <DistanceMeters>41318.427197337</DistanceMeters>
          </Trackpoint>
          <Trackpoint>
            <Time>2020-01-19T08:40:25.000Z</Time>
            <Position>
              <LatitudeDegrees>38.927814401686191558837890625</LatitudeDegrees>
              <LongitudeDegrees>-2.8307884745299816131591796875</LongitudeDegrees>
            </Position>
            <AltitudeMeters>848.5999755859375</AltitudeMeters>
            <DistanceMeters>41338.61808219</DistanceMeters>
          </Trackpoint>
          <Trackpoint>
            <Time>2020-01-19T08:40:29.000Z</Time>
            <Position>
              <LatitudeDegrees>38.9278514496982097625732421875</LatitudeDegrees>
              <LongitudeDegrees>-2.83064581453800201416015625</LongitudeDegrees>
            </Position>
            <AltitudeMeters>850</AltitudeMeters>
            <DistanceMeters>41351.640556441</DistanceMeters>
          </Trackpoint>
          <Trackpoint>
            <Time>2020-01-19T08:40:33.000Z</Time>
            <Position>
              <LatitudeDegrees>38.92787047661840915679931640625</LatitudeDegrees>
              <LongitudeDegrees>-2.8305011428892612457275390625</LongitudeDegrees>
            </Position>
            <AltitudeMeters>851.20001220703125</AltitudeMeters>
            <DistanceMeters>41364.345027558</DistanceMeters>
          </Trackpoint>
          <Trackpoint>
            <Time>2020-01-19T08:40:39.000Z</Time>
            <Position>
              <LatitudeDegrees>38.927863352000713348388671875</LatitudeDegrees>
              <LongitudeDegrees>-2.830282710492610931396484375</LongitudeDegrees>
            </Position>
            <AltitudeMeters>852.79998779296875</AltitudeMeters>
            <DistanceMeters>41383.275150474</DistanceMeters>
          </Trackpoint>
          <Trackpoint>
            <Time>2020-01-19T08:40:49.000Z</Time>
            <Position>
              <LatitudeDegrees>38.9279104582965373992919921875</LatitudeDegrees>
              <LongitudeDegrees>-2.8299378789961338043212890625</LongitudeDegrees>
            </Position>
            <AltitudeMeters>855.4000244140625</AltitudeMeters>
            <DistanceMeters>41413.589714953</DistanceMeters>
          </Trackpoint>
          <Trackpoint>
            <Time>2020-01-19T08:40:59.000Z</Time>
            <Position>
              <LatitudeDegrees>38.927951194345951080322265625</LatitudeDegrees>
              <LongitudeDegrees>-2.82955625094473361968994140625</LongitudeDegrees>
            </Position>
            <AltitudeMeters>857</AltitudeMeters>
            <DistanceMeters>41446.942873383</DistanceMeters>
          </Trackpoint>
          <Trackpoint>
            <Time>2020-01-19T08:41:09.000Z</Time>
            <Position>
              <LatitudeDegrees>38.927827142179012298583984375</LatitudeDegrees>
              <LongitudeDegrees>-2.82916431315243244171142578125</LongitudeDegrees>
            </Position>
            <AltitudeMeters>856.5999755859375</AltitudeMeters>
            <DistanceMeters>41483.580570682</DistanceMeters>
          </Trackpoint>
          <Trackpoint>
            <Time>2020-01-19T08:41:17.000Z</Time>
            <Position>
              <LatitudeDegrees>38.92762832343578338623046875</LatitudeDegrees>
              <LongitudeDegrees>-2.8288934938609600067138671875</LongitudeDegrees>
            </Position>
            <AltitudeMeters>856</AltitudeMeters>
            <DistanceMeters>41515.822786183</DistanceMeters>
          </Trackpoint>
          <Trackpoint>
            <Time>2020-01-19T08:41:19.000Z</Time>
            <Position>
              <LatitudeDegrees>38.9275812171399593353271484375</LatitudeDegrees>
              <LongitudeDegrees>-2.82882115803658962249755859375</LongitudeDegrees>
            </Position>
            <AltitudeMeters>856</AltitudeMeters>
            <DistanceMeters>41523.990109777</DistanceMeters>
          </Trackpoint>
          <Trackpoint>
            <Time>2020-01-19T08:41:27.000Z</Time>
            <Position>
              <LatitudeDegrees>38.9274035207927227020263671875</LatitudeDegrees>
              <LongitudeDegrees>-2.82849711365997791290283203125</LongitudeDegrees>
            </Position>
            <AltitudeMeters>856</AltitudeMeters>
            <DistanceMeters>41558.318041783</DistanceMeters>
          </Trackpoint>
          <Trackpoint>
            <Time>2020-01-19T08:41:29.000Z</Time>
            <Position>
              <LatitudeDegrees>38.92737125046551227569580078125</LatitudeDegrees>
              <LongitudeDegrees>-2.828398458659648895263671875</LongitudeDegrees>
            </Position>
            <AltitudeMeters>855.79998779296875</AltitudeMeters>
            <DistanceMeters>41567.58497369</DistanceMeters>
          </Trackpoint>
          <Trackpoint>
            <Time>2020-01-19T08:41:37.000Z</Time>
            <Position>
              <LatitudeDegrees>38.92720629461109638214111328125</LatitudeDegrees>
              <LongitudeDegrees>-2.82798967324197292327880859375</LongitudeDegrees>
            </Position>
            <AltitudeMeters>855.79998779296875</AltitudeMeters>
            <DistanceMeters>41607.45861786</DistanceMeters>
          </Trackpoint>
          <Trackpoint>
            <Time>2020-01-19T08:41:39.000Z</Time>
            <Position>
              <LatitudeDegrees>38.92716740258038043975830078125</LatitudeDegrees>
              <LongitudeDegrees>-2.82788154669106006622314453125</LongitudeDegrees>
            </Position>
            <AltitudeMeters>855.79998779296875</AltitudeMeters>
            <DistanceMeters>41617.773285119</DistanceMeters>
          </Trackpoint>
          <Trackpoint>
            <Time>2020-01-19T08:41:48.000Z</Time>
            <Position>
              <LatitudeDegrees>38.92699440009891986846923828125</LatitudeDegrees>
              <LongitudeDegrees>-2.8273793868720531463623046875</LongitudeDegrees>
            </Position>
            <AltitudeMeters>856.5999755859375</AltitudeMeters>
            <DistanceMeters>41665.326726669</DistanceMeters>
          </Trackpoint>
          <Trackpoint>
            <Time>2020-01-19T08:41:49.000Z</Time>
            <Position>
              <LatitudeDegrees>38.926972858607769012451171875</LatitudeDegrees>
              <LongitudeDegrees>-2.827323563396930694580078125</LongitudeDegrees>
            </Position>
            <AltitudeMeters>856.20001220703125</AltitudeMeters>
            <DistanceMeters>41670.722369953</DistanceMeters>
          </Trackpoint>
          <Trackpoint>
            <Time>2020-01-19T08:41:54.000Z</Time>
            <Position>
              <LatitudeDegrees>38.926876299083232879638671875</LatitudeDegrees>
              <LongitudeDegrees>-2.82703966833651065826416015625</LongitudeDegrees>
            </Position>
            <AltitudeMeters>855.5999755859375</AltitudeMeters>
            <DistanceMeters>41697.550718824</DistanceMeters>
          </Trackpoint>
          <Trackpoint>
            <Time>2020-01-19T08:41:57.000Z</Time>
            <Position>
              <LatitudeDegrees>38.92682005651295185089111328125</LatitudeDegrees>
              <LongitudeDegrees>-2.82687337137758731842041015625</LongitudeDegrees>
            </Position>
            <AltitudeMeters>855.5999755859375</AltitudeMeters>
            <DistanceMeters>41713.251996383</DistanceMeters>
          </Trackpoint>
          <Trackpoint>
            <Time>2020-01-19T08:41:59.000Z</Time>
            <Position>
              <LatitudeDegrees>38.92678401432931423187255859375</LatitudeDegrees>
              <LongitudeDegrees>-2.8267644904553890228271484375</LongitudeDegrees>
            </Position>
            <AltitudeMeters>855.5999755859375</AltitudeMeters>
            <DistanceMeters>41723.498150234</DistanceMeters>
          </Trackpoint>
          <Trackpoint>
            <Time>2020-01-19T08:42:09.000Z</Time>
            <Position>
              <LatitudeDegrees>38.9266032166779041290283203125</LatitudeDegrees>
              <LongitudeDegrees>-2.826219499111175537109375</LongitudeDegrees>
            </Position>
            <AltitudeMeters>861.5999755859375</AltitudeMeters>
            <DistanceMeters>41774.79911211</DistanceMeters>
          </Trackpoint>
          <Trackpoint>
            <Time>2020-01-19T08:42:16.000Z</Time>
            <Position>
              <LatitudeDegrees>38.9264888875186443328857421875</LatitudeDegrees>
              <LongitudeDegrees>-2.82581984996795654296875</LongitudeDegrees>
            </Position>
            <AltitudeMeters>860.5999755859375</AltitudeMeters>
            <DistanceMeters>41811.669477286</DistanceMeters>
          </Trackpoint>
          <Trackpoint>
            <Time>2020-01-19T08:42:19.000Z</Time>
            <Position>
              <LatitudeDegrees>38.92643633298575878143310546875</LatitudeDegrees>
              <LongitudeDegrees>-2.82564844004809856414794921875</LongitudeDegrees>
            </Position>
            <AltitudeMeters>861.4000244140625</AltitudeMeters>
            <DistanceMeters>41827.622648585</DistanceMeters>
          </Trackpoint>
          <Trackpoint>
            <Time>2020-01-19T08:42:29.000Z</Time>
            <Position>
              <LatitudeDegrees>38.92625193111598491668701171875</LatitudeDegrees>
              <LongitudeDegrees>-2.82508316449820995330810546875</LongitudeDegrees>
            </Position>
            <AltitudeMeters>860</AltitudeMeters>
            <DistanceMeters>41880.697769564</DistanceMeters>
          </Trackpoint>
          <Trackpoint>
            <Time>2020-01-19T08:42:31.000Z</Time>
            <Position>
              <LatitudeDegrees>38.92623089253902435302734375</LatitudeDegrees>
              <LongitudeDegrees>-2.8249680809676647186279296875</LongitudeDegrees>
            </Position>
            <AltitudeMeters>860</AltitudeMeters>
            <DistanceMeters>41890.933783289</DistanceMeters>
          </Trackpoint>
          <Trackpoint>
            <Time>2020-01-19T08:42:38.000Z</Time>
            <Position>
              <LatitudeDegrees>38.92617112956941127777099609375</LatitudeDegrees>
              <LongitudeDegrees>-2.82452191226184368133544921875</LongitudeDegrees>
            </Position>
            <AltitudeMeters>859.20001220703125</AltitudeMeters>
            <DistanceMeters>41930.135153665</DistanceMeters>
          </Trackpoint>
          <Trackpoint>
            <Time>2020-01-19T08:42:39.000Z</Time>
            <Position>
              <LatitudeDegrees>38.926172554492950439453125</LatitudeDegrees>
              <LongitudeDegrees>-2.82445619814097881317138671875</LongitudeDegrees>
            </Position>
            <AltitudeMeters>859.4000244140625</AltitudeMeters>
            <DistanceMeters>41935.827245924</DistanceMeters>
          </Trackpoint>
          <Trackpoint>
            <Time>2020-01-19T08:42:42.000Z</Time>
            <Position>
              <LatitudeDegrees>38.92617515288293361663818359375</LatitudeDegrees>
              <LongitudeDegrees>-2.82425545156002044677734375</LongitudeDegrees>
            </Position>
            <AltitudeMeters>859.79998779296875</AltitudeMeters>
            <DistanceMeters>41953.212200873</DistanceMeters>
          </Trackpoint>
          <Trackpoint>
            <Time>2020-01-19T08:42:48.000Z</Time>
            <Position>
              <LatitudeDegrees>38.92618873156607151031494140625</LatitudeDegrees>
              <LongitudeDegrees>-2.82386493869125843048095703125</LongitudeDegrees>
            </Position>
            <AltitudeMeters>858.5999755859375</AltitudeMeters>
            <DistanceMeters>41987.059590705</DistanceMeters>
          </Trackpoint>
          <Trackpoint>
            <Time>2020-01-19T08:42:49.000Z</Time>
            <Position>
              <LatitudeDegrees>38.926197700202465057373046875</LatitudeDegrees>
              <LongitudeDegrees>-2.82380106858909130096435546875</LongitudeDegrees>
            </Position>
            <AltitudeMeters>858.4000244140625</AltitudeMeters>
            <DistanceMeters>41992.679037059</DistanceMeters>
          </Trackpoint>
          <Trackpoint>
            <Time>2020-01-19T08:42:59.000Z</Time>
            <Position>
              <LatitudeDegrees>38.92630456946790218353271484375</LatitudeDegrees>
              <LongitudeDegrees>-2.8231750242412090301513671875</LongitudeDegrees>
            </Position>
            <AltitudeMeters>857.4000244140625</AltitudeMeters>
            <DistanceMeters>42048.17659082</DistanceMeters>
          </Trackpoint>
          <Trackpoint>
            <Time>2020-01-19T08:43:07.000Z</Time>
            <Position>
              <LatitudeDegrees>38.92642493359744548797607421875</LatitudeDegrees>
              <LongitudeDegrees>-2.8226707689464092254638671875</LongitudeDegrees>
            </Position>
            <AltitudeMeters>859.4000244140625</AltitudeMeters>
            <DistanceMeters>42093.847975931</DistanceMeters>
          </Trackpoint>
          <Trackpoint>
            <Time>2020-01-19T08:43:09.000Z</Time>
            <Position>
              <LatitudeDegrees>38.9264560304582118988037109375</LatitudeDegrees>
              <LongitudeDegrees>-2.822544872760772705078125</LongitudeDegrees>
            </Position>
            <AltitudeMeters>859.79998779296875</AltitudeMeters>
            <DistanceMeters>42105.285576966</DistanceMeters>
          </Trackpoint>
          <Trackpoint>
            <Time>2020-01-19T08:43:12.000Z</Time>
            <Position>
              <LatitudeDegrees>38.92651109956204891204833984375</LatitudeDegrees>
              <LongitudeDegrees>-2.82235921360552310943603515625</LongitudeDegrees>
            </Position>
            <AltitudeMeters>859</AltitudeMeters>
            <DistanceMeters>42122.490399134</DistanceMeters>
          </Trackpoint>
          <Trackpoint>
            <Time>2020-01-19T08:43:17.000Z</Time>
            <Position>
              <LatitudeDegrees>38.92664487473666667938232421875</LatitudeDegrees>
              <LongitudeDegrees>-2.8220766596496105194091796875</LongitudeDegrees>
            </Position>
            <AltitudeMeters>858.79998779296875</AltitudeMeters>
            <DistanceMeters>42151.130826576</DistanceMeters>
          </Trackpoint>
          <Trackpoint>
            <Time>2020-01-19T08:43:19.000Z</Time>
            <Position>
              <LatitudeDegrees>38.92669918946921825408935546875</LatitudeDegrees>
              <LongitudeDegrees>-2.821981273591518402099609375</LongitudeDegrees>
            </Position>
            <AltitudeMeters>858.79998779296875</AltitudeMeters>
            <DistanceMeters>42161.366399198</DistanceMeters>
          </Trackpoint>
          <Trackpoint>
            <Time>2020-01-19T08:43:21.000Z</Time>
            <Position>
              <LatitudeDegrees>38.926742859184741973876953125</LatitudeDegrees>
              <LongitudeDegrees>-2.82187557779252529144287109375</LongitudeDegrees>
            </Position>
            <AltitudeMeters>858.5999755859375</AltitudeMeters>
            <DistanceMeters>42171.729104881</DistanceMeters>
          </Trackpoint>
          <Trackpoint>
            <Time>2020-01-19T08:43:23.000Z</Time>
            <Position>
              <LatitudeDegrees>38.9267889596521854400634765625</LatitudeDegrees>
              <LongitudeDegrees>-2.8217631764709949493408203125</LongitudeDegrees>
            </Position>
            <AltitudeMeters>859</AltitudeMeters>
            <DistanceMeters>42182.730884039</DistanceMeters>
          </Trackpoint>
          <Trackpoint>
            <Time>2020-01-19T08:43:29.000Z</Time>
            <Position>
              <LatitudeDegrees>38.92686749808490276336669921875</LatitudeDegrees>
              <LongitudeDegrees>-2.82139713875949382781982421875</LongitudeDegrees>
            </Position>
            <AltitudeMeters>858.20001220703125</AltitudeMeters>
            <DistanceMeters>42215.608479308</DistanceMeters>
          </Trackpoint>
          <Trackpoint>
            <Time>2020-01-19T08:43:31.000Z</Time>
            <Position>
              <LatitudeDegrees>38.926861546933650970458984375</LatitudeDegrees>
              <LongitudeDegrees>-2.8212719969451427459716796875</LongitudeDegrees>
            </Position>
            <AltitudeMeters>857.4000244140625</AltitudeMeters>
            <DistanceMeters>42226.464423655</DistanceMeters>
          </Trackpoint>
          <Trackpoint>
            <Time>2020-01-19T08:43:34.000Z</Time>
            <Position>
              <LatitudeDegrees>38.92684914171695709228515625</LatitudeDegrees>
              <LongitudeDegrees>-2.82107845880091190338134765625</LongitudeDegrees>
            </Position>
            <AltitudeMeters>856.4000244140625</AltitudeMeters>
            <DistanceMeters>42243.279051021</DistanceMeters>
          </Trackpoint>
          <Trackpoint>
            <Time>2020-01-19T08:43:37.000Z</Time>
            <Position>
              <LatitudeDegrees>38.92687168903648853302001953125</LatitudeDegrees>
              <LongitudeDegrees>-2.82088869251310825347900390625</LongitudeDegrees>
            </Position>
            <AltitudeMeters>855.79998779296875</AltitudeMeters>
            <DistanceMeters>42259.900850529</DistanceMeters>
          </Trackpoint>
          <Trackpoint>
            <Time>2020-01-19T08:43:39.000Z</Time>
            <Position>
              <LatitudeDegrees>38.9268650673329830169677734375</LatitudeDegrees>
              <LongitudeDegrees>-2.8207543306052684783935546875</LongitudeDegrees>
            </Position>
            <AltitudeMeters>855.79998779296875</AltitudeMeters>
            <DistanceMeters>42271.558579746</DistanceMeters>
          </Trackpoint>
          <Trackpoint>
            <Time>2020-01-19T08:43:40.000Z</Time>
            <Position>
              <LatitudeDegrees>38.926853835582733154296875</LatitudeDegrees>
              <LongitudeDegrees>-2.8206889517605304718017578125</LongitudeDegrees>
            </Position>
            <AltitudeMeters>855.79998779296875</AltitudeMeters>
            <DistanceMeters>42277.355988177</DistanceMeters>
          </Trackpoint>
          <Trackpoint>
            <Time>2020-01-19T08:43:42.000Z</Time>
            <Position>
              <LatitudeDegrees>38.92683363519608974456787109375</LatitudeDegrees>
              <LongitudeDegrees>-2.82056749798357486724853515625</LongitudeDegrees>
            </Position>
            <AltitudeMeters>855.79998779296875</AltitudeMeters>
            <DistanceMeters>42288.110392814</DistanceMeters>
          </Trackpoint>
          <Trackpoint>
            <Time>2020-01-19T08:43:44.000Z</Time>
            <Position>
              <LatitudeDegrees>38.92684050835669040679931640625</LatitudeDegrees>
              <LongitudeDegrees>-2.820453755557537078857421875</LongitudeDegrees>
            </Position>
            <AltitudeMeters>855.79998779296875</AltitudeMeters>
            <DistanceMeters>42297.98860146</DistanceMeters>
          </Trackpoint>
          <Trackpoint>
            <Time>2020-01-19T08:43:46.000Z</Time>
            <Position>
              <LatitudeDegrees>38.92685928381979465484619140625</LatitudeDegrees>
              <LongitudeDegrees>-2.8203473053872585296630859375</LongitudeDegrees>
            </Position>
            <AltitudeMeters>855.79998779296875</AltitudeMeters>
            <DistanceMeters>42307.440296877</DistanceMeters>
          </Trackpoint>
          <Trackpoint>
            <Time>2020-01-19T08:43:48.000Z</Time>
            <Position>
              <LatitudeDegrees>38.92690974287688732147216796875</LatitudeDegrees>
              <LongitudeDegrees>-2.82025099731981754302978515625</LongitudeDegrees>
            </Position>
            <AltitudeMeters>856</AltitudeMeters>
            <DistanceMeters>42317.494284928</DistanceMeters>
          </Trackpoint>
          <Trackpoint>
            <Time>2020-01-19T08:43:49.000Z</Time>
            <Position>
              <LatitudeDegrees>38.92694444395601749420166015625</LatitudeDegrees>
              <LongitudeDegrees>-2.8202131949365139007568359375</LongitudeDegrees>
            </Position>
            <AltitudeMeters>856.5999755859375</AltitudeMeters>
            <DistanceMeters>42322.556631908</DistanceMeters>
          </Trackpoint>
          <Trackpoint>
            <Time>2020-01-19T08:43:52.000Z</Time>
            <Position>
              <LatitudeDegrees>38.92706514336168766021728515625</LatitudeDegrees>
              <LongitudeDegrees>-2.82011923380196094512939453125</LongitudeDegrees>
            </Position>
            <AltitudeMeters>858.5999755859375</AltitudeMeters>
            <DistanceMeters>42338.262222255</DistanceMeters>
          </Trackpoint>
          <Trackpoint>
            <Time>2020-01-19T08:43:54.000Z</Time>
            <Position>
              <LatitudeDegrees>38.9271403290331363677978515625</LatitudeDegrees>
              <LongitudeDegrees>-2.82005645334720611572265625</LongitudeDegrees>
            </Position>
            <AltitudeMeters>859.5999755859375</AltitudeMeters>
            <DistanceMeters>42348.241384696</DistanceMeters>
          </Trackpoint>
          <Trackpoint>
            <Time>2020-01-19T08:43:56.000Z</Time>
            <Position>
              <LatitudeDegrees>38.92721082083880901336669921875</LatitudeDegrees>
              <LongitudeDegrees>-2.81998713500797748565673828125</LongitudeDegrees>
            </Position>
            <AltitudeMeters>861</AltitudeMeters>
            <DistanceMeters>42358.119593342</DistanceMeters>
          </Trackpoint>
          <Trackpoint>
            <Time>2020-01-19T08:43:58.000Z</Time>
            <Position>
              <LatitudeDegrees>38.92726547084748744964599609375</LatitudeDegrees>
              <LongitudeDegrees>-2.8198936767876148223876953125</LongitudeDegrees>
            </Position>
            <AltitudeMeters>862</AltitudeMeters>
            <DistanceMeters>42368.243395376</DistanceMeters>
          </Trackpoint>
          <Trackpoint>
            <Time>2020-01-19T08:43:59.000Z</Time>
            <Position>
              <LatitudeDegrees>38.92728558741509914398193359375</LatitudeDegrees>
              <LongitudeDegrees>-2.8198413737118244171142578125</LongitudeDegrees>
            </Position>
            <AltitudeMeters>862.4000244140625</AltitudeMeters>
            <DistanceMeters>42373.295028383</DistanceMeters>
          </Trackpoint>
          <Trackpoint>
            <Time>2020-01-19T08:44:00.000Z</Time>
            <Position>
              <LatitudeDegrees>38.92729899846017360687255859375</LatitudeDegrees>
              <LongitudeDegrees>-2.8197860531508922576904296875</LongitudeDegrees>
            </Position>
            <AltitudeMeters>862.79998779296875</AltitudeMeters>
            <DistanceMeters>42378.31168295</DistanceMeters>
          </Trackpoint>
          <Trackpoint>
            <Time>2020-01-19T08:44:03.000Z</Time>
            <Position>
              <LatitudeDegrees>38.92730109393596649169921875</LatitudeDegrees>
              <LongitudeDegrees>-2.8196274675428867340087890625</LongitudeDegrees>
            </Position>
            <AltitudeMeters>863.20001220703125</AltitudeMeters>
            <DistanceMeters>42392.044933716</DistanceMeters>
          </Trackpoint>
          <Trackpoint>
            <Time>2020-01-19T08:44:09.000Z</Time>
            <Position>
              <LatitudeDegrees>38.92727427184581756591796875</LatitudeDegrees>
              <LongitudeDegrees>-2.8193518705666065216064453125</LongitudeDegrees>
            </Position>
            <AltitudeMeters>863.4000244140625</AltitudeMeters>
            <DistanceMeters>42416.09401553</DistanceMeters>
          </Trackpoint>
          <Trackpoint>
            <Time>2020-01-19T08:44:13.000Z</Time>
            <Position>
              <LatitudeDegrees>38.92724887467920780181884765625</LatitudeDegrees>
              <LongitudeDegrees>-2.819181047379970550537109375</LongitudeDegrees>
            </Position>
            <AltitudeMeters>863.79998779296875</AltitudeMeters>
            <DistanceMeters>42431.152676814</DistanceMeters>
          </Trackpoint>
          <Trackpoint>
            <Time>2020-01-19T08:44:18.000Z</Time>
            <Position>
              <LatitudeDegrees>38.92720025964081287384033203125</LatitudeDegrees>
              <LongitudeDegrees>-2.8189864195883274078369140625</LongitudeDegrees>
            </Position>
            <AltitudeMeters>864.79998779296875</AltitudeMeters>
            <DistanceMeters>42448.852151721</DistanceMeters>
          </Trackpoint>
          <Trackpoint>
            <Time>2020-01-19T08:44:25.000Z</Time>
            <Position>
              <LatitudeDegrees>38.92708006314933300018310546875</LatitudeDegrees>
              <LongitudeDegrees>-2.81869925558567047119140625</LongitudeDegrees>
            </Position>
            <AltitudeMeters>863.20001220703125</AltitudeMeters>
            <DistanceMeters>42477.08740148</DistanceMeters>
          </Trackpoint>
          <Trackpoint>
            <Time>2020-01-19T08:44:26.000Z</Time>
            <Position>
              <LatitudeDegrees>38.9270578511059284210205078125</LatitudeDegrees>
              <LongitudeDegrees>-2.818655334413051605224609375</LongitudeDegrees>
            </Position>
            <AltitudeMeters>862.79998779296875</AltitudeMeters>
            <DistanceMeters>42481.622874348</DistanceMeters>
          </Trackpoint>
          <Trackpoint>
            <Time>2020-01-19T08:44:29.000Z</Time>
            <Position>
              <LatitudeDegrees>38.9269807375967502593994140625</LatitudeDegrees>
              <LongitudeDegrees>-2.81852331943809986114501953125</LongitudeDegrees>
            </Position>
            <AltitudeMeters>861.4000244140625</AltitudeMeters>
            <DistanceMeters>42495.917368735</DistanceMeters>
          </Trackpoint>
          <Trackpoint>
            <Time>2020-01-19T08:44:39.000Z</Time>
            <Position>
              <LatitudeDegrees>38.92673606984317302703857421875</LatitudeDegrees>
              <LongitudeDegrees>-2.81805150210857391357421875</LongitudeDegrees>
            </Position>
            <AltitudeMeters>860</AltitudeMeters>
            <DistanceMeters>42545.015015387</DistanceMeters>
          </Trackpoint>
          <Trackpoint>
            <Time>2020-01-19T08:44:40.000Z</Time>
            <Position>
              <LatitudeDegrees>38.92671394161880016326904296875</LatitudeDegrees>
              <LongitudeDegrees>-2.81799693591892719268798828125</LongitudeDegrees>
            </Position>
            <AltitudeMeters>860</AltitudeMeters>
            <DistanceMeters>42550.34244725</DistanceMeters>
          </Trackpoint>
          <Trackpoint>
            <Time>2020-01-19T08:44:45.000Z</Time>
            <Position>
              <LatitudeDegrees>38.92665334045886993408203125</LatitudeDegrees>
              <LongitudeDegrees>-2.81770222820341587066650390625</LongitudeDegrees>
            </Position>
            <AltitudeMeters>859.79998779296875</AltitudeMeters>
            <DistanceMeters>42576.736619666</DistanceMeters>
          </Trackpoint>
          <Trackpoint>
            <Time>2020-01-19T08:44:48.000Z</Time>
            <Position>
              <LatitudeDegrees>38.9266679249703884124755859375</LatitudeDegrees>
              <LongitudeDegrees>-2.81750944443047046661376953125</LongitudeDegrees>
            </Position>
            <AltitudeMeters>859.5999755859375</AltitudeMeters>
            <DistanceMeters>42593.508229047</DistanceMeters>
          </Trackpoint>
          <Trackpoint>
            <Time>2020-01-19T08:44:49.000Z</Time>
            <Position>
              <LatitudeDegrees>38.9266754686832427978515625</LatitudeDegrees>
              <LongitudeDegrees>-2.81744171865284442901611328125</LongitudeDegrees>
            </Position>
            <AltitudeMeters>859.4000244140625</AltitudeMeters>
            <DistanceMeters>42599.431984364</DistanceMeters>
          </Trackpoint>
          <Trackpoint>
            <Time>2020-01-19T08:44:54.000Z</Time>
            <Position>
              <LatitudeDegrees>38.92671578563749790191650390625</LatitudeDegrees>
              <LongitudeDegrees>-2.81707224436104297637939453125</LongitudeDegrees>
            </Position>
            <AltitudeMeters>859.20001220703125</AltitudeMeters>
            <DistanceMeters>42631.737154149</DistanceMeters>
          </Trackpoint>
          <Trackpoint>
            <Time>2020-01-19T08:44:59.000Z</Time>
            <Position>
              <LatitudeDegrees>38.9267463795840740203857421875</LatitudeDegrees>
              <LongitudeDegrees>-2.81663940288126468658447265625</LongitudeDegrees>
            </Position>
            <AltitudeMeters>858.5999755859375</AltitudeMeters>
            <DistanceMeters>42669.370132627</DistanceMeters>
          </Trackpoint>
          <Trackpoint>
            <Time>2020-01-19T08:45:02.000Z</Time>
            <Position>
              <LatitudeDegrees>38.92674897797405719757080078125</LatitudeDegrees>
              <LongitudeDegrees>-2.81635634601116180419921875</LongitudeDegrees>
            </Position>
            <AltitudeMeters>858.20001220703125</AltitudeMeters>
            <DistanceMeters>42693.880946891</DistanceMeters>
          </Trackpoint>
          <Trackpoint>
            <Time>2020-01-19T08:45:03.000Z</Time>
            <Position>
              <LatitudeDegrees>38.9267532527446746826171875</LatitudeDegrees>
              <LongitudeDegrees>-2.8162626363337039947509765625</LongitudeDegrees>
            </Position>
            <AltitudeMeters>858.20001220703125</AltitudeMeters>
            <DistanceMeters>42702.008925685</DistanceMeters>
          </Trackpoint>
          <Trackpoint>
            <Time>2020-01-19T08:45:05.000Z</Time>
            <Position>
              <LatitudeDegrees>38.926771692931652069091796875</LatitudeDegrees>
              <LongitudeDegrees>-2.8160765580832958221435546875</LongitudeDegrees>
            </Position>
            <AltitudeMeters>858.20001220703125</AltitudeMeters>
            <DistanceMeters>42718.251267982</DistanceMeters>
          </Trackpoint>
          <Trackpoint>
            <Time>2020-01-19T08:45:07.000Z</Time>
            <Position>
              <LatitudeDegrees>38.926811926066875457763671875</LatitudeDegrees>
              <LongitudeDegrees>-2.81591017730534076690673828125</LongitudeDegrees>
            </Position>
            <AltitudeMeters>858.4000244140625</AltitudeMeters>
            <DistanceMeters>42733.337488406</DistanceMeters>
          </Trackpoint>
          <Trackpoint>
            <Time>2020-01-19T08:45:09.000Z</Time>
            <Position>
              <LatitudeDegrees>38.9268590323626995086669921875</LatitudeDegrees>
              <LongitudeDegrees>-2.8157629072666168212890625</LongitudeDegrees>
            </Position>
            <AltitudeMeters>857.79998779296875</AltitudeMeters>
            <DistanceMeters>42747.124551515</DistanceMeters>
          </Trackpoint>
          <Trackpoint>
            <Time>2020-01-19T08:45:12.000Z</Time>
            <Position>
              <LatitudeDegrees>38.9269361458718776702880859375</LatitudeDegrees>
              <LongitudeDegrees>-2.8155598975718021392822265625</LongitudeDegrees>
            </Position>
            <AltitudeMeters>857.4000244140625</AltitudeMeters>
            <DistanceMeters>42766.686210938</DistanceMeters>
          </Trackpoint>
          <Trackpoint>
            <Time>2020-01-19T08:45:15.000Z</Time>
            <Position>
              <LatitudeDegrees>38.9269971661269664764404296875</LatitudeDegrees>
              <LongitudeDegrees>-2.8153600730001926422119140625</LongitudeDegrees>
            </Position>
            <AltitudeMeters>857.5999755859375</AltitudeMeters>
            <DistanceMeters>42785.273591731</DistanceMeters>
          </Trackpoint>
          <Trackpoint>
            <Time>2020-01-19T08:45:19.000Z</Time>
            <Position>
              <LatitudeDegrees>38.92701049335300922393798828125</LatitudeDegrees>
              <LongitudeDegrees>-2.8151009045541286468505859375</LongitudeDegrees>
            </Position>
            <AltitudeMeters>856.20001220703125</AltitudeMeters>
            <DistanceMeters>42807.763225158</DistanceMeters>
          </Trackpoint>
          <Trackpoint>
            <Time>2020-01-19T08:45:26.000Z</Time>
            <Position>
              <LatitudeDegrees>38.927014432847499847412109375</LatitudeDegrees>
              <LongitudeDegrees>-2.814631350338459014892578125</LongitudeDegrees>
            </Position>
            <AltitudeMeters>856.79998779296875</AltitudeMeters>
            <DistanceMeters>42848.422889879</DistanceMeters>
          </Trackpoint>
          <Trackpoint>
            <Time>2020-01-19T08:45:29.000Z</Time>
            <Position>
              <LatitudeDegrees>38.926988951861858367919921875</LatitudeDegrees>
              <LongitudeDegrees>-2.81441970728337764739990234375</LongitudeDegrees>
            </Position>
            <AltitudeMeters>856</AltitudeMeters>
            <DistanceMeters>42866.9669825</DistanceMeters>
          </Trackpoint>
          <Trackpoint>
            <Time>2020-01-19T08:45:37.000Z</Time>
            <Position>
              <LatitudeDegrees>38.926923573017120361328125</LatitudeDegrees>
              <LongitudeDegrees>-2.81386314891278743743896484375</LongitudeDegrees>
            </Position>
            <AltitudeMeters>859.20001220703125</AltitudeMeters>
            <DistanceMeters>42915.704108268</DistanceMeters>
          </Trackpoint>
          <Trackpoint>
            <Time>2020-01-19T08:45:39.000Z</Time>
            <Position>
              <LatitudeDegrees>38.926880322396755218505859375</LatitudeDegrees>
              <LongitudeDegrees>-2.81373255886137485504150390625</LongitudeDegrees>
            </Position>
            <AltitudeMeters>860.5999755859375</AltitudeMeters>
            <DistanceMeters>42927.993454407</DistanceMeters>
          </Trackpoint>
          <Trackpoint>
            <Time>2020-01-19T08:45:40.000Z</Time>
            <Position>
              <LatitudeDegrees>38.92685324884951114654541015625</LatitudeDegrees>
              <LongitudeDegrees>-2.8136712871491909027099609375</LongitudeDegrees>
            </Position>
            <AltitudeMeters>861.5999755859375</AltitudeMeters>
            <DistanceMeters>42934.094435894</DistanceMeters>
          </Trackpoint>
          <Trackpoint>
            <Time>2020-01-19T08:45:46.000Z</Time>
            <Position>
              <LatitudeDegrees>38.9266726188361644744873046875</LatitudeDegrees>
              <LongitudeDegrees>-2.81332234852015972137451171875</LongitudeDegrees>
            </Position>
            <AltitudeMeters>863.79998779296875</AltitudeMeters>
            <DistanceMeters>42970.385684281</DistanceMeters>
          </Trackpoint>
          <Trackpoint>
            <Time>2020-01-19T08:45:48.000Z</Time>
            <Position>
              <LatitudeDegrees>38.9265941642224788665771484375</LatitudeDegrees>
              <LongitudeDegrees>-2.813224531710147857666015625</LongitudeDegrees>
            </Position>
            <AltitudeMeters>865</AltitudeMeters>
            <DistanceMeters>42982.550588423</DistanceMeters>
          </Trackpoint>
          <Trackpoint>
            <Time>2020-01-19T08:45:49.000Z</Time>
            <Position>
              <LatitudeDegrees>38.9265547692775726318359375</LatitudeDegrees>
              <LongitudeDegrees>-2.8131811134517192840576171875</LongitudeDegrees>
            </Position>
            <AltitudeMeters>865.4000244140625</AltitudeMeters>
            <DistanceMeters>42988.327712494</DistanceMeters>
          </Trackpoint>
          <Trackpoint>
            <Time>2020-01-19T08:45:52.000Z</Time>
            <Position>
              <LatitudeDegrees>38.92643733881413936614990234375</LatitudeDegrees>
              <LongitudeDegrees>-2.81304784119129180908203125</LongitudeDegrees>
            </Position>
            <AltitudeMeters>866.79998779296875</AltitudeMeters>
            <DistanceMeters>43005.763237249</DistanceMeters>
          </Trackpoint>
          <Trackpoint>
            <Time>2020-01-19T08:45:54.000Z</Time>
            <Position>
              <LatitudeDegrees>38.9263396896421909332275390625</LatitudeDegrees>
              <LongitudeDegrees>-2.81297299079596996307373046875</LongitudeDegrees>
            </Position>
            <AltitudeMeters>867.20001220703125</AltitudeMeters>
            <DistanceMeters>43018.417499202</DistanceMeters>
          </Trackpoint>
          <Trackpoint>
            <Time>2020-01-19T08:45:57.000Z</Time>
            <Position>
              <LatitudeDegrees>38.92618018202483654022216796875</LatitudeDegrees>
              <LongitudeDegrees>-2.81291029416024684906005859375</LongitudeDegrees>
            </Position>
            <AltitudeMeters>866.5999755859375</AltitudeMeters>
            <DistanceMeters>43036.982518936</DistanceMeters>
          </Trackpoint>
          <Trackpoint>
            <Time>2020-01-19T08:45:59.000Z</Time>
            <Position>
              <LatitudeDegrees>38.92607389949262142181396484375</LatitudeDegrees>
              <LongitudeDegrees>-2.812882550060749053955078125</LongitudeDegrees>
            </Position>
            <AltitudeMeters>865.5999755859375</AltitudeMeters>
            <DistanceMeters>43049.053530223</DistanceMeters>
          </Trackpoint>
          <Trackpoint>
            <Time>2020-01-19T08:46:02.000Z</Time>
            <Position>
              <LatitudeDegrees>38.92590492032468318939208984375</LatitudeDegrees>
              <LongitudeDegrees>-2.81286519952118396759033203125</LongitudeDegrees>
            </Position>
            <AltitudeMeters>866</AltitudeMeters>
            <DistanceMeters>43067.921059833</DistanceMeters>
          </Trackpoint>
          <Trackpoint>
            <Time>2020-01-19T08:46:09.000Z</Time>
            <Position>
              <LatitudeDegrees>38.92552320845425128936767578125</LatitudeDegrees>
              <LongitudeDegrees>-2.81299285590648651123046875</LongitudeDegrees>
            </Position>
            <AltitudeMeters>862.4000244140625</AltitudeMeters>
            <DistanceMeters>43111.820727879</DistanceMeters>
          </Trackpoint>
          <Trackpoint>
            <Time>2020-01-19T08:46:12.000Z</Time>
            <Position>
              <LatitudeDegrees>38.925366885960102081298828125</LatitudeDegrees>
              <LongitudeDegrees>-2.81305965967476367950439453125</LongitudeDegrees>
            </Position>
            <AltitudeMeters>860.20001220703125</AltitudeMeters>
            <DistanceMeters>43130.156205675</DistanceMeters>
          </Trackpoint>
          <Trackpoint>
            <Time>2020-01-19T08:46:19.000Z</Time>
            <Position>
              <LatitudeDegrees>38.92502180300652980804443359375</LatitudeDegrees>
              <LongitudeDegrees>-2.81323383562266826629638671875</LongitudeDegrees>
            </Position>
            <AltitudeMeters>856</AltitudeMeters>
            <DistanceMeters>43171.419580039</DistanceMeters>
          </Trackpoint>
          <Trackpoint>
            <Time>2020-01-19T08:46:21.000Z</Time>
            <Position>
              <LatitudeDegrees>38.92493111081421375274658203125</LatitudeDegrees>
              <LongitudeDegrees>-2.81322377733886241912841796875</LongitudeDegrees>
            </Position>
            <AltitudeMeters>856.20001220703125</AltitudeMeters>
            <DistanceMeters>43181.551406578</DistanceMeters>
          </Trackpoint>
          <Trackpoint>
            <Time>2020-01-19T08:46:24.000Z</Time>
            <Position>
              <LatitudeDegrees>38.92485533840954303741455078125</LatitudeDegrees>
              <LongitudeDegrees>-2.81305446289479732513427734375</LongitudeDegrees>
            </Position>
            <AltitudeMeters>859.79998779296875</AltitudeMeters>
            <DistanceMeters>43198.465093986</DistanceMeters>
          </Trackpoint>
          <Trackpoint>
            <Time>2020-01-19T08:46:26.000Z</Time>
            <Position>
              <LatitudeDegrees>38.92482449300587177276611328125</LatitudeDegrees>
              <LongitudeDegrees>-2.8129144012928009033203125</LongitudeDegrees>
            </Position>
            <AltitudeMeters>861.5999755859375</AltitudeMeters>
            <DistanceMeters>43211.069304984</DistanceMeters>
          </Trackpoint>
          <Trackpoint>
            <Time>2020-01-19T08:46:29.000Z</Time>
            <Position>
              <LatitudeDegrees>38.9247964136302471160888671875</LatitudeDegrees>
              <LongitudeDegrees>-2.8127016685903072357177734375</LongitudeDegrees>
            </Position>
            <AltitudeMeters>861</AltitudeMeters>
            <DistanceMeters>43229.753113353</DistanceMeters>
          </Trackpoint>
          <Trackpoint>
            <Time>2020-01-19T08:46:39.000Z</Time>
            <Position>
              <LatitudeDegrees>38.924735225737094879150390625</LatitudeDegrees>
              <LongitudeDegrees>-2.811998426914215087890625</LongitudeDegrees>
            </Position>
            <AltitudeMeters>861</AltitudeMeters>
            <DistanceMeters>43291.026335831</DistanceMeters>
          </Trackpoint>
          <Trackpoint>
            <Time>2020-01-19T08:46:45.000Z</Time>
            <Position>
              <LatitudeDegrees>38.9246549271047115325927734375</LatitudeDegrees>
              <LongitudeDegrees>-2.81162769533693790435791015625</LongitudeDegrees>
            </Position>
            <AltitudeMeters>859.5999755859375</AltitudeMeters>
            <DistanceMeters>43324.348615463</DistanceMeters>
          </Trackpoint>
          <Trackpoint>
            <Time>2020-01-19T08:46:49.000Z</Time>
            <Position>
              <LatitudeDegrees>38.9246180467307567596435546875</LatitudeDegrees>
              <LongitudeDegrees>-2.8113515116274356842041015625</LongitudeDegrees>
            </Position>
            <AltitudeMeters>860.5999755859375</AltitudeMeters>
            <DistanceMeters>43348.612826847</DistanceMeters>
          </Trackpoint>
          <Trackpoint>
            <Time>2020-01-19T08:46:58.000Z</Time>
            <Position>
              <LatitudeDegrees>38.92447672784328460693359375</LatitudeDegrees>
              <LongitudeDegrees>-2.81076385639607906341552734375</LongitudeDegrees>
            </Position>
            <AltitudeMeters>862.5999755859375</AltitudeMeters>
            <DistanceMeters>43401.873414094</DistanceMeters>
          </Trackpoint>
          <Trackpoint>
            <Time>2020-01-19T08:46:59.000Z</Time>
            <Position>
              <LatitudeDegrees>38.92445535399019718170166015625</LatitudeDegrees>
              <LongitudeDegrees>-2.81070585362613201141357421875</LongitudeDegrees>
            </Position>
            <AltitudeMeters>862.5999755859375</AltitudeMeters>
            <DistanceMeters>43407.430649148</DistanceMeters>
          </Trackpoint>
          <Trackpoint>
            <Time>2020-01-19T08:47:07.000Z</Time>
            <Position>
              <LatitudeDegrees>38.92425586469471454620361328125</LatitudeDegrees>
              <LongitudeDegrees>-2.81027703545987606048583984375</LongitudeDegrees>
            </Position>
            <AltitudeMeters>863.20001220703125</AltitudeMeters>
            <DistanceMeters>43450.694319996</DistanceMeters>
          </Trackpoint>
          <Trackpoint>
            <Time>2020-01-19T08:47:09.000Z</Time>
            <Position>
              <LatitudeDegrees>38.92418411560356616973876953125</LatitudeDegrees>
              <LongitudeDegrees>-2.810213081538677215576171875</LongitudeDegrees>
            </Position>
            <AltitudeMeters>863.20001220703125</AltitudeMeters>
            <DistanceMeters>43460.412166437</DistanceMeters>
          </Trackpoint>
          <Trackpoint>
            <Time>2020-01-19T08:47:12.000Z</Time>
            <Position>
              <LatitudeDegrees>38.9240678586065769195556640625</LatitudeDegrees>
              <LongitudeDegrees>-2.8101678192615509033203125</LongitudeDegrees>
            </Position>
            <AltitudeMeters>863.4000244140625</AltitudeMeters>
            <DistanceMeters>43473.932367524</DistanceMeters>
          </Trackpoint>
          <Trackpoint>
            <Time>2020-01-19T08:47:14.000Z</Time>
            <Position>
              <LatitudeDegrees>38.92397808842360973358154296875</LatitudeDegrees>
              <LongitudeDegrees>-2.8101663105189800262451171875</LongitudeDegrees>
            </Position>
            <AltitudeMeters>863</AltitudeMeters>
            <DistanceMeters>43483.925094145</DistanceMeters>
          </Trackpoint>
          <Trackpoint>
            <Time>2020-01-19T08:47:16.000Z</Time>
            <Position>
              <LatitudeDegrees>38.92389125190675258636474609375</LatitudeDegrees>
              <LongitudeDegrees>-2.81018592417240142822265625</LongitudeDegrees>
            </Position>
            <AltitudeMeters>862.5999755859375</AltitudeMeters>
            <DistanceMeters>43493.73864423</DistanceMeters>
          </Trackpoint>
          <Trackpoint>
            <Time>2020-01-19T08:47:19.000Z</Time>
            <Position>
              <LatitudeDegrees>38.92373467795550823211669921875</LatitudeDegrees>
              <LongitudeDegrees>-2.8102402389049530029296875</LongitudeDegrees>
            </Position>
            <AltitudeMeters>861.4000244140625</AltitudeMeters>
            <DistanceMeters>43511.789218134</DistanceMeters>
          </Trackpoint>
          <Trackpoint>
            <Time>2020-01-19T08:47:20.000Z</Time>
            <Position>
              <LatitudeDegrees>38.92367935739457607269287109375</LatitudeDegrees>
              <LongitudeDegrees>-2.81024761497974395751953125</LongitudeDegrees>
            </Position>
            <AltitudeMeters>861</AltitudeMeters>
            <DistanceMeters>43517.979827509</DistanceMeters>
          </Trackpoint>
          <Trackpoint>
            <Time>2020-01-19T08:47:25.000Z</Time>
            <Position>
              <LatitudeDegrees>38.92340325750410556793212890625</LatitudeDegrees>
              <LongitudeDegrees>-2.8102139197289943695068359375</LongitudeDegrees>
            </Position>
            <AltitudeMeters>861</AltitudeMeters>
            <DistanceMeters>43548.848447927</DistanceMeters>
          </Trackpoint>
          <Trackpoint>
            <Time>2020-01-19T08:47:27.000Z</Time>
            <Position>
              <LatitudeDegrees>38.9232916943728923797607421875</LatitudeDegrees>
              <LongitudeDegrees>-2.8101651370525360107421875</LongitudeDegrees>
            </Position>
            <AltitudeMeters>860.4000244140625</AltitudeMeters>
            <DistanceMeters>43561.964200145</DistanceMeters>
          </Trackpoint>
          <Trackpoint>
            <Time>2020-01-19T08:47:29.000Z</Time>
            <Position>
              <LatitudeDegrees>38.92318532802164554595947265625</LatitudeDegrees>
              <LongitudeDegrees>-2.8101079724729061126708984375</LongitudeDegrees>
            </Position>
            <AltitudeMeters>860</AltitudeMeters>
            <DistanceMeters>43574.795973751</DistanceMeters>
          </Trackpoint>
          <Trackpoint>
            <Time>2020-01-19T08:47:39.000Z</Time>
            <Position>
              <LatitudeDegrees>38.92265575937926769256591796875</LatitudeDegrees>
              <LongitudeDegrees>-2.8098714351654052734375</LongitudeDegrees>
            </Position>
            <AltitudeMeters>861.20001220703125</AltitudeMeters>
            <DistanceMeters>43637.195466715</DistanceMeters>
          </Trackpoint>
          <Trackpoint>
            <Time>2020-01-19T08:47:40.000Z</Time>
            <Position>
              <LatitudeDegrees>38.92259926535189151763916015625</LatitudeDegrees>
              <LongitudeDegrees>-2.80986632220447063446044921875</LongitudeDegrees>
            </Position>
            <AltitudeMeters>861.20001220703125</AltitudeMeters>
            <DistanceMeters>43643.499542097</DistanceMeters>
          </Trackpoint>
          <Trackpoint>
            <Time>2020-01-19T08:47:49.000Z</Time>
            <Position>
              <LatitudeDegrees>38.922107331454753875732421875</LatitudeDegrees>
              <LongitudeDegrees>-2.80989515595138072967529296875</LongitudeDegrees>
            </Position>
            <AltitudeMeters>859.20001220703125</AltitudeMeters>
            <DistanceMeters>43698.309777927</DistanceMeters>
          </Trackpoint>
          <Trackpoint>
            <Time>2020-01-19T08:47:55.000Z</Time>
            <Position>
              <LatitudeDegrees>38.921779096126556396484375</LatitudeDegrees>
              <LongitudeDegrees>-2.80989825725555419921875</LongitudeDegrees>
            </Position>
            <AltitudeMeters>858.79998779296875</AltitudeMeters>
            <DistanceMeters>43734.843934948</DistanceMeters>
          </Trackpoint>
          <Trackpoint>
            <Time>2020-01-19T08:47:59.000Z</Time>
            <Position>
              <LatitudeDegrees>38.9215631783008575439453125</LatitudeDegrees>
              <LongitudeDegrees>-2.80985475517809391021728515625</LongitudeDegrees>
            </Position>
            <AltitudeMeters>860.4000244140625</AltitudeMeters>
            <DistanceMeters>43759.169288989</DistanceMeters>
          </Trackpoint>
          <Trackpoint>
            <Time>2020-01-19T08:48:03.000Z</Time>
            <Position>
              <LatitudeDegrees>38.92136360518634319305419921875</LatitudeDegrees>
              <LongitudeDegrees>-2.8097995184361934661865234375</LongitudeDegrees>
            </Position>
            <AltitudeMeters>862.4000244140625</AltitudeMeters>
            <DistanceMeters>43781.891605129</DistanceMeters>
          </Trackpoint>
          <Trackpoint>
            <Time>2020-01-19T08:48:09.000Z</Time>
            <Position>
              <LatitudeDegrees>38.92110477201640605926513671875</LatitudeDegrees>
              <LongitudeDegrees>-2.80971645377576351165771484375</LongitudeDegrees>
            </Position>
            <AltitudeMeters>862.5999755859375</AltitudeMeters>
            <DistanceMeters>43811.58467846</DistanceMeters>
          </Trackpoint>
          <Trackpoint>
            <Time>2020-01-19T08:48:14.000Z</Time>
            <Position>
              <LatitudeDegrees>38.92091810703277587890625</LatitudeDegrees>
              <LongitudeDegrees>-2.80966700054705142974853515625</LongitudeDegrees>
            </Position>
            <AltitudeMeters>863</AltitudeMeters>
            <DistanceMeters>43832.797570044</DistanceMeters>
          </Trackpoint>
          <Trackpoint>
            <Time>2020-01-19T08:48:17.000Z</Time>
            <Position>
              <LatitudeDegrees>38.92082347534596920013427734375</LatitudeDegrees>
              <LongitudeDegrees>-2.8096291981637477874755859375</LongitudeDegrees>
            </Position>
            <AltitudeMeters>863.5999755859375</AltitudeMeters>
            <DistanceMeters>43843.82722053</DistanceMeters>
          </Trackpoint>
          <Trackpoint>
            <Time>2020-01-19T08:48:18.000Z</Time>
            <Position>
              <LatitudeDegrees>38.920792378485202789306640625</LatitudeDegrees>
              <LongitudeDegrees>-2.80961536802351474761962890625</LongitudeDegrees>
            </Position>
            <AltitudeMeters>863.79998779296875</AltitudeMeters>
            <DistanceMeters>43847.490374035</DistanceMeters>
          </Trackpoint>
          <Trackpoint>
            <Time>2020-01-19T08:48:20.000Z</Time>
            <Position>
              <LatitudeDegrees>38.9207308553159236907958984375</LatitudeDegrees>
              <LongitudeDegrees>-2.80958376824855804443359375</LongitudeDegrees>
            </Position>
            <AltitudeMeters>864.20001220703125</AltitudeMeters>
            <DistanceMeters>43854.864594017</DistanceMeters>
          </Trackpoint>
          <Trackpoint>
            <Time>2020-01-19T08:48:22.000Z</Time>
            <Position>
              <LatitudeDegrees>38.92067394219338893890380859375</LatitudeDegrees>
              <LongitudeDegrees>-2.80954227782785892486572265625</LongitudeDegrees>
            </Position>
            <AltitudeMeters>864.20001220703125</AltitudeMeters>
            <DistanceMeters>43862.147633838</DistanceMeters>
          </Trackpoint>
          <Trackpoint>
            <Time>2020-01-19T08:48:25.000Z</Time>
            <Position>
              <LatitudeDegrees>38.92058618366718292236328125</LatitudeDegrees>
              <LongitudeDegrees>-2.809480167925357818603515625</LongitudeDegrees>
            </Position>
            <AltitudeMeters>864</AltitudeMeters>
            <DistanceMeters>43873.297794934</DistanceMeters>
          </Trackpoint>
          <Trackpoint>
            <Time>2020-01-19T08:48:29.000Z</Time>
            <Position>
              <LatitudeDegrees>38.92046137712895870208740234375</LatitudeDegrees>
              <LongitudeDegrees>-2.80937723815441131591796875</LongitudeDegrees>
            </Position>
            <AltitudeMeters>863.5999755859375</AltitudeMeters>
            <DistanceMeters>43889.802652283</DistanceMeters>
          </Trackpoint>
          <Trackpoint>
            <Time>2020-01-19T08:48:32.000Z</Time>
            <Position>
              <LatitudeDegrees>38.92037739045917987823486328125</LatitudeDegrees>
              <LongitudeDegrees>-2.8092831932008266448974609375</LongitudeDegrees>
            </Position>
            <AltitudeMeters>863.5999755859375</AltitudeMeters>
            <DistanceMeters>43902.200270245</DistanceMeters>
          </Trackpoint>
          <Trackpoint>
            <Time>2020-01-19T08:48:35.000Z</Time>
            <Position>
              <LatitudeDegrees>38.920288793742656707763671875</LatitudeDegrees>
              <LongitudeDegrees>-2.8091722168028354644775390625</LongitudeDegrees>
            </Position>
            <AltitudeMeters>864.20001220703125</AltitudeMeters>
            <DistanceMeters>43915.96930997</DistanceMeters>
          </Trackpoint>
          <Trackpoint>
            <Time>2020-01-19T08:48:39.000Z</Time>
            <Position>
              <LatitudeDegrees>38.9201551862061023712158203125</LatitudeDegrees>
              <LongitudeDegrees>-2.8089847974479198455810546875</LongitudeDegrees>
            </Position>
            <AltitudeMeters>863.79998779296875</AltitudeMeters>
            <DistanceMeters>43937.981484825</DistanceMeters>
          </Trackpoint>
          <Trackpoint>
            <Time>2020-01-19T08:48:44.000Z</Time>
            <Position>
              <LatitudeDegrees>38.9199396036565303802490234375</LatitudeDegrees>
              <LongitudeDegrees>-2.80867257155478000640869140625</LongitudeDegrees>
            </Position>
            <AltitudeMeters>863.79998779296875</AltitudeMeters>
            <DistanceMeters>43974.130751103</DistanceMeters>
          </Trackpoint>
          <Trackpoint>
            <Time>2020-01-19T08:48:46.000Z</Time>
            <Position>
              <LatitudeDegrees>38.9198413677513599395751953125</LatitudeDegrees>
              <LongitudeDegrees>-2.80854147858917713165283203125</LongitudeDegrees>
            </Position>
            <AltitudeMeters>862.79998779296875</AltitudeMeters>
            <DistanceMeters>43989.892013837</DistanceMeters>
          </Trackpoint>
          <Trackpoint>
            <Time>2020-01-19T08:48:49.000Z</Time>
            <Position>
              <LatitudeDegrees>38.919695354998111724853515625</LatitudeDegrees>
              <LongitudeDegrees>-2.8083546459674835205078125</LongitudeDegrees>
            </Position>
            <AltitudeMeters>861.79998779296875</AltitudeMeters>
            <DistanceMeters>44012.823990023</DistanceMeters>
          </Trackpoint>
          <Trackpoint>
            <Time>2020-01-19T08:48:53.000Z</Time>
            <Position>
              <LatitudeDegrees>38.91951824538409709930419921875</LatitudeDegrees>
              <LongitudeDegrees>-2.8081266582012176513671875</LongitudeDegrees>
            </Position>
            <AltitudeMeters>861.4000244140625</AltitudeMeters>
            <DistanceMeters>44040.72335434</DistanceMeters>
          </Trackpoint>
          <Trackpoint>
            <Time>2020-01-19T08:48:55.000Z</Time>
            <Position>
              <LatitudeDegrees>38.91944448463618755340576171875</LatitudeDegrees>
              <LongitudeDegrees>-2.8080245666205883026123046875</LongitudeDegrees>
            </Position>
            <AltitudeMeters>860.79998779296875</AltitudeMeters>
            <DistanceMeters>44052.788379507</DistanceMeters>
          </Trackpoint>
          <Trackpoint>
            <Time>2020-01-19T08:48:59.000Z</Time>
            <Position>
              <LatitudeDegrees>38.91930853016674518585205078125</LatitudeDegrees>
              <LongitudeDegrees>-2.8078358061611652374267578125</LongitudeDegrees>
            </Position>
            <AltitudeMeters>861</AltitudeMeters>
            <DistanceMeters>44075.063379178</DistanceMeters>
          </Trackpoint>
          <Trackpoint>
            <Time>2020-01-19T08:49:08.000Z</Time>
            <Position>
              <LatitudeDegrees>38.9189279079437255859375</LatitudeDegrees>
              <LongitudeDegrees>-2.80731285922229290008544921875</LongitudeDegrees>
            </Position>
            <AltitudeMeters>861.5999755859375</AltitudeMeters>
            <DistanceMeters>44137.075354989</DistanceMeters>
          </Trackpoint>
          <Trackpoint>
            <Time>2020-01-19T08:49:09.000Z</Time>
            <Position>
              <LatitudeDegrees>38.91888038255274295806884765625</LatitudeDegrees>
              <LongitudeDegrees>-2.80724823474884033203125</LongitudeDegrees>
            </Position>
            <AltitudeMeters>861.5999755859375</AltitudeMeters>
            <DistanceMeters>44144.775451218</DistanceMeters>
          </Trackpoint>
          <Trackpoint>
            <Time>2020-01-19T08:49:11.000Z</Time>
            <Position>
              <LatitudeDegrees>38.91878114081919193267822265625</LatitudeDegrees>
              <LongitudeDegrees>-2.80712191946804523468017578125</LongitudeDegrees>
            </Position>
            <AltitudeMeters>861.5999755859375</AltitudeMeters>
            <DistanceMeters>44160.320671567</DistanceMeters>
          </Trackpoint>
          <Trackpoint>
            <Time>2020-01-19T08:49:13.000Z</Time>
            <Position>
              <LatitudeDegrees>38.91868407838046550750732421875</LatitudeDegrees>
              <LongitudeDegrees>-2.80699870549142360687255859375</LongitudeDegrees>
            </Position>
            <AltitudeMeters>861.4000244140625</AltitudeMeters>
            <DistanceMeters>44175.504739262</DistanceMeters>
          </Trackpoint>
          <Trackpoint>
            <Time>2020-01-19T08:49:19.000Z</Time>
            <Position>
              <LatitudeDegrees>38.91844804398715496063232421875</LatitudeDegrees>
              <LongitudeDegrees>-2.80664331279695034027099609375</LongitudeDegrees>
            </Position>
            <AltitudeMeters>863.4000244140625</AltitudeMeters>
            <DistanceMeters>44215.968605004</DistanceMeters>
          </Trackpoint>
          <Trackpoint>
            <Time>2020-01-19T08:49:24.000Z</Time>
            <Position>
              <LatitudeDegrees>38.91833689995110034942626953125</LatitudeDegrees>
              <LongitudeDegrees>-2.806365452706813812255859375</LongitudeDegrees>
            </Position>
            <AltitudeMeters>866.5999755859375</AltitudeMeters>
            <DistanceMeters>44243.024364406</DistanceMeters>
          </Trackpoint>
          <Trackpoint>
            <Time>2020-01-19T08:49:29.000Z</Time>
            <Position>
              <LatitudeDegrees>38.91834192909300327301025390625</LatitudeDegrees>
              <LongitudeDegrees>-2.8061015903949737548828125</LongitudeDegrees>
            </Position>
            <AltitudeMeters>868.79998779296875</AltitudeMeters>
            <DistanceMeters>44265.881005511</DistanceMeters>
          </Trackpoint>
          <Trackpoint>
            <Time>2020-01-19T08:49:39.000Z</Time>
            <Position>
              <LatitudeDegrees>38.91839372925460338592529296875</LatitudeDegrees>
              <LongitudeDegrees>-2.8056196309626102447509765625</LongitudeDegrees>
            </Position>
            <AltitudeMeters>871</AltitudeMeters>
            <DistanceMeters>44308.013968946</DistanceMeters>
          </Trackpoint>
          <Trackpoint>
            <Time>2020-01-19T08:49:47.000Z</Time>
            <Position>
              <LatitudeDegrees>38.91838719137012958526611328125</LatitudeDegrees>
              <LongitudeDegrees>-2.80522190965712070465087890625</LongitudeDegrees>
            </Position>
            <AltitudeMeters>872.4000244140625</AltitudeMeters>
            <DistanceMeters>44342.46334828</DistanceMeters>
          </Trackpoint>
          <Trackpoint>
            <Time>2020-01-19T08:49:49.000Z</Time>
            <Position>
              <LatitudeDegrees>38.91836288385093212127685546875</LatitudeDegrees>
              <LongitudeDegrees>-2.8051227517426013946533203125</LongitudeDegrees>
            </Position>
            <AltitudeMeters>873</AltitudeMeters>
            <DistanceMeters>44351.466345901</DistanceMeters>
          </Trackpoint>
          <Trackpoint>
            <Time>2020-01-19T08:49:59.000Z</Time>
            <Position>
              <LatitudeDegrees>38.9181639812886714935302734375</LatitudeDegrees>
              <LongitudeDegrees>-2.80469837598502635955810546875</LongitudeDegrees>
            </Position>
            <AltitudeMeters>875.79998779296875</AltitudeMeters>
            <DistanceMeters>44394.369197345</DistanceMeters>
          </Trackpoint>
          <Trackpoint>
            <Time>2020-01-19T08:50:09.000Z</Time>
            <Position>
              <LatitudeDegrees>38.91801486723124980926513671875</LatitudeDegrees>
              <LongitudeDegrees>-2.80426603741943836212158203125</LongitudeDegrees>
            </Position>
            <AltitudeMeters>876.4000244140625</AltitudeMeters>
            <DistanceMeters>44435.322514159</DistanceMeters>
          </Trackpoint>
          <Trackpoint>
            <Time>2020-01-19T08:50:18.000Z</Time>
            <Position>
              <LatitudeDegrees>38.917943537235260009765625</LatitudeDegrees>
              <LongitudeDegrees>-2.80384761281311511993408203125</LongitudeDegrees>
            </Position>
            <AltitudeMeters>877</AltitudeMeters>
            <DistanceMeters>44472.416785798</DistanceMeters>
          </Trackpoint>
          <Trackpoint>
            <Time>2020-01-19T08:50:25.000Z</Time>
            <Position>
              <LatitudeDegrees>38.91789198853075504302978515625</LatitudeDegrees>
              <LongitudeDegrees>-2.80353010632097721099853515625</LongitudeDegrees>
            </Position>
            <AltitudeMeters>877</AltitudeMeters>
            <DistanceMeters>44500.504374312</DistanceMeters>
          </Trackpoint>
          <Trackpoint>
            <Time>2020-01-19T08:50:29.000Z</Time>
            <Position>
              <LatitudeDegrees>38.91784287057816982269287109375</LatitudeDegrees>
              <LongitudeDegrees>-2.80334821902215480804443359375</LongitudeDegrees>
            </Position>
            <AltitudeMeters>877.20001220703125</AltitudeMeters>
            <DistanceMeters>44517.177162718</DistanceMeters>
          </Trackpoint>
          <Trackpoint>
            <Time>2020-01-19T08:50:39.000Z</Time>
            <Position>
              <LatitudeDegrees>38.91768545843660831451416015625</LatitudeDegrees>
              <LongitudeDegrees>-2.80292878858745098114013671875</LongitudeDegrees>
            </Position>
            <AltitudeMeters>877.79998779296875</AltitudeMeters>
            <DistanceMeters>44557.503996924</DistanceMeters>
          </Trackpoint>
          <Trackpoint>
            <Time>2020-01-19T08:50:49.000Z</Time>
            <Position>
              <LatitudeDegrees>38.91752536408603191375732421875</LatitudeDegrees>
              <LongitudeDegrees>-2.80251136980950832366943359375</LongitudeDegrees>
            </Position>
            <AltitudeMeters>879</AltitudeMeters>
            <DistanceMeters>44597.805183873</DistanceMeters>
          </Trackpoint>
          <Trackpoint>
            <Time>2020-01-19T08:50:53.000Z</Time>
            <Position>
              <LatitudeDegrees>38.9175085164606571197509765625</LatitudeDegrees>
              <LongitudeDegrees>-2.8023305721580982208251953125</LongitudeDegrees>
            </Position>
            <AltitudeMeters>879</AltitudeMeters>
            <DistanceMeters>44613.573892918</DistanceMeters>
          </Trackpoint>
          <Trackpoint>
            <Time>2020-01-19T08:50:59.000Z</Time>
            <Position>
              <LatitudeDegrees>38.9175437204539775848388671875</LatitudeDegrees>
              <LongitudeDegrees>-2.80205338262021541595458984375</LongitudeDegrees>
            </Position>
            <AltitudeMeters>879</AltitudeMeters>
            <DistanceMeters>44637.895905743</DistanceMeters>
          </Trackpoint>
          <Trackpoint>
            <Time>2020-01-19T08:51:09.000Z</Time>
            <Position>
              <LatitudeDegrees>38.9176416210830211639404296875</LatitudeDegrees>
              <LongitudeDegrees>-2.8016223013401031494140625</LongitudeDegrees>
            </Position>
            <AltitudeMeters>879</AltitudeMeters>
            <DistanceMeters>44676.784710593</DistanceMeters>
          </Trackpoint>
          <Trackpoint>
            <Time>2020-01-19T08:51:19.000Z</Time>
            <Position>
              <LatitudeDegrees>38.91778034158051013946533203125</LatitudeDegrees>
              <LongitudeDegrees>-2.80124151147902011871337890625</LongitudeDegrees>
            </Position>
            <AltitudeMeters>880.5999755859375</AltitudeMeters>
            <DistanceMeters>44713.196189875</DistanceMeters>
          </Trackpoint>
          <Trackpoint>
            <Time>2020-01-19T08:51:24.000Z</Time>
            <Position>
              <LatitudeDegrees>38.9178521744906902313232421875</LatitudeDegrees>
              <LongitudeDegrees>-2.80105040408670902252197265625</LongitudeDegrees>
            </Position>
            <AltitudeMeters>881.79998779296875</AltitudeMeters>
            <DistanceMeters>44731.575938507</DistanceMeters>
          </Trackpoint>
          <Trackpoint>
            <Time>2020-01-19T08:51:29.000Z</Time>
            <Position>
              <LatitudeDegrees>38.9179312996566295623779296875</LatitudeDegrees>
              <LongitudeDegrees>-2.800858877599239349365234375</LongitudeDegrees>
            </Position>
            <AltitudeMeters>883.20001220703125</AltitudeMeters>
            <DistanceMeters>44750.35495806</DistanceMeters>
          </Trackpoint>
          <Trackpoint>
            <Time>2020-01-19T08:51:39.000Z</Time>
            <Position>
              <LatitudeDegrees>38.91811997629702091217041015625</LatitudeDegrees>
              <LongitudeDegrees>-2.80051932670176029205322265625</LongitudeDegrees>
            </Position>
            <AltitudeMeters>885.5999755859375</AltitudeMeters>
            <DistanceMeters>44786.488358574</DistanceMeters>
          </Trackpoint>
          <Trackpoint>
            <Time>2020-01-19T08:51:49.000Z</Time>
            <Position>
              <LatitudeDegrees>38.91833321191370487213134765625</LatitudeDegrees>
              <LongitudeDegrees>-2.80020651407539844512939453125</LongitudeDegrees>
            </Position>
            <AltitudeMeters>888.4000244140625</AltitudeMeters>
            <DistanceMeters>44822.503357955</DistanceMeters>
          </Trackpoint>
          <Trackpoint>
            <Time>2020-01-19T08:51:59.000Z</Time>
            <Position>
              <LatitudeDegrees>38.91858634538948535919189453125</LatitudeDegrees>
              <LongitudeDegrees>-2.7999494411051273345947265625</LongitudeDegrees>
            </Position>
            <AltitudeMeters>890.5999755859375</AltitudeMeters>
            <DistanceMeters>44858.411387075</DistanceMeters>
          </Trackpoint>
          <Trackpoint>
            <Time>2020-01-19T08:52:09.000Z</Time>
            <Position>
              <LatitudeDegrees>38.91882824711501598358154296875</LatitudeDegrees>
              <LongitudeDegrees>-2.79968566261231899261474609375</LongitudeDegrees>
            </Position>
            <AltitudeMeters>892</AltitudeMeters>
            <DistanceMeters>44893.719790095</DistanceMeters>
          </Trackpoint>
          <Trackpoint>
            <Time>2020-01-19T08:52:19.000Z</Time>
            <Position>
              <LatitudeDegrees>38.91905891709029674530029296875</LatitudeDegrees>
              <LongitudeDegrees>-2.799412496387958526611328125</LongitudeDegrees>
            </Position>
            <AltitudeMeters>893.4000244140625</AltitudeMeters>
            <DistanceMeters>44928.630178766</DistanceMeters>
          </Trackpoint>
          <Trackpoint>
            <Time>2020-01-19T08:52:24.000Z</Time>
            <Position>
              <LatitudeDegrees>38.91917358152568340301513671875</LatitudeDegrees>
              <LongitudeDegrees>-2.7992762066423892974853515625</LongitudeDegrees>
            </Position>
            <AltitudeMeters>894.20001220703125</AltitudeMeters>
            <DistanceMeters>44946.013055915</DistanceMeters>
          </Trackpoint>
          <Trackpoint>
            <Time>2020-01-19T08:52:29.000Z</Time>
            <Position>
              <LatitudeDegrees>38.91928439028561115264892578125</LatitudeDegrees>
              <LongitudeDegrees>-2.79916179366409778594970703125</LongitudeDegrees>
            </Position>
            <AltitudeMeters>894.20001220703125</AltitudeMeters>
            <DistanceMeters>44961.833220222</DistanceMeters>
          </Trackpoint>
          <Trackpoint>
            <Time>2020-01-19T08:52:38.000Z</Time>
            <Position>
              <LatitudeDegrees>38.91945454291999340057373046875</LatitudeDegrees>
              <LongitudeDegrees>-2.79894118197262287139892578125</LongitudeDegrees>
            </Position>
            <AltitudeMeters>894.20001220703125</AltitudeMeters>
            <DistanceMeters>44988.733670143</DistanceMeters>
          </Trackpoint>
          <Trackpoint>
            <Time>2020-01-19T08:52:39.000Z</Time>
            <Position>
              <LatitudeDegrees>38.9194728992879390716552734375</LatitudeDegrees>
              <LongitudeDegrees>-2.79890991747379302978515625</LongitudeDegrees>
            </Position>
            <AltitudeMeters>894.20001220703125</AltitudeMeters>
            <DistanceMeters>44992.125471639</DistanceMeters>
          </Trackpoint>
          <Trackpoint>
            <Time>2020-01-19T08:52:44.000Z</Time>
            <Position>
              <LatitudeDegrees>38.91955194063484668731689453125</LatitudeDegrees>
              <LongitudeDegrees>-2.79875745065510272979736328125</LongitudeDegrees>
            </Position>
            <AltitudeMeters>894.4000244140625</AltitudeMeters>
            <DistanceMeters>45007.990949283</DistanceMeters>
          </Trackpoint>
          <Trackpoint>
            <Time>2020-01-19T08:52:49.000Z</Time>
            <Position>
              <LatitudeDegrees>38.91967716626822948455810546875</LatitudeDegrees>
              <LongitudeDegrees>-2.79868000186979770660400390625</LongitudeDegrees>
            </Position>
            <AltitudeMeters>894.5999755859375</AltitudeMeters>
            <DistanceMeters>45023.458426301</DistanceMeters>
          </Trackpoint>
          <Trackpoint>
            <Time>2020-01-19T08:52:59.000Z</Time>
            <Position>
              <LatitudeDegrees>38.919937424361705780029296875</LatitudeDegrees>
              <LongitudeDegrees>-2.7987364120781421661376953125</LongitudeDegrees>
            </Position>
            <AltitudeMeters>895.4000244140625</AltitudeMeters>
            <DistanceMeters>45052.834440757</DistanceMeters>
          </Trackpoint>
          <Trackpoint>
            <Time>2020-01-19T08:53:08.000Z</Time>
            <Position>
              <LatitudeDegrees>38.92014990560710430145263671875</LatitudeDegrees>
              <LongitudeDegrees>-2.7988550998270511627197265625</LongitudeDegrees>
            </Position>
            <AltitudeMeters>897.20001220703125</AltitudeMeters>
            <DistanceMeters>45078.620846265</DistanceMeters>
          </Trackpoint>
          <Trackpoint>
            <Time>2020-01-19T08:53:09.000Z</Time>
            <Position>
              <LatitudeDegrees>38.92017287202179431915283203125</LatitudeDegrees>
              <LongitudeDegrees>-2.79884378425776958465576171875</LongitudeDegrees>
            </Position>
            <AltitudeMeters>897.20001220703125</AltitudeMeters>
            <DistanceMeters>45081.358539354</DistanceMeters>
          </Trackpoint>
          <Trackpoint>
            <Time>2020-01-19T08:53:10.000Z</Time>
            <Position>
              <LatitudeDegrees>38.92018921673297882080078125</LatitudeDegrees>
              <LongitudeDegrees>-2.79881830327212810516357421875</LongitudeDegrees>
            </Position>
            <AltitudeMeters>897.20001220703125</AltitudeMeters>
            <DistanceMeters>45084.218827671</DistanceMeters>
          </Trackpoint>
          <Trackpoint>
            <Time>2020-01-19T08:53:13.000Z</Time>
            <Position>
              <LatitudeDegrees>38.92023204825818538665771484375</LatitudeDegrees>
              <LongitudeDegrees>-2.7987266890704631805419921875</LongitudeDegrees>
            </Position>
            <AltitudeMeters>897.20001220703125</AltitudeMeters>
            <DistanceMeters>45093.475034524</DistanceMeters>
          </Trackpoint>
          <Trackpoint>
            <Time>2020-01-19T08:53:19.000Z</Time>
            <Position>
              <LatitudeDegrees>38.9204039610922336578369140625</LatitudeDegrees>
              <LongitudeDegrees>-2.79877446591854095458984375</LongitudeDegrees>
            </Position>
            <AltitudeMeters>898</AltitudeMeters>
            <DistanceMeters>45113.051460252</DistanceMeters>
          </Trackpoint>
          <Trackpoint>
            <Time>2020-01-19T08:53:28.000Z</Time>
            <Position>
              <LatitudeDegrees>38.9206701703369617462158203125</LatitudeDegrees>
              <LongitudeDegrees>-2.79890899546444416046142578125</LongitudeDegrees>
            </Position>
            <AltitudeMeters>899.4000244140625</AltitudeMeters>
            <DistanceMeters>45144.888955141</DistanceMeters>
          </Trackpoint>
          <Trackpoint>
            <Time>2020-01-19T08:53:29.000Z</Time>
            <Position>
              <LatitudeDegrees>38.9206976629793643951416015625</LatitudeDegrees>
              <LongitudeDegrees>-2.79892290942370891571044921875</LongitudeDegrees>
            </Position>
            <AltitudeMeters>899.5999755859375</AltitudeMeters>
            <DistanceMeters>45148.178032759</DistanceMeters>
          </Trackpoint>
          <Trackpoint>
            <Time>2020-01-19T08:53:39.000Z</Time>
            <Position>
              <LatitudeDegrees>38.920959345996379852294921875</LatitudeDegrees>
              <LongitudeDegrees>-2.7990136854350566864013671875</LongitudeDegrees>
            </Position>
            <AltitudeMeters>900.79998779296875</AltitudeMeters>
            <DistanceMeters>45178.346133703</DistanceMeters>
          </Trackpoint>
          <Trackpoint>
            <Time>2020-01-19T08:53:46.000Z</Time>
            <Position>
              <LatitudeDegrees>38.92113042064011096954345703125</LatitudeDegrees>
              <LongitudeDegrees>-2.79902650974690914154052734375</LongitudeDegrees>
            </Position>
            <AltitudeMeters>901.4000244140625</AltitudeMeters>
            <DistanceMeters>45197.41929966</DistanceMeters>
          </Trackpoint>
          <Trackpoint>
            <Time>2020-01-19T08:53:49.000Z</Time>
            <Position>
              <LatitudeDegrees>38.9211948774755001068115234375</LatitudeDegrees>
              <LongitudeDegrees>-2.79904277063906192779541015625</LongitudeDegrees>
            </Position>
            <AltitudeMeters>901.5999755859375</AltitudeMeters>
            <DistanceMeters>45204.729565893</DistanceMeters>
          </Trackpoint>
          <Trackpoint>
            <Time>2020-01-19T08:53:59.000Z</Time>
            <Position>
              <LatitudeDegrees>38.92145278863608837127685546875</LatitudeDegrees>
              <LongitudeDegrees>-2.79906070791184902191162109375</LongitudeDegrees>
            </Position>
            <AltitudeMeters>903.4000244140625</AltitudeMeters>
            <DistanceMeters>45233.47762072</DistanceMeters>
          </Trackpoint>
          <Trackpoint>
            <Time>2020-01-19T08:54:09.000Z</Time>
            <Position>
              <LatitudeDegrees>38.92171832732856273651123046875</LatitudeDegrees>
              <LongitudeDegrees>-2.799107395112514495849609375</LongitudeDegrees>
            </Position>
            <AltitudeMeters>905.79998779296875</AltitudeMeters>
            <DistanceMeters>45263.307836826</DistanceMeters>
          </Trackpoint>
          <Trackpoint>
            <Time>2020-01-19T08:54:19.000Z</Time>
            <Position>
              <LatitudeDegrees>38.92199970781803131103515625</LatitudeDegrees>
              <LongitudeDegrees>-2.7990983426570892333984375</LongitudeDegrees>
            </Position>
            <AltitudeMeters>907.79998779296875</AltitudeMeters>
            <DistanceMeters>45294.635681602</DistanceMeters>
          </Trackpoint>
          <Trackpoint>
            <Time>2020-01-19T08:54:29.000Z</Time>
            <Position>
              <LatitudeDegrees>38.9222764782607555389404296875</LatitudeDegrees>
              <LongitudeDegrees>-2.79907478950917720794677734375</LongitudeDegrees>
            </Position>
            <AltitudeMeters>909</AltitudeMeters>
            <DistanceMeters>45325.508250957</DistanceMeters>
          </Trackpoint>
          <Trackpoint>
            <Time>2020-01-19T08:54:39.000Z</Time>
            <Position>
              <LatitudeDegrees>38.9225460402667522430419921875</LatitudeDegrees>
              <LongitudeDegrees>-2.79905785806477069854736328125</LongitudeDegrees>
            </Position>
            <AltitudeMeters>910.20001220703125</AltitudeMeters>
            <DistanceMeters>45355.547065658</DistanceMeters>
          </Trackpoint>
          <Trackpoint>
            <Time>2020-01-19T08:54:49.000Z</Time>
            <Position>
              <LatitudeDegrees>38.92278852872550487518310546875</LatitudeDegrees>
              <LongitudeDegrees>-2.79902282170951366424560546875</LongitudeDegrees>
            </Position>
            <AltitudeMeters>911.20001220703125</AltitudeMeters>
            <DistanceMeters>45382.706591694</DistanceMeters>
          </Trackpoint>
          <Trackpoint>
            <Time>2020-01-19T08:54:59.000Z</Time>
            <Position>
              <LatitudeDegrees>38.92296840436756610870361328125</LatitudeDegrees>
              <LongitudeDegrees>-2.79889457859098911285400390625</LongitudeDegrees>
            </Position>
            <AltitudeMeters>912</AltitudeMeters>
            <DistanceMeters>45405.600536899</DistanceMeters>
          </Trackpoint>
          <Trackpoint>
            <Time>2020-01-19T08:55:09.000Z</Time>
            <Position>
              <LatitudeDegrees>38.92316705547273159027099609375</LatitudeDegrees>
              <LongitudeDegrees>-2.7987913973629474639892578125</LongitudeDegrees>
            </Position>
            <AltitudeMeters>913</AltitudeMeters>
            <DistanceMeters>45429.447698663</DistanceMeters>
          </Trackpoint>
          <Trackpoint>
            <Time>2020-01-19T08:55:19.000Z</Time>
            <Position>
              <LatitudeDegrees>38.9233736693859100341796875</LatitudeDegrees>
              <LongitudeDegrees>-2.79880103655159473419189453125</LongitudeDegrees>
            </Position>
            <AltitudeMeters>914.4000244140625</AltitudeMeters>
            <DistanceMeters>45452.459080253</DistanceMeters>
          </Trackpoint>
          <Trackpoint>
            <Time>2020-01-19T08:55:28.000Z</Time>
            <Position>
              <LatitudeDegrees>38.92356536351144313812255859375</LatitudeDegrees>
              <LongitudeDegrees>-2.7988259308040142059326171875</LongitudeDegrees>
            </Position>
            <AltitudeMeters>915.5999755859375</AltitudeMeters>
            <DistanceMeters>45473.903348552</DistanceMeters>
          </Trackpoint>
          <Trackpoint>
            <Time>2020-01-19T08:55:29.000Z</Time>
            <Position>
              <LatitudeDegrees>38.923585899174213409423828125</LatitudeDegrees>
              <LongitudeDegrees>-2.7988269366323947906494140625</LongitudeDegrees>
            </Position>
            <AltitudeMeters>915.79998779296875</AltitudeMeters>
            <DistanceMeters>45476.19189489</DistanceMeters>
          </Trackpoint>
          <Trackpoint>
            <Time>2020-01-19T08:55:39.000Z</Time>
            <Position>
              <LatitudeDegrees>38.92379787750542163848876953125</LatitudeDegrees>
              <LongitudeDegrees>-2.7988529205322265625</LongitudeDegrees>
            </Position>
            <AltitudeMeters>917.4000244140625</AltitudeMeters>
            <DistanceMeters>45499.892250902</DistanceMeters>
          </Trackpoint>
          <Trackpoint>
            <Time>2020-01-19T08:55:49.000Z</Time>
            <Position>
              <LatitudeDegrees>38.92401538789272308349609375</LatitudeDegrees>
              <LongitudeDegrees>-2.798796258866786956787109375</LongitudeDegrees>
            </Position>
            <AltitudeMeters>918.5999755859375</AltitudeMeters>
            <DistanceMeters>45524.59371372</DistanceMeters>
          </Trackpoint>
          <Trackpoint>
            <Time>2020-01-19T08:55:59.000Z</Time>
            <Position>
              <LatitudeDegrees>38.92424161545932292938232421875</LatitudeDegrees>
              <LongitudeDegrees>-2.79883238486945629119873046875</LongitudeDegrees>
            </Position>
            <AltitudeMeters>920.4000244140625</AltitudeMeters>
            <DistanceMeters>45549.966736204</DistanceMeters>
          </Trackpoint>
          <Trackpoint>
            <Time>2020-01-19T08:56:09.000Z</Time>
            <Position>
              <LatitudeDegrees>38.9244839362800121307373046875</LatitudeDegrees>
              <LongitudeDegrees>-2.79874227941036224365234375</LongitudeDegrees>
            </Position>
            <AltitudeMeters>921.5999755859375</AltitudeMeters>
            <DistanceMeters>45578.043391691</DistanceMeters>
          </Trackpoint>
          <Trackpoint>
            <Time>2020-01-19T08:56:18.000Z</Time>
            <Position>
              <LatitudeDegrees>38.9247317053377628326416015625</LatitudeDegrees>
              <LongitudeDegrees>-2.7986760623753070831298828125</LongitudeDegrees>
            </Position>
            <AltitudeMeters>922.5999755859375</AltitudeMeters>
            <DistanceMeters>45606.21043833</DistanceMeters>
          </Trackpoint>
          <Trackpoint>
            <Time>2020-01-19T08:56:26.000Z</Time>
            <Position>
              <LatitudeDegrees>38.92496698535978794097900390625</LatitudeDegrees>
              <LongitudeDegrees>-2.798554860055446624755859375</LongitudeDegrees>
            </Position>
            <AltitudeMeters>923.4000244140625</AltitudeMeters>
            <DistanceMeters>45634.422171841</DistanceMeters>
          </Trackpoint>
          <Trackpoint>
            <Time>2020-01-19T08:56:29.000Z</Time>
            <Position>
              <LatitudeDegrees>38.92506991513073444366455078125</LatitudeDegrees>
              <LongitudeDegrees>-2.798546142876148223876953125</LongitudeDegrees>
            </Position>
            <AltitudeMeters>923.79998779296875</AltitudeMeters>
            <DistanceMeters>45645.903113695</DistanceMeters>
          </Trackpoint>
          <Trackpoint>
            <Time>2020-01-19T08:56:34.000Z</Time>
            <Position>
              <LatitudeDegrees>38.925241492688655853271484375</LatitudeDegrees>
              <LongitudeDegrees>-2.79855410568416118621826171875</LongitudeDegrees>
            </Position>
            <AltitudeMeters>924.5999755859375</AltitudeMeters>
            <DistanceMeters>45665.012463797</DistanceMeters>
          </Trackpoint>
          <Trackpoint>
            <Time>2020-01-19T08:56:39.000Z</Time>
            <Position>
              <LatitudeDegrees>38.92540636472404003143310546875</LatitudeDegrees>
              <LongitudeDegrees>-2.7986182272434234619140625</LongitudeDegrees>
            </Position>
            <AltitudeMeters>925</AltitudeMeters>
            <DistanceMeters>45684.184795208</DistanceMeters>
          </Trackpoint>
          <Trackpoint>
            <Time>2020-01-19T08:56:49.000Z</Time>
            <Position>
              <LatitudeDegrees>38.92574784345924854278564453125</LatitudeDegrees>
              <LongitudeDegrees>-2.79877069406211376190185546875</LongitudeDegrees>
            </Position>
            <AltitudeMeters>926</AltitudeMeters>
            <DistanceMeters>45724.419604319</DistanceMeters>
          </Trackpoint>
          <Trackpoint>
            <Time>2020-01-19T08:56:56.000Z</Time>
            <Position>
              <LatitudeDegrees>38.9259269647300243377685546875</LatitudeDegrees>
              <LongitudeDegrees>-2.79898024164140224456787109375</LongitudeDegrees>
            </Position>
            <AltitudeMeters>926.4000244140625</AltitudeMeters>
            <DistanceMeters>45751.376725304</DistanceMeters>
          </Trackpoint>
          <Trackpoint>
            <Time>2020-01-19T08:56:59.000Z</Time>
            <Position>
              <LatitudeDegrees>38.92597415484488010406494140625</LatitudeDegrees>
              <LongitudeDegrees>-2.79910412617027759552001953125</LongitudeDegrees>
            </Position>
            <AltitudeMeters>926.79998779296875</AltitudeMeters>
            <DistanceMeters>45763.320642067</DistanceMeters>
          </Trackpoint>
          <Trackpoint>
            <Time>2020-01-19T08:57:09.000Z</Time>
            <Position>
              <LatitudeDegrees>38.92617850564420223236083984375</LatitudeDegrees>
              <LongitudeDegrees>-2.79948684386909008026123046875</LongitudeDegrees>
            </Position>
            <AltitudeMeters>927.20001220703125</AltitudeMeters>
            <DistanceMeters>45803.513909364</DistanceMeters>
          </Trackpoint>
          <Trackpoint>
            <Time>2020-01-19T08:57:12.000Z</Time>
            <Position>
              <LatitudeDegrees>38.926279507577419281005859375</LatitudeDegrees>
              <LongitudeDegrees>-2.79957284219563007354736328125</LongitudeDegrees>
            </Position>
            <AltitudeMeters>926.79998779296875</AltitudeMeters>
            <DistanceMeters>45816.998330719</DistanceMeters>
          </Trackpoint>
          <Trackpoint>
            <Time>2020-01-19T08:57:14.000Z</Time>
            <Position>
              <LatitudeDegrees>38.92634161747992038726806640625</LatitudeDegrees>
              <LongitudeDegrees>-2.79964040033519268035888671875</LongitudeDegrees>
            </Position>
            <AltitudeMeters>926.79998779296875</AltitudeMeters>
            <DistanceMeters>45826.054331727</DistanceMeters>
          </Trackpoint>
          <Trackpoint>
            <Time>2020-01-19T08:57:19.000Z</Time>
            <Position>
              <LatitudeDegrees>38.92645108513534069061279296875</LatitudeDegrees>
              <LongitudeDegrees>-2.79984525404870510101318359375</LongitudeDegrees>
            </Position>
            <AltitudeMeters>926.5999755859375</AltitudeMeters>
            <DistanceMeters>45847.57363423</DistanceMeters>
          </Trackpoint>
          <Trackpoint>
            <Time>2020-01-19T08:57:27.000Z</Time>
            <Position>
              <LatitudeDegrees>38.92659659497439861297607421875</LatitudeDegrees>
              <LongitudeDegrees>-2.80017265118658542633056640625</LongitudeDegrees>
            </Position>
            <AltitudeMeters>926.4000244140625</AltitudeMeters>
            <DistanceMeters>45880.222467957</DistanceMeters>
          </Trackpoint>
          <Trackpoint>
            <Time>2020-01-19T08:57:29.000Z</Time>
            <Position>
              <LatitudeDegrees>38.92656491138041019439697265625</LatitudeDegrees>
              <LongitudeDegrees>-2.80026686377823352813720703125</LongitudeDegrees>
            </Position>
            <AltitudeMeters>926.5999755859375</AltitudeMeters>
            <DistanceMeters>45889.110387215</DistanceMeters>
          </Trackpoint>
          <Trackpoint>
            <Time>2020-01-19T08:57:37.000Z</Time>
            <Position>
              <LatitudeDegrees>38.92646131105720996856689453125</LatitudeDegrees>
              <LongitudeDegrees>-2.80065008439123630523681640625</LongitudeDegrees>
            </Position>
            <AltitudeMeters>926.79998779296875</AltitudeMeters>
            <DistanceMeters>45924.238924425</DistanceMeters>
          </Trackpoint>
          <Trackpoint>
            <Time>2020-01-19T08:57:39.000Z</Time>
            <Position>
              <LatitudeDegrees>38.92645996995270252227783203125</LatitudeDegrees>
              <LongitudeDegrees>-2.8007447160780429840087890625</LongitudeDegrees>
            </Position>
            <AltitudeMeters>926.5999755859375</AltitudeMeters>
            <DistanceMeters>45932.434393209</DistanceMeters>
          </Trackpoint>
          <Trackpoint>
            <Time>2020-01-19T08:57:49.000Z</Time>
            <Position>
              <LatitudeDegrees>38.92638268880546092987060546875</LatitudeDegrees>
              <LongitudeDegrees>-2.80122458003461360931396484375</LongitudeDegrees>
            </Position>
            <AltitudeMeters>926</AltitudeMeters>
            <DistanceMeters>45974.865709962</DistanceMeters>
          </Trackpoint>
          <Trackpoint>
            <Time>2020-01-19T08:57:58.000Z</Time>
            <Position>
              <LatitudeDegrees>38.92637908458709716796875</LatitudeDegrees>
              <LongitudeDegrees>-2.80167250894010066986083984375</LongitudeDegrees>
            </Position>
            <AltitudeMeters>925.5999755859375</AltitudeMeters>
            <DistanceMeters>46013.653142412</DistanceMeters>
          </Trackpoint>
          <Trackpoint>
            <Time>2020-01-19T08:57:59.000Z</Time>
            <Position>
              <LatitudeDegrees>38.92638637684285640716552734375</LatitudeDegrees>
              <LongitudeDegrees>-2.80171810649335384368896484375</LongitudeDegrees>
            </Position>
            <AltitudeMeters>925.4000244140625</AltitudeMeters>
            <DistanceMeters>46017.684784459</DistanceMeters>
          </Trackpoint>
          <Trackpoint>
            <Time>2020-01-19T08:58:04.000Z</Time>
            <Position>
              <LatitudeDegrees>38.9265163801610469818115234375</LatitudeDegrees>
              <LongitudeDegrees>-2.8019061125814914703369140625</LongitudeDegrees>
            </Position>
            <AltitudeMeters>924.4000244140625</AltitudeMeters>
            <DistanceMeters>46039.46518932</DistanceMeters>
          </Trackpoint>
          <Trackpoint>
            <Time>2020-01-19T08:58:08.000Z</Time>
            <Position>
              <LatitudeDegrees>38.9266270212829113006591796875</LatitudeDegrees>
              <LongitudeDegrees>-2.80209763906896114349365234375</LongitudeDegrees>
            </Position>
            <AltitudeMeters>923.5999755859375</AltitudeMeters>
            <DistanceMeters>46060.121208104</DistanceMeters>
          </Trackpoint>
          <Trackpoint>
            <Time>2020-01-19T08:58:09.000Z</Time>
            <Position>
              <LatitudeDegrees>38.9266592077910900115966796875</LatitudeDegrees>
              <LongitudeDegrees>-2.80213820748031139373779296875</LongitudeDegrees>
            </Position>
            <AltitudeMeters>923.4000244140625</AltitudeMeters>
            <DistanceMeters>46065.1387626</DistanceMeters>
          </Trackpoint>
          <Trackpoint>
            <Time>2020-01-19T08:58:10.000Z</Time>
            <Position>
              <LatitudeDegrees>38.926693238317966461181640625</LatitudeDegrees>
              <LongitudeDegrees>-2.80217592604458332061767578125</LongitudeDegrees>
            </Position>
            <AltitudeMeters>923.20001220703125</AltitudeMeters>
            <DistanceMeters>46070.140093598</DistanceMeters>
          </Trackpoint>
          <Trackpoint>
            <Time>2020-01-19T08:58:12.000Z</Time>
            <Position>
              <LatitudeDegrees>38.92677278257906436920166015625</LatitudeDegrees>
              <LongitudeDegrees>-2.80222906731069087982177734375</LongitudeDegrees>
            </Position>
            <AltitudeMeters>922.79998779296875</AltitudeMeters>
            <DistanceMeters>46080.118351105</DistanceMeters>
          </Trackpoint>
          <Trackpoint>
            <Time>2020-01-19T08:58:14.000Z</Time>
            <Position>
              <LatitudeDegrees>38.926848806440830230712890625</LatitudeDegrees>
              <LongitudeDegrees>-2.802272401750087738037109375</LongitudeDegrees>
            </Position>
            <AltitudeMeters>922.5999755859375</AltitudeMeters>
            <DistanceMeters>46089.374557957</DistanceMeters>
          </Trackpoint>
          <Trackpoint>
            <Time>2020-01-19T08:58:18.000Z</Time>
            <Position>
              <LatitudeDegrees>38.92694704234600067138671875</LatitudeDegrees>
              <LongitudeDegrees>-2.80235865153372287750244140625</LongitudeDegrees>
            </Position>
            <AltitudeMeters>921.79998779296875</AltitudeMeters>
            <DistanceMeters>46102.615022605</DistanceMeters>
          </Trackpoint>
          <Trackpoint>
            <Time>2020-01-19T08:58:20.000Z</Time>
            <Position>
              <LatitudeDegrees>38.92698031850159168243408203125</LatitudeDegrees>
              <LongitudeDegrees>-2.80232428573071956634521484375</LongitudeDegrees>
            </Position>
            <AltitudeMeters>921.5999755859375</AltitudeMeters>
            <DistanceMeters>46107.364457409</DistanceMeters>
          </Trackpoint>
          <Trackpoint>
            <Time>2020-01-19T08:58:29.000Z</Time>
            <Position>
              <LatitudeDegrees>38.92703597433865070343017578125</LatitudeDegrees>
              <LongitudeDegrees>-2.8019678033888339996337890625</LongitudeDegrees>
            </Position>
            <AltitudeMeters>921.4000244140625</AltitudeMeters>
            <DistanceMeters>46138.846708923</DistanceMeters>
          </Trackpoint>
          <Trackpoint>
            <Time>2020-01-19T08:58:32.000Z</Time>
            <Position>
              <LatitudeDegrees>38.92710956744849681854248046875</LatitudeDegrees>
              <LongitudeDegrees>-2.801833190023899078369140625</LongitudeDegrees>
            </Position>
            <AltitudeMeters>920.79998779296875</AltitudeMeters>
            <DistanceMeters>46153.092794985</DistanceMeters>
          </Trackpoint>
          <Trackpoint>
            <Time>2020-01-19T08:58:34.000Z</Time>
            <Position>
              <LatitudeDegrees>38.9271544106304645538330078125</LatitudeDegrees>
              <LongitudeDegrees>-2.80173570849001407623291015625</LongitudeDegrees>
            </Position>
            <AltitudeMeters>920.5999755859375</AltitudeMeters>
            <DistanceMeters>46162.898520556</DistanceMeters>
          </Trackpoint>
          <Trackpoint>
            <Time>2020-01-19T08:58:36.000Z</Time>
            <Position>
              <LatitudeDegrees>38.9272114075720310211181640625</LatitudeDegrees>
              <LongitudeDegrees>-2.8016191162168979644775390625</LongitudeDegrees>
            </Position>
            <AltitudeMeters>920.20001220703125</AltitudeMeters>
            <DistanceMeters>46174.821628098</DistanceMeters>
          </Trackpoint>
          <Trackpoint>
            <Time>2020-01-19T08:58:38.000Z</Time>
            <Position>
              <LatitudeDegrees>38.92727301456034183502197265625</LatitudeDegrees>
              <LongitudeDegrees>-2.80149498023092746734619140625</LongitudeDegrees>
            </Position>
            <AltitudeMeters>919.79998779296875</AltitudeMeters>
            <DistanceMeters>46187.570799679</DistanceMeters>
          </Trackpoint>
          <Trackpoint>
            <Time>2020-01-19T08:58:39.000Z</Time>
            <Position>
              <LatitudeDegrees>38.9273106493055820465087890625</LatitudeDegrees>
              <LongitudeDegrees>-2.80145399272441864013671875</LongitudeDegrees>
            </Position>
            <AltitudeMeters>919.4000244140625</AltitudeMeters>
            <DistanceMeters>46193.061008706</DistanceMeters>
          </Trackpoint>
          <Trackpoint>
            <Time>2020-01-19T08:58:40.000Z</Time>
            <Position>
              <LatitudeDegrees>38.92735783942043781280517578125</LatitudeDegrees>
              <LongitudeDegrees>-2.8014276735484600067138671875</LongitudeDegrees>
            </Position>
            <AltitudeMeters>919</AltitudeMeters>
            <DistanceMeters>46198.786318959</DistanceMeters>
          </Trackpoint>
          <Trackpoint>
            <Time>2020-01-19T08:58:42.000Z</Time>
            <Position>
              <LatitudeDegrees>38.9274481125175952911376953125</LatitudeDegrees>
              <LongitudeDegrees>-2.8013555891811847686767578125</LongitudeDegrees>
            </Position>
            <AltitudeMeters>918.20001220703125</AltitudeMeters>
            <DistanceMeters>46210.614759449</DistanceMeters>
          </Trackpoint>
          <Trackpoint>
            <Time>2020-01-19T08:58:44.000Z</Time>
            <Position>
              <LatitudeDegrees>38.927534781396389007568359375</LatitudeDegrees>
              <LongitudeDegrees>-2.80129381455481052398681640625</LongitudeDegrees>
            </Position>
            <AltitudeMeters>917.4000244140625</AltitudeMeters>
            <DistanceMeters>46221.645228614</DistanceMeters>
          </Trackpoint>
          <Trackpoint>
            <Time>2020-01-19T08:58:47.000Z</Time>
            <Position>
              <LatitudeDegrees>38.9277081191539764404296875</LatitudeDegrees>
              <LongitudeDegrees>-2.80127822421491146087646484375</LongitudeDegrees>
            </Position>
            <AltitudeMeters>915.79998779296875</AltitudeMeters>
            <DistanceMeters>46240.985441293</DistanceMeters>
          </Trackpoint>
          <Trackpoint>
            <Time>2020-01-19T08:58:49.000Z</Time>
            <Position>
              <LatitudeDegrees>38.92782655544579029083251953125</LatitudeDegrees>
              <LongitudeDegrees>-2.80128233134746551513671875</LongitudeDegrees>
            </Position>
            <AltitudeMeters>915.4000244140625</AltitudeMeters>
            <DistanceMeters>46254.172602176</DistanceMeters>
          </Trackpoint>
          <Trackpoint>
            <Time>2020-01-19T08:58:52.000Z</Time>
            <Position>
              <LatitudeDegrees>38.9279848895967006683349609375</LatitudeDegrees>
              <LongitudeDegrees>-2.80124553479254245758056640625</LongitudeDegrees>
            </Position>
            <AltitudeMeters>915</AltitudeMeters>
            <DistanceMeters>46272.081041388</DistanceMeters>
          </Trackpoint>
          <Trackpoint>
            <Time>2020-01-19T08:58:54.000Z</Time>
            <Position>
              <LatitudeDegrees>38.92804180271923542022705078125</LatitudeDegrees>
              <LongitudeDegrees>-2.8013086505234241485595703125</LongitudeDegrees>
            </Position>
            <AltitudeMeters>914.79998779296875</AltitudeMeters>
            <DistanceMeters>46280.446631172</DistanceMeters>
          </Trackpoint>
          <Trackpoint>
            <Time>2020-01-19T08:58:57.000Z</Time>
            <Position>
              <LatitudeDegrees>38.9280707202851772308349609375</LatitudeDegrees>
              <LongitudeDegrees>-2.80149129219353199005126953125</LongitudeDegrees>
            </Position>
            <AltitudeMeters>913.5999755859375</AltitudeMeters>
            <DistanceMeters>46296.584954034</DistanceMeters>
          </Trackpoint>
          <Trackpoint>
            <Time>2020-01-19T08:58:59.000Z</Time>
            <Position>
              <LatitudeDegrees>38.92811757512390613555908203125</LatitudeDegrees>
              <LongitudeDegrees>-2.80158231966197490692138671875</LongitudeDegrees>
            </Position>
            <AltitudeMeters>912.20001220703125</AltitudeMeters>
            <DistanceMeters>46306.035216254</DistanceMeters>
          </Trackpoint>
          <Trackpoint>
            <Time>2020-01-19T08:59:04.000Z</Time>
            <Position>
              <LatitudeDegrees>38.92827741801738739013671875</LatitudeDegrees>
              <LongitudeDegrees>-2.80175196938216686248779296875</LongitudeDegrees>
            </Position>
            <AltitudeMeters>909.20001220703125</AltitudeMeters>
            <DistanceMeters>46329.10655965</DistanceMeters>
          </Trackpoint>
          <Trackpoint>
            <Time>2020-01-19T08:59:09.000Z</Time>
            <Position>
              <LatitudeDegrees>38.9284002967178821563720703125</LatitudeDegrees>
              <LongitudeDegrees>-2.80191960744559764862060546875</LongitudeDegrees>
            </Position>
            <AltitudeMeters>907.79998779296875</AltitudeMeters>
            <DistanceMeters>46349.04972181</DistanceMeters>
          </Trackpoint>
          <Trackpoint>
            <Time>2020-01-19T08:59:19.000Z</Time>
            <Position>
              <LatitudeDegrees>38.92851957120001316070556640625</LatitudeDegrees>
              <LongitudeDegrees>-2.80207735486328601837158203125</LongitudeDegrees>
            </Position>
            <AltitudeMeters>905.4000244140625</AltitudeMeters>
            <DistanceMeters>46368.096830547</DistanceMeters>
          </Trackpoint>
          <Trackpoint>
            <Time>2020-01-19T08:59:29.000Z</Time>
            <Position>
              <LatitudeDegrees>38.9286725409328937530517578125</LatitudeDegrees>
              <LongitudeDegrees>-2.8021533787250518798828125</LongitudeDegrees>
            </Position>
            <AltitudeMeters>903</AltitudeMeters>
            <DistanceMeters>46386.35061894</DistanceMeters>
          </Trackpoint>
          <Trackpoint>
            <Time>2020-01-19T08:59:30.000Z</Time>
            <Position>
              <LatitudeDegrees>38.9286859519779682159423828125</LatitudeDegrees>
              <LongitudeDegrees>-2.80215530656278133392333984375</LongitudeDegrees>
            </Position>
            <AltitudeMeters>902.79998779296875</AltitudeMeters>
            <DistanceMeters>46387.847101134</DistanceMeters>
          </Trackpoint>
          <Trackpoint>
            <Time>2020-01-19T08:59:38.000Z</Time>
            <Position>
              <LatitudeDegrees>38.928904049098491668701171875</LatitudeDegrees>
              <LongitudeDegrees>-2.802299894392490386962890625</LongitudeDegrees>
            </Position>
            <AltitudeMeters>899</AltitudeMeters>
            <DistanceMeters>46415.159636993</DistanceMeters>
          </Trackpoint>
          <Trackpoint>
            <Time>2020-01-19T08:59:39.000Z</Time>
            <Position>
              <LatitudeDegrees>38.92892508767545223236083984375</LatitudeDegrees>
              <LongitudeDegrees>-2.8023144789040088653564453125</LongitudeDegrees>
            </Position>
            <AltitudeMeters>898.5999755859375</AltitudeMeters>
            <DistanceMeters>46417.820384996</DistanceMeters>
          </Trackpoint>
          <Trackpoint>
            <Time>2020-01-19T08:59:49.000Z</Time>
            <Position>
              <LatitudeDegrees>38.92928098328411579132080078125</LatitudeDegrees>
              <LongitudeDegrees>-2.80230836011469364166259765625</LongitudeDegrees>
            </Position>
            <AltitudeMeters>893</AltitudeMeters>
            <DistanceMeters>46457.435699023</DistanceMeters>
          </Trackpoint>
          <Trackpoint>
            <Time>2020-01-19T08:59:54.000Z</Time>
            <Position>
              <LatitudeDegrees>38.9295281656086444854736328125</LatitudeDegrees>
              <LongitudeDegrees>-2.802293188869953155517578125</LongitudeDegrees>
            </Position>
            <AltitudeMeters>887</AltitudeMeters>
            <DistanceMeters>46484.978860645</DistanceMeters>
          </Trackpoint>
          <Trackpoint>
            <Time>2020-01-19T08:59:59.000Z</Time>
            <Position>
              <LatitudeDegrees>38.92972488887608051300048828125</LatitudeDegrees>
              <LongitudeDegrees>-2.80214491300284862518310546875</LongitudeDegrees>
            </Position>
            <AltitudeMeters>881.20001220703125</AltitudeMeters>
            <DistanceMeters>46510.360778891</DistanceMeters>
          </Trackpoint>
          <Trackpoint>
            <Time>2020-01-19T09:00:00.000Z</Time>
            <Position>
              <LatitudeDegrees>38.92973519861698150634765625</LatitudeDegrees>
              <LongitudeDegrees>-2.802108116447925567626953125</LongitudeDegrees>
            </Position>
            <AltitudeMeters>881</AltitudeMeters>
            <DistanceMeters>46513.747251552</DistanceMeters>
          </Trackpoint>
          <Trackpoint>
            <Time>2020-01-19T09:00:09.000Z</Time>
            <Position>
              <LatitudeDegrees>38.92973863519728183746337890625</LatitudeDegrees>
              <LongitudeDegrees>-2.8018588386476039886474609375</LongitudeDegrees>
            </Position>
            <AltitudeMeters>882.20001220703125</AltitudeMeters>
            <DistanceMeters>46535.334008251</DistanceMeters>
          </Trackpoint>
          <Trackpoint>
            <Time>2020-01-19T09:00:19.000Z</Time>
            <Position>
              <LatitudeDegrees>38.92981164157390594482421875</LatitudeDegrees>
              <LongitudeDegrees>-2.80157410539686679840087890625</LongitudeDegrees>
            </Position>
            <AltitudeMeters>882.20001220703125</AltitudeMeters>
            <DistanceMeters>46561.291786355</DistanceMeters>
          </Trackpoint>
          <Trackpoint>
            <Time>2020-01-19T09:00:29.000Z</Time>
            <Position>
              <LatitudeDegrees>38.9299372024834156036376953125</LatitudeDegrees>
              <LongitudeDegrees>-2.80125324614346027374267578125</LongitudeDegrees>
            </Position>
            <AltitudeMeters>882.20001220703125</AltitudeMeters>
            <DistanceMeters>46592.390068092</DistanceMeters>
          </Trackpoint>
          <Trackpoint>
            <Time>2020-01-19T09:00:32.000Z</Time>
            <Position>
              <LatitudeDegrees>38.9299499429762363433837890625</LatitudeDegrees>
              <LongitudeDegrees>-2.80120815150439739227294921875</LongitudeDegrees>
            </Position>
            <AltitudeMeters>882.4000244140625</AltitudeMeters>
            <DistanceMeters>46596.54415958</DistanceMeters>
          </Trackpoint>
          <Trackpoint>
            <Time>2020-01-19T09:00:35.000Z</Time>
            <Position>
              <LatitudeDegrees>38.929956145584583282470703125</LatitudeDegrees>
              <LongitudeDegrees>-2.801196835935115814208984375</LongitudeDegrees>
            </Position>
            <AltitudeMeters>882.4000244140625</AltitudeMeters>
            <DistanceMeters>46597.746163003</DistanceMeters>
          </Trackpoint>
          <Trackpoint>
            <Time>2020-01-19T09:01:29.000Z</Time>
            <Position>
              <LatitudeDegrees>38.93003300763666629791259765625</LatitudeDegrees>
              <LongitudeDegrees>-2.8010920621454715728759765625</LongitudeDegrees>
            </Position>
            <AltitudeMeters>881.20001220703125</AltitudeMeters>
            <DistanceMeters>46610.215319198</DistanceMeters>
          </Trackpoint>
          <Trackpoint>
            <Time>2020-01-19T09:01:33.000Z</Time>
            <Position>
              <LatitudeDegrees>38.9300843887031078338623046875</LatitudeDegrees>
              <LongitudeDegrees>-2.80101276934146881103515625</LongitudeDegrees>
            </Position>
            <AltitudeMeters>880.4000244140625</AltitudeMeters>
            <DistanceMeters>46619.149851965</DistanceMeters>
          </Trackpoint>
          <Trackpoint>
            <Time>2020-01-19T09:01:36.000Z</Time>
            <Position>
              <LatitudeDegrees>38.9301135577261447906494140625</LatitudeDegrees>
              <LongitudeDegrees>-2.800950072705745697021484375</LongitudeDegrees>
            </Position>
            <AltitudeMeters>880.4000244140625</AltitudeMeters>
            <DistanceMeters>46625.47609088</DistanceMeters>
          </Trackpoint>
          <Trackpoint>
            <Time>2020-01-19T09:01:39.000Z</Time>
            <Position>
              <LatitudeDegrees>38.9301487617194652557373046875</LatitudeDegrees>
              <LongitudeDegrees>-2.800902463495731353759765625</LongitudeDegrees>
            </Position>
            <AltitudeMeters>879.79998779296875</AltitudeMeters>
            <DistanceMeters>46631.164215693</DistanceMeters>
          </Trackpoint>
          <Trackpoint>
            <Time>2020-01-19T09:01:44.000Z</Time>
            <Position>
              <LatitudeDegrees>38.93023869954049587249755859375</LatitudeDegrees>
              <LongitudeDegrees>-2.8008144535124301910400390625</LongitudeDegrees>
            </Position>
            <AltitudeMeters>878.79998779296875</AltitudeMeters>
            <DistanceMeters>46643.744403282</DistanceMeters>
          </Trackpoint>
          <Trackpoint>
            <Time>2020-01-19T09:01:49.000Z</Time>
            <Position>
              <LatitudeDegrees>38.930351436138153076171875</LatitudeDegrees>
              <LongitudeDegrees>-2.8007205761969089508056640625</LongitudeDegrees>
            </Position>
            <AltitudeMeters>878.4000244140625</AltitudeMeters>
            <DistanceMeters>46658.694736126</DistanceMeters>
          </Trackpoint>
          <Trackpoint>
            <Time>2020-01-19T09:01:54.000Z</Time>
            <Position>
              <LatitudeDegrees>38.93041371367871761322021484375</LatitudeDegrees>
              <LongitudeDegrees>-2.80061781406402587890625</LongitudeDegrees>
            </Position>
            <AltitudeMeters>879.4000244140625</AltitudeMeters>
            <DistanceMeters>46669.973730626</DistanceMeters>
          </Trackpoint>
          <Trackpoint>
            <Time>2020-01-19T09:01:59.000Z</Time>
            <Position>
              <LatitudeDegrees>38.93046735785901546478271484375</LatitudeDegrees>
              <LongitudeDegrees>-2.80053156428039073944091796875</LongitudeDegrees>
            </Position>
            <AltitudeMeters>880.4000244140625</AltitudeMeters>
            <DistanceMeters>46679.534192632</DistanceMeters>
          </Trackpoint>
          <Trackpoint>
            <Time>2020-01-19T09:02:04.000Z</Time>
            <Position>
              <LatitudeDegrees>38.9305098541080951690673828125</LatitudeDegrees>
              <LongitudeDegrees>-2.80042477883398532867431640625</LongitudeDegrees>
            </Position>
            <AltitudeMeters>882.20001220703125</AltitudeMeters>
            <DistanceMeters>46689.919964781</DistanceMeters>
          </Trackpoint>
          <Trackpoint>
            <Time>2020-01-19T09:02:06.000Z</Time>
            <Position>
              <LatitudeDegrees>38.93052435480058193206787109375</LatitudeDegrees>
              <LongitudeDegrees>-2.80039141885936260223388671875</LongitudeDegrees>
            </Position>
            <AltitudeMeters>882.5999755859375</AltitudeMeters>
            <DistanceMeters>46693.228204894</DistanceMeters>
          </Trackpoint>
          <Trackpoint>
            <Time>2020-01-19T09:02:09.000Z</Time>
            <Position>
              <LatitudeDegrees>38.93055603839457035064697265625</LatitudeDegrees>
              <LongitudeDegrees>-2.80035017989575862884521484375</LongitudeDegrees>
            </Position>
            <AltitudeMeters>883</AltitudeMeters>
            <DistanceMeters>46698.247558765</DistanceMeters>
          </Trackpoint>
          <Trackpoint>
            <Time>2020-01-19T09:02:11.000Z</Time>
            <Position>
              <LatitudeDegrees>38.930584453046321868896484375</LatitudeDegrees>
              <LongitudeDegrees>-2.8003078512847423553466796875</LongitudeDegrees>
            </Position>
            <AltitudeMeters>883.4000244140625</AltitudeMeters>
            <DistanceMeters>46703.088328164</DistanceMeters>
          </Trackpoint>
          <Trackpoint>
            <Time>2020-01-19T09:02:12.000Z</Time>
            <Position>
              <LatitudeDegrees>38.93060482107102870941162109375</LatitudeDegrees>
              <LongitudeDegrees>-2.8002850525081157684326171875</LongitudeDegrees>
            </Position>
            <AltitudeMeters>883.4000244140625</AltitudeMeters>
            <DistanceMeters>46706.093336723</DistanceMeters>
          </Trackpoint>
          <Trackpoint>
            <Time>2020-01-19T09:02:15.000Z</Time>
            <Position>
              <LatitudeDegrees>38.9306526817381381988525390625</LatitudeDegrees>
              <LongitudeDegrees>-2.80023015104234218597412109375</LongitudeDegrees>
            </Position>
            <AltitudeMeters>883.5999755859375</AltitudeMeters>
            <DistanceMeters>46713.232366871</DistanceMeters>
          </Trackpoint>
          <Trackpoint>
            <Time>2020-01-19T09:02:19.000Z</Time>
            <Position>
              <LatitudeDegrees>38.930715210735797882080078125</LatitudeDegrees>
              <LongitudeDegrees>-2.8001556359231472015380859375</LongitudeDegrees>
            </Position>
            <AltitudeMeters>884</AltitudeMeters>
            <DistanceMeters>46722.721725242</DistanceMeters>
          </Trackpoint>
          <Trackpoint>
            <Time>2020-01-19T09:02:27.000Z</Time>
            <Position>
              <LatitudeDegrees>38.93087379634380340576171875</LatitudeDegrees>
              <LongitudeDegrees>-2.80001808889210224151611328125</LongitudeDegrees>
            </Position>
            <AltitudeMeters>883.4000244140625</AltitudeMeters>
            <DistanceMeters>46744.014283755</DistanceMeters>
          </Trackpoint>
          <Trackpoint>
            <Time>2020-01-19T09:02:29.000Z</Time>
            <Position>
              <LatitudeDegrees>38.9309209026396274566650390625</LatitudeDegrees>
              <LongitudeDegrees>-2.80001088045537471771240234375</LongitudeDegrees>
            </Position>
            <AltitudeMeters>882.4000244140625</AltitudeMeters>
            <DistanceMeters>46749.294041892</DistanceMeters>
          </Trackpoint>
          <Trackpoint>
            <Time>2020-01-19T09:02:39.000Z</Time>
            <Position>
              <LatitudeDegrees>38.93123312853276729583740234375</LatitudeDegrees>
              <LongitudeDegrees>-2.80003912746906280517578125</LongitudeDegrees>
            </Position>
            <AltitudeMeters>875.4000244140625</AltitudeMeters>
            <DistanceMeters>46784.131410824</DistanceMeters>
          </Trackpoint>
          <Trackpoint>
            <Time>2020-01-19T09:02:43.000Z</Time>
            <Position>
              <LatitudeDegrees>38.93136925064027309417724609375</LatitudeDegrees>
              <LongitudeDegrees>-2.800056226551532745361328125</LongitudeDegrees>
            </Position>
            <AltitudeMeters>873.4000244140625</AltitudeMeters>
            <DistanceMeters>46799.354085415</DistanceMeters>
          </Trackpoint>
          <Trackpoint>
            <Time>2020-01-19T09:02:49.000Z</Time>
            <Position>
              <LatitudeDegrees>38.931544013321399688720703125</LatitudeDegrees>
              <LongitudeDegrees>-2.80005916021764278411865234375</LongitudeDegrees>
            </Position>
            <AltitudeMeters>871.20001220703125</AltitudeMeters>
            <DistanceMeters>46818.806961383</DistanceMeters>
          </Trackpoint>
          <Trackpoint>
            <Time>2020-01-19T09:02:55.000Z</Time>
            <Position>
              <LatitudeDegrees>38.93167175352573394775390625</LatitudeDegrees>
              <LongitudeDegrees>-2.800051532685756683349609375</LongitudeDegrees>
            </Position>
            <AltitudeMeters>869.79998779296875</AltitudeMeters>
            <DistanceMeters>46833.039730083</DistanceMeters>
          </Trackpoint>
          <Trackpoint>
            <Time>2020-01-19T09:02:59.000Z</Time>
            <Position>
              <LatitudeDegrees>38.93177996389567852020263671875</LatitudeDegrees>
              <LongitudeDegrees>-2.80004206113517284393310546875</LongitudeDegrees>
            </Position>
            <AltitudeMeters>868.5999755859375</AltitudeMeters>
            <DistanceMeters>46845.111489427</DistanceMeters>
          </Trackpoint>
          <Trackpoint>
            <Time>2020-01-19T09:03:09.000Z</Time>
            <Position>
              <LatitudeDegrees>38.93208439461886882781982421875</LatitudeDegrees>
              <LongitudeDegrees>-2.800042144954204559326171875</LongitudeDegrees>
            </Position>
            <AltitudeMeters>866</AltitudeMeters>
            <DistanceMeters>46878.995142997</DistanceMeters>
          </Trackpoint>
          <Trackpoint>
            <Time>2020-01-19T09:03:11.000Z</Time>
            <Position>
              <LatitudeDegrees>38.93215077929198741912841796875</LatitudeDegrees>
              <LongitudeDegrees>-2.800019681453704833984375</LongitudeDegrees>
            </Position>
            <AltitudeMeters>865.5999755859375</AltitudeMeters>
            <DistanceMeters>46886.635196278</DistanceMeters>
          </Trackpoint>
          <Trackpoint>
            <Time>2020-01-19T09:03:12.000Z</Time>
            <Position>
              <LatitudeDegrees>38.9321661181747913360595703125</LatitudeDegrees>
              <LongitudeDegrees>-2.79999948106706142425537109375</LongitudeDegrees>
            </Position>
            <AltitudeMeters>865.5999755859375</AltitudeMeters>
            <DistanceMeters>46889.078325527</DistanceMeters>
          </Trackpoint>
          <Trackpoint>
            <Time>2020-01-19T09:03:19.000Z</Time>
            <Position>
              <LatitudeDegrees>38.93218581564724445343017578125</LatitudeDegrees>
              <LongitudeDegrees>-2.79978909529745578765869140625</LongitudeDegrees>
            </Position>
            <AltitudeMeters>866</AltitudeMeters>
            <DistanceMeters>46907.425127143</DistanceMeters>
          </Trackpoint>
          <Trackpoint>
            <Time>2020-01-19T09:03:29.000Z</Time>
            <Position>
              <LatitudeDegrees>38.93220090307295322418212890625</LatitudeDegrees>
              <LongitudeDegrees>-2.79949598014354705810546875</LongitudeDegrees>
            </Position>
            <AltitudeMeters>871.79998779296875</AltitudeMeters>
            <DistanceMeters>46932.858756968</DistanceMeters>
          </Trackpoint>
          <Trackpoint>
            <Time>2020-01-19T09:03:39.000Z</Time>
            <Position>
              <LatitudeDegrees>38.93217676319181919097900390625</LatitudeDegrees>
              <LongitudeDegrees>-2.7992369793355464935302734375</LongitudeDegrees>
            </Position>
            <AltitudeMeters>878.4000244140625</AltitudeMeters>
            <DistanceMeters>46955.44355048</DistanceMeters>
          </Trackpoint>
          <Trackpoint>
            <Time>2020-01-19T09:03:46.000Z</Time>
            <Position>
              <LatitudeDegrees>38.93214155919849872589111328125</LatitudeDegrees>
              <LongitudeDegrees>-2.79909239150583744049072265625</LongitudeDegrees>
            </Position>
            <AltitudeMeters>880.4000244140625</AltitudeMeters>
            <DistanceMeters>46968.561023813</DistanceMeters>
          </Trackpoint>
          <Trackpoint>
            <Time>2020-01-19T09:03:49.000Z</Time>
            <Position>
              <LatitudeDegrees>38.9321252144873142242431640625</LatitudeDegrees>
              <LongitudeDegrees>-2.79902785085141658782958984375</LongitudeDegrees>
            </Position>
            <AltitudeMeters>881</AltitudeMeters>
            <DistanceMeters>46974.437333227</DistanceMeters>
          </Trackpoint>
          <Trackpoint>
            <Time>2020-01-19T09:03:53.000Z</Time>
            <Position>
              <LatitudeDegrees>38.9321029186248779296875</LatitudeDegrees>
              <LongitudeDegrees>-2.79893917031586170196533203125</LongitudeDegrees>
            </Position>
            <AltitudeMeters>882.4000244140625</AltitudeMeters>
            <DistanceMeters>46982.507333928</DistanceMeters>
          </Trackpoint>
          <Trackpoint>
            <Time>2020-01-19T09:03:58.000Z</Time>
            <Position>
              <LatitudeDegrees>38.93208489753305912017822265625</LatitudeDegrees>
              <LongitudeDegrees>-2.7988232485949993133544921875</LongitudeDegrees>
            </Position>
            <AltitudeMeters>883.5999755859375</AltitudeMeters>
            <DistanceMeters>46992.742024287</DistanceMeters>
          </Trackpoint>
          <Trackpoint>
            <Time>2020-01-19T09:03:59.000Z</Time>
            <Position>
              <LatitudeDegrees>38.9320814609527587890625</LatitudeDegrees>
              <LongitudeDegrees>-2.79879868961870670318603515625</LongitudeDegrees>
            </Position>
            <AltitudeMeters>884</AltitudeMeters>
            <DistanceMeters>46994.900616292</DistanceMeters>
          </Trackpoint>
          <Trackpoint>
            <Time>2020-01-19T09:04:09.000Z</Time>
            <Position>
              <LatitudeDegrees>38.9320501126348972320556640625</LatitudeDegrees>
              <LongitudeDegrees>-2.798556201159954071044921875</LongitudeDegrees>
            </Position>
            <AltitudeMeters>886.5999755859375</AltitudeMeters>
            <DistanceMeters>47016.183206229</DistanceMeters>
          </Trackpoint>
          <Trackpoint>
            <Time>2020-01-19T09:04:18.000Z</Time>
            <Position>
              <LatitudeDegrees>38.932073749601840972900390625</LatitudeDegrees>
              <LongitudeDegrees>-2.79830935411155223846435546875</LongitudeDegrees>
            </Position>
            <AltitudeMeters>887.5999755859375</AltitudeMeters>
            <DistanceMeters>47037.716771317</DistanceMeters>
          </Trackpoint>
          <Trackpoint>
            <Time>2020-01-19T09:04:29.000Z</Time>
            <Position>
              <LatitudeDegrees>38.93207316286861896514892578125</LatitudeDegrees>
              <LongitudeDegrees>-2.79800333082675933837890625</LongitudeDegrees>
            </Position>
            <AltitudeMeters>886.4000244140625</AltitudeMeters>
            <DistanceMeters>47064.212700496</DistanceMeters>
          </Trackpoint>
          <Trackpoint>
            <Time>2020-01-19T09:04:36.000Z</Time>
            <Position>
              <LatitudeDegrees>38.93206846900284290313720703125</LatitudeDegrees>
              <LongitudeDegrees>-2.79779839329421520233154296875</LongitudeDegrees>
            </Position>
            <AltitudeMeters>884.79998779296875</AltitudeMeters>
            <DistanceMeters>47081.964138398</DistanceMeters>
          </Trackpoint>
          <Trackpoint>
            <Time>2020-01-19T09:04:39.000Z</Time>
            <Position>
              <LatitudeDegrees>38.9320675469934940338134765625</LatitudeDegrees>
              <LongitudeDegrees>-2.7977144904434680938720703125</LongitudeDegrees>
            </Position>
            <AltitudeMeters>884</AltitudeMeters>
            <DistanceMeters>47089.2297992</DistanceMeters>
          </Trackpoint>
          <Trackpoint>
            <Time>2020-01-19T09:04:49.000Z</Time>
            <Position>
              <LatitudeDegrees>38.93205237574875354766845703125</LatitudeDegrees>
              <LongitudeDegrees>-2.7974512986838817596435546875</LongitudeDegrees>
            </Position>
            <AltitudeMeters>883.4000244140625</AltitudeMeters>
            <DistanceMeters>47112.079723051</DistanceMeters>
          </Trackpoint>
          <Trackpoint>
            <Time>2020-01-19T09:04:57.000Z</Time>
            <Position>
              <LatitudeDegrees>38.93204818479716777801513671875</LatitudeDegrees>
              <LongitudeDegrees>-2.79723085463047027587890625</LongitudeDegrees>
            </Position>
            <AltitudeMeters>881.5999755859375</AltitudeMeters>
            <DistanceMeters>47131.171580888</DistanceMeters>
          </Trackpoint>
          <Trackpoint>
            <Time>2020-01-19T09:04:59.000Z</Time>
            <Position>
              <LatitudeDegrees>38.932059668004512786865234375</LatitudeDegrees>
              <LongitudeDegrees>-2.7971726842224597930908203125</LongitudeDegrees>
            </Position>
            <AltitudeMeters>881</AltitudeMeters>
            <DistanceMeters>47136.367726437</DistanceMeters>
          </Trackpoint>
          <Trackpoint>
            <Time>2020-01-19T09:05:09.000Z</Time>
            <Position>
              <LatitudeDegrees>38.93211306072771549224853515625</LatitudeDegrees>
              <LongitudeDegrees>-2.79688459821045398712158203125</LongitudeDegrees>
            </Position>
            <AltitudeMeters>877.79998779296875</AltitudeMeters>
            <DistanceMeters>47162.008744469</DistanceMeters>
          </Trackpoint>
          <Trackpoint>
            <Time>2020-01-19T09:05:14.000Z</Time>
            <Position>
              <LatitudeDegrees>38.9321820437908172607421875</LatitudeDegrees>
              <LongitudeDegrees>-2.79681217856705188751220703125</LongitudeDegrees>
            </Position>
            <AltitudeMeters>877.20001220703125</AltitudeMeters>
            <DistanceMeters>47171.921629613</DistanceMeters>
          </Trackpoint>
          <Trackpoint>
            <Time>2020-01-19T09:05:19.000Z</Time>
            <Position>
              <LatitudeDegrees>38.93228589557111263275146484375</LatitudeDegrees>
              <LongitudeDegrees>-2.79690186493098735809326171875</LongitudeDegrees>
            </Position>
            <AltitudeMeters>878.5999755859375</AltitudeMeters>
            <DistanceMeters>47185.846529306</DistanceMeters>
          </Trackpoint>
          <Trackpoint>
            <Time>2020-01-19T09:05:29.000Z</Time>
            <Position>
              <LatitudeDegrees>38.93245722167193889617919921875</LatitudeDegrees>
              <LongitudeDegrees>-2.79720076359808444976806640625</LongitudeDegrees>
            </Position>
            <AltitudeMeters>879.20001220703125</AltitudeMeters>
            <DistanceMeters>47217.99225636</DistanceMeters>
          </Trackpoint>
          <Trackpoint>
            <Time>2020-01-19T09:05:34.000Z</Time>
            <Position>
              <LatitudeDegrees>38.9325682818889617919921875</LatitudeDegrees>
              <LongitudeDegrees>-2.797341160476207733154296875</LongitudeDegrees>
            </Position>
            <AltitudeMeters>876.79998779296875</AltitudeMeters>
            <DistanceMeters>47235.32883804</DistanceMeters>
          </Trackpoint>
          <Trackpoint>
            <Time>2020-01-19T09:05:39.000Z</Time>
            <Position>
              <LatitudeDegrees>38.9327059127390384674072265625</LatitudeDegrees>
              <LongitudeDegrees>-2.79748775996267795562744140625</LongitudeDegrees>
            </Position>
            <AltitudeMeters>873.79998779296875</AltitudeMeters>
            <DistanceMeters>47255.222811761</DistanceMeters>
          </Trackpoint>
          <Trackpoint>
            <Time>2020-01-19T09:05:47.000Z</Time>
            <Position>
              <LatitudeDegrees>38.9329305477440357208251953125</LatitudeDegrees>
              <LongitudeDegrees>-2.79773619957268238067626953125</LongitudeDegrees>
            </Position>
            <AltitudeMeters>874.4000244140625</AltitudeMeters>
            <DistanceMeters>47288.204474828</DistanceMeters>
          </Trackpoint>
          <Trackpoint>
            <Time>2020-01-19T09:05:49.000Z</Time>
            <Position>
              <LatitudeDegrees>38.93298427574336528778076171875</LatitudeDegrees>
              <LongitudeDegrees>-2.79780216515064239501953125</LongitudeDegrees>
            </Position>
            <AltitudeMeters>874.79998779296875</AltitudeMeters>
            <DistanceMeters>47296.473437207</DistanceMeters>
          </Trackpoint>
          <Trackpoint>
            <Time>2020-01-19T09:05:58.000Z</Time>
            <Position>
              <LatitudeDegrees>38.93322567455470561981201171875</LatitudeDegrees>
              <LongitudeDegrees>-2.79815076850354671478271484375</LongitudeDegrees>
            </Position>
            <AltitudeMeters>874</AltitudeMeters>
            <DistanceMeters>47336.881808651</DistanceMeters>
          </Trackpoint>
          <Trackpoint>
            <Time>2020-01-19T09:05:59.000Z</Time>
            <Position>
              <LatitudeDegrees>38.9332483895123004913330078125</LatitudeDegrees>
              <LongitudeDegrees>-2.798196785151958465576171875</LongitudeDegrees>
            </Position>
            <AltitudeMeters>873.5999755859375</AltitudeMeters>
            <DistanceMeters>47341.600724682</DistanceMeters>
          </Trackpoint>
          <Trackpoint>
            <Time>2020-01-19T09:06:00.000Z</Time>
            <Position>
              <LatitudeDegrees>38.93327437341213226318359375</LatitudeDegrees>
              <LongitudeDegrees>-2.7982388623058795928955078125</LongitudeDegrees>
            </Position>
            <AltitudeMeters>873.20001220703125</AltitudeMeters>
            <DistanceMeters>47346.252182858</DistanceMeters>
          </Trackpoint>
          <Trackpoint>
            <Time>2020-01-19T09:06:09.000Z</Time>
            <Position>
              <LatitudeDegrees>38.93356329761445522308349609375</LatitudeDegrees>
              <LongitudeDegrees>-2.7984282933175563812255859375</LongitudeDegrees>
            </Position>
            <AltitudeMeters>872.5999755859375</AltitudeMeters>
            <DistanceMeters>47382.350704177</DistanceMeters>
          </Trackpoint>
          <Trackpoint>
            <Time>2020-01-19T09:06:14.000Z</Time>
            <Position>
              <LatitudeDegrees>38.9336855895817279815673828125</LatitudeDegrees>
              <LongitudeDegrees>-2.798408679664134979248046875</LongitudeDegrees>
            </Position>
            <AltitudeMeters>873.4000244140625</AltitudeMeters>
            <DistanceMeters>47396.067506748</DistanceMeters>
          </Trackpoint>
          <Trackpoint>
            <Time>2020-01-19T09:06:17.000Z</Time>
            <Position>
              <LatitudeDegrees>38.93375121988356113433837890625</LatitudeDegrees>
              <LongitudeDegrees>-2.7984090149402618408203125</LongitudeDegrees>
            </Position>
            <AltitudeMeters>873.79998779296875</AltitudeMeters>
            <DistanceMeters>47403.372830272</DistanceMeters>
          </Trackpoint>
          <Trackpoint>
            <Time>2020-01-19T09:06:18.000Z</Time>
            <Position>
              <LatitudeDegrees>38.9337725937366485595703125</LatitudeDegrees>
              <LongitudeDegrees>-2.79841010458767414093017578125</LongitudeDegrees>
            </Position>
            <AltitudeMeters>874</AltitudeMeters>
            <DistanceMeters>47405.754192908</DistanceMeters>
          </Trackpoint>
          <Trackpoint>
            <Time>2020-01-19T09:06:23.000Z</Time>
            <Position>
              <LatitudeDegrees>38.9338733442127704620361328125</LatitudeDegrees>
              <LongitudeDegrees>-2.79842376708984375</LongitudeDegrees>
            </Position>
            <AltitudeMeters>874.4000244140625</AltitudeMeters>
            <DistanceMeters>47417.030384926</DistanceMeters>
          </Trackpoint>
          <Trackpoint>
            <Time>2020-01-19T09:06:29.000Z</Time>
            <Position>
              <LatitudeDegrees>38.9339799620211124420166015625</LatitudeDegrees>
              <LongitudeDegrees>-2.79840876348316669464111328125</LongitudeDegrees>
            </Position>
            <AltitudeMeters>875.20001220703125</AltitudeMeters>
            <DistanceMeters>47428.968251839</DistanceMeters>
          </Trackpoint>
          <Trackpoint>
            <Time>2020-01-19T09:06:31.000Z</Time>
            <Position>
              <LatitudeDegrees>38.93401390872895717620849609375</LatitudeDegrees>
              <LongitudeDegrees>-2.79839199967682361602783203125</LongitudeDegrees>
            </Position>
            <AltitudeMeters>875.5999755859375</AltitudeMeters>
            <DistanceMeters>47433.015542126</DistanceMeters>
          </Trackpoint>
          <Trackpoint>
            <Time>2020-01-19T09:06:34.000Z</Time>
            <Position>
              <LatitudeDegrees>38.93405565060675144195556640625</LatitudeDegrees>
              <LongitudeDegrees>-2.79836182482540607452392578125</LongitudeDegrees>
            </Position>
            <AltitudeMeters>876.4000244140625</AltitudeMeters>
            <DistanceMeters>47438.345515906</DistanceMeters>
          </Trackpoint>
          <Trackpoint>
            <Time>2020-01-19T09:06:37.000Z</Time>
            <Position>
              <LatitudeDegrees>38.934098146855831146240234375</LatitudeDegrees>
              <LongitudeDegrees>-2.798324525356292724609375</LongitudeDegrees>
            </Position>
            <AltitudeMeters>877.4000244140625</AltitudeMeters>
            <DistanceMeters>47444.073191501</DistanceMeters>
          </Trackpoint>
          <Trackpoint>
            <Time>2020-01-19T09:06:39.000Z</Time>
            <Position>
              <LatitudeDegrees>38.9341266453266143798828125</LatitudeDegrees>
              <LongitudeDegrees>-2.79830751009285449981689453125</LongitudeDegrees>
            </Position>
            <AltitudeMeters>877.79998779296875</AltitudeMeters>
            <DistanceMeters>47447.569864706</DistanceMeters>
          </Trackpoint>
          <Trackpoint>
            <Time>2020-01-19T09:06:49.000Z</Time>
            <Position>
              <LatitudeDegrees>38.9342679642140865325927734375</LatitudeDegrees>
              <LongitudeDegrees>-2.7981932647526264190673828125</LongitudeDegrees>
            </Position>
            <AltitudeMeters>881</AltitudeMeters>
            <DistanceMeters>47466.150442808</DistanceMeters>
          </Trackpoint>
          <Trackpoint>
            <Time>2020-01-19T09:06:59.000Z</Time>
            <Position>
              <LatitudeDegrees>38.9343970455229282379150390625</LatitudeDegrees>
              <LongitudeDegrees>-2.798037193715572357177734375</LongitudeDegrees>
            </Position>
            <AltitudeMeters>885</AltitudeMeters>
            <DistanceMeters>47485.873236803</DistanceMeters>
          </Trackpoint>
          <Trackpoint>
            <Time>2020-01-19T09:07:09.000Z</Time>
            <Position>
              <LatitudeDegrees>38.9345227740705013275146484375</LatitudeDegrees>
              <LongitudeDegrees>-2.7978980541229248046875</LongitudeDegrees>
            </Position>
            <AltitudeMeters>887.4000244140625</AltitudeMeters>
            <DistanceMeters>47504.33827475</DistanceMeters>
          </Trackpoint>
          <Trackpoint>
            <Time>2020-01-19T09:07:19.000Z</Time>
            <Position>
              <LatitudeDegrees>38.9346723072230815887451171875</LatitudeDegrees>
              <LongitudeDegrees>-2.79776587150990962982177734375</LongitudeDegrees>
            </Position>
            <AltitudeMeters>889.5999755859375</AltitudeMeters>
            <DistanceMeters>47524.536761172</DistanceMeters>
          </Trackpoint>
          <Trackpoint>
            <Time>2020-01-19T09:07:29.000Z</Time>
            <Position>
              <LatitudeDegrees>38.93483499996364116668701171875</LatitudeDegrees>
              <LongitudeDegrees>-2.79767367057502269744873046875</LongitudeDegrees>
            </Position>
            <AltitudeMeters>891</AltitudeMeters>
            <DistanceMeters>47544.32606018</DistanceMeters>
          </Trackpoint>
          <Trackpoint>
            <Time>2020-01-19T09:07:39.000Z</Time>
            <Position>
              <LatitudeDegrees>38.93500037491321563720703125</LatitudeDegrees>
              <LongitudeDegrees>-2.797587923705577850341796875</LongitudeDegrees>
            </Position>
            <AltitudeMeters>892</AltitudeMeters>
            <DistanceMeters>47564.173226089</DistanceMeters>
          </Trackpoint>
          <Trackpoint>
            <Time>2020-01-19T09:07:49.000Z</Time>
            <Position>
              <LatitudeDegrees>38.93514697439968585968017578125</LatitudeDegrees>
              <LongitudeDegrees>-2.7975237183272838592529296875</LongitudeDegrees>
            </Position>
            <AltitudeMeters>892.79998779296875</AltitudeMeters>
            <DistanceMeters>47581.411082553</DistanceMeters>
          </Trackpoint>
          <Trackpoint>
            <Time>2020-01-19T09:07:56.000Z</Time>
            <Position>
              <LatitudeDegrees>38.935219310224056243896484375</LatitudeDegrees>
              <LongitudeDegrees>-2.79745976440608501434326171875</LongitudeDegrees>
            </Position>
            <AltitudeMeters>894</AltitudeMeters>
            <DistanceMeters>47591.182675479</DistanceMeters>
          </Trackpoint>
          <Trackpoint>
            <Time>2020-01-19T09:07:59.000Z</Time>
            <Position>
              <LatitudeDegrees>38.93525409512221813201904296875</LatitudeDegrees>
              <LongitudeDegrees>-2.79741902835667133331298828125</LongitudeDegrees>
            </Position>
            <AltitudeMeters>894.79998779296875</AltitudeMeters>
            <DistanceMeters>47596.42036316</DistanceMeters>
          </Trackpoint>
          <Trackpoint>
            <Time>2020-01-19T09:08:04.000Z</Time>
            <Position>
              <LatitudeDegrees>38.93532098270952701568603515625</LatitudeDegrees>
              <LongitudeDegrees>-2.79737301170825958251953125</LongitudeDegrees>
            </Position>
            <AltitudeMeters>895.4000244140625</AltitudeMeters>
            <DistanceMeters>47604.864383742</DistanceMeters>
          </Trackpoint>
          <Trackpoint>
            <Time>2020-01-19T09:08:09.000Z</Time>
            <Position>
              <LatitudeDegrees>38.9353908039629459381103515625</LatitudeDegrees>
              <LongitudeDegrees>-2.79734794981777667999267578125</LongitudeDegrees>
            </Position>
            <AltitudeMeters>895.4000244140625</AltitudeMeters>
            <DistanceMeters>47612.933265397</DistanceMeters>
          </Trackpoint>
          <Trackpoint>
            <Time>2020-01-19T09:08:13.000Z</Time>
            <Position>
              <LatitudeDegrees>38.93544771708548069000244140625</LatitudeDegrees>
              <LongitudeDegrees>-2.7973361313343048095703125</LongitudeDegrees>
            </Position>
            <AltitudeMeters>895.4000244140625</AltitudeMeters>
            <DistanceMeters>47619.350207705</DistanceMeters>
          </Trackpoint>
          <Trackpoint>
            <Time>2020-01-19T09:08:17.000Z</Time>
            <Position>
              <LatitudeDegrees>38.93546246923506259918212890625</LatitudeDegrees>
              <LongitudeDegrees>-2.797338478267192840576171875</LongitudeDegrees>
            </Position>
            <AltitudeMeters>895.4000244140625</AltitudeMeters>
            <DistanceMeters>47621.007055085</DistanceMeters>
          </Trackpoint>
          <Trackpoint>
            <Time>2020-01-19T09:08:43.000Z</Time>
            <Position>
              <LatitudeDegrees>38.93541653640568256378173828125</LatitudeDegrees>
              <LongitudeDegrees>-2.7973886020481586456298828125</LongitudeDegrees>
            </Position>
            <AltitudeMeters>894.5999755859375</AltitudeMeters>
            <DistanceMeters>47627.713679479</DistanceMeters>
          </Trackpoint>
          <Trackpoint>
            <Time>2020-01-19T09:08:44.000Z</Time>
            <Position>
              <LatitudeDegrees>38.9354048855602741241455078125</LatitudeDegrees>
              <LongitudeDegrees>-2.79740075580775737762451171875</LongitudeDegrees>
            </Position>
            <AltitudeMeters>894.4000244140625</AltitudeMeters>
            <DistanceMeters>47629.384096679</DistanceMeters>
          </Trackpoint>
          <Trackpoint>
            <Time>2020-01-19T09:08:49.000Z</Time>
            <Position>
              <LatitudeDegrees>38.93534814007580280303955078125</LatitudeDegrees>
              <LongitudeDegrees>-2.797459177672863006591796875</LongitudeDegrees>
            </Position>
            <AltitudeMeters>893.5999755859375</AltitudeMeters>
            <DistanceMeters>47637.475329849</DistanceMeters>
          </Trackpoint>
          <Trackpoint>
            <Time>2020-01-19T09:08:52.000Z</Time>
            <Position>
              <LatitudeDegrees>38.935292065143585205078125</LatitudeDegrees>
              <LongitudeDegrees>-2.7974999137222766876220703125</LongitudeDegrees>
            </Position>
            <AltitudeMeters>892.79998779296875</AltitudeMeters>
            <DistanceMeters>47644.644653048</DistanceMeters>
          </Trackpoint>
          <Trackpoint>
            <Time>2020-01-19T09:08:54.000Z</Time>
            <Position>
              <LatitudeDegrees>38.93525040708482265472412109375</LatitudeDegrees>
              <LongitudeDegrees>-2.7975260652601718902587890625</LongitudeDegrees>
            </Position>
            <AltitudeMeters>892.4000244140625</AltitudeMeters>
            <DistanceMeters>47649.805049877</DistanceMeters>
          </Trackpoint>
          <Trackpoint>
            <Time>2020-01-19T09:08:56.000Z</Time>
            <Position>
              <LatitudeDegrees>38.9352209866046905517578125</LatitudeDegrees>
              <LongitudeDegrees>-2.79753788374364376068115234375</LongitudeDegrees>
            </Position>
            <AltitudeMeters>892.4000244140625</AltitudeMeters>
            <DistanceMeters>47653.233921343</DistanceMeters>
          </Trackpoint>
          <Trackpoint>
            <Time>2020-01-19T09:08:59.000Z</Time>
            <Position>
              <LatitudeDegrees>38.93518351949751377105712890625</LatitudeDegrees>
              <LongitudeDegrees>-2.79756118543446063995361328125</LongitudeDegrees>
            </Position>
            <AltitudeMeters>892</AltitudeMeters>
            <DistanceMeters>47657.865925405</DistanceMeters>
          </Trackpoint>
          <Trackpoint>
            <Time>2020-01-19T09:09:00.000Z</Time>
            <Position>
              <LatitudeDegrees>38.93516893498599529266357421875</LatitudeDegrees>
              <LongitudeDegrees>-2.797580547630786895751953125</LongitudeDegrees>
            </Position>
            <AltitudeMeters>891.5999755859375</AltitudeMeters>
            <DistanceMeters>47660.201341036</DistanceMeters>
          </Trackpoint>
          <Trackpoint>
            <Time>2020-01-19T09:09:02.000Z</Time>
            <Position>
              <LatitudeDegrees>38.93513825722038745880126953125</LatitudeDegrees>
              <LongitudeDegrees>-2.79762639664113521575927734375</LongitudeDegrees>
            </Position>
            <AltitudeMeters>890.79998779296875</AltitudeMeters>
            <DistanceMeters>47665.437304375</DistanceMeters>
          </Trackpoint>
          <Trackpoint>
            <Time>2020-01-19T09:09:09.000Z</Time>
            <Position>
              <LatitudeDegrees>38.9350117743015289306640625</LatitudeDegrees>
              <LongitudeDegrees>-2.79772530309855937957763671875</LongitudeDegrees>
            </Position>
            <AltitudeMeters>889.20001220703125</AltitudeMeters>
            <DistanceMeters>47681.915057211</DistanceMeters>
          </Trackpoint>
          <Trackpoint>
            <Time>2020-01-19T09:09:10.000Z</Time>
            <Position>
              <LatitudeDegrees>38.9349945075809955596923828125</LatitudeDegrees>
              <LongitudeDegrees>-2.7977305836975574493408203125</LongitudeDegrees>
            </Position>
            <AltitudeMeters>889.20001220703125</AltitudeMeters>
            <DistanceMeters>47683.890150379</DistanceMeters>
          </Trackpoint>
          <Trackpoint>
            <Time>2020-01-19T09:09:19.000Z</Time>
            <Position>
              <LatitudeDegrees>38.93481421284377574920654296875</LatitudeDegrees>
              <LongitudeDegrees>-2.79787248931825160980224609375</LongitudeDegrees>
            </Position>
            <AltitudeMeters>887</AltitudeMeters>
            <DistanceMeters>47707.41957848</DistanceMeters>
          </Trackpoint>
          <Trackpoint>
            <Time>2020-01-19T09:09:29.000Z</Time>
            <Position>
              <LatitudeDegrees>38.9346602372825145721435546875</LatitudeDegrees>
              <LongitudeDegrees>-2.79809192754328250885009765625</LongitudeDegrees>
            </Position>
            <AltitudeMeters>883</AltitudeMeters>
            <DistanceMeters>47733.005422062</DistanceMeters>
          </Trackpoint>
          <Trackpoint>
            <Time>2020-01-19T09:09:32.000Z</Time>
            <Position>
              <LatitudeDegrees>38.93462293781340122222900390625</LatitudeDegrees>
              <LongitudeDegrees>-2.79815479181706905364990234375</LongitudeDegrees>
            </Position>
            <AltitudeMeters>881.79998779296875</AltitudeMeters>
            <DistanceMeters>47739.851303799</DistanceMeters>
          </Trackpoint>
          <Trackpoint>
            <Time>2020-01-19T09:09:34.000Z</Time>
            <Position>
              <LatitudeDegrees>38.93459125421941280364990234375</LatitudeDegrees>
              <LongitudeDegrees>-2.7981701306998729705810546875</LongitudeDegrees>
            </Position>
            <AltitudeMeters>881.5999755859375</AltitudeMeters>
            <DistanceMeters>47743.618966226</DistanceMeters>
          </Trackpoint>
          <Trackpoint>
            <Time>2020-01-19T09:09:36.000Z</Time>
            <Position>
              <LatitudeDegrees>38.934562839567661285400390625</LatitudeDegrees>
              <LongitudeDegrees>-2.79821195639669895172119140625</LongitudeDegrees>
            </Position>
            <AltitudeMeters>881</AltitudeMeters>
            <DistanceMeters>47748.426040765</DistanceMeters>
          </Trackpoint>
          <Trackpoint>
            <Time>2020-01-19T09:09:37.000Z</Time>
            <Position>
              <LatitudeDegrees>38.93455169163644313812255859375</LatitudeDegrees>
              <LongitudeDegrees>-2.7982348389923572540283203125</LongitudeDegrees>
            </Position>
            <AltitudeMeters>880.4000244140625</AltitudeMeters>
            <DistanceMeters>47750.759522305</DistanceMeters>
          </Trackpoint>
          <Trackpoint>
            <Time>2020-01-19T09:09:39.000Z</Time>
            <Position>
              <LatitudeDegrees>38.9345445670187473297119140625</LatitudeDegrees>
              <LongitudeDegrees>-2.79827884398400783538818359375</LongitudeDegrees>
            </Position>
            <AltitudeMeters>880.20001220703125</AltitudeMeters>
            <DistanceMeters>47754.652139454</DistanceMeters>
          </Trackpoint>
          <Trackpoint>
            <Time>2020-01-19T09:09:40.000Z</Time>
            <Position>
              <LatitudeDegrees>38.93453945405781269073486328125</LatitudeDegrees>
              <LongitudeDegrees>-2.798296697437763214111328125</LongitudeDegrees>
            </Position>
            <AltitudeMeters>880</AltitudeMeters>
            <DistanceMeters>47756.298050428</DistanceMeters>
          </Trackpoint>
          <Trackpoint>
            <Time>2020-01-19T09:09:44.000Z</Time>
            <Position>
              <LatitudeDegrees>38.93449285067617893218994140625</LatitudeDegrees>
              <LongitudeDegrees>-2.79835444875061511993408203125</LongitudeDegrees>
            </Position>
            <AltitudeMeters>879.20001220703125</AltitudeMeters>
            <DistanceMeters>47763.502554533</DistanceMeters>
          </Trackpoint>
          <Trackpoint>
            <Time>2020-01-19T09:09:49.000Z</Time>
            <Position>
              <LatitudeDegrees>38.93439327366650104522705078125</LatitudeDegrees>
              <LongitudeDegrees>-2.798504568636417388916015625</LongitudeDegrees>
            </Position>
            <AltitudeMeters>876.4000244140625</AltitudeMeters>
            <DistanceMeters>47780.583325588</DistanceMeters>
          </Trackpoint>
          <Trackpoint>
            <Time>2020-01-19T09:09:53.000Z</Time>
            <Position>
              <LatitudeDegrees>38.93432890065014362335205078125</LatitudeDegrees>
              <LongitudeDegrees>-2.79857791028916835784912109375</LongitudeDegrees>
            </Position>
            <AltitudeMeters>875.4000244140625</AltitudeMeters>
            <DistanceMeters>47790.157001784</DistanceMeters>
          </Trackpoint>
          <Trackpoint>
            <Time>2020-01-19T09:09:55.000Z</Time>
            <Position>
              <LatitudeDegrees>38.93432051874697208404541015625</LatitudeDegrees>
              <LongitudeDegrees>-2.79859073460102081298828125</LongitudeDegrees>
            </Position>
            <AltitudeMeters>875.20001220703125</AltitudeMeters>
            <DistanceMeters>47791.610630996</DistanceMeters>
          </Trackpoint>
          <Trackpoint>
            <Time>2020-01-19T09:09:59.000Z</Time>
            <Position>
              <LatitudeDegrees>38.93427693285048007965087890625</LatitudeDegrees>
              <LongitudeDegrees>-2.79864169657230377197265625</LongitudeDegrees>
            </Position>
            <AltitudeMeters>874.4000244140625</AltitudeMeters>
            <DistanceMeters>47798.168162851</DistanceMeters>
          </Trackpoint>
          <Trackpoint>
            <Time>2020-01-19T09:10:09.000Z</Time>
            <Position>
              <LatitudeDegrees>38.93418841995298862457275390625</LatitudeDegrees>
              <LongitudeDegrees>-2.79876449145376682281494140625</LongitudeDegrees>
            </Position>
            <AltitudeMeters>872.5999755859375</AltitudeMeters>
            <DistanceMeters>47812.662462712</DistanceMeters>
          </Trackpoint>
          <Trackpoint>
            <Time>2020-01-19T09:10:10.000Z</Time>
            <Position>
              <LatitudeDegrees>38.93418104387819766998291015625</LatitudeDegrees>
              <LongitudeDegrees>-2.79877857305109500885009765625</LongitudeDegrees>
            </Position>
            <AltitudeMeters>872.4000244140625</AltitudeMeters>
            <DistanceMeters>47814.131540066</DistanceMeters>
          </Trackpoint>
          <Trackpoint>
            <Time>2020-01-19T09:10:14.000Z</Time>
            <Position>
              <LatitudeDegrees>38.93414097838103771209716796875</LatitudeDegrees>
              <LongitudeDegrees>-2.79886105097830295562744140625</LongitudeDegrees>
            </Position>
            <AltitudeMeters>871.4000244140625</AltitudeMeters>
            <DistanceMeters>47822.550392126</DistanceMeters>
          </Trackpoint>
          <Trackpoint>
            <Time>2020-01-19T09:10:16.000Z</Time>
            <Position>
              <LatitudeDegrees>38.93411532975733280181884765625</LatitudeDegrees>
              <LongitudeDegrees>-2.7989171259105205535888671875</LongitudeDegrees>
            </Position>
            <AltitudeMeters>870.5999755859375</AltitudeMeters>
            <DistanceMeters>47828.181877584</DistanceMeters>
          </Trackpoint>
          <Trackpoint>
            <Time>2020-01-19T09:10:18.000Z</Time>
            <Position>
              <LatitudeDegrees>38.93407811410725116729736328125</LatitudeDegrees>
              <LongitudeDegrees>-2.799000442028045654296875</LongitudeDegrees>
            </Position>
            <AltitudeMeters>869.4000244140625</AltitudeMeters>
            <DistanceMeters>47836.499836812</DistanceMeters>
          </Trackpoint>
          <Trackpoint>
            <Time>2020-01-19T09:10:21.000Z</Time>
            <Position>
              <LatitudeDegrees>38.93406562507152557373046875</LatitudeDegrees>
              <LongitudeDegrees>-2.799049727618694305419921875</LongitudeDegrees>
            </Position>
            <AltitudeMeters>868.79998779296875</AltitudeMeters>
            <DistanceMeters>47840.987271544</DistanceMeters>
          </Trackpoint>
          <Trackpoint>
            <Time>2020-01-19T09:10:25.000Z</Time>
            <Position>
              <LatitudeDegrees>38.93415472470223903656005859375</LatitudeDegrees>
              <LongitudeDegrees>-2.79913388192653656005859375</LongitudeDegrees>
            </Position>
            <AltitudeMeters>868</AltitudeMeters>
            <DistanceMeters>47853.29313933</DistanceMeters>
          </Trackpoint>
          <Trackpoint>
            <Time>2020-01-19T09:10:29.000Z</Time>
            <Position>
              <LatitudeDegrees>38.93428866751492023468017578125</LatitudeDegrees>
              <LongitudeDegrees>-2.7992037869989871978759765625</LongitudeDegrees>
            </Position>
            <AltitudeMeters>867.79998779296875</AltitudeMeters>
            <DistanceMeters>47869.382708357</DistanceMeters>
          </Trackpoint>
          <Trackpoint>
            <Time>2020-01-19T09:10:31.000Z</Time>
            <Position>
              <LatitudeDegrees>38.9343573153018951416015625</LatitudeDegrees>
              <LongitudeDegrees>-2.799244858324527740478515625</LongitudeDegrees>
            </Position>
            <AltitudeMeters>867.5999755859375</AltitudeMeters>
            <DistanceMeters>47877.810136864</DistanceMeters>
          </Trackpoint>
          <Trackpoint>
            <Time>2020-01-19T09:10:37.000Z</Time>
            <Position>
              <LatitudeDegrees>38.9345435611903667449951171875</LatitudeDegrees>
              <LongitudeDegrees>-2.79938491992652416229248046875</LongitudeDegrees>
            </Position>
            <AltitudeMeters>870</AltitudeMeters>
            <DistanceMeters>47901.825965239</DistanceMeters>
          </Trackpoint>
          <Trackpoint>
            <Time>2020-01-19T09:10:39.000Z</Time>
            <Position>
              <LatitudeDegrees>38.93459209240972995758056640625</LatitudeDegrees>
              <LongitudeDegrees>-2.79945331625640392303466796875</LongitudeDegrees>
            </Position>
            <AltitudeMeters>870.5999755859375</AltitudeMeters>
            <DistanceMeters>47909.840948946</DistanceMeters>
          </Trackpoint>
          <Trackpoint>
            <Time>2020-01-19T09:10:49.000Z</Time>
            <Position>
              <LatitudeDegrees>38.93482276238501071929931640625</LatitudeDegrees>
              <LongitudeDegrees>-2.7998310886323451995849609375</LongitudeDegrees>
            </Position>
            <AltitudeMeters>872.4000244140625</AltitudeMeters>
            <DistanceMeters>47951.420756254</DistanceMeters>
          </Trackpoint>
          <Trackpoint>
            <Time>2020-01-19T09:10:59.000Z</Time>
            <Position>
              <LatitudeDegrees>38.9349036477506160736083984375</LatitudeDegrees>
              <LongitudeDegrees>-2.8003413788974285125732421875</LongitudeDegrees>
            </Position>
            <AltitudeMeters>870.5999755859375</AltitudeMeters>
            <DistanceMeters>47996.508303642</DistanceMeters>
          </Trackpoint>
          <Trackpoint>
            <Time>2020-01-19T09:11:00.000Z</Time>
            <Position>
              <LatitudeDegrees>38.9348925836384296417236328125</LatitudeDegrees>
              <LongitudeDegrees>-2.80039829201996326446533203125</LongitudeDegrees>
            </Position>
            <AltitudeMeters>870</AltitudeMeters>
            <DistanceMeters>48001.588457033</DistanceMeters>
          </Trackpoint>
          <Trackpoint>
            <Time>2020-01-19T09:11:08.000Z</Time>
            <Position>
              <LatitudeDegrees>38.9347705431282520294189453125</LatitudeDegrees>
              <LongitudeDegrees>-2.80084689147770404815673828125</LongitudeDegrees>
            </Position>
            <AltitudeMeters>866.5999755859375</AltitudeMeters>
            <DistanceMeters>48042.7338173</DistanceMeters>
          </Trackpoint>
          <Trackpoint>
            <Time>2020-01-19T09:11:09.000Z</Time>
            <Position>
              <LatitudeDegrees>38.9347437210381031036376953125</LatitudeDegrees>
              <LongitudeDegrees>-2.80089743435382843017578125</LongitudeDegrees>
            </Position>
            <AltitudeMeters>866.20001220703125</AltitudeMeters>
            <DistanceMeters>48048.03150336</DistanceMeters>
          </Trackpoint>
          <Trackpoint>
            <Time>2020-01-19T09:11:14.000Z</Time>
            <Position>
              <LatitudeDegrees>38.93459125421941280364990234375</LatitudeDegrees>
              <LongitudeDegrees>-2.8011145256459712982177734375</LongitudeDegrees>
            </Position>
            <AltitudeMeters>866.20001220703125</AltitudeMeters>
            <DistanceMeters>48073.354295237</DistanceMeters>
          </Trackpoint>
          <Trackpoint>
            <Time>2020-01-19T09:11:16.000Z</Time>
            <Position>
              <LatitudeDegrees>38.93454699777066707611083984375</LatitudeDegrees>
              <LongitudeDegrees>-2.8012211434543132781982421875</LongitudeDegrees>
            </Position>
            <AltitudeMeters>866.79998779296875</AltitudeMeters>
            <DistanceMeters>48083.817163712</DistanceMeters>
          </Trackpoint>
          <Trackpoint>
            <Time>2020-01-19T09:11:19.000Z</Time>
            <Position>
              <LatitudeDegrees>38.93449469469487667083740234375</LatitudeDegrees>
              <LongitudeDegrees>-2.8013790585100650787353515625</LongitudeDegrees>
            </Position>
            <AltitudeMeters>868</AltitudeMeters>
            <DistanceMeters>48098.677227284</DistanceMeters>
          </Trackpoint>
          <Trackpoint>
            <Time>2020-01-19T09:11:25.000Z</Time>
            <Position>
              <LatitudeDegrees>38.93433577381074428558349609375</LatitudeDegrees>
              <LongitudeDegrees>-2.80159958638250827789306640625</LongitudeDegrees>
            </Position>
            <AltitudeMeters>868.4000244140625</AltitudeMeters>
            <DistanceMeters>48124.704487506</DistanceMeters>
          </Trackpoint>
          <Trackpoint>
            <Time>2020-01-19T09:11:26.000Z</Time>
            <Position>
              <LatitudeDegrees>38.93430291675031185150146484375</LatitudeDegrees>
              <LongitudeDegrees>-2.80162976123392581939697265625</LongitudeDegrees>
            </Position>
            <AltitudeMeters>868.5999755859375</AltitudeMeters>
            <DistanceMeters>48129.199964242</DistanceMeters>
          </Trackpoint>
          <Trackpoint>
            <Time>2020-01-19T09:11:29.000Z</Time>
            <Position>
              <LatitudeDegrees>38.934192359447479248046875</LatitudeDegrees>
              <LongitudeDegrees>-2.8017240576446056365966796875</LongitudeDegrees>
            </Position>
            <AltitudeMeters>868.4000244140625</AltitudeMeters>
            <DistanceMeters>48143.967066735</DistanceMeters>
          </Trackpoint>
          <Trackpoint>
            <Time>2020-01-19T09:11:39.000Z</Time>
            <Position>
              <LatitudeDegrees>38.93384459428489208221435546875</LatitudeDegrees>
              <LongitudeDegrees>-2.80209638178348541259765625</LongitudeDegrees>
            </Position>
            <AltitudeMeters>867</AltitudeMeters>
            <DistanceMeters>48194.33902411</DistanceMeters>
          </Trackpoint>
          <Trackpoint>
            <Time>2020-01-19T09:11:42.000Z</Time>
            <Position>
              <LatitudeDegrees>38.93374619074165821075439453125</LatitudeDegrees>
              <LongitudeDegrees>-2.802189253270626068115234375</LongitudeDegrees>
            </Position>
            <AltitudeMeters>866.4000244140625</AltitudeMeters>
            <DistanceMeters>48207.926182857</DistanceMeters>
          </Trackpoint>
          <Trackpoint>
            <Time>2020-01-19T09:11:46.000Z</Time>
            <Position>
              <LatitudeDegrees>38.93358542583882808685302734375</LatitudeDegrees>
              <LongitudeDegrees>-2.80226678587496280670166015625</LongitudeDegrees>
            </Position>
            <AltitudeMeters>865.20001220703125</AltitudeMeters>
            <DistanceMeters>48227.037423056</DistanceMeters>
          </Trackpoint>
          <Trackpoint>
            <Time>2020-01-19T09:11:49.000Z</Time>
            <Position>
              <LatitudeDegrees>38.933463804423809051513671875</LatitudeDegrees>
              <LongitudeDegrees>-2.80235865153372287750244140625</LongitudeDegrees>
            </Position>
            <AltitudeMeters>865.20001220703125</AltitudeMeters>
            <DistanceMeters>48242.737837916</DistanceMeters>
          </Trackpoint>
          <Trackpoint>
            <Time>2020-01-19T09:11:51.000Z</Time>
            <Position>
              <LatitudeDegrees>38.9333881996572017669677734375</LatitudeDegrees>
              <LongitudeDegrees>-2.80244330875575542449951171875</LongitudeDegrees>
            </Position>
            <AltitudeMeters>865.4000244140625</AltitudeMeters>
            <DistanceMeters>48253.897713108</DistanceMeters>
          </Trackpoint>
          <Trackpoint>
            <Time>2020-01-19T09:11:57.000Z</Time>
            <Position>
              <LatitudeDegrees>38.93323875032365322113037109375</LatitudeDegrees>
              <LongitudeDegrees>-2.8027033992111682891845703125</LongitudeDegrees>
            </Position>
            <AltitudeMeters>864.4000244140625</AltitudeMeters>
            <DistanceMeters>48281.893686301</DistanceMeters>
          </Trackpoint>
          <Trackpoint>
            <Time>2020-01-19T09:11:59.000Z</Time>
            <Position>
              <LatitudeDegrees>38.9332420192658901214599609375</LatitudeDegrees>
              <LongitudeDegrees>-2.80277766287326812744140625</LongitudeDegrees>
            </Position>
            <AltitudeMeters>864</AltitudeMeters>
            <DistanceMeters>48288.334506993</DistanceMeters>
          </Trackpoint>
          <Trackpoint>
            <Time>2020-01-19T09:12:01.000Z</Time>
            <Position>
              <LatitudeDegrees>38.9332721941173076629638671875</LatitudeDegrees>
              <LongitudeDegrees>-2.80286139808595180511474609375</LongitudeDegrees>
            </Position>
            <AltitudeMeters>863.79998779296875</AltitudeMeters>
            <DistanceMeters>48296.324665969</DistanceMeters>
          </Trackpoint>
          <Trackpoint>
            <Time>2020-01-19T09:12:03.000Z</Time>
            <Position>
              <LatitudeDegrees>38.93332575447857379913330078125</LatitudeDegrees>
              <LongitudeDegrees>-2.8029538504779338836669921875</LongitudeDegrees>
            </Position>
            <AltitudeMeters>864.20001220703125</AltitudeMeters>
            <DistanceMeters>48306.304733262</DistanceMeters>
          </Trackpoint>
          <Trackpoint>
            <Time>2020-01-19T09:12:06.000Z</Time>
            <Position>
              <LatitudeDegrees>38.9334270916879177093505859375</LatitudeDegrees>
              <LongitudeDegrees>-2.80309173278510570526123046875</LongitudeDegrees>
            </Position>
            <AltitudeMeters>865</AltitudeMeters>
            <DistanceMeters>48322.72786796</DistanceMeters>
          </Trackpoint>
          <Trackpoint>
            <Time>2020-01-19T09:12:09.000Z</Time>
            <Position>
              <LatitudeDegrees>38.93352289684116840362548828125</LatitudeDegrees>
              <LongitudeDegrees>-2.8032361529767513275146484375</LongitudeDegrees>
            </Position>
            <AltitudeMeters>865.79998779296875</AltitudeMeters>
            <DistanceMeters>48339.160622019</DistanceMeters>
          </Trackpoint>
          <Trackpoint>
            <Time>2020-01-19T09:12:14.000Z</Time>
            <Position>
              <LatitudeDegrees>38.9336614497005939483642578125</LatitudeDegrees>
              <LongitudeDegrees>-2.80350009910762310028076171875</LongitudeDegrees>
            </Position>
            <AltitudeMeters>867.79998779296875</AltitudeMeters>
            <DistanceMeters>48366.729180451</DistanceMeters>
          </Trackpoint>
          <Trackpoint>
            <Time>2020-01-19T09:12:18.000Z</Time>
            <Position>
              <LatitudeDegrees>38.9337325282394886016845703125</LatitudeDegrees>
              <LongitudeDegrees>-2.803727500140666961669921875</LongitudeDegrees>
            </Position>
            <AltitudeMeters>869.20001220703125</AltitudeMeters>
            <DistanceMeters>48387.947605259</DistanceMeters>
          </Trackpoint>
          <Trackpoint>
            <Time>2020-01-19T09:12:21.000Z</Time>
            <Position>
              <LatitudeDegrees>38.9337543211877346038818359375</LatitudeDegrees>
              <LongitudeDegrees>-2.80389010906219482421875</LongitudeDegrees>
            </Position>
            <AltitudeMeters>869.79998779296875</AltitudeMeters>
            <DistanceMeters>48402.233884963</DistanceMeters>
          </Trackpoint>
          <Trackpoint>
            <Time>2020-01-19T09:12:23.000Z</Time>
            <Position>
              <LatitudeDegrees>38.93374283798038959503173828125</LatitudeDegrees>
              <LongitudeDegrees>-2.80400879681110382080078125</LongitudeDegrees>
            </Position>
            <AltitudeMeters>869.4000244140625</AltitudeMeters>
            <DistanceMeters>48412.588745064</DistanceMeters>
          </Trackpoint>
          <Trackpoint>
            <Time>2020-01-19T09:12:26.000Z</Time>
            <Position>
              <LatitudeDegrees>38.93368718214333057403564453125</LatitudeDegrees>
              <LongitudeDegrees>-2.80418037436902523040771484375</LongitudeDegrees>
            </Position>
            <AltitudeMeters>868</AltitudeMeters>
            <DistanceMeters>48428.683925492</DistanceMeters>
          </Trackpoint>
          <Trackpoint>
            <Time>2020-01-19T09:12:29.000Z</Time>
            <Position>
              <LatitudeDegrees>38.93360101617872714996337890625</LatitudeDegrees>
              <LongitudeDegrees>-2.80435706488788127899169921875</LongitudeDegrees>
            </Position>
            <AltitudeMeters>866.4000244140625</AltitudeMeters>
            <DistanceMeters>48446.739001222</DistanceMeters>
          </Trackpoint>
          <Trackpoint>
            <Time>2020-01-19T09:12:39.000Z</Time>
            <Position>
              <LatitudeDegrees>38.93333799205720424652099609375</LatitudeDegrees>
              <LongitudeDegrees>-2.80496877618134021759033203125</LongitudeDegrees>
            </Position>
            <AltitudeMeters>864.20001220703125</AltitudeMeters>
            <DistanceMeters>48507.253039595</DistanceMeters>
          </Trackpoint>
          <Trackpoint>
            <Time>2020-01-19T09:12:49.000Z</Time>
            <Position>
              <LatitudeDegrees>38.93308485858142375946044921875</LatitudeDegrees>
              <LongitudeDegrees>-2.80553656630218029022216796875</LongitudeDegrees>
            </Position>
            <AltitudeMeters>864.4000244140625</AltitudeMeters>
            <DistanceMeters>48563.91335055</DistanceMeters>
          </Trackpoint>
          <Trackpoint>
            <Time>2020-01-19T09:12:59.000Z</Time>
            <Position>
              <LatitudeDegrees>38.93284060992300510406494140625</LatitudeDegrees>
              <LongitudeDegrees>-2.80608340166509151458740234375</LongitudeDegrees>
            </Position>
            <AltitudeMeters>864.20001220703125</AltitudeMeters>
            <DistanceMeters>48618.508079436</DistanceMeters>
          </Trackpoint>
          <Trackpoint>
            <Time>2020-01-19T09:13:00.000Z</Time>
            <Position>
              <LatitudeDegrees>38.93281563185155391693115234375</LatitudeDegrees>
              <LongitudeDegrees>-2.80613536946475505828857421875</LongitudeDegrees>
            </Position>
            <AltitudeMeters>864</AltitudeMeters>
            <DistanceMeters>48623.79808954</DistanceMeters>
          </Trackpoint>
          <Trackpoint>
            <Time>2020-01-19T09:13:05.000Z</Time>
            <Position>
              <LatitudeDegrees>38.93271555192768573760986328125</LatitudeDegrees>
              <LongitudeDegrees>-2.80641649849712848663330078125</LongitudeDegrees>
            </Position>
            <AltitudeMeters>864</AltitudeMeters>
            <DistanceMeters>48650.566121514</DistanceMeters>
          </Trackpoint>
          <Trackpoint>
            <Time>2020-01-19T09:13:09.000Z</Time>
            <Position>
              <LatitudeDegrees>38.9326636679470539093017578125</LatitudeDegrees>
              <LongitudeDegrees>-2.80663727782666683197021484375</LongitudeDegrees>
            </Position>
            <AltitudeMeters>864</AltitudeMeters>
            <DistanceMeters>48670.53439774</DistanceMeters>
          </Trackpoint>
          <Trackpoint>
            <Time>2020-01-19T09:13:15.000Z</Time>
            <Position>
              <LatitudeDegrees>38.9326284639537334442138671875</LatitudeDegrees>
              <LongitudeDegrees>-2.806893177330493927001953125</LongitudeDegrees>
            </Position>
            <AltitudeMeters>865.4000244140625</AltitudeMeters>
            <DistanceMeters>48693.034267642</DistanceMeters>
          </Trackpoint>
          <Trackpoint>
            <Time>2020-01-19T09:13:18.000Z</Time>
            <Position>
              <LatitudeDegrees>38.93264472484588623046875</LatitudeDegrees>
              <LongitudeDegrees>-2.806991748511791229248046875</LongitudeDegrees>
            </Position>
            <AltitudeMeters>865.79998779296875</AltitudeMeters>
            <DistanceMeters>48701.758630905</DistanceMeters>
          </Trackpoint>
          <Trackpoint>
            <Time>2020-01-19T09:13:19.000Z</Time>
            <Position>
              <LatitudeDegrees>38.93265075981616973876953125</LatitudeDegrees>
              <LongitudeDegrees>-2.8070214204490184783935546875</LongitudeDegrees>
            </Position>
            <AltitudeMeters>865.79998779296875</AltitudeMeters>
            <DistanceMeters>48704.415982929</DistanceMeters>
          </Trackpoint>
          <Trackpoint>
            <Time>2020-01-19T09:13:22.000Z</Time>
            <Position>
              <LatitudeDegrees>38.93267624080181121826171875</LatitudeDegrees>
              <LongitudeDegrees>-2.8071012161672115325927734375</LongitudeDegrees>
            </Position>
            <AltitudeMeters>866.20001220703125</AltitudeMeters>
            <DistanceMeters>48711.883897773</DistanceMeters>
          </Trackpoint>
          <Trackpoint>
            <Time>2020-01-19T09:13:25.000Z</Time>
            <Position>
              <LatitudeDegrees>38.93270633183419704437255859375</LatitudeDegrees>
              <LongitudeDegrees>-2.80717254616320133209228515625</LongitudeDegrees>
            </Position>
            <AltitudeMeters>866.4000244140625</AltitudeMeters>
            <DistanceMeters>48718.909450979</DistanceMeters>
          </Trackpoint>
          <Trackpoint>
            <Time>2020-01-19T09:13:29.000Z</Time>
            <Position>
              <LatitudeDegrees>38.932742960751056671142578125</LatitudeDegrees>
              <LongitudeDegrees>-2.80726726166903972625732421875</LongitudeDegrees>
            </Position>
            <AltitudeMeters>866.5999755859375</AltitudeMeters>
            <DistanceMeters>48728.067088225</DistanceMeters>
          </Trackpoint>
          <Trackpoint>
            <Time>2020-01-19T09:13:34.000Z</Time>
            <Position>
              <LatitudeDegrees>38.9327867142856121063232421875</LatitudeDegrees>
              <LongitudeDegrees>-2.80739282257854938507080078125</LongitudeDegrees>
            </Position>
            <AltitudeMeters>867.79998779296875</AltitudeMeters>
            <DistanceMeters>48739.97882996</DistanceMeters>
          </Trackpoint>
          <Trackpoint>
            <Time>2020-01-19T09:13:39.000Z</Time>
            <Position>
              <LatitudeDegrees>38.93281395547091960906982421875</LatitudeDegrees>
              <LongitudeDegrees>-2.8075414337217807769775390625</LongitudeDegrees>
            </Position>
            <AltitudeMeters>868.79998779296875</AltitudeMeters>
            <DistanceMeters>48753.197793961</DistanceMeters>
          </Trackpoint>
          <Trackpoint>
            <Time>2020-01-19T09:13:49.000Z</Time>
            <Position>
              <LatitudeDegrees>38.932846896350383758544921875</LatitudeDegrees>
              <LongitudeDegrees>-2.8078545816242694854736328125</LongitudeDegrees>
            </Position>
            <AltitudeMeters>869.20001220703125</AltitudeMeters>
            <DistanceMeters>48780.556577495</DistanceMeters>
          </Trackpoint>
          <Trackpoint>
            <Time>2020-01-19T09:13:54.000Z</Time>
            <Position>
              <LatitudeDegrees>38.93282954581081867218017578125</LatitudeDegrees>
              <LongitudeDegrees>-2.8080086410045623779296875</LongitudeDegrees>
            </Position>
            <AltitudeMeters>869</AltitudeMeters>
            <DistanceMeters>48794.033630496</DistanceMeters>
          </Trackpoint>
          <Trackpoint>
            <Time>2020-01-19T09:13:57.000Z</Time>
            <Position>
              <LatitudeDegrees>38.93281303346157073974609375</LatitudeDegrees>
              <LongitudeDegrees>-2.80816362239420413970947265625</LongitudeDegrees>
            </Position>
            <AltitudeMeters>868.79998779296875</AltitudeMeters>
            <DistanceMeters>48807.577187739</DistanceMeters>
          </Trackpoint>
          <Trackpoint>
            <Time>2020-01-19T09:13:58.000Z</Time>
            <Position>
              <LatitudeDegrees>38.93281437456607818603515625</LatitudeDegrees>
              <LongitudeDegrees>-2.80822363682091236114501953125</LongitudeDegrees>
            </Position>
            <AltitudeMeters>868.79998779296875</AltitudeMeters>
            <DistanceMeters>48812.775070839</DistanceMeters>
          </Trackpoint>
          <Trackpoint>
            <Time>2020-01-19T09:13:59.000Z</Time>
            <Position>
              <LatitudeDegrees>38.932823427021503448486328125</LatitudeDegrees>
              <LongitudeDegrees>-2.80828415416181087493896484375</LongitudeDegrees>
            </Position>
            <AltitudeMeters>869</AltitudeMeters>
            <DistanceMeters>48818.110124818</DistanceMeters>
          </Trackpoint>
          <Trackpoint>
            <Time>2020-01-19T09:14:00.000Z</Time>
            <Position>
              <LatitudeDegrees>38.932840526103973388671875</LatitudeDegrees>
              <LongitudeDegrees>-2.8083447553217411041259765625</LongitudeDegrees>
            </Position>
            <AltitudeMeters>868.5999755859375</AltitudeMeters>
            <DistanceMeters>48823.691680491</DistanceMeters>
          </Trackpoint>
          <Trackpoint>
            <Time>2020-01-19T09:14:02.000Z</Time>
            <Position>
              <LatitudeDegrees>38.93289081752300262451171875</LatitudeDegrees>
              <LongitudeDegrees>-2.80847056768834590911865234375</LongitudeDegrees>
            </Position>
            <AltitudeMeters>868</AltitudeMeters>
            <DistanceMeters>48835.938703383</DistanceMeters>
          </Trackpoint>
          <Trackpoint>
            <Time>2020-01-19T09:14:07.000Z</Time>
            <Position>
              <LatitudeDegrees>38.93310162238776683807373046875</LatitudeDegrees>
              <LongitudeDegrees>-2.80872655101120471954345703125</LongitudeDegrees>
            </Position>
            <AltitudeMeters>867.20001220703125</AltitudeMeters>
            <DistanceMeters>48868.214090112</DistanceMeters>
          </Trackpoint>
          <Trackpoint>
            <Time>2020-01-19T09:14:08.000Z</Time>
            <Position>
              <LatitudeDegrees>38.93314437009394168853759765625</LatitudeDegrees>
              <LongitudeDegrees>-2.80877902172505855560302734375</LongitudeDegrees>
            </Position>
            <AltitudeMeters>867</AltitudeMeters>
            <DistanceMeters>48874.792245349</DistanceMeters>
          </Trackpoint>
          <Trackpoint>
            <Time>2020-01-19T09:14:09.000Z</Time>
            <Position>
              <LatitudeDegrees>38.9331826753914356231689453125</LatitudeDegrees>
              <LongitudeDegrees>-2.80884071253240108489990234375</LongitudeDegrees>
            </Position>
            <AltitudeMeters>866.5999755859375</AltitudeMeters>
            <DistanceMeters>48881.626905944</DistanceMeters>
          </Trackpoint>
          <Trackpoint>
            <Time>2020-01-19T09:14:10.000Z</Time>
            <Position>
              <LatitudeDegrees>38.9332135207951068878173828125</LatitudeDegrees>
              <LongitudeDegrees>-2.80891346745193004608154296875</LongitudeDegrees>
            </Position>
            <AltitudeMeters>866</AltitudeMeters>
            <DistanceMeters>48888.801265548</DistanceMeters>
          </Trackpoint>
          <Trackpoint>
            <Time>2020-01-19T09:14:12.000Z</Time>
            <Position>
              <LatitudeDegrees>38.93323791213333606719970703125</LatitudeDegrees>
              <LongitudeDegrees>-2.80908286571502685546875</LongitudeDegrees>
            </Position>
            <AltitudeMeters>864.20001220703125</AltitudeMeters>
            <DistanceMeters>48903.717130371</DistanceMeters>
          </Trackpoint>
          <Trackpoint>
            <Time>2020-01-19T09:14:14.000Z</Time>
            <Position>
              <LatitudeDegrees>38.9332151971757411956787109375</LatitudeDegrees>
              <LongitudeDegrees>-2.8092711232602596282958984375</LongitudeDegrees>
            </Position>
            <AltitudeMeters>862.5999755859375</AltitudeMeters>
            <DistanceMeters>48920.211315501</DistanceMeters>
          </Trackpoint>
          <Trackpoint>
            <Time>2020-01-19T09:14:17.000Z</Time>
            <Position>
              <LatitudeDegrees>38.93311687745153903961181640625</LatitudeDegrees>
              <LongitudeDegrees>-2.809563316404819488525390625</LongitudeDegrees>
            </Position>
            <AltitudeMeters>860.5999755859375</AltitudeMeters>
            <DistanceMeters>48947.774796443</DistanceMeters>
          </Trackpoint>
          <Trackpoint>
            <Time>2020-01-19T09:14:19.000Z</Time>
            <Position>
              <LatitudeDegrees>38.9330405183136463165283203125</LatitudeDegrees>
              <LongitudeDegrees>-2.8097676672041416168212890625</LongitudeDegrees>
            </Position>
            <AltitudeMeters>859.20001220703125</AltitudeMeters>
            <DistanceMeters>48967.402816756</DistanceMeters>
          </Trackpoint>
          <Trackpoint>
            <Time>2020-01-19T09:14:22.000Z</Time>
            <Position>
              <LatitudeDegrees>38.9329523406922817230224609375</LatitudeDegrees>
              <LongitudeDegrees>-2.81010554172098636627197265625</LongitudeDegrees>
            </Position>
            <AltitudeMeters>858.4000244140625</AltitudeMeters>
            <DistanceMeters>48998.258563057</DistanceMeters>
          </Trackpoint>
          <Trackpoint>
            <Time>2020-01-19T09:14:24.000Z</Time>
            <Position>
              <LatitudeDegrees>38.93293364904820919036865234375</LatitudeDegrees>
              <LongitudeDegrees>-2.810348533093929290771484375</LongitudeDegrees>
            </Position>
            <AltitudeMeters>856.4000244140625</AltitudeMeters>
            <DistanceMeters>49019.399390938</DistanceMeters>
          </Trackpoint>
          <Trackpoint>
            <Time>2020-01-19T09:14:29.000Z</Time>
            <Position>
              <LatitudeDegrees>38.93300338648259639739990234375</LatitudeDegrees>
              <LongitudeDegrees>-2.81093166209757328033447265625</LongitudeDegrees>
            </Position>
            <AltitudeMeters>855</AltitudeMeters>
            <DistanceMeters>49070.47976357</DistanceMeters>
          </Trackpoint>
          <Trackpoint>
            <Time>2020-01-19T09:14:31.000Z</Time>
            <Position>
              <LatitudeDegrees>38.93303641118109226226806640625</LatitudeDegrees>
              <LongitudeDegrees>-2.8111453168094158172607421875</LongitudeDegrees>
            </Position>
            <AltitudeMeters>854.79998779296875</AltitudeMeters>
            <DistanceMeters>49089.33963396</DistanceMeters>
          </Trackpoint>
          <Trackpoint>
            <Time>2020-01-19T09:14:33.000Z</Time>
            <Position>
              <LatitudeDegrees>38.933066837489604949951171875</LatitudeDegrees>
              <LongitudeDegrees>-2.81134623102843761444091796875</LongitudeDegrees>
            </Position>
            <AltitudeMeters>854.4000244140625</AltitudeMeters>
            <DistanceMeters>49107.061542963</DistanceMeters>
          </Trackpoint>
          <Trackpoint>
            <Time>2020-01-19T09:14:38.000Z</Time>
            <Position>
              <LatitudeDegrees>38.93313825130462646484375</LatitudeDegrees>
              <LongitudeDegrees>-2.8117934055626392364501953125</LongitudeDegrees>
            </Position>
            <AltitudeMeters>853.4000244140625</AltitudeMeters>
            <DistanceMeters>49146.585345718</DistanceMeters>
          </Trackpoint>
          <Trackpoint>
            <Time>2020-01-19T09:14:39.000Z</Time>
            <Position>
              <LatitudeDegrees>38.933158032596111297607421875</LatitudeDegrees>
              <LongitudeDegrees>-2.81187194399535655975341796875</LongitudeDegrees>
            </Position>
            <AltitudeMeters>853.79998779296875</AltitudeMeters>
            <DistanceMeters>49153.732592912</DistanceMeters>
          </Trackpoint>
          <Trackpoint>
            <Time>2020-01-19T09:14:40.000Z</Time>
            <Position>
              <LatitudeDegrees>38.9331830106675624847412109375</LatitudeDegrees>
              <LongitudeDegrees>-2.8119469620287418365478515625</LongitudeDegrees>
            </Position>
            <AltitudeMeters>854.20001220703125</AltitudeMeters>
            <DistanceMeters>49160.797878651</DistanceMeters>
          </Trackpoint>
          <Trackpoint>
            <Time>2020-01-19T09:14:42.000Z</Time>
            <Position>
              <LatitudeDegrees>38.93325048498809337615966796875</LatitudeDegrees>
              <LongitudeDegrees>-2.8120901249349117279052734375</LongitudeDegrees>
            </Position>
            <AltitudeMeters>854.79998779296875</AltitudeMeters>
            <DistanceMeters>49175.290309365</DistanceMeters>
          </Trackpoint>
          <Trackpoint>
            <Time>2020-01-19T09:14:44.000Z</Time>
            <Position>
              <LatitudeDegrees>38.9333345554769039154052734375</LatitudeDegrees>
              <LongitudeDegrees>-2.81222331337630748748779296875</LongitudeDegrees>
            </Position>
            <AltitudeMeters>854</AltitudeMeters>
            <DistanceMeters>49190.140646968</DistanceMeters>
          </Trackpoint>
          <Trackpoint>
            <Time>2020-01-19T09:14:49.000Z</Time>
            <Position>
              <LatitudeDegrees>38.93354821018874645233154296875</LatitudeDegrees>
              <LongitudeDegrees>-2.8124880976974964141845703125</LongitudeDegrees>
            </Position>
            <AltitudeMeters>852.4000244140625</AltitudeMeters>
            <DistanceMeters>49223.171692308</DistanceMeters>
          </Trackpoint>
          <Trackpoint>
            <Time>2020-01-19T09:14:58.000Z</Time>
            <Position>
              <LatitudeDegrees>38.9338874258100986480712890625</LatitudeDegrees>
              <LongitudeDegrees>-2.812933512032032012939453125</LongitudeDegrees>
            </Position>
            <AltitudeMeters>852</AltitudeMeters>
            <DistanceMeters>49277.140340955</DistanceMeters>
          </Trackpoint>
          <Trackpoint>
            <Time>2020-01-19T09:14:59.000Z</Time>
            <Position>
              <LatitudeDegrees>38.933915756642818450927734375</LatitudeDegrees>
              <LongitudeDegrees>-2.81299411319196224212646484375</LongitudeDegrees>
            </Position>
            <AltitudeMeters>851.79998779296875</AltitudeMeters>
            <DistanceMeters>49283.262008803</DistanceMeters>
          </Trackpoint>
          <Trackpoint>
            <Time>2020-01-19T09:15:01.000Z</Time>
            <Position>
              <LatitudeDegrees>38.9339591749012470245361328125</LatitudeDegrees>
              <LongitudeDegrees>-2.8131251223385334014892578125</LongitudeDegrees>
            </Position>
            <AltitudeMeters>851.79998779296875</AltitudeMeters>
            <DistanceMeters>49295.591335908</DistanceMeters>
          </Trackpoint>
          <Trackpoint>
            <Time>2020-01-19T09:15:04.000Z</Time>
            <Position>
              <LatitudeDegrees>38.93399429507553577423095703125</LatitudeDegrees>
              <LongitudeDegrees>-2.81334296800196170806884765625</LongitudeDegrees>
            </Position>
            <AltitudeMeters>851.5999755859375</AltitudeMeters>
            <DistanceMeters>49314.852948529</DistanceMeters>
          </Trackpoint>
          <Trackpoint>
            <Time>2020-01-19T09:15:07.000Z</Time>
            <Position>
              <LatitudeDegrees>38.93398323096334934234619140625</LatitudeDegrees>
              <LongitudeDegrees>-2.81355880200862884521484375</LongitudeDegrees>
            </Position>
            <AltitudeMeters>851.5999755859375</AltitudeMeters>
            <DistanceMeters>49333.580204306</DistanceMeters>
          </Trackpoint>
          <Trackpoint>
            <Time>2020-01-19T09:15:09.000Z</Time>
            <Position>
              <LatitudeDegrees>38.9339541457593441009521484375</LatitudeDegrees>
              <LongitudeDegrees>-2.8137001208961009979248046875</LongitudeDegrees>
            </Position>
            <AltitudeMeters>851.5999755859375</AltitudeMeters>
            <DistanceMeters>49346.236250132</DistanceMeters>
          </Trackpoint>
          <Trackpoint>
            <Time>2020-01-19T09:15:14.000Z</Time>
            <Position>
              <LatitudeDegrees>38.93386051990091800689697265625</LatitudeDegrees>
              <LongitudeDegrees>-2.8140233270823955535888671875</LongitudeDegrees>
            </Position>
            <AltitudeMeters>851.20001220703125</AltitudeMeters>
            <DistanceMeters>49376.096420059</DistanceMeters>
          </Trackpoint>
          <Trackpoint>
            <Time>2020-01-19T09:15:16.000Z</Time>
            <Position>
              <LatitudeDegrees>38.9338235557079315185546875</LatitudeDegrees>
              <LongitudeDegrees>-2.8141410090029239654541015625</LongitudeDegrees>
            </Position>
            <AltitudeMeters>851.20001220703125</AltitudeMeters>
            <DistanceMeters>49387.084237043</DistanceMeters>
          </Trackpoint>
          <Trackpoint>
            <Time>2020-01-19T09:15:18.000Z</Time>
            <Position>
              <LatitudeDegrees>38.93379078246653079986572265625</LatitudeDegrees>
              <LongitudeDegrees>-2.81425240449607372283935546875</LongitudeDegrees>
            </Position>
            <AltitudeMeters>851.20001220703125</AltitudeMeters>
            <DistanceMeters>49397.395401868</DistanceMeters>
          </Trackpoint>
          <Trackpoint>
            <Time>2020-01-19T09:15:20.000Z</Time>
            <Position>
              <LatitudeDegrees>38.933767564594745635986328125</LatitudeDegrees>
              <LongitudeDegrees>-2.814361117780208587646484375</LongitudeDegrees>
            </Position>
            <AltitudeMeters>851.20001220703125</AltitudeMeters>
            <DistanceMeters>49407.156824235</DistanceMeters>
          </Trackpoint>
          <Trackpoint>
            <Time>2020-01-19T09:15:25.000Z</Time>
            <Position>
              <LatitudeDegrees>38.93373579718172550201416015625</LatitudeDegrees>
              <LongitudeDegrees>-2.8146251477301120758056640625</LongitudeDegrees>
            </Position>
            <AltitudeMeters>851.4000244140625</AltitudeMeters>
            <DistanceMeters>49430.287974</DistanceMeters>
          </Trackpoint>
          <Trackpoint>
            <Time>2020-01-19T09:15:29.000Z</Time>
            <Position>
              <LatitudeDegrees>38.93372758291661739349365234375</LatitudeDegrees>
              <LongitudeDegrees>-2.814840562641620635986328125</LongitudeDegrees>
            </Position>
            <AltitudeMeters>851.79998779296875</AltitudeMeters>
            <DistanceMeters>49448.960662924</DistanceMeters>
          </Trackpoint>
          <Trackpoint>
            <Time>2020-01-19T09:15:32.000Z</Time>
            <Position>
              <LatitudeDegrees>38.933732695877552032470703125</LatitudeDegrees>
              <LongitudeDegrees>-2.81499654985964298248291015625</LongitudeDegrees>
            </Position>
            <AltitudeMeters>851.4000244140625</AltitudeMeters>
            <DistanceMeters>49462.47785815</DistanceMeters>
          </Trackpoint>
          <Trackpoint>
            <Time>2020-01-19T09:15:35.000Z</Time>
            <Position>
              <LatitudeDegrees>38.93374300561845302581787109375</LatitudeDegrees>
              <LongitudeDegrees>-2.8151216916739940643310546875</LongitudeDegrees>
            </Position>
            <AltitudeMeters>851.20001220703125</AltitudeMeters>
            <DistanceMeters>49473.373241802</DistanceMeters>
          </Trackpoint>
          <Trackpoint>
            <Time>2020-01-19T09:15:37.000Z</Time>
            <Position>
              <LatitudeDegrees>38.93376924097537994384765625</LatitudeDegrees>
              <LongitudeDegrees>-2.81518212519586086273193359375</LongitudeDegrees>
            </Position>
            <AltitudeMeters>851.20001220703125</AltitudeMeters>
            <DistanceMeters>49479.365201744</DistanceMeters>
          </Trackpoint>
          <Trackpoint>
            <Time>2020-01-19T09:15:39.000Z</Time>
            <Position>
              <LatitudeDegrees>38.9337860047817230224609375</LatitudeDegrees>
              <LongitudeDegrees>-2.81523325480520725250244140625</LongitudeDegrees>
            </Position>
            <AltitudeMeters>851.4000244140625</AltitudeMeters>
            <DistanceMeters>49484.16945771</DistanceMeters>
          </Trackpoint>
          <Trackpoint>
            <Time>2020-01-19T09:15:41.000Z</Time>
            <Position>
              <LatitudeDegrees>38.9337994158267974853515625</LatitudeDegrees>
              <LongitudeDegrees>-2.8152889944612979888916015625</LongitudeDegrees>
            </Position>
            <AltitudeMeters>851.4000244140625</AltitudeMeters>
            <DistanceMeters>49489.221090717</DistanceMeters>
          </Trackpoint>
          <Trackpoint>
            <Time>2020-01-19T09:15:46.000Z</Time>
            <Position>
              <LatitudeDegrees>38.93384928815066814422607421875</LatitudeDegrees>
              <LongitudeDegrees>-2.8154490888118743896484375</LongitudeDegrees>
            </Position>
            <AltitudeMeters>851.5999755859375</AltitudeMeters>
            <DistanceMeters>49504.151780492</DistanceMeters>
          </Trackpoint>
          <Trackpoint>
            <Time>2020-01-19T09:15:47.000Z</Time>
            <Position>
              <LatitudeDegrees>38.933870159089565277099609375</LatitudeDegrees>
              <LongitudeDegrees>-2.815478257834911346435546875</LongitudeDegrees>
            </Position>
            <AltitudeMeters>851.5999755859375</AltitudeMeters>
            <DistanceMeters>49507.583284489</DistanceMeters>
          </Trackpoint>
          <Trackpoint>
            <Time>2020-01-19T09:15:49.000Z</Time>
            <Position>
              <LatitudeDegrees>38.933918438851833343505859375</LatitudeDegrees>
              <LongitudeDegrees>-2.8155018948018550872802734375</LongitudeDegrees>
            </Position>
            <AltitudeMeters>852</AltitudeMeters>
            <DistanceMeters>49513.333774898</DistanceMeters>
          </Trackpoint>
          <Trackpoint>
            <Time>2020-01-19T09:15:51.000Z</Time>
            <Position>
              <LatitudeDegrees>38.93395154736936092376708984375</LatitudeDegrees>
              <LongitudeDegrees>-2.81552880071103572845458984375</LongitudeDegrees>
            </Position>
            <AltitudeMeters>852</AltitudeMeters>
            <DistanceMeters>49517.692591347</DistanceMeters>
          </Trackpoint>
          <Trackpoint>
            <Time>2020-01-19T09:15:55.000Z</Time>
            <Position>
              <LatitudeDegrees>38.93399831838905811309814453125</LatitudeDegrees>
              <LongitudeDegrees>-2.81565092504024505615234375</LongitudeDegrees>
            </Position>
            <AltitudeMeters>851</AltitudeMeters>
            <DistanceMeters>49529.478202738</DistanceMeters>
          </Trackpoint>
          <Trackpoint>
            <Time>2020-01-19T09:15:59.000Z</Time>
            <Position>
              <LatitudeDegrees>38.93410854041576385498046875</LatitudeDegrees>
              <LongitudeDegrees>-2.81573650427162647247314453125</LongitudeDegrees>
            </Position>
            <AltitudeMeters>850.20001220703125</AltitudeMeters>
            <DistanceMeters>49543.809919969</DistanceMeters>
          </Trackpoint>
          <Trackpoint>
            <Time>2020-01-19T09:16:09.000Z</Time>
            <Position>
              <LatitudeDegrees>38.93441305495798587799072265625</LatitudeDegrees>
              <LongitudeDegrees>-2.8156624920666217803955078125</LongitudeDegrees>
            </Position>
            <AltitudeMeters>851</AltitudeMeters>
            <DistanceMeters>49578.303439248</DistanceMeters>
          </Trackpoint>
          <Trackpoint>
            <Time>2020-01-19T09:16:15.000Z</Time>
            <Position>
              <LatitudeDegrees>38.93450282514095306396484375</LatitudeDegrees>
              <LongitudeDegrees>-2.81552762724459171295166015625</LongitudeDegrees>
            </Position>
            <AltitudeMeters>852.4000244140625</AltitudeMeters>
            <DistanceMeters>49593.671054198</DistanceMeters>
          </Trackpoint>
          <Trackpoint>
            <Time>2020-01-19T09:16:17.000Z</Time>
            <Position>
              <LatitudeDegrees>38.93452386371791362762451171875</LatitudeDegrees>
              <LongitudeDegrees>-2.81549141742289066314697265625</LongitudeDegrees>
            </Position>
            <AltitudeMeters>852.79998779296875</AltitudeMeters>
            <DistanceMeters>49597.584493817</DistanceMeters>
          </Trackpoint>
          <Trackpoint>
            <Time>2020-01-19T09:16:18.000Z</Time>
            <Position>
              <LatitudeDegrees>38.93453040160238742828369140625</LatitudeDegrees>
              <LongitudeDegrees>-2.8154713846743106842041015625</LongitudeDegrees>
            </Position>
            <AltitudeMeters>853</AltitudeMeters>
            <DistanceMeters>49599.465926772</DistanceMeters>
          </Trackpoint>
          <Trackpoint>
            <Time>2020-01-19T09:16:19.000Z</Time>
            <Position>
              <LatitudeDegrees>38.93453911878168582916259765625</LatitudeDegrees>
              <LongitudeDegrees>-2.81545571051537990570068359375</LongitudeDegrees>
            </Position>
            <AltitudeMeters>853.20001220703125</AltitudeMeters>
            <DistanceMeters>49601.133638841</DistanceMeters>
          </Trackpoint>
          <Trackpoint>
            <Time>2020-01-19T09:16:21.000Z</Time>
            <Position>
              <LatitudeDegrees>38.93455387093126773834228515625</LatitudeDegrees>
              <LongitudeDegrees>-2.8154224343597888946533203125</LongitudeDegrees>
            </Position>
            <AltitudeMeters>853.5999755859375</AltitudeMeters>
            <DistanceMeters>49604.450057558</DistanceMeters>
          </Trackpoint>
          <Trackpoint>
            <Time>2020-01-19T09:16:24.000Z</Time>
            <Position>
              <LatitudeDegrees>38.93457390367984771728515625</LatitudeDegrees>
              <LongitudeDegrees>-2.81537256203591823577880859375</LongitudeDegrees>
            </Position>
            <AltitudeMeters>854.20001220703125</AltitudeMeters>
            <DistanceMeters>49609.30944537</DistanceMeters>
          </Trackpoint>
          <Trackpoint>
            <Time>2020-01-19T09:16:29.000Z</Time>
            <Position>
              <LatitudeDegrees>38.9346106164157390594482421875</LatitudeDegrees>
              <LongitudeDegrees>-2.8153007291257381439208984375</LongitudeDegrees>
            </Position>
            <AltitudeMeters>854.79998779296875</AltitudeMeters>
            <DistanceMeters>49616.750710635</DistanceMeters>
          </Trackpoint>
          <Trackpoint>
            <Time>2020-01-19T09:16:39.000Z</Time>
            <Position>
              <LatitudeDegrees>38.93467959947884082794189453125</LatitudeDegrees>
              <LongitudeDegrees>-2.81514943577349185943603515625</LongitudeDegrees>
            </Position>
            <AltitudeMeters>856.4000244140625</AltitudeMeters>
            <DistanceMeters>49631.933588869</DistanceMeters>
          </Trackpoint>
          <Trackpoint>
            <Time>2020-01-19T09:16:44.000Z</Time>
            <Position>
              <LatitudeDegrees>38.93472217954695224761962890625</LatitudeDegrees>
              <LongitudeDegrees>-2.8150856494903564453125</LongitudeDegrees>
            </Position>
            <AltitudeMeters>857.20001220703125</AltitudeMeters>
            <DistanceMeters>49639.211667491</DistanceMeters>
          </Trackpoint>
          <Trackpoint>
            <Time>2020-01-19T09:16:49.000Z</Time>
            <Position>
              <LatitudeDegrees>38.9347658492624759674072265625</LatitudeDegrees>
              <LongitudeDegrees>-2.815024293959140777587890625</LongitudeDegrees>
            </Position>
            <AltitudeMeters>858</AltitudeMeters>
            <DistanceMeters>49646.411783383</DistanceMeters>
          </Trackpoint>
          <Trackpoint>
            <Time>2020-01-19T09:16:53.000Z</Time>
            <Position>
              <LatitudeDegrees>38.93478889949619770050048828125</LatitudeDegrees>
              <LongitudeDegrees>-2.8149631060659885406494140625</LongitudeDegrees>
            </Position>
            <AltitudeMeters>859</AltitudeMeters>
            <DistanceMeters>49652.297305725</DistanceMeters>
          </Trackpoint>
          <Trackpoint>
            <Time>2020-01-19T09:16:59.000Z</Time>
            <Position>
              <LatitudeDegrees>38.9348132908344268798828125</LatitudeDegrees>
              <LongitudeDegrees>-2.81486193649470806121826171875</LongitudeDegrees>
            </Position>
            <AltitudeMeters>860.4000244140625</AltitudeMeters>
            <DistanceMeters>49661.46726057</DistanceMeters>
          </Trackpoint>
          <Trackpoint>
            <Time>2020-01-19T09:17:04.000Z</Time>
            <Position>
              <LatitudeDegrees>38.93484572879970073699951171875</LatitudeDegrees>
              <LongitudeDegrees>-2.8147817216813564300537109375</LongitudeDegrees>
            </Position>
            <AltitudeMeters>861.5999755859375</AltitudeMeters>
            <DistanceMeters>49669.294716649</DistanceMeters>
          </Trackpoint>
          <Trackpoint>
            <Time>2020-01-19T09:17:09.000Z</Time>
            <Position>
              <LatitudeDegrees>38.93488260917365550994873046875</LatitudeDegrees>
              <LongitudeDegrees>-2.8147163428366184234619140625</LongitudeDegrees>
            </Position>
            <AltitudeMeters>862.79998779296875</AltitudeMeters>
            <DistanceMeters>49676.286771702</DistanceMeters>
          </Trackpoint>
          <Trackpoint>
            <Time>2020-01-19T09:17:15.000Z</Time>
            <Position>
              <LatitudeDegrees>38.93493357114493846893310546875</LatitudeDegrees>
              <LongitudeDegrees>-2.8146398998796939849853515625</LongitudeDegrees>
            </Position>
            <AltitudeMeters>864</AltitudeMeters>
            <DistanceMeters>49685.003368698</DistanceMeters>
          </Trackpoint>
          <Trackpoint>
            <Time>2020-01-19T09:17:19.000Z</Time>
            <Position>
              <LatitudeDegrees>38.93496240489184856414794921875</LatitudeDegrees>
              <LongitudeDegrees>-2.81458600424230098724365234375</LongitudeDegrees>
            </Position>
            <AltitudeMeters>864.79998779296875</AltitudeMeters>
            <DistanceMeters>49690.666036043</DistanceMeters>
          </Trackpoint>
          <Trackpoint>
            <Time>2020-01-19T09:17:29.000Z</Time>
            <Position>
              <LatitudeDegrees>38.93501571379601955413818359375</LatitudeDegrees>
              <LongitudeDegrees>-2.81448206864297389984130859375</LongitudeDegrees>
            </Position>
            <AltitudeMeters>866.4000244140625</AltitudeMeters>
            <DistanceMeters>49701.444763404</DistanceMeters>
          </Trackpoint>
          <Trackpoint>
            <Time>2020-01-19T09:17:34.000Z</Time>
            <Position>
              <LatitudeDegrees>38.9350387640297412872314453125</LatitudeDegrees>
              <LongitudeDegrees>-2.81443026848137378692626953125</LongitudeDegrees>
            </Position>
            <AltitudeMeters>867.20001220703125</AltitudeMeters>
            <DistanceMeters>49706.611281184</DistanceMeters>
          </Trackpoint>
          <Trackpoint>
            <Time>2020-01-19T09:17:54.000Z</Time>
            <Position>
              <LatitudeDegrees>38.9351366646587848663330078125</LatitudeDegrees>
              <LongitudeDegrees>-2.8141869418323040008544921875</LongitudeDegrees>
            </Position>
            <AltitudeMeters>869.5999755859375</AltitudeMeters>
            <DistanceMeters>49730.329157188</DistanceMeters>
          </Trackpoint>
          <Trackpoint>
            <Time>2020-01-19T09:17:59.000Z</Time>
            <Position>
              <LatitudeDegrees>38.9351675100624561309814453125</LatitudeDegrees>
              <LongitudeDegrees>-2.81411829404532909393310546875</LongitudeDegrees>
            </Position>
            <AltitudeMeters>870.20001220703125</AltitudeMeters>
            <DistanceMeters>49737.193480817</DistanceMeters>
          </Trackpoint>
          <Trackpoint>
            <Time>2020-01-19T09:18:01.000Z</Time>
            <Position>
              <LatitudeDegrees>38.93517781980335712432861328125</LatitudeDegrees>
              <LongitudeDegrees>-2.81409046612679958343505859375</LongitudeDegrees>
            </Position>
            <AltitudeMeters>870.4000244140625</AltitudeMeters>
            <DistanceMeters>49739.862699863</DistanceMeters>
          </Trackpoint>
          <Trackpoint>
            <Time>2020-01-19T09:18:09.000Z</Time>
            <Position>
              <LatitudeDegrees>38.9352127723395824432373046875</LatitudeDegrees>
              <LongitudeDegrees>-2.81398016028106212615966796875</LongitudeDegrees>
            </Position>
            <AltitudeMeters>871</AltitudeMeters>
            <DistanceMeters>49750.174740408</DistanceMeters>
          </Trackpoint>
          <Trackpoint>
            <Time>2020-01-19T09:18:18.000Z</Time>
            <Position>
              <LatitudeDegrees>38.93526147119700908660888671875</LatitudeDegrees>
              <LongitudeDegrees>-2.81385141424834728240966796875</LongitudeDegrees>
            </Position>
            <AltitudeMeters>872</AltitudeMeters>
            <DistanceMeters>49762.569080264</DistanceMeters>
          </Trackpoint>
          <Trackpoint>
            <Time>2020-01-19T09:18:29.000Z</Time>
            <Position>
              <LatitudeDegrees>38.9353229105472564697265625</LatitudeDegrees>
              <LongitudeDegrees>-2.8136917389929294586181640625</LongitudeDegrees>
            </Position>
            <AltitudeMeters>873.5999755859375</AltitudeMeters>
            <DistanceMeters>49777.992123857</DistanceMeters>
          </Trackpoint>
          <Trackpoint>
            <Time>2020-01-19T09:18:39.000Z</Time>
            <Position>
              <LatitudeDegrees>38.93539709039032459259033203125</LatitudeDegrees>
              <LongitudeDegrees>-2.81356290914118289947509765625</LongitudeDegrees>
            </Position>
            <AltitudeMeters>875.4000244140625</AltitudeMeters>
            <DistanceMeters>49791.869278113</DistanceMeters>
          </Trackpoint>
          <Trackpoint>
            <Time>2020-01-19T09:18:47.000Z</Time>
            <Position>
              <LatitudeDegrees>38.93545090220868587493896484375</LatitudeDegrees>
              <LongitudeDegrees>-2.8134441375732421875</LongitudeDegrees>
            </Position>
            <AltitudeMeters>876.79998779296875</AltitudeMeters>
            <DistanceMeters>49803.770022584</DistanceMeters>
          </Trackpoint>
          <Trackpoint>
            <Time>2020-01-19T09:18:49.000Z</Time>
            <Position>
              <LatitudeDegrees>38.9354380778968334197998046875</LatitudeDegrees>
              <LongitudeDegrees>-2.813412286341190338134765625</LongitudeDegrees>
            </Position>
            <AltitudeMeters>876.4000244140625</AltitudeMeters>
            <DistanceMeters>49806.875521198</DistanceMeters>
          </Trackpoint>
          <Trackpoint>
            <Time>2020-01-19T09:18:54.000Z</Time>
            <Position>
              <LatitudeDegrees>38.93541318364441394805908203125</LatitudeDegrees>
              <LongitudeDegrees>-2.81332687474787235260009765625</LongitudeDegrees>
            </Position>
            <AltitudeMeters>875.4000244140625</AltitudeMeters>
            <DistanceMeters>49814.772464146</DistanceMeters>
          </Trackpoint>
          <Trackpoint>
            <Time>2020-01-19T09:18:59.000Z</Time>
            <Position>
              <LatitudeDegrees>38.93543933518230915069580078125</LatitudeDegrees>
              <LongitudeDegrees>-2.81326778233051300048828125</LongitudeDegrees>
            </Position>
            <AltitudeMeters>875.5999755859375</AltitudeMeters>
            <DistanceMeters>49820.657986488</DistanceMeters>
          </Trackpoint>
          <Trackpoint>
            <Time>2020-01-19T09:19:01.000Z</Time>
            <Position>
              <LatitudeDegrees>38.93546498380601406097412109375</LatitudeDegrees>
              <LongitudeDegrees>-2.8132686205208301544189453125</LongitudeDegrees>
            </Position>
            <AltitudeMeters>876.20001220703125</AltitudeMeters>
            <DistanceMeters>49823.513535302</DistanceMeters>
          </Trackpoint>
          <Trackpoint>
            <Time>2020-01-19T09:19:06.000Z</Time>
            <Position>
              <LatitudeDegrees>38.9355374872684478759765625</LatitudeDegrees>
              <LongitudeDegrees>-2.81324355863034725189208984375</LongitudeDegrees>
            </Position>
            <AltitudeMeters>877.5999755859375</AltitudeMeters>
            <DistanceMeters>49831.869944886</DistanceMeters>
          </Trackpoint>
          <Trackpoint>
            <Time>2020-01-19T09:19:09.000Z</Time>
            <Position>
              <LatitudeDegrees>38.93555165268480777740478515625</LatitudeDegrees>
              <LongitudeDegrees>-2.81318069435656070709228515625</LongitudeDegrees>
            </Position>
            <AltitudeMeters>877.4000244140625</AltitudeMeters>
            <DistanceMeters>49837.536597499</DistanceMeters>
          </Trackpoint>
          <Trackpoint>
            <Time>2020-01-19T09:19:19.000Z</Time>
            <Position>
              <LatitudeDegrees>38.93561284057796001434326171875</LatitudeDegrees>
              <LongitudeDegrees>-2.81302370131015777587890625</LongitudeDegrees>
            </Position>
            <AltitudeMeters>877.4000244140625</AltitudeMeters>
            <DistanceMeters>49852.739386933</DistanceMeters>
          </Trackpoint>
          <Trackpoint>
            <Time>2020-01-19T09:19:24.000Z</Time>
            <Position>
              <LatitudeDegrees>38.93563547171652317047119140625</LatitudeDegrees>
              <LongitudeDegrees>-2.81294457614421844482421875</LongitudeDegrees>
            </Position>
            <AltitudeMeters>877.4000244140625</AltitudeMeters>
            <DistanceMeters>49860.038527363</DistanceMeters>
          </Trackpoint>
          <Trackpoint>
            <Time>2020-01-19T09:19:29.000Z</Time>
            <Position>
              <LatitudeDegrees>38.93565357662737369537353515625</LatitudeDegrees>
              <LongitudeDegrees>-2.81288313679397106170654296875</LongitudeDegrees>
            </Position>
            <AltitudeMeters>877.4000244140625</AltitudeMeters>
            <DistanceMeters>49865.726652177</DistanceMeters>
          </Trackpoint>
          <Trackpoint>
            <Time>2020-01-19T09:19:33.000Z</Time>
            <Position>
              <LatitudeDegrees>38.93568811006844043731689453125</LatitudeDegrees>
              <LongitudeDegrees>-2.812776602804660797119140625</LongitudeDegrees>
            </Position>
            <AltitudeMeters>877.5999755859375</AltitudeMeters>
            <DistanceMeters>49875.718926955</DistanceMeters>
          </Trackpoint>
          <Trackpoint>
            <Time>2020-01-19T09:19:36.000Z</Time>
            <Position>
              <LatitudeDegrees>38.93574393354356288909912109375</LatitudeDegrees>
              <LongitudeDegrees>-2.8126681409776210784912109375</LongitudeDegrees>
            </Position>
            <AltitudeMeters>878</AltitudeMeters>
            <DistanceMeters>49886.97869042</DistanceMeters>
          </Trackpoint>
          <Trackpoint>
            <Time>2020-01-19T09:19:39.000Z</Time>
            <Position>
              <LatitudeDegrees>38.9358068816363811492919921875</LatitudeDegrees>
              <LongitudeDegrees>-2.81256998889148235321044921875</LongitudeDegrees>
            </Position>
            <AltitudeMeters>878.5999755859375</AltitudeMeters>
            <DistanceMeters>49897.99195455</DistanceMeters>
          </Trackpoint>
          <Trackpoint>
            <Time>2020-01-19T09:19:42.000Z</Time>
            <Position>
              <LatitudeDegrees>38.9358749426901340484619140625</LatitudeDegrees>
              <LongitudeDegrees>-2.81250427477061748504638671875</LongitudeDegrees>
            </Position>
            <AltitudeMeters>879.79998779296875</AltitudeMeters>
            <DistanceMeters>49907.465121903</DistanceMeters>
          </Trackpoint>
          <Trackpoint>
            <Time>2020-01-19T09:19:46.000Z</Time>
            <Position>
              <LatitudeDegrees>38.93596789799630641937255859375</LatitudeDegrees>
              <LongitudeDegrees>-2.81244845129549503326416015625</LongitudeDegrees>
            </Position>
            <AltitudeMeters>881.5999755859375</AltitudeMeters>
            <DistanceMeters>49918.884945194</DistanceMeters>
          </Trackpoint>
          <Trackpoint>
            <Time>2020-01-19T09:19:49.000Z</Time>
            <Position>
              <LatitudeDegrees>38.9360308460891246795654296875</LatitudeDegrees>
              <LongitudeDegrees>-2.812402434647083282470703125</LongitudeDegrees>
            </Position>
            <AltitudeMeters>882.79998779296875</AltitudeMeters>
            <DistanceMeters>49926.944308684</DistanceMeters>
          </Trackpoint>
          <Trackpoint>
            <Time>2020-01-19T09:19:59.000Z</Time>
            <Position>
              <LatitudeDegrees>38.9362698979675769805908203125</LatitudeDegrees>
              <LongitudeDegrees>-2.812193892896175384521484375</LongitudeDegrees>
            </Position>
            <AltitudeMeters>885</AltitudeMeters>
            <DistanceMeters>49959.09860237</DistanceMeters>
          </Trackpoint>
          <Trackpoint>
            <Time>2020-01-19T09:20:02.000Z</Time>
            <Position>
              <LatitudeDegrees>38.93630149774253368377685546875</LatitudeDegrees>
              <LongitudeDegrees>-2.8121434338390827178955078125</LongitudeDegrees>
            </Position>
            <AltitudeMeters>885.20001220703125</AltitudeMeters>
            <DistanceMeters>49964.707593931</DistanceMeters>
          </Trackpoint>
          <Trackpoint>
            <Time>2020-01-19T09:20:06.000Z</Time>
            <Position>
              <LatitudeDegrees>38.9363604225218296051025390625</LatitudeDegrees>
              <LongitudeDegrees>-2.81209766864776611328125</LongitudeDegrees>
            </Position>
            <AltitudeMeters>885.5999755859375</AltitudeMeters>
            <DistanceMeters>49972.369481881</DistanceMeters>
          </Trackpoint>
          <Trackpoint>
            <Time>2020-01-19T09:20:08.000Z</Time>
            <Position>
              <LatitudeDegrees>38.93639487214386463165283203125</LatitudeDegrees>
              <LongitudeDegrees>-2.81208300031721591949462890625</LongitudeDegrees>
            </Position>
            <AltitudeMeters>886</AltitudeMeters>
            <DistanceMeters>49976.407837742</DistanceMeters>
          </Trackpoint>
          <Trackpoint>
            <Time>2020-01-19T09:20:09.000Z</Time>
            <Position>
              <LatitudeDegrees>38.9364127255976200103759765625</LatitudeDegrees>
              <LongitudeDegrees>-2.81207964755594730377197265625</LongitudeDegrees>
            </Position>
            <AltitudeMeters>886.20001220703125</AltitudeMeters>
            <DistanceMeters>49978.414679563</DistanceMeters>
          </Trackpoint>
          <Trackpoint>
            <Time>2020-01-19T09:20:13.000Z</Time>
            <Position>
              <LatitudeDegrees>38.9364848099648952484130859375</LatitudeDegrees>
              <LongitudeDegrees>-2.8120840899646282196044921875</LongitudeDegrees>
            </Position>
            <AltitudeMeters>886.79998779296875</AltitudeMeters>
            <DistanceMeters>49986.447669434</DistanceMeters>
          </Trackpoint>
          <Trackpoint>
            <Time>2020-01-19T09:20:19.000Z</Time>
            <Position>
              <LatitudeDegrees>38.93659201450645923614501953125</LatitudeDegrees>
              <LongitudeDegrees>-2.8120163641870021820068359375</LongitudeDegrees>
            </Position>
            <AltitudeMeters>887.79998779296875</AltitudeMeters>
            <DistanceMeters>49999.742582608</DistanceMeters>
          </Trackpoint>
          <Trackpoint>
            <Time>2020-01-19T09:20:23.000Z</Time>
            <Position>
              <LatitudeDegrees>38.93661347217857837677001953125</LatitudeDegrees>
              <LongitudeDegrees>-2.811906896531581878662109375</LongitudeDegrees>
            </Position>
            <AltitudeMeters>887.5999755859375</AltitudeMeters>
            <DistanceMeters>50009.515561609</DistanceMeters>
          </Trackpoint>
          <Trackpoint>
            <Time>2020-01-19T09:20:26.000Z</Time>
            <Position>
              <LatitudeDegrees>38.93663878552615642547607421875</LatitudeDegrees>
              <LongitudeDegrees>-2.8118319623172283172607421875</LongitudeDegrees>
            </Position>
            <AltitudeMeters>887.79998779296875</AltitudeMeters>
            <DistanceMeters>50016.588511736</DistanceMeters>
          </Trackpoint>
          <Trackpoint>
            <Time>2020-01-19T09:20:29.000Z</Time>
            <Position>
              <LatitudeDegrees>38.93665320239961147308349609375</LatitudeDegrees>
              <LongitudeDegrees>-2.81175694428384304046630859375</LongitudeDegrees>
            </Position>
            <AltitudeMeters>887.5999755859375</AltitudeMeters>
            <DistanceMeters>50023.278284442</DistanceMeters>
          </Trackpoint>
          <Trackpoint>
            <Time>2020-01-19T09:20:32.000Z</Time>
            <Position>
              <LatitudeDegrees>38.93666812218725681304931640625</LatitudeDegrees>
              <LongitudeDegrees>-2.8116698563098907470703125</LongitudeDegrees>
            </Position>
            <AltitudeMeters>887.79998779296875</AltitudeMeters>
            <DistanceMeters>50030.998291212</DistanceMeters>
          </Trackpoint>
          <Trackpoint>
            <Time>2020-01-19T09:20:36.000Z</Time>
            <Position>
              <LatitudeDegrees>38.936740458011627197265625</LatitudeDegrees>
              <LongitudeDegrees>-2.8115805052220821380615234375</LongitudeDegrees>
            </Position>
            <AltitudeMeters>889</AltitudeMeters>
            <DistanceMeters>50042.163829058</DistanceMeters>
          </Trackpoint>
          <Trackpoint>
            <Time>2020-01-19T09:20:39.000Z</Time>
            <Position>
              <LatitudeDegrees>38.9367962814867496490478515625</LatitudeDegrees>
              <LongitudeDegrees>-2.8115116059780120849609375</LongitudeDegrees>
            </Position>
            <AltitudeMeters>889.5999755859375</AltitudeMeters>
            <DistanceMeters>50050.777255093</DistanceMeters>
          </Trackpoint>
          <Trackpoint>
            <Time>2020-01-19T09:20:44.000Z</Time>
            <Position>
              <LatitudeDegrees>38.93690516240894794464111328125</LatitudeDegrees>
              <LongitudeDegrees>-2.81143357045948505401611328125</LongitudeDegrees>
            </Position>
            <AltitudeMeters>891</AltitudeMeters>
            <DistanceMeters>50064.651806243</DistanceMeters>
          </Trackpoint>
          <Trackpoint>
            <Time>2020-01-19T09:20:49.000Z</Time>
            <Position>
              <LatitudeDegrees>38.937051929533481597900390625</LatitudeDegrees>
              <LongitudeDegrees>-2.8112931735813617706298828125</LongitudeDegrees>
            </Position>
            <AltitudeMeters>892.20001220703125</AltitudeMeters>
            <DistanceMeters>50085.013039988</DistanceMeters>
          </Trackpoint>
          <Trackpoint>
            <Time>2020-01-19T09:20:59.000Z</Time>
            <Position>
              <LatitudeDegrees>38.937300704419612884521484375</LatitudeDegrees>
              <LongitudeDegrees>-2.81118965707719326019287109375</LongitudeDegrees>
            </Position>
            <AltitudeMeters>893.79998779296875</AltitudeMeters>
            <DistanceMeters>50114.116357845</DistanceMeters>
          </Trackpoint>
          <Trackpoint>
            <Time>2020-01-19T09:21:09.000Z</Time>
            <Position>
              <LatitudeDegrees>38.9375142753124237060546875</LatitudeDegrees>
              <LongitudeDegrees>-2.8111278824508190155029296875</LongitudeDegrees>
            </Position>
            <AltitudeMeters>895.20001220703125</AltitudeMeters>
            <DistanceMeters>50138.481214822</DistanceMeters>
          </Trackpoint>
          <Trackpoint>
            <Time>2020-01-19T09:21:16.000Z</Time>
            <Position>
              <LatitudeDegrees>38.93766238354146480560302734375</LatitudeDegrees>
              <LongitudeDegrees>-2.81109510920941829681396484375</LongitudeDegrees>
            </Position>
            <AltitudeMeters>897.4000244140625</AltitudeMeters>
            <DistanceMeters>50155.208615956</DistanceMeters>
          </Trackpoint>
          <Trackpoint>
            <Time>2020-01-19T09:21:19.000Z</Time>
            <Position>
              <LatitudeDegrees>38.93771619535982608795166015625</LatitudeDegrees>
              <LongitudeDegrees>-2.811055965721607208251953125</LongitudeDegrees>
            </Position>
            <AltitudeMeters>898</AltitudeMeters>
            <DistanceMeters>50162.090676036</DistanceMeters>
          </Trackpoint>
          <Trackpoint>
            <Time>2020-01-19T09:21:23.000Z</Time>
            <Position>
              <LatitudeDegrees>38.9377762936055660247802734375</LatitudeDegrees>
              <LongitudeDegrees>-2.811041884124279022216796875</LongitudeDegrees>
            </Position>
            <AltitudeMeters>898.5999755859375</AltitudeMeters>
            <DistanceMeters>50168.890234213</DistanceMeters>
          </Trackpoint>
          <Trackpoint>
            <Time>2020-01-19T09:21:29.000Z</Time>
            <Position>
              <LatitudeDegrees>38.93790646456182003021240234375</LatitudeDegrees>
              <LongitudeDegrees>-2.81101179309189319610595703125</LongitudeDegrees>
            </Position>
            <AltitudeMeters>899</AltitudeMeters>
            <DistanceMeters>50183.61078938</DistanceMeters>
          </Trackpoint>
          <Trackpoint>
            <Time>2020-01-19T09:21:36.000Z</Time>
            <Position>
              <LatitudeDegrees>38.93805163912475109100341796875</LatitudeDegrees>
              <LongitudeDegrees>-2.8109697997570037841796875</LongitudeDegrees>
            </Position>
            <AltitudeMeters>899.5999755859375</AltitudeMeters>
            <DistanceMeters>50200.17299431</DistanceMeters>
          </Trackpoint>
          <Trackpoint>
            <Time>2020-01-19T09:21:38.000Z</Time>
            <Position>
              <LatitudeDegrees>38.93809086643159389495849609375</LatitudeDegrees>
              <LongitudeDegrees>-2.81096166931092739105224609375</LongitudeDegrees>
            </Position>
            <AltitudeMeters>899.79998779296875</AltitudeMeters>
            <DistanceMeters>50204.59556659</DistanceMeters>
          </Trackpoint>
          <Trackpoint>
            <Time>2020-01-19T09:21:39.000Z</Time>
            <Position>
              <LatitudeDegrees>38.93811366520822048187255859375</LatitudeDegrees>
              <LongitudeDegrees>-2.81096108257770538330078125</LongitudeDegrees>
            </Position>
            <AltitudeMeters>899.79998779296875</AltitudeMeters>
            <DistanceMeters>50207.131195591</DistanceMeters>
          </Trackpoint>
          <Trackpoint>
            <Time>2020-01-19T09:21:49.000Z</Time>
            <Position>
              <LatitudeDegrees>38.93830913119018077850341796875</LatitudeDegrees>
              <LongitudeDegrees>-2.81093987636268138885498046875</LongitudeDegrees>
            </Position>
            <AltitudeMeters>900.79998779296875</AltitudeMeters>
            <DistanceMeters>50228.964190697</DistanceMeters>
          </Trackpoint>
          <Trackpoint>
            <Time>2020-01-19T09:21:59.000Z</Time>
            <Position>
              <LatitudeDegrees>38.9385172538459300994873046875</LatitudeDegrees>
              <LongitudeDegrees>-2.81088992021977901458740234375</LongitudeDegrees>
            </Position>
            <AltitudeMeters>901.79998779296875</AltitudeMeters>
            <DistanceMeters>50252.529091523</DistanceMeters>
          </Trackpoint>
          <Trackpoint>
            <Time>2020-01-19T09:22:01.000Z</Time>
            <Position>
              <LatitudeDegrees>38.9385608397424221038818359375</LatitudeDegrees>
              <LongitudeDegrees>-2.8108895011246204376220703125</LongitudeDegrees>
            </Position>
            <AltitudeMeters>902</AltitudeMeters>
            <DistanceMeters>50257.381040543</DistanceMeters>
          </Trackpoint>
          <Trackpoint>
            <Time>2020-01-19T09:22:09.000Z</Time>
            <Position>
              <LatitudeDegrees>38.93868447281420230865478515625</LatitudeDegrees>
              <LongitudeDegrees>-2.810741476714611053466796875</LongitudeDegrees>
            </Position>
            <AltitudeMeters>903.4000244140625</AltitudeMeters>
            <DistanceMeters>50276.18480807</DistanceMeters>
          </Trackpoint>
          <Trackpoint>
            <Time>2020-01-19T09:22:18.000Z</Time>
            <Position>
              <LatitudeDegrees>38.9388178288936614990234375</LatitudeDegrees>
              <LongitudeDegrees>-2.81059806235134601593017578125</LongitudeDegrees>
            </Position>
            <AltitudeMeters>905</AltitudeMeters>
            <DistanceMeters>50295.535756625</DistanceMeters>
          </Trackpoint>
          <Trackpoint>
            <Time>2020-01-19T09:22:29.000Z</Time>
            <Position>
              <LatitudeDegrees>38.93893911503255367279052734375</LatitudeDegrees>
              <LongitudeDegrees>-2.81041349284350872039794921875</LongitudeDegrees>
            </Position>
            <AltitudeMeters>906.79998779296875</AltitudeMeters>
            <DistanceMeters>50316.4537246</DistanceMeters>
          </Trackpoint>
          <Trackpoint>
            <Time>2020-01-19T09:22:36.000Z</Time>
            <Position>
              <LatitudeDegrees>38.93905310891568660736083984375</LatitudeDegrees>
              <LongitudeDegrees>-2.8104113973677158355712890625</LongitudeDegrees>
            </Position>
            <AltitudeMeters>907.20001220703125</AltitudeMeters>
            <DistanceMeters>50329.14326057</DistanceMeters>
          </Trackpoint>
          <Trackpoint>
            <Time>2020-01-19T09:22:39.000Z</Time>
            <Position>
              <LatitudeDegrees>38.9391049928963184356689453125</LatitudeDegrees>
              <LongitudeDegrees>-2.81039320863783359527587890625</LongitudeDegrees>
            </Position>
            <AltitudeMeters>907.5999755859375</AltitudeMeters>
            <DistanceMeters>50335.129189348</DistanceMeters>
          </Trackpoint>
          <Trackpoint>
            <Time>2020-01-19T09:22:49.000Z</Time>
            <Position>
              <LatitudeDegrees>38.9392870478332042694091796875</LatitudeDegrees>
              <LongitudeDegrees>-2.8102965652942657470703125</LongitudeDegrees>
            </Position>
            <AltitudeMeters>909.4000244140625</AltitudeMeters>
            <DistanceMeters>50357.051545481</DistanceMeters>
          </Trackpoint>
          <Trackpoint>
            <Time>2020-01-19T09:22:59.000Z</Time>
            <Position>
              <LatitudeDegrees>38.93949315883219242095947265625</LatitudeDegrees>
              <LongitudeDegrees>-2.81020461581647396087646484375</LongitudeDegrees>
            </Position>
            <AltitudeMeters>910.79998779296875</AltitudeMeters>
            <DistanceMeters>50381.334171608</DistanceMeters>
          </Trackpoint>
          <Trackpoint>
            <Time>2020-01-19T09:23:09.000Z</Time>
            <Position>
              <LatitudeDegrees>38.939715363085269927978515625</LatitudeDegrees>
              <LongitudeDegrees>-2.81014845706522464752197265625</LongitudeDegrees>
            </Position>
            <AltitudeMeters>911.5999755859375</AltitudeMeters>
            <DistanceMeters>50406.539369448</DistanceMeters>
          </Trackpoint>
          <Trackpoint>
            <Time>2020-01-19T09:23:18.000Z</Time>
            <Position>
              <LatitudeDegrees>38.939941339194774627685546875</LatitudeDegrees>
              <LongitudeDegrees>-2.8101032786071300506591796875</LongitudeDegrees>
            </Position>
            <AltitudeMeters>912.20001220703125</AltitudeMeters>
            <DistanceMeters>50431.993228778</DistanceMeters>
          </Trackpoint>
          <Trackpoint>
            <Time>2020-01-19T09:23:29.000Z</Time>
            <Position>
              <LatitudeDegrees>38.940157592296600341796875</LatitudeDegrees>
              <LongitudeDegrees>-2.8100216388702392578125</LongitudeDegrees>
            </Position>
            <AltitudeMeters>913</AltitudeMeters>
            <DistanceMeters>50457.078841531</DistanceMeters>
          </Trackpoint>
          <Trackpoint>
            <Time>2020-01-19T09:23:39.000Z</Time>
            <Position>
              <LatitudeDegrees>38.94036202691495418548583984375</LatitudeDegrees>
              <LongitudeDegrees>-2.81001585535705089569091796875</LongitudeDegrees>
            </Position>
            <AltitudeMeters>913.5999755859375</AltitudeMeters>
            <DistanceMeters>50479.838483557</DistanceMeters>
          </Trackpoint>
          <Trackpoint>
            <Time>2020-01-19T09:23:49.000Z</Time>
            <Position>
              <LatitudeDegrees>38.94054181873798370361328125</LatitudeDegrees>
              <LongitudeDegrees>-2.80990898609161376953125</LongitudeDegrees>
            </Position>
            <AltitudeMeters>914.5999755859375</AltitudeMeters>
            <DistanceMeters>50501.884681291</DistanceMeters>
          </Trackpoint>
          <Trackpoint>
            <Time>2020-01-19T09:23:59.000Z</Time>
            <Position>
              <LatitudeDegrees>38.94068263471126556396484375</LatitudeDegrees>
              <LongitudeDegrees>-2.809756435453891754150390625</LongitudeDegrees>
            </Position>
            <AltitudeMeters>915.4000244140625</AltitudeMeters>
            <DistanceMeters>50522.379632763</DistanceMeters>
          </Trackpoint>
          <Trackpoint>
            <Time>2020-01-19T09:24:09.000Z</Time>
            <Position>
              <LatitudeDegrees>38.94076754339039325714111328125</LatitudeDegrees>
              <LongitudeDegrees>-2.80955015681684017181396484375</LongitudeDegrees>
            </Position>
            <AltitudeMeters>916.20001220703125</AltitudeMeters>
            <DistanceMeters>50542.583483277</DistanceMeters>
          </Trackpoint>
          <Trackpoint>
            <Time>2020-01-19T09:24:18.000Z</Time>
            <Position>
              <LatitudeDegrees>38.9408497698605060577392578125</LatitudeDegrees>
              <LongitudeDegrees>-2.8093656711280345916748046875</LongitudeDegrees>
            </Position>
            <AltitudeMeters>917.20001220703125</AltitudeMeters>
            <DistanceMeters>50560.991215035</DistanceMeters>
          </Trackpoint>
          <Trackpoint>
            <Time>2020-01-19T09:24:29.000Z</Time>
            <Position>
              <LatitudeDegrees>38.94089411012828350067138671875</LatitudeDegrees>
              <LongitudeDegrees>-2.80910055153071880340576171875</LongitudeDegrees>
            </Position>
            <AltitudeMeters>918.4000244140625</AltitudeMeters>
            <DistanceMeters>50584.467237388</DistanceMeters>
          </Trackpoint>
          <Trackpoint>
            <Time>2020-01-19T09:24:39.000Z</Time>
            <Position>
              <LatitudeDegrees>38.94097021780908107757568359375</LatitudeDegrees>
              <LongitudeDegrees>-2.80886200256645679473876953125</LongitudeDegrees>
            </Position>
            <AltitudeMeters>919.20001220703125</AltitudeMeters>
            <DistanceMeters>50606.788201474</DistanceMeters>
          </Trackpoint>
          <Trackpoint>
            <Time>2020-01-19T09:24:49.000Z</Time>
            <Position>
              <LatitudeDegrees>38.94104196690022945404052734375</LatitudeDegrees>
              <LongitudeDegrees>-2.8086076118052005767822265625</LongitudeDegrees>
            </Position>
            <AltitudeMeters>920.20001220703125</AltitudeMeters>
            <DistanceMeters>50630.214165822</DistanceMeters>
          </Trackpoint>
          <Trackpoint>
            <Time>2020-01-19T09:24:56.000Z</Time>
            <Position>
              <LatitudeDegrees>38.9410931803286075592041015625</LatitudeDegrees>
              <LongitudeDegrees>-2.80842882581055164337158203125</LongitudeDegrees>
            </Position>
            <AltitudeMeters>920.79998779296875</AltitudeMeters>
            <DistanceMeters>50646.707803473</DistanceMeters>
          </Trackpoint>
          <Trackpoint>
            <Time>2020-01-19T09:24:59.000Z</Time>
            <Position>
              <LatitudeDegrees>38.9411431364715099334716796875</LatitudeDegrees>
              <LongitudeDegrees>-2.80838222242891788482666015625</LongitudeDegrees>
            </Position>
            <AltitudeMeters>921.20001220703125</AltitudeMeters>
            <DistanceMeters>50653.57804434</DistanceMeters>
          </Trackpoint>
          <Trackpoint>
            <Time>2020-01-19T09:25:07.000Z</Time>
            <Position>
              <LatitudeDegrees>38.941319324076175689697265625</LatitudeDegrees>
              <LongitudeDegrees>-2.8083588369190692901611328125</LongitudeDegrees>
            </Position>
            <AltitudeMeters>921.5999755859375</AltitudeMeters>
            <DistanceMeters>50673.292366295</DistanceMeters>
          </Trackpoint>
          <Trackpoint>
            <Time>2020-01-19T09:25:09.000Z</Time>
            <Position>
              <LatitudeDegrees>38.94135276786983013153076171875</LatitudeDegrees>
              <LongitudeDegrees>-2.80839865095913410186767578125</LongitudeDegrees>
            </Position>
            <AltitudeMeters>921.5999755859375</AltitudeMeters>
            <DistanceMeters>50678.365404622</DistanceMeters>
          </Trackpoint>
          <Trackpoint>
            <Time>2020-01-19T09:25:19.000Z</Time>
            <Position>
              <LatitudeDegrees>38.9415038935840129852294921875</LatitudeDegrees>
              <LongitudeDegrees>-2.808599062263965606689453125</LongitudeDegrees>
            </Position>
            <AltitudeMeters>921.20001220703125</AltitudeMeters>
            <DistanceMeters>50702.530046007</DistanceMeters>
          </Trackpoint>
          <Trackpoint>
            <Time>2020-01-19T09:25:29.000Z</Time>
            <Position>
              <LatitudeDegrees>38.94162165932357311248779296875</LatitudeDegrees>
              <LongitudeDegrees>-2.80877583660185337066650390625</LongitudeDegrees>
            </Position>
            <AltitudeMeters>921</AltitudeMeters>
            <DistanceMeters>50722.679070967</DistanceMeters>
          </Trackpoint>
          <Trackpoint>
            <Time>2020-01-19T09:25:39.000Z</Time>
            <Position>
              <LatitudeDegrees>38.941804133355617523193359375</LatitudeDegrees>
              <LongitudeDegrees>-2.80893425457179546356201171875</LongitudeDegrees>
            </Position>
            <AltitudeMeters>921.4000244140625</AltitudeMeters>
            <DistanceMeters>50747.185279649</DistanceMeters>
          </Trackpoint>
          <Trackpoint>
            <Time>2020-01-19T09:25:49.000Z</Time>
            <Position>
              <LatitudeDegrees>38.94201435148715972900390625</LatitudeDegrees>
              <LongitudeDegrees>-2.80906618572771549224853515625</LongitudeDegrees>
            </Position>
            <AltitudeMeters>921.5999755859375</AltitudeMeters>
            <DistanceMeters>50773.221905752</DistanceMeters>
          </Trackpoint>
          <Trackpoint>
            <Time>2020-01-19T09:25:59.000Z</Time>
            <Position>
              <LatitudeDegrees>38.94214871339499950408935546875</LatitudeDegrees>
              <LongitudeDegrees>-2.80936709605157375335693359375</LongitudeDegrees>
            </Position>
            <AltitudeMeters>922.20001220703125</AltitudeMeters>
            <DistanceMeters>50803.258916717</DistanceMeters>
          </Trackpoint>
          <Trackpoint>
            <Time>2020-01-19T09:26:09.000Z</Time>
            <Position>
              <LatitudeDegrees>38.94237016327679157257080078125</LatitudeDegrees>
              <LongitudeDegrees>-2.80959986150264739990234375</LongitudeDegrees>
            </Position>
            <AltitudeMeters>923.5999755859375</AltitudeMeters>
            <DistanceMeters>50835.095135245</DistanceMeters>
          </Trackpoint>
          <Trackpoint>
            <Time>2020-01-19T09:26:18.000Z</Time>
            <Position>
              <LatitudeDegrees>38.9424956403672695159912109375</LatitudeDegrees>
              <LongitudeDegrees>-2.80990672297775745391845703125</LongitudeDegrees>
            </Position>
            <AltitudeMeters>923.79998779296875</AltitudeMeters>
            <DistanceMeters>50865.107032969</DistanceMeters>
          </Trackpoint>
          <Trackpoint>
            <Time>2020-01-19T09:26:29.000Z</Time>
            <Position>
              <LatitudeDegrees>38.942565880715847015380859375</LatitudeDegrees>
              <LongitudeDegrees>-2.81034593470394611358642578125</LongitudeDegrees>
            </Position>
            <AltitudeMeters>924.79998779296875</AltitudeMeters>
            <DistanceMeters>50903.924253575</DistanceMeters>
          </Trackpoint>
          <Trackpoint>
            <Time>2020-01-19T09:26:35.000Z</Time>
            <Position>
              <LatitudeDegrees>38.9426599256694316864013671875</LatitudeDegrees>
              <LongitudeDegrees>-2.8105451725423336029052734375</LongitudeDegrees>
            </Position>
            <AltitudeMeters>925.5999755859375</AltitudeMeters>
            <DistanceMeters>50924.099926697</DistanceMeters>
          </Trackpoint>
          <Trackpoint>
            <Time>2020-01-19T09:26:39.000Z</Time>
            <Position>
              <LatitudeDegrees>38.94276713021099567413330078125</LatitudeDegrees>
              <LongitudeDegrees>-2.810616753995418548583984375</LongitudeDegrees>
            </Position>
            <AltitudeMeters>926</AltitudeMeters>
            <DistanceMeters>50937.544779625</DistanceMeters>
          </Trackpoint>
          <Trackpoint>
            <Time>2020-01-19T09:26:49.000Z</Time>
            <Position>
              <LatitudeDegrees>38.94289135001599788665771484375</LatitudeDegrees>
              <LongitudeDegrees>-2.81100575812160968780517578125</LongitudeDegrees>
            </Position>
            <AltitudeMeters>927.5999755859375</AltitudeMeters>
            <DistanceMeters>50973.947825903</DistanceMeters>
          </Trackpoint>
          <Trackpoint>
            <Time>2020-01-19T09:26:59.000Z</Time>
            <Position>
              <LatitudeDegrees>38.94296712242066860198974609375</LatitudeDegrees>
              <LongitudeDegrees>-2.81140674836933612823486328125</LongitudeDegrees>
            </Position>
            <AltitudeMeters>930.20001220703125</AltitudeMeters>
            <DistanceMeters>51009.670540567</DistanceMeters>
          </Trackpoint>
          <Trackpoint>
            <Time>2020-01-19T09:27:09.000Z</Time>
            <Position>
              <LatitudeDegrees>38.94300752319395542144775390625</LatitudeDegrees>
              <LongitudeDegrees>-2.81181528232991695404052734375</LongitudeDegrees>
            </Position>
            <AltitudeMeters>931.5999755859375</AltitudeMeters>
            <DistanceMeters>51045.32113943</DistanceMeters>
          </Trackpoint>
          <Trackpoint>
            <Time>2020-01-19T09:27:19.000Z</Time>
            <Position>
              <LatitudeDegrees>38.943021185696125030517578125</LatitudeDegrees>
              <LongitudeDegrees>-2.81221727840602397918701171875</LongitudeDegrees>
            </Position>
            <AltitudeMeters>932.5999755859375</AltitudeMeters>
            <DistanceMeters>51080.154101571</DistanceMeters>
          </Trackpoint>
          <Trackpoint>
            <Time>2020-01-19T09:27:29.000Z</Time>
            <Position>
              <LatitudeDegrees>38.94303082488477230072021484375</LatitudeDegrees>
              <LongitudeDegrees>-2.8126429952681064605712890625</LongitudeDegrees>
            </Position>
            <AltitudeMeters>933.20001220703125</AltitudeMeters>
            <DistanceMeters>51117.022997232</DistanceMeters>
          </Trackpoint>
          <Trackpoint>
            <Time>2020-01-19T09:27:39.000Z</Time>
            <Position>
              <LatitudeDegrees>38.94303535111248493194580078125</LatitudeDegrees>
              <LongitudeDegrees>-2.81307692639529705047607421875</LongitudeDegrees>
            </Position>
            <AltitudeMeters>933.20001220703125</AltitudeMeters>
            <DistanceMeters>51154.590652303</DistanceMeters>
          </Trackpoint>
          <Trackpoint>
            <Time>2020-01-19T09:27:49.000Z</Time>
            <Position>
              <LatitudeDegrees>38.94304029643535614013671875</LatitudeDegrees>
              <LongitudeDegrees>-2.81352619640529155731201171875</LongitudeDegrees>
            </Position>
            <AltitudeMeters>933.20001220703125</AltitudeMeters>
            <DistanceMeters>51193.486654764</DistanceMeters>
          </Trackpoint>
          <Trackpoint>
            <Time>2020-01-19T09:27:53.000Z</Time>
            <Position>
              <LatitudeDegrees>38.9430424757301807403564453125</LatitudeDegrees>
              <LongitudeDegrees>-2.8136903978884220123291015625</LongitudeDegrees>
            </Position>
            <AltitudeMeters>932.79998779296875</AltitudeMeters>
            <DistanceMeters>51207.703870776</DistanceMeters>
          </Trackpoint>
          <Trackpoint>
            <Time>2020-01-19T09:27:56.000Z</Time>
            <Position>
              <LatitudeDegrees>38.94304507412016391754150390625</LatitudeDegrees>
              <LongitudeDegrees>-2.81378704123198986053466796875</LongitudeDegrees>
            </Position>
            <AltitudeMeters>932.5999755859375</AltitudeMeters>
            <DistanceMeters>51216.074855975</DistanceMeters>
          </Trackpoint>
          <Trackpoint>
            <Time>2020-01-19T09:27:59.000Z</Time>
            <Position>
              <LatitudeDegrees>38.94304792396724224090576171875</LatitudeDegrees>
              <LongitudeDegrees>-2.81388846226036548614501953125</LongitudeDegrees>
            </Position>
            <AltitudeMeters>932.4000244140625</AltitudeMeters>
            <DistanceMeters>51224.860074433</DistanceMeters>
          </Trackpoint>
          <Trackpoint>
            <Time>2020-01-19T09:28:01.000Z</Time>
            <Position>
              <LatitudeDegrees>38.943032920360565185546875</LatitudeDegrees>
              <LongitudeDegrees>-2.81393003650009632110595703125</LongitudeDegrees>
            </Position>
            <AltitudeMeters>932.4000244140625</AltitudeMeters>
            <DistanceMeters>51228.82736863</DistanceMeters>
          </Trackpoint>
          <Trackpoint>
            <Time>2020-01-19T09:28:04.000Z</Time>
            <Position>
              <LatitudeDegrees>38.94296276383101940155029296875</LatitudeDegrees>
              <LongitudeDegrees>-2.81392760574817657470703125</LongitudeDegrees>
            </Position>
            <AltitudeMeters>932.5999755859375</AltitudeMeters>
            <DistanceMeters>51236.638657034</DistanceMeters>
          </Trackpoint>
          <Trackpoint>
            <Time>2020-01-19T09:28:09.000Z</Time>
            <Position>
              <LatitudeDegrees>38.94284558482468128204345703125</LatitudeDegrees>
              <LongitudeDegrees>-2.8140642307698726654052734375</LongitudeDegrees>
            </Position>
            <AltitudeMeters>932.79998779296875</AltitudeMeters>
            <DistanceMeters>51254.244776257</DistanceMeters>
          </Trackpoint>
          <Trackpoint>
            <Time>2020-01-19T09:28:17.000Z</Time>
            <Position>
              <LatitudeDegrees>38.942673504352569580078125</LatitudeDegrees>
              <LongitudeDegrees>-2.81411795876920223236083984375</LongitudeDegrees>
            </Position>
            <AltitudeMeters>932.79998779296875</AltitudeMeters>
            <DistanceMeters>51273.954517215</DistanceMeters>
          </Trackpoint>
          <Trackpoint>
            <Time>2020-01-19T09:28:19.000Z</Time>
            <Position>
              <LatitudeDegrees>38.9426485262811183929443359375</LatitudeDegrees>
              <LongitudeDegrees>-2.81407319940626621246337890625</LongitudeDegrees>
            </Position>
            <AltitudeMeters>932.5999755859375</AltitudeMeters>
            <DistanceMeters>51278.722927063</DistanceMeters>
          </Trackpoint>
          <Trackpoint>
            <Time>2020-01-19T09:28:24.000Z</Time>
            <Position>
              <LatitudeDegrees>38.94262447021901607513427734375</LatitudeDegrees>
              <LongitudeDegrees>-2.8139784000813961029052734375</LongitudeDegrees>
            </Position>
            <AltitudeMeters>932.79998779296875</AltitudeMeters>
            <DistanceMeters>51287.355203172</DistanceMeters>
          </Trackpoint>
          <Trackpoint>
            <Time>2020-01-19T09:28:28.000Z</Time>
            <Position>
              <LatitudeDegrees>38.94264735281467437744140625</LatitudeDegrees>
              <LongitudeDegrees>-2.81399172730743885040283203125</LongitudeDegrees>
            </Position>
            <AltitudeMeters>932.79998779296875</AltitudeMeters>
            <DistanceMeters>51290.153251827</DistanceMeters>
          </Trackpoint>
          <Trackpoint>
            <Time>2020-01-19T09:28:29.000Z</Time>
            <Position>
              <LatitudeDegrees>38.9426528848707675933837890625</LatitudeDegrees>
              <LongitudeDegrees>-2.81400882638990879058837890625</LongitudeDegrees>
            </Position>
            <AltitudeMeters>932.79998779296875</AltitudeMeters>
            <DistanceMeters>51291.757487404</DistanceMeters>
          </Trackpoint>
          <Trackpoint>
            <Time>2020-01-19T09:28:30.000Z</Time>
            <Position>
              <LatitudeDegrees>38.94265129230916500091552734375</LatitudeDegrees>
              <LongitudeDegrees>-2.8140276856720447540283203125</LongitudeDegrees>
            </Position>
            <AltitudeMeters>932.79998779296875</AltitudeMeters>
            <DistanceMeters>51293.400652903</DistanceMeters>
          </Trackpoint>
          <Trackpoint>
            <Time>2020-01-19T09:28:36.000Z</Time>
            <Position>
              <LatitudeDegrees>38.942646346986293792724609375</LatitudeDegrees>
              <LongitudeDegrees>-2.8141748718917369842529296875</LongitudeDegrees>
            </Position>
            <AltitudeMeters>932.4000244140625</AltitudeMeters>
            <DistanceMeters>51306.154781531</DistanceMeters>
          </Trackpoint>
          <Trackpoint>
            <Time>2020-01-19T09:28:39.000Z</Time>
            <Position>
              <LatitudeDegrees>38.94260033033788204193115234375</LatitudeDegrees>
              <LongitudeDegrees>-2.81421569176018238067626953125</LongitudeDegrees>
            </Position>
            <AltitudeMeters>932</AltitudeMeters>
            <DistanceMeters>51312.37739897</DistanceMeters>
          </Trackpoint>
          <Trackpoint>
            <Time>2020-01-19T09:28:48.000Z</Time>
            <Position>
              <LatitudeDegrees>38.94232406280934810638427734375</LatitudeDegrees>
              <LongitudeDegrees>-2.814175374805927276611328125</LongitudeDegrees>
            </Position>
            <AltitudeMeters>930.20001220703125</AltitudeMeters>
            <DistanceMeters>51343.324027015</DistanceMeters>
          </Trackpoint>
          <Trackpoint>
            <Time>2020-01-19T09:28:49.000Z</Time>
            <Position>
              <LatitudeDegrees>38.9422813989222049713134765625</LatitudeDegrees>
              <LongitudeDegrees>-2.814181409776210784912109375</LongitudeDegrees>
            </Position>
            <AltitudeMeters>929.79998779296875</AltitudeMeters>
            <DistanceMeters>51348.100005773</DistanceMeters>
          </Trackpoint>
          <Trackpoint>
            <Time>2020-01-19T09:28:59.000Z</Time>
            <Position>
              <LatitudeDegrees>38.9417352341115474700927734375</LatitudeDegrees>
              <LongitudeDegrees>-2.8144347108900547027587890625</LongitudeDegrees>
            </Position>
            <AltitudeMeters>925.4000244140625</AltitudeMeters>
            <DistanceMeters>51412.723202175</DistanceMeters>
          </Trackpoint>
          <Trackpoint>
            <Time>2020-01-19T09:29:01.000Z</Time>
            <Position>
              <LatitudeDegrees>38.94162249751389026641845703125</LatitudeDegrees>
              <LongitudeDegrees>-2.81452096067368984222412109375</LongitudeDegrees>
            </Position>
            <AltitudeMeters>924.5999755859375</AltitudeMeters>
            <DistanceMeters>51427.324575564</DistanceMeters>
          </Trackpoint>
          <Trackpoint>
            <Time>2020-01-19T09:29:05.000Z</Time>
            <Position>
              <LatitudeDegrees>38.94142233766615390777587890625</LatitudeDegrees>
              <LongitudeDegrees>-2.81473788432776927947998046875</LongitudeDegrees>
            </Position>
            <AltitudeMeters>922.79998779296875</AltitudeMeters>
            <DistanceMeters>51456.461693935</DistanceMeters>
          </Trackpoint>
          <Trackpoint>
            <Time>2020-01-19T09:29:07.000Z</Time>
            <Position>
              <LatitudeDegrees>38.94132326357066631317138671875</LatitudeDegrees>
              <LongitudeDegrees>-2.814794294536113739013671875</LongitudeDegrees>
            </Position>
            <AltitudeMeters>922.20001220703125</AltitudeMeters>
            <DistanceMeters>51468.521853191</DistanceMeters>
          </Trackpoint>
          <Trackpoint>
            <Time>2020-01-19T09:29:09.000Z</Time>
            <Position>
              <LatitudeDegrees>38.941206671297550201416015625</LatitudeDegrees>
              <LongitudeDegrees>-2.8147921152412891387939453125</LongitudeDegrees>
            </Position>
            <AltitudeMeters>921.79998779296875</AltitudeMeters>
            <DistanceMeters>51481.499872525</DistanceMeters>
          </Trackpoint>
          <Trackpoint>
            <Time>2020-01-19T09:29:10.000Z</Time>
            <Position>
              <LatitudeDegrees>38.94114975817501544952392578125</LatitudeDegrees>
              <LongitudeDegrees>-2.81479957513511180877685546875</LongitudeDegrees>
            </Position>
            <AltitudeMeters>921.5999755859375</AltitudeMeters>
            <DistanceMeters>51487.867371503</DistanceMeters>
          </Trackpoint>
          <Trackpoint>
            <Time>2020-01-19T09:29:12.000Z</Time>
            <Position>
              <LatitudeDegrees>38.94105613231658935546875</LatitudeDegrees>
              <LongitudeDegrees>-2.814849279820919036865234375</LongitudeDegrees>
            </Position>
            <AltitudeMeters>921.20001220703125</AltitudeMeters>
            <DistanceMeters>51499.14156132</DistanceMeters>
          </Trackpoint>
          <Trackpoint>
            <Time>2020-01-19T09:29:19.000Z</Time>
            <Position>
              <LatitudeDegrees>38.94084163941442966461181640625</LatitudeDegrees>
              <LongitudeDegrees>-2.8149154968559741973876953125</LongitudeDegrees>
            </Position>
            <AltitudeMeters>919.4000244140625</AltitudeMeters>
            <DistanceMeters>51523.693603048</DistanceMeters>
          </Trackpoint>
          <Trackpoint>
            <Time>2020-01-19T09:29:27.000Z</Time>
            <Position>
              <LatitudeDegrees>38.94054290838539600372314453125</LatitudeDegrees>
              <LongitudeDegrees>-2.81490921042859554290771484375</LongitudeDegrees>
            </Position>
            <AltitudeMeters>917.5999755859375</AltitudeMeters>
            <DistanceMeters>51556.947522536</DistanceMeters>
          </Trackpoint>
          <Trackpoint>
            <Time>2020-01-19T09:29:29.000Z</Time>
            <Position>
              <LatitudeDegrees>38.9404558204114437103271484375</LatitudeDegrees>
              <LongitudeDegrees>-2.814876101911067962646484375</LongitudeDegrees>
            </Position>
            <AltitudeMeters>917.4000244140625</AltitudeMeters>
            <DistanceMeters>51567.056149794</DistanceMeters>
          </Trackpoint>
          <Trackpoint>
            <Time>2020-01-19T09:29:31.000Z</Time>
            <Position>
              <LatitudeDegrees>38.94036303274333477020263671875</LatitudeDegrees>
              <LongitudeDegrees>-2.81480058096349239349365234375</LongitudeDegrees>
            </Position>
            <AltitudeMeters>917.4000244140625</AltitudeMeters>
            <DistanceMeters>51579.278816634</DistanceMeters>
          </Trackpoint>
          <Trackpoint>
            <Time>2020-01-19T09:29:38.000Z</Time>
            <Position>
              <LatitudeDegrees>38.94005089066922664642333984375</LatitudeDegrees>
              <LongitudeDegrees>-2.81474031507968902587890625</LongitudeDegrees>
            </Position>
            <AltitudeMeters>915.4000244140625</AltitudeMeters>
            <DistanceMeters>51614.410438407</DistanceMeters>
          </Trackpoint>
          <Trackpoint>
            <Time>2020-01-19T09:29:39.000Z</Time>
            <Position>
              <LatitudeDegrees>38.94000135362148284912109375</LatitudeDegrees>
              <LongitudeDegrees>-2.814737968146800994873046875</LongitudeDegrees>
            </Position>
            <AltitudeMeters>915</AltitudeMeters>
            <DistanceMeters>51619.928537515</DistanceMeters>
          </Trackpoint>
          <Trackpoint>
            <Time>2020-01-19T09:29:44.000Z</Time>
            <Position>
              <LatitudeDegrees>38.93983128480613231658935546875</LatitudeDegrees>
              <LongitudeDegrees>-2.814689688384532928466796875</LongitudeDegrees>
            </Position>
            <AltitudeMeters>913.5999755859375</AltitudeMeters>
            <DistanceMeters>51639.313521424</DistanceMeters>
          </Trackpoint>
          <Trackpoint>
            <Time>2020-01-19T09:29:45.000Z</Time>
            <Position>
              <LatitudeDegrees>38.93980463035404682159423828125</LatitudeDegrees>
              <LongitudeDegrees>-2.8146982379257678985595703125</LongitudeDegrees>
            </Position>
            <AltitudeMeters>913.4000244140625</AltitudeMeters>
            <DistanceMeters>51642.369188134</DistanceMeters>
          </Trackpoint>
          <Trackpoint>
            <Time>2020-01-19T09:29:49.000Z</Time>
            <Position>
              <LatitudeDegrees>38.93966012634336948394775390625</LatitudeDegrees>
              <LongitudeDegrees>-2.81486227177083492279052734375</LongitudeDegrees>
            </Position>
            <AltitudeMeters>910.79998779296875</AltitudeMeters>
            <DistanceMeters>51663.824612552</DistanceMeters>
          </Trackpoint>
          <Trackpoint>
            <Time>2020-01-19T09:29:53.000Z</Time>
            <Position>
              <LatitudeDegrees>38.9394345693290233612060546875</LatitudeDegrees>
              <LongitudeDegrees>-2.81492111273109912872314453125</LongitudeDegrees>
            </Position>
            <AltitudeMeters>908.79998779296875</AltitudeMeters>
            <DistanceMeters>51689.441142861</DistanceMeters>
          </Trackpoint>
          <Trackpoint>
            <Time>2020-01-19T09:29:55.000Z</Time>
            <Position>
              <LatitudeDegrees>38.939324431121349334716796875</LatitudeDegrees>
              <LongitudeDegrees>-2.81495329923927783966064453125</LongitudeDegrees>
            </Position>
            <AltitudeMeters>908.4000244140625</AltitudeMeters>
            <DistanceMeters>51702.012713882</DistanceMeters>
          </Trackpoint>
          <Trackpoint>
            <Time>2020-01-19T09:29:57.000Z</Time>
            <Position>
              <LatitudeDegrees>38.9392270334064960479736328125</LatitudeDegrees>
              <LongitudeDegrees>-2.81497593037784099578857421875</LongitudeDegrees>
            </Position>
            <AltitudeMeters>908.20001220703125</AltitudeMeters>
            <DistanceMeters>51713.028847384</DistanceMeters>
          </Trackpoint>
          <Trackpoint>
            <Time>2020-01-19T09:29:59.000Z</Time>
            <Position>
              <LatitudeDegrees>38.93914447166025638580322265625</LatitudeDegrees>
              <LongitudeDegrees>-2.81506075523793697357177734375</LongitudeDegrees>
            </Position>
            <AltitudeMeters>907.20001220703125</AltitudeMeters>
            <DistanceMeters>51724.792218135</DistanceMeters>
          </Trackpoint>
          <Trackpoint>
            <Time>2020-01-19T09:30:09.000Z</Time>
            <Position>
              <LatitudeDegrees>38.93888329155743122100830078125</LatitudeDegrees>
              <LongitudeDegrees>-2.81528119929134845733642578125</LongitudeDegrees>
            </Position>
            <AltitudeMeters>904.79998779296875</AltitudeMeters>
            <DistanceMeters>51759.566672652</DistanceMeters>
          </Trackpoint>
          <Trackpoint>
            <Time>2020-01-19T09:30:13.000Z</Time>
            <Position>
              <LatitudeDegrees>38.93878254108130931854248046875</LatitudeDegrees>
              <LongitudeDegrees>-2.81541815958917140960693359375</LongitudeDegrees>
            </Position>
            <AltitudeMeters>903.4000244140625</AltitudeMeters>
            <DistanceMeters>51775.886386946</DistanceMeters>
          </Trackpoint>
          <Trackpoint>
            <Time>2020-01-19T09:30:16.000Z</Time>
            <Position>
              <LatitudeDegrees>38.9386466704308986663818359375</LatitudeDegrees>
              <LongitudeDegrees>-2.8155134618282318115234375</LongitudeDegrees>
            </Position>
            <AltitudeMeters>902.4000244140625</AltitudeMeters>
            <DistanceMeters>51793.113239017</DistanceMeters>
          </Trackpoint>
          <Trackpoint>
            <Time>2020-01-19T09:30:18.000Z</Time>
            <Position>
              <LatitudeDegrees>38.93850057385861873626708984375</LatitudeDegrees>
              <LongitudeDegrees>-2.8156024776399135589599609375</LongitudeDegrees>
            </Position>
            <AltitudeMeters>901.20001220703125</AltitudeMeters>
            <DistanceMeters>51811.107445058</DistanceMeters>
          </Trackpoint>
          <Trackpoint>
            <Time>2020-01-19T09:30:21.000Z</Time>
            <Position>
              <LatitudeDegrees>38.9384096302092075347900390625</LatitudeDegrees>
              <LongitudeDegrees>-2.81567146070301532745361328125</LongitudeDegrees>
            </Position>
            <AltitudeMeters>900</AltitudeMeters>
            <DistanceMeters>51822.860063885</DistanceMeters>
          </Trackpoint>
          <Trackpoint>
            <Time>2020-01-19T09:30:23.000Z</Time>
            <Position>
              <LatitudeDegrees>38.93833033740520477294921875</LatitudeDegrees>
              <LongitudeDegrees>-2.81575745902955532073974609375</LongitudeDegrees>
            </Position>
            <AltitudeMeters>898.5999755859375</AltitudeMeters>
            <DistanceMeters>51834.406494009</DistanceMeters>
          </Trackpoint>
          <Trackpoint>
            <Time>2020-01-19T09:30:26.000Z</Time>
            <Position>
              <LatitudeDegrees>38.93819429911673069000244140625</LatitudeDegrees>
              <LongitudeDegrees>-2.81581680290400981903076171875</LongitudeDegrees>
            </Position>
            <AltitudeMeters>897.4000244140625</AltitudeMeters>
            <DistanceMeters>51850.395850603</DistanceMeters>
          </Trackpoint>
          <Trackpoint>
            <Time>2020-01-19T09:30:29.000Z</Time>
            <Position>
              <LatitudeDegrees>38.93809673376381397247314453125</LatitudeDegrees>
              <LongitudeDegrees>-2.8158753924071788787841796875</LongitudeDegrees>
            </Position>
            <AltitudeMeters>896.4000244140625</AltitudeMeters>
            <DistanceMeters>51862.381277423</DistanceMeters>
          </Trackpoint>
          <Trackpoint>
            <Time>2020-01-19T09:30:38.000Z</Time>
            <Position>
              <LatitudeDegrees>38.93786204047501087188720703125</LatitudeDegrees>
              <LongitudeDegrees>-2.816069684922695159912109375</LongitudeDegrees>
            </Position>
            <AltitudeMeters>895.5999755859375</AltitudeMeters>
            <DistanceMeters>51893.450217726</DistanceMeters>
          </Trackpoint>
          <Trackpoint>
            <Time>2020-01-19T09:30:39.000Z</Time>
            <Position>
              <LatitudeDegrees>38.93783773295581340789794921875</LatitudeDegrees>
              <LongitudeDegrees>-2.81609089113771915435791015625</LongitudeDegrees>
            </Position>
            <AltitudeMeters>895.5999755859375</AltitudeMeters>
            <DistanceMeters>51896.717257726</DistanceMeters>
          </Trackpoint>
          <Trackpoint>
            <Time>2020-01-19T09:30:43.000Z</Time>
            <Position>
              <LatitudeDegrees>38.93777905963361263275146484375</LatitudeDegrees>
              <LongitudeDegrees>-2.81614336185157299041748046875</LongitudeDegrees>
            </Position>
            <AltitudeMeters>895.4000244140625</AltitudeMeters>
            <DistanceMeters>51904.672304911</DistanceMeters>
          </Trackpoint>
          <Trackpoint>
            <Time>2020-01-19T09:30:46.000Z</Time>
            <Position>
              <LatitudeDegrees>38.93771971575915813446044921875</LatitudeDegrees>
              <LongitudeDegrees>-2.81618460081517696380615234375</LongitudeDegrees>
            </Position>
            <AltitudeMeters>895.20001220703125</AltitudeMeters>
            <DistanceMeters>51912.18061812</DistanceMeters>
          </Trackpoint>
          <Trackpoint>
            <Time>2020-01-19T09:30:49.000Z</Time>
            <Position>
              <LatitudeDegrees>38.937621228396892547607421875</LatitudeDegrees>
              <LongitudeDegrees>-2.816208489239215850830078125</LongitudeDegrees>
            </Position>
            <AltitudeMeters>894.4000244140625</AltitudeMeters>
            <DistanceMeters>51923.336042068</DistanceMeters>
          </Trackpoint>
          <Trackpoint>
            <Time>2020-01-19T09:30:59.000Z</Time>
            <Position>
              <LatitudeDegrees>38.93728352151811122894287109375</LatitudeDegrees>
              <LongitudeDegrees>-2.81628870405256748199462890625</LongitudeDegrees>
            </Position>
            <AltitudeMeters>891.79998779296875</AltitudeMeters>
            <DistanceMeters>51961.559703699</DistanceMeters>
          </Trackpoint>
          <Trackpoint>
            <Time>2020-01-19T09:31:02.000Z</Time>
            <Position>
              <LatitudeDegrees>38.93726038746535778045654296875</LatitudeDegrees>
              <LongitudeDegrees>-2.8162780590355396270751953125</LongitudeDegrees>
            </Position>
            <AltitudeMeters>891.79998779296875</AltitudeMeters>
            <DistanceMeters>51964.294096373</DistanceMeters>
          </Trackpoint>
          <Trackpoint>
            <Time>2020-01-19T09:31:11.000Z</Time>
            <Position>
              <LatitudeDegrees>38.937161229550838470458984375</LatitudeDegrees>
              <LongitudeDegrees>-2.8163048811256885528564453125</LongitudeDegrees>
            </Position>
            <AltitudeMeters>891.20001220703125</AltitudeMeters>
            <DistanceMeters>51975.572290235</DistanceMeters>
          </Trackpoint>
          <Trackpoint>
            <Time>2020-01-19T09:31:18.000Z</Time>
            <Position>
              <LatitudeDegrees>38.93691874109208583831787109375</LatitudeDegrees>
              <LongitudeDegrees>-2.8164507262408733367919921875</LongitudeDegrees>
            </Position>
            <AltitudeMeters>889.79998779296875</AltitudeMeters>
            <DistanceMeters>52005.369189002</DistanceMeters>
          </Trackpoint>
          <Trackpoint>
            <Time>2020-01-19T09:31:19.000Z</Time>
            <Position>
              <LatitudeDegrees>38.9368777535855770111083984375</LatitudeDegrees>
              <LongitudeDegrees>-2.8164567612111568450927734375</LongitudeDegrees>
            </Position>
            <AltitudeMeters>889.20001220703125</AltitudeMeters>
            <DistanceMeters>52009.961054472</DistanceMeters>
          </Trackpoint>
          <Trackpoint>
            <Time>2020-01-19T09:31:23.000Z</Time>
            <Position>
              <LatitudeDegrees>38.9367453195154666900634765625</LatitudeDegrees>
              <LongitudeDegrees>-2.816468663513660430908203125</LongitudeDegrees>
            </Position>
            <AltitudeMeters>887.5999755859375</AltitudeMeters>
            <DistanceMeters>52024.737021049</DistanceMeters>
          </Trackpoint>
          <Trackpoint>
            <Time>2020-01-19T09:31:29.000Z</Time>
            <Position>
              <LatitudeDegrees>38.9366517774760723114013671875</LatitudeDegrees>
              <LongitudeDegrees>-2.8164577670395374298095703125</LongitudeDegrees>
            </Position>
            <AltitudeMeters>886.5999755859375</AltitudeMeters>
            <DistanceMeters>52035.191687245</DistanceMeters>
          </Trackpoint>
          <Trackpoint>
            <Time>2020-01-19T09:31:30.000Z</Time>
            <Position>
              <LatitudeDegrees>38.93664079718291759490966796875</LatitudeDegrees>
              <LongitudeDegrees>-2.81645868904888629913330078125</LongitudeDegrees>
            </Position>
            <AltitudeMeters>886.4000244140625</AltitudeMeters>
            <DistanceMeters>52036.416020815</DistanceMeters>
          </Trackpoint>
          <Trackpoint>
            <Time>2020-01-19T09:31:35.000Z</Time>
            <Position>
              <LatitudeDegrees>38.93655337393283843994140625</LatitudeDegrees>
              <LongitudeDegrees>-2.81647679395973682403564453125</LongitudeDegrees>
            </Position>
            <AltitudeMeters>885.4000244140625</AltitudeMeters>
            <DistanceMeters>52046.271349436</DistanceMeters>
          </Trackpoint>
          <Trackpoint>
            <Time>2020-01-19T09:31:39.000Z</Time>
            <Position>
              <LatitudeDegrees>38.93646041862666606903076171875</LatitudeDegrees>
              <LongitudeDegrees>-2.8164195455610752105712890625</LongitudeDegrees>
            </Position>
            <AltitudeMeters>884.4000244140625</AltitudeMeters>
            <DistanceMeters>52057.743242658</DistanceMeters>
          </Trackpoint>
          <Trackpoint>
            <Time>2020-01-19T09:31:43.000Z</Time>
            <Position>
              <LatitudeDegrees>38.93638581968843936920166015625</LatitudeDegrees>
              <LongitudeDegrees>-2.8163437731564044952392578125</LongitudeDegrees>
            </Position>
            <AltitudeMeters>882.79998779296875</AltitudeMeters>
            <DistanceMeters>52068.324969733</DistanceMeters>
          </Trackpoint>
          <Trackpoint>
            <Time>2020-01-19T09:31:49.000Z</Time>
            <Position>
              <LatitudeDegrees>38.93620443530380725860595703125</LatitudeDegrees>
              <LongitudeDegrees>-2.816258110105991363525390625</LongitudeDegrees>
            </Position>
            <AltitudeMeters>877.4000244140625</AltitudeMeters>
            <DistanceMeters>52089.832519476</DistanceMeters>
          </Trackpoint>
          <Trackpoint>
            <Time>2020-01-19T09:31:56.000Z</Time>
            <Position>
              <LatitudeDegrees>38.936025984585285186767578125</LatitudeDegrees>
              <LongitudeDegrees>-2.816188037395477294921875</LongitudeDegrees>
            </Position>
            <AltitudeMeters>872</AltitudeMeters>
            <DistanceMeters>52110.600368213</DistanceMeters>
          </Trackpoint>
          <Trackpoint>
            <Time>2020-01-19T09:31:59.000Z</Time>
            <Position>
              <LatitudeDegrees>38.93599522300064563751220703125</LatitudeDegrees>
              <LongitudeDegrees>-2.8161134384572505950927734375</LongitudeDegrees>
            </Position>
            <AltitudeMeters>870.4000244140625</AltitudeMeters>
            <DistanceMeters>52117.910634446</DistanceMeters>
          </Trackpoint>
          <Trackpoint>
            <Time>2020-01-19T09:32:00.000Z</Time>
            <Position>
              <LatitudeDegrees>38.93598097376525402069091796875</LatitudeDegrees>
              <LongitudeDegrees>-2.81609323807060718536376953125</LongitudeDegrees>
            </Position>
            <AltitudeMeters>869.79998779296875</AltitudeMeters>
            <DistanceMeters>52120.272961105</DistanceMeters>
          </Trackpoint>
          <Trackpoint>
            <Time>2020-01-19T09:32:07.000Z</Time>
            <Position>
              <LatitudeDegrees>38.9358689077198505401611328125</LatitudeDegrees>
              <LongitudeDegrees>-2.81604546122252941131591796875</LongitudeDegrees>
            </Position>
            <AltitudeMeters>866.5999755859375</AltitudeMeters>
            <DistanceMeters>52133.414162797</DistanceMeters>
          </Trackpoint>
          <Trackpoint>
            <Time>2020-01-19T09:35:49.000Z</Time>
            <Position>
              <LatitudeDegrees>38.9357951469719409942626953125</LatitudeDegrees>
              <LongitudeDegrees>-2.815977148711681365966796875</LongitudeDegrees>
            </Position>
            <AltitudeMeters>864.79998779296875</AltitudeMeters>
            <DistanceMeters>52143.532611627</DistanceMeters>
          </Trackpoint>
          <Trackpoint>
            <Time>2020-01-19T09:35:51.000Z</Time>
            <Position>
              <LatitudeDegrees>38.93573806621134281158447265625</LatitudeDegrees>
              <LongitudeDegrees>-2.81593867577612400054931640625</LongitudeDegrees>
            </Position>
            <AltitudeMeters>863.4000244140625</AltitudeMeters>
            <DistanceMeters>52150.706341874</DistanceMeters>
          </Trackpoint>
          <Trackpoint>
            <Time>2020-01-19T09:35:53.000Z</Time>
            <Position>
              <LatitudeDegrees>38.93568844534456729888916015625</LatitudeDegrees>
              <LongitudeDegrees>-2.81587983481585979461669921875</LongitudeDegrees>
            </Position>
            <AltitudeMeters>862.20001220703125</AltitudeMeters>
            <DistanceMeters>52158.22006518</DistanceMeters>
          </Trackpoint>
          <Trackpoint>
            <Time>2020-01-19T09:35:57.000Z</Time>
            <Position>
              <LatitudeDegrees>38.93556355498731136322021484375</LatitudeDegrees>
              <LongitudeDegrees>-2.81581110320985317230224609375</LongitudeDegrees>
            </Position>
            <AltitudeMeters>860.4000244140625</AltitudeMeters>
            <DistanceMeters>52173.340663895</DistanceMeters>
          </Trackpoint>
          <Trackpoint>
            <Time>2020-01-19T09:35:59.000Z</Time>
            <Position>
              <LatitudeDegrees>38.93550731241703033447265625</LatitudeDegrees>
              <LongitudeDegrees>-2.8157831914722919464111328125</LongitudeDegrees>
            </Position>
            <AltitudeMeters>859.5999755859375</AltitudeMeters>
            <DistanceMeters>52180.050653548</DistanceMeters>
          </Trackpoint>
          <Trackpoint>
            <Time>2020-01-19T09:36:01.000Z</Time>
            <Position>
              <LatitudeDegrees>38.93543765880167484283447265625</LatitudeDegrees>
              <LongitudeDegrees>-2.81574212014675140380859375</LongitudeDegrees>
            </Position>
            <AltitudeMeters>858.5999755859375</AltitudeMeters>
            <DistanceMeters>52188.579797458</DistanceMeters>
          </Trackpoint>
          <Trackpoint>
            <Time>2020-01-19T09:36:03.000Z</Time>
            <Position>
              <LatitudeDegrees>38.9353579469025135040283203125</LatitudeDegrees>
              <LongitudeDegrees>-2.8157092630863189697265625</LongitudeDegrees>
            </Position>
            <AltitudeMeters>857.20001220703125</AltitudeMeters>
            <DistanceMeters>52197.8962933</DistanceMeters>
          </Trackpoint>
          <Trackpoint>
            <Time>2020-01-19T09:36:05.000Z</Time>
            <Position>
              <LatitudeDegrees>38.93526180647313594818115234375</LatitudeDegrees>
              <LongitudeDegrees>-2.81570901162922382354736328125</LongitudeDegrees>
            </Position>
            <AltitudeMeters>855</AltitudeMeters>
            <DistanceMeters>52208.596824563</DistanceMeters>
          </Trackpoint>
          <Trackpoint>
            <Time>2020-01-19T09:36:07.000Z</Time>
            <Position>
              <LatitudeDegrees>38.93515703268349170684814453125</LatitudeDegrees>
              <LongitudeDegrees>-2.8157396055757999420166015625</LongitudeDegrees>
            </Position>
            <AltitudeMeters>853.79998779296875</AltitudeMeters>
            <DistanceMeters>52220.555475016</DistanceMeters>
          </Trackpoint>
          <Trackpoint>
            <Time>2020-01-19T09:36:09.000Z</Time>
            <Position>
              <LatitudeDegrees>38.93504873849451541900634765625</LatitudeDegrees>
              <LongitudeDegrees>-2.81581093557178974151611328125</LongitudeDegrees>
            </Position>
            <AltitudeMeters>852.79998779296875</AltitudeMeters>
            <DistanceMeters>52234.098698883</DistanceMeters>
          </Trackpoint>
          <Trackpoint>
            <Time>2020-01-19T09:36:12.000Z</Time>
            <Position>
              <LatitudeDegrees>38.934873640537261962890625</LatitudeDegrees>
              <LongitudeDegrees>-2.81593834049999713897705078125</LongitudeDegrees>
            </Position>
            <AltitudeMeters>850.79998779296875</AltitudeMeters>
            <DistanceMeters>52256.492767861</DistanceMeters>
          </Trackpoint>
          <Trackpoint>
            <Time>2020-01-19T09:36:14.000Z</Time>
            <Position>
              <LatitudeDegrees>38.934776745736598968505859375</LatitudeDegrees>
              <LongitudeDegrees>-2.81596700660884380340576171875</LongitudeDegrees>
            </Position>
            <AltitudeMeters>850</AltitudeMeters>
            <DistanceMeters>52267.559606923</DistanceMeters>
          </Trackpoint>
          <Trackpoint>
            <Time>2020-01-19T09:36:18.000Z</Time>
            <Position>
              <LatitudeDegrees>38.93464204855263233184814453125</LatitudeDegrees>
              <LongitudeDegrees>-2.8159109316766262054443359375</LongitudeDegrees>
            </Position>
            <AltitudeMeters>850</AltitudeMeters>
            <DistanceMeters>52283.318004754</DistanceMeters>
          </Trackpoint>
          <Trackpoint>
            <Time>2020-01-19T09:36:29.000Z</Time>
            <Position>
              <LatitudeDegrees>38.93449201248586177825927734375</LatitudeDegrees>
              <LongitudeDegrees>-2.8157345764338970184326171875</LongitudeDegrees>
            </Position>
            <AltitudeMeters>850.5999755859375</AltitudeMeters>
            <DistanceMeters>52305.945140547</DistanceMeters>
          </Trackpoint>
          <Trackpoint>
            <Time>2020-01-19T09:36:31.000Z</Time>
            <Position>
              <LatitudeDegrees>38.93445898778736591339111328125</LatitudeDegrees>
              <LongitudeDegrees>-2.81572896055877208709716796875</LongitudeDegrees>
            </Position>
            <AltitudeMeters>850.5999755859375</AltitudeMeters>
            <DistanceMeters>52309.652400499</DistanceMeters>
          </Trackpoint>
          <Trackpoint>
            <Time>2020-01-19T09:36:33.000Z</Time>
            <Position>
              <LatitudeDegrees>38.9344356022775173187255859375</LatitudeDegrees>
              <LongitudeDegrees>-2.8157114423811435699462890625</LongitudeDegrees>
            </Position>
            <AltitudeMeters>850.5999755859375</AltitudeMeters>
            <DistanceMeters>52312.666410602</DistanceMeters>
          </Trackpoint>
          <Trackpoint>
            <Time>2020-01-19T09:36:35.000Z</Time>
            <Position>
              <LatitudeDegrees>38.93442193977534770965576171875</LatitudeDegrees>
              <LongitudeDegrees>-2.81568906269967555999755859375</LongitudeDegrees>
            </Position>
            <AltitudeMeters>850.79998779296875</AltitudeMeters>
            <DistanceMeters>52315.129784583</DistanceMeters>
          </Trackpoint>
          <Trackpoint>
            <Time>2020-01-19T09:36:37.000Z</Time>
            <Position>
              <LatitudeDegrees>38.9344121329486370086669921875</LatitudeDegrees>
              <LongitudeDegrees>-2.8156584687530994415283203125</LongitudeDegrees>
            </Position>
            <AltitudeMeters>851</AltitudeMeters>
            <DistanceMeters>52317.993228211</DistanceMeters>
          </Trackpoint>
          <Trackpoint>
            <Time>2020-01-19T09:36:38.000Z</Time>
            <Position>
              <LatitudeDegrees>38.93441498279571533203125</LatitudeDegrees>
              <LongitudeDegrees>-2.81563944183290004730224609375</LongitudeDegrees>
            </Position>
            <AltitudeMeters>851.20001220703125</AltitudeMeters>
            <DistanceMeters>52319.671734646</DistanceMeters>
          </Trackpoint>
          <Trackpoint>
            <Time>2020-01-19T09:36:39.000Z</Time>
            <Position>
              <LatitudeDegrees>38.93442277796566486358642578125</LatitudeDegrees>
              <LongitudeDegrees>-2.8156185708940029144287109375</LongitudeDegrees>
            </Position>
            <AltitudeMeters>851.4000244140625</AltitudeMeters>
            <DistanceMeters>52321.678576467</DistanceMeters>
          </Trackpoint>
          <Trackpoint>
            <Time>2020-01-19T09:36:44.000Z</Time>
            <Position>
              <LatitudeDegrees>38.93447759561240673065185546875</LatitudeDegrees>
              <LongitudeDegrees>-2.81553684733808040618896484375</LongitudeDegrees>
            </Position>
            <AltitudeMeters>852.20001220703125</AltitudeMeters>
            <DistanceMeters>52331.021205588</DistanceMeters>
          </Trackpoint>
          <Trackpoint>
            <Time>2020-01-19T09:36:49.000Z</Time>
            <Position>
              <LatitudeDegrees>38.934542723000049591064453125</LatitudeDegrees>
              <LongitudeDegrees>-2.815460823476314544677734375</LongitudeDegrees>
            </Position>
            <AltitudeMeters>853.20001220703125</AltitudeMeters>
            <DistanceMeters>52340.812646831</DistanceMeters>
          </Trackpoint>
          <Trackpoint>
            <Time>2020-01-19T09:36:58.000Z</Time>
            <Position>
              <LatitudeDegrees>38.93458957783877849578857421875</LatitudeDegrees>
              <LongitudeDegrees>-2.81531237997114658355712890625</LongitudeDegrees>
            </Position>
            <AltitudeMeters>854.5999755859375</AltitudeMeters>
            <DistanceMeters>52354.682315842</DistanceMeters>
          </Trackpoint>
          <Trackpoint>
            <Time>2020-01-19T09:36:59.000Z</Time>
            <Position>
              <LatitudeDegrees>38.9345988817512989044189453125</LatitudeDegrees>
              <LongitudeDegrees>-2.81529762782156467437744140625</LongitudeDegrees>
            </Position>
            <AltitudeMeters>854.79998779296875</AltitudeMeters>
            <DistanceMeters>52356.328226816</DistanceMeters>
          </Trackpoint>
          <Trackpoint>
            <Time>2020-01-19T09:37:09.000Z</Time>
            <Position>
              <LatitudeDegrees>38.93466652370989322662353515625</LatitudeDegrees>
              <LongitudeDegrees>-2.8151696361601352691650390625</LongitudeDegrees>
            </Position>
            <AltitudeMeters>856.20001220703125</AltitudeMeters>
            <DistanceMeters>52369.725308565</DistanceMeters>
          </Trackpoint>
          <Trackpoint>
            <Time>2020-01-19T09:37:19.000Z</Time>
            <Position>
              <LatitudeDegrees>38.9347279630601406097412109375</LatitudeDegrees>
              <LongitudeDegrees>-2.8150628507137298583984375</LongitudeDegrees>
            </Position>
            <AltitudeMeters>857.4000244140625</AltitudeMeters>
            <DistanceMeters>52381.224718961</DistanceMeters>
          </Trackpoint>
          <Trackpoint>
            <Time>2020-01-19T09:37:29.000Z</Time>
            <Position>
              <LatitudeDegrees>38.93477431498467922210693359375</LatitudeDegrees>
              <LongitudeDegrees>-2.81493267975747585296630859375</LongitudeDegrees>
            </Position>
            <AltitudeMeters>859.4000244140625</AltitudeMeters>
            <DistanceMeters>52393.619058817</DistanceMeters>
          </Trackpoint>
          <Trackpoint>
            <Time>2020-01-19T09:37:37.000Z</Time>
            <Position>
              <LatitudeDegrees>38.93480784259736537933349609375</LatitudeDegrees>
              <LongitudeDegrees>-2.8148239664733409881591796875</LongitudeDegrees>
            </Position>
            <AltitudeMeters>861</AltitudeMeters>
            <DistanceMeters>52403.743752777</DistanceMeters>
          </Trackpoint>
          <Trackpoint>
            <Time>2020-01-19T09:37:39.000Z</Time>
            <Position>
              <LatitudeDegrees>38.9348178170621395111083984375</LatitudeDegrees>
              <LongitudeDegrees>-2.81479756347835063934326171875</LongitudeDegrees>
            </Position>
            <AltitudeMeters>861.4000244140625</AltitudeMeters>
            <DistanceMeters>52406.282940557</DistanceMeters>
          </Trackpoint>
          <Trackpoint>
            <Time>2020-01-19T09:37:49.000Z</Time>
            <Position>
              <LatitudeDegrees>38.93488503992557525634765625</LatitudeDegrees>
              <LongitudeDegrees>-2.81468608416616916656494140625</LongitudeDegrees>
            </Position>
            <AltitudeMeters>863.20001220703125</AltitudeMeters>
            <DistanceMeters>52418.494890134</DistanceMeters>
          </Trackpoint>
          <Trackpoint>
            <Time>2020-01-19T09:37:59.000Z</Time>
            <Position>
              <LatitudeDegrees>38.93495670519769191741943359375</LatitudeDegrees>
              <LongitudeDegrees>-2.814560942351818084716796875</LongitudeDegrees>
            </Position>
            <AltitudeMeters>865.20001220703125</AltitudeMeters>
            <DistanceMeters>52431.948807122</DistanceMeters>
          </Trackpoint>
          <Trackpoint>
            <Time>2020-01-19T09:38:09.000Z</Time>
            <Position>
              <LatitudeDegrees>38.9350099302828311920166015625</LatitudeDegrees>
              <LongitudeDegrees>-2.814439572393894195556640625</LongitudeDegrees>
            </Position>
            <AltitudeMeters>867</AltitudeMeters>
            <DistanceMeters>52444.011586728</DistanceMeters>
          </Trackpoint>
          <Trackpoint>
            <Time>2020-01-19T09:38:19.000Z</Time>
            <Position>
              <LatitudeDegrees>38.93505276180803775787353515625</LatitudeDegrees>
              <LongitudeDegrees>-2.81429967842996120452880859375</LongitudeDegrees>
            </Position>
            <AltitudeMeters>868.20001220703125</AltitudeMeters>
            <DistanceMeters>52457.02781868</DistanceMeters>
          </Trackpoint>
          <Trackpoint>
            <Time>2020-01-19T09:38:29.000Z</Time>
            <Position>
              <LatitudeDegrees>38.93511193804442882537841796875</LatitudeDegrees>
              <LongitudeDegrees>-2.81418350525200366973876953125</LongitudeDegrees>
            </Position>
            <AltitudeMeters>869.4000244140625</AltitudeMeters>
            <DistanceMeters>52469.050106464</DistanceMeters>
          </Trackpoint>
          <Trackpoint>
            <Time>2020-01-19T09:38:32.000Z</Time>
            <Position>
              <LatitudeDegrees>38.93512601964175701141357421875</LatitudeDegrees>
              <LongitudeDegrees>-2.8141510672867298126220703125</LongitudeDegrees>
            </Position>
            <AltitudeMeters>869.5999755859375</AltitudeMeters>
            <DistanceMeters>52472.267009883</DistanceMeters>
          </Trackpoint>
          <Trackpoint>
            <Time>2020-01-19T09:38:56.000Z</Time>
            <Position>
              <LatitudeDegrees>38.93523213453590869903564453125</LatitudeDegrees>
              <LongitudeDegrees>-2.81386549584567546844482421875</LongitudeDegrees>
            </Position>
            <AltitudeMeters>871.4000244140625</AltitudeMeters>
            <DistanceMeters>52499.667020021</DistanceMeters>
          </Trackpoint>
          <Trackpoint>
            <Time>2020-01-19T09:38:59.000Z</Time>
            <Position>
              <LatitudeDegrees>38.935249149799346923828125</LatitudeDegrees>
              <LongitudeDegrees>-2.81382576562464237213134765625</LongitudeDegrees>
            </Position>
            <AltitudeMeters>871.5999755859375</AltitudeMeters>
            <DistanceMeters>52503.591979946</DistanceMeters>
          </Trackpoint>
          <Trackpoint>
            <Time>2020-01-19T09:39:09.000Z</Time>
            <Position>
              <LatitudeDegrees>38.93529533408582210540771484375</LatitudeDegrees>
              <LongitudeDegrees>-2.8137044794857501983642578125</LongitudeDegrees>
            </Position>
            <AltitudeMeters>872.79998779296875</AltitudeMeters>
            <DistanceMeters>52515.283741884</DistanceMeters>
          </Trackpoint>
          <Trackpoint>
            <Time>2020-01-19T09:39:16.000Z</Time>
            <Position>
              <LatitudeDegrees>38.93534093163907527923583984375</LatitudeDegrees>
              <LongitudeDegrees>-2.81362426467239856719970703125</LongitudeDegrees>
            </Position>
            <AltitudeMeters>874</AltitudeMeters>
            <DistanceMeters>52523.885628094</DistanceMeters>
          </Trackpoint>
          <Trackpoint>
            <Time>2020-01-19T09:39:18.000Z</Time>
            <Position>
              <LatitudeDegrees>38.9353555999696254730224609375</LatitudeDegrees>
              <LongitudeDegrees>-2.81359878368675708770751953125</LongitudeDegrees>
            </Position>
            <AltitudeMeters>874.4000244140625</AltitudeMeters>
            <DistanceMeters>52526.629910105</DistanceMeters>
          </Trackpoint>
          <Trackpoint>
            <Time>2020-01-19T09:39:24.000Z</Time>
            <Position>
              <LatitudeDegrees>38.93540178425610065460205078125</LatitudeDegrees>
              <LongitudeDegrees>-2.813526280224323272705078125</LongitudeDegrees>
            </Position>
            <AltitudeMeters>875.5999755859375</AltitudeMeters>
            <DistanceMeters>52534.743433216</DistanceMeters>
          </Trackpoint>
          <Trackpoint>
            <Time>2020-01-19T09:39:28.000Z</Time>
            <Position>
              <LatitudeDegrees>38.93542760051786899566650390625</LatitudeDegrees>
              <LongitudeDegrees>-2.813470624387264251708984375</LongitudeDegrees>
            </Position>
            <AltitudeMeters>876.20001220703125</AltitudeMeters>
            <DistanceMeters>52540.353229684</DistanceMeters>
          </Trackpoint>
          <Trackpoint>
            <Time>2020-01-19T09:39:29.000Z</Time>
            <Position>
              <LatitudeDegrees>38.93542952835559844970703125</LatitudeDegrees>
              <LongitudeDegrees>-2.813452184200286865234375</LongitudeDegrees>
            </Position>
            <AltitudeMeters>876.20001220703125</AltitudeMeters>
            <DistanceMeters>52541.965886503</DistanceMeters>
          </Trackpoint>
          <Trackpoint>
            <Time>2020-01-19T09:39:39.000Z</Time>
            <Position>
              <LatitudeDegrees>38.93539273180067539215087890625</LatitudeDegrees>
              <LongitudeDegrees>-2.8133095242083072662353515625</LongitudeDegrees>
            </Position>
            <AltitudeMeters>874.79998779296875</AltitudeMeters>
            <DistanceMeters>52554.978302243</DistanceMeters>
          </Trackpoint>
          <Trackpoint>
            <Time>2020-01-19T09:39:45.000Z</Time>
            <Position>
              <LatitudeDegrees>38.93544201739132404327392578125</LatitudeDegrees>
              <LongitudeDegrees>-2.8132723085582256317138671875</LongitudeDegrees>
            </Position>
            <AltitudeMeters>875.5999755859375</AltitudeMeters>
            <DistanceMeters>52561.340126087</DistanceMeters>
          </Trackpoint>
          <Trackpoint>
            <Time>2020-01-19T09:39:49.000Z</Time>
            <Position>
              <LatitudeDegrees>38.935492895543575286865234375</LatitudeDegrees>
              <LongitudeDegrees>-2.8132542036473751068115234375</LongitudeDegrees>
            </Position>
            <AltitudeMeters>876.5999755859375</AltitudeMeters>
            <DistanceMeters>52567.215667104</DistanceMeters>
          </Trackpoint>
          <Trackpoint>
            <Time>2020-01-19T09:39:50.000Z</Time>
            <Position>
              <LatitudeDegrees>38.93550387583673000335693359375</LatitudeDegrees>
              <LongitudeDegrees>-2.813242971897125244140625</LongitudeDegrees>
            </Position>
            <AltitudeMeters>876.79998779296875</AltitudeMeters>
            <DistanceMeters>52568.777115355</DistanceMeters>
          </Trackpoint>
          <Trackpoint>
            <Time>2020-01-19T09:39:53.000Z</Time>
            <Position>
              <LatitudeDegrees>38.935523740947246551513671875</LatitudeDegrees>
              <LongitudeDegrees>-2.8131988830864429473876953125</LongitudeDegrees>
            </Position>
            <AltitudeMeters>877</AltitudeMeters>
            <DistanceMeters>52573.189466748</DistanceMeters>
          </Trackpoint>
          <Trackpoint>
            <Time>2020-01-19T09:39:59.000Z</Time>
            <Position>
              <LatitudeDegrees>38.93555735237896442413330078125</LatitudeDegrees>
              <LongitudeDegrees>-2.81310123391449451446533203125</LongitudeDegrees>
            </Position>
            <AltitudeMeters>876.79998779296875</AltitudeMeters>
            <DistanceMeters>52582.43444774</DistanceMeters>
          </Trackpoint>
          <Trackpoint>
            <Time>2020-01-19T09:40:09.000Z</Time>
            <Position>
              <LatitudeDegrees>38.93562935292720794677734375</LatitudeDegrees>
              <LongitudeDegrees>-2.81291163526475429534912109375</LongitudeDegrees>
            </Position>
            <AltitudeMeters>877.20001220703125</AltitudeMeters>
            <DistanceMeters>52600.701093701</DistanceMeters>
          </Trackpoint>
          <Trackpoint>
            <Time>2020-01-19T09:40:12.000Z</Time>
            <Position>
              <LatitudeDegrees>38.93565039150416851043701171875</LatitudeDegrees>
              <LongitudeDegrees>-2.81283854506909847259521484375</LongitudeDegrees>
            </Position>
            <AltitudeMeters>877.20001220703125</AltitudeMeters>
            <DistanceMeters>52607.448659591</DistanceMeters>
          </Trackpoint>
          <Trackpoint>
            <Time>2020-01-19T09:40:14.000Z</Time>
            <Position>
              <LatitudeDegrees>38.9356791414320468902587890625</LatitudeDegrees>
              <LongitudeDegrees>-2.81277450732886791229248046875</LongitudeDegrees>
            </Position>
            <AltitudeMeters>877.4000244140625</AltitudeMeters>
            <DistanceMeters>52613.84869293</DistanceMeters>
          </Trackpoint>
          <Trackpoint>
            <Time>2020-01-19T09:40:16.000Z</Time>
            <Position>
              <LatitudeDegrees>38.93571845255792140960693359375</LatitudeDegrees>
              <LongitudeDegrees>-2.81269940547645092010498046875</LongitudeDegrees>
            </Position>
            <AltitudeMeters>877.5999755859375</AltitudeMeters>
            <DistanceMeters>52621.685372705</DistanceMeters>
          </Trackpoint>
          <Trackpoint>
            <Time>2020-01-19T09:40:19.000Z</Time>
            <Position>
              <LatitudeDegrees>38.93578567542135715484619140625</LatitudeDegrees>
              <LongitudeDegrees>-2.812588848173618316650390625</LongitudeDegrees>
            </Position>
            <AltitudeMeters>878.4000244140625</AltitudeMeters>
            <DistanceMeters>52633.834678428</DistanceMeters>
          </Trackpoint>
          <Trackpoint>
            <Time>2020-01-19T09:40:24.000Z</Time>
            <Position>
              <LatitudeDegrees>38.93591056577861309051513671875</LatitudeDegrees>
              <LongitudeDegrees>-2.81247879378497600555419921875</LongitudeDegrees>
            </Position>
            <AltitudeMeters>880.5999755859375</AltitudeMeters>
            <DistanceMeters>52650.687392285</DistanceMeters>
          </Trackpoint>
          <Trackpoint>
            <Time>2020-01-19T09:40:29.000Z</Time>
            <Position>
              <LatitudeDegrees>38.936038725078105926513671875</LatitudeDegrees>
              <LongitudeDegrees>-2.81240168027579784393310546875</LongitudeDegrees>
            </Position>
            <AltitudeMeters>883</AltitudeMeters>
            <DistanceMeters>52666.436905605</DistanceMeters>
          </Trackpoint>
          <Trackpoint>
            <Time>2020-01-19T09:40:39.000Z</Time>
            <Position>
              <LatitudeDegrees>38.9362474344670772552490234375</LatitudeDegrees>
              <LongitudeDegrees>-2.81221442855894565582275390625</LongitudeDegrees>
            </Position>
            <AltitudeMeters>884.79998779296875</AltitudeMeters>
            <DistanceMeters>52694.764112544</DistanceMeters>
          </Trackpoint>
          <Trackpoint>
            <Time>2020-01-19T09:40:43.000Z</Time>
            <Position>
              <LatitudeDegrees>38.93630719743669033050537109375</LatitudeDegrees>
              <LongitudeDegrees>-2.81214988790452480316162109375</LongitudeDegrees>
            </Position>
            <AltitudeMeters>885.20001220703125</AltitudeMeters>
            <DistanceMeters>52703.451654137</DistanceMeters>
          </Trackpoint>
          <Trackpoint>
            <Time>2020-01-19T09:40:47.000Z</Time>
            <Position>
              <LatitudeDegrees>38.93636704422533512115478515625</LatitudeDegrees>
              <LongitudeDegrees>-2.81210160814225673675537109375</LongitudeDegrees>
            </Position>
            <AltitudeMeters>885.79998779296875</AltitudeMeters>
            <DistanceMeters>52711.31536595</DistanceMeters>
          </Trackpoint>
          <Trackpoint>
            <Time>2020-01-19T09:40:49.000Z</Time>
            <Position>
              <LatitudeDegrees>38.936401493847370147705078125</LatitudeDegrees>
              <LongitudeDegrees>-2.81208953820168972015380859375</LongitudeDegrees>
            </Position>
            <AltitudeMeters>886</AltitudeMeters>
            <DistanceMeters>52715.28948267</DistanceMeters>
          </Trackpoint>
          <Trackpoint>
            <Time>2020-01-19T09:40:59.000Z</Time>
            <Position>
              <LatitudeDegrees>38.93657005392014980316162109375</LatitudeDegrees>
              <LongitudeDegrees>-2.8120247460901737213134765625</LongitudeDegrees>
            </Position>
            <AltitudeMeters>887.5999755859375</AltitudeMeters>
            <DistanceMeters>52734.870981743</DistanceMeters>
          </Trackpoint>
          <Trackpoint>
            <Time>2020-01-19T09:41:02.000Z</Time>
            <Position>
              <LatitudeDegrees>38.9365981332957744598388671875</LatitudeDegrees>
              <LongitudeDegrees>-2.8119734488427639007568359375</LongitudeDegrees>
            </Position>
            <AltitudeMeters>887.5999755859375</AltitudeMeters>
            <DistanceMeters>52740.299993579</DistanceMeters>
          </Trackpoint>
          <Trackpoint>
            <Time>2020-01-19T09:41:07.000Z</Time>
            <Position>
              <LatitudeDegrees>38.93662386573851108551025390625</LatitudeDegrees>
              <LongitudeDegrees>-2.811868675053119659423828125</LongitudeDegrees>
            </Position>
            <AltitudeMeters>887.5999755859375</AltitudeMeters>
            <DistanceMeters>52749.812162941</DistanceMeters>
          </Trackpoint>
          <Trackpoint>
            <Time>2020-01-19T09:41:09.000Z</Time>
            <Position>
              <LatitudeDegrees>38.9366313256323337554931640625</LatitudeDegrees>
              <LongitudeDegrees>-2.8118235804140567779541015625</LongitudeDegrees>
            </Position>
            <AltitudeMeters>887.5999755859375</AltitudeMeters>
            <DistanceMeters>52753.803284944</DistanceMeters>
          </Trackpoint>
          <Trackpoint>
            <Time>2020-01-19T09:41:12.000Z</Time>
            <Position>
              <LatitudeDegrees>38.9366387017071247100830078125</LatitudeDegrees>
              <LongitudeDegrees>-2.811795584857463836669921875</LongitudeDegrees>
            </Position>
            <AltitudeMeters>887.5999755859375</AltitudeMeters>
            <DistanceMeters>52756.360192323</DistanceMeters>
          </Trackpoint>
          <Trackpoint>
            <Time>2020-01-19T09:41:41.000Z</Time>
            <Position>
              <LatitudeDegrees>38.93672964535653591156005859375</LatitudeDegrees>
              <LongitudeDegrees>-2.81161730177700519561767578125</LongitudeDegrees>
            </Position>
            <AltitudeMeters>888.5999755859375</AltitudeMeters>
            <DistanceMeters>52774.81838249</DistanceMeters>
          </Trackpoint>
          <Trackpoint>
            <Time>2020-01-19T09:41:49.000Z</Time>
            <Position>
              <LatitudeDegrees>38.9368517696857452392578125</LatitudeDegrees>
              <LongitudeDegrees>-2.81148553825914859771728515625</LongitudeDegrees>
            </Position>
            <AltitudeMeters>890.4000244140625</AltitudeMeters>
            <DistanceMeters>52792.563460559</DistanceMeters>
          </Trackpoint>
          <Trackpoint>
            <Time>2020-01-19T09:41:52.000Z</Time>
            <Position>
              <LatitudeDegrees>38.9369183219969272613525390625</LatitudeDegrees>
              <LongitudeDegrees>-2.8114383481442928314208984375</LongitudeDegrees>
            </Position>
            <AltitudeMeters>891</AltitudeMeters>
            <DistanceMeters>52801.02243956</DistanceMeters>
          </Trackpoint>
          <Trackpoint>
            <Time>2020-01-19T09:41:55.000Z</Time>
            <Position>
              <LatitudeDegrees>38.936965428292751312255859375</LatitudeDegrees>
              <LongitudeDegrees>-2.81137682497501373291015625</LongitudeDegrees>
            </Position>
            <AltitudeMeters>891.5999755859375</AltitudeMeters>
            <DistanceMeters>52808.495793748</DistanceMeters>
          </Trackpoint>
          <Trackpoint>
            <Time>2020-01-19T09:41:58.000Z</Time>
            <Position>
              <LatitudeDegrees>38.93699032254517078399658203125</LatitudeDegrees>
              <LongitudeDegrees>-2.811351679265499114990234375</LongitudeDegrees>
            </Position>
            <AltitudeMeters>891.79998779296875</AltitudeMeters>
            <DistanceMeters>52812.018197051</DistanceMeters>
          </Trackpoint>
          <Trackpoint>
            <Time>2020-01-19T09:41:59.000Z</Time>
            <Position>
              <LatitudeDegrees>38.93699862062931060791015625</LatitudeDegrees>
              <LongitudeDegrees>-2.8113424591720104217529296875</LongitudeDegrees>
            </Position>
            <AltitudeMeters>891.79998779296875</AltitudeMeters>
            <DistanceMeters>52813.235132767</DistanceMeters>
          </Trackpoint>
          <Trackpoint>
            <Time>2020-01-19T09:42:01.000Z</Time>
            <Position>
              <LatitudeDegrees>38.93700264394283294677734375</LatitudeDegrees>
              <LongitudeDegrees>-2.81133659183979034423828125</LongitudeDegrees>
            </Position>
            <AltitudeMeters>891.79998779296875</AltitudeMeters>
            <DistanceMeters>52813.907073108</DistanceMeters>
          </Trackpoint>
          <Trackpoint>
            <Time>2020-01-19T09:47:32.000Z</Time>
            <Position>
              <LatitudeDegrees>38.93698696978390216827392578125</LatitudeDegrees>
              <LongitudeDegrees>-2.81134170480072498321533203125</LongitudeDegrees>
            </Position>
            <AltitudeMeters>891.79998779296875</AltitudeMeters>
            <DistanceMeters>52815.710078244</DistanceMeters>
          </Trackpoint>
          <Trackpoint>
            <Time>2020-01-19T09:47:33.000Z</Time>
            <Position>
              <LatitudeDegrees>38.93700725398957729339599609375</LatitudeDegrees>
              <LongitudeDegrees>-2.81133198179304599761962890625</LongitudeDegrees>
            </Position>
            <AltitudeMeters>891.79998779296875</AltitudeMeters>
            <DistanceMeters>52818.121585912</DistanceMeters>
          </Trackpoint>
          <Trackpoint>
            <Time>2020-01-19T09:47:35.000Z</Time>
            <Position>
              <LatitudeDegrees>38.93705151043832302093505859375</LatitudeDegrees>
              <LongitudeDegrees>-2.8113112784922122955322265625</LongitudeDegrees>
            </Position>
            <AltitudeMeters>892.20001220703125</AltitudeMeters>
            <DistanceMeters>52823.363581965</DistanceMeters>
          </Trackpoint>
          <Trackpoint>
            <Time>2020-01-19T09:47:36.000Z</Time>
            <Position>
              <LatitudeDegrees>38.937070369720458984375</LatitudeDegrees>
              <LongitudeDegrees>-2.8112955205142498016357421875</LongitudeDegrees>
            </Position>
            <AltitudeMeters>892.4000244140625</AltitudeMeters>
            <DistanceMeters>52825.8669543</DistanceMeters>
          </Trackpoint>
          <Trackpoint>
            <Time>2020-01-19T09:47:39.000Z</Time>
            <Position>
              <LatitudeDegrees>38.93713080324232578277587890625</LatitudeDegrees>
              <LongitudeDegrees>-2.8112616576254367828369140625</LongitudeDegrees>
            </Position>
            <AltitudeMeters>892.79998779296875</AltitudeMeters>
            <DistanceMeters>52833.204345919</DistanceMeters>
          </Trackpoint>
          <Trackpoint>
            <Time>2020-01-19T09:47:49.000Z</Time>
            <Position>
              <LatitudeDegrees>38.937304057180881500244140625</LatitudeDegrees>
              <LongitudeDegrees>-2.8112033195793628692626953125</LongitudeDegrees>
            </Position>
            <AltitudeMeters>893.79998779296875</AltitudeMeters>
            <DistanceMeters>52853.138223711</DistanceMeters>
          </Trackpoint>
          <Trackpoint>
            <Time>2020-01-19T09:47:54.000Z</Time>
            <Position>
              <LatitudeDegrees>38.937387876212596893310546875</LatitudeDegrees>
              <LongitudeDegrees>-2.81117792241275310516357421875</LongitudeDegrees>
            </Position>
            <AltitudeMeters>894.20001220703125</AltitudeMeters>
            <DistanceMeters>52862.723211856</DistanceMeters>
          </Trackpoint>
          <Trackpoint>
            <Time>2020-01-19T09:47:59.000Z</Time>
            <Position>
              <LatitudeDegrees>38.9374691806733608245849609375</LatitudeDegrees>
              <LongitudeDegrees>-2.81116065569221973419189453125</LongitudeDegrees>
            </Position>
            <AltitudeMeters>894.79998779296875</AltitudeMeters>
            <DistanceMeters>52871.895135981</DistanceMeters>
          </Trackpoint>
          <Trackpoint>
            <Time>2020-01-19T09:48:02.000Z</Time>
            <Position>
              <LatitudeDegrees>38.93752089701592922210693359375</LatitudeDegrees>
              <LongitudeDegrees>-2.8111399523913860321044921875</LongitudeDegrees>
            </Position>
            <AltitudeMeters>895.4000244140625</AltitudeMeters>
            <DistanceMeters>52877.923156187</DistanceMeters>
          </Trackpoint>
          <Trackpoint>
            <Time>2020-01-19T09:48:09.000Z</Time>
            <Position>
              <LatitudeDegrees>38.93764830194413661956787109375</LatitudeDegrees>
              <LongitudeDegrees>-2.81111891381442546844482421875</LongitudeDegrees>
            </Position>
            <AltitudeMeters>897.4000244140625</AltitudeMeters>
            <DistanceMeters>52892.219861413</DistanceMeters>
          </Trackpoint>
          <Trackpoint>
            <Time>2020-01-19T09:48:11.000Z</Time>
            <Position>
              <LatitudeDegrees>38.93768258392810821533203125</LatitudeDegrees>
              <LongitudeDegrees>-2.811116985976696014404296875</LongitudeDegrees>
            </Position>
            <AltitudeMeters>898</AltitudeMeters>
            <DistanceMeters>52896.039888054</DistanceMeters>
          </Trackpoint>
          <Trackpoint>
            <Time>2020-01-19T09:48:14.000Z</Time>
            <Position>
              <LatitudeDegrees>38.93772642128169536590576171875</LatitudeDegrees>
              <LongitudeDegrees>-2.8110735677182674407958984375</LongitudeDegrees>
            </Position>
            <AltitudeMeters>898.4000244140625</AltitudeMeters>
            <DistanceMeters>52902.199789126</DistanceMeters>
          </Trackpoint>
          <Trackpoint>
            <Time>2020-01-19T09:48:15.000Z</Time>
            <Position>
              <LatitudeDegrees>38.9377397485077381134033203125</LatitudeDegrees>
              <LongitudeDegrees>-2.8110608272254467010498046875</LongitudeDegrees>
            </Position>
            <AltitudeMeters>898.4000244140625</AltitudeMeters>
            <DistanceMeters>52904.047319611</DistanceMeters>
          </Trackpoint>
          <Trackpoint>
            <Time>2020-01-19T09:48:18.000Z</Time>
            <Position>
              <LatitudeDegrees>38.9377984218299388885498046875</LatitudeDegrees>
              <LongitudeDegrees>-2.81104029156267642974853515625</LongitudeDegrees>
            </Position>
            <AltitudeMeters>898.5999755859375</AltitudeMeters>
            <DistanceMeters>52910.814929804</DistanceMeters>
          </Trackpoint>
          <Trackpoint>
            <Time>2020-01-19T09:48:19.000Z</Time>
            <Position>
              <LatitudeDegrees>38.93781644292175769805908203125</LatitudeDegrees>
              <LongitudeDegrees>-2.8110316582024097442626953125</LongitudeDegrees>
            </Position>
            <AltitudeMeters>898.5999755859375</AltitudeMeters>
            <DistanceMeters>52912.95461407</DistanceMeters>
          </Trackpoint>
          <Trackpoint>
            <Time>2020-01-19T09:48:23.000Z</Time>
            <Position>
              <LatitudeDegrees>38.9378949813544750213623046875</LatitudeDegrees>
              <LongitudeDegrees>-2.81100944615900516510009765625</LongitudeDegrees>
            </Position>
            <AltitudeMeters>899</AltitudeMeters>
            <DistanceMeters>52921.905303329</DistanceMeters>
          </Trackpoint>
          <Trackpoint>
            <Time>2020-01-19T09:48:29.000Z</Time>
            <Position>
              <LatitudeDegrees>38.938000090420246124267578125</LatitudeDegrees>
              <LongitudeDegrees>-2.81098430044949054718017578125</LongitudeDegrees>
            </Position>
            <AltitudeMeters>899.4000244140625</AltitudeMeters>
            <DistanceMeters>52933.805288993</DistanceMeters>
          </Trackpoint>
          <Trackpoint>
            <Time>2020-01-19T09:48:39.000Z</Time>
            <Position>
              <LatitudeDegrees>38.93816496245563030242919921875</LatitudeDegrees>
              <LongitudeDegrees>-2.81095630489289760589599609375</LongitudeDegrees>
            </Position>
            <AltitudeMeters>900.20001220703125</AltitudeMeters>
            <DistanceMeters>52952.315263613</DistanceMeters>
          </Trackpoint>
          <Trackpoint>
            <Time>2020-01-19T09:48:49.000Z</Time>
            <Position>
              <LatitudeDegrees>38.93834215588867664337158203125</LatitudeDegrees>
              <LongitudeDegrees>-2.81092881225049495697021484375</LongitudeDegrees>
            </Position>
            <AltitudeMeters>901</AltitudeMeters>
            <DistanceMeters>52972.180165843</DistanceMeters>
          </Trackpoint>
          <Trackpoint>
            <Time>2020-01-19T09:48:59.000Z</Time>
            <Position>
              <LatitudeDegrees>38.9385279826819896697998046875</LatitudeDegrees>
              <LongitudeDegrees>-2.81090048141777515411376953125</LongitudeDegrees>
            </Position>
            <AltitudeMeters>901.79998779296875</AltitudeMeters>
            <DistanceMeters>52993.008148759</DistanceMeters>
          </Trackpoint>
          <Trackpoint>
            <Time>2020-01-19T09:49:01.000Z</Time>
            <Position>
              <LatitudeDegrees>38.93856410868465900421142578125</LatitudeDegrees>
              <LongitudeDegrees>-2.81089226715266704559326171875</LongitudeDegrees>
            </Position>
            <AltitudeMeters>902</AltitudeMeters>
            <DistanceMeters>52997.090981246</DistanceMeters>
          </Trackpoint>
          <Trackpoint>
            <Time>2020-01-19T09:49:09.000Z</Time>
            <Position>
              <LatitudeDegrees>38.938669301569461822509765625</LatitudeDegrees>
              <LongitudeDegrees>-2.81075656414031982421875</LongitudeDegrees>
            </Position>
            <AltitudeMeters>903.4000244140625</AltitudeMeters>
            <DistanceMeters>53013.67688637</DistanceMeters>
          </Trackpoint>
          <Trackpoint>
            <Time>2020-01-19T09:49:19.000Z</Time>
            <Position>
              <LatitudeDegrees>38.938820175826549530029296875</LatitudeDegrees>
              <LongitudeDegrees>-2.8105927817523479461669921875</LongitudeDegrees>
            </Position>
            <AltitudeMeters>905</AltitudeMeters>
            <DistanceMeters>53035.654985677</DistanceMeters>
          </Trackpoint>
          <Trackpoint>
            <Time>2020-01-19T09:49:29.000Z</Time>
            <Position>
              <LatitudeDegrees>38.9389283023774623870849609375</LatitudeDegrees>
              <LongitudeDegrees>-2.8104147501289844512939453125</LongitudeDegrees>
            </Position>
            <AltitudeMeters>906.79998779296875</AltitudeMeters>
            <DistanceMeters>53055.209719556</DistanceMeters>
          </Trackpoint>
          <Trackpoint>
            <Time>2020-01-19T09:49:30.000Z</Time>
            <Position>
              <LatitudeDegrees>38.93894431181252002716064453125</LatitudeDegrees>
              <LongitudeDegrees>-2.810408882796764373779296875</LongitudeDegrees>
            </Position>
            <AltitudeMeters>906.79998779296875</AltitudeMeters>
            <DistanceMeters>53057.059692251</DistanceMeters>
          </Trackpoint>
          <Trackpoint>
            <Time>2020-01-19T09:49:39.000Z</Time>
            <Position>
              <LatitudeDegrees>38.939104489982128143310546875</LatitudeDegrees>
              <LongitudeDegrees>-2.81038935296237468719482421875</LongitudeDegrees>
            </Position>
            <AltitudeMeters>907.5999755859375</AltitudeMeters>
            <DistanceMeters>53074.96762722</DistanceMeters>
          </Trackpoint>
          <Trackpoint>
            <Time>2020-01-19T09:49:49.000Z</Time>
            <Position>
              <LatitudeDegrees>38.9392659254372119903564453125</LatitudeDegrees>
              <LongitudeDegrees>-2.81029027886688709259033203125</LongitudeDegrees>
            </Position>
            <AltitudeMeters>909.20001220703125</AltitudeMeters>
            <DistanceMeters>53094.877935</DistanceMeters>
          </Trackpoint>
          <Trackpoint>
            <Time>2020-01-19T09:49:59.000Z</Time>
            <Position>
              <LatitudeDegrees>38.9394577033817768096923828125</LatitudeDegrees>
              <LongitudeDegrees>-2.810205034911632537841796875</LongitudeDegrees>
            </Position>
            <AltitudeMeters>910.79998779296875</AltitudeMeters>
            <DistanceMeters>53117.463128339</DistanceMeters>
          </Trackpoint>
          <Trackpoint>
            <Time>2020-01-19T09:50:09.000Z</Time>
            <Position>
              <LatitudeDegrees>38.93965065479278564453125</LatitudeDegrees>
              <LongitudeDegrees>-2.8101435117423534393310546875</LongitudeDegrees>
            </Position>
            <AltitudeMeters>911.4000244140625</AltitudeMeters>
            <DistanceMeters>53139.589869731</DistanceMeters>
          </Trackpoint>
          <Trackpoint>
            <Time>2020-01-19T09:50:18.000Z</Time>
            <Position>
              <LatitudeDegrees>38.93983413465321063995361328125</LatitudeDegrees>
              <LongitudeDegrees>-2.81011459417641162872314453125</LongitudeDegrees>
            </Position>
            <AltitudeMeters>911.79998779296875</AltitudeMeters>
            <DistanceMeters>53160.164195807</DistanceMeters>
          </Trackpoint>
          <Trackpoint>
            <Time>2020-01-19T09:50:29.000Z</Time>
            <Position>
              <LatitudeDegrees>38.940081484615802764892578125</LatitudeDegrees>
              <LongitudeDegrees>-2.8100425936281681060791015625</LongitudeDegrees>
            </Position>
            <AltitudeMeters>912.5999755859375</AltitudeMeters>
            <DistanceMeters>53188.39144904</DistanceMeters>
          </Trackpoint>
          <Trackpoint>
            <Time>2020-01-19T09:50:37.000Z</Time>
            <Position>
              <LatitudeDegrees>38.94023562781512737274169921875</LatitudeDegrees>
              <LongitudeDegrees>-2.81001920811831951141357421875</LongitudeDegrees>
            </Position>
            <AltitudeMeters>913.20001220703125</AltitudeMeters>
            <DistanceMeters>53205.666981636</DistanceMeters>
          </Trackpoint>
          <Trackpoint>
            <Time>2020-01-19T09:50:39.000Z</Time>
            <Position>
              <LatitudeDegrees>38.94027988426387310028076171875</LatitudeDegrees>
              <LongitudeDegrees>-2.81002893112599849700927734375</LongitudeDegrees>
            </Position>
            <AltitudeMeters>913.20001220703125</AltitudeMeters>
            <DistanceMeters>53210.66470026</DistanceMeters>
          </Trackpoint>
          <Trackpoint>
            <Time>2020-01-19T09:50:49.000Z</Time>
            <Position>
              <LatitudeDegrees>38.940471746027469635009765625</LatitudeDegrees>
              <LongitudeDegrees>-2.809934802353382110595703125</LongitudeDegrees>
            </Position>
            <AltitudeMeters>914.20001220703125</AltitudeMeters>
            <DistanceMeters>53233.521341365</DistanceMeters>
          </Trackpoint>
          <Trackpoint>
            <Time>2020-01-19T09:50:59.000Z</Time>
            <Position>
              <LatitudeDegrees>38.94063393585383892059326171875</LatitudeDegrees>
              <LongitudeDegrees>-2.809808738529682159423828125</LongitudeDegrees>
            </Position>
            <AltitudeMeters>915.20001220703125</AltitudeMeters>
            <DistanceMeters>53254.616201807</DistanceMeters>
          </Trackpoint>
          <Trackpoint>
            <Time>2020-01-19T09:51:09.000Z</Time>
            <Position>
              <LatitudeDegrees>38.94073896110057830810546875</LatitudeDegrees>
              <LongitudeDegrees>-2.8095929883420467376708984375</LongitudeDegrees>
            </Position>
            <AltitudeMeters>916</AltitudeMeters>
            <DistanceMeters>53276.650108177</DistanceMeters>
          </Trackpoint>
          <Trackpoint>
            <Time>2020-01-19T09:51:19.000Z</Time>
            <Position>
              <LatitudeDegrees>38.94081917591392993927001953125</LatitudeDegrees>
              <LongitudeDegrees>-2.80941001139581203460693359375</LongitudeDegrees>
            </Position>
            <AltitudeMeters>916.79998779296875</AltitudeMeters>
            <DistanceMeters>53294.833265739</DistanceMeters>
          </Trackpoint>
          <Trackpoint>
            <Time>2020-01-19T09:51:26.000Z</Time>
            <Position>
              <LatitudeDegrees>38.9408504404127597808837890625</LatitudeDegrees>
              <LongitudeDegrees>-2.80923466198146343231201171875</LongitudeDegrees>
            </Position>
            <AltitudeMeters>917.79998779296875</AltitudeMeters>
            <DistanceMeters>53310.407213642</DistanceMeters>
          </Trackpoint>
          <Trackpoint>
            <Time>2020-01-19T09:51:29.000Z</Time>
            <Position>
              <LatitudeDegrees>38.9408658631145954132080078125</LatitudeDegrees>
              <LongitudeDegrees>-2.80915821902453899383544921875</LongitudeDegrees>
            </Position>
            <AltitudeMeters>918.20001220703125</AltitudeMeters>
            <DistanceMeters>53317.243855776</DistanceMeters>
          </Trackpoint>
          <Trackpoint>
            <Time>2020-01-19T09:51:39.000Z</Time>
            <Position>
              <LatitudeDegrees>38.94094138406217098236083984375</LatitudeDegrees>
              <LongitudeDegrees>-2.80892821960151195526123046875</LongitudeDegrees>
            </Position>
            <AltitudeMeters>919</AltitudeMeters>
            <DistanceMeters>53338.856323572</DistanceMeters>
          </Trackpoint>
          <Trackpoint>
            <Time>2020-01-19T09:51:49.000Z</Time>
            <Position>
              <LatitudeDegrees>38.941015563905239105224609375</LatitudeDegrees>
              <LongitudeDegrees>-2.80866603367030620574951171875</LongitudeDegrees>
            </Position>
            <AltitudeMeters>920</AltitudeMeters>
            <DistanceMeters>53363.009003928</DistanceMeters>
          </Trackpoint>
          <Trackpoint>
            <Time>2020-01-19T09:51:59.000Z</Time>
            <Position>
              <LatitudeDegrees>38.9410757459700107574462890625</LatitudeDegrees>
              <LongitudeDegrees>-2.80842228792607784271240234375</LongitudeDegrees>
            </Position>
            <AltitudeMeters>920.79998779296875</AltitudeMeters>
            <DistanceMeters>53385.147985142</DistanceMeters>
          </Trackpoint>
          <Trackpoint>
            <Time>2020-01-19T09:52:09.000Z</Time>
            <Position>
              <LatitudeDegrees>38.94126978702843189239501953125</LatitudeDegrees>
              <LongitudeDegrees>-2.80834802426397800445556640625</LongitudeDegrees>
            </Position>
            <AltitudeMeters>921.5999755859375</AltitudeMeters>
            <DistanceMeters>53407.681943041</DistanceMeters>
          </Trackpoint>
          <Trackpoint>
            <Time>2020-01-19T09:52:10.000Z</Time>
            <Position>
              <LatitudeDegrees>38.94128822721540927886962890625</LatitudeDegrees>
              <LongitudeDegrees>-2.80836143530905246734619140625</LongitudeDegrees>
            </Position>
            <AltitudeMeters>921.5999755859375</AltitudeMeters>
            <DistanceMeters>53410.040444067</DistanceMeters>
          </Trackpoint>
          <Trackpoint>
            <Time>2020-01-19T09:52:18.000Z</Time>
            <Position>
              <LatitudeDegrees>38.94142032600939273834228515625</LatitudeDegrees>
              <LongitudeDegrees>-2.8085284866392612457275390625</LongitudeDegrees>
            </Position>
            <AltitudeMeters>921.4000244140625</AltitudeMeters>
            <DistanceMeters>53430.663430525</DistanceMeters>
          </Trackpoint>
          <Trackpoint>
            <Time>2020-01-19T09:52:29.000Z</Time>
            <Position>
              <LatitudeDegrees>38.94157572649419307708740234375</LatitudeDegrees>
              <LongitudeDegrees>-2.808744572103023529052734375</LongitudeDegrees>
            </Position>
            <AltitudeMeters>921</AltitudeMeters>
            <DistanceMeters>53456.140870643</DistanceMeters>
          </Trackpoint>
          <Trackpoint>
            <Time>2020-01-19T09:52:39.000Z</Time>
            <Position>
              <LatitudeDegrees>38.9417590387165546417236328125</LatitudeDegrees>
              <LongitudeDegrees>-2.8089174069464206695556640625</LongitudeDegrees>
            </Position>
            <AltitudeMeters>921.20001220703125</AltitudeMeters>
            <DistanceMeters>53481.441900644</DistanceMeters>
          </Trackpoint>
          <Trackpoint>
            <Time>2020-01-19T09:52:49.000Z</Time>
            <Position>
              <LatitudeDegrees>38.94197369925677776336669921875</LatitudeDegrees>
              <LongitudeDegrees>-2.8090639226138591766357421875</LongitudeDegrees>
            </Position>
            <AltitudeMeters>921.5999755859375</AltitudeMeters>
            <DistanceMeters>53508.492152479</DistanceMeters>
          </Trackpoint>
          <Trackpoint>
            <Time>2020-01-19T09:52:51.000Z</Time>
            <Position>
              <LatitudeDegrees>38.94201057963073253631591796875</LatitudeDegrees>
              <LongitudeDegrees>-2.80909602530300617218017578125</LongitudeDegrees>
            </Position>
            <AltitudeMeters>921.5999755859375</AltitudeMeters>
            <DistanceMeters>53513.449961277</DistanceMeters>
          </Trackpoint>
          <Trackpoint>
            <Time>2020-01-19T09:52:59.000Z</Time>
            <Position>
              <LatitudeDegrees>38.94210554659366607666015625</LatitudeDegrees>
              <LongitudeDegrees>-2.80935184098780155181884765625</LongitudeDegrees>
            </Position>
            <AltitudeMeters>922</AltitudeMeters>
            <DistanceMeters>53537.988758874</DistanceMeters>
          </Trackpoint>
          <Trackpoint>
            <Time>2020-01-19T09:53:09.000Z</Time>
            <Position>
              <LatitudeDegrees>38.9423290081322193145751953125</LatitudeDegrees>
              <LongitudeDegrees>-2.80958485789597034454345703125</LongitudeDegrees>
            </Position>
            <AltitudeMeters>923.4000244140625</AltitudeMeters>
            <DistanceMeters>53570.012338646</DistanceMeters>
          </Trackpoint>
          <Trackpoint>
            <Time>2020-01-19T09:53:19.000Z</Time>
            <Position>
              <LatitudeDegrees>38.94248147495090961456298828125</LatitudeDegrees>
              <LongitudeDegrees>-2.8098890371620655059814453125</LongitudeDegrees>
            </Position>
            <AltitudeMeters>923.5999755859375</AltitudeMeters>
            <DistanceMeters>53601.339174551</DistanceMeters>
          </Trackpoint>
          <Trackpoint>
            <Time>2020-01-19T09:53:29.000Z</Time>
            <Position>
              <LatitudeDegrees>38.942549116909503936767578125</LatitudeDegrees>
              <LongitudeDegrees>-2.81025742180645465850830078125</LongitudeDegrees>
            </Position>
            <AltitudeMeters>924.5999755859375</AltitudeMeters>
            <DistanceMeters>53634.106171502</DistanceMeters>
          </Trackpoint>
          <Trackpoint>
            <Time>2020-01-19T09:53:39.000Z</Time>
            <Position>
              <LatitudeDegrees>38.94267342053353786468505859375</LatitudeDegrees>
              <LongitudeDegrees>-2.810587920248508453369140625</LongitudeDegrees>
            </Position>
            <AltitudeMeters>925.79998779296875</AltitudeMeters>
            <DistanceMeters>53665.886321438</DistanceMeters>
          </Trackpoint>
          <Trackpoint>
            <Time>2020-01-19T09:53:49.000Z</Time>
            <Position>
              <LatitudeDegrees>38.9428560622036457061767578125</LatitudeDegrees>
              <LongitudeDegrees>-2.81083728186786174774169921875</LongitudeDegrees>
            </Position>
            <AltitudeMeters>926.5999755859375</AltitudeMeters>
            <DistanceMeters>53695.53831097</DistanceMeters>
          </Trackpoint>
          <Trackpoint>
            <Time>2020-01-19T09:53:59.000Z</Time>
            <Position>
              <LatitudeDegrees>38.9429509453475475311279296875</LatitudeDegrees>
              <LongitudeDegrees>-2.8112559579312801361083984375</LongitudeDegrees>
            </Position>
            <AltitudeMeters>929.20001220703125</AltitudeMeters>
            <DistanceMeters>53733.289400021</DistanceMeters>
          </Trackpoint>
          <Trackpoint>
            <Time>2020-01-19T09:54:09.000Z</Time>
            <Position>
              <LatitudeDegrees>38.94300333224236965179443359375</LatitudeDegrees>
              <LongitudeDegrees>-2.8116824291646480560302734375</LongitudeDegrees>
            </Position>
            <AltitudeMeters>931.20001220703125</AltitudeMeters>
            <DistanceMeters>53770.665715331</DistanceMeters>
          </Trackpoint>
          <Trackpoint>
            <Time>2020-01-19T09:54:18.000Z</Time>
            <Position>
              <LatitudeDegrees>38.94302093423902988433837890625</LatitudeDegrees>
              <LongitudeDegrees>-2.8120810724794864654541015625</LongitudeDegrees>
            </Position>
            <AltitudeMeters>932.20001220703125</AltitudeMeters>
            <DistanceMeters>53805.230890785</DistanceMeters>
          </Trackpoint>
          <Trackpoint>
            <Time>2020-01-19T09:54:29.000Z</Time>
            <Position>
              <LatitudeDegrees>38.9430273883044719696044921875</LatitudeDegrees>
              <LongitudeDegrees>-2.81260753981769084930419921875</LongitudeDegrees>
            </Position>
            <AltitudeMeters>933.20001220703125</AltitudeMeters>
            <DistanceMeters>53850.811531827</DistanceMeters>
          </Trackpoint>
          <Trackpoint>
            <Time>2020-01-19T09:54:39.000Z</Time>
            <Position>
              <LatitudeDegrees>38.943033255636692047119140625</LatitudeDegrees>
              <LongitudeDegrees>-2.8131003119051456451416015625</LongitudeDegrees>
            </Position>
            <AltitudeMeters>933.20001220703125</AltitudeMeters>
            <DistanceMeters>53893.474611045</DistanceMeters>
          </Trackpoint>
          <Trackpoint>
            <Time>2020-01-19T09:54:41.000Z</Time>
            <Position>
              <LatitudeDegrees>38.94303250126540660858154296875</LatitudeDegrees>
              <LongitudeDegrees>-2.81319729052484035491943359375</LongitudeDegrees>
            </Position>
            <AltitudeMeters>933.4000244140625</AltitudeMeters>
            <DistanceMeters>53901.870370494</DistanceMeters>
          </Trackpoint>
          <Trackpoint>
            <Time>2020-01-19T09:54:45.000Z</Time>
            <Position>
              <LatitudeDegrees>38.94303887151181697845458984375</LatitudeDegrees>
              <LongitudeDegrees>-2.81339921057224273681640625</LongitudeDegrees>
            </Position>
            <AltitudeMeters>933.5999755859375</AltitudeMeters>
            <DistanceMeters>53919.36457956</DistanceMeters>
          </Trackpoint>
          <Trackpoint>
            <Time>2020-01-19T09:54:53.000Z</Time>
            <Position>
              <LatitudeDegrees>38.94306368194520473480224609375</LatitudeDegrees>
              <LongitudeDegrees>-2.8137842752039432525634765625</LongitudeDegrees>
            </Position>
            <AltitudeMeters>932.4000244140625</AltitudeMeters>
            <DistanceMeters>53952.812903152</DistanceMeters>
          </Trackpoint>
          <Trackpoint>
            <Time>2020-01-19T09:54:55.000Z</Time>
            <Position>
              <LatitudeDegrees>38.9431185834109783172607421875</LatitudeDegrees>
              <LongitudeDegrees>-2.81385124661028385162353515625</LongitudeDegrees>
            </Position>
            <AltitudeMeters>932.20001220703125</AltitudeMeters>
            <DistanceMeters>53961.236044527</DistanceMeters>
          </Trackpoint>
          <Trackpoint>
            <Time>2020-01-19T09:55:05.000Z</Time>
            <Position>
              <LatitudeDegrees>38.943121433258056640625</LatitudeDegrees>
              <LongitudeDegrees>-2.81431250274181365966796875</LongitudeDegrees>
            </Position>
            <AltitudeMeters>933.5999755859375</AltitudeMeters>
            <DistanceMeters>54001.167169957</DistanceMeters>
          </Trackpoint>
          <Trackpoint>
            <Time>2020-01-19T09:55:08.000Z</Time>
            <Position>
              <LatitudeDegrees>38.943133167922496795654296875</LatitudeDegrees>
              <LongitudeDegrees>-2.81443228013813495635986328125</LongitudeDegrees>
            </Position>
            <AltitudeMeters>933.79998779296875</AltitudeMeters>
            <DistanceMeters>54011.618380637</DistanceMeters>
          </Trackpoint>
          <Trackpoint>
            <Time>2020-01-19T09:55:15.000Z</Time>
            <Position>
              <LatitudeDegrees>38.94336073659360408782958984375</LatitudeDegrees>
              <LongitudeDegrees>-2.81448843888938426971435546875</LongitudeDegrees>
            </Position>
            <AltitudeMeters>934.20001220703125</AltitudeMeters>
            <DistanceMeters>54037.409688304</DistanceMeters>
          </Trackpoint>
          <Trackpoint>
            <Time>2020-01-19T09:55:25.000Z</Time>
            <Position>
              <LatitudeDegrees>38.94365108571946620941162109375</LatitudeDegrees>
              <LongitudeDegrees>-2.81456102617084980010986328125</LongitudeDegrees>
            </Position>
            <AltitudeMeters>935.20001220703125</AltitudeMeters>
            <DistanceMeters>54070.331336579</DistanceMeters>
          </Trackpoint>
          <Trackpoint>
            <Time>2020-01-19T09:55:27.000Z</Time>
            <Position>
              <LatitudeDegrees>38.94367061555385589599609375</LatitudeDegrees>
              <LongitudeDegrees>-2.814564295113086700439453125</LongitudeDegrees>
            </Position>
            <AltitudeMeters>935.20001220703125</AltitudeMeters>
            <DistanceMeters>54072.523139643</DistanceMeters>
          </Trackpoint>
          <Trackpoint>
            <Time>2020-01-19T09:55:31.000Z</Time>
            <Position>
              <LatitudeDegrees>38.943694420158863067626953125</LatitudeDegrees>
              <LongitudeDegrees>-2.814564965665340423583984375</LongitudeDegrees>
            </Position>
            <AltitudeMeters>935.20001220703125</AltitudeMeters>
            <DistanceMeters>54075.173686657</DistanceMeters>
          </Trackpoint>
          <Trackpoint>
            <Time>2020-01-19T09:56:40.000Z</Time>
            <Position>
              <LatitudeDegrees>38.94374446012079715728759765625</LatitudeDegrees>
              <LongitudeDegrees>-2.814577706158161163330078125</LongitudeDegrees>
            </Position>
            <AltitudeMeters>935.20001220703125</AltitudeMeters>
            <DistanceMeters>54080.852278294</DistanceMeters>
          </Trackpoint>
          <Trackpoint>
            <Time>2020-01-19T09:56:45.000Z</Time>
            <Position>
              <LatitudeDegrees>38.9438082464039325714111328125</LatitudeDegrees>
              <LongitudeDegrees>-2.8146231360733509063720703125</LongitudeDegrees>
            </Position>
            <AltitudeMeters>935.4000244140625</AltitudeMeters>
            <DistanceMeters>54088.968027032</DistanceMeters>
          </Trackpoint>
          <Trackpoint>
            <Time>2020-01-19T09:56:48.000Z</Time>
            <Position>
              <LatitudeDegrees>38.94380682148039340972900390625</LatitudeDegrees>
              <LongitudeDegrees>-2.814626656472682952880859375</LongitudeDegrees>
            </Position>
            <AltitudeMeters>935.4000244140625</AltitudeMeters>
            <DistanceMeters>54089.310650723</DistanceMeters>
          </Trackpoint>
          <Trackpoint>
            <Time>2020-01-19T09:56:53.000Z</Time>
            <Position>
              <LatitudeDegrees>38.94378754310309886932373046875</LatitudeDegrees>
              <LongitudeDegrees>-2.8145805560052394866943359375</LongitudeDegrees>
            </Position>
            <AltitudeMeters>935.4000244140625</AltitudeMeters>
            <DistanceMeters>54093.842139864</DistanceMeters>
          </Trackpoint>
          <Trackpoint>
            <Time>2020-01-19T09:57:27.000Z</Time>
            <Position>
              <LatitudeDegrees>38.943811766803264617919921875</LatitudeDegrees>
              <LongitudeDegrees>-2.81459949910640716552734375</LongitudeDegrees>
            </Position>
            <AltitudeMeters>935.4000244140625</AltitudeMeters>
            <DistanceMeters>54096.998114249</DistanceMeters>
          </Trackpoint>
          <Trackpoint>
            <Time>2020-01-19T09:57:31.000Z</Time>
            <Position>
              <LatitudeDegrees>38.94381302408874034881591796875</LatitudeDegrees>
              <LongitudeDegrees>-2.81464534811675548553466796875</LongitudeDegrees>
            </Position>
            <AltitudeMeters>935.5999755859375</AltitudeMeters>
            <DistanceMeters>54100.969958096</DistanceMeters>
          </Trackpoint>
          <Trackpoint>
            <Time>2020-01-19T09:57:32.000Z</Time>
            <Position>
              <LatitudeDegrees>38.94381453283131122589111328125</LatitudeDegrees>
              <LongitudeDegrees>-2.81464777886867523193359375</LongitudeDegrees>
            </Position>
            <AltitudeMeters>935.5999755859375</AltitudeMeters>
            <DistanceMeters>54101.255038239</DistanceMeters>
          </Trackpoint>
          <Trackpoint>
            <Time>2020-01-19T09:58:07.000Z</Time>
            <Position>
              <LatitudeDegrees>38.94386717118322849273681640625</LatitudeDegrees>
              <LongitudeDegrees>-2.8146875090897083282470703125</LongitudeDegrees>
            </Position>
            <AltitudeMeters>935.5999755859375</AltitudeMeters>
            <DistanceMeters>54108.049282184</DistanceMeters>
          </Trackpoint>
          <Trackpoint>
            <Time>2020-01-19T09:58:10.000Z</Time>
            <Position>
              <LatitudeDegrees>38.9439349807798862457275390625</LatitudeDegrees>
              <LongitudeDegrees>-2.81475313939154148101806640625</LongitudeDegrees>
            </Position>
            <AltitudeMeters>936</AltitudeMeters>
            <DistanceMeters>54117.495721483</DistanceMeters>
          </Trackpoint>
          <Trackpoint>
            <Time>2020-01-19T09:58:12.000Z</Time>
            <Position>
              <LatitudeDegrees>38.94399843178689479827880859375</LatitudeDegrees>
              <LongitudeDegrees>-2.81479798257350921630859375</LongitudeDegrees>
            </Position>
            <AltitudeMeters>936</AltitudeMeters>
            <DistanceMeters>54125.553964449</DistanceMeters>
          </Trackpoint>
          <Trackpoint>
            <Time>2020-01-19T09:58:15.000Z</Time>
            <Position>
              <LatitudeDegrees>38.94410940818488597869873046875</LatitudeDegrees>
              <LongitudeDegrees>-2.81483293510973453521728515625</LongitudeDegrees>
            </Position>
            <AltitudeMeters>936.20001220703125</AltitudeMeters>
            <DistanceMeters>54138.27122316</DistanceMeters>
          </Trackpoint>
          <Trackpoint>
            <Time>2020-01-19T09:58:16.000Z</Time>
            <Position>
              <LatitudeDegrees>38.9441505633294582366943359375</LatitudeDegrees>
              <LongitudeDegrees>-2.81484349630773067474365234375</LongitudeDegrees>
            </Position>
            <AltitudeMeters>936.20001220703125</AltitudeMeters>
            <DistanceMeters>54142.942054423</DistanceMeters>
          </Trackpoint>
          <Trackpoint>
            <Time>2020-01-19T09:58:22.000Z</Time>
            <Position>
              <LatitudeDegrees>38.94438869319856166839599609375</LatitudeDegrees>
              <LongitudeDegrees>-2.81490267254412174224853515625</LongitudeDegrees>
            </Position>
            <AltitudeMeters>936.4000244140625</AltitudeMeters>
            <DistanceMeters>54169.936667013</DistanceMeters>
          </Trackpoint>
          <Trackpoint>
            <Time>2020-01-19T09:58:25.000Z</Time>
            <Position>
              <LatitudeDegrees>38.94452749751508235931396484375</LatitudeDegrees>
              <LongitudeDegrees>-2.81490870751440525054931640625</LongitudeDegrees>
            </Position>
            <AltitudeMeters>936</AltitudeMeters>
            <DistanceMeters>54185.394216065</DistanceMeters>
          </Trackpoint>
          <Trackpoint>
            <Time>2020-01-19T09:58:29.000Z</Time>
            <Position>
              <LatitudeDegrees>38.94471860490739345550537109375</LatitudeDegrees>
              <LongitudeDegrees>-2.8149097971618175506591796875</LongitudeDegrees>
            </Position>
            <AltitudeMeters>935</AltitudeMeters>
            <DistanceMeters>54206.665134715</DistanceMeters>
          </Trackpoint>
          <Trackpoint>
            <Time>2020-01-19T09:58:30.000Z</Time>
            <Position>
              <LatitudeDegrees>38.944767303764820098876953125</LatitudeDegrees>
              <LongitudeDegrees>-2.814904935657978057861328125</LongitudeDegrees>
            </Position>
            <AltitudeMeters>934.79998779296875</AltitudeMeters>
            <DistanceMeters>54212.102456692</DistanceMeters>
          </Trackpoint>
          <Trackpoint>
            <Time>2020-01-19T09:58:35.000Z</Time>
            <Position>
              <LatitudeDegrees>38.9450204372406005859375</LatitudeDegrees>
              <LongitudeDegrees>-2.81483578495681285858154296875</LongitudeDegrees>
            </Position>
            <AltitudeMeters>933.20001220703125</AltitudeMeters>
            <DistanceMeters>54240.905585222</DistanceMeters>
          </Trackpoint>
          <Trackpoint>
            <Time>2020-01-19T09:58:37.000Z</Time>
            <Position>
              <LatitudeDegrees>38.94511900842189788818359375</LatitudeDegrees>
              <LongitudeDegrees>-2.81477292068302631378173828125</LongitudeDegrees>
            </Position>
            <AltitudeMeters>932.5999755859375</AltitudeMeters>
            <DistanceMeters>54253.152608115</DistanceMeters>
          </Trackpoint>
          <Trackpoint>
            <Time>2020-01-19T09:58:42.000Z</Time>
            <Position>
              <LatitudeDegrees>38.94537381827831268310546875</LatitudeDegrees>
              <LongitudeDegrees>-2.814702093601226806640625</LongitudeDegrees>
            </Position>
            <AltitudeMeters>931.4000244140625</AltitudeMeters>
            <DistanceMeters>54282.168607276</DistanceMeters>
          </Trackpoint>
          <Trackpoint>
            <Time>2020-01-19T09:58:45.000Z</Time>
            <Position>
              <LatitudeDegrees>38.94553500227630138397216796875</LatitudeDegrees>
              <LongitudeDegrees>-2.81465456821024417877197265625</LongitudeDegrees>
            </Position>
            <AltitudeMeters>930.79998779296875</AltitudeMeters>
            <DistanceMeters>54300.574376694</DistanceMeters>
          </Trackpoint>
          <Trackpoint>
            <Time>2020-01-19T09:58:51.000Z</Time>
            <Position>
              <LatitudeDegrees>38.9458641596138477325439453125</LatitudeDegrees>
              <LongitudeDegrees>-2.8145554102957248687744140625</LongitudeDegrees>
            </Position>
            <AltitudeMeters>929.5999755859375</AltitudeMeters>
            <DistanceMeters>54338.202315861</DistanceMeters>
          </Trackpoint>
          <Trackpoint>
            <Time>2020-01-19T09:58:53.000Z</Time>
            <Position>
              <LatitudeDegrees>38.94595862366259098052978515625</LatitudeDegrees>
              <LongitudeDegrees>-2.81448776833713054656982421875</LongitudeDegrees>
            </Position>
            <AltitudeMeters>929</AltitudeMeters>
            <DistanceMeters>54350.236990601</DistanceMeters>
          </Trackpoint>
          <Trackpoint>
            <Time>2020-01-19T09:58:55.000Z</Time>
            <Position>
              <LatitudeDegrees>38.94602886401116847991943359375</LatitudeDegrees>
              <LongitudeDegrees>-2.8143842518329620361328125</LongitudeDegrees>
            </Position>
            <AltitudeMeters>928.5999755859375</AltitudeMeters>
            <DistanceMeters>54362.128626195</DistanceMeters>
          </Trackpoint>
          <Trackpoint>
            <Time>2020-01-19T09:58:58.000Z</Time>
            <Position>
              <LatitudeDegrees>38.94613347016274929046630859375</LatitudeDegrees>
              <LongitudeDegrees>-2.814231701195240020751953125</LongitudeDegrees>
            </Position>
            <AltitudeMeters>927.79998779296875</AltitudeMeters>
            <DistanceMeters>54379.733463136</DistanceMeters>
          </Trackpoint>
          <Trackpoint>
            <Time>2020-01-19T09:59:02.000Z</Time>
            <Position>
              <LatitudeDegrees>38.946294151246547698974609375</LatitudeDegrees>
              <LongitudeDegrees>-2.8140286915004253387451171875</LongitudeDegrees>
            </Position>
            <AltitudeMeters>926.79998779296875</AltitudeMeters>
            <DistanceMeters>54404.806473763</DistanceMeters>
          </Trackpoint>
          <Trackpoint>
            <Time>2020-01-19T09:59:04.000Z</Time>
            <Position>
              <LatitudeDegrees>38.94637838937342166900634765625</LatitudeDegrees>
              <LongitudeDegrees>-2.8139390051364898681640625</LongitudeDegrees>
            </Position>
            <AltitudeMeters>926.20001220703125</AltitudeMeters>
            <DistanceMeters>54416.979169617</DistanceMeters>
          </Trackpoint>
          <Trackpoint>
            <Time>2020-01-19T09:59:05.000Z</Time>
            <Position>
              <LatitudeDegrees>38.946425914764404296875</LatitudeDegrees>
              <LongitudeDegrees>-2.8138986043632030487060546875</LongitudeDegrees>
            </Position>
            <AltitudeMeters>926</AltitudeMeters>
            <DistanceMeters>54423.320378524</DistanceMeters>
          </Trackpoint>
          <Trackpoint>
            <Time>2020-01-19T09:59:11.000Z</Time>
            <Position>
              <LatitudeDegrees>38.94669103436172008514404296875</LatitudeDegrees>
              <LongitudeDegrees>-2.8136256895959377288818359375</LongitudeDegrees>
            </Position>
            <AltitudeMeters>924.4000244140625</AltitudeMeters>
            <DistanceMeters>54461.120710746</DistanceMeters>
          </Trackpoint>
          <Trackpoint>
            <Time>2020-01-19T09:59:13.000Z</Time>
            <Position>
              <LatitudeDegrees>38.9467878453433513641357421875</LatitudeDegrees>
              <LongitudeDegrees>-2.81358302570879459381103515625</LongitudeDegrees>
            </Position>
            <AltitudeMeters>923.79998779296875</AltitudeMeters>
            <DistanceMeters>54472.511239195</DistanceMeters>
          </Trackpoint>
          <Trackpoint>
            <Time>2020-01-19T09:59:15.000Z</Time>
            <Position>
              <LatitudeDegrees>38.94689538516104221343994140625</LatitudeDegrees>
              <LongitudeDegrees>-2.813573218882083892822265625</LongitudeDegrees>
            </Position>
            <AltitudeMeters>923.20001220703125</AltitudeMeters>
            <DistanceMeters>54484.510972482</DistanceMeters>
          </Trackpoint>
          <Trackpoint>
            <Time>2020-01-19T09:59:17.000Z</Time>
            <Position>
              <LatitudeDegrees>38.94700602628290653228759765625</LatitudeDegrees>
              <LongitudeDegrees>-2.8135505877435207366943359375</LongitudeDegrees>
            </Position>
            <AltitudeMeters>923</AltitudeMeters>
            <DistanceMeters>54496.980490769</DistanceMeters>
          </Trackpoint>
          <Trackpoint>
            <Time>2020-01-19T09:59:19.000Z</Time>
            <Position>
              <LatitudeDegrees>38.94710442982614040374755859375</LatitudeDegrees>
              <LongitudeDegrees>-2.81348931603133678436279296875</LongitudeDegrees>
            </Position>
            <AltitudeMeters>922.5999755859375</AltitudeMeters>
            <DistanceMeters>54509.149847928</DistanceMeters>
          </Trackpoint>
          <Trackpoint>
            <Time>2020-01-19T09:59:21.000Z</Time>
            <Position>
              <LatitudeDegrees>38.9471828006207942962646484375</LatitudeDegrees>
              <LongitudeDegrees>-2.813400216400623321533203125</LongitudeDegrees>
            </Position>
            <AltitudeMeters>922.4000244140625</AltitudeMeters>
            <DistanceMeters>54520.793625998</DistanceMeters>
          </Trackpoint>
          <Trackpoint>
            <Time>2020-01-19T09:59:23.000Z</Time>
            <Position>
              <LatitudeDegrees>38.9472709782421588897705078125</LatitudeDegrees>
              <LongitudeDegrees>-2.81334581784904003143310546875</LongitudeDegrees>
            </Position>
            <AltitudeMeters>922</AltitudeMeters>
            <DistanceMeters>54531.679059526</DistanceMeters>
          </Trackpoint>
          <Trackpoint>
            <Time>2020-01-19T09:59:25.000Z</Time>
            <Position>
              <LatitudeDegrees>38.947365023195743560791015625</LatitudeDegrees>
              <LongitudeDegrees>-2.8133440576493740081787109375</LongitudeDegrees>
            </Position>
            <AltitudeMeters>921.79998779296875</AltitudeMeters>
            <DistanceMeters>54542.147536384</DistanceMeters>
          </Trackpoint>
          <Trackpoint>
            <Time>2020-01-19T09:59:27.000Z</Time>
            <Position>
              <LatitudeDegrees>38.947449512779712677001953125</LatitudeDegrees>
              <LongitudeDegrees>-2.81340650282800197601318359375</LongitudeDegrees>
            </Position>
            <AltitudeMeters>921.79998779296875</AltitudeMeters>
            <DistanceMeters>54552.994326968</DistanceMeters>
          </Trackpoint>
          <Trackpoint>
            <Time>2020-01-19T09:59:29.000Z</Time>
            <Position>
              <LatitudeDegrees>38.94750290550291538238525390625</LatitudeDegrees>
              <LongitudeDegrees>-2.813508845865726470947265625</LongitudeDegrees>
            </Position>
            <AltitudeMeters>921.79998779296875</AltitudeMeters>
            <DistanceMeters>54563.661895733</DistanceMeters>
          </Trackpoint>
          <Trackpoint>
            <Time>2020-01-19T09:59:31.000Z</Time>
            <Position>
              <LatitudeDegrees>38.947533331811428070068359375</LatitudeDegrees>
              <LongitudeDegrees>-2.8136225044727325439453125</LongitudeDegrees>
            </Position>
            <AltitudeMeters>921.79998779296875</AltitudeMeters>
            <DistanceMeters>54574.066778552</DistanceMeters>
          </Trackpoint>
          <Trackpoint>
            <Time>2020-01-19T09:59:33.000Z</Time>
            <Position>
              <LatitudeDegrees>38.947552777826786041259765625</LatitudeDegrees>
              <LongitudeDegrees>-2.81374513171613216400146484375</LongitudeDegrees>
            </Position>
            <AltitudeMeters>921.5999755859375</AltitudeMeters>
            <DistanceMeters>54584.899823991</DistanceMeters>
          </Trackpoint>
          <Trackpoint>
            <Time>2020-01-19T09:59:35.000Z</Time>
            <Position>
              <LatitudeDegrees>38.9475780911743640899658203125</LatitudeDegrees>
              <LongitudeDegrees>-2.8138613887131214141845703125</LongitudeDegrees>
            </Position>
            <AltitudeMeters>921.5999755859375</AltitudeMeters>
            <DistanceMeters>54595.350170612</DistanceMeters>
          </Trackpoint>
          <Trackpoint>
            <Time>2020-01-19T09:59:37.000Z</Time>
            <Position>
              <LatitudeDegrees>38.94760684110224246978759765625</LatitudeDegrees>
              <LongitudeDegrees>-2.81396775506436824798583984375</LongitudeDegrees>
            </Position>
            <AltitudeMeters>921.4000244140625</AltitudeMeters>
            <DistanceMeters>54605.097706934</DistanceMeters>
          </Trackpoint>
          <Trackpoint>
            <Time>2020-01-19T09:59:43.000Z</Time>
            <Position>
              <LatitudeDegrees>38.947692923247814178466796875</LatitudeDegrees>
              <LongitudeDegrees>-2.81430001370608806610107421875</LongitudeDegrees>
            </Position>
            <AltitudeMeters>921.4000244140625</AltitudeMeters>
            <DistanceMeters>54635.412569291</DistanceMeters>
          </Trackpoint>
          <Trackpoint>
            <Time>2020-01-19T09:59:45.000Z</Time>
            <Position>
              <LatitudeDegrees>38.947713375091552734375</LatitudeDegrees>
              <LongitudeDegrees>-2.814417444169521331787109375</LongitudeDegrees>
            </Position>
            <AltitudeMeters>921.79998779296875</AltitudeMeters>
            <DistanceMeters>54645.829595192</DistanceMeters>
          </Trackpoint>
          <Trackpoint>
            <Time>2020-01-19T09:59:49.000Z</Time>
            <Position>
              <LatitudeDegrees>38.94774078391492366790771484375</LatitudeDegrees>
              <LongitudeDegrees>-2.8146673925220966339111328125</LongitudeDegrees>
            </Position>
            <AltitudeMeters>922.5999755859375</AltitudeMeters>
            <DistanceMeters>54667.679541224</DistanceMeters>
          </Trackpoint>
          <Trackpoint>
            <Time>2020-01-19T09:59:52.000Z</Time>
            <Position>
              <LatitudeDegrees>38.94775939173996448516845703125</LatitudeDegrees>
              <LongitudeDegrees>-2.81485824845731258392333984375</LongitudeDegrees>
            </Position>
            <AltitudeMeters>923.4000244140625</AltitudeMeters>
            <DistanceMeters>54684.329566654</DistanceMeters>
          </Trackpoint>
          <Trackpoint>
            <Time>2020-01-19T09:59:55.000Z</Time>
            <Position>
              <LatitudeDegrees>38.94779258407652378082275390625</LatitudeDegrees>
              <LongitudeDegrees>-2.81505304388701915740966796875</LongitudeDegrees>
            </Position>
            <AltitudeMeters>923.79998779296875</AltitudeMeters>
            <DistanceMeters>54701.591503466</DistanceMeters>
          </Trackpoint>
          <Trackpoint>
            <Time>2020-01-19T10:00:00.000Z</Time>
            <Position>
              <LatitudeDegrees>38.94788847304880619049072265625</LatitudeDegrees>
              <LongitudeDegrees>-2.8153578937053680419921875</LongitudeDegrees>
            </Position>
            <AltitudeMeters>923.79998779296875</AltitudeMeters>
            <DistanceMeters>54730.056406402</DistanceMeters>
          </Trackpoint>
          <Trackpoint>
            <Time>2020-01-19T10:00:05.000Z</Time>
            <Position>
              <LatitudeDegrees>38.947940357029438018798828125</LatitudeDegrees>
              <LongitudeDegrees>-2.81567883677780628204345703125</LongitudeDegrees>
            </Position>
            <AltitudeMeters>924</AltitudeMeters>
            <DistanceMeters>54758.431548798</DistanceMeters>
          </Trackpoint>
          <Trackpoint>
            <Time>2020-01-19T10:00:12.000Z</Time>
            <Position>
              <LatitudeDegrees>38.94797313027083873748779296875</LatitudeDegrees>
              <LongitudeDegrees>-2.8161446191370487213134765625</LongitudeDegrees>
            </Position>
            <AltitudeMeters>923.20001220703125</AltitudeMeters>
            <DistanceMeters>54798.915159732</DistanceMeters>
          </Trackpoint>
          <Trackpoint>
            <Time>2020-01-19T10:00:15.000Z</Time>
            <Position>
              <LatitudeDegrees>38.9479757286608219146728515625</LatitudeDegrees>
              <LongitudeDegrees>-2.81633949838578701019287109375</LongitudeDegrees>
            </Position>
            <AltitudeMeters>923</AltitudeMeters>
            <DistanceMeters>54815.78661698</DistanceMeters>
          </Trackpoint>
          <Trackpoint>
            <Time>2020-01-19T10:00:25.000Z</Time>
            <Position>
              <LatitudeDegrees>38.94792996346950531005859375</LatitudeDegrees>
              <LongitudeDegrees>-2.816986329853534698486328125</LongitudeDegrees>
            </Position>
            <AltitudeMeters>922.20001220703125</AltitudeMeters>
            <DistanceMeters>54872.008632674</DistanceMeters>
          </Trackpoint>
          <Trackpoint>
            <Time>2020-01-19T10:00:35.000Z</Time>
            <Position>
              <LatitudeDegrees>38.94794094376266002655029296875</LatitudeDegrees>
              <LongitudeDegrees>-2.81760399229824542999267578125</LongitudeDegrees>
            </Position>
            <AltitudeMeters>921.20001220703125</AltitudeMeters>
            <DistanceMeters>54925.488499092</DistanceMeters>
          </Trackpoint>
          <Trackpoint>
            <Time>2020-01-19T10:00:45.000Z</Time>
            <Position>
              <LatitudeDegrees>38.94799165427684783935546875</LatitudeDegrees>
              <LongitudeDegrees>-2.81823062337934970855712890625</LongitudeDegrees>
            </Position>
            <AltitudeMeters>921</AltitudeMeters>
            <DistanceMeters>54980.023402382</DistanceMeters>
          </Trackpoint>
          <Trackpoint>
            <Time>2020-01-19T10:00:48.000Z</Time>
            <Position>
              <LatitudeDegrees>38.947980590164661407470703125</LatitudeDegrees>
              <LongitudeDegrees>-2.81841368414461612701416015625</LongitudeDegrees>
            </Position>
            <AltitudeMeters>920.79998779296875</AltitudeMeters>
            <DistanceMeters>54995.917028728</DistanceMeters>
          </Trackpoint>
          <Trackpoint>
            <Time>2020-01-19T10:00:55.000Z</Time>
            <Position>
              <LatitudeDegrees>38.94801721908152103424072265625</LatitudeDegrees>
              <LongitudeDegrees>-2.8188241459429264068603515625</LongitudeDegrees>
            </Position>
            <AltitudeMeters>920.5999755859375</AltitudeMeters>
            <DistanceMeters>55031.680291967</DistanceMeters>
          </Trackpoint>
          <Trackpoint>
            <Time>2020-01-19T10:00:59.000Z</Time>
            <Position>
              <LatitudeDegrees>38.94806583411991596221923828125</LatitudeDegrees>
              <LongitudeDegrees>-2.8190554864704608917236328125</LongitudeDegrees>
            </Position>
            <AltitudeMeters>920.5999755859375</AltitudeMeters>
            <DistanceMeters>55052.42355937</DistanceMeters>
          </Trackpoint>
          <Trackpoint>
            <Time>2020-01-19T10:01:05.000Z</Time>
            <Position>
              <LatitudeDegrees>38.94814294762909412384033203125</LatitudeDegrees>
              <LongitudeDegrees>-2.81940333545207977294921875</LongitudeDegrees>
            </Position>
            <AltitudeMeters>920.5999755859375</AltitudeMeters>
            <DistanceMeters>55083.733095275</DistanceMeters>
          </Trackpoint>
          <Trackpoint>
            <Time>2020-01-19T10:01:11.000Z</Time>
            <Position>
              <LatitudeDegrees>38.9481792412698268890380859375</LatitudeDegrees>
              <LongitudeDegrees>-2.81977624632418155670166015625</LongitudeDegrees>
            </Position>
            <AltitudeMeters>920.4000244140625</AltitudeMeters>
            <DistanceMeters>55116.264446906</DistanceMeters>
          </Trackpoint>
          <Trackpoint>
            <Time>2020-01-19T10:01:15.000Z</Time>
            <Position>
              <LatitudeDegrees>38.94826448522508144378662109375</LatitudeDegrees>
              <LongitudeDegrees>-2.82002049498260021209716796875</LongitudeDegrees>
            </Position>
            <AltitudeMeters>920.20001220703125</AltitudeMeters>
            <DistanceMeters>55139.438109675</DistanceMeters>
          </Trackpoint>
          <Trackpoint>
            <Time>2020-01-19T10:01:18.000Z</Time>
            <Position>
              <LatitudeDegrees>38.9483334682881832122802734375</LatitudeDegrees>
              <LongitudeDegrees>-2.82019617967307567596435546875</LongitudeDegrees>
            </Position>
            <AltitudeMeters>919.5999755859375</AltitudeMeters>
            <DistanceMeters>55156.474149617</DistanceMeters>
          </Trackpoint>
          <Trackpoint>
            <Time>2020-01-19T10:01:20.000Z</Time>
            <Position>
              <LatitudeDegrees>38.9483354799449443817138671875</LatitudeDegrees>
              <LongitudeDegrees>-2.82028838060796260833740234375</LongitudeDegrees>
            </Position>
            <AltitudeMeters>919.5999755859375</AltitudeMeters>
            <DistanceMeters>55164.458090349</DistanceMeters>
          </Trackpoint>
          <Trackpoint>
            <Time>2020-01-19T10:01:25.000Z</Time>
            <Position>
              <LatitudeDegrees>38.9482295326888561248779296875</LatitudeDegrees>
              <LongitudeDegrees>-2.820383347570896148681640625</LongitudeDegrees>
            </Position>
            <AltitudeMeters>919.79998779296875</AltitudeMeters>
            <DistanceMeters>55178.832588921</DistanceMeters>
          </Trackpoint>
          <Trackpoint>
            <Time>2020-01-19T10:01:26.000Z</Time>
            <Position>
              <LatitudeDegrees>38.948209248483180999755859375</LatitudeDegrees>
              <LongitudeDegrees>-2.82041243277490139007568359375</LongitudeDegrees>
            </Position>
            <AltitudeMeters>919.79998779296875</AltitudeMeters>
            <DistanceMeters>55182.213724348</DistanceMeters>
          </Trackpoint>
          <Trackpoint>
            <Time>2020-01-19T10:01:35.000Z</Time>
            <Position>
              <LatitudeDegrees>38.94808846525847911834716796875</LatitudeDegrees>
              <LongitudeDegrees>-2.820769585669040679931640625</LongitudeDegrees>
            </Position>
            <AltitudeMeters>919.79998779296875</AltitudeMeters>
            <DistanceMeters>55215.925849186</DistanceMeters>
          </Trackpoint>
          <Trackpoint>
            <Time>2020-01-19T10:01:45.000Z</Time>
            <Position>
              <LatitudeDegrees>38.94800531677901744842529296875</LatitudeDegrees>
              <LongitudeDegrees>-2.82122346572577953338623046875</LongitudeDegrees>
            </Position>
            <AltitudeMeters>920</AltitudeMeters>
            <DistanceMeters>55256.289501798</DistanceMeters>
          </Trackpoint>
          <Trackpoint>
            <Time>2020-01-19T10:01:49.000Z</Time>
            <Position>
              <LatitudeDegrees>38.9479877986013889312744140625</LatitudeDegrees>
              <LongitudeDegrees>-2.8214272297918796539306640625</LongitudeDegrees>
            </Position>
            <AltitudeMeters>920.20001220703125</AltitudeMeters>
            <DistanceMeters>55274.035343167</DistanceMeters>
          </Trackpoint>
          <Trackpoint>
            <Time>2020-01-19T10:01:55.000Z</Time>
            <Position>
              <LatitudeDegrees>38.9479856193065643310546875</LatitudeDegrees>
              <LongitudeDegrees>-2.82173560000956058502197265625</LongitudeDegrees>
            </Position>
            <AltitudeMeters>919.79998779296875</AltitudeMeters>
            <DistanceMeters>55300.729563372</DistanceMeters>
          </Trackpoint>
          <Trackpoint>
            <Time>2020-01-19T10:02:03.000Z</Time>
            <Position>
              <LatitudeDegrees>38.947890736162662506103515625</LatitudeDegrees>
              <LongitudeDegrees>-2.822136841714382171630859375</LongitudeDegrees>
            </Position>
            <AltitudeMeters>919.79998779296875</AltitudeMeters>
            <DistanceMeters>55337.031758295</DistanceMeters>
          </Trackpoint>
          <Trackpoint>
            <Time>2020-01-19T10:02:05.000Z</Time>
            <Position>
              <LatitudeDegrees>38.947857879102230072021484375</LatitudeDegrees>
              <LongitudeDegrees>-2.8222323954105377197265625</LongitudeDegrees>
            </Position>
            <AltitudeMeters>919.79998779296875</AltitudeMeters>
            <DistanceMeters>55346.075785741</DistanceMeters>
          </Trackpoint>
          <Trackpoint>
            <Time>2020-01-19T10:02:06.000Z</Time>
            <Position>
              <LatitudeDegrees>38.94783767871558666229248046875</LatitudeDegrees>
              <LongitudeDegrees>-2.8222781606018543243408203125</LongitudeDegrees>
            </Position>
            <AltitudeMeters>919.79998779296875</AltitudeMeters>
            <DistanceMeters>55350.631124989</DistanceMeters>
          </Trackpoint>
          <Trackpoint>
            <Time>2020-01-19T10:02:13.000Z</Time>
            <Position>
              <LatitudeDegrees>38.94766802899539470672607421875</LatitudeDegrees>
              <LongitudeDegrees>-2.82254177145659923553466796875</LongitudeDegrees>
            </Position>
            <AltitudeMeters>920</AltitudeMeters>
            <DistanceMeters>55380.249291817</DistanceMeters>
          </Trackpoint>
          <Trackpoint>
            <Time>2020-01-19T10:02:15.000Z</Time>
            <Position>
              <LatitudeDegrees>38.94769468344748020172119140625</LatitudeDegrees>
              <LongitudeDegrees>-2.82258954830467700958251953125</LongitudeDegrees>
            </Position>
            <AltitudeMeters>920</AltitudeMeters>
            <DistanceMeters>55385.340099159</DistanceMeters>
          </Trackpoint>
          <Trackpoint>
            <Time>2020-01-19T10:02:20.000Z</Time>
            <Position>
              <LatitudeDegrees>38.94776525907218456268310546875</LatitudeDegrees>
              <LongitudeDegrees>-2.8227312862873077392578125</LongitudeDegrees>
            </Position>
            <AltitudeMeters>920</AltitudeMeters>
            <DistanceMeters>55399.908658344</DistanceMeters>
          </Trackpoint>
          <Trackpoint>
            <Time>2020-01-19T10:02:25.000Z</Time>
            <Position>
              <LatitudeDegrees>38.947780095040798187255859375</LatitudeDegrees>
              <LongitudeDegrees>-2.822942845523357391357421875</LongitudeDegrees>
            </Position>
            <AltitudeMeters>920</AltitudeMeters>
            <DistanceMeters>55418.295775086</DistanceMeters>
          </Trackpoint>
          <Trackpoint>
            <Time>2020-01-19T10:02:35.000Z</Time>
            <Position>
              <LatitudeDegrees>38.94792786799371242523193359375</LatitudeDegrees>
              <LongitudeDegrees>-2.82332799397408962249755859375</LongitudeDegrees>
            </Position>
            <AltitudeMeters>919.5999755859375</AltitudeMeters>
            <DistanceMeters>55455.471265391</DistanceMeters>
          </Trackpoint>
          <Trackpoint>
            <Time>2020-01-19T10:02:45.000Z</Time>
            <Position>
              <LatitudeDegrees>38.9479998685419559478759765625</LatitudeDegrees>
              <LongitudeDegrees>-2.8238014876842498779296875</LongitudeDegrees>
            </Position>
            <AltitudeMeters>919.4000244140625</AltitudeMeters>
            <DistanceMeters>55497.233533343</DistanceMeters>
          </Trackpoint>
          <Trackpoint>
            <Time>2020-01-19T10:02:54.000Z</Time>
            <Position>
              <LatitudeDegrees>38.94800749607384204864501953125</LatitudeDegrees>
              <LongitudeDegrees>-2.82427883706986904144287109375</LongitudeDegrees>
            </Position>
            <AltitudeMeters>919.4000244140625</AltitudeMeters>
            <DistanceMeters>55538.562179819</DistanceMeters>
          </Trackpoint>
          <Trackpoint>
            <Time>2020-01-19T10:02:55.000Z</Time>
            <Position>
              <LatitudeDegrees>38.948014117777347564697265625</LatitudeDegrees>
              <LongitudeDegrees>-2.824333570897579193115234375</LongitudeDegrees>
            </Position>
            <AltitudeMeters>919.4000244140625</AltitudeMeters>
            <DistanceMeters>55543.357028579</DistanceMeters>
          </Trackpoint>
          <Trackpoint>
            <Time>2020-01-19T10:02:57.000Z</Time>
            <Position>
              <LatitudeDegrees>38.94802325405180454254150390625</LatitudeDegrees>
              <LongitudeDegrees>-2.824442870914936065673828125</LongitudeDegrees>
            </Position>
            <AltitudeMeters>919.4000244140625</AltitudeMeters>
            <DistanceMeters>55552.872994456</DistanceMeters>
          </Trackpoint>
          <Trackpoint>
            <Time>2020-01-19T10:03:05.000Z</Time>
            <Position>
              <LatitudeDegrees>38.94803314469754695892333984375</LatitudeDegrees>
              <LongitudeDegrees>-2.824866659939289093017578125</LongitudeDegrees>
            </Position>
            <AltitudeMeters>919.20001220703125</AltitudeMeters>
            <DistanceMeters>55589.573241625</DistanceMeters>
          </Trackpoint>
          <Trackpoint>
            <Time>2020-01-19T10:03:14.000Z</Time>
            <Position>
              <LatitudeDegrees>38.94793340004980564117431640625</LatitudeDegrees>
              <LongitudeDegrees>-2.825316600501537322998046875</LongitudeDegrees>
            </Position>
            <AltitudeMeters>919.20001220703125</AltitudeMeters>
            <DistanceMeters>55630.072017467</DistanceMeters>
          </Trackpoint>
          <Trackpoint>
            <Time>2020-01-19T10:03:15.000Z</Time>
            <Position>
              <LatitudeDegrees>38.94792602397501468658447265625</LatitudeDegrees>
              <LongitudeDegrees>-2.82536999322474002838134765625</LongitudeDegrees>
            </Position>
            <AltitudeMeters>919.20001220703125</AltitudeMeters>
            <DistanceMeters>55634.765990892</DistanceMeters>
          </Trackpoint>
          <Trackpoint>
            <Time>2020-01-19T10:03:16.000Z</Time>
            <Position>
              <LatitudeDegrees>38.94792568869888782501220703125</LatitudeDegrees>
              <LongitudeDegrees>-2.82542355358600616455078125</LongitudeDegrees>
            </Position>
            <AltitudeMeters>919.20001220703125</AltitudeMeters>
            <DistanceMeters>55639.402866135</DistanceMeters>
          </Trackpoint>
          <Trackpoint>
            <Time>2020-01-19T10:03:18.000Z</Time>
            <Position>
              <LatitudeDegrees>38.947937674820423126220703125</LatitudeDegrees>
              <LongitudeDegrees>-2.8255269862711429595947265625</LongitudeDegrees>
            </Position>
            <AltitudeMeters>919</AltitudeMeters>
            <DistanceMeters>55648.454877715</DistanceMeters>
          </Trackpoint>
          <Trackpoint>
            <Time>2020-01-19T10:03:20.000Z</Time>
            <Position>
              <LatitudeDegrees>38.9479670114815235137939453125</LatitudeDegrees>
              <LongitudeDegrees>-2.82562631182372570037841796875</LongitudeDegrees>
            </Position>
            <AltitudeMeters>918.79998779296875</AltitudeMeters>
            <DistanceMeters>55657.651382267</DistanceMeters>
          </Trackpoint>
          <Trackpoint>
            <Time>2020-01-19T10:03:25.000Z</Time>
            <Position>
              <LatitudeDegrees>38.9480634033679962158203125</LatitudeDegrees>
              <LongitudeDegrees>-2.82585714943706989288330078125</LongitudeDegrees>
            </Position>
            <AltitudeMeters>919</AltitudeMeters>
            <DistanceMeters>55680.33113567</DistanceMeters>
          </Trackpoint>
          <Trackpoint>
            <Time>2020-01-19T10:03:35.000Z</Time>
            <Position>
              <LatitudeDegrees>38.94815032370388507843017578125</LatitudeDegrees>
              <LongitudeDegrees>-2.8263256140053272247314453125</LongitudeDegrees>
            </Position>
            <AltitudeMeters>919</AltitudeMeters>
            <DistanceMeters>55722.020038662</DistanceMeters>
          </Trackpoint>
          <Trackpoint>
            <Time>2020-01-19T10:03:39.000Z</Time>
            <Position>
              <LatitudeDegrees>38.94806030206382274627685546875</LatitudeDegrees>
              <LongitudeDegrees>-2.8264845348894596099853515625</LongitudeDegrees>
            </Position>
            <AltitudeMeters>919</AltitudeMeters>
            <DistanceMeters>55739.038843025</DistanceMeters>
          </Trackpoint>
          <Trackpoint>
            <Time>2020-01-19T10:03:41.000Z</Time>
            <Position>
              <LatitudeDegrees>38.9480598829686641693115234375</LatitudeDegrees>
              <LongitudeDegrees>-2.82658503390848636627197265625</LongitudeDegrees>
            </Position>
            <AltitudeMeters>919.20001220703125</AltitudeMeters>
            <DistanceMeters>55747.738848815</DistanceMeters>
          </Trackpoint>
          <Trackpoint>
            <Time>2020-01-19T10:03:45.000Z</Time>
            <Position>
              <LatitudeDegrees>38.94816960208117961883544921875</LatitudeDegrees>
              <LongitudeDegrees>-2.826712019741535186767578125</LongitudeDegrees>
            </Position>
            <AltitudeMeters>919.5999755859375</AltitudeMeters>
            <DistanceMeters>55764.16940466</DistanceMeters>
          </Trackpoint>
          <Trackpoint>
            <Time>2020-01-19T10:03:53.000Z</Time>
            <Position>
              <LatitudeDegrees>38.9480776526033878326416015625</LatitudeDegrees>
              <LongitudeDegrees>-2.82702474854886531829833984375</LongitudeDegrees>
            </Position>
            <AltitudeMeters>919.4000244140625</AltitudeMeters>
            <DistanceMeters>55793.109524911</DistanceMeters>
          </Trackpoint>
          <Trackpoint>
            <Time>2020-01-19T10:03:55.000Z</Time>
            <Position>
              <LatitudeDegrees>38.9480934105813503265380859375</LatitudeDegrees>
              <LongitudeDegrees>-2.8270652331411838531494140625</LongitudeDegrees>
            </Position>
            <AltitudeMeters>919.4000244140625</AltitudeMeters>
            <DistanceMeters>55797.027576717</DistanceMeters>
          </Trackpoint>
          <Trackpoint>
            <Time>2020-01-19T10:04:05.000Z</Time>
            <Position>
              <LatitudeDegrees>38.9482717774808406829833984375</LatitudeDegrees>
              <LongitudeDegrees>-2.827308811247348785400390625</LongitudeDegrees>
            </Position>
            <AltitudeMeters>919.5999755859375</AltitudeMeters>
            <DistanceMeters>55825.987347947</DistanceMeters>
          </Trackpoint>
          <Trackpoint>
            <Time>2020-01-19T10:04:15.000Z</Time>
            <Position>
              <LatitudeDegrees>38.9483059756457805633544921875</LatitudeDegrees>
              <LongitudeDegrees>-2.8276650421321392059326171875</LongitudeDegrees>
            </Position>
            <AltitudeMeters>918.79998779296875</AltitudeMeters>
            <DistanceMeters>55857.057014858</DistanceMeters>
          </Trackpoint>
          <Trackpoint>
            <Time>2020-01-19T10:04:21.000Z</Time>
            <Position>
              <LatitudeDegrees>38.94840965978801250457763671875</LatitudeDegrees>
              <LongitudeDegrees>-2.82789118587970733642578125</LongitudeDegrees>
            </Position>
            <AltitudeMeters>918.20001220703125</AltitudeMeters>
            <DistanceMeters>55879.78072189</DistanceMeters>
          </Trackpoint>
          <Trackpoint>
            <Time>2020-01-19T10:04:25.000Z</Time>
            <Position>
              <LatitudeDegrees>38.9484856836497783660888671875</LatitudeDegrees>
              <LongitudeDegrees>-2.82804298214614391326904296875</LongitudeDegrees>
            </Position>
            <AltitudeMeters>918.20001220703125</AltitudeMeters>
            <DistanceMeters>55895.409077775</DistanceMeters>
          </Trackpoint>
          <Trackpoint>
            <Time>2020-01-19T10:04:35.000Z</Time>
            <Position>
              <LatitudeDegrees>38.94862909801304340362548828125</LatitudeDegrees>
              <LongitudeDegrees>-2.82849074341356754302978515625</LongitudeDegrees>
            </Position>
            <AltitudeMeters>918.20001220703125</AltitudeMeters>
            <DistanceMeters>55937.325877438</DistanceMeters>
          </Trackpoint>
          <Trackpoint>
            <Time>2020-01-19T10:04:38.000Z</Time>
            <Position>
              <LatitudeDegrees>38.94866966642439365386962890625</LatitudeDegrees>
              <LongitudeDegrees>-2.82861026935279369354248046875</LongitudeDegrees>
            </Position>
            <AltitudeMeters>918.20001220703125</AltitudeMeters>
            <DistanceMeters>55948.614475171</DistanceMeters>
          </Trackpoint>
          <Trackpoint>
            <Time>2020-01-19T10:04:45.000Z</Time>
            <Position>
              <LatitudeDegrees>38.94871509633958339691162109375</LatitudeDegrees>
              <LongitudeDegrees>-2.82893280498683452606201171875</LongitudeDegrees>
            </Position>
            <AltitudeMeters>918</AltitudeMeters>
            <DistanceMeters>55976.987708069</DistanceMeters>
          </Trackpoint>
          <Trackpoint>
            <Time>2020-01-19T10:04:50.000Z</Time>
            <Position>
              <LatitudeDegrees>38.94880142994225025177001953125</LatitudeDegrees>
              <LongitudeDegrees>-2.82911284826695919036865234375</LongitudeDegrees>
            </Position>
            <AltitudeMeters>918.5999755859375</AltitudeMeters>
            <DistanceMeters>55995.296571981</DistanceMeters>
          </Trackpoint>
          <Trackpoint>
            <Time>2020-01-19T10:04:55.000Z</Time>
            <Position>
              <LatitudeDegrees>38.9489631168544292449951171875</LatitudeDegrees>
              <LongitudeDegrees>-2.82912240363657474517822265625</LongitudeDegrees>
            </Position>
            <AltitudeMeters>920</AltitudeMeters>
            <DistanceMeters>56013.311592031</DistanceMeters>
          </Trackpoint>
          <Trackpoint>
            <Time>2020-01-19T10:05:05.000Z</Time>
            <Position>
              <LatitudeDegrees>38.949278779327869415283203125</LatitudeDegrees>
              <LongitudeDegrees>-2.82891486771404743194580078125</LongitudeDegrees>
            </Position>
            <AltitudeMeters>922.20001220703125</AltitudeMeters>
            <DistanceMeters>56052.771828493</DistanceMeters>
          </Trackpoint>
          <Trackpoint>
            <Time>2020-01-19T10:05:15.000Z</Time>
            <Position>
              <LatitudeDegrees>38.94957910291850566864013671875</LatitudeDegrees>
              <LongitudeDegrees>-2.8286175616085529327392578125</LongitudeDegrees>
            </Position>
            <AltitudeMeters>922.79998779296875</AltitudeMeters>
            <DistanceMeters>56094.957268461</DistanceMeters>
          </Trackpoint>
          <Trackpoint>
            <Time>2020-01-19T10:05:16.000Z</Time>
            <Position>
              <LatitudeDegrees>38.949612714350223541259765625</LatitudeDegrees>
              <LongitudeDegrees>-2.8285919129848480224609375</LongitudeDegrees>
            </Position>
            <AltitudeMeters>922.79998779296875</AltitudeMeters>
            <DistanceMeters>56099.307790295</DistanceMeters>
          </Trackpoint>
          <Trackpoint>
            <Time>2020-01-19T10:05:18.000Z</Time>
            <Position>
              <LatitudeDegrees>38.9496702142059803009033203125</LatitudeDegrees>
              <LongitudeDegrees>-2.828515470027923583984375</LongitudeDegrees>
            </Position>
            <AltitudeMeters>922.5999755859375</AltitudeMeters>
            <DistanceMeters>56108.513127733</DistanceMeters>
          </Trackpoint>
          <Trackpoint>
            <Time>2020-01-19T10:05:20.000Z</Time>
            <Position>
              <LatitudeDegrees>38.9497312344610691070556640625</LatitudeDegrees>
              <LongitudeDegrees>-2.8284448944032192230224609375</LongitudeDegrees>
            </Position>
            <AltitudeMeters>922.5999755859375</AltitudeMeters>
            <DistanceMeters>56117.648057203</DistanceMeters>
          </Trackpoint>
          <Trackpoint>
            <Time>2020-01-19T10:05:23.000Z</Time>
            <Position>
              <LatitudeDegrees>38.9498328231275081634521484375</LatitudeDegrees>
              <LongitudeDegrees>-2.82836015336215496063232421875</LongitudeDegrees>
            </Position>
            <AltitudeMeters>922.4000244140625</AltitudeMeters>
            <DistanceMeters>56131.125780221</DistanceMeters>
          </Trackpoint>
          <Trackpoint>
            <Time>2020-01-19T10:05:25.000Z</Time>
            <Position>
              <LatitudeDegrees>38.94991303794085979461669921875</LatitudeDegrees>
              <LongitudeDegrees>-2.8283250331878662109375</LongitudeDegrees>
            </Position>
            <AltitudeMeters>922.5999755859375</AltitudeMeters>
            <DistanceMeters>56140.556912336</DistanceMeters>
          </Trackpoint>
          <Trackpoint>
            <Time>2020-01-19T10:05:26.000Z</Time>
            <Position>
              <LatitudeDegrees>38.94995427690446376800537109375</LatitudeDegrees>
              <LongitudeDegrees>-2.8283060900866985321044921875</LongitudeDegrees>
            </Position>
            <AltitudeMeters>922.5999755859375</AltitudeMeters>
            <DistanceMeters>56145.432069892</DistanceMeters>
          </Trackpoint>
          <Trackpoint>
            <Time>2020-01-19T10:05:29.000Z</Time>
            <Position>
              <LatitudeDegrees>38.95005988888442516326904296875</LatitudeDegrees>
              <LongitudeDegrees>-2.8282500989735126495361328125</LongitudeDegrees>
            </Position>
            <AltitudeMeters>922.5999755859375</AltitudeMeters>
            <DistanceMeters>56158.14719823</DistanceMeters>
          </Trackpoint>
          <Trackpoint>
            <Time>2020-01-19T10:05:32.000Z</Time>
            <Position>
              <LatitudeDegrees>38.950128369033336639404296875</LatitudeDegrees>
              <LongitudeDegrees>-2.828283794224262237548828125</LongitudeDegrees>
            </Position>
            <AltitudeMeters>922.79998779296875</AltitudeMeters>
            <DistanceMeters>56166.30788532</DistanceMeters>
          </Trackpoint>
          <Trackpoint>
            <Time>2020-01-19T10:05:35.000Z</Time>
            <Position>
              <LatitudeDegrees>38.950188718736171722412109375</LatitudeDegrees>
              <LongitudeDegrees>-2.82830785028636455535888671875</LongitudeDegrees>
            </Position>
            <AltitudeMeters>922.79998779296875</AltitudeMeters>
            <DistanceMeters>56173.339862183</DistanceMeters>
          </Trackpoint>
          <Trackpoint>
            <Time>2020-01-19T10:05:38.000Z</Time>
            <Position>
              <LatitudeDegrees>38.95024764351546764373779296875</LatitudeDegrees>
              <LongitudeDegrees>-2.828341461718082427978515625</LongitudeDegrees>
            </Position>
            <AltitudeMeters>923</AltitudeMeters>
            <DistanceMeters>56180.515480337</DistanceMeters>
          </Trackpoint>
          <Trackpoint>
            <Time>2020-01-19T10:05:43.000Z</Time>
            <Position>
              <LatitudeDegrees>38.95033397711813449859619140625</LatitudeDegrees>
              <LongitudeDegrees>-2.82848395407199859619140625</LongitudeDegrees>
            </Position>
            <AltitudeMeters>923.20001220703125</AltitudeMeters>
            <DistanceMeters>56196.150768294</DistanceMeters>
          </Trackpoint>
          <Trackpoint>
            <Time>2020-01-19T10:05:44.000Z</Time>
            <Position>
              <LatitudeDegrees>38.95035945810377597808837890625</LatitudeDegrees>
              <LongitudeDegrees>-2.828515134751796722412109375</LongitudeDegrees>
            </Position>
            <AltitudeMeters>923.20001220703125</AltitudeMeters>
            <DistanceMeters>56200.066514685</DistanceMeters>
          </Trackpoint>
          <Trackpoint>
            <Time>2020-01-19T10:05:45.000Z</Time>
            <Position>
              <LatitudeDegrees>38.9503942430019378662109375</LatitudeDegrees>
              <LongitudeDegrees>-2.82853583805263042449951171875</LongitudeDegrees>
            </Position>
            <AltitudeMeters>923.20001220703125</AltitudeMeters>
            <DistanceMeters>56204.333203578</DistanceMeters>
          </Trackpoint>
          <Trackpoint>
            <Time>2020-01-19T10:05:48.000Z</Time>
            <Position>
              <LatitudeDegrees>38.95051100291311740875244140625</LatitudeDegrees>
              <LongitudeDegrees>-2.82859602011740207672119140625</LongitudeDegrees>
            </Position>
            <AltitudeMeters>923.20001220703125</AltitudeMeters>
            <DistanceMeters>56218.334092816</DistanceMeters>
          </Trackpoint>
          <Trackpoint>
            <Time>2020-01-19T10:05:50.000Z</Time>
            <Position>
              <LatitudeDegrees>38.95057487301528453826904296875</LatitudeDegrees>
              <LongitudeDegrees>-2.82866843976080417633056640625</LongitudeDegrees>
            </Position>
            <AltitudeMeters>923.4000244140625</AltitudeMeters>
            <DistanceMeters>56227.812501466</DistanceMeters>
          </Trackpoint>
          <Trackpoint>
            <Time>2020-01-19T10:05:53.000Z</Time>
            <Position>
              <LatitudeDegrees>38.9506425149738788604736328125</LatitudeDegrees>
              <LongitudeDegrees>-2.82881629653275012969970703125</LongitudeDegrees>
            </Position>
            <AltitudeMeters>923.5999755859375</AltitudeMeters>
            <DistanceMeters>56242.661318811</DistanceMeters>
          </Trackpoint>
          <Trackpoint>
            <Time>2020-01-19T10:05:55.000Z</Time>
            <Position>
              <LatitudeDegrees>38.95071753300726413726806640625</LatitudeDegrees>
              <LongitudeDegrees>-2.8288891352713108062744140625</LongitudeDegrees>
            </Position>
            <AltitudeMeters>923.4000244140625</AltitudeMeters>
            <DistanceMeters>56253.123755747</DistanceMeters>
          </Trackpoint>
          <Trackpoint>
            <Time>2020-01-19T10:05:57.000Z</Time>
            <Position>
              <LatitudeDegrees>38.9507937245070934295654296875</LatitudeDegrees>
              <LongitudeDegrees>-2.82896314747631549835205078125</LongitudeDegrees>
            </Position>
            <AltitudeMeters>923.4000244140625</AltitudeMeters>
            <DistanceMeters>56263.751464633</DistanceMeters>
          </Trackpoint>
          <Trackpoint>
            <Time>2020-01-19T10:06:00.000Z</Time>
            <Position>
              <LatitudeDegrees>38.9508902840316295623779296875</LatitudeDegrees>
              <LongitudeDegrees>-2.82911167480051517486572265625</LongitudeDegrees>
            </Position>
            <AltitudeMeters>923.20001220703125</AltitudeMeters>
            <DistanceMeters>56280.508530519</DistanceMeters>
          </Trackpoint>
          <Trackpoint>
            <Time>2020-01-19T10:06:05.000Z</Time>
            <Position>
              <LatitudeDegrees>38.95105482079088687896728515625</LatitudeDegrees>
              <LongitudeDegrees>-2.829347960650920867919921875</LongitudeDegrees>
            </Position>
            <AltitudeMeters>923.20001220703125</AltitudeMeters>
            <DistanceMeters>56307.961713763</DistanceMeters>
          </Trackpoint>
          <Trackpoint>
            <Time>2020-01-19T10:06:07.000Z</Time>
            <Position>
              <LatitudeDegrees>38.9511159248650074005126953125</LatitudeDegrees>
              <LongitudeDegrees>-2.829448878765106201171875</LongitudeDegrees>
            </Position>
            <AltitudeMeters>923.20001220703125</AltitudeMeters>
            <DistanceMeters>56319.032224027</DistanceMeters>
          </Trackpoint>
          <Trackpoint>
            <Time>2020-01-19T10:06:09.000Z</Time>
            <Position>
              <LatitudeDegrees>38.9511786215007305145263671875</LatitudeDegrees>
              <LongitudeDegrees>-2.82955281436443328857421875</LongitudeDegrees>
            </Position>
            <AltitudeMeters>923</AltitudeMeters>
            <DistanceMeters>56330.417994858</DistanceMeters>
          </Trackpoint>
          <Trackpoint>
            <Time>2020-01-19T10:06:15.000Z</Time>
            <Position>
              <LatitudeDegrees>38.9513276517391204833984375</LatitudeDegrees>
              <LongitudeDegrees>-2.82990418374538421630859375</LongitudeDegrees>
            </Position>
            <AltitudeMeters>922.79998779296875</AltitudeMeters>
            <DistanceMeters>56365.060934683</DistanceMeters>
          </Trackpoint>
          <Trackpoint>
            <Time>2020-01-19T10:06:17.000Z</Time>
            <Position>
              <LatitudeDegrees>38.95135648548603057861328125</LatitudeDegrees>
              <LongitudeDegrees>-2.8300149925053119659423828125</LongitudeDegrees>
            </Position>
            <AltitudeMeters>922.5999755859375</AltitudeMeters>
            <DistanceMeters>56375.174920345</DistanceMeters>
          </Trackpoint>
          <Trackpoint>
            <Time>2020-01-19T10:06:21.000Z</Time>
            <Position>
              <LatitudeDegrees>38.9514250494539737701416015625</LatitudeDegrees>
              <LongitudeDegrees>-2.830176763236522674560546875</LongitudeDegrees>
            </Position>
            <AltitudeMeters>923</AltitudeMeters>
            <DistanceMeters>56391.121864027</DistanceMeters>
          </Trackpoint>
          <Trackpoint>
            <Time>2020-01-19T10:06:24.000Z</Time>
            <Position>
              <LatitudeDegrees>38.95152169279754161834716796875</LatitudeDegrees>
              <LongitudeDegrees>-2.83027173019945621490478515625</LongitudeDegrees>
            </Position>
            <AltitudeMeters>923</AltitudeMeters>
            <DistanceMeters>56404.659752766</DistanceMeters>
          </Trackpoint>
          <Trackpoint>
            <Time>2020-01-19T10:06:25.000Z</Time>
            <Position>
              <LatitudeDegrees>38.95154952071607112884521484375</LatitudeDegrees>
              <LongitudeDegrees>-2.8303107060492038726806640625</LongitudeDegrees>
            </Position>
            <AltitudeMeters>923</AltitudeMeters>
            <DistanceMeters>56409.2388179</DistanceMeters>
          </Trackpoint>
          <Trackpoint>
            <Time>2020-01-19T10:06:26.000Z</Time>
            <Position>
              <LatitudeDegrees>38.95157198421657085418701171875</LatitudeDegrees>
              <LongitudeDegrees>-2.8303542919456958770751953125</LongitudeDegrees>
            </Position>
            <AltitudeMeters>923</AltitudeMeters>
            <DistanceMeters>56413.764324875</DistanceMeters>
          </Trackpoint>
          <Trackpoint>
            <Time>2020-01-19T10:06:33.000Z</Time>
            <Position>
              <LatitudeDegrees>38.951673991978168487548828125</LatitudeDegrees>
              <LongitudeDegrees>-2.8306573815643787384033203125</LongitudeDegrees>
            </Position>
            <AltitudeMeters>923.20001220703125</AltitudeMeters>
            <DistanceMeters>56442.35047078</DistanceMeters>
          </Trackpoint>
          <Trackpoint>
            <Time>2020-01-19T10:06:35.000Z</Time>
            <Position>
              <LatitudeDegrees>38.9517210982739925384521484375</LatitudeDegrees>
              <LongitudeDegrees>-2.83073441125452518463134765625</LongitudeDegrees>
            </Position>
            <AltitudeMeters>923</AltitudeMeters>
            <DistanceMeters>56450.831837943</DistanceMeters>
          </Trackpoint>
          <Trackpoint>
            <Time>2020-01-19T10:06:42.000Z</Time>
            <Position>
              <LatitudeDegrees>38.95191698335111141204833984375</LatitudeDegrees>
              <LongitudeDegrees>-2.8309825994074344635009765625</LongitudeDegrees>
            </Position>
            <AltitudeMeters>922.20001220703125</AltitudeMeters>
            <DistanceMeters>56481.439587137</DistanceMeters>
          </Trackpoint>
          <Trackpoint>
            <Time>2020-01-19T10:06:45.000Z</Time>
            <Position>
              <LatitudeDegrees>38.95196626894176006317138671875</LatitudeDegrees>
              <LongitudeDegrees>-2.83112685196101665496826171875</LongitudeDegrees>
            </Position>
            <AltitudeMeters>922.4000244140625</AltitudeMeters>
            <DistanceMeters>56495.077824362</DistanceMeters>
          </Trackpoint>
          <Trackpoint>
            <Time>2020-01-19T10:06:50.000Z</Time>
            <Position>
              <LatitudeDegrees>38.9520235173404216766357421875</LatitudeDegrees>
              <LongitudeDegrees>-2.8313641436398029327392578125</LongitudeDegrees>
            </Position>
            <AltitudeMeters>922.79998779296875</AltitudeMeters>
            <DistanceMeters>56516.58285482</DistanceMeters>
          </Trackpoint>
          <Trackpoint>
            <Time>2020-01-19T10:06:54.000Z</Time>
            <Position>
              <LatitudeDegrees>38.9520627446472644805908203125</LatitudeDegrees>
              <LongitudeDegrees>-2.831553407013416290283203125</LongitudeDegrees>
            </Position>
            <AltitudeMeters>923</AltitudeMeters>
            <DistanceMeters>56533.536536816</DistanceMeters>
          </Trackpoint>
          <Trackpoint>
            <Time>2020-01-19T10:06:55.000Z</Time>
            <Position>
              <LatitudeDegrees>38.952088057994842529296875</LatitudeDegrees>
              <LongitudeDegrees>-2.83159975893795490264892578125</LongitudeDegrees>
            </Position>
            <AltitudeMeters>923</AltitudeMeters>
            <DistanceMeters>56538.437557458</DistanceMeters>
          </Trackpoint>
          <Trackpoint>
            <Time>2020-01-19T10:07:05.000Z</Time>
            <Position>
              <LatitudeDegrees>38.952279500663280487060546875</LatitudeDegrees>
              <LongitudeDegrees>-2.8320189379155635833740234375</LongitudeDegrees>
            </Position>
            <AltitudeMeters>922.20001220703125</AltitudeMeters>
            <DistanceMeters>56580.514330716</DistanceMeters>
          </Trackpoint>
          <Trackpoint>
            <Time>2020-01-19T10:07:10.000Z</Time>
            <Position>
              <LatitudeDegrees>38.9523292891681194305419921875</LatitudeDegrees>
              <LongitudeDegrees>-2.8322465904057025909423828125</LongitudeDegrees>
            </Position>
            <AltitudeMeters>922.4000244140625</AltitudeMeters>
            <DistanceMeters>56600.983490858</DistanceMeters>
          </Trackpoint>
          <Trackpoint>
            <Time>2020-01-19T10:07:12.000Z</Time>
            <Position>
              <LatitudeDegrees>38.95239408127963542938232421875</LatitudeDegrees>
              <LongitudeDegrees>-2.83231473527848720550537109375</LongitudeDegrees>
            </Position>
            <AltitudeMeters>922.4000244140625</AltitudeMeters>
            <DistanceMeters>56610.2999867</DistanceMeters>
          </Trackpoint>
          <Trackpoint>
            <Time>2020-01-19T10:07:15.000Z</Time>
            <Position>
              <LatitudeDegrees>38.9524747990071773529052734375</LatitudeDegrees>
              <LongitudeDegrees>-2.83242487348616123199462890625</LongitudeDegrees>
            </Position>
            <AltitudeMeters>922.4000244140625</AltitudeMeters>
            <DistanceMeters>56623.399204715</DistanceMeters>
          </Trackpoint>
          <Trackpoint>
            <Time>2020-01-19T10:07:21.000Z</Time>
            <Position>
              <LatitudeDegrees>38.95246314816176891326904296875</LatitudeDegrees>
              <LongitudeDegrees>-2.83266878686845302581787109375</LongitudeDegrees>
            </Position>
            <AltitudeMeters>923.20001220703125</AltitudeMeters>
            <DistanceMeters>56644.5511353</DistanceMeters>
          </Trackpoint>
          <Trackpoint>
            <Time>2020-01-19T10:07:25.000Z</Time>
            <Position>
              <LatitudeDegrees>38.9525177143514156341552734375</LatitudeDegrees>
              <LongitudeDegrees>-2.8328457288444042205810546875</LongitudeDegrees>
            </Position>
            <AltitudeMeters>923.4000244140625</AltitudeMeters>
            <DistanceMeters>56661.026421878</DistanceMeters>
          </Trackpoint>
          <Trackpoint>
            <Time>2020-01-19T10:07:35.000Z</Time>
            <Position>
              <LatitudeDegrees>38.95275785587728023529052734375</LatitudeDegrees>
              <LongitudeDegrees>-2.833257615566253662109375</LongitudeDegrees>
            </Position>
            <AltitudeMeters>922.79998779296875</AltitudeMeters>
            <DistanceMeters>56705.584224308</DistanceMeters>
          </Trackpoint>
          <Trackpoint>
            <Time>2020-01-19T10:07:45.000Z</Time>
            <Position>
              <LatitudeDegrees>38.9530444331467151641845703125</LatitudeDegrees>
              <LongitudeDegrees>-2.8337000124156475067138671875</LongitudeDegrees>
            </Position>
            <AltitudeMeters>922</AltitudeMeters>
            <DistanceMeters>56755.420640165</DistanceMeters>
          </Trackpoint>
          <Trackpoint>
            <Time>2020-01-19T10:07:48.000Z</Time>
            <Position>
              <LatitudeDegrees>38.95308709703385829925537109375</LatitudeDegrees>
              <LongitudeDegrees>-2.83385910093784332275390625</LongitudeDegrees>
            </Position>
            <AltitudeMeters>921.5999755859375</AltitudeMeters>
            <DistanceMeters>56769.986409834</DistanceMeters>
          </Trackpoint>
          <Trackpoint>
            <Time>2020-01-19T10:07:54.000Z</Time>
            <Position>
              <LatitudeDegrees>38.95312883891165256500244140625</LatitudeDegrees>
              <LongitudeDegrees>-2.8342004120349884033203125</LongitudeDegrees>
            </Position>
            <AltitudeMeters>921</AltitudeMeters>
            <DistanceMeters>56799.891756194</DistanceMeters>
          </Trackpoint>
          <Trackpoint>
            <Time>2020-01-19T10:07:55.000Z</Time>
            <Position>
              <LatitudeDegrees>38.9531476981937885284423828125</LatitudeDegrees>
              <LongitudeDegrees>-2.8342559002339839935302734375</LongitudeDegrees>
            </Position>
            <AltitudeMeters>921</AltitudeMeters>
            <DistanceMeters>56805.132890856</DistanceMeters>
          </Trackpoint>
          <Trackpoint>
            <Time>2020-01-19T10:07:56.000Z</Time>
            <Position>
              <LatitudeDegrees>38.9531735144555568695068359375</LatitudeDegrees>
              <LongitudeDegrees>-2.83430744893848896026611328125</LongitudeDegrees>
            </Position>
            <AltitudeMeters>921</AltitudeMeters>
            <DistanceMeters>56810.439092732</DistanceMeters>
          </Trackpoint>
          <Trackpoint>
            <Time>2020-01-19T10:07:58.000Z</Time>
            <Position>
              <LatitudeDegrees>38.95323378033936023712158203125</LatitudeDegrees>
              <LongitudeDegrees>-2.83441021107137203216552734375</LongitudeDegrees>
            </Position>
            <AltitudeMeters>921</AltitudeMeters>
            <DistanceMeters>56821.579531262</DistanceMeters>
          </Trackpoint>
          <Trackpoint>
            <Time>2020-01-19T10:08:03.000Z</Time>
            <Position>
              <LatitudeDegrees>38.9533592574298381805419921875</LatitudeDegrees>
              <LongitudeDegrees>-2.8347058407962322235107421875</LongitudeDegrees>
            </Position>
            <AltitudeMeters>920.4000244140625</AltitudeMeters>
            <DistanceMeters>56850.730902311</DistanceMeters>
          </Trackpoint>
          <Trackpoint>
            <Time>2020-01-19T10:08:05.000Z</Time>
            <Position>
              <LatitudeDegrees>38.95338415168225765228271484375</LatitudeDegrees>
              <LongitudeDegrees>-2.834833078086376190185546875</LongitudeDegrees>
            </Position>
            <AltitudeMeters>920.20001220703125</AltitudeMeters>
            <DistanceMeters>56862.087290459</DistanceMeters>
          </Trackpoint>
          <Trackpoint>
            <Time>2020-01-19T10:08:07.000Z</Time>
            <Position>
              <LatitudeDegrees>38.9534129016101360321044921875</LatitudeDegrees>
              <LongitudeDegrees>-2.8349586389958858489990234375</LongitudeDegrees>
            </Position>
            <AltitudeMeters>919.79998779296875</AltitudeMeters>
            <DistanceMeters>56873.416611117</DistanceMeters>
          </Trackpoint>
          <Trackpoint>
            <Time>2020-01-19T10:08:08.000Z</Time>
            <Position>
              <LatitudeDegrees>38.95342673175036907196044921875</LatitudeDegrees>
              <LongitudeDegrees>-2.83502125181257724761962890625</LongitudeDegrees>
            </Position>
            <AltitudeMeters>919.79998779296875</AltitudeMeters>
            <DistanceMeters>56879.049699845</DistanceMeters>
          </Trackpoint>
          <Trackpoint>
            <Time>2020-01-19T10:08:10.000Z</Time>
            <Position>
              <LatitudeDegrees>38.95342438481748104095458984375</LatitudeDegrees>
              <LongitudeDegrees>-2.83514714799821376800537109375</LongitudeDegrees>
            </Position>
            <AltitudeMeters>919.79998779296875</AltitudeMeters>
            <DistanceMeters>56889.950055154</DistanceMeters>
          </Trackpoint>
          <Trackpoint>
            <Time>2020-01-19T10:08:13.000Z</Time>
            <Position>
              <LatitudeDegrees>38.9533622749149799346923828125</LatitudeDegrees>
              <LongitudeDegrees>-2.83530791290104389190673828125</LongitudeDegrees>
            </Position>
            <AltitudeMeters>920</AltitudeMeters>
            <DistanceMeters>56905.487722087</DistanceMeters>
          </Trackpoint>
          <Trackpoint>
            <Time>2020-01-19T10:08:15.000Z</Time>
            <Position>
              <LatitudeDegrees>38.9533093012869358062744140625</LatitudeDegrees>
              <LongitudeDegrees>-2.83541520126163959503173828125</LongitudeDegrees>
            </Position>
            <AltitudeMeters>920.20001220703125</AltitudeMeters>
            <DistanceMeters>56916.487859557</DistanceMeters>
          </Trackpoint>
          <Trackpoint>
            <Time>2020-01-19T10:08:18.000Z</Time>
            <Position>
              <LatitudeDegrees>38.95322824828326702117919921875</LatitudeDegrees>
              <LongitudeDegrees>-2.83559775911271572113037109375</LongitudeDegrees>
            </Position>
            <AltitudeMeters>920.4000244140625</AltitudeMeters>
            <DistanceMeters>56934.682932038</DistanceMeters>
          </Trackpoint>
          <Trackpoint>
            <Time>2020-01-19T10:08:22.000Z</Time>
            <Position>
              <LatitudeDegrees>38.95318147726356983184814453125</LatitudeDegrees>
              <LongitudeDegrees>-2.83587050624191761016845703125</LongitudeDegrees>
            </Position>
            <AltitudeMeters>920.4000244140625</AltitudeMeters>
            <DistanceMeters>56958.857660937</DistanceMeters>
          </Trackpoint>
          <Trackpoint>
            <Time>2020-01-19T10:08:24.000Z</Time>
            <Position>
              <LatitudeDegrees>38.953177034854888916015625</LatitudeDegrees>
              <LongitudeDegrees>-2.836007215082645416259765625</LongitudeDegrees>
            </Position>
            <AltitudeMeters>920.5999755859375</AltitudeMeters>
            <DistanceMeters>56970.700597538</DistanceMeters>
          </Trackpoint>
          <Trackpoint>
            <Time>2020-01-19T10:08:25.000Z</Time>
            <Position>
              <LatitudeDegrees>38.95318441092967987060546875</LatitudeDegrees>
              <LongitudeDegrees>-2.83607351593673229217529296875</LongitudeDegrees>
            </Position>
            <AltitudeMeters>920.5999755859375</AltitudeMeters>
            <DistanceMeters>56976.49800597</DistanceMeters>
          </Trackpoint>
          <Trackpoint>
            <Time>2020-01-19T10:08:26.000Z</Time>
            <Position>
              <LatitudeDegrees>38.95319790579378604888916015625</LatitudeDegrees>
              <LongitudeDegrees>-2.83613721840083599090576171875</LongitudeDegrees>
            </Position>
            <AltitudeMeters>920.5999755859375</AltitudeMeters>
            <DistanceMeters>56982.212265014</DistanceMeters>
          </Trackpoint>
          <Trackpoint>
            <Time>2020-01-19T10:08:35.000Z</Time>
            <Position>
              <LatitudeDegrees>38.953364454209804534912109375</LatitudeDegrees>
              <LongitudeDegrees>-2.83662353642284870147705078125</LongitudeDegrees>
            </Position>
            <AltitudeMeters>920.20001220703125</AltitudeMeters>
            <DistanceMeters>57028.206372771</DistanceMeters>
          </Trackpoint>
          <Trackpoint>
            <Time>2020-01-19T10:08:42.000Z</Time>
            <Position>
              <LatitudeDegrees>38.95345372147858142852783203125</LatitudeDegrees>
              <LongitudeDegrees>-2.837018407881259918212890625</LongitudeDegrees>
            </Position>
            <AltitudeMeters>920</AltitudeMeters>
            <DistanceMeters>57063.799427496</DistanceMeters>
          </Trackpoint>
          <Trackpoint>
            <Time>2020-01-19T10:08:45.000Z</Time>
            <Position>
              <LatitudeDegrees>38.95349261350929737091064453125</LatitudeDegrees>
              <LongitudeDegrees>-2.8371905721724033355712890625</LongitudeDegrees>
            </Position>
            <AltitudeMeters>920</AltitudeMeters>
            <DistanceMeters>57079.317030998</DistanceMeters>
          </Trackpoint>
          <Trackpoint>
            <Time>2020-01-19T10:08:50.000Z</Time>
            <Position>
              <LatitudeDegrees>38.9535476826131343841552734375</LatitudeDegrees>
              <LongitudeDegrees>-2.8374718688428401947021484375</LongitudeDegrees>
            </Position>
            <AltitudeMeters>920</AltitudeMeters>
            <DistanceMeters>57104.424232682</DistanceMeters>
          </Trackpoint>
          <Trackpoint>
            <Time>2020-01-19T10:08:55.000Z</Time>
            <Position>
              <LatitudeDegrees>38.9535426534712314605712890625</LatitudeDegrees>
              <LongitudeDegrees>-2.8377806581556797027587890625</LongitudeDegrees>
            </Position>
            <AltitudeMeters>920</AltitudeMeters>
            <DistanceMeters>57131.157157697</DistanceMeters>
          </Trackpoint>
          <Trackpoint>
            <Time>2020-01-19T10:09:01.000Z</Time>
            <Position>
              <LatitudeDegrees>38.95355916582047939300537109375</LatitudeDegrees>
              <LongitudeDegrees>-2.8381605260074138641357421875</LongitudeDegrees>
            </Position>
            <AltitudeMeters>919.4000244140625</AltitudeMeters>
            <DistanceMeters>57164.087719188</DistanceMeters>
          </Trackpoint>
          <Trackpoint>
            <Time>2020-01-19T10:09:05.000Z</Time>
            <Position>
              <LatitudeDegrees>38.95361364819109439849853515625</LatitudeDegrees>
              <LongitudeDegrees>-2.83841885626316070556640625</LongitudeDegrees>
            </Position>
            <AltitudeMeters>918.79998779296875</AltitudeMeters>
            <DistanceMeters>57187.254756624</DistanceMeters>
          </Trackpoint>
          <Trackpoint>
            <Time>2020-01-19T10:09:09.000Z</Time>
            <Position>
              <LatitudeDegrees>38.9536388777196407318115234375</LatitudeDegrees>
              <LongitudeDegrees>-2.83869671635329723358154296875</LongitudeDegrees>
            </Position>
            <AltitudeMeters>918</AltitudeMeters>
            <DistanceMeters>57211.468115399</DistanceMeters>
          </Trackpoint>
          <Trackpoint>
            <Time>2020-01-19T10:09:13.000Z</Time>
            <Position>
              <LatitudeDegrees>38.95359571091830730438232421875</LatitudeDegrees>
              <LongitudeDegrees>-2.83896158449351787567138671875</LongitudeDegrees>
            </Position>
            <AltitudeMeters>917.5999755859375</AltitudeMeters>
            <DistanceMeters>57234.891766796</DistanceMeters>
          </Trackpoint>
          <Trackpoint>
            <Time>2020-01-19T10:09:14.000Z</Time>
            <Position>
              <LatitudeDegrees>38.95357693545520305633544921875</LatitudeDegrees>
              <LongitudeDegrees>-2.83902813680469989776611328125</LongitudeDegrees>
            </Position>
            <AltitudeMeters>917.4000244140625</AltitudeMeters>
            <DistanceMeters>57241.019332206</DistanceMeters>
          </Trackpoint>
          <Trackpoint>
            <Time>2020-01-19T10:09:15.000Z</Time>
            <Position>
              <LatitudeDegrees>38.95355447195470333099365234375</LatitudeDegrees>
              <LongitudeDegrees>-2.839092426002025604248046875</LongitudeDegrees>
            </Position>
            <AltitudeMeters>917.4000244140625</AltitudeMeters>
            <DistanceMeters>57247.119573596</DistanceMeters>
          </Trackpoint>
          <Trackpoint>
            <Time>2020-01-19T10:09:17.000Z</Time>
            <Position>
              <LatitudeDegrees>38.953504599630832672119140625</LatitudeDegrees>
              <LongitudeDegrees>-2.83921035937964916229248046875</LongitudeDegrees>
            </Position>
            <AltitudeMeters>917.4000244140625</AltitudeMeters>
            <DistanceMeters>57258.738896852</DistanceMeters>
          </Trackpoint>
          <Trackpoint>
            <Time>2020-01-19T10:09:19.000Z</Time>
            <Position>
              <LatitudeDegrees>38.9534524641931056976318359375</LatitudeDegrees>
              <LongitudeDegrees>-2.83932167105376720428466796875</LongitudeDegrees>
            </Position>
            <AltitudeMeters>917.4000244140625</AltitudeMeters>
            <DistanceMeters>57269.985821357</DistanceMeters>
          </Trackpoint>
          <Trackpoint>
            <Time>2020-01-19T10:09:21.000Z</Time>
            <Position>
              <LatitudeDegrees>38.95342455245554447174072265625</LatitudeDegrees>
              <LongitudeDegrees>-2.83944320864975452423095703125</LongitudeDegrees>
            </Position>
            <AltitudeMeters>917.20001220703125</AltitudeMeters>
            <DistanceMeters>57280.95472005</DistanceMeters>
          </Trackpoint>
          <Trackpoint>
            <Time>2020-01-19T10:09:23.000Z</Time>
            <Position>
              <LatitudeDegrees>38.95343058742582798004150390625</LatitudeDegrees>
              <LongitudeDegrees>-2.83956558443605899810791015625</LongitudeDegrees>
            </Position>
            <AltitudeMeters>916.79998779296875</AltitudeMeters>
            <DistanceMeters>57291.567974667</DistanceMeters>
          </Trackpoint>
          <Trackpoint>
            <Time>2020-01-19T10:09:24.000Z</Time>
            <Position>
              <LatitudeDegrees>38.95342874340713024139404296875</LatitudeDegrees>
              <LongitudeDegrees>-2.8396162949502468109130859375</LongitudeDegrees>
            </Position>
            <AltitudeMeters>916.79998779296875</AltitudeMeters>
            <DistanceMeters>57295.961868548</DistanceMeters>
          </Trackpoint>
          <Trackpoint>
            <Time>2020-01-19T10:09:25.000Z</Time>
            <Position>
              <LatitudeDegrees>38.95341231487691402435302734375</LatitudeDegrees>
              <LongitudeDegrees>-2.83965007402002811431884765625</LongitudeDegrees>
            </Position>
            <AltitudeMeters>916.79998779296875</AltitudeMeters>
            <DistanceMeters>57299.409125516</DistanceMeters>
          </Trackpoint>
          <Trackpoint>
            <Time>2020-01-19T10:09:29.000Z</Time>
            <Position>
              <LatitudeDegrees>38.953312821686267852783203125</LatitudeDegrees>
              <LongitudeDegrees>-2.8396907262504100799560546875</LongitudeDegrees>
            </Position>
            <AltitudeMeters>917.20001220703125</AltitudeMeters>
            <DistanceMeters>57311.028837345</DistanceMeters>
          </Trackpoint>
          <Trackpoint>
            <Time>2020-01-19T10:09:31.000Z</Time>
            <Position>
              <LatitudeDegrees>38.95331860519945621490478515625</LatitudeDegrees>
              <LongitudeDegrees>-2.839693240821361541748046875</LongitudeDegrees>
            </Position>
            <AltitudeMeters>917.20001220703125</AltitudeMeters>
            <DistanceMeters>57311.714084727</DistanceMeters>
          </Trackpoint>
          <Trackpoint>
            <Time>2020-01-19T10:09:35.000Z</Time>
            <Position>
              <LatitudeDegrees>38.9533951319754123687744140625</LatitudeDegrees>
              <LongitudeDegrees>-2.83969550393521785736083984375</LongitudeDegrees>
            </Position>
            <AltitudeMeters>916.79998779296875</AltitudeMeters>
            <DistanceMeters>57320.234224663</DistanceMeters>
          </Trackpoint>
          <Trackpoint>
            <Time>2020-01-19T10:09:36.000Z</Time>
            <Position>
              <LatitudeDegrees>38.9534155838191509246826171875</LatitudeDegrees>
              <LongitudeDegrees>-2.83968226052820682525634765625</LongitudeDegrees>
            </Position>
            <AltitudeMeters>916.5999755859375</AltitudeMeters>
            <DistanceMeters>57322.784058979</DistanceMeters>
          </Trackpoint>
          <Trackpoint>
            <Time>2020-01-19T10:09:45.000Z</Time>
            <Position>
              <LatitudeDegrees>38.95357307977974414825439453125</LatitudeDegrees>
              <LongitudeDegrees>-2.83960715867578983306884765625</LongitudeDegrees>
            </Position>
            <AltitudeMeters>916</AltitudeMeters>
            <DistanceMeters>57341.480187698</DistanceMeters>
          </Trackpoint>
          <Trackpoint>
            <Time>2020-01-19T10:09:54.000Z</Time>
            <Position>
              <LatitudeDegrees>38.9538048394024372100830078125</LatitudeDegrees>
              <LongitudeDegrees>-2.83945477567613124847412109375</LongitudeDegrees>
            </Position>
            <AltitudeMeters>915.79998779296875</AltitudeMeters>
            <DistanceMeters>57370.4519613</DistanceMeters>
          </Trackpoint>
          <Trackpoint>
            <Time>2020-01-19T10:09:55.000Z</Time>
            <Position>
              <LatitudeDegrees>38.953831493854522705078125</LatitudeDegrees>
              <LongitudeDegrees>-2.8394396044313907623291015625</LongitudeDegrees>
            </Position>
            <AltitudeMeters>915.79998779296875</AltitudeMeters>
            <DistanceMeters>57373.695422269</DistanceMeters>
          </Trackpoint>
          <Trackpoint>
            <Time>2020-01-19T10:09:59.000Z</Time>
            <Position>
              <LatitudeDegrees>38.9539151452481746673583984375</LatitudeDegrees>
              <LongitudeDegrees>-2.83937766216695308685302734375</LongitudeDegrees>
            </Position>
            <AltitudeMeters>915.79998779296875</AltitudeMeters>
            <DistanceMeters>57384.43932599</DistanceMeters>
          </Trackpoint>
          <Trackpoint>
            <Time>2020-01-19T10:10:01.000Z</Time>
            <Position>
              <LatitudeDegrees>38.95392260514199733734130859375</LatitudeDegrees>
              <LongitudeDegrees>-2.83936240710318088531494140625</LongitudeDegrees>
            </Position>
            <AltitudeMeters>915.79998779296875</AltitudeMeters>
            <DistanceMeters>57386.000774241</DistanceMeters>
          </Trackpoint>
          <Trackpoint>
            <Time>2020-01-19T10:14:44.000Z</Time>
            <Position>
              <LatitudeDegrees>38.95393752492964267730712890625</LatitudeDegrees>
              <LongitudeDegrees>-2.83934681676328182220458984375</LongitudeDegrees>
            </Position>
            <AltitudeMeters>915.79998779296875</AltitudeMeters>
            <DistanceMeters>57388.138347323</DistanceMeters>
          </Trackpoint>
          <Trackpoint>
            <Time>2020-01-19T10:14:45.000Z</Time>
            <Position>
              <LatitudeDegrees>38.95395931787788867950439453125</LatitudeDegrees>
              <LongitudeDegrees>-2.839327789843082427978515625</LongitudeDegrees>
            </Position>
            <AltitudeMeters>915.79998779296875</AltitudeMeters>
            <DistanceMeters>57391.07034882</DistanceMeters>
          </Trackpoint>
          <Trackpoint>
            <Time>2020-01-19T10:14:46.000Z</Time>
            <Position>
              <LatitudeDegrees>38.9539751596748828887939453125</LatitudeDegrees>
              <LongitudeDegrees>-2.8393031470477581024169921875</LongitudeDegrees>
            </Position>
            <AltitudeMeters>915.79998779296875</AltitudeMeters>
            <DistanceMeters>57393.837568512</DistanceMeters>
          </Trackpoint>
          <Trackpoint>
            <Time>2020-01-19T10:14:48.000Z</Time>
            <Position>
              <LatitudeDegrees>38.9540160633623600006103515625</LatitudeDegrees>
              <LongitudeDegrees>-2.83926685340702533721923828125</LongitudeDegrees>
            </Position>
            <AltitudeMeters>915.79998779296875</AltitudeMeters>
            <DistanceMeters>57399.368743703</DistanceMeters>
          </Trackpoint>
          <Trackpoint>
            <Time>2020-01-19T10:14:50.000Z</Time>
            <Position>
              <LatitudeDegrees>38.95405839197337627410888671875</LatitudeDegrees>
              <LongitudeDegrees>-2.83923081122338771820068359375</LongitudeDegrees>
            </Position>
            <AltitudeMeters>915.79998779296875</AltitudeMeters>
            <DistanceMeters>57405.019438377</DistanceMeters>
          </Trackpoint>
          <Trackpoint>
            <Time>2020-01-19T10:14:53.000Z</Time>
            <Position>
              <LatitudeDegrees>38.95414774306118488311767578125</LatitudeDegrees>
              <LongitudeDegrees>-2.839136011898517608642578125</LongitudeDegrees>
            </Position>
            <AltitudeMeters>915.79998779296875</AltitudeMeters>
            <DistanceMeters>57417.912290939</DistanceMeters>
          </Trackpoint>
          <Trackpoint>
            <Time>2020-01-19T10:14:55.000Z</Time>
            <Position>
              <LatitudeDegrees>38.9542105235159397125244140625</LatitudeDegrees>
              <LongitudeDegrees>-2.83906149677932262420654296875</LongitudeDegrees>
            </Position>
            <AltitudeMeters>915.5999755859375</AltitudeMeters>
            <DistanceMeters>57427.420662269</DistanceMeters>
          </Trackpoint>
          <Trackpoint>
            <Time>2020-01-19T10:15:05.000Z</Time>
            <Position>
              <LatitudeDegrees>38.95451344549655914306640625</LatitudeDegrees>
              <LongitudeDegrees>-2.83869805745780467987060546875</LongitudeDegrees>
            </Position>
            <AltitudeMeters>915</AltitudeMeters>
            <DistanceMeters>57473.53251617</DistanceMeters>
          </Trackpoint>
          <Trackpoint>
            <Time>2020-01-19T10:15:07.000Z</Time>
            <Position>
              <LatitudeDegrees>38.9545551873743534088134765625</LatitudeDegrees>
              <LongitudeDegrees>-2.838613651692867279052734375</LongitudeDegrees>
            </Position>
            <AltitudeMeters>914.79998779296875</AltitudeMeters>
            <DistanceMeters>57482.190904856</DistanceMeters>
          </Trackpoint>
          <Trackpoint>
            <Time>2020-01-19T10:15:12.000Z</Time>
            <Position>
              <LatitudeDegrees>38.9546276070177555084228515625</LatitudeDegrees>
              <LongitudeDegrees>-2.8383792936801910400390625</LongitudeDegrees>
            </Position>
            <AltitudeMeters>914.79998779296875</AltitudeMeters>
            <DistanceMeters>57504.017901972</DistanceMeters>
          </Trackpoint>
          <Trackpoint>
            <Time>2020-01-19T10:15:14.000Z</Time>
            <Position>
              <LatitudeDegrees>38.9546182192862033843994140625</LatitudeDegrees>
              <LongitudeDegrees>-2.8382731787860393524169921875</LongitudeDegrees>
            </Position>
            <AltitudeMeters>914.79998779296875</AltitudeMeters>
            <DistanceMeters>57513.261417717</DistanceMeters>
          </Trackpoint>
          <Trackpoint>
            <Time>2020-01-19T10:15:15.000Z</Time>
            <Position>
              <LatitudeDegrees>38.9546054787933826446533203125</LatitudeDegrees>
              <LongitudeDegrees>-2.83822230063378810882568359375</LongitudeDegrees>
            </Position>
            <AltitudeMeters>915</AltitudeMeters>
            <DistanceMeters>57517.887569592</DistanceMeters>
          </Trackpoint>
          <Trackpoint>
            <Time>2020-01-19T10:15:19.000Z</Time>
            <Position>
              <LatitudeDegrees>38.9546209014952182769775390625</LatitudeDegrees>
              <LongitudeDegrees>-2.83802951686084270477294921875</LongitudeDegrees>
            </Position>
            <AltitudeMeters>915</AltitudeMeters>
            <DistanceMeters>57534.661870829</DistanceMeters>
          </Trackpoint>
          <Trackpoint>
            <Time>2020-01-19T10:15:25.000Z</Time>
            <Position>
              <LatitudeDegrees>38.95466507412493228912353515625</LatitudeDegrees>
              <LongitudeDegrees>-2.83774687908589839935302734375</LongitudeDegrees>
            </Position>
            <AltitudeMeters>914.79998779296875</AltitudeMeters>
            <DistanceMeters>57559.614300987</DistanceMeters>
          </Trackpoint>
          <Trackpoint>
            <Time>2020-01-19T10:15:28.000Z</Time>
            <Position>
              <LatitudeDegrees>38.9547040499746799468994140625</LatitudeDegrees>
              <LongitudeDegrees>-2.8376224078238010406494140625</LongitudeDegrees>
            </Position>
            <AltitudeMeters>914.5999755859375</AltitudeMeters>
            <DistanceMeters>57571.228571602</DistanceMeters>
          </Trackpoint>
          <Trackpoint>
            <Time>2020-01-19T10:15:34.000Z</Time>
            <Position>
              <LatitudeDegrees>38.9547979272902011871337890625</LatitudeDegrees>
              <LongitudeDegrees>-2.83740271814167499542236328125</LongitudeDegrees>
            </Position>
            <AltitudeMeters>913.79998779296875</AltitudeMeters>
            <DistanceMeters>57592.925066366</DistanceMeters>
          </Trackpoint>
          <Trackpoint>
            <Time>2020-01-19T10:15:35.000Z</Time>
            <Position>
              <LatitudeDegrees>38.95481913350522518157958984375</LatitudeDegrees>
              <LongitudeDegrees>-2.83736466430127620697021484375</LongitudeDegrees>
            </Position>
            <AltitudeMeters>913.5999755859375</AltitudeMeters>
            <DistanceMeters>57596.976816479</DistanceMeters>
          </Trackpoint>
          <Trackpoint>
            <Time>2020-01-19T10:15:43.000Z</Time>
            <Position>
              <LatitudeDegrees>38.95499330945312976837158203125</LatitudeDegrees>
              <LongitudeDegrees>-2.83706056885421276092529296875</LongitudeDegrees>
            </Position>
            <AltitudeMeters>912</AltitudeMeters>
            <DistanceMeters>57629.666006222</DistanceMeters>
          </Trackpoint>
          <Trackpoint>
            <Time>2020-01-19T10:15:45.000Z</Time>
            <Position>
              <LatitudeDegrees>38.95504963584244251251220703125</LatitudeDegrees>
              <LongitudeDegrees>-2.8369884006679058074951171875</LongitudeDegrees>
            </Position>
            <AltitudeMeters>911.5999755859375</AltitudeMeters>
            <DistanceMeters>57638.51625385</DistanceMeters>
          </Trackpoint>
          <Trackpoint>
            <Time>2020-01-19T10:15:48.000Z</Time>
            <Position>
              <LatitudeDegrees>38.95513571798801422119140625</LatitudeDegrees>
              <LongitudeDegrees>-2.83687415532767772674560546875</LongitudeDegrees>
            </Position>
            <AltitudeMeters>910.79998779296875</AltitudeMeters>
            <DistanceMeters>57652.284965658</DistanceMeters>
          </Trackpoint>
          <Trackpoint>
            <Time>2020-01-19T10:15:51.000Z</Time>
            <Position>
              <LatitudeDegrees>38.9552381448447704315185546875</LatitudeDegrees>
              <LongitudeDegrees>-2.8367780148983001708984375</LongitudeDegrees>
            </Position>
            <AltitudeMeters>910.20001220703125</AltitudeMeters>
            <DistanceMeters>57666.399551961</DistanceMeters>
          </Trackpoint>
          <Trackpoint>
            <Time>2020-01-19T10:15:53.000Z</Time>
            <Position>
              <LatitudeDegrees>38.95528064109385013580322265625</LatitudeDegrees>
              <LongitudeDegrees>-2.83668288029730319976806640625</LongitudeDegrees>
            </Position>
            <AltitudeMeters>910</AltitudeMeters>
            <DistanceMeters>57675.895569199</DistanceMeters>
          </Trackpoint>
          <Trackpoint>
            <Time>2020-01-19T10:15:55.000Z</Time>
            <Position>
              <LatitudeDegrees>38.9553031884133815765380859375</LatitudeDegrees>
              <LongitudeDegrees>-2.8365820460021495819091796875</LongitudeDegrees>
            </Position>
            <AltitudeMeters>910</AltitudeMeters>
            <DistanceMeters>57684.976961612</DistanceMeters>
          </Trackpoint>
          <Trackpoint>
            <Time>2020-01-19T10:15:56.000Z</Time>
            <Position>
              <LatitudeDegrees>38.95531534217298030853271484375</LatitudeDegrees>
              <LongitudeDegrees>-2.83653183840215206146240234375</LongitudeDegrees>
            </Position>
            <AltitudeMeters>910</AltitudeMeters>
            <DistanceMeters>57689.528334521</DistanceMeters>
          </Trackpoint>
          <Trackpoint>
            <Time>2020-01-19T10:15:59.000Z</Time>
            <Position>
              <LatitudeDegrees>38.95539497025310993194580078125</LatitudeDegrees>
              <LongitudeDegrees>-2.83641935326159000396728515625</LongitudeDegrees>
            </Position>
            <AltitudeMeters>909.79998779296875</AltitudeMeters>
            <DistanceMeters>57702.693907708</DistanceMeters>
          </Trackpoint>
          <Trackpoint>
            <Time>2020-01-19T10:16:01.000Z</Time>
            <Position>
              <LatitudeDegrees>38.95547627471387386322021484375</LatitudeDegrees>
              <LongitudeDegrees>-2.83639521338045597076416015625</LongitudeDegrees>
            </Position>
            <AltitudeMeters>909.5999755859375</AltitudeMeters>
            <DistanceMeters>57711.981280329</DistanceMeters>
          </Trackpoint>
          <Trackpoint>
            <Time>2020-01-19T10:16:03.000Z</Time>
            <Position>
              <LatitudeDegrees>38.9555574953556060791015625</LatitudeDegrees>
              <LongitudeDegrees>-2.83636420033872127532958984375</LongitudeDegrees>
            </Position>
            <AltitudeMeters>909.20001220703125</AltitudeMeters>
            <DistanceMeters>57721.410976122</DistanceMeters>
          </Trackpoint>
          <Trackpoint>
            <Time>2020-01-19T10:16:05.000Z</Time>
            <Position>
              <LatitudeDegrees>38.9556143246591091156005859375</LatitudeDegrees>
              <LongitudeDegrees>-2.8362916968762874603271484375</LongitudeDegrees>
            </Position>
            <AltitudeMeters>909.20001220703125</AltitudeMeters>
            <DistanceMeters>57730.320712482</DistanceMeters>
          </Trackpoint>
          <Trackpoint>
            <Time>2020-01-19T10:16:09.000Z</Time>
            <Position>
              <LatitudeDegrees>38.95571515895426273345947265625</LatitudeDegrees>
              <LongitudeDegrees>-2.8361210413277149200439453125</LongitudeDegrees>
            </Position>
            <AltitudeMeters>909</AltitudeMeters>
            <DistanceMeters>57748.871621174</DistanceMeters>
          </Trackpoint>
          <Trackpoint>
            <Time>2020-01-19T10:16:13.000Z</Time>
            <Position>
              <LatitudeDegrees>38.9557846449315547943115234375</LatitudeDegrees>
              <LongitudeDegrees>-2.83592381514608860015869140625</LongitudeDegrees>
            </Position>
            <AltitudeMeters>909</AltitudeMeters>
            <DistanceMeters>57767.611891531</DistanceMeters>
          </Trackpoint>
          <Trackpoint>
            <Time>2020-01-19T10:16:15.000Z</Time>
            <Position>
              <LatitudeDegrees>38.9558677934110164642333984375</LatitudeDegrees>
              <LongitudeDegrees>-2.83588685095310211181640625</LongitudeDegrees>
            </Position>
            <AltitudeMeters>908.79998779296875</AltitudeMeters>
            <DistanceMeters>57777.403793884</DistanceMeters>
          </Trackpoint>
          <Trackpoint>
            <Time>2020-01-19T10:16:17.000Z</Time>
            <Position>
              <LatitudeDegrees>38.95593610592186450958251953125</LatitudeDegrees>
              <LongitudeDegrees>-2.83582055009901523590087890625</LongitudeDegrees>
            </Position>
            <AltitudeMeters>908.5999755859375</AltitudeMeters>
            <DistanceMeters>57786.92924443</DistanceMeters>
          </Trackpoint>
          <Trackpoint>
            <Time>2020-01-19T10:16:19.000Z</Time>
            <Position>
              <LatitudeDegrees>38.95598731935024261474609375</LatitudeDegrees>
              <LongitudeDegrees>-2.83573891036212444305419921875</LongitudeDegrees>
            </Position>
            <AltitudeMeters>908.4000244140625</AltitudeMeters>
            <DistanceMeters>57796.007155953</DistanceMeters>
          </Trackpoint>
          <Trackpoint>
            <Time>2020-01-19T10:16:21.000Z</Time>
            <Position>
              <LatitudeDegrees>38.9560376107692718505859375</LatitudeDegrees>
              <LongitudeDegrees>-2.8356576897203922271728515625</LongitudeDegrees>
            </Position>
            <AltitudeMeters>908.20001220703125</AltitudeMeters>
            <DistanceMeters>57804.993086265</DistanceMeters>
          </Trackpoint>
          <Trackpoint>
            <Time>2020-01-19T10:16:25.000Z</Time>
            <Position>
              <LatitudeDegrees>38.9561477489769458770751953125</LatitudeDegrees>
              <LongitudeDegrees>-2.8354940749704837799072265625</LongitudeDegrees>
            </Position>
            <AltitudeMeters>907.5999755859375</AltitudeMeters>
            <DistanceMeters>57823.723234952</DistanceMeters>
          </Trackpoint>
          <Trackpoint>
            <Time>2020-01-19T10:16:26.000Z</Time>
            <Position>
              <LatitudeDegrees>38.95617901347577571868896484375</LatitudeDegrees>
              <LongitudeDegrees>-2.8354528360068798065185546875</LongitudeDegrees>
            </Position>
            <AltitudeMeters>907.4000244140625</AltitudeMeters>
            <DistanceMeters>57828.708289653</DistanceMeters>
          </Trackpoint>
          <Trackpoint>
            <Time>2020-01-19T10:16:33.000Z</Time>
            <Position>
              <LatitudeDegrees>38.95640901289880275726318359375</LatitudeDegrees>
              <LongitudeDegrees>-2.835174389183521270751953125</LongitudeDegrees>
            </Position>
            <AltitudeMeters>906</AltitudeMeters>
            <DistanceMeters>57863.866889802</DistanceMeters>
          </Trackpoint>
          <Trackpoint>
            <Time>2020-01-19T10:16:35.000Z</Time>
            <Position>
              <LatitudeDegrees>38.9564587175846099853515625</LatitudeDegrees>
              <LongitudeDegrees>-2.835071794688701629638671875</LongitudeDegrees>
            </Position>
            <AltitudeMeters>905.79998779296875</AltitudeMeters>
            <DistanceMeters>57874.329326739</DistanceMeters>
          </Trackpoint>
          <Trackpoint>
            <Time>2020-01-19T10:16:40.000Z</Time>
            <Position>
              <LatitudeDegrees>38.9565847814083099365234375</LatitudeDegrees>
              <LongitudeDegrees>-2.83483701758086681365966796875</LongitudeDegrees>
            </Position>
            <AltitudeMeters>905.20001220703125</AltitudeMeters>
            <DistanceMeters>57899.023111424</DistanceMeters>
          </Trackpoint>
          <Trackpoint>
            <Time>2020-01-19T10:16:42.000Z</Time>
            <Position>
              <LatitudeDegrees>38.95665728487074375152587890625</LatitudeDegrees>
              <LongitudeDegrees>-2.83476325683295726776123046875</LongitudeDegrees>
            </Position>
            <AltitudeMeters>904.79998779296875</AltitudeMeters>
            <DistanceMeters>57909.312359027</DistanceMeters>
          </Trackpoint>
          <Trackpoint>
            <Time>2020-01-19T10:16:44.000Z</Time>
            <Position>
              <LatitudeDegrees>38.9567431993782520294189453125</LatitudeDegrees>
              <LongitudeDegrees>-2.83472679555416107177734375</LongitudeDegrees>
            </Position>
            <AltitudeMeters>904.4000244140625</AltitudeMeters>
            <DistanceMeters>57919.381604198</DistanceMeters>
          </Trackpoint>
          <Trackpoint>
            <Time>2020-01-19T10:16:45.000Z</Time>
            <Position>
              <LatitudeDegrees>38.9567887969315052032470703125</LatitudeDegrees>
              <LongitudeDegrees>-2.8347108699381351470947265625</LongitudeDegrees>
            </Position>
            <AltitudeMeters>904.20001220703125</AltitudeMeters>
            <DistanceMeters>57924.639081159</DistanceMeters>
          </Trackpoint>
          <Trackpoint>
            <Time>2020-01-19T10:16:46.000Z</Time>
            <Position>
              <LatitudeDegrees>38.9568307064473628997802734375</LatitudeDegrees>
              <LongitudeDegrees>-2.83468312583863735198974609375</LongitudeDegrees>
            </Position>
            <AltitudeMeters>904</AltitudeMeters>
            <DistanceMeters>57929.885382046</DistanceMeters>
          </Trackpoint>
          <Trackpoint>
            <Time>2020-01-19T10:16:49.000Z</Time>
            <Position>
              <LatitudeDegrees>38.95694411359727382659912109375</LatitudeDegrees>
              <LongitudeDegrees>-2.8345807828009128570556640625</LongitudeDegrees>
            </Position>
            <AltitudeMeters>903.4000244140625</AltitudeMeters>
            <DistanceMeters>57945.305790698</DistanceMeters>
          </Trackpoint>
          <Trackpoint>
            <Time>2020-01-19T10:16:51.000Z</Time>
            <Position>
              <LatitudeDegrees>38.95701485686004161834716796875</LatitudeDegrees>
              <LongitudeDegrees>-2.8345019929111003875732421875</LongitudeDegrees>
            </Position>
            <AltitudeMeters>903.20001220703125</AltitudeMeters>
            <DistanceMeters>57955.722383162</DistanceMeters>
          </Trackpoint>
          <Trackpoint>
            <Time>2020-01-19T10:16:52.000Z</Time>
            <Position>
              <LatitudeDegrees>38.95704947412014007568359375</LatitudeDegrees>
              <LongitudeDegrees>-2.834459580481052398681640625</LongitudeDegrees>
            </Position>
            <AltitudeMeters>903</AltitudeMeters>
            <DistanceMeters>57961.043879167</DistanceMeters>
          </Trackpoint>
          <Trackpoint>
            <Time>2020-01-19T10:16:55.000Z</Time>
            <Position>
              <LatitudeDegrees>38.95712264813482761383056640625</LatitudeDegrees>
              <LongitudeDegrees>-2.83431583084166049957275390625</LongitudeDegrees>
            </Position>
            <AltitudeMeters>902.79998779296875</AltitudeMeters>
            <DistanceMeters>57975.914269611</DistanceMeters>
          </Trackpoint>
          <Trackpoint>
            <Time>2020-01-19T10:16:59.000Z</Time>
            <Position>
              <LatitudeDegrees>38.95722356624901294708251953125</LatitudeDegrees>
              <LongitudeDegrees>-2.8341499529778957366943359375</LongitudeDegrees>
            </Position>
            <AltitudeMeters>902.4000244140625</AltitudeMeters>
            <DistanceMeters>57994.143058736</DistanceMeters>
          </Trackpoint>
          <Trackpoint>
            <Time>2020-01-19T10:17:01.000Z</Time>
            <Position>
              <LatitudeDegrees>38.95726782269775867462158203125</LatitudeDegrees>
              <LongitudeDegrees>-2.83405330963432788848876953125</LongitudeDegrees>
            </Position>
            <AltitudeMeters>901.79998779296875</AltitudeMeters>
            <DistanceMeters>58003.849748059</DistanceMeters>
          </Trackpoint>
          <Trackpoint>
            <Time>2020-01-19T10:17:03.000Z</Time>
            <Position>
              <LatitudeDegrees>38.957331441342830657958984375</LatitudeDegrees>
              <LongitudeDegrees>-2.83398357219994068145751953125</LongitudeDegrees>
            </Position>
            <AltitudeMeters>901.4000244140625</AltitudeMeters>
            <DistanceMeters>58013.153635032</DistanceMeters>
          </Trackpoint>
          <Trackpoint>
            <Time>2020-01-19T10:17:05.000Z</Time>
            <Position>
              <LatitudeDegrees>38.95740645937621593475341796875</LatitudeDegrees>
              <LongitudeDegrees>-2.8339182771742343902587890625</LongitudeDegrees>
            </Position>
            <AltitudeMeters>900.79998779296875</AltitudeMeters>
            <DistanceMeters>58023.236323195</DistanceMeters>
          </Trackpoint>
          <Trackpoint>
            <Time>2020-01-19T10:17:07.000Z</Time>
            <Position>
              <LatitudeDegrees>38.9574801363050937652587890625</LatitudeDegrees>
              <LongitudeDegrees>-2.8338475339114665985107421875</LongitudeDegrees>
            </Position>
            <AltitudeMeters>900.4000244140625</AltitudeMeters>
            <DistanceMeters>58033.471013555</DistanceMeters>
          </Trackpoint>
          <Trackpoint>
            <Time>2020-01-19T10:17:13.000Z</Time>
            <Position>
              <LatitudeDegrees>38.957720696926116943359375</LatitudeDegrees>
              <LongitudeDegrees>-2.83365265466272830963134765625</LongitudeDegrees>
            </Position>
            <AltitudeMeters>898.79998779296875</AltitudeMeters>
            <DistanceMeters>58065.115622846</DistanceMeters>
          </Trackpoint>
          <Trackpoint>
            <Time>2020-01-19T10:17:15.000Z</Time>
            <Position>
              <LatitudeDegrees>38.95777828060090541839599609375</LatitudeDegrees>
              <LongitudeDegrees>-2.83355358056724071502685546875</LongitudeDegrees>
            </Position>
            <AltitudeMeters>898.4000244140625</AltitudeMeters>
            <DistanceMeters>58075.821216254</DistanceMeters>
          </Trackpoint>
          <Trackpoint>
            <Time>2020-01-19T10:17:17.000Z</Time>
            <Position>
              <LatitudeDegrees>38.9578132331371307373046875</LatitudeDegrees>
              <LongitudeDegrees>-2.83344595693051815032958984375</LongitudeDegrees>
            </Position>
            <AltitudeMeters>898.20001220703125</AltitudeMeters>
            <DistanceMeters>58085.91554053</DistanceMeters>
          </Trackpoint>
          <Trackpoint>
            <Time>2020-01-19T10:17:19.000Z</Time>
            <Position>
              <LatitudeDegrees>38.9578522928059101104736328125</LatitudeDegrees>
              <LongitudeDegrees>-2.83337186090648174285888671875</LongitudeDegrees>
            </Position>
            <AltitudeMeters>898</AltitudeMeters>
            <DistanceMeters>58093.663569196</DistanceMeters>
          </Trackpoint>
          <Trackpoint>
            <Time>2020-01-19T10:17:22.000Z</Time>
            <Position>
              <LatitudeDegrees>38.95792949013411998748779296875</LatitudeDegrees>
              <LongitudeDegrees>-2.8333999402821063995361328125</LongitudeDegrees>
            </Position>
            <AltitudeMeters>898</AltitudeMeters>
            <DistanceMeters>58102.592541417</DistanceMeters>
          </Trackpoint>
          <Trackpoint>
            <Time>2020-01-19T10:17:25.000Z</Time>
            <Position>
              <LatitudeDegrees>38.95801330916583538055419921875</LatitudeDegrees>
              <LongitudeDegrees>-2.83348937518894672393798828125</LongitudeDegrees>
            </Position>
            <AltitudeMeters>898.20001220703125</AltitudeMeters>
            <DistanceMeters>58114.714315375</DistanceMeters>
          </Trackpoint>
          <Trackpoint>
            <Time>2020-01-19T10:17:27.000Z</Time>
            <Position>
              <LatitudeDegrees>38.958079777657985687255859375</LatitudeDegrees>
              <LongitudeDegrees>-2.83355676569044589996337890625</LongitudeDegrees>
            </Position>
            <AltitudeMeters>898.4000244140625</AltitudeMeters>
            <DistanceMeters>58124.134909374</DistanceMeters>
          </Trackpoint>
          <Trackpoint>
            <Time>2020-01-19T10:17:30.000Z</Time>
            <Position>
              <LatitudeDegrees>38.95818832330405712127685546875</LatitudeDegrees>
              <LongitudeDegrees>-2.83365416340529918670654296875</LongitudeDegrees>
            </Position>
            <AltitudeMeters>898.5999755859375</AltitudeMeters>
            <DistanceMeters>58138.866195709</DistanceMeters>
          </Trackpoint>
          <Trackpoint>
            <Time>2020-01-19T10:17:31.000Z</Time>
            <Position>
              <LatitudeDegrees>38.95822201855480670928955078125</LatitudeDegrees>
              <LongitudeDegrees>-2.833690457046031951904296875</LongitudeDegrees>
            </Position>
            <AltitudeMeters>898.79998779296875</AltitudeMeters>
            <DistanceMeters>58143.758918127</DistanceMeters>
          </Trackpoint>
          <Trackpoint>
            <Time>2020-01-19T10:17:33.000Z</Time>
            <Position>
              <LatitudeDegrees>38.9582794345915317535400390625</LatitudeDegrees>
              <LongitudeDegrees>-2.8337774612009525299072265625</LongitudeDegrees>
            </Position>
            <AltitudeMeters>898.79998779296875</AltitudeMeters>
            <DistanceMeters>58153.635298321</DistanceMeters>
          </Trackpoint>
          <Trackpoint>
            <Time>2020-01-19T10:17:35.000Z</Time>
            <Position>
              <LatitudeDegrees>38.95833919756114482879638671875</LatitudeDegrees>
              <LongitudeDegrees>-2.8338705003261566162109375</LongitudeDegrees>
            </Position>
            <AltitudeMeters>898.79998779296875</AltitudeMeters>
            <DistanceMeters>58164.079594537</DistanceMeters>
          </Trackpoint>
          <Trackpoint>
            <Time>2020-01-19T10:17:38.000Z</Time>
            <Position>
              <LatitudeDegrees>38.95843810401856899261474609375</LatitudeDegrees>
              <LongitudeDegrees>-2.83399698324501514434814453125</LongitudeDegrees>
            </Position>
            <AltitudeMeters>898.79998779296875</AltitudeMeters>
            <DistanceMeters>58179.604761217</DistanceMeters>
          </Trackpoint>
          <Trackpoint>
            <Time>2020-01-19T10:17:45.000Z</Time>
            <Position>
              <LatitudeDegrees>38.9587022177875041961669921875</LatitudeDegrees>
              <LongitudeDegrees>-2.834239304065704345703125</LongitudeDegrees>
            </Position>
            <AltitudeMeters>898.79998779296875</AltitudeMeters>
            <DistanceMeters>58215.715662881</DistanceMeters>
          </Trackpoint>
          <Trackpoint>
            <Time>2020-01-19T10:17:50.000Z</Time>
            <Position>
              <LatitudeDegrees>38.95887681283056735992431640625</LatitudeDegrees>
              <LongitudeDegrees>-2.83443032763898372650146484375</LongitudeDegrees>
            </Position>
            <AltitudeMeters>898.79998779296875</AltitudeMeters>
            <DistanceMeters>58241.229583604</DistanceMeters>
          </Trackpoint>
          <Trackpoint>
            <Time>2020-01-19T10:17:54.000Z</Time>
            <Position>
              <LatitudeDegrees>38.95902735181152820587158203125</LatitudeDegrees>
              <LongitudeDegrees>-2.83457248471677303314208984375</LongitudeDegrees>
            </Position>
            <AltitudeMeters>898.79998779296875</AltitudeMeters>
            <DistanceMeters>58262.016772399</DistanceMeters>
          </Trackpoint>
          <Trackpoint>
            <Time>2020-01-19T10:17:55.000Z</Time>
            <Position>
              <LatitudeDegrees>38.95906490273773670196533203125</LatitudeDegrees>
              <LongitudeDegrees>-2.834609113633632659912109375</LongitudeDegrees>
            </Position>
            <AltitudeMeters>898.5999755859375</AltitudeMeters>
            <DistanceMeters>58267.262212603</DistanceMeters>
          </Trackpoint>
          <Trackpoint>
            <Time>2020-01-19T10:17:56.000Z</Time>
            <Position>
              <LatitudeDegrees>38.959110416471958160400390625</LatitudeDegrees>
              <LongitudeDegrees>-2.8346307389438152313232421875</LongitudeDegrees>
            </Position>
            <AltitudeMeters>898.4000244140625</AltitudeMeters>
            <DistanceMeters>58272.662038233</DistanceMeters>
          </Trackpoint>
          <Trackpoint>
            <Time>2020-01-19T10:17:58.000Z</Time>
            <Position>
              <LatitudeDegrees>38.95920504815876483917236328125</LatitudeDegrees>
              <LongitudeDegrees>-2.83463551662862300872802734375</LongitudeDegrees>
            </Position>
            <AltitudeMeters>897.79998779296875</AltitudeMeters>
            <DistanceMeters>58283.202724196</DistanceMeters>
          </Trackpoint>
          <Trackpoint>
            <Time>2020-01-19T10:18:00.000Z</Time>
            <Position>
              <LatitudeDegrees>38.9592936448752880096435546875</LatitudeDegrees>
              <LongitudeDegrees>-2.83466401509940624237060546875</LongitudeDegrees>
            </Position>
            <AltitudeMeters>897.20001220703125</AltitudeMeters>
            <DistanceMeters>58293.367473807</DistanceMeters>
          </Trackpoint>
          <Trackpoint>
            <Time>2020-01-19T10:18:03.000Z</Time>
            <Position>
              <LatitudeDegrees>38.95941023714840412139892578125</LatitudeDegrees>
              <LongitudeDegrees>-2.8347521089017391204833984375</LongitudeDegrees>
            </Position>
            <AltitudeMeters>896.4000244140625</AltitudeMeters>
            <DistanceMeters>58308.418337493</DistanceMeters>
          </Trackpoint>
          <Trackpoint>
            <Time>2020-01-19T10:18:04.000Z</Time>
            <Position>
              <LatitudeDegrees>38.95944426767528057098388671875</LatitudeDegrees>
              <LongitudeDegrees>-2.83479309640824794769287109375</LongitudeDegrees>
            </Position>
            <AltitudeMeters>896.20001220703125</AltitudeMeters>
            <DistanceMeters>58313.607527021</DistanceMeters>
          </Trackpoint>
          <Trackpoint>
            <Time>2020-01-19T10:18:05.000Z</Time>
            <Position>
              <LatitudeDegrees>38.9594716764986515045166015625</LatitudeDegrees>
              <LongitudeDegrees>-2.834837771952152252197265625</LongitudeDegrees>
            </Position>
            <AltitudeMeters>896</AltitudeMeters>
            <DistanceMeters>58318.532441774</DistanceMeters>
          </Trackpoint>
          <Trackpoint>
            <Time>2020-01-19T10:18:07.000Z</Time>
            <Position>
              <LatitudeDegrees>38.959523141384124755859375</LatitudeDegrees>
              <LongitudeDegrees>-2.83493374474346637725830078125</LongitudeDegrees>
            </Position>
            <AltitudeMeters>895.79998779296875</AltitudeMeters>
            <DistanceMeters>58328.62229221</DistanceMeters>
          </Trackpoint>
          <Trackpoint>
            <Time>2020-01-19T10:18:09.000Z</Time>
            <Position>
              <LatitudeDegrees>38.9595963992178440093994140625</LatitudeDegrees>
              <LongitudeDegrees>-2.83500968478620052337646484375</LongitudeDegrees>
            </Position>
            <AltitudeMeters>895.79998779296875</AltitudeMeters>
            <DistanceMeters>58339.095081165</DistanceMeters>
          </Trackpoint>
          <Trackpoint>
            <Time>2020-01-19T10:18:12.000Z</Time>
            <Position>
              <LatitudeDegrees>38.95971986465156078338623046875</LatitudeDegrees>
              <LongitudeDegrees>-2.835098616778850555419921875</LongitudeDegrees>
            </Position>
            <AltitudeMeters>895.5999755859375</AltitudeMeters>
            <DistanceMeters>58354.845454496</DistanceMeters>
          </Trackpoint>
          <Trackpoint>
            <Time>2020-01-19T10:18:14.000Z</Time>
            <Position>
              <LatitudeDegrees>38.95980016328394412994384765625</LatitudeDegrees>
              <LongitudeDegrees>-2.835156284272670745849609375</LongitudeDegrees>
            </Position>
            <AltitudeMeters>895.5999755859375</AltitudeMeters>
            <DistanceMeters>58365.081468221</DistanceMeters>
          </Trackpoint>
          <Trackpoint>
            <Time>2020-01-19T10:18:15.000Z</Time>
            <Position>
              <LatitudeDegrees>38.9598384685814380645751953125</LatitudeDegrees>
              <LongitudeDegrees>-2.83518821932375431060791015625</LongitudeDegrees>
            </Position>
            <AltitudeMeters>895.5999755859375</AltitudeMeters>
            <DistanceMeters>58370.161621612</DistanceMeters>
          </Trackpoint>
          <Trackpoint>
            <Time>2020-01-19T10:18:16.000Z</Time>
            <Position>
              <LatitudeDegrees>38.959875516593456268310546875</LatitudeDegrees>
              <LongitudeDegrees>-2.83522275276482105255126953125</LongitudeDegrees>
            </Position>
            <AltitudeMeters>895.5999755859375</AltitudeMeters>
            <DistanceMeters>58375.254202446</DistanceMeters>
          </Trackpoint>
          <Trackpoint>
            <Time>2020-01-19T10:18:20.000Z</Time>
            <Position>
              <LatitudeDegrees>38.96002496592700481414794921875</LatitudeDegrees>
              <LongitudeDegrees>-2.83535434864461421966552734375</LongitudeDegrees>
            </Position>
            <AltitudeMeters>895.79998779296875</AltitudeMeters>
            <DistanceMeters>58395.413532553</DistanceMeters>
          </Trackpoint>
          <Trackpoint>
            <Time>2020-01-19T10:18:25.000Z</Time>
            <Position>
              <LatitudeDegrees>38.96023325622081756591796875</LatitudeDegrees>
              <LongitudeDegrees>-2.8354779817163944244384765625</LongitudeDegrees>
            </Position>
            <AltitudeMeters>896</AltitudeMeters>
            <DistanceMeters>58420.946911865</DistanceMeters>
          </Trackpoint>
          <Trackpoint>
            <Time>2020-01-19T10:18:30.000Z</Time>
            <Position>
              <LatitudeDegrees>38.96041673608124256134033203125</LatitudeDegrees>
              <LongitudeDegrees>-2.8355581127107143402099609375</LongitudeDegrees>
            </Position>
            <AltitudeMeters>896.20001220703125</AltitudeMeters>
            <DistanceMeters>58442.513998771</DistanceMeters>
          </Trackpoint>
          <Trackpoint>
            <Time>2020-01-19T10:18:33.000Z</Time>
            <Position>
              <LatitudeDegrees>38.960540704429149627685546875</LatitudeDegrees>
              <LongitudeDegrees>-2.835591137409210205078125</LongitudeDegrees>
            </Position>
            <AltitudeMeters>896.20001220703125</AltitudeMeters>
            <DistanceMeters>58456.604893734</DistanceMeters>
          </Trackpoint>
          <Trackpoint>
            <Time>2020-01-19T10:18:35.000Z</Time>
            <Position>
              <LatitudeDegrees>38.96062678657472133636474609375</LatitudeDegrees>
              <LongitudeDegrees>-2.8356027044355869293212890625</LongitudeDegrees>
            </Position>
            <AltitudeMeters>896</AltitudeMeters>
            <DistanceMeters>58466.238278166</DistanceMeters>
          </Trackpoint>
          <Trackpoint>
            <Time>2020-01-19T10:18:37.000Z</Time>
            <Position>
              <LatitudeDegrees>38.96072653122246265411376953125</LatitudeDegrees>
              <LongitudeDegrees>-2.8355983458459377288818359375</LongitudeDegrees>
            </Position>
            <AltitudeMeters>895.5999755859375</AltitudeMeters>
            <DistanceMeters>58477.346246681</DistanceMeters>
          </Trackpoint>
          <Trackpoint>
            <Time>2020-01-19T10:18:40.000Z</Time>
            <Position>
              <LatitudeDegrees>38.9608701132237911224365234375</LatitudeDegrees>
              <LongitudeDegrees>-2.83554629422724246978759765625</LongitudeDegrees>
            </Position>
            <AltitudeMeters>895.20001220703125</AltitudeMeters>
            <DistanceMeters>58493.950108697</DistanceMeters>
          </Trackpoint>
          <Trackpoint>
            <Time>2020-01-19T10:18:45.000Z</Time>
            <Position>
              <LatitudeDegrees>38.9610877074301242828369140625</LatitudeDegrees>
              <LongitudeDegrees>-2.83539458177983760833740234375</LongitudeDegrees>
            </Position>
            <AltitudeMeters>894.5999755859375</AltitudeMeters>
            <DistanceMeters>58521.49917102</DistanceMeters>
          </Trackpoint>
          <Trackpoint>
            <Time>2020-01-19T10:18:46.000Z</Time>
            <Position>
              <LatitudeDegrees>38.96112735383212566375732421875</LatitudeDegrees>
              <LongitudeDegrees>-2.8353631496429443359375</LongitudeDegrees>
            </Position>
            <AltitudeMeters>894.5999755859375</AltitudeMeters>
            <DistanceMeters>58526.682266371</DistanceMeters>
          </Trackpoint>
          <Trackpoint>
            <Time>2020-01-19T10:18:51.000Z</Time>
            <Position>
              <LatitudeDegrees>38.96126749925315380096435546875</LatitudeDegrees>
              <LongitudeDegrees>-2.8351393528282642364501953125</LongitudeDegrees>
            </Position>
            <AltitudeMeters>894.79998779296875</AltitudeMeters>
            <DistanceMeters>58551.550595936</DistanceMeters>
          </Trackpoint>
          <Trackpoint>
            <Time>2020-01-19T10:18:55.000Z</Time>
            <Position>
              <LatitudeDegrees>38.96131158806383609771728515625</LatitudeDegrees>
              <LongitudeDegrees>-2.83492653630673885345458984375</LongitudeDegrees>
            </Position>
            <AltitudeMeters>895</AltitudeMeters>
            <DistanceMeters>58570.611448374</DistanceMeters>
          </Trackpoint>
          <Trackpoint>
            <Time>2020-01-19T10:18:59.000Z</Time>
            <Position>
              <LatitudeDegrees>38.961336314678192138671875</LatitudeDegrees>
              <LongitudeDegrees>-2.83469016663730144500732421875</LongitudeDegrees>
            </Position>
            <AltitudeMeters>894.79998779296875</AltitudeMeters>
            <DistanceMeters>58591.252160731</DistanceMeters>
          </Trackpoint>
          <Trackpoint>
            <Time>2020-01-19T10:19:04.000Z</Time>
            <Position>
              <LatitudeDegrees>38.96135835908353328704833984375</LatitudeDegrees>
              <LongitudeDegrees>-2.83438875339925289154052734375</LongitudeDegrees>
            </Position>
            <AltitudeMeters>894.5999755859375</AltitudeMeters>
            <DistanceMeters>58617.453009409</DistanceMeters>
          </Trackpoint>
          <Trackpoint>
            <Time>2020-01-19T10:19:07.000Z</Time>
            <Position>
              <LatitudeDegrees>38.9613767154514789581298828125</LatitudeDegrees>
              <LongitudeDegrees>-2.83421373926103115081787109375</LongitudeDegrees>
            </Position>
            <AltitudeMeters>894.4000244140625</AltitudeMeters>
            <DistanceMeters>58632.736661376</DistanceMeters>
          </Trackpoint>
          <Trackpoint>
            <Time>2020-01-19T10:19:12.000Z</Time>
            <Position>
              <LatitudeDegrees>38.96141267381608486175537109375</LatitudeDegrees>
              <LongitudeDegrees>-2.83391383476555347442626953125</LongitudeDegrees>
            </Position>
            <AltitudeMeters>894</AltitudeMeters>
            <DistanceMeters>58658.998613865</DistanceMeters>
          </Trackpoint>
          <Trackpoint>
            <Time>2020-01-19T10:19:14.000Z</Time>
            <Position>
              <LatitudeDegrees>38.96143564023077487945556640625</LatitudeDegrees>
              <LongitudeDegrees>-2.83379263244569301605224609375</LongitudeDegrees>
            </Position>
            <AltitudeMeters>894</AltitudeMeters>
            <DistanceMeters>58669.795338221</DistanceMeters>
          </Trackpoint>
          <Trackpoint>
            <Time>2020-01-19T10:19:17.000Z</Time>
            <Position>
              <LatitudeDegrees>38.961476124823093414306640625</LatitudeDegrees>
              <LongitudeDegrees>-2.83361074514687061309814453125</LongitudeDegrees>
            </Position>
            <AltitudeMeters>894</AltitudeMeters>
            <DistanceMeters>58686.169188398</DistanceMeters>
          </Trackpoint>
          <Trackpoint>
            <Time>2020-01-19T10:19:19.000Z</Time>
            <Position>
              <LatitudeDegrees>38.96151241846382617950439453125</LatitudeDegrees>
              <LongitudeDegrees>-2.83349163830280303955078125</LongitudeDegrees>
            </Position>
            <AltitudeMeters>894</AltitudeMeters>
            <DistanceMeters>58697.240514319</DistanceMeters>
          </Trackpoint>
          <Trackpoint>
            <Time>2020-01-19T10:19:23.000Z</Time>
            <Position>
              <LatitudeDegrees>38.96160847507417201995849609375</LatitudeDegrees>
              <LongitudeDegrees>-2.83327043987810611724853515625</LongitudeDegrees>
            </Position>
            <AltitudeMeters>894</AltitudeMeters>
            <DistanceMeters>58719.167195099</DistanceMeters>
          </Trackpoint>
          <Trackpoint>
            <Time>2020-01-19T10:19:24.000Z</Time>
            <Position>
              <LatitudeDegrees>38.96162741817533969879150390625</LatitudeDegrees>
              <LongitudeDegrees>-2.833211682736873626708984375</LongitudeDegrees>
            </Position>
            <AltitudeMeters>894</AltitudeMeters>
            <DistanceMeters>58724.672187065</DistanceMeters>
          </Trackpoint>
          <Trackpoint>
            <Time>2020-01-19T10:19:33.000Z</Time>
            <Position>
              <LatitudeDegrees>38.96176211535930633544921875</LatitudeDegrees>
              <LongitudeDegrees>-2.8326723910868167877197265625</LongitudeDegrees>
            </Position>
            <AltitudeMeters>894</AltitudeMeters>
            <DistanceMeters>58773.693815594</DistanceMeters>
          </Trackpoint>
          <Trackpoint>
            <Time>2020-01-19T10:19:34.000Z</Time>
            <Position>
              <LatitudeDegrees>38.961775191128253936767578125</LatitudeDegrees>
              <LongitudeDegrees>-2.8326100297272205352783203125</LongitudeDegrees>
            </Position>
            <AltitudeMeters>894</AltitudeMeters>
            <DistanceMeters>58779.283454625</DistanceMeters>
          </Trackpoint>
          <Trackpoint>
            <Time>2020-01-19T10:19:44.000Z</Time>
            <Position>
              <LatitudeDegrees>38.96189664490520954132080078125</LatitudeDegrees>
              <LongitudeDegrees>-2.83196277916431427001953125</LongitudeDegrees>
            </Position>
            <AltitudeMeters>891.79998779296875</AltitudeMeters>
            <DistanceMeters>58836.907422293</DistanceMeters>
          </Trackpoint>
          <Trackpoint>
            <Time>2020-01-19T10:19:49.000Z</Time>
            <Position>
              <LatitudeDegrees>38.96193821914494037628173828125</LatitudeDegrees>
              <LongitudeDegrees>-2.8316357173025608062744140625</LongitudeDegrees>
            </Position>
            <AltitudeMeters>891</AltitudeMeters>
            <DistanceMeters>58865.58865089</DistanceMeters>
          </Trackpoint>
          <Trackpoint>
            <Time>2020-01-19T10:19:53.000Z</Time>
            <Position>
              <LatitudeDegrees>38.961983062326908111572265625</LatitudeDegrees>
              <LongitudeDegrees>-2.83137847669422626495361328125</LongitudeDegrees>
            </Position>
            <AltitudeMeters>891</AltitudeMeters>
            <DistanceMeters>58888.404167248</DistanceMeters>
          </Trackpoint>
          <Trackpoint>
            <Time>2020-01-19T10:19:54.000Z</Time>
            <Position>
              <LatitudeDegrees>38.9619885943830013275146484375</LatitudeDegrees>
              <LongitudeDegrees>-2.83131544478237628936767578125</LongitudeDegrees>
            </Position>
            <AltitudeMeters>891</AltitudeMeters>
            <DistanceMeters>58893.893553834</DistanceMeters>
          </Trackpoint>
          <Trackpoint>
            <Time>2020-01-19T10:20:00.000Z</Time>
            <Position>
              <LatitudeDegrees>38.96200812421739101409912109375</LatitudeDegrees>
              <LongitudeDegrees>-2.83093641512095928192138671875</LongitudeDegrees>
            </Position>
            <AltitudeMeters>890.79998779296875</AltitudeMeters>
            <DistanceMeters>58926.768127732</DistanceMeters>
          </Trackpoint>
          <Trackpoint>
            <Time>2020-01-19T10:20:04.000Z</Time>
            <Position>
              <LatitudeDegrees>38.9620080403983592987060546875</LatitudeDegrees>
              <LongitudeDegrees>-2.830677330493927001953125</LongitudeDegrees>
            </Position>
            <AltitudeMeters>890.79998779296875</AltitudeMeters>
            <DistanceMeters>58949.190405406</DistanceMeters>
          </Trackpoint>
          <Trackpoint>
            <Time>2020-01-19T10:20:09.000Z</Time>
            <Position>
              <LatitudeDegrees>38.96199773065745830535888671875</LatitudeDegrees>
              <LongitudeDegrees>-2.8303653560578823089599609375</LongitudeDegrees>
            </Position>
            <AltitudeMeters>890.4000244140625</AltitudeMeters>
            <DistanceMeters>58976.214439197</DistanceMeters>
          </Trackpoint>
          <Trackpoint>
            <Time>2020-01-19T10:20:11.000Z</Time>
            <Position>
              <LatitudeDegrees>38.96202958188951015472412109375</LatitudeDegrees>
              <LongitudeDegrees>-2.83024658448994159698486328125</LongitudeDegrees>
            </Position>
            <AltitudeMeters>890.20001220703125</AltitudeMeters>
            <DistanceMeters>58987.087422265</DistanceMeters>
          </Trackpoint>
          <Trackpoint>
            <Time>2020-01-19T10:20:13.000Z</Time>
            <Position>
              <LatitudeDegrees>38.9620828069746494293212890625</LatitudeDegrees>
              <LongitudeDegrees>-2.8301320038735866546630859375</LongitudeDegrees>
            </Position>
            <AltitudeMeters>890</AltitudeMeters>
            <DistanceMeters>58998.638543836</DistanceMeters>
          </Trackpoint>
          <Trackpoint>
            <Time>2020-01-19T10:20:14.000Z</Time>
            <Position>
              <LatitudeDegrees>38.96210585720837116241455078125</LatitudeDegrees>
              <LongitudeDegrees>-2.8300719894468784332275390625</LongitudeDegrees>
            </Position>
            <AltitudeMeters>890</AltitudeMeters>
            <DistanceMeters>59004.431277566</DistanceMeters>
          </Trackpoint>
          <Trackpoint>
            <Time>2020-01-19T10:20:15.000Z</Time>
            <Position>
              <LatitudeDegrees>38.96211993880569934844970703125</LatitudeDegrees>
              <LongitudeDegrees>-2.83000870607793331146240234375</LongitudeDegrees>
            </Position>
            <AltitudeMeters>890</AltitudeMeters>
            <DistanceMeters>59010.128127111</DistanceMeters>
          </Trackpoint>
          <Trackpoint>
            <Time>2020-01-19T10:20:21.000Z</Time>
            <Position>
              <LatitudeDegrees>38.96215799264609813690185546875</LatitudeDegrees>
              <LongitudeDegrees>-2.82964459620416164398193359375</LongitudeDegrees>
            </Position>
            <AltitudeMeters>890.20001220703125</AltitudeMeters>
            <DistanceMeters>59041.923048999</DistanceMeters>
          </Trackpoint>
          <Trackpoint>
            <Time>2020-01-19T10:20:24.000Z</Time>
            <Position>
              <LatitudeDegrees>38.96215103566646575927734375</LatitudeDegrees>
              <LongitudeDegrees>-2.8294648043811321258544921875</LongitudeDegrees>
            </Position>
            <AltitudeMeters>889.79998779296875</AltitudeMeters>
            <DistanceMeters>59057.502214403</DistanceMeters>
          </Trackpoint>
          <Trackpoint>
            <Time>2020-01-19T10:20:27.000Z</Time>
            <Position>
              <LatitudeDegrees>38.96212019026279449462890625</LatitudeDegrees>
              <LongitudeDegrees>-2.82929205335676670074462890625</LongitudeDegrees>
            </Position>
            <AltitudeMeters>889.5999755859375</AltitudeMeters>
            <DistanceMeters>59072.841892756</DistanceMeters>
          </Trackpoint>
          <Trackpoint>
            <Time>2020-01-19T10:20:30.000Z</Time>
            <Position>
              <LatitudeDegrees>38.96206780336797237396240234375</LatitudeDegrees>
              <LongitudeDegrees>-2.8291238285601139068603515625</LongitudeDegrees>
            </Position>
            <AltitudeMeters>889.20001220703125</AltitudeMeters>
            <DistanceMeters>59088.525043657</DistanceMeters>
          </Trackpoint>
          <Trackpoint>
            <Time>2020-01-19T10:20:32.000Z</Time>
            <Position>
              <LatitudeDegrees>38.9620452560484409332275390625</LatitudeDegrees>
              <LongitudeDegrees>-2.82901427708566188812255859375</LongitudeDegrees>
            </Position>
            <AltitudeMeters>889.20001220703125</AltitudeMeters>
            <DistanceMeters>59098.332610851</DistanceMeters>
          </Trackpoint>
          <Trackpoint>
            <Time>2020-01-19T10:20:34.000Z</Time>
            <Position>
              <LatitudeDegrees>38.962036035954952239990234375</LatitudeDegrees>
              <LongitudeDegrees>-2.82890380360186100006103515625</LongitudeDegrees>
            </Position>
            <AltitudeMeters>889.4000244140625</AltitudeMeters>
            <DistanceMeters>59107.948638242</DistanceMeters>
          </Trackpoint>
          <Trackpoint>
            <Time>2020-01-19T10:20:44.000Z</Time>
            <Position>
              <LatitudeDegrees>38.96208406426012516021728515625</LatitudeDegrees>
              <LongitudeDegrees>-2.8282822854816913604736328125</LongitudeDegrees>
            </Position>
            <AltitudeMeters>889.79998779296875</AltitudeMeters>
            <DistanceMeters>59162.002386073</DistanceMeters>
          </Trackpoint>
          <Trackpoint>
            <Time>2020-01-19T10:20:54.000Z</Time>
            <Position>
              <LatitudeDegrees>38.96214743144810199737548828125</LatitudeDegrees>
              <LongitudeDegrees>-2.827612571418285369873046875</LongitudeDegrees>
            </Position>
            <AltitudeMeters>888.4000244140625</AltitudeMeters>
            <DistanceMeters>59220.389710121</DistanceMeters>
          </Trackpoint>
          <Trackpoint>
            <Time>2020-01-19T10:21:00.000Z</Time>
            <Position>
              <LatitudeDegrees>38.9621066115796566009521484375</LatitudeDegrees>
              <LongitudeDegrees>-2.82719741575419902801513671875</LongitudeDegrees>
            </Position>
            <AltitudeMeters>888</AltitudeMeters>
            <DistanceMeters>59256.605112825</DistanceMeters>
          </Trackpoint>
          <Trackpoint>
            <Time>2020-01-19T10:21:01.000Z</Time>
            <Position>
              <LatitudeDegrees>38.96210384555160999298095703125</LatitudeDegrees>
              <LongitudeDegrees>-2.8271302767097949981689453125</LongitudeDegrees>
            </Position>
            <AltitudeMeters>888</AltitudeMeters>
            <DistanceMeters>59262.424286878</DistanceMeters>
          </Trackpoint>
          <Trackpoint>
            <Time>2020-01-19T10:21:04.000Z</Time>
            <Position>
              <LatitudeDegrees>38.96212513558566570281982421875</LatitudeDegrees>
              <LongitudeDegrees>-2.82693573273718357086181640625</LongitudeDegrees>
            </Position>
            <AltitudeMeters>887.79998779296875</AltitudeMeters>
            <DistanceMeters>59279.426900421</DistanceMeters>
          </Trackpoint>
          <Trackpoint>
            <Time>2020-01-19T10:21:06.000Z</Time>
            <Position>
              <LatitudeDegrees>38.96211775951087474822998046875</LatitudeDegrees>
              <LongitudeDegrees>-2.826809920370578765869140625</LongitudeDegrees>
            </Position>
            <AltitudeMeters>887.5999755859375</AltitudeMeters>
            <DistanceMeters>59290.346292774</DistanceMeters>
          </Trackpoint>
          <Trackpoint>
            <Time>2020-01-19T10:21:08.000Z</Time>
            <Position>
              <LatitudeDegrees>38.9620806276798248291015625</LatitudeDegrees>
              <LongitudeDegrees>-2.82668687403202056884765625</LongitudeDegrees>
            </Position>
            <AltitudeMeters>887.4000244140625</AltitudeMeters>
            <DistanceMeters>59301.769278575</DistanceMeters>
          </Trackpoint>
          <Trackpoint>
            <Time>2020-01-19T10:21:14.000Z</Time>
            <Position>
              <LatitudeDegrees>38.9619503729045391082763671875</LatitudeDegrees>
              <LongitudeDegrees>-2.82638671807944774627685546875</LongitudeDegrees>
            </Position>
            <AltitudeMeters>886.79998779296875</AltitudeMeters>
            <DistanceMeters>59331.517649147</DistanceMeters>
          </Trackpoint>
          <Trackpoint>
            <Time>2020-01-19T10:21:20.000Z</Time>
            <Position>
              <LatitudeDegrees>38.9618861675262451171875</LatitudeDegrees>
              <LongitudeDegrees>-2.826198041439056396484375</LongitudeDegrees>
            </Position>
            <AltitudeMeters>886.4000244140625</AltitudeMeters>
            <DistanceMeters>59349.341682064</DistanceMeters>
          </Trackpoint>
          <Trackpoint>
            <Time>2020-01-19T10:21:23.000Z</Time>
            <Position>
              <LatitudeDegrees>38.96189262159168720245361328125</LatitudeDegrees>
              <LongitudeDegrees>-2.82615336589515209197998046875</LongitudeDegrees>
            </Position>
            <AltitudeMeters>886.4000244140625</AltitudeMeters>
            <DistanceMeters>59353.273537971</DistanceMeters>
          </Trackpoint>
          <Trackpoint>
            <Time>2020-01-19T10:22:28.000Z</Time>
            <Position>
              <LatitudeDegrees>38.96196638233959674835205078125</LatitudeDegrees>
              <LongitudeDegrees>-2.82619561068713665008544921875</LongitudeDegrees>
            </Position>
            <AltitudeMeters>886.5999755859375</AltitudeMeters>
            <DistanceMeters>59362.260473139</DistanceMeters>
          </Trackpoint>
          <Trackpoint>
            <Time>2020-01-19T10:22:34.000Z</Time>
            <Position>
              <LatitudeDegrees>38.9620650373399257659912109375</LatitudeDegrees>
              <LongitudeDegrees>-2.826277501881122589111328125</LongitudeDegrees>
            </Position>
            <AltitudeMeters>887</AltitudeMeters>
            <DistanceMeters>59375.329324116</DistanceMeters>
          </Trackpoint>
          <Trackpoint>
            <Time>2020-01-19T10:22:36.000Z</Time>
            <Position>
              <LatitudeDegrees>38.96208993159234523773193359375</LatitudeDegrees>
              <LongitudeDegrees>-2.82629124820232391357421875</LongitudeDegrees>
            </Position>
            <AltitudeMeters>887.20001220703125</AltitudeMeters>
            <DistanceMeters>59378.344831864</DistanceMeters>
          </Trackpoint>
          <Trackpoint>
            <Time>2020-01-19T10:22:38.000Z</Time>
            <Position>
              <LatitudeDegrees>38.96211390383541584014892578125</LatitudeDegrees>
              <LongitudeDegrees>-2.82629904337227344512939453125</LongitudeDegrees>
            </Position>
            <AltitudeMeters>887.20001220703125</AltitudeMeters>
            <DistanceMeters>59381.098967702</DistanceMeters>
          </Trackpoint>
          <Trackpoint>
            <Time>2020-01-19T10:22:41.000Z</Time>
            <Position>
              <LatitudeDegrees>38.962129913270473480224609375</LatitudeDegrees>
              <LongitudeDegrees>-2.82629284076392650604248046875</LongitudeDegrees>
            </Position>
            <AltitudeMeters>887.20001220703125</AltitudeMeters>
            <DistanceMeters>59382.961103399</DistanceMeters>
          </Trackpoint>
          <Trackpoint>
            <Time>2020-01-19T10:23:36.000Z</Time>
            <Position>
              <LatitudeDegrees>38.962086327373981475830078125</LatitudeDegrees>
              <LongitudeDegrees>-2.826273143291473388671875</LongitudeDegrees>
            </Position>
            <AltitudeMeters>887</AltitudeMeters>
            <DistanceMeters>59388.103093659</DistanceMeters>
          </Trackpoint>
          <Trackpoint>
            <Time>2020-01-19T10:23:38.000Z</Time>
            <Position>
              <LatitudeDegrees>38.962049782276153564453125</LatitudeDegrees>
              <LongitudeDegrees>-2.826247997581958770751953125</LongitudeDegrees>
            </Position>
            <AltitudeMeters>887</AltitudeMeters>
            <DistanceMeters>59392.715561556</DistanceMeters>
          </Trackpoint>
          <Trackpoint>
            <Time>2020-01-19T10:23:40.000Z</Time>
            <Position>
              <LatitudeDegrees>38.96201315335929393768310546875</LatitudeDegrees>
              <LongitudeDegrees>-2.82621740363538265228271484375</LongitudeDegrees>
            </Position>
            <AltitudeMeters>886.79998779296875</AltitudeMeters>
            <DistanceMeters>59397.575878416</DistanceMeters>
          </Trackpoint>
          <Trackpoint>
            <Time>2020-01-19T10:23:42.000Z</Time>
            <Position>
              <LatitudeDegrees>38.9619741775095462799072265625</LatitudeDegrees>
              <LongitudeDegrees>-2.826182954013347625732421875</LongitudeDegrees>
            </Position>
            <AltitudeMeters>886.5999755859375</AltitudeMeters>
            <DistanceMeters>59402.839363433</DistanceMeters>
          </Trackpoint>
          <Trackpoint>
            <Time>2020-01-19T10:23:44.000Z</Time>
            <Position>
              <LatitudeDegrees>38.96193587221205234527587890625</LatitudeDegrees>
              <LongitudeDegrees>-2.8261432237923145294189453125</LongitudeDegrees>
            </Position>
            <AltitudeMeters>886.4000244140625</AltitudeMeters>
            <DistanceMeters>59408.316398575</DistanceMeters>
          </Trackpoint>
          <Trackpoint>
            <Time>2020-01-19T10:23:46.000Z</Time>
            <Position>
              <LatitudeDegrees>38.96189278922975063323974609375</LatitudeDegrees>
              <LongitudeDegrees>-2.82609385438263416290283203125</LongitudeDegrees>
            </Position>
            <AltitudeMeters>886.4000244140625</AltitudeMeters>
            <DistanceMeters>59414.738967313</DistanceMeters>
          </Trackpoint>
          <Trackpoint>
            <Time>2020-01-19T10:23:54.000Z</Time>
            <Position>
              <LatitudeDegrees>38.96167050115764141082763671875</LatitudeDegrees>
              <LongitudeDegrees>-2.82594432123005390167236328125</LongitudeDegrees>
            </Position>
            <AltitudeMeters>887</AltitudeMeters>
            <DistanceMeters>59442.66017054</DistanceMeters>
          </Trackpoint>
          <Trackpoint>
            <Time>2020-01-19T10:24:04.000Z</Time>
            <Position>
              <LatitudeDegrees>38.96155826747417449951171875</LatitudeDegrees>
              <LongitudeDegrees>-2.82562069594860076904296875</LongitudeDegrees>
            </Position>
            <AltitudeMeters>887</AltitudeMeters>
            <DistanceMeters>59473.327604272</DistanceMeters>
          </Trackpoint>
          <Trackpoint>
            <Time>2020-01-19T10:24:08.000Z</Time>
            <Position>
              <LatitudeDegrees>38.96150286309421062469482421875</LatitudeDegrees>
              <LongitudeDegrees>-2.82551072537899017333984375</LongitudeDegrees>
            </Position>
            <AltitudeMeters>887</AltitudeMeters>
            <DistanceMeters>59484.668078192</DistanceMeters>
          </Trackpoint>
          <Trackpoint>
            <Time>2020-01-19T10:24:12.000Z</Time>
            <Position>
              <LatitudeDegrees>38.96147771738469600677490234375</LatitudeDegrees>
              <LongitudeDegrees>-2.8254009224474430084228515625</LongitudeDegrees>
            </Position>
            <AltitudeMeters>887</AltitudeMeters>
            <DistanceMeters>59494.573673108</DistanceMeters>
          </Trackpoint>
          <Trackpoint>
            <Time>2020-01-19T10:24:14.000Z</Time>
            <Position>
              <LatitudeDegrees>38.96147872321307659149169921875</LatitudeDegrees>
              <LongitudeDegrees>-2.82535691745579242706298828125</LongitudeDegrees>
            </Position>
            <AltitudeMeters>887</AltitudeMeters>
            <DistanceMeters>59498.384232505</DistanceMeters>
          </Trackpoint>
          <Trackpoint>
            <Time>2020-01-19T10:24:19.000Z</Time>
            <Position>
              <LatitudeDegrees>38.9614903740584850311279296875</LatitudeDegrees>
              <LongitudeDegrees>-2.82521828077733516693115234375</LongitudeDegrees>
            </Position>
            <AltitudeMeters>886.79998779296875</AltitudeMeters>
            <DistanceMeters>59510.45262523</DistanceMeters>
          </Trackpoint>
          <Trackpoint>
            <Time>2020-01-19T10:24:21.000Z</Time>
            <Position>
              <LatitudeDegrees>38.96149330772459506988525390625</LatitudeDegrees>
              <LongitudeDegrees>-2.8251645527780055999755859375</LongitudeDegrees>
            </Position>
            <AltitudeMeters>886.5999755859375</AltitudeMeters>
            <DistanceMeters>59515.113780015</DistanceMeters>
          </Trackpoint>
          <Trackpoint>
            <Time>2020-01-19T10:24:24.000Z</Time>
            <Position>
              <LatitudeDegrees>38.96149657666683197021484375</LatitudeDegrees>
              <LongitudeDegrees>-2.8250840865075588226318359375</LongitudeDegrees>
            </Position>
            <AltitudeMeters>886.5999755859375</AltitudeMeters>
            <DistanceMeters>59522.087730956</DistanceMeters>
          </Trackpoint>
          <Trackpoint>
            <Time>2020-01-19T10:24:28.000Z</Time>
            <Position>
              <LatitudeDegrees>38.96154083311557769775390625</LatitudeDegrees>
              <LongitudeDegrees>-2.82498308457434177398681640625</LongitudeDegrees>
            </Position>
            <AltitudeMeters>886.20001220703125</AltitudeMeters>
            <DistanceMeters>59532.121040091</DistanceMeters>
          </Trackpoint>
          <Trackpoint>
            <Time>2020-01-19T10:24:32.000Z</Time>
            <Position>
              <LatitudeDegrees>38.9615658111870288848876953125</LatitudeDegrees>
              <LongitudeDegrees>-2.82493631355464458465576171875</LongitudeDegrees>
            </Position>
            <AltitudeMeters>886</AltitudeMeters>
            <DistanceMeters>59537.031264536</DistanceMeters>
          </Trackpoint>
          <Trackpoint>
            <Time>2020-01-19T10:28:36.000Z</Time>
            <Position>
              <LatitudeDegrees>38.9615195430815219879150390625</LatitudeDegrees>
              <LongitudeDegrees>-2.82499968074262142181396484375</LongitudeDegrees>
            </Position>
            <AltitudeMeters>886.20001220703125</AltitudeMeters>
            <DistanceMeters>59544.554596188</DistanceMeters>
          </Trackpoint>
          <Trackpoint>
            <Time>2020-01-19T10:28:38.000Z</Time>
            <Position>
              <LatitudeDegrees>38.96150202490389347076416015625</LatitudeDegrees>
              <LongitudeDegrees>-2.825041003525257110595703125</LongitudeDegrees>
            </Position>
            <AltitudeMeters>886.4000244140625</AltitudeMeters>
            <DistanceMeters>59548.628572195</DistanceMeters>
          </Trackpoint>
          <Trackpoint>
            <Time>2020-01-19T10:28:40.000Z</Time>
            <Position>
              <LatitudeDegrees>38.96148827858269214630126953125</LatitudeDegrees>
              <LongitudeDegrees>-2.825084589421749114990234375</LongitudeDegrees>
            </Position>
            <AltitudeMeters>886.5999755859375</AltitudeMeters>
            <DistanceMeters>59552.700331072</DistanceMeters>
          </Trackpoint>
          <Trackpoint>
            <Time>2020-01-19T10:28:42.000Z</Time>
            <Position>
              <LatitudeDegrees>38.96147537045180797576904296875</LatitudeDegrees>
              <LongitudeDegrees>-2.8251313604414463043212890625</LongitudeDegrees>
            </Position>
            <AltitudeMeters>886.5999755859375</AltitudeMeters>
            <DistanceMeters>59556.995496514</DistanceMeters>
          </Trackpoint>
          <Trackpoint>
            <Time>2020-01-19T10:28:44.000Z</Time>
            <Position>
              <LatitudeDegrees>38.961469419300556182861328125</LatitudeDegrees>
              <LongitudeDegrees>-2.8251772932708263397216796875</LongitudeDegrees>
            </Position>
            <AltitudeMeters>886.79998779296875</AltitudeMeters>
            <DistanceMeters>59561.024898138</DistanceMeters>
          </Trackpoint>
          <Trackpoint>
            <Time>2020-01-19T10:28:47.000Z</Time>
            <Position>
              <LatitudeDegrees>38.96147319115698337554931640625</LatitudeDegrees>
              <LongitudeDegrees>-2.8252074681222438812255859375</LongitudeDegrees>
            </Position>
            <AltitudeMeters>886.79998779296875</AltitudeMeters>
            <DistanceMeters>59563.668622626</DistanceMeters>
          </Trackpoint>
          <Trackpoint>
            <Time>2020-01-19T10:34:09.000Z</Time>
            <Position>
              <LatitudeDegrees>38.96146883256733417510986328125</LatitudeDegrees>
              <LongitudeDegrees>-2.82531668432056903839111328125</LongitudeDegrees>
            </Position>
            <AltitudeMeters>887</AltitudeMeters>
            <DistanceMeters>59573.13320705</DistanceMeters>
          </Trackpoint>
          <Trackpoint>
            <Time>2020-01-19T10:34:10.000Z</Time>
            <Position>
              <LatitudeDegrees>38.961466737091541290283203125</LatitudeDegrees>
              <LongitudeDegrees>-2.8253399021923542022705078125</LongitudeDegrees>
            </Position>
            <AltitudeMeters>887</AltitudeMeters>
            <DistanceMeters>59575.155736315</DistanceMeters>
          </Trackpoint>
          <Trackpoint>
            <Time>2020-01-19T10:34:12.000Z</Time>
            <Position>
              <LatitudeDegrees>38.96147285588085651397705078125</LatitudeDegrees>
              <LongitudeDegrees>-2.8253942169249057769775390625</LongitudeDegrees>
            </Position>
            <AltitudeMeters>887</AltitudeMeters>
            <DistanceMeters>59579.905171119</DistanceMeters>
          </Trackpoint>
          <Trackpoint>
            <Time>2020-01-19T10:34:14.000Z</Time>
            <Position>
              <LatitudeDegrees>38.9614813216030597686767578125</LatitudeDegrees>
              <LongitudeDegrees>-2.82545498572289943695068359375</LongitudeDegrees>
            </Position>
            <AltitudeMeters>887</AltitudeMeters>
            <DistanceMeters>59585.24699118</DistanceMeters>
          </Trackpoint>
          <Trackpoint>
            <Time>2020-01-19T10:34:16.000Z</Time>
            <Position>
              <LatitudeDegrees>38.9614999294281005859375</LatitudeDegrees>
              <LongitudeDegrees>-2.8255095519125461578369140625</LongitudeDegrees>
            </Position>
            <AltitudeMeters>887</AltitudeMeters>
            <DistanceMeters>59590.403011453</DistanceMeters>
          </Trackpoint>
          <Trackpoint>
            <Time>2020-01-19T10:34:24.000Z</Time>
            <Position>
              <LatitudeDegrees>38.961647115647792816162109375</LatitudeDegrees>
              <LongitudeDegrees>-2.82588045112788677215576171875</LongitudeDegrees>
            </Position>
            <AltitudeMeters>887</AltitudeMeters>
            <DistanceMeters>59626.441195987</DistanceMeters>
          </Trackpoint>
          <Trackpoint>
            <Time>2020-01-19T10:34:31.000Z</Time>
            <Position>
              <LatitudeDegrees>38.96179807372391223907470703125</LatitudeDegrees>
              <LongitudeDegrees>-2.82612201757729053497314453125</LongitudeDegrees>
            </Position>
            <AltitudeMeters>886.5999755859375</AltitudeMeters>
            <DistanceMeters>59653.262307259</DistanceMeters>
          </Trackpoint>
          <Trackpoint>
            <Time>2020-01-19T10:34:34.000Z</Time>
            <Position>
              <LatitudeDegrees>38.96185305900871753692626953125</LatitudeDegrees>
              <LongitudeDegrees>-2.82619510777294635772705078125</LongitudeDegrees>
            </Position>
            <AltitudeMeters>886.5999755859375</AltitudeMeters>
            <DistanceMeters>59662.063443307</DistanceMeters>
          </Trackpoint>
          <Trackpoint>
            <Time>2020-01-19T10:34:36.000Z</Time>
            <Position>
              <LatitudeDegrees>38.96189153194427490234375</LatitudeDegrees>
              <LongitudeDegrees>-2.82627381384372711181640625</LongitudeDegrees>
            </Position>
            <AltitudeMeters>886.5999755859375</AltitudeMeters>
            <DistanceMeters>59670.108789039</DistanceMeters>
          </Trackpoint>
          <Trackpoint>
            <Time>2020-01-19T10:34:40.000Z</Time>
            <Position>
              <LatitudeDegrees>38.96195523440837860107421875</LatitudeDegrees>
              <LongitudeDegrees>-2.82644840888679027557373046875</LongitudeDegrees>
            </Position>
            <AltitudeMeters>886.79998779296875</AltitudeMeters>
            <DistanceMeters>59686.799440863</DistanceMeters>
          </Trackpoint>
          <Trackpoint>
            <Time>2020-01-19T10:34:44.000Z</Time>
            <Position>
              <LatitudeDegrees>38.96202606149017810821533203125</LatitudeDegrees>
              <LongitudeDegrees>-2.82662560231983661651611328125</LongitudeDegrees>
            </Position>
            <AltitudeMeters>887.20001220703125</AltitudeMeters>
            <DistanceMeters>59704.041749489</DistanceMeters>
          </Trackpoint>
          <Trackpoint>
            <Time>2020-01-19T10:34:54.000Z</Time>
            <Position>
              <LatitudeDegrees>38.96207819692790508270263671875</LatitudeDegrees>
              <LongitudeDegrees>-2.82711661420762538909912109375</LongitudeDegrees>
            </Position>
            <AltitudeMeters>887.79998779296875</AltitudeMeters>
            <DistanceMeters>59746.930286088</DistanceMeters>
          </Trackpoint>
          <Trackpoint>
            <Time>2020-01-19T10:35:00.000Z</Time>
            <Position>
              <LatitudeDegrees>38.96210719831287860870361328125</LatitudeDegrees>
              <LongitudeDegrees>-2.8274293430149555206298828125</LongitudeDegrees>
            </Position>
            <AltitudeMeters>888.20001220703125</AltitudeMeters>
            <DistanceMeters>59774.186889861</DistanceMeters>
          </Trackpoint>
          <Trackpoint>
            <Time>2020-01-19T10:35:01.000Z</Time>
            <Position>
              <LatitudeDegrees>38.9621143229305744171142578125</LatitudeDegrees>
              <LongitudeDegrees>-2.82748290337622165679931640625</LongitudeDegrees>
            </Position>
            <AltitudeMeters>888.20001220703125</AltitudeMeters>
            <DistanceMeters>59778.890472249</DistanceMeters>
          </Trackpoint>
          <Trackpoint>
            <Time>2020-01-19T10:35:04.000Z</Time>
            <Position>
              <LatitudeDegrees>38.96212287247180938720703125</LatitudeDegrees>
              <LongitudeDegrees>-2.82764450646936893463134765625</LongitudeDegrees>
            </Position>
            <AltitudeMeters>888.4000244140625</AltitudeMeters>
            <DistanceMeters>59792.908764712</DistanceMeters>
          </Trackpoint>
          <Trackpoint>
            <Time>2020-01-19T10:35:11.000Z</Time>
            <Position>
              <LatitudeDegrees>38.96209361962974071502685546875</LatitudeDegrees>
              <LongitudeDegrees>-2.8280167467892169952392578125</LongitudeDegrees>
            </Position>
            <AltitudeMeters>889.4000244140625</AltitudeMeters>
            <DistanceMeters>59825.288202562</DistanceMeters>
          </Trackpoint>
          <Trackpoint>
            <Time>2020-01-19T10:35:14.000Z</Time>
            <Position>
              <LatitudeDegrees>38.96207786165177822113037109375</LatitudeDegrees>
              <LongitudeDegrees>-2.82817642204463481903076171875</LongitudeDegrees>
            </Position>
            <AltitudeMeters>889.5999755859375</AltitudeMeters>
            <DistanceMeters>59839.218289163</DistanceMeters>
          </Trackpoint>
          <Trackpoint>
            <Time>2020-01-19T10:35:23.000Z</Time>
            <Position>
              <LatitudeDegrees>38.96202606149017810821533203125</LatitudeDegrees>
              <LongitudeDegrees>-2.82866039313375949859619140625</LongitudeDegrees>
            </Position>
            <AltitudeMeters>889.5999755859375</AltitudeMeters>
            <DistanceMeters>59881.498236334</DistanceMeters>
          </Trackpoint>
          <Trackpoint>
            <Time>2020-01-19T10:35:24.000Z</Time>
            <Position>
              <LatitudeDegrees>38.962020613253116607666015625</LatitudeDegrees>
              <LongitudeDegrees>-2.82871353439986705780029296875</LongitudeDegrees>
            </Position>
            <AltitudeMeters>889.5999755859375</AltitudeMeters>
            <DistanceMeters>59886.137058617</DistanceMeters>
          </Trackpoint>
          <Trackpoint>
            <Time>2020-01-19T10:35:26.000Z</Time>
            <Position>
              <LatitudeDegrees>38.96201348863542079925537109375</LatitudeDegrees>
              <LongitudeDegrees>-2.828818224370479583740234375</LongitudeDegrees>
            </Position>
            <AltitudeMeters>889.4000244140625</AltitudeMeters>
            <DistanceMeters>59895.232361267</DistanceMeters>
          </Trackpoint>
          <Trackpoint>
            <Time>2020-01-19T10:35:34.000Z</Time>
            <Position>
              <LatitudeDegrees>38.96206260658800601959228515625</LatitudeDegrees>
              <LongitudeDegrees>-2.82923874445259571075439453125</LongitudeDegrees>
            </Position>
            <AltitudeMeters>889.4000244140625</AltitudeMeters>
            <DistanceMeters>59932.034331941</DistanceMeters>
          </Trackpoint>
          <Trackpoint>
            <Time>2020-01-19T10:35:44.000Z</Time>
            <Position>
              <LatitudeDegrees>38.96212329156696796417236328125</LatitudeDegrees>
              <LongitudeDegrees>-2.82973730005323886871337890625</LongitudeDegrees>
            </Position>
            <AltitudeMeters>890.20001220703125</AltitudeMeters>
            <DistanceMeters>59975.706939216</DistanceMeters>
          </Trackpoint>
          <Trackpoint>
            <Time>2020-01-19T10:35:54.000Z</Time>
            <Position>
              <LatitudeDegrees>38.9620430767536163330078125</LatitudeDegrees>
              <LongitudeDegrees>-2.8301893360912799835205078125</LongitudeDegrees>
            </Position>
            <AltitudeMeters>890.20001220703125</AltitudeMeters>
            <DistanceMeters>60015.833875193</DistanceMeters>
          </Trackpoint>
          <Trackpoint>
            <Time>2020-01-19T10:36:04.000Z</Time>
            <Position>
              <LatitudeDegrees>38.9619704894721508026123046875</LatitudeDegrees>
              <LongitudeDegrees>-2.8306386061012744903564453125</LongitudeDegrees>
            </Position>
            <AltitudeMeters>890.79998779296875</AltitudeMeters>
            <DistanceMeters>60055.546174681</DistanceMeters>
          </Trackpoint>
          <Trackpoint>
            <Time>2020-01-19T10:36:14.000Z</Time>
            <Position>
              <LatitudeDegrees>38.96196017973124980926513671875</LatitudeDegrees>
              <LongitudeDegrees>-2.83113724552094936370849609375</LongitudeDegrees>
            </Position>
            <AltitudeMeters>891</AltitudeMeters>
            <DistanceMeters>60098.715923077</DistanceMeters>
          </Trackpoint>
          <Trackpoint>
            <Time>2020-01-19T10:36:24.000Z</Time>
            <Position>
              <LatitudeDegrees>38.96191575564444065093994140625</LatitudeDegrees>
              <LongitudeDegrees>-2.8315770439803600311279296875</LongitudeDegrees>
            </Position>
            <AltitudeMeters>891</AltitudeMeters>
            <DistanceMeters>60137.097776485</DistanceMeters>
          </Trackpoint>
          <Trackpoint>
            <Time>2020-01-19T10:36:34.000Z</Time>
            <Position>
              <LatitudeDegrees>38.9618541486561298370361328125</LatitudeDegrees>
              <LongitudeDegrees>-2.8320196084678173065185546875</LongitudeDegrees>
            </Position>
            <AltitudeMeters>892</AltitudeMeters>
            <DistanceMeters>60176.008402245</DistanceMeters>
          </Trackpoint>
          <Trackpoint>
            <Time>2020-01-19T10:36:44.000Z</Time>
            <Position>
              <LatitudeDegrees>38.96177259273827075958251953125</LatitudeDegrees>
              <LongitudeDegrees>-2.8324692137539386749267578125</LongitudeDegrees>
            </Position>
            <AltitudeMeters>893.5999755859375</AltitudeMeters>
            <DistanceMeters>60215.964056473</DistanceMeters>
          </Trackpoint>
          <Trackpoint>
            <Time>2020-01-19T10:36:54.000Z</Time>
            <Position>
              <LatitudeDegrees>38.96167972125113010406494140625</LatitudeDegrees>
              <LongitudeDegrees>-2.832925356924533843994140625</LongitudeDegrees>
            </Position>
            <AltitudeMeters>894</AltitudeMeters>
            <DistanceMeters>60256.771585891</DistanceMeters>
          </Trackpoint>
          <Trackpoint>
            <Time>2020-01-19T10:37:04.000Z</Time>
            <Position>
              <LatitudeDegrees>38.9615513943135738372802734375</LatitudeDegrees>
              <LongitudeDegrees>-2.83335207961499691009521484375</LongitudeDegrees>
            </Position>
            <AltitudeMeters>894</AltitudeMeters>
            <DistanceMeters>60296.368204092</DistanceMeters>
          </Trackpoint>
          <Trackpoint>
            <Time>2020-01-19T10:37:09.000Z</Time>
            <Position>
              <LatitudeDegrees>38.9614655636250972747802734375</LatitudeDegrees>
              <LongitudeDegrees>-2.83355257473886013031005859375</LongitudeDegrees>
            </Position>
            <AltitudeMeters>894</AltitudeMeters>
            <DistanceMeters>60316.176203019</DistanceMeters>
          </Trackpoint>
          <Trackpoint>
            <Time>2020-01-19T10:37:14.000Z</Time>
            <Position>
              <LatitudeDegrees>38.96140865050256252288818359375</LatitudeDegrees>
              <LongitudeDegrees>-2.83376648090779781341552734375</LongitudeDegrees>
            </Position>
            <AltitudeMeters>894</AltitudeMeters>
            <DistanceMeters>60335.74247811</DistanceMeters>
          </Trackpoint>
          <Trackpoint>
            <Time>2020-01-19T10:37:24.000Z</Time>
            <Position>
              <LatitudeDegrees>38.9613415114581584930419921875</LatitudeDegrees>
              <LongitudeDegrees>-2.834191359579563140869140625</LongitudeDegrees>
            </Position>
            <AltitudeMeters>894.20001220703125</AltitudeMeters>
            <DistanceMeters>60373.265398027</DistanceMeters>
          </Trackpoint>
          <Trackpoint>
            <Time>2020-01-19T10:37:34.000Z</Time>
            <Position>
              <LatitudeDegrees>38.96129767410457134246826171875</LatitudeDegrees>
              <LongitudeDegrees>-2.83464859239757061004638671875</LongitudeDegrees>
            </Position>
            <AltitudeMeters>894.79998779296875</AltitudeMeters>
            <DistanceMeters>60413.136550978</DistanceMeters>
          </Trackpoint>
          <Trackpoint>
            <Time>2020-01-19T10:37:39.000Z</Time>
            <Position>
              <LatitudeDegrees>38.9612761326134204864501953125</LatitudeDegrees>
              <LongitudeDegrees>-2.834876663982868194580078125</LongitudeDegrees>
            </Position>
            <AltitudeMeters>895</AltitudeMeters>
            <DistanceMeters>60433.020082025</DistanceMeters>
          </Trackpoint>
          <Trackpoint>
            <Time>2020-01-19T10:37:44.000Z</Time>
            <Position>
              <LatitudeDegrees>38.9612845145165920257568359375</LatitudeDegrees>
              <LongitudeDegrees>-2.83510322682559490203857421875</LongitudeDegrees>
            </Position>
            <AltitudeMeters>895</AltitudeMeters>
            <DistanceMeters>60452.650402505</DistanceMeters>
          </Trackpoint>
          <Trackpoint>
            <Time>2020-01-19T10:37:47.000Z</Time>
            <Position>
              <LatitudeDegrees>38.96130337379872798919677734375</LatitudeDegrees>
              <LongitudeDegrees>-2.83520900644361972808837890625</LongitudeDegrees>
            </Position>
            <AltitudeMeters>894.79998779296875</AltitudeMeters>
            <DistanceMeters>60462.042676819</DistanceMeters>
          </Trackpoint>
          <Trackpoint>
            <Time>2020-01-19T10:37:54.000Z</Time>
            <Position>
              <LatitudeDegrees>38.96130270324647426605224609375</LatitudeDegrees>
              <LongitudeDegrees>-2.83549080602824687957763671875</LongitudeDegrees>
            </Position>
            <AltitudeMeters>894.4000244140625</AltitudeMeters>
            <DistanceMeters>60486.431056741</DistanceMeters>
          </Trackpoint>
          <Trackpoint>
            <Time>2020-01-19T10:38:01.000Z</Time>
            <Position>
              <LatitudeDegrees>38.96126749925315380096435546875</LatitudeDegrees>
              <LongitudeDegrees>-2.83579054288566112518310546875</LongitudeDegrees>
            </Position>
            <AltitudeMeters>894.20001220703125</AltitudeMeters>
            <DistanceMeters>60512.666003406</DistanceMeters>
          </Trackpoint>
          <Trackpoint>
            <Time>2020-01-19T10:38:04.000Z</Time>
            <Position>
              <LatitudeDegrees>38.96121351979672908782958984375</LatitudeDegrees>
              <LongitudeDegrees>-2.83589615486562252044677734375</LongitudeDegrees>
            </Position>
            <AltitudeMeters>894</AltitudeMeters>
            <DistanceMeters>60523.604399673</DistanceMeters>
          </Trackpoint>
          <Trackpoint>
            <Time>2020-01-19T10:38:14.000Z</Time>
            <Position>
              <LatitudeDegrees>38.9610565267503261566162109375</LatitudeDegrees>
              <LongitudeDegrees>-2.836320362985134124755859375</LongitudeDegrees>
            </Position>
            <AltitudeMeters>894</AltitudeMeters>
            <DistanceMeters>60564.263953349</DistanceMeters>
          </Trackpoint>
          <Trackpoint>
            <Time>2020-01-19T10:38:20.000Z</Time>
            <Position>
              <LatitudeDegrees>38.9609888009727001190185546875</LatitudeDegrees>
              <LongitudeDegrees>-2.83660241402685642242431640625</LongitudeDegrees>
            </Position>
            <AltitudeMeters>894.4000244140625</AltitudeMeters>
            <DistanceMeters>60589.811475053</DistanceMeters>
          </Trackpoint>
          <Trackpoint>
            <Time>2020-01-19T10:38:21.000Z</Time>
            <Position>
              <LatitudeDegrees>38.9609844423830509185791015625</LatitudeDegrees>
              <LongitudeDegrees>-2.83665555529296398162841796875</LongitudeDegrees>
            </Position>
            <AltitudeMeters>894.4000244140625</AltitudeMeters>
            <DistanceMeters>60594.435674553</DistanceMeters>
          </Trackpoint>
          <Trackpoint>
            <Time>2020-01-19T10:38:24.000Z</Time>
            <Position>
              <LatitudeDegrees>38.96097949706017971038818359375</LatitudeDegrees>
              <LongitudeDegrees>-2.8368237800896167755126953125</LongitudeDegrees>
            </Position>
            <AltitudeMeters>894.4000244140625</AltitudeMeters>
            <DistanceMeters>60609.004853559</DistanceMeters>
          </Trackpoint>
          <Trackpoint>
            <Time>2020-01-19T10:38:30.000Z</Time>
            <Position>
              <LatitudeDegrees>38.9610112644731998443603515625</LatitudeDegrees>
              <LongitudeDegrees>-2.83715553581714630126953125</LongitudeDegrees>
            </Position>
            <AltitudeMeters>894.5999755859375</AltitudeMeters>
            <DistanceMeters>60637.93358261</DistanceMeters>
          </Trackpoint>
          <Trackpoint>
            <Time>2020-01-19T10:38:34.000Z</Time>
            <Position>
              <LatitudeDegrees>38.96099525503814220428466796875</LatitudeDegrees>
              <LongitudeDegrees>-2.837352342903614044189453125</LongitudeDegrees>
            </Position>
            <AltitudeMeters>895</AltitudeMeters>
            <DistanceMeters>60655.059495225</DistanceMeters>
          </Trackpoint>
          <Trackpoint>
            <Time>2020-01-19T10:38:38.000Z</Time>
            <Position>
              <LatitudeDegrees>38.960939012467861175537109375</LatitudeDegrees>
              <LongitudeDegrees>-2.83752475865185260772705078125</LongitudeDegrees>
            </Position>
            <AltitudeMeters>895.20001220703125</AltitudeMeters>
            <DistanceMeters>60671.24140354</DistanceMeters>
          </Trackpoint>
          <Trackpoint>
            <Time>2020-01-19T10:38:42.000Z</Time>
            <Position>
              <LatitudeDegrees>38.96085125394165515899658203125</LatitudeDegrees>
              <LongitudeDegrees>-2.83770916052162647247314453125</LongitudeDegrees>
            </Position>
            <AltitudeMeters>895.4000244140625</AltitudeMeters>
            <DistanceMeters>60689.952257709</DistanceMeters>
          </Trackpoint>
          <Trackpoint>
            <Time>2020-01-19T10:38:44.000Z</Time>
            <Position>
              <LatitudeDegrees>38.96081957034766674041748046875</LatitudeDegrees>
              <LongitudeDegrees>-2.83781804144382476806640625</LongitudeDegrees>
            </Position>
            <AltitudeMeters>895.4000244140625</AltitudeMeters>
            <DistanceMeters>60700.013428463</DistanceMeters>
          </Trackpoint>
          <Trackpoint>
            <Time>2020-01-19T10:38:50.000Z</Time>
            <Position>
              <LatitudeDegrees>38.9607541076838970184326171875</LatitudeDegrees>
              <LongitudeDegrees>-2.83816982991993427276611328125</LongitudeDegrees>
            </Position>
            <AltitudeMeters>895.4000244140625</AltitudeMeters>
            <DistanceMeters>60731.318926326</DistanceMeters>
          </Trackpoint>
          <Trackpoint>
            <Time>2020-01-19T10:38:51.000Z</Time>
            <Position>
              <LatitudeDegrees>38.9607489109039306640625</LatitudeDegrees>
              <LongitudeDegrees>-2.8382319398224353790283203125</LongitudeDegrees>
            </Position>
            <AltitudeMeters>895.4000244140625</AltitudeMeters>
            <DistanceMeters>60736.726272027</DistanceMeters>
          </Trackpoint>
          <Trackpoint>
            <Time>2020-01-19T10:38:54.000Z</Time>
            <Position>
              <LatitudeDegrees>38.960746228694915771484375</LatitudeDegrees>
              <LongitudeDegrees>-2.83840670250356197357177734375</LongitudeDegrees>
            </Position>
            <AltitudeMeters>895.4000244140625</AltitudeMeters>
            <DistanceMeters>60751.854333945</DistanceMeters>
          </Trackpoint>
          <Trackpoint>
            <Time>2020-01-19T10:39:01.000Z</Time>
            <Position>
              <LatitudeDegrees>38.9608245156705379486083984375</LatitudeDegrees>
              <LongitudeDegrees>-2.83881993032991886138916015625</LongitudeDegrees>
            </Position>
            <AltitudeMeters>894.4000244140625</AltitudeMeters>
            <DistanceMeters>60788.663664965</DistanceMeters>
          </Trackpoint>
          <Trackpoint>
            <Time>2020-01-19T10:39:04.000Z</Time>
            <Position>
              <LatitudeDegrees>38.9608365856111049652099609375</LatitudeDegrees>
              <LongitudeDegrees>-2.83900366164743900299072265625</LongitudeDegrees>
            </Position>
            <AltitudeMeters>894.20001220703125</AltitudeMeters>
            <DistanceMeters>60804.621363913</DistanceMeters>
          </Trackpoint>
          <Trackpoint>
            <Time>2020-01-19T10:39:09.000Z</Time>
            <Position>
              <LatitudeDegrees>38.96079593338072299957275390625</LatitudeDegrees>
              <LongitudeDegrees>-2.83931094221770763397216796875</LongitudeDegrees>
            </Position>
            <AltitudeMeters>893.5999755859375</AltitudeMeters>
            <DistanceMeters>60831.597237213</DistanceMeters>
          </Trackpoint>
          <Trackpoint>
            <Time>2020-01-19T10:39:11.000Z</Time>
            <Position>
              <LatitudeDegrees>38.96080800332129001617431640625</LatitudeDegrees>
              <LongitudeDegrees>-2.83944605849683284759521484375</LongitudeDegrees>
            </Position>
            <AltitudeMeters>893.20001220703125</AltitudeMeters>
            <DistanceMeters>60843.367898319</DistanceMeters>
          </Trackpoint>
          <Trackpoint>
            <Time>2020-01-19T10:39:14.000Z</Time>
            <Position>
              <LatitudeDegrees>38.96084940992295742034912109375</LatitudeDegrees>
              <LongitudeDegrees>-2.83964957110583782196044921875</LongitudeDegrees>
            </Position>
            <AltitudeMeters>892.79998779296875</AltitudeMeters>
            <DistanceMeters>60861.573885959</DistanceMeters>
          </Trackpoint>
          <Trackpoint>
            <Time>2020-01-19T10:39:15.000Z</Time>
            <Position>
              <LatitudeDegrees>38.9608593843877315521240234375</LatitudeDegrees>
              <LongitudeDegrees>-2.8397155366837978363037109375</LongitudeDegrees>
            </Position>
            <AltitudeMeters>892.5999755859375</AltitudeMeters>
            <DistanceMeters>60867.389955625</DistanceMeters>
          </Trackpoint>
          <Trackpoint>
            <Time>2020-01-19T10:39:20.000Z</Time>
            <Position>
              <LatitudeDegrees>38.96088310517370700836181640625</LatitudeDegrees>
              <LongitudeDegrees>-2.840045951306819915771484375</LongitudeDegrees>
            </Position>
            <AltitudeMeters>891.79998779296875</AltitudeMeters>
            <DistanceMeters>60896.107525534</DistanceMeters>
          </Trackpoint>
          <Trackpoint>
            <Time>2020-01-19T10:39:22.000Z</Time>
            <Position>
              <LatitudeDegrees>38.9609133638441562652587890625</LatitudeDegrees>
              <LongitudeDegrees>-2.8401778824627399444580078125</LongitudeDegrees>
            </Position>
            <AltitudeMeters>891.5999755859375</AltitudeMeters>
            <DistanceMeters>60908.012063312</DistanceMeters>
          </Trackpoint>
          <Trackpoint>
            <Time>2020-01-19T10:39:24.000Z</Time>
            <Position>
              <LatitudeDegrees>38.96096290089190006256103515625</LatitudeDegrees>
              <LongitudeDegrees>-2.84029229544103145599365234375</LongitudeDegrees>
            </Position>
            <AltitudeMeters>891.20001220703125</AltitudeMeters>
            <DistanceMeters>60919.345766918</DistanceMeters>
          </Trackpoint>
          <Trackpoint>
            <Time>2020-01-19T10:39:26.000Z</Time>
            <Position>
              <LatitudeDegrees>38.96100170910358428955078125</LatitudeDegrees>
              <LongitudeDegrees>-2.84039673395454883575439453125</LongitudeDegrees>
            </Position>
            <AltitudeMeters>891</AltitudeMeters>
            <DistanceMeters>60929.363764203</DistanceMeters>
          </Trackpoint>
          <Trackpoint>
            <Time>2020-01-19T10:39:28.000Z</Time>
            <Position>
              <LatitudeDegrees>38.96099927835166454315185546875</LatitudeDegrees>
              <LongitudeDegrees>-2.84050368703901767730712890625</LongitudeDegrees>
            </Position>
            <AltitudeMeters>890.79998779296875</AltitudeMeters>
            <DistanceMeters>60938.623872513</DistanceMeters>
          </Trackpoint>
          <Trackpoint>
            <Time>2020-01-19T10:39:30.000Z</Time>
            <Position>
              <LatitudeDegrees>38.9609522558748722076416015625</LatitudeDegrees>
              <LongitudeDegrees>-2.84061516635119915008544921875</LongitudeDegrees>
            </Position>
            <AltitudeMeters>890.5999755859375</AltitudeMeters>
            <DistanceMeters>60949.600177898</DistanceMeters>
          </Trackpoint>
          <Trackpoint>
            <Time>2020-01-19T10:39:31.000Z</Time>
            <Position>
              <LatitudeDegrees>38.96092350594699382781982421875</LatitudeDegrees>
              <LongitudeDegrees>-2.84067048691213130950927734375</LongitudeDegrees>
            </Position>
            <AltitudeMeters>890.4000244140625</AltitudeMeters>
            <DistanceMeters>60955.358514524</DistanceMeters>
          </Trackpoint>
          <Trackpoint>
            <Time>2020-01-19T10:39:34.000Z</Time>
            <Position>
              <LatitudeDegrees>38.960837423801422119140625</LatitudeDegrees>
              <LongitudeDegrees>-2.840851955115795135498046875</LongitudeDegrees>
            </Position>
            <AltitudeMeters>889.79998779296875</AltitudeMeters>
            <DistanceMeters>60973.755450821</DistanceMeters>
          </Trackpoint>
          <Trackpoint>
            <Time>2020-01-19T10:39:40.000Z</Time>
            <Position>
              <LatitudeDegrees>38.96061681210994720458984375</LatitudeDegrees>
              <LongitudeDegrees>-2.8412038274109363555908203125</LongitudeDegrees>
            </Position>
            <AltitudeMeters>889.79998779296875</AltitudeMeters>
            <DistanceMeters>61012.874614857</DistanceMeters>
          </Trackpoint>
          <Trackpoint>
            <Time>2020-01-19T10:39:44.000Z</Time>
            <Position>
              <LatitudeDegrees>38.96043199114501476287841796875</LatitudeDegrees>
              <LongitudeDegrees>-2.84142921678721904754638671875</LongitudeDegrees>
            </Position>
            <AltitudeMeters>889.79998779296875</AltitudeMeters>
            <DistanceMeters>61041.223808911</DistanceMeters>
          </Trackpoint>
          <Trackpoint>
            <Time>2020-01-19T10:39:47.000Z</Time>
            <Position>
              <LatitudeDegrees>38.96031129173934459686279296875</LatitudeDegrees>
              <LongitudeDegrees>-2.84157992340624332427978515625</LongitudeDegrees>
            </Position>
            <AltitudeMeters>890</AltitudeMeters>
            <DistanceMeters>61059.94817133</DistanceMeters>
          </Trackpoint>
          <Trackpoint>
            <Time>2020-01-19T10:39:49.000Z</Time>
            <Position>
              <LatitudeDegrees>38.96025613881647586822509765625</LatitudeDegrees>
              <LongitudeDegrees>-2.8416718728840351104736328125</LongitudeDegrees>
            </Position>
            <AltitudeMeters>890</AltitudeMeters>
            <DistanceMeters>61069.998566103</DistanceMeters>
          </Trackpoint>
          <Trackpoint>
            <Time>2020-01-19T10:39:51.000Z</Time>
            <Position>
              <LatitudeDegrees>38.96022831089794635772705078125</LatitudeDegrees>
              <LongitudeDegrees>-2.84177890978753566741943359375</LongitudeDegrees>
            </Position>
            <AltitudeMeters>890</AltitudeMeters>
            <DistanceMeters>61079.76646187</DistanceMeters>
          </Trackpoint>
          <Trackpoint>
            <Time>2020-01-19T10:39:54.000Z</Time>
            <Position>
              <LatitudeDegrees>38.96022856235504150390625</LatitudeDegrees>
              <LongitudeDegrees>-2.8419628925621509552001953125</LongitudeDegrees>
            </Position>
            <AltitudeMeters>889.79998779296875</AltitudeMeters>
            <DistanceMeters>61095.689321422</DistanceMeters>
          </Trackpoint>
          <Trackpoint>
            <Time>2020-01-19T10:39:59.000Z</Time>
            <Position>
              <LatitudeDegrees>38.960220180451869964599609375</LatitudeDegrees>
              <LongitudeDegrees>-2.84228249453008174896240234375</LongitudeDegrees>
            </Position>
            <AltitudeMeters>889.4000244140625</AltitudeMeters>
            <DistanceMeters>61123.365433943</DistanceMeters>
          </Trackpoint>
          <Trackpoint>
            <Time>2020-01-19T10:40:04.000Z</Time>
            <Position>
              <LatitudeDegrees>38.96017701365053653717041015625</LatitudeDegrees>
              <LongitudeDegrees>-2.842606119811534881591796875</LongitudeDegrees>
            </Position>
            <AltitudeMeters>889.4000244140625</AltitudeMeters>
            <DistanceMeters>61151.783029485</DistanceMeters>
          </Trackpoint>
          <Trackpoint>
            <Time>2020-01-19T10:40:05.000Z</Time>
            <Position>
              <LatitudeDegrees>38.96016485989093780517578125</LatitudeDegrees>
              <LongitudeDegrees>-2.84266822971403598785400390625</LongitudeDegrees>
            </Position>
            <AltitudeMeters>889.4000244140625</AltitudeMeters>
            <DistanceMeters>61157.325620943</DistanceMeters>
          </Trackpoint>
          <Trackpoint>
            <Time>2020-01-19T10:40:10.000Z</Time>
            <Position>
              <LatitudeDegrees>38.96009570918977260589599609375</LatitudeDegrees>
              <LongitudeDegrees>-2.84298908896744251251220703125</LongitudeDegrees>
            </Position>
            <AltitudeMeters>889.5999755859375</AltitudeMeters>
            <DistanceMeters>61186.141757212</DistanceMeters>
          </Trackpoint>
          <Trackpoint>
            <Time>2020-01-19T10:40:14.000Z</Time>
            <Position>
              <LatitudeDegrees>38.9600758440792560577392578125</LatitudeDegrees>
              <LongitudeDegrees>-2.84326233901083469390869140625</LongitudeDegrees>
            </Position>
            <AltitudeMeters>889.4000244140625</AltitudeMeters>
            <DistanceMeters>61209.893874084</DistanceMeters>
          </Trackpoint>
          <Trackpoint>
            <Time>2020-01-19T10:40:19.000Z</Time>
            <Position>
              <LatitudeDegrees>38.9600822143256664276123046875</LatitudeDegrees>
              <LongitudeDegrees>-2.84356308169662952423095703125</LongitudeDegrees>
            </Position>
            <AltitudeMeters>889.4000244140625</AltitudeMeters>
            <DistanceMeters>61235.931887438</DistanceMeters>
          </Trackpoint>
          <Trackpoint>
            <Time>2020-01-19T10:40:21.000Z</Time>
            <Position>
              <LatitudeDegrees>38.9600716531276702880859375</LatitudeDegrees>
              <LongitudeDegrees>-2.84367238171398639678955078125</LongitudeDegrees>
            </Position>
            <AltitudeMeters>889.79998779296875</AltitudeMeters>
            <DistanceMeters>61245.464445293</DistanceMeters>
          </Trackpoint>
          <Trackpoint>
            <Time>2020-01-19T10:40:24.000Z</Time>
            <Position>
              <LatitudeDegrees>38.96003569476306438446044921875</LatitudeDegrees>
              <LongitudeDegrees>-2.84381822682917118072509765625</LongitudeDegrees>
            </Position>
            <AltitudeMeters>890.20001220703125</AltitudeMeters>
            <DistanceMeters>61258.706273882</DistanceMeters>
          </Trackpoint>
          <Trackpoint>
            <Time>2020-01-19T10:40:32.000Z</Time>
            <Position>
              <LatitudeDegrees>38.96000803448259830474853515625</LatitudeDegrees>
              <LongitudeDegrees>-2.84417219460010528564453125</LongitudeDegrees>
            </Position>
            <AltitudeMeters>891.20001220703125</AltitudeMeters>
            <DistanceMeters>61289.495369273</DistanceMeters>
          </Trackpoint>
          <Trackpoint>
            <Time>2020-01-19T10:40:34.000Z</Time>
            <Position>
              <LatitudeDegrees>38.95999319851398468017578125</LatitudeDegrees>
              <LongitudeDegrees>-2.8442399203777313232421875</LongitudeDegrees>
            </Position>
            <AltitudeMeters>891.5999755859375</AltitudeMeters>
            <DistanceMeters>61295.584498429</DistanceMeters>
          </Trackpoint>
          <Trackpoint>
            <Time>2020-01-19T10:40:44.000Z</Time>
            <Position>
              <LatitudeDegrees>38.95995170809328556060791015625</LatitudeDegrees>
              <LongitudeDegrees>-2.8445753641426563262939453125</LongitudeDegrees>
            </Position>
            <AltitudeMeters>892.20001220703125</AltitudeMeters>
            <DistanceMeters>61324.981101218</DistanceMeters>
          </Trackpoint>
          <Trackpoint>
            <Time>2020-01-19T10:40:47.000Z</Time>
            <Position>
              <LatitudeDegrees>38.95994517020881175994873046875</LatitudeDegrees>
              <LongitudeDegrees>-2.84461869858205318450927734375</LongitudeDegrees>
            </Position>
            <AltitudeMeters>892.4000244140625</AltitudeMeters>
            <DistanceMeters>61328.803491006</DistanceMeters>
          </Trackpoint>
          <Trackpoint>
            <Time>2020-01-19T10:41:33.000Z</Time>
            <Position>
              <LatitudeDegrees>38.95989387296140193939208984375</LatitudeDegrees>
              <LongitudeDegrees>-2.84462657757103443145751953125</LongitudeDegrees>
            </Position>
            <AltitudeMeters>892.5999755859375</AltitudeMeters>
            <DistanceMeters>61334.553981414</DistanceMeters>
          </Trackpoint>
          <Trackpoint>
            <Time>2020-01-19T10:41:34.000Z</Time>
            <Position>
              <LatitudeDegrees>38.95987258292734622955322265625</LatitudeDegrees>
              <LongitudeDegrees>-2.84464216791093349456787109375</LongitudeDegrees>
            </Position>
            <AltitudeMeters>892.79998779296875</AltitudeMeters>
            <DistanceMeters>61337.278448855</DistanceMeters>
          </Trackpoint>
          <Trackpoint>
            <Time>2020-01-19T10:41:36.000Z</Time>
            <Position>
              <LatitudeDegrees>38.9598377980291843414306640625</LatitudeDegrees>
              <LongitudeDegrees>-2.84469748847186565399169921875</LongitudeDegrees>
            </Position>
            <AltitudeMeters>893</AltitudeMeters>
            <DistanceMeters>61343.435417339</DistanceMeters>
          </Trackpoint>
          <Trackpoint>
            <Time>2020-01-19T10:41:38.000Z</Time>
            <Position>
              <LatitudeDegrees>38.9598136581480503082275390625</LatitudeDegrees>
              <LongitudeDegrees>-2.84478382207453250885009765625</LongitudeDegrees>
            </Position>
            <AltitudeMeters>893.4000244140625</AltitudeMeters>
            <DistanceMeters>61351.375694017</DistanceMeters>
          </Trackpoint>
          <Trackpoint>
            <Time>2020-01-19T10:41:40.000Z</Time>
            <Position>
              <LatitudeDegrees>38.9597958885133266448974609375</LatitudeDegrees>
              <LongitudeDegrees>-2.8448737598955631256103515625</LongitudeDegrees>
            </Position>
            <AltitudeMeters>893.79998779296875</AltitudeMeters>
            <DistanceMeters>61359.407559686</DistanceMeters>
          </Trackpoint>
          <Trackpoint>
            <Time>2020-01-19T10:41:43.000Z</Time>
            <Position>
              <LatitudeDegrees>38.9597828127443790435791015625</LatitudeDegrees>
              <LongitudeDegrees>-2.8450011648237705230712890625</LongitudeDegrees>
            </Position>
            <AltitudeMeters>894</AltitudeMeters>
            <DistanceMeters>61370.529745496</DistanceMeters>
          </Trackpoint>
          <Trackpoint>
            <Time>2020-01-19T10:41:44.000Z</Time>
            <Position>
              <LatitudeDegrees>38.95978407002985477447509765625</LatitudeDegrees>
              <LongitudeDegrees>-2.84504919312894344329833984375</LongitudeDegrees>
            </Position>
            <AltitudeMeters>894.20001220703125</AltitudeMeters>
            <DistanceMeters>61374.691438255</DistanceMeters>
          </Trackpoint>
          <Trackpoint>
            <Time>2020-01-19T10:41:47.000Z</Time>
            <Position>
              <LatitudeDegrees>38.9597942121326923370361328125</LatitudeDegrees>
              <LongitudeDegrees>-2.8451946191489696502685546875</LongitudeDegrees>
            </Position>
            <AltitudeMeters>893.5999755859375</AltitudeMeters>
            <DistanceMeters>61387.328204924</DistanceMeters>
          </Trackpoint>
          <Trackpoint>
            <Time>2020-01-19T10:41:49.000Z</Time>
            <Position>
              <LatitudeDegrees>38.95979831926524639129638671875</LatitudeDegrees>
              <LongitudeDegrees>-2.84529679454863071441650390625</LongitudeDegrees>
            </Position>
            <AltitudeMeters>893.20001220703125</AltitudeMeters>
            <DistanceMeters>61396.183552678</DistanceMeters>
          </Trackpoint>
          <Trackpoint>
            <Time>2020-01-19T10:41:54.000Z</Time>
            <Position>
              <LatitudeDegrees>38.959798403084278106689453125</LatitudeDegrees>
              <LongitudeDegrees>-2.84555294550955295562744140625</LongitudeDegrees>
            </Position>
            <AltitudeMeters>892.4000244140625</AltitudeMeters>
            <DistanceMeters>61418.352696561</DistanceMeters>
          </Trackpoint>
          <Trackpoint>
            <Time>2020-01-19T10:41:56.000Z</Time>
            <Position>
              <LatitudeDegrees>38.9597811363637447357177734375</LatitudeDegrees>
              <LongitudeDegrees>-2.845653779804706573486328125</LongitudeDegrees>
            </Position>
            <AltitudeMeters>892.4000244140625</AltitudeMeters>
            <DistanceMeters>61427.289250487</DistanceMeters>
          </Trackpoint>
          <Trackpoint>
            <Time>2020-01-19T10:41:58.000Z</Time>
            <Position>
              <LatitudeDegrees>38.95975708030164241790771484375</LatitudeDegrees>
              <LongitudeDegrees>-2.845757044851779937744140625</LongitudeDegrees>
            </Position>
            <AltitudeMeters>892.4000244140625</AltitudeMeters>
            <DistanceMeters>61436.619306056</DistanceMeters>
          </Trackpoint>
          <Trackpoint>
            <Time>2020-01-19T10:42:00.000Z</Time>
            <Position>
              <LatitudeDegrees>38.95974853076040744781494140625</LatitudeDegrees>
              <LongitudeDegrees>-2.84586894325911998748779296875</LongitudeDegrees>
            </Position>
            <AltitudeMeters>892.20001220703125</AltitudeMeters>
            <DistanceMeters>61446.350616948</DistanceMeters>
          </Trackpoint>
          <Trackpoint>
            <Time>2020-01-19T10:42:04.000Z</Time>
            <Position>
              <LatitudeDegrees>38.9597388915717601776123046875</LatitudeDegrees>
              <LongitudeDegrees>-2.84607614390552043914794921875</LongitudeDegrees>
            </Position>
            <AltitudeMeters>891</AltitudeMeters>
            <DistanceMeters>61464.315441804</DistanceMeters>
          </Trackpoint>
          <Trackpoint>
            <Time>2020-01-19T10:42:05.000Z</Time>
            <Position>
              <LatitudeDegrees>38.95974366925656795501708984375</LatitudeDegrees>
              <LongitudeDegrees>-2.8461283631622791290283203125</LongitudeDegrees>
            </Position>
            <AltitudeMeters>890.79998779296875</AltitudeMeters>
            <DistanceMeters>61468.865822589</DistanceMeters>
          </Trackpoint>
          <Trackpoint>
            <Time>2020-01-19T10:42:09.000Z</Time>
            <Position>
              <LatitudeDegrees>38.95977166481316089630126953125</LatitudeDegrees>
              <LongitudeDegrees>-2.84637571312487125396728515625</LongitudeDegrees>
            </Position>
            <AltitudeMeters>889.20001220703125</AltitudeMeters>
            <DistanceMeters>61490.498962485</DistanceMeters>
          </Trackpoint>
          <Trackpoint>
            <Time>2020-01-19T10:42:11.000Z</Time>
            <Position>
              <LatitudeDegrees>38.9597953855991363525390625</LatitudeDegrees>
              <LongitudeDegrees>-2.84651854075491428375244140625</LongitudeDegrees>
            </Position>
            <AltitudeMeters>888.5999755859375</AltitudeMeters>
            <DistanceMeters>61503.139301587</DistanceMeters>
          </Trackpoint>
          <Trackpoint>
            <Time>2020-01-19T10:42:14.000Z</Time>
            <Position>
              <LatitudeDegrees>38.9597942121326923370361328125</LatitudeDegrees>
              <LongitudeDegrees>-2.84674175083637237548828125</LongitudeDegrees>
            </Position>
            <AltitudeMeters>887.4000244140625</AltitudeMeters>
            <DistanceMeters>61522.458024614</DistanceMeters>
          </Trackpoint>
          <Trackpoint>
            <Time>2020-01-19T10:42:22.000Z</Time>
            <Position>
              <LatitudeDegrees>38.95972363650798797607421875</LatitudeDegrees>
              <LongitudeDegrees>-2.847371064126491546630859375</LongitudeDegrees>
            </Position>
            <AltitudeMeters>882.4000244140625</AltitudeMeters>
            <DistanceMeters>61577.486779778</DistanceMeters>
          </Trackpoint>
          <Trackpoint>
            <Time>2020-01-19T10:42:24.000Z</Time>
            <Position>
              <LatitudeDegrees>38.959705196321010589599609375</LatitudeDegrees>
              <LongitudeDegrees>-2.8475348465144634246826171875</LongitudeDegrees>
            </Position>
            <AltitudeMeters>881.4000244140625</AltitudeMeters>
            <DistanceMeters>61591.809357988</DistanceMeters>
          </Trackpoint>
          <Trackpoint>
            <Time>2020-01-19T10:42:26.000Z</Time>
            <Position>
              <LatitudeDegrees>38.9596800506114959716796875</LatitudeDegrees>
              <LongitudeDegrees>-2.8476907499134540557861328125</LongitudeDegrees>
            </Position>
            <AltitudeMeters>880</AltitudeMeters>
            <DistanceMeters>61605.589214572</DistanceMeters>
          </Trackpoint>
          <Trackpoint>
            <Time>2020-01-19T10:42:28.000Z</Time>
            <Position>
              <LatitudeDegrees>38.9596024341881275177001953125</LatitudeDegrees>
              <LongitudeDegrees>-2.8478298895061016082763671875</LongitudeDegrees>
            </Position>
            <AltitudeMeters>878.5999755859375</AltitudeMeters>
            <DistanceMeters>61620.409422038</DistanceMeters>
          </Trackpoint>
          <Trackpoint>
            <Time>2020-01-19T10:42:31.000Z</Time>
            <Position>
              <LatitudeDegrees>38.95944259129464626312255859375</LatitudeDegrees>
              <LongitudeDegrees>-2.84801940433681011199951171875</LongitudeDegrees>
            </Position>
            <AltitudeMeters>876.5999755859375</AltitudeMeters>
            <DistanceMeters>61644.607298946</DistanceMeters>
          </Trackpoint>
          <Trackpoint>
            <Time>2020-01-19T10:42:32.000Z</Time>
            <Position>
              <LatitudeDegrees>38.95939665846526622772216796875</LatitudeDegrees>
              <LongitudeDegrees>-2.84809551201760768890380859375</LongitudeDegrees>
            </Position>
            <AltitudeMeters>875.79998779296875</AltitudeMeters>
            <DistanceMeters>61652.94477629</DistanceMeters>
          </Trackpoint>
          <Trackpoint>
            <Time>2020-01-19T10:42:35.000Z</Time>
            <Position>
              <LatitudeDegrees>38.9592587761580944061279296875</LatitudeDegrees>
              <LongitudeDegrees>-2.8483522497117519378662109375</LongitudeDegrees>
            </Position>
            <AltitudeMeters>872.5999755859375</AltitudeMeters>
            <DistanceMeters>61679.949422436</DistanceMeters>
          </Trackpoint>
          <Trackpoint>
            <Time>2020-01-19T10:42:36.000Z</Time>
            <Position>
              <LatitudeDegrees>38.95919498987495899200439453125</LatitudeDegrees>
              <LongitudeDegrees>-2.84843279980123043060302734375</LongitudeDegrees>
            </Position>
            <AltitudeMeters>871.79998779296875</AltitudeMeters>
            <DistanceMeters>61689.89958616</DistanceMeters>
          </Trackpoint>
          <Trackpoint>
            <Time>2020-01-19T10:42:42.000Z</Time>
            <Position>
              <LatitudeDegrees>38.95882233045995235443115234375</LatitudeDegrees>
              <LongitudeDegrees>-2.848918698728084564208984375</LongitudeDegrees>
            </Position>
            <AltitudeMeters>867</AltitudeMeters>
            <DistanceMeters>61748.966620243</DistanceMeters>
          </Trackpoint>
          <Trackpoint>
            <Time>2020-01-19T10:42:46.000Z</Time>
            <Position>
              <LatitudeDegrees>38.95852896384894847869873046875</LatitudeDegrees>
              <LongitudeDegrees>-2.84914635121822357177734375</LongitudeDegrees>
            </Position>
            <AltitudeMeters>864.4000244140625</AltitudeMeters>
            <DistanceMeters>61787.102890145</DistanceMeters>
          </Trackpoint>
          <Trackpoint>
            <Time>2020-01-19T10:42:48.000Z</Time>
            <Position>
              <LatitudeDegrees>38.958402983844280242919921875</LatitudeDegrees>
              <LongitudeDegrees>-2.8492920286953449249267578125</LongitudeDegrees>
            </Position>
            <AltitudeMeters>863.5999755859375</AltitudeMeters>
            <DistanceMeters>61805.959408648</DistanceMeters>
          </Trackpoint>
          <Trackpoint>
            <Time>2020-01-19T10:42:55.000Z</Time>
            <Position>
              <LatitudeDegrees>38.9580786041915416717529296875</LatitudeDegrees>
              <LongitudeDegrees>-2.849856801331043243408203125</LongitudeDegrees>
            </Position>
            <AltitudeMeters>860.79998779296875</AltitudeMeters>
            <DistanceMeters>61866.727859437</DistanceMeters>
          </Trackpoint>
          <Trackpoint>
            <Time>2020-01-19T10:42:56.000Z</Time>
            <Position>
              <LatitudeDegrees>38.95803694613277912139892578125</LatitudeDegrees>
              <LongitudeDegrees>-2.84992746077477931976318359375</LongitudeDegrees>
            </Position>
            <AltitudeMeters>860.4000244140625</AltitudeMeters>
            <DistanceMeters>61874.402112402</DistanceMeters>
          </Trackpoint>
          <Trackpoint>
            <Time>2020-01-19T10:43:01.000Z</Time>
            <Position>
              <LatitudeDegrees>38.95782538689672946929931640625</LatitudeDegrees>
              <LongitudeDegrees>-2.85027698613703250885009765625</LongitudeDegrees>
            </Position>
            <AltitudeMeters>858.5999755859375</AltitudeMeters>
            <DistanceMeters>61912.73747194</DistanceMeters>
          </Trackpoint>
          <Trackpoint>
            <Time>2020-01-19T10:43:02.000Z</Time>
            <Position>
              <LatitudeDegrees>38.9577864110469818115234375</LatitudeDegrees>
              <LongitudeDegrees>-2.85036684013903141021728515625</LongitudeDegrees>
            </Position>
            <AltitudeMeters>858</AltitudeMeters>
            <DistanceMeters>61921.642646353</DistanceMeters>
          </Trackpoint>
          <Trackpoint>
            <Time>2020-01-19T10:43:04.000Z</Time>
            <Position>
              <LatitudeDegrees>38.95773268304765224456787109375</LatitudeDegrees>
              <LongitudeDegrees>-2.85057404078543186187744140625</LongitudeDegrees>
            </Position>
            <AltitudeMeters>857</AltitudeMeters>
            <DistanceMeters>61940.546992556</DistanceMeters>
          </Trackpoint>
          <Trackpoint>
            <Time>2020-01-19T10:43:07.000Z</Time>
            <Position>
              <LatitudeDegrees>38.9576990716159343719482421875</LatitudeDegrees>
              <LongitudeDegrees>-2.8509097360074520111083984375</LongitudeDegrees>
            </Position>
            <AltitudeMeters>855</AltitudeMeters>
            <DistanceMeters>61969.841125494</DistanceMeters>
          </Trackpoint>
          <Trackpoint>
            <Time>2020-01-19T10:43:10.000Z</Time>
            <Position>
              <LatitudeDegrees>38.957694210112094879150390625</LatitudeDegrees>
              <LongitudeDegrees>-2.8511179424822330474853515625</LongitudeDegrees>
            </Position>
            <AltitudeMeters>854</AltitudeMeters>
            <DistanceMeters>61987.869674286</DistanceMeters>
          </Trackpoint>
          <Trackpoint>
            <Time>2020-01-19T10:43:13.000Z</Time>
            <Position>
              <LatitudeDegrees>38.957716338336467742919921875</LatitudeDegrees>
              <LongitudeDegrees>-2.8513519652187824249267578125</LongitudeDegrees>
            </Position>
            <AltitudeMeters>852.4000244140625</AltitudeMeters>
            <DistanceMeters>62008.273217709</DistanceMeters>
          </Trackpoint>
          <Trackpoint>
            <Time>2020-01-19T10:43:15.000Z</Time>
            <Position>
              <LatitudeDegrees>38.95769831724464893341064453125</LatitudeDegrees>
              <LongitudeDegrees>-2.851517088711261749267578125</LongitudeDegrees>
            </Position>
            <AltitudeMeters>851.5999755859375</AltitudeMeters>
            <DistanceMeters>62022.704769361</DistanceMeters>
          </Trackpoint>
          <Trackpoint>
            <Time>2020-01-19T10:43:17.000Z</Time>
            <Position>
              <LatitudeDegrees>38.957643918693065643310546875</LatitudeDegrees>
              <LongitudeDegrees>-2.85167894326150417327880859375</LongitudeDegrees>
            </Position>
            <AltitudeMeters>851</AltitudeMeters>
            <DistanceMeters>62037.965953183</DistanceMeters>
          </Trackpoint>
          <Trackpoint>
            <Time>2020-01-19T10:43:19.000Z</Time>
            <Position>
              <LatitudeDegrees>38.95754677243530750274658203125</LatitudeDegrees>
              <LongitudeDegrees>-2.85181171260774135589599609375</LongitudeDegrees>
            </Position>
            <AltitudeMeters>851.4000244140625</AltitudeMeters>
            <DistanceMeters>62053.74439441</DistanceMeters>
          </Trackpoint>
          <Trackpoint>
            <Time>2020-01-19T10:43:21.000Z</Time>
            <Position>
              <LatitudeDegrees>38.9574184454977512359619140625</LatitudeDegrees>
              <LongitudeDegrees>-2.85190793685615062713623046875</LongitudeDegrees>
            </Position>
            <AltitudeMeters>852.4000244140625</AltitudeMeters>
            <DistanceMeters>62070.278223495</DistanceMeters>
          </Trackpoint>
          <Trackpoint>
            <Time>2020-01-19T10:43:23.000Z</Time>
            <Position>
              <LatitudeDegrees>38.95736195147037506103515625</LatitudeDegrees>
              <LongitudeDegrees>-2.85204112529754638671875</LongitudeDegrees>
            </Position>
            <AltitudeMeters>852.79998779296875</AltitudeMeters>
            <DistanceMeters>62083.409113778</DistanceMeters>
          </Trackpoint>
          <Trackpoint>
            <Time>2020-01-19T10:43:26.000Z</Time>
            <Position>
              <LatitudeDegrees>38.95739975385367870330810546875</LatitudeDegrees>
              <LongitudeDegrees>-2.85224975086748600006103515625</LongitudeDegrees>
            </Position>
            <AltitudeMeters>851.5999755859375</AltitudeMeters>
            <DistanceMeters>62101.949310376</DistanceMeters>
          </Trackpoint>
          <Trackpoint>
            <Time>2020-01-19T10:43:28.000Z</Time>
            <Position>
              <LatitudeDegrees>38.957383073866367340087890625</LatitudeDegrees>
              <LongitudeDegrees>-2.85243800841271877288818359375</LongitudeDegrees>
            </Position>
            <AltitudeMeters>850.79998779296875</AltitudeMeters>
            <DistanceMeters>62118.348234322</DistanceMeters>
          </Trackpoint>
          <Trackpoint>
            <Time>2020-01-19T10:43:29.000Z</Time>
            <Position>
              <LatitudeDegrees>38.9573681540787220001220703125</LatitudeDegrees>
              <LongitudeDegrees>-2.852536328136920928955078125</LongitudeDegrees>
            </Position>
            <AltitudeMeters>850.5999755859375</AltitudeMeters>
            <DistanceMeters>62127.018087626</DistanceMeters>
          </Trackpoint>
          <Trackpoint>
            <Time>2020-01-19T10:43:30.000Z</Time>
            <Position>
              <LatitudeDegrees>38.9573550783097743988037109375</LatitudeDegrees>
              <LongitudeDegrees>-2.8526293672621250152587890625</LongitudeDegrees>
            </Position>
            <AltitudeMeters>850.79998779296875</AltitudeMeters>
            <DistanceMeters>62135.20142722</DistanceMeters>
          </Trackpoint>
          <Trackpoint>
            <Time>2020-01-19T10:43:31.000Z</Time>
            <Position>
              <LatitudeDegrees>38.95734795369207859039306640625</LatitudeDegrees>
              <LongitudeDegrees>-2.85272265784442424774169921875</LongitudeDegrees>
            </Position>
            <AltitudeMeters>851</AltitudeMeters>
            <DistanceMeters>62143.314950331</DistanceMeters>
          </Trackpoint>
          <Trackpoint>
            <Time>2020-01-19T10:43:33.000Z</Time>
            <Position>
              <LatitudeDegrees>38.9573356322944164276123046875</LatitudeDegrees>
              <LongitudeDegrees>-2.8529076464474201202392578125</LongitudeDegrees>
            </Position>
            <AltitudeMeters>851.4000244140625</AltitudeMeters>
            <DistanceMeters>62159.384302092</DistanceMeters>
          </Trackpoint>
          <Trackpoint>
            <Time>2020-01-19T10:43:35.000Z</Time>
            <Position>
              <LatitudeDegrees>38.957309983670711517333984375</LatitudeDegrees>
              <LongitudeDegrees>-2.853061370551586151123046875</LongitudeDegrees>
            </Position>
            <AltitudeMeters>851.5999755859375</AltitudeMeters>
            <DistanceMeters>62172.992047958</DistanceMeters>
          </Trackpoint>
          <Trackpoint>
            <Time>2020-01-19T10:43:37.000Z</Time>
            <Position>
              <LatitudeDegrees>38.95727385766804218292236328125</LatitudeDegrees>
              <LongitudeDegrees>-2.85318969748914241790771484375</LongitudeDegrees>
            </Position>
            <AltitudeMeters>852</AltitudeMeters>
            <DistanceMeters>62184.804063499</DistanceMeters>
          </Trackpoint>
          <Trackpoint>
            <Time>2020-01-19T10:43:39.000Z</Time>
            <Position>
              <LatitudeDegrees>38.9572400785982608795166015625</LatitudeDegrees>
              <LongitudeDegrees>-2.85330520011484622955322265625</LongitudeDegrees>
            </Position>
            <AltitudeMeters>852.4000244140625</AltitudeMeters>
            <DistanceMeters>62195.484322186</DistanceMeters>
          </Trackpoint>
          <Trackpoint>
            <Time>2020-01-19T10:43:46.000Z</Time>
            <Position>
              <LatitudeDegrees>38.9571388252079486846923828125</LatitudeDegrees>
              <LongitudeDegrees>-2.85365573130548000335693359375</LongitudeDegrees>
            </Position>
            <AltitudeMeters>852.79998779296875</AltitudeMeters>
            <DistanceMeters>62227.848417833</DistanceMeters>
          </Trackpoint>
          <Trackpoint>
            <Time>2020-01-19T10:43:49.000Z</Time>
            <Position>
              <LatitudeDegrees>38.95711141638457775115966796875</LatitudeDegrees>
              <LongitudeDegrees>-2.8538159094750881195068359375</LongitudeDegrees>
            </Position>
            <AltitudeMeters>852.5999755859375</AltitudeMeters>
            <DistanceMeters>62242.043704229</DistanceMeters>
          </Trackpoint>
          <Trackpoint>
            <Time>2020-01-19T10:43:53.000Z</Time>
            <Position>
              <LatitudeDegrees>38.95708912052214145660400390625</LatitudeDegrees>
              <LongitudeDegrees>-2.8540127165615558624267578125</LongitudeDegrees>
            </Position>
            <AltitudeMeters>852.20001220703125</AltitudeMeters>
            <DistanceMeters>62259.257184364</DistanceMeters>
          </Trackpoint>
          <Trackpoint>
            <Time>2020-01-19T10:43:57.000Z</Time>
            <Position>
              <LatitudeDegrees>38.95700924098491668701171875</LatitudeDegrees>
              <LongitudeDegrees>-2.854183204472064971923828125</LongitudeDegrees>
            </Position>
            <AltitudeMeters>853</AltitudeMeters>
            <DistanceMeters>62276.484560612</DistanceMeters>
          </Trackpoint>
          <Trackpoint>
            <Time>2020-01-19T10:43:59.000Z</Time>
            <Position>
              <LatitudeDegrees>38.95696892403066158294677734375</LatitudeDegrees>
              <LongitudeDegrees>-2.85427666269242763519287109375</LongitudeDegrees>
            </Position>
            <AltitudeMeters>853.20001220703125</AltitudeMeters>
            <DistanceMeters>62285.734912194</DistanceMeters>
          </Trackpoint>
          <Trackpoint>
            <Time>2020-01-19T10:44:03.000Z</Time>
            <Position>
              <LatitudeDegrees>38.9568944089114665985107421875</LatitudeDegrees>
              <LongitudeDegrees>-2.854454778134822845458984375</LongitudeDegrees>
            </Position>
            <AltitudeMeters>852.5999755859375</AltitudeMeters>
            <DistanceMeters>62303.24047343</DistanceMeters>
          </Trackpoint>
          <Trackpoint>
            <Time>2020-01-19T10:44:04.000Z</Time>
            <Position>
              <LatitudeDegrees>38.9568742923438549041748046875</LatitudeDegrees>
              <LongitudeDegrees>-2.854500375688076019287109375</LongitudeDegrees>
            </Position>
            <AltitudeMeters>852.4000244140625</AltitudeMeters>
            <DistanceMeters>62307.777936851</DistanceMeters>
          </Trackpoint>
          <Trackpoint>
            <Time>2020-01-19T10:44:06.000Z</Time>
            <Position>
              <LatitudeDegrees>38.9568340592086315155029296875</LatitudeDegrees>
              <LongitudeDegrees>-2.8545960970222949981689453125</LongitudeDegrees>
            </Position>
            <AltitudeMeters>851.79998779296875</AltitudeMeters>
            <DistanceMeters>62317.19517534</DistanceMeters>
          </Trackpoint>
          <Trackpoint>
            <Time>2020-01-19T10:44:09.000Z</Time>
            <Position>
              <LatitudeDegrees>38.95679198205471038818359375</LatitudeDegrees>
              <LongitudeDegrees>-2.85475007258355617523193359375</LongitudeDegrees>
            </Position>
            <AltitudeMeters>851</AltitudeMeters>
            <DistanceMeters>62331.320953165</DistanceMeters>
          </Trackpoint>
          <Trackpoint>
            <Time>2020-01-19T10:44:10.000Z</Time>
            <Position>
              <LatitudeDegrees>38.95677320659160614013671875</LatitudeDegrees>
              <LongitudeDegrees>-2.85479365848004817962646484375</LongitudeDegrees>
            </Position>
            <AltitudeMeters>850.79998779296875</AltitudeMeters>
            <DistanceMeters>62335.633951829</DistanceMeters>
          </Trackpoint>
          <Trackpoint>
            <Time>2020-01-19T10:44:15.000Z</Time>
            <Position>
              <LatitudeDegrees>38.9566419459879398345947265625</LatitudeDegrees>
              <LongitudeDegrees>-2.855036817491054534912109375</LongitudeDegrees>
            </Position>
            <AltitudeMeters>849.4000244140625</AltitudeMeters>
            <DistanceMeters>62361.253478296</DistanceMeters>
          </Trackpoint>
          <Trackpoint>
            <Time>2020-01-19T10:44:19.000Z</Time>
            <Position>
              <LatitudeDegrees>38.9565078355371952056884765625</LatitudeDegrees>
              <LongitudeDegrees>-2.85525097511708736419677734375</LongitudeDegrees>
            </Position>
            <AltitudeMeters>849</AltitudeMeters>
            <DistanceMeters>62385.05231135</DistanceMeters>
          </Trackpoint>
          <Trackpoint>
            <Time>2020-01-19T10:44:20.000Z</Time>
            <Position>
              <LatitudeDegrees>38.95648126490414142608642578125</LatitudeDegrees>
              <LongitudeDegrees>-2.85531450994312763214111328125</LongitudeDegrees>
            </Position>
            <AltitudeMeters>848.79998779296875</AltitudeMeters>
            <DistanceMeters>62391.2966584</DistanceMeters>
          </Trackpoint>
          <Trackpoint>
            <Time>2020-01-19T10:44:24.000Z</Time>
            <Position>
              <LatitudeDegrees>38.9564186520874500274658203125</LatitudeDegrees>
              <LongitudeDegrees>-2.855604104697704315185546875</LongitudeDegrees>
            </Position>
            <AltitudeMeters>848</AltitudeMeters>
            <DistanceMeters>62417.312119755</DistanceMeters>
          </Trackpoint>
          <Trackpoint>
            <Time>2020-01-19T10:44:26.000Z</Time>
            <Position>
              <LatitudeDegrees>38.9563650079071521759033203125</LatitudeDegrees>
              <LongitudeDegrees>-2.85574751906096935272216796875</LongitudeDegrees>
            </Position>
            <AltitudeMeters>847.4000244140625</AltitudeMeters>
            <DistanceMeters>62431.086077286</DistanceMeters>
          </Trackpoint>
          <Trackpoint>
            <Time>2020-01-19T10:44:28.000Z</Time>
            <Position>
              <LatitudeDegrees>38.95630021579563617706298828125</LatitudeDegrees>
              <LongitudeDegrees>-2.8558860719203948974609375</LongitudeDegrees>
            </Position>
            <AltitudeMeters>847</AltitudeMeters>
            <DistanceMeters>62445.07922481</DistanceMeters>
          </Trackpoint>
          <Trackpoint>
            <Time>2020-01-19T10:44:29.000Z</Time>
            <Position>
              <LatitudeDegrees>38.956277668476104736328125</LatitudeDegrees>
              <LongitudeDegrees>-2.855962179601192474365234375</LongitudeDegrees>
            </Position>
            <AltitudeMeters>846.79998779296875</AltitudeMeters>
            <DistanceMeters>62452.127875787</DistanceMeters>
          </Trackpoint>
          <Trackpoint>
            <Time>2020-01-19T10:44:30.000Z</Time>
            <Position>
              <LatitudeDegrees>38.9562684483826160430908203125</LatitudeDegrees>
              <LongitudeDegrees>-2.85604088567197322845458984375</LongitudeDegrees>
            </Position>
            <AltitudeMeters>846.5999755859375</AltitudeMeters>
            <DistanceMeters>62459.017148737</DistanceMeters>
          </Trackpoint>
          <Trackpoint>
            <Time>2020-01-19T10:44:32.000Z</Time>
            <Position>
              <LatitudeDegrees>38.95630105398595333099365234375</LatitudeDegrees>
              <LongitudeDegrees>-2.85619293339550495147705078125</LongitudeDegrees>
            </Position>
            <AltitudeMeters>845.79998779296875</AltitudeMeters>
            <DistanceMeters>62472.668291092</DistanceMeters>
          </Trackpoint>
          <Trackpoint>
            <Time>2020-01-19T10:44:34.000Z</Time>
            <Position>
              <LatitudeDegrees>38.95639694295823574066162109375</LatitudeDegrees>
              <LongitudeDegrees>-2.85629653371870517730712890625</LongitudeDegrees>
            </Position>
            <AltitudeMeters>845</AltitudeMeters>
            <DistanceMeters>62486.607450135</DistanceMeters>
          </Trackpoint>
          <Trackpoint>
            <Time>2020-01-19T10:44:37.000Z</Time>
            <Position>
              <LatitudeDegrees>38.95656877197325229644775390625</LatitudeDegrees>
              <LongitudeDegrees>-2.8564065881073474884033203125</LongitudeDegrees>
            </Position>
            <AltitudeMeters>844</AltitudeMeters>
            <DistanceMeters>62507.973039863</DistanceMeters>
          </Trackpoint>
          <Trackpoint>
            <Time>2020-01-19T10:44:39.000Z</Time>
            <Position>
              <LatitudeDegrees>38.95664404146373271942138671875</LatitudeDegrees>
              <LongitudeDegrees>-2.856530807912349700927734375</LongitudeDegrees>
            </Position>
            <AltitudeMeters>843.4000244140625</AltitudeMeters>
            <DistanceMeters>62521.602998141</DistanceMeters>
          </Trackpoint>
          <Trackpoint>
            <Time>2020-01-19T10:44:45.000Z</Time>
            <Position>
              <LatitudeDegrees>38.95685845054686069488525390625</LatitudeDegrees>
              <LongitudeDegrees>-2.856889553368091583251953125</LongitudeDegrees>
            </Position>
            <AltitudeMeters>840.5999755859375</AltitudeMeters>
            <DistanceMeters>62560.763921043</DistanceMeters>
          </Trackpoint>
          <Trackpoint>
            <Time>2020-01-19T10:44:47.000Z</Time>
            <Position>
              <LatitudeDegrees>38.95688409917056560516357421875</LatitudeDegrees>
              <LongitudeDegrees>-2.8569822572171688079833984375</LongitudeDegrees>
            </Position>
            <AltitudeMeters>839.5999755859375</AltitudeMeters>
            <DistanceMeters>62569.279290315</DistanceMeters>
          </Trackpoint>
          <Trackpoint>
            <Time>2020-01-19T10:44:49.000Z</Time>
            <Position>
              <LatitudeDegrees>38.95685912109911441802978515625</LatitudeDegrees>
              <LongitudeDegrees>-2.8570597060024738311767578125</LongitudeDegrees>
            </Position>
            <AltitudeMeters>839</AltitudeMeters>
            <DistanceMeters>62576.536246001</DistanceMeters>
          </Trackpoint>
          <Trackpoint>
            <Time>2020-01-19T10:44:51.000Z</Time>
            <Position>
              <LatitudeDegrees>38.95681084133684635162353515625</LatitudeDegrees>
              <LongitudeDegrees>-2.8571413457393646240234375</LongitudeDegrees>
            </Position>
            <AltitudeMeters>838.4000244140625</AltitudeMeters>
            <DistanceMeters>62585.412982284</DistanceMeters>
          </Trackpoint>
          <Trackpoint>
            <Time>2020-01-19T10:44:53.000Z</Time>
            <Position>
              <LatitudeDegrees>38.956748060882091522216796875</LatitudeDegrees>
              <LongitudeDegrees>-2.857230193912982940673828125</LongitudeDegrees>
            </Position>
            <AltitudeMeters>837.79998779296875</AltitudeMeters>
            <DistanceMeters>62595.803535396</DistanceMeters>
          </Trackpoint>
          <Trackpoint>
            <Time>2020-01-19T10:44:55.000Z</Time>
            <Position>
              <LatitudeDegrees>38.9566754736006259918212890625</LatitudeDegrees>
              <LongitudeDegrees>-2.85732214339077472686767578125</LongitudeDegrees>
            </Position>
            <AltitudeMeters>837.20001220703125</AltitudeMeters>
            <DistanceMeters>62607.144009315</DistanceMeters>
          </Trackpoint>
          <Trackpoint>
            <Time>2020-01-19T10:44:58.000Z</Time>
            <Position>
              <LatitudeDegrees>38.9565698616206645965576171875</LatitudeDegrees>
              <LongitudeDegrees>-2.85747536458075046539306640625</LongitudeDegrees>
            </Position>
            <AltitudeMeters>836</AltitudeMeters>
            <DistanceMeters>62624.864899203</DistanceMeters>
          </Trackpoint>
          <Trackpoint>
            <Time>2020-01-19T10:44:59.000Z</Time>
            <Position>
              <LatitudeDegrees>38.95652334205806255340576171875</LatitudeDegrees>
              <LongitudeDegrees>-2.85751886665821075439453125</LongitudeDegrees>
            </Position>
            <AltitudeMeters>835.79998779296875</AltitudeMeters>
            <DistanceMeters>62631.267753805</DistanceMeters>
          </Trackpoint>
          <Trackpoint>
            <Time>2020-01-19T10:45:01.000Z</Time>
            <Position>
              <LatitudeDegrees>38.9564344100654125213623046875</LatitudeDegrees>
              <LongitudeDegrees>-2.85761232487857341766357421875</LongitudeDegrees>
            </Position>
            <AltitudeMeters>835</AltitudeMeters>
            <DistanceMeters>62644.050877967</DistanceMeters>
          </Trackpoint>
          <Trackpoint>
            <Time>2020-01-19T10:45:03.000Z</Time>
            <Position>
              <LatitudeDegrees>38.95636123605072498321533203125</LatitudeDegrees>
              <LongitudeDegrees>-2.8577289171516895294189453125</LongitudeDegrees>
            </Position>
            <AltitudeMeters>833.79998779296875</AltitudeMeters>
            <DistanceMeters>62657.018456134</DistanceMeters>
          </Trackpoint>
          <Trackpoint>
            <Time>2020-01-19T10:45:07.000Z</Time>
            <Position>
              <LatitudeDegrees>38.9562248624861240386962890625</LatitudeDegrees>
              <LongitudeDegrees>-2.85795447416603565216064453125</LongitudeDegrees>
            </Position>
            <AltitudeMeters>831.20001220703125</AltitudeMeters>
            <DistanceMeters>62681.747138807</DistanceMeters>
          </Trackpoint>
          <Trackpoint>
            <Time>2020-01-19T10:45:09.000Z</Time>
            <Position>
              <LatitudeDegrees>38.956221006810665130615234375</LatitudeDegrees>
              <LongitudeDegrees>-2.8580470941960811614990234375</LongitudeDegrees>
            </Position>
            <AltitudeMeters>830</AltitudeMeters>
            <DistanceMeters>62689.77450609</DistanceMeters>
          </Trackpoint>
          <Trackpoint>
            <Time>2020-01-19T10:45:11.000Z</Time>
            <Position>
              <LatitudeDegrees>38.95627808757126331329345703125</LatitudeDegrees>
              <LongitudeDegrees>-2.85810627043247222900390625</LongitudeDegrees>
            </Position>
            <AltitudeMeters>829</AltitudeMeters>
            <DistanceMeters>62697.934639894</DistanceMeters>
          </Trackpoint>
          <Trackpoint>
            <Time>2020-01-19T10:45:14.000Z</Time>
            <Position>
              <LatitudeDegrees>38.956365846097469329833984375</LatitudeDegrees>
              <LongitudeDegrees>-2.85823577083647251129150390625</LongitudeDegrees>
            </Position>
            <AltitudeMeters>827.20001220703125</AltitudeMeters>
            <DistanceMeters>62712.801386379</DistanceMeters>
          </Trackpoint>
          <Trackpoint>
            <Time>2020-01-19T10:45:18.000Z</Time>
            <Position>
              <LatitudeDegrees>38.9564612321555614471435546875</LatitudeDegrees>
              <LongitudeDegrees>-2.85849074833095073699951171875</LongitudeDegrees>
            </Position>
            <AltitudeMeters>823.4000244140625</AltitudeMeters>
            <DistanceMeters>62737.290823429</DistanceMeters>
          </Trackpoint>
          <Trackpoint>
            <Time>2020-01-19T10:45:19.000Z</Time>
            <Position>
              <LatitudeDegrees>38.9564712904393672943115234375</LatitudeDegrees>
              <LongitudeDegrees>-2.8585536964237689971923828125</LongitudeDegrees>
            </Position>
            <AltitudeMeters>822.4000244140625</AltitudeMeters>
            <DistanceMeters>62742.852931114</DistanceMeters>
          </Trackpoint>
          <Trackpoint>
            <Time>2020-01-19T10:45:20.000Z</Time>
            <Position>
              <LatitudeDegrees>38.956469111144542694091796875</LatitudeDegrees>
              <LongitudeDegrees>-2.85860926844179630279541015625</LongitudeDegrees>
            </Position>
            <AltitudeMeters>821.4000244140625</AltitudeMeters>
            <DistanceMeters>62747.668451471</DistanceMeters>
          </Trackpoint>
          <Trackpoint>
            <Time>2020-01-19T10:45:22.000Z</Time>
            <Position>
              <LatitudeDegrees>38.95644824020564556121826171875</LatitudeDegrees>
              <LongitudeDegrees>-2.85873935557901859283447265625</LongitudeDegrees>
            </Position>
            <AltitudeMeters>819.20001220703125</AltitudeMeters>
            <DistanceMeters>62759.16472038</DistanceMeters>
          </Trackpoint>
          <Trackpoint>
            <Time>2020-01-19T10:45:25.000Z</Time>
            <Position>
              <LatitudeDegrees>38.95642912946641445159912109375</LatitudeDegrees>
              <LongitudeDegrees>-2.85901042632758617401123046875</LongitudeDegrees>
            </Position>
            <AltitudeMeters>815.79998779296875</AltitudeMeters>
            <DistanceMeters>62782.722339275</DistanceMeters>
          </Trackpoint>
          <Trackpoint>
            <Time>2020-01-19T10:45:30.000Z</Time>
            <Position>
              <LatitudeDegrees>38.95628412254154682159423828125</LatitudeDegrees>
              <LongitudeDegrees>-2.85952960141003131866455078125</LongitudeDegrees>
            </Position>
            <AltitudeMeters>810.4000244140625</AltitudeMeters>
            <DistanceMeters>62830.468133419</DistanceMeters>
          </Trackpoint>
          <Trackpoint>
            <Time>2020-01-19T10:45:32.000Z</Time>
            <Position>
              <LatitudeDegrees>38.95630574785172939300537109375</LatitudeDegrees>
              <LongitudeDegrees>-2.85967343486845493316650390625</LongitudeDegrees>
            </Position>
            <AltitudeMeters>809.4000244140625</AltitudeMeters>
            <DistanceMeters>62843.147702852</DistanceMeters>
          </Trackpoint>
          <Trackpoint>
            <Time>2020-01-19T10:45:34.000Z</Time>
            <Position>
              <LatitudeDegrees>38.95634162239730358123779296875</LatitudeDegrees>
              <LongitudeDegrees>-2.85981223918497562408447265625</LongitudeDegrees>
            </Position>
            <AltitudeMeters>808.4000244140625</AltitudeMeters>
            <DistanceMeters>62855.807315671</DistanceMeters>
          </Trackpoint>
          <Trackpoint>
            <Time>2020-01-19T10:45:36.000Z</Time>
            <Position>
              <LatitudeDegrees>38.9563487470149993896484375</LatitudeDegrees>
              <LongitudeDegrees>-2.8599672205746173858642578125</LongitudeDegrees>
            </Position>
            <AltitudeMeters>807.20001220703125</AltitudeMeters>
            <DistanceMeters>62869.244778548</DistanceMeters>
          </Trackpoint>
          <Trackpoint>
            <Time>2020-01-19T10:45:40.000Z</Time>
            <Position>
              <LatitudeDegrees>38.95633324049413204193115234375</LatitudeDegrees>
              <LongitudeDegrees>-2.86012999713420867919921875</LongitudeDegrees>
            </Position>
            <AltitudeMeters>805.79998779296875</AltitudeMeters>
            <DistanceMeters>62883.438474525</DistanceMeters>
          </Trackpoint>
          <Trackpoint>
            <Time>2020-01-19T10:45:42.000Z</Time>
            <Position>
              <LatitudeDegrees>38.95632100291550159454345703125</LatitudeDegrees>
              <LongitudeDegrees>-2.8601385466754436492919921875</LongitudeDegrees>
            </Position>
            <AltitudeMeters>805.79998779296875</AltitudeMeters>
            <DistanceMeters>62884.988313334</DistanceMeters>
          </Trackpoint>
          <Trackpoint>
            <Time>2020-01-19T10:45:46.000Z</Time>
            <Position>
              <LatitudeDegrees>38.9562924206256866455078125</LatitudeDegrees>
              <LongitudeDegrees>-2.86014919169247150421142578125</LongitudeDegrees>
            </Position>
            <AltitudeMeters>805.4000244140625</AltitudeMeters>
            <DistanceMeters>62888.299281893</DistanceMeters>
          </Trackpoint>
          <Trackpoint>
            <Time>2020-01-19T10:45:48.000Z</Time>
            <Position>
              <LatitudeDegrees>38.95626132376492023468017578125</LatitudeDegrees>
              <LongitudeDegrees>-2.8601489402353763580322265625</LongitudeDegrees>
            </Position>
            <AltitudeMeters>805.20001220703125</AltitudeMeters>
            <DistanceMeters>62891.759611555</DistanceMeters>
          </Trackpoint>
          <Trackpoint>
            <Time>2020-01-19T10:45:50.000Z</Time>
            <Position>
              <LatitudeDegrees>38.95621354691684246063232421875</LatitudeDegrees>
              <LongitudeDegrees>-2.86014483310282230377197265625</LongitudeDegrees>
            </Position>
            <AltitudeMeters>805</AltitudeMeters>
            <DistanceMeters>62897.089585334</DistanceMeters>
          </Trackpoint>
          <Trackpoint>
            <Time>2020-01-19T10:45:59.000Z</Time>
            <Position>
              <LatitudeDegrees>38.95601036958396434783935546875</LatitudeDegrees>
              <LongitudeDegrees>-2.86018900573253631591796875</LongitudeDegrees>
            </Position>
            <AltitudeMeters>804.4000244140625</AltitudeMeters>
            <DistanceMeters>62920.024514655</DistanceMeters>
          </Trackpoint>
          <Trackpoint>
            <Time>2020-01-19T10:46:00.000Z</Time>
            <Position>
              <LatitudeDegrees>38.9559901691973209381103515625</LatitudeDegrees>
              <LongitudeDegrees>-2.860205434262752532958984375</LongitudeDegrees>
            </Position>
            <AltitudeMeters>804.4000244140625</AltitudeMeters>
            <DistanceMeters>62922.68356521</DistanceMeters>
          </Trackpoint>
          <Trackpoint>
            <Time>2020-01-19T10:46:10.000Z</Time>
            <Position>
              <LatitudeDegrees>38.955761007964611053466796875</LatitudeDegrees>
              <LongitudeDegrees>-2.86039377562701702117919921875</LongitudeDegrees>
            </Position>
            <AltitudeMeters>804.4000244140625</AltitudeMeters>
            <DistanceMeters>62952.954011472</DistanceMeters>
          </Trackpoint>
          <Trackpoint>
            <Time>2020-01-19T10:46:12.000Z</Time>
            <Position>
              <LatitudeDegrees>38.955719433724880218505859375</LatitudeDegrees>
              <LongitudeDegrees>-2.8604349307715892791748046875</LongitudeDegrees>
            </Position>
            <AltitudeMeters>804.4000244140625</AltitudeMeters>
            <DistanceMeters>62958.793323817</DistanceMeters>
          </Trackpoint>
          <Trackpoint>
            <Time>2020-01-19T10:46:14.000Z</Time>
            <Position>
              <LatitudeDegrees>38.9556746743619441986083984375</LatitudeDegrees>
              <LongitudeDegrees>-2.86047625355422496795654296875</LongitudeDegrees>
            </Position>
            <AltitudeMeters>804.4000244140625</AltitudeMeters>
            <DistanceMeters>62964.926781118</DistanceMeters>
          </Trackpoint>
          <Trackpoint>
            <Time>2020-01-19T10:46:20.000Z</Time>
            <Position>
              <LatitudeDegrees>38.9555382169783115386962890625</LatitudeDegrees>
              <LongitudeDegrees>-2.8605935163795948028564453125</LongitudeDegrees>
            </Position>
            <AltitudeMeters>804.4000244140625</AltitudeMeters>
            <DistanceMeters>62983.193674251</DistanceMeters>
          </Trackpoint>
          <Trackpoint>
            <Time>2020-01-19T10:46:24.000Z</Time>
            <Position>
              <LatitudeDegrees>38.955467976629734039306640625</LatitudeDegrees>
              <LongitudeDegrees>-2.86065663211047649383544921875</LongitudeDegrees>
            </Position>
            <AltitudeMeters>804.4000244140625</AltitudeMeters>
            <DistanceMeters>62992.731440767</DistanceMeters>
          </Trackpoint>
          <Trackpoint>
            <Time>2020-01-19T10:46:30.000Z</Time>
            <Position>
              <LatitudeDegrees>38.9553429186344146728515625</LatitudeDegrees>
              <LongitudeDegrees>-2.86079225130379199981689453125</LongitudeDegrees>
            </Position>
            <AltitudeMeters>804.20001220703125</AltitudeMeters>
            <DistanceMeters>63010.939412278</DistanceMeters>
          </Trackpoint>
          <Trackpoint>
            <Time>2020-01-19T10:46:36.000Z</Time>
            <Position>
              <LatitudeDegrees>38.95516999997198581695556640625</LatitudeDegrees>
              <LongitudeDegrees>-2.860907502472400665283203125</LongitudeDegrees>
            </Position>
            <AltitudeMeters>804.79998779296875</AltitudeMeters>
            <DistanceMeters>63032.617169961</DistanceMeters>
          </Trackpoint>
          <Trackpoint>
            <Time>2020-01-19T10:46:40.000Z</Time>
            <Position>
              <LatitudeDegrees>38.9550336264073848724365234375</LatitudeDegrees>
              <LongitudeDegrees>-2.86098017357289791107177734375</LongitudeDegrees>
            </Position>
            <AltitudeMeters>805.20001220703125</AltitudeMeters>
            <DistanceMeters>63049.047725805</DistanceMeters>
          </Trackpoint>
          <Trackpoint>
            <Time>2020-01-19T10:46:43.000Z</Time>
            <Position>
              <LatitudeDegrees>38.9549404196441173553466796875</LatitudeDegrees>
              <LongitudeDegrees>-2.86101722158491611480712890625</LongitudeDegrees>
            </Position>
            <AltitudeMeters>805.79998779296875</AltitudeMeters>
            <DistanceMeters>63059.906581095</DistanceMeters>
          </Trackpoint>
          <Trackpoint>
            <Time>2020-01-19T10:46:45.000Z</Time>
            <Position>
              <LatitudeDegrees>38.95488585345447063446044921875</LatitudeDegrees>
              <LongitudeDegrees>-2.8610360808670520782470703125</LongitudeDegrees>
            </Position>
            <AltitudeMeters>806.4000244140625</AltitudeMeters>
            <DistanceMeters>63066.195598095</DistanceMeters>
          </Trackpoint>
          <Trackpoint>
            <Time>2020-01-19T10:46:50.000Z</Time>
            <Position>
              <LatitudeDegrees>38.95479281432926654815673828125</LatitudeDegrees>
              <LongitudeDegrees>-2.8610572032630443572998046875</LongitudeDegrees>
            </Position>
            <AltitudeMeters>807.20001220703125</AltitudeMeters>
            <DistanceMeters>63076.7109814</DistanceMeters>
          </Trackpoint>
          <Trackpoint>
            <Time>2020-01-19T10:46:54.000Z</Time>
            <Position>
              <LatitudeDegrees>38.95477764308452606201171875</LatitudeDegrees>
              <LongitudeDegrees>-2.8610897250473499298095703125</LongitudeDegrees>
            </Position>
            <AltitudeMeters>806.79998779296875</AltitudeMeters>
            <DistanceMeters>63079.993188158</DistanceMeters>
          </Trackpoint>
          <Trackpoint>
            <Time>2020-01-19T10:46:56.000Z</Time>
            <Position>
              <LatitudeDegrees>38.95481024868786334991455078125</LatitudeDegrees>
              <LongitudeDegrees>-2.8611312992870807647705078125</LongitudeDegrees>
            </Position>
            <AltitudeMeters>805.4000244140625</AltitudeMeters>
            <DistanceMeters>63085.1043535</DistanceMeters>
          </Trackpoint>
          <Trackpoint>
            <Time>2020-01-19T10:46:57.000Z</Time>
            <Position>
              <LatitudeDegrees>38.9548388309776782989501953125</LatitudeDegrees>
              <LongitudeDegrees>-2.8611480630934238433837890625</LongitudeDegrees>
            </Position>
            <AltitudeMeters>804.4000244140625</AltitudeMeters>
            <DistanceMeters>63088.601026705</DistanceMeters>
          </Trackpoint>
          <Trackpoint>
            <Time>2020-01-19T10:47:00.000Z</Time>
            <Position>
              <LatitudeDegrees>38.95491711795330047607421875</LatitudeDegrees>
              <LongitudeDegrees>-2.86114118993282318115234375</LongitudeDegrees>
            </Position>
            <AltitudeMeters>803.4000244140625</AltitudeMeters>
            <DistanceMeters>63097.335217326</DistanceMeters>
          </Trackpoint>
          <Trackpoint>
            <Time>2020-01-19T10:47:02.000Z</Time>
            <Position>
              <LatitudeDegrees>38.9549290202558040618896484375</LatitudeDegrees>
              <LongitudeDegrees>-2.86114026792347431182861328125</LongitudeDegrees>
            </Position>
            <AltitudeMeters>803.20001220703125</AltitudeMeters>
            <DistanceMeters>63098.665591327</DistanceMeters>
          </Trackpoint>
          <Trackpoint>
            <Time>2020-01-19T10:47:39.000Z</Time>
            <Position>
              <LatitudeDegrees>38.95500068552792072296142578125</LatitudeDegrees>
              <LongitudeDegrees>-2.861127443611621856689453125</LongitudeDegrees>
            </Position>
            <AltitudeMeters>802.4000244140625</AltitudeMeters>
            <DistanceMeters>63106.718790009</DistanceMeters>
          </Trackpoint>
          <Trackpoint>
            <Time>2020-01-19T10:47:40.000Z</Time>
            <Position>
              <LatitudeDegrees>38.955029435455799102783203125</LatitudeDegrees>
              <LongitudeDegrees>-2.8611262701451778411865234375</LongitudeDegrees>
            </Position>
            <AltitudeMeters>802.20001220703125</AltitudeMeters>
            <DistanceMeters>63109.92021731</DistanceMeters>
          </Trackpoint>
          <Trackpoint>
            <Time>2020-01-19T10:47:47.000Z</Time>
            <Position>
              <LatitudeDegrees>38.9552126638591289520263671875</LatitudeDegrees>
              <LongitudeDegrees>-2.8612405993044376373291015625</LongitudeDegrees>
            </Position>
            <AltitudeMeters>800.79998779296875</AltitudeMeters>
            <DistanceMeters>63132.587823707</DistanceMeters>
          </Trackpoint>
          <Trackpoint>
            <Time>2020-01-19T10:47:50.000Z</Time>
            <Position>
              <LatitudeDegrees>38.95526723004877567291259765625</LatitudeDegrees>
              <LongitudeDegrees>-2.86132366396486759185791015625</LongitudeDegrees>
            </Position>
            <AltitudeMeters>799.5999755859375</AltitudeMeters>
            <DistanceMeters>63141.99882736</DistanceMeters>
          </Trackpoint>
          <Trackpoint>
            <Time>2020-01-19T10:47:53.000Z</Time>
            <Position>
              <LatitudeDegrees>38.95533126778900623321533203125</LatitudeDegrees>
              <LongitudeDegrees>-2.86140765063464641571044921875</LongitudeDegrees>
            </Position>
            <AltitudeMeters>798.4000244140625</AltitudeMeters>
            <DistanceMeters>63152.179555105</DistanceMeters>
          </Trackpoint>
          <Trackpoint>
            <Time>2020-01-19T10:47:55.000Z</Time>
            <Position>
              <LatitudeDegrees>38.95538357086479663848876953125</LatitudeDegrees>
              <LongitudeDegrees>-2.8614692576229572296142578125</LongitudeDegrees>
            </Position>
            <AltitudeMeters>797.20001220703125</AltitudeMeters>
            <DistanceMeters>63160.074210742</DistanceMeters>
          </Trackpoint>
          <Trackpoint>
            <Time>2020-01-19T10:48:00.000Z</Time>
            <Position>
              <LatitudeDegrees>38.9554984867572784423828125</LatitudeDegrees>
              <LongitudeDegrees>-2.861637733876705169677734375</LongitudeDegrees>
            </Position>
            <AltitudeMeters>795.4000244140625</AltitudeMeters>
            <DistanceMeters>63179.470836865</DistanceMeters>
          </Trackpoint>
          <Trackpoint>
            <Time>2020-01-19T10:48:01.000Z</Time>
            <Position>
              <LatitudeDegrees>38.9555023424327373504638671875</LatitudeDegrees>
              <LongitudeDegrees>-2.861675955355167388916015625</LongitudeDegrees>
            </Position>
            <AltitudeMeters>795</AltitudeMeters>
            <DistanceMeters>63182.806261003</DistanceMeters>
          </Trackpoint>
          <Trackpoint>
            <Time>2020-01-19T10:48:07.000Z</Time>
            <Position>
              <LatitudeDegrees>38.9554235525429248809814453125</LatitudeDegrees>
              <LongitudeDegrees>-2.86188676021993160247802734375</LongitudeDegrees>
            </Position>
            <AltitudeMeters>794.79998779296875</AltitudeMeters>
            <DistanceMeters>63203.049850832</DistanceMeters>
          </Trackpoint>
          <Trackpoint>
            <Time>2020-01-19T10:48:10.000Z</Time>
            <Position>
              <LatitudeDegrees>38.955400921404361724853515625</LatitudeDegrees>
              <LongitudeDegrees>-2.8619932942092418670654296875</LongitudeDegrees>
            </Position>
            <AltitudeMeters>794.5999755859375</AltitudeMeters>
            <DistanceMeters>63212.607478849</DistanceMeters>
          </Trackpoint>
          <Trackpoint>
            <Time>2020-01-19T10:48:14.000Z</Time>
            <Position>
              <LatitudeDegrees>38.9553756080567836761474609375</LatitudeDegrees>
              <LongitudeDegrees>-2.86212413571774959564208984375</LongitudeDegrees>
            </Position>
            <AltitudeMeters>794.4000244140625</AltitudeMeters>
            <DistanceMeters>63224.277208188</DistanceMeters>
          </Trackpoint>
          <Trackpoint>
            <Time>2020-01-19T10:48:17.000Z</Time>
            <Position>
              <LatitudeDegrees>38.9553635381162166595458984375</LatitudeDegrees>
              <LongitudeDegrees>-2.86219806410372257232666015625</LongitudeDegrees>
            </Position>
            <AltitudeMeters>794.20001220703125</AltitudeMeters>
            <DistanceMeters>63230.815432862</DistanceMeters>
          </Trackpoint>
          <Trackpoint>
            <Time>2020-01-19T10:48:20.000Z</Time>
            <Position>
              <LatitudeDegrees>38.9553823135793209075927734375</LatitudeDegrees>
              <LongitudeDegrees>-2.86229856312274932861328125</LongitudeDegrees>
            </Position>
            <AltitudeMeters>794</AltitudeMeters>
            <DistanceMeters>63239.761076352</DistanceMeters>
          </Trackpoint>
          <Trackpoint>
            <Time>2020-01-19T10:48:21.000Z</Time>
            <Position>
              <LatitudeDegrees>38.95538055337965488433837890625</LatitudeDegrees>
              <LongitudeDegrees>-2.862325049936771392822265625</LongitudeDegrees>
            </Position>
            <AltitudeMeters>794</AltitudeMeters>
            <DistanceMeters>63242.061429541</DistanceMeters>
          </Trackpoint>
          <Trackpoint>
            <Time>2020-01-19T10:48:26.000Z</Time>
            <Position>
              <LatitudeDegrees>38.9553461037576198577880859375</LatitudeDegrees>
              <LongitudeDegrees>-2.8624868206679821014404296875</LongitudeDegrees>
            </Position>
            <AltitudeMeters>793.79998779296875</AltitudeMeters>
            <DistanceMeters>63256.578451414</DistanceMeters>
          </Trackpoint>
          <Trackpoint>
            <Time>2020-01-19T10:48:30.000Z</Time>
            <Position>
              <LatitudeDegrees>38.95539983175694942474365234375</LatitudeDegrees>
              <LongitudeDegrees>-2.86260391585528850555419921875</LongitudeDegrees>
            </Position>
            <AltitudeMeters>793.5999755859375</AltitudeMeters>
            <DistanceMeters>63268.345659757</DistanceMeters>
          </Trackpoint>
          <Trackpoint>
            <Time>2020-01-19T10:48:31.000Z</Time>
            <Position>
              <LatitudeDegrees>38.9554191939532756805419921875</LatitudeDegrees>
              <LongitudeDegrees>-2.86261917091906070709228515625</LongitudeDegrees>
            </Position>
            <AltitudeMeters>793.5999755859375</AltitudeMeters>
            <DistanceMeters>63270.870582324</DistanceMeters>
          </Trackpoint>
          <Trackpoint>
            <Time>2020-01-19T10:48:33.000Z</Time>
            <Position>
              <LatitudeDegrees>38.9554637856781482696533203125</LatitudeDegrees>
              <LongitudeDegrees>-2.86264465190470218658447265625</LongitudeDegrees>
            </Position>
            <AltitudeMeters>793.5999755859375</AltitudeMeters>
            <DistanceMeters>63276.301257205</DistanceMeters>
          </Trackpoint>
          <Trackpoint>
            <Time>2020-01-19T10:48:36.000Z</Time>
            <Position>
              <LatitudeDegrees>38.9555348642170429229736328125</LatitudeDegrees>
              <LongitudeDegrees>-2.8626229427754878997802734375</LongitudeDegrees>
            </Position>
            <AltitudeMeters>793.20001220703125</AltitudeMeters>
            <DistanceMeters>63284.432568275</DistanceMeters>
          </Trackpoint>
          <Trackpoint>
            <Time>2020-01-19T10:48:40.000Z</Time>
            <Position>
              <LatitudeDegrees>38.95554668270051479339599609375</LatitudeDegrees>
              <LongitudeDegrees>-2.86271170713007450103759765625</LongitudeDegrees>
            </Position>
            <AltitudeMeters>793.4000244140625</AltitudeMeters>
            <DistanceMeters>63292.22591763</DistanceMeters>
          </Trackpoint>
          <Trackpoint>
            <Time>2020-01-19T10:48:43.000Z</Time>
            <Position>
              <LatitudeDegrees>38.95553545095026493072509765625</LatitudeDegrees>
              <LongitudeDegrees>-2.8627677820622920989990234375</LongitudeDegrees>
            </Position>
            <AltitudeMeters>793.5999755859375</AltitudeMeters>
            <DistanceMeters>63297.238070128</DistanceMeters>
          </Trackpoint>
          <Trackpoint>
            <Time>2020-01-19T10:48:47.000Z</Time>
            <Position>
              <LatitudeDegrees>38.95553276874125003814697265625</LatitudeDegrees>
              <LongitudeDegrees>-2.86278848536312580108642578125</LongitudeDegrees>
            </Position>
            <AltitudeMeters>793.79998779296875</AltitudeMeters>
            <DistanceMeters>63299.053552957</DistanceMeters>
          </Trackpoint>
          <Trackpoint>
            <Time>2020-01-19T10:49:09.000Z</Time>
            <Position>
              <LatitudeDegrees>38.95553997717797756195068359375</LatitudeDegrees>
              <LongitudeDegrees>-2.8629149682819843292236328125</LongitudeDegrees>
            </Position>
            <AltitudeMeters>794.20001220703125</AltitudeMeters>
            <DistanceMeters>63310.029858343</DistanceMeters>
          </Trackpoint>
          <Trackpoint>
            <Time>2020-01-19T10:49:10.000Z</Time>
            <Position>
              <LatitudeDegrees>38.95554048009216785430908203125</LatitudeDegrees>
              <LongitudeDegrees>-2.86293969489634037017822265625</LongitudeDegrees>
            </Position>
            <AltitudeMeters>794.20001220703125</AltitudeMeters>
            <DistanceMeters>63312.171651711</DistanceMeters>
          </Trackpoint>
          <Trackpoint>
            <Time>2020-01-19T10:49:15.000Z</Time>
            <Position>
              <LatitudeDegrees>38.95552304573357105255126953125</LatitudeDegrees>
              <LongitudeDegrees>-2.86300322972238063812255859375</LongitudeDegrees>
            </Position>
            <AltitudeMeters>794.5999755859375</AltitudeMeters>
            <DistanceMeters>63318.003226789</DistanceMeters>
          </Trackpoint>
          <Trackpoint>
            <Time>2020-01-19T10:49:19.000Z</Time>
            <Position>
              <LatitudeDegrees>38.955510556697845458984375</LatitudeDegrees>
              <LongitudeDegrees>-2.86302938126027584075927734375</LongitudeDegrees>
            </Position>
            <AltitudeMeters>794.79998779296875</AltitudeMeters>
            <DistanceMeters>63320.658879195</DistanceMeters>
          </Trackpoint>
          <Trackpoint>
            <Time>2020-01-19T10:49:31.000Z</Time>
            <Position>
              <LatitudeDegrees>38.95549722947180271148681640625</LatitudeDegrees>
              <LongitudeDegrees>-2.86304597742855548858642578125</LongitudeDegrees>
            </Position>
            <AltitudeMeters>794.79998779296875</AltitudeMeters>
            <DistanceMeters>63322.727757209</DistanceMeters>
          </Trackpoint>
          <Trackpoint>
            <Time>2020-01-19T10:49:40.000Z</Time>
            <Position>
              <LatitudeDegrees>38.95539664663374423980712890625</LatitudeDegrees>
              <LongitudeDegrees>-2.8631919063627719879150390625</LongitudeDegrees>
            </Position>
            <AltitudeMeters>795.79998779296875</AltitudeMeters>
            <DistanceMeters>63339.605635971</DistanceMeters>
          </Trackpoint>
          <Trackpoint>
            <Time>2020-01-19T10:49:45.000Z</Time>
            <Position>
              <LatitudeDegrees>38.9553655497729778289794921875</LatitudeDegrees>
              <LongitudeDegrees>-2.863318137824535369873046875</LongitudeDegrees>
            </Position>
            <AltitudeMeters>796.5999755859375</AltitudeMeters>
            <DistanceMeters>63351.066503824</DistanceMeters>
          </Trackpoint>
          <Trackpoint>
            <Time>2020-01-19T10:49:50.000Z</Time>
            <Position>
              <LatitudeDegrees>38.95545531995594501495361328125</LatitudeDegrees>
              <LongitudeDegrees>-2.86332258023321628570556640625</LongitudeDegrees>
            </Position>
            <AltitudeMeters>796.5999755859375</AltitudeMeters>
            <DistanceMeters>63361.065554098</DistanceMeters>
          </Trackpoint>
          <Trackpoint>
            <Time>2020-01-19T10:49:54.000Z</Time>
            <Position>
              <LatitudeDegrees>38.9555439166724681854248046875</LatitudeDegrees>
              <LongitudeDegrees>-2.86330129019916057586669921875</LongitudeDegrees>
            </Position>
            <AltitudeMeters>796.5999755859375</AltitudeMeters>
            <DistanceMeters>63371.096612956</DistanceMeters>
          </Trackpoint>
          <Trackpoint>
            <Time>2020-01-19T10:50:00.000Z</Time>
            <Position>
              <LatitudeDegrees>38.95569738931953907012939453125</LatitudeDegrees>
              <LongitudeDegrees>-2.8632703609764575958251953125</LongitudeDegrees>
            </Position>
            <AltitudeMeters>796.5999755859375</AltitudeMeters>
            <DistanceMeters>63388.386514075</DistanceMeters>
          </Trackpoint>
          <Trackpoint>
            <Time>2020-01-19T10:50:03.000Z</Time>
            <Position>
              <LatitudeDegrees>38.955763019621372222900390625</LatitudeDegrees>
              <LongitudeDegrees>-2.86327078007161617279052734375</LongitudeDegrees>
            </Position>
            <AltitudeMeters>796.5999755859375</AltitudeMeters>
            <DistanceMeters>63395.691219524</DistanceMeters>
          </Trackpoint>
          <Trackpoint>
            <Time>2020-01-19T10:50:10.000Z</Time>
            <Position>
              <LatitudeDegrees>38.95589000545442104339599609375</LatitudeDegrees>
              <LongitudeDegrees>-2.86334873177111148834228515625</LongitudeDegrees>
            </Position>
            <AltitudeMeters>797.4000244140625</AltitudeMeters>
            <DistanceMeters>63411.353052001</DistanceMeters>
          </Trackpoint>
          <Trackpoint>
            <Time>2020-01-19T10:50:11.000Z</Time>
            <Position>
              <LatitudeDegrees>38.95589268766343593597412109375</LatitudeDegrees>
              <LongitudeDegrees>-2.863363064825534820556640625</LongitudeDegrees>
            </Position>
            <AltitudeMeters>797.5999755859375</AltitudeMeters>
            <DistanceMeters>63412.635032466</DistanceMeters>
          </Trackpoint>
          <Trackpoint>
            <Time>2020-01-19T10:50:16.000Z</Time>
            <Position>
              <LatitudeDegrees>38.95586603321135044097900390625</LatitudeDegrees>
              <LongitudeDegrees>-2.8634252585470676422119140625</LongitudeDegrees>
            </Position>
            <AltitudeMeters>798.20001220703125</AltitudeMeters>
            <DistanceMeters>63418.780991282</DistanceMeters>
          </Trackpoint>
          <Trackpoint>
            <Time>2020-01-19T10:50:20.000Z</Time>
            <Position>
              <LatitudeDegrees>38.95584113895893096923828125</LatitudeDegrees>
              <LongitudeDegrees>-2.8634752146899700164794921875</LongitudeDegrees>
            </Position>
            <AltitudeMeters>798.79998779296875</AltitudeMeters>
            <DistanceMeters>63423.916831358</DistanceMeters>
          </Trackpoint>
          <Trackpoint>
            <Time>2020-01-19T10:50:24.000Z</Time>
            <Position>
              <LatitudeDegrees>38.95580333657562732696533203125</LatitudeDegrees>
              <LongitudeDegrees>-2.86353128962218761444091796875</LongitudeDegrees>
            </Position>
            <AltitudeMeters>799.5999755859375</AltitudeMeters>
            <DistanceMeters>63430.340805934</DistanceMeters>
          </Trackpoint>
          <Trackpoint>
            <Time>2020-01-19T10:50:30.000Z</Time>
            <Position>
              <LatitudeDegrees>38.9557501114904880523681640625</LatitudeDegrees>
              <LongitudeDegrees>-2.863614521920680999755859375</LongitudeDegrees>
            </Position>
            <AltitudeMeters>800.79998779296875</AltitudeMeters>
            <DistanceMeters>63439.66747342</DistanceMeters>
          </Trackpoint>
          <Trackpoint>
            <Time>2020-01-19T10:50:40.000Z</Time>
            <Position>
              <LatitudeDegrees>38.95566788502037525177001953125</LatitudeDegrees>
              <LongitudeDegrees>-2.86375232040882110595703125</LongitudeDegrees>
            </Position>
            <AltitudeMeters>802.5999755859375</AltitudeMeters>
            <DistanceMeters>63454.700927887</DistanceMeters>
          </Trackpoint>
          <Trackpoint>
            <Time>2020-01-19T10:50:47.000Z</Time>
            <Position>
              <LatitudeDegrees>38.955649025738239288330078125</LatitudeDegrees>
              <LongitudeDegrees>-2.86390277557075023651123046875</LongitudeDegrees>
            </Position>
            <AltitudeMeters>804.4000244140625</AltitudeMeters>
            <DistanceMeters>63467.89151214</DistanceMeters>
          </Trackpoint>
          <Trackpoint>
            <Time>2020-01-19T10:50:50.000Z</Time>
            <Position>
              <LatitudeDegrees>38.955661095678806304931640625</LatitudeDegrees>
              <LongitudeDegrees>-2.8639690764248371124267578125</LongitudeDegrees>
            </Position>
            <AltitudeMeters>804.79998779296875</AltitudeMeters>
            <DistanceMeters>63473.784700921</DistanceMeters>
          </Trackpoint>
          <Trackpoint>
            <Time>2020-01-19T10:51:00.000Z</Time>
            <Position>
              <LatitudeDegrees>38.95570644177496433258056640625</LatitudeDegrees>
              <LongitudeDegrees>-2.8641943819820880889892578125</LongitudeDegrees>
            </Position>
            <AltitudeMeters>806.5999755859375</AltitudeMeters>
            <DistanceMeters>63493.928123046</DistanceMeters>
          </Trackpoint>
          <Trackpoint>
            <Time>2020-01-19T10:51:10.000Z</Time>
            <Position>
              <LatitudeDegrees>38.95575874485075473785400390625</LatitudeDegrees>
              <LongitudeDegrees>-2.86443770863115787506103515625</LongitudeDegrees>
            </Position>
            <AltitudeMeters>811.79998779296875</AltitudeMeters>
            <DistanceMeters>63515.778275715</DistanceMeters>
          </Trackpoint>
          <Trackpoint>
            <Time>2020-01-19T10:51:20.000Z</Time>
            <Position>
              <LatitudeDegrees>38.95581574179232120513916015625</LatitudeDegrees>
              <LongitudeDegrees>-2.86472168751060962677001953125</LongitudeDegrees>
            </Position>
            <AltitudeMeters>815.5999755859375</AltitudeMeters>
            <DistanceMeters>63541.162684215</DistanceMeters>
          </Trackpoint>
          <Trackpoint>
            <Time>2020-01-19T10:51:30.000Z</Time>
            <Position>
              <LatitudeDegrees>38.955820687115192413330078125</LatitudeDegrees>
              <LongitudeDegrees>-2.86502125672996044158935546875</LongitudeDegrees>
            </Position>
            <AltitudeMeters>819.20001220703125</AltitudeMeters>
            <DistanceMeters>63567.096795993</DistanceMeters>
          </Trackpoint>
          <Trackpoint>
            <Time>2020-01-19T10:51:38.000Z</Time>
            <Position>
              <LatitudeDegrees>38.95584692247211933135986328125</LatitudeDegrees>
              <LongitudeDegrees>-2.8652282059192657470703125</LongitudeDegrees>
            </Position>
            <AltitudeMeters>822</AltitudeMeters>
            <DistanceMeters>63585.245157027</DistanceMeters>
          </Trackpoint>
          <Trackpoint>
            <Time>2020-01-19T10:51:40.000Z</Time>
            <Position>
              <LatitudeDegrees>38.955864608287811279296875</LatitudeDegrees>
              <LongitudeDegrees>-2.865285538136959075927734375</LongitudeDegrees>
            </Position>
            <AltitudeMeters>822.5999755859375</AltitudeMeters>
            <DistanceMeters>63590.583595118</DistanceMeters>
          </Trackpoint>
          <Trackpoint>
            <Time>2020-01-19T10:51:45.000Z</Time>
            <Position>
              <LatitudeDegrees>38.955901153385639190673828125</LatitudeDegrees>
              <LongitudeDegrees>-2.86542199552059173583984375</LongitudeDegrees>
            </Position>
            <AltitudeMeters>823.20001220703125</AltitudeMeters>
            <DistanceMeters>63603.074819673</DistanceMeters>
          </Trackpoint>
          <Trackpoint>
            <Time>2020-01-19T10:51:50.000Z</Time>
            <Position>
              <LatitudeDegrees>38.95592420361936092376708984375</LatitudeDegrees>
              <LongitudeDegrees>-2.86556809209287166595458984375</LongitudeDegrees>
            </Position>
            <AltitudeMeters>824.20001220703125</AltitudeMeters>
            <DistanceMeters>63615.976774144</DistanceMeters>
          </Trackpoint>
          <Trackpoint>
            <Time>2020-01-19T10:52:00.000Z</Time>
            <Position>
              <LatitudeDegrees>38.955955803394317626953125</LatitudeDegrees>
              <LongitudeDegrees>-2.86586849950253963470458984375</LongitudeDegrees>
            </Position>
            <AltitudeMeters>826.5999755859375</AltitudeMeters>
            <DistanceMeters>63642.214130101</DistanceMeters>
          </Trackpoint>
          <Trackpoint>
            <Time>2020-01-19T10:52:05.000Z</Time>
            <Position>
              <LatitudeDegrees>38.955988325178623199462890625</LatitudeDegrees>
              <LongitudeDegrees>-2.8660248219966888427734375</LongitudeDegrees>
            </Position>
            <AltitudeMeters>827</AltitudeMeters>
            <DistanceMeters>63656.219533363</DistanceMeters>
          </Trackpoint>
          <Trackpoint>
            <Time>2020-01-19T10:52:10.000Z</Time>
            <Position>
              <LatitudeDegrees>38.9560133032500743865966796875</LatitudeDegrees>
              <LongitudeDegrees>-2.8661938011646270751953125</LongitudeDegrees>
            </Position>
            <AltitudeMeters>827.5999755859375</AltitudeMeters>
            <DistanceMeters>63671.106917157</DistanceMeters>
          </Trackpoint>
          <Trackpoint>
            <Time>2020-01-19T10:52:20.000Z</Time>
            <Position>
              <LatitudeDegrees>38.95598002709448337554931640625</LatitudeDegrees>
              <LongitudeDegrees>-2.8665114752948284149169921875</LongitudeDegrees>
            </Position>
            <AltitudeMeters>830.79998779296875</AltitudeMeters>
            <DistanceMeters>63698.850486789</DistanceMeters>
          </Trackpoint>
          <Trackpoint>
            <Time>2020-01-19T10:52:30.000Z</Time>
            <Position>
              <LatitudeDegrees>38.9559797756373882293701171875</LatitudeDegrees>
              <LongitudeDegrees>-2.86685152910649776458740234375</LongitudeDegrees>
            </Position>
            <AltitudeMeters>831.79998779296875</AltitudeMeters>
            <DistanceMeters>63728.282700999</DistanceMeters>
          </Trackpoint>
          <Trackpoint>
            <Time>2020-01-19T10:52:40.000Z</Time>
            <Position>
              <LatitudeDegrees>38.9560957811772823333740234375</LatitudeDegrees>
              <LongitudeDegrees>-2.86718160845339298248291015625</LongitudeDegrees>
            </Position>
            <AltitudeMeters>829.79998779296875</AltitudeMeters>
            <DistanceMeters>63759.633740864</DistanceMeters>
          </Trackpoint>
          <Trackpoint>
            <Time>2020-01-19T10:52:50.000Z</Time>
            <Position>
              <LatitudeDegrees>38.9561732299625873565673828125</LatitudeDegrees>
              <LongitudeDegrees>-2.8675240091979503631591796875</LongitudeDegrees>
            </Position>
            <AltitudeMeters>827.5999755859375</AltitudeMeters>
            <DistanceMeters>63790.497241538</DistanceMeters>
          </Trackpoint>
          <Trackpoint>
            <Time>2020-01-19T10:53:00.000Z</Time>
            <Position>
              <LatitudeDegrees>38.95616970956325531005859375</LatitudeDegrees>
              <LongitudeDegrees>-2.8678713552653789520263671875</LongitudeDegrees>
            </Position>
            <AltitudeMeters>825.20001220703125</AltitudeMeters>
            <DistanceMeters>63820.563249462</DistanceMeters>
          </Trackpoint>
          <Trackpoint>
            <Time>2020-01-19T10:53:10.000Z</Time>
            <Position>
              <LatitudeDegrees>38.9559710584580898284912109375</LatitudeDegrees>
              <LongitudeDegrees>-2.8682066313922405242919921875</LongitudeDegrees>
            </Position>
            <AltitudeMeters>827</AltitudeMeters>
            <DistanceMeters>63857.045464268</DistanceMeters>
          </Trackpoint>
          <Trackpoint>
            <Time>2020-01-19T10:53:12.000Z</Time>
            <Position>
              <LatitudeDegrees>38.9559375308454036712646484375</LatitudeDegrees>
              <LongitudeDegrees>-2.86826471798121929168701171875</LongitudeDegrees>
            </Position>
            <AltitudeMeters>827</AltitudeMeters>
            <DistanceMeters>63863.307140714</DistanceMeters>
          </Trackpoint>
          <Trackpoint>
            <Time>2020-01-19T10:53:17.000Z</Time>
            <Position>
              <LatitudeDegrees>38.95586737431585788726806640625</LatitudeDegrees>
              <LongitudeDegrees>-2.86836697719991207122802734375</LongitudeDegrees>
            </Position>
            <AltitudeMeters>827</AltitudeMeters>
            <DistanceMeters>63875.109596358</DistanceMeters>
          </Trackpoint>
          <Trackpoint>
            <Time>2020-01-19T10:53:20.000Z</Time>
            <Position>
              <LatitudeDegrees>38.95582546480000019073486328125</LatitudeDegrees>
              <LongitudeDegrees>-2.8684202022850513458251953125</LongitudeDegrees>
            </Position>
            <AltitudeMeters>827.20001220703125</AltitudeMeters>
            <DistanceMeters>63881.665751014</DistanceMeters>
          </Trackpoint>
          <Trackpoint>
            <Time>2020-01-19T10:53:23.000Z</Time>
            <Position>
              <LatitudeDegrees>38.955784142017364501953125</LatitudeDegrees>
              <LongitudeDegrees>-2.86845959722995758056640625</LongitudeDegrees>
            </Position>
            <AltitudeMeters>827.5999755859375</AltitudeMeters>
            <DistanceMeters>63887.391061267</DistanceMeters>
          </Trackpoint>
          <Trackpoint>
            <Time>2020-01-19T10:53:29.000Z</Time>
            <Position>
              <LatitudeDegrees>38.9557447470724582672119140625</LatitudeDegrees>
              <LongitudeDegrees>-2.86850192584097385406494140625</LongitudeDegrees>
            </Position>
            <AltitudeMeters>827.79998779296875</AltitudeMeters>
            <DistanceMeters>63893.103739822</DistanceMeters>
          </Trackpoint>
          <Trackpoint>
            <Time>2020-01-19T10:53:36.000Z</Time>
            <Position>
              <LatitudeDegrees>38.95581792108714580535888671875</LatitudeDegrees>
              <LongitudeDegrees>-2.86844375543296337127685546875</LongitudeDegrees>
            </Position>
            <AltitudeMeters>827.20001220703125</AltitudeMeters>
            <DistanceMeters>63902.67835919</DistanceMeters>
          </Trackpoint>
          <Trackpoint>
            <Time>2020-01-19T10:53:40.000Z</Time>
            <Position>
              <LatitudeDegrees>38.955921940505504608154296875</LatitudeDegrees>
              <LongitudeDegrees>-2.86831031553447246551513671875</LongitudeDegrees>
            </Position>
            <AltitudeMeters>826.79998779296875</AltitudeMeters>
            <DistanceMeters>63919.031515274</DistanceMeters>
          </Trackpoint>
          <Trackpoint>
            <Time>2020-01-19T10:53:44.000Z</Time>
            <Position>
              <LatitudeDegrees>38.95602361299097537994384765625</LatitudeDegrees>
              <LongitudeDegrees>-2.8681506402790546417236328125</LongitudeDegrees>
            </Position>
            <AltitudeMeters>826.79998779296875</AltitudeMeters>
            <DistanceMeters>63936.89350455</DistanceMeters>
          </Trackpoint>
          <Trackpoint>
            <Time>2020-01-19T10:53:46.000Z</Time>
            <Position>
              <LatitudeDegrees>38.95607071928679943084716796875</LatitudeDegrees>
              <LongitudeDegrees>-2.86808601580560207366943359375</LongitudeDegrees>
            </Position>
            <AltitudeMeters>826.5999755859375</AltitudeMeters>
            <DistanceMeters>63944.559516388</DistanceMeters>
          </Trackpoint>
          <Trackpoint>
            <Time>2020-01-19T10:53:47.000Z</Time>
            <Position>
              <LatitudeDegrees>38.9560904167592525482177734375</LatitudeDegrees>
              <LongitudeDegrees>-2.868056260049343109130859375</LongitudeDegrees>
            </Position>
            <AltitudeMeters>826.4000244140625</AltitudeMeters>
            <DistanceMeters>63947.941986914</DistanceMeters>
          </Trackpoint>
          <Trackpoint>
            <Time>2020-01-19T10:53:50.000Z</Time>
            <Position>
              <LatitudeDegrees>38.95614020526409149169921875</LatitudeDegrees>
              <LongitudeDegrees>-2.867962382733821868896484375</LongitudeDegrees>
            </Position>
            <AltitudeMeters>825.4000244140625</AltitudeMeters>
            <DistanceMeters>63957.777137084</DistanceMeters>
          </Trackpoint>
          <Trackpoint>
            <Time>2020-01-19T10:53:54.000Z</Time>
            <Position>
              <LatitudeDegrees>38.95619611255824565887451171875</LatitudeDegrees>
              <LongitudeDegrees>-2.86785819567739963531494140625</LongitudeDegrees>
            </Position>
            <AltitudeMeters>824.4000244140625</AltitudeMeters>
            <DistanceMeters>63968.733680163</DistanceMeters>
          </Trackpoint>
          <Trackpoint>
            <Time>2020-01-19T10:53:58.000Z</Time>
            <Position>
              <LatitudeDegrees>38.9562495052814483642578125</LatitudeDegrees>
              <LongitudeDegrees>-2.8679622150957584381103515625</LongitudeDegrees>
            </Position>
            <AltitudeMeters>821.79998779296875</AltitudeMeters>
            <DistanceMeters>63979.52161904</DistanceMeters>
          </Trackpoint>
          <Trackpoint>
            <Time>2020-01-19T10:54:00.000Z</Time>
            <Position>
              <LatitudeDegrees>38.95629535429179668426513671875</LatitudeDegrees>
              <LongitudeDegrees>-2.86808366887271404266357421875</LongitudeDegrees>
            </Position>
            <AltitudeMeters>819.20001220703125</AltitudeMeters>
            <DistanceMeters>63991.207200582</DistanceMeters>
          </Trackpoint>
          <Trackpoint>
            <Time>2020-01-19T10:54:02.000Z</Time>
            <Position>
              <LatitudeDegrees>38.95630382001399993896484375</LatitudeDegrees>
              <LongitudeDegrees>-2.86820612847805023193359375</LongitudeDegrees>
            </Position>
            <AltitudeMeters>818.4000244140625</AltitudeMeters>
            <DistanceMeters>64001.848495551</DistanceMeters>
          </Trackpoint>
          <Trackpoint>
            <Time>2020-01-19T10:54:05.000Z</Time>
            <Position>
              <LatitudeDegrees>38.95632267929613590240478515625</LatitudeDegrees>
              <LongitudeDegrees>-2.86838960833847522735595703125</LongitudeDegrees>
            </Position>
            <AltitudeMeters>819</AltitudeMeters>
            <DistanceMeters>64017.867192509</DistanceMeters>
          </Trackpoint>
          <Trackpoint>
            <Time>2020-01-19T10:54:07.000Z</Time>
            <Position>
              <LatitudeDegrees>38.95628680475056171417236328125</LatitudeDegrees>
              <LongitudeDegrees>-2.86848080344498157501220703125</LongitudeDegrees>
            </Position>
            <AltitudeMeters>819.4000244140625</AltitudeMeters>
            <DistanceMeters>64026.71233707</DistanceMeters>
          </Trackpoint>
          <Trackpoint>
            <Time>2020-01-19T10:54:10.000Z</Time>
            <Position>
              <LatitudeDegrees>38.95621941424906253814697265625</LatitudeDegrees>
              <LongitudeDegrees>-2.86860435269773006439208984375</LongitudeDegrees>
            </Position>
            <AltitudeMeters>820.4000244140625</AltitudeMeters>
            <DistanceMeters>64039.774276602</DistanceMeters>
          </Trackpoint>
          <Trackpoint>
            <Time>2020-01-19T10:54:17.000Z</Time>
            <Position>
              <LatitudeDegrees>38.95627926103770732879638671875</LatitudeDegrees>
              <LongitudeDegrees>-2.86887726746499538421630859375</LongitudeDegrees>
            </Position>
            <AltitudeMeters>818.20001220703125</AltitudeMeters>
            <DistanceMeters>64064.316753841</DistanceMeters>
          </Trackpoint>
          <Trackpoint>
            <Time>2020-01-19T10:54:19.000Z</Time>
            <Position>
              <LatitudeDegrees>38.95629686303436756134033203125</LatitudeDegrees>
              <LongitudeDegrees>-2.86888883449137210845947265625</LongitudeDegrees>
            </Position>
            <AltitudeMeters>817.79998779296875</AltitudeMeters>
            <DistanceMeters>64066.516781335</DistanceMeters>
          </Trackpoint>
          <Trackpoint>
            <Time>2020-01-19T10:54:57.000Z</Time>
            <Position>
              <LatitudeDegrees>38.95629954524338245391845703125</LatitudeDegrees>
              <LongitudeDegrees>-2.868881709873676300048828125</LongitudeDegrees>
            </Position>
            <AltitudeMeters>817.5999755859375</AltitudeMeters>
            <DistanceMeters>64067.202028717</DistanceMeters>
          </Trackpoint>
          <Trackpoint>
            <Time>2020-01-19T10:54:59.000Z</Time>
            <Position>
              <LatitudeDegrees>38.95626358687877655029296875</LatitudeDegrees>
              <LongitudeDegrees>-2.86885547451674938201904296875</LongitudeDegrees>
            </Position>
            <AltitudeMeters>818.5999755859375</AltitudeMeters>
            <DistanceMeters>64071.803716371</DistanceMeters>
          </Trackpoint>
          <Trackpoint>
            <Time>2020-01-19T10:55:00.000Z</Time>
            <Position>
              <LatitudeDegrees>38.95624506287276744842529296875</LatitudeDegrees>
              <LongitudeDegrees>-2.86884726025164127349853515625</LongitudeDegrees>
            </Position>
            <AltitudeMeters>819</AltitudeMeters>
            <DistanceMeters>64073.983124595</DistanceMeters>
          </Trackpoint>
          <Trackpoint>
            <Time>2020-01-19T10:55:05.000Z</Time>
            <Position>
              <LatitudeDegrees>38.95616979338228702545166015625</LatitudeDegrees>
              <LongitudeDegrees>-2.86885497160255908966064453125</LongitudeDegrees>
            </Position>
            <AltitudeMeters>820.4000244140625</AltitudeMeters>
            <DistanceMeters>64082.387484056</DistanceMeters>
          </Trackpoint>
          <Trackpoint>
            <Time>2020-01-19T10:55:10.000Z</Time>
            <Position>
              <LatitudeDegrees>38.956142552196979522705078125</LatitudeDegrees>
              <LongitudeDegrees>-2.8689335100352764129638671875</LongitudeDegrees>
            </Position>
            <AltitudeMeters>820.79998779296875</AltitudeMeters>
            <DistanceMeters>64089.829962736</DistanceMeters>
          </Trackpoint>
          <Trackpoint>
            <Time>2020-01-19T10:55:14.000Z</Time>
            <Position>
              <LatitudeDegrees>38.9561309851706027984619140625</LatitudeDegrees>
              <LongitudeDegrees>-2.86899444647133350372314453125</LongitudeDegrees>
            </Position>
            <AltitudeMeters>820.79998779296875</AltitudeMeters>
            <DistanceMeters>64095.258142858</DistanceMeters>
          </Trackpoint>
          <Trackpoint>
            <Time>2020-01-19T10:55:17.000Z</Time>
            <Position>
              <LatitudeDegrees>38.956108354032039642333984375</LatitudeDegrees>
              <LongitudeDegrees>-2.86903803236782550811767578125</LongitudeDegrees>
            </Position>
            <AltitudeMeters>821</AltitudeMeters>
            <DistanceMeters>64099.794611112</DistanceMeters>
          </Trackpoint>
          <Trackpoint>
            <Time>2020-01-19T10:55:19.000Z</Time>
            <Position>
              <LatitudeDegrees>38.956078849732875823974609375</LatitudeDegrees>
              <LongitudeDegrees>-2.86904959939420223236083984375</LongitudeDegrees>
            </Position>
            <AltitudeMeters>821.5999755859375</AltitudeMeters>
            <DistanceMeters>64103.228745622</DistanceMeters>
          </Trackpoint>
          <Trackpoint>
            <Time>2020-01-19T10:55:23.000Z</Time>
            <Position>
              <LatitudeDegrees>38.95601925440132617950439453125</LatitudeDegrees>
              <LongitudeDegrees>-2.869015149772167205810546875</LongitudeDegrees>
            </Position>
            <AltitudeMeters>822.4000244140625</AltitudeMeters>
            <DistanceMeters>64110.500617985</DistanceMeters>
          </Trackpoint>
          <Trackpoint>
            <Time>2020-01-19T10:55:30.000Z</Time>
            <Position>
              <LatitudeDegrees>38.95593702793121337890625</LatitudeDegrees>
              <LongitudeDegrees>-2.86901615560054779052734375</LongitudeDegrees>
            </Position>
            <AltitudeMeters>823.4000244140625</AltitudeMeters>
            <DistanceMeters>64119.652830236</DistanceMeters>
          </Trackpoint>
          <Trackpoint>
            <Time>2020-01-19T10:55:36.000Z</Time>
            <Position>
              <LatitudeDegrees>38.95585991442203521728515625</LatitudeDegrees>
              <LongitudeDegrees>-2.86904691718518733978271484375</LongitudeDegrees>
            </Position>
            <AltitudeMeters>824.20001220703125</AltitudeMeters>
            <DistanceMeters>64128.639765404</DistanceMeters>
          </Trackpoint>
          <Trackpoint>
            <Time>2020-01-19T10:55:40.000Z</Time>
            <Position>
              <LatitudeDegrees>38.9558111317455768585205078125</LatitudeDegrees>
              <LongitudeDegrees>-2.8690659441053867340087890625</LongitudeDegrees>
            </Position>
            <AltitudeMeters>824.79998779296875</AltitudeMeters>
            <DistanceMeters>64134.314380158</DistanceMeters>
          </Trackpoint>
          <Trackpoint>
            <Time>2020-01-19T10:55:43.000Z</Time>
            <Position>
              <LatitudeDegrees>38.9557801187038421630859375</LatitudeDegrees>
              <LongitudeDegrees>-2.86908262409269809722900390625</LongitudeDegrees>
            </Position>
            <AltitudeMeters>825</AltitudeMeters>
            <DistanceMeters>64138.055585644</DistanceMeters>
          </Trackpoint>
          <Trackpoint>
            <Time>2020-01-19T10:55:47.000Z</Time>
            <Position>
              <LatitudeDegrees>38.95572178065776824951171875</LatitudeDegrees>
              <LongitudeDegrees>-2.86910491995513439178466796875</LongitudeDegrees>
            </Position>
            <AltitudeMeters>825.5999755859375</AltitudeMeters>
            <DistanceMeters>64144.828530966</DistanceMeters>
          </Trackpoint>
          <Trackpoint>
            <Time>2020-01-19T10:55:50.000Z</Time>
            <Position>
              <LatitudeDegrees>38.95568112842738628387451171875</LatitudeDegrees>
              <LongitudeDegrees>-2.86912520416080951690673828125</LongitudeDegrees>
            </Position>
            <AltitudeMeters>826.20001220703125</AltitudeMeters>
            <DistanceMeters>64149.682340752</DistanceMeters>
          </Trackpoint>
          <Trackpoint>
            <Time>2020-01-19T10:55:52.000Z</Time>
            <Position>
              <LatitudeDegrees>38.9556532166898250579833984375</LatitudeDegrees>
              <LongitudeDegrees>-2.86911682225763797760009765625</LongitudeDegrees>
            </Position>
            <AltitudeMeters>826.4000244140625</AltitudeMeters>
            <DistanceMeters>64152.873880542</DistanceMeters>
          </Trackpoint>
          <Trackpoint>
            <Time>2020-01-19T10:55:58.000Z</Time>
            <Position>
              <LatitudeDegrees>38.95556948147714138031005859375</LatitudeDegrees>
              <LongitudeDegrees>-2.86910760216414928436279296875</LongitudeDegrees>
            </Position>
            <AltitudeMeters>827.5999755859375</AltitudeMeters>
            <DistanceMeters>64162.228101019</DistanceMeters>
          </Trackpoint>
          <Trackpoint>
            <Time>2020-01-19T10:56:00.000Z</Time>
            <Position>
              <LatitudeDegrees>38.95553813315927982330322265625</LatitudeDegrees>
              <LongitudeDegrees>-2.86910332739353179931640625</LongitudeDegrees>
            </Position>
            <AltitudeMeters>828</AltitudeMeters>
            <DistanceMeters>64165.737662854</DistanceMeters>
          </Trackpoint>
          <Trackpoint>
            <Time>2020-01-19T10:56:10.000Z</Time>
            <Position>
              <LatitudeDegrees>38.95540100522339344024658203125</LatitudeDegrees>
              <LongitudeDegrees>-2.86914356052875518798828125</LongitudeDegrees>
            </Position>
            <AltitudeMeters>829.4000244140625</AltitudeMeters>
            <DistanceMeters>64181.392575012</DistanceMeters>
          </Trackpoint>
          <Trackpoint>
            <Time>2020-01-19T10:56:18.000Z</Time>
            <Position>
              <LatitudeDegrees>38.9553269930183887481689453125</LatitudeDegrees>
              <LongitudeDegrees>-2.86922360770404338836669921875</LongitudeDegrees>
            </Position>
            <AltitudeMeters>830</AltitudeMeters>
            <DistanceMeters>64192.15621198</DistanceMeters>
          </Trackpoint>
          <Trackpoint>
            <Time>2020-01-19T10:56:20.000Z</Time>
            <Position>
              <LatitudeDegrees>38.95530201494693756103515625</LatitudeDegrees>
              <LongitudeDegrees>-2.8692300617694854736328125</LongitudeDegrees>
            </Position>
            <AltitudeMeters>830.4000244140625</AltitudeMeters>
            <DistanceMeters>64194.991131385</DistanceMeters>
          </Trackpoint>
          <Trackpoint>
            <Time>2020-01-19T10:56:23.000Z</Time>
            <Position>
              <LatitudeDegrees>38.955261446535587310791015625</LatitudeDegrees>
              <LongitudeDegrees>-2.8692342527210712432861328125</LongitudeDegrees>
            </Position>
            <AltitudeMeters>830.79998779296875</AltitudeMeters>
            <DistanceMeters>64199.520627349</DistanceMeters>
          </Trackpoint>
          <Trackpoint>
            <Time>2020-01-19T10:56:26.000Z</Time>
            <Position>
              <LatitudeDegrees>38.9552200399339199066162109375</LatitudeDegrees>
              <LongitudeDegrees>-2.8692362643778324127197265625</LongitudeDegrees>
            </Position>
            <AltitudeMeters>831.4000244140625</AltitudeMeters>
            <DistanceMeters>64204.133095246</DistanceMeters>
          </Trackpoint>
          <Trackpoint>
            <Time>2020-01-19T10:56:30.000Z</Time>
            <Position>
              <LatitudeDegrees>38.9551677368581295013427734375</LatitudeDegrees>
              <LongitudeDegrees>-2.86922461353242397308349609375</LongitudeDegrees>
            </Position>
            <AltitudeMeters>832</AltitudeMeters>
            <DistanceMeters>64210.040822851</DistanceMeters>
          </Trackpoint>
          <Trackpoint>
            <Time>2020-01-19T10:56:39.000Z</Time>
            <Position>
              <LatitudeDegrees>38.95505432970821857452392578125</LatitudeDegrees>
              <LongitudeDegrees>-2.86924640648066997528076171875</LongitudeDegrees>
            </Position>
            <AltitudeMeters>833.5999755859375</AltitudeMeters>
            <DistanceMeters>64222.803444795</DistanceMeters>
          </Trackpoint>
          <Trackpoint>
            <Time>2020-01-19T10:56:40.000Z</Time>
            <Position>
              <LatitudeDegrees>38.9550403319299221038818359375</LatitudeDegrees>
              <LongitudeDegrees>-2.86924690939486026763916015625</LongitudeDegrees>
            </Position>
            <AltitudeMeters>833.79998779296875</AltitudeMeters>
            <DistanceMeters>64224.361998793</DistanceMeters>
          </Trackpoint>
          <Trackpoint>
            <Time>2020-01-19T10:56:48.000Z</Time>
            <Position>
              <LatitudeDegrees>38.95493279211223125457763671875</LatitudeDegrees>
              <LongitudeDegrees>-2.86928982473909854888916015625</LongitudeDegrees>
            </Position>
            <AltitudeMeters>835.79998779296875</AltitudeMeters>
            <DistanceMeters>64236.894721947</DistanceMeters>
          </Trackpoint>
          <Trackpoint>
            <Time>2020-01-19T10:56:50.000Z</Time>
            <Position>
              <LatitudeDegrees>38.95490563474595546722412109375</LatitudeDegrees>
              <LongitudeDegrees>-2.869300134479999542236328125</LongitudeDegrees>
            </Position>
            <AltitudeMeters>836.20001220703125</AltitudeMeters>
            <DistanceMeters>64240.04783377</DistanceMeters>
          </Trackpoint>
          <Trackpoint>
            <Time>2020-01-19T10:56:57.000Z</Time>
            <Position>
              <LatitudeDegrees>38.9548359811305999755859375</LatitudeDegrees>
              <LongitudeDegrees>-2.86938152275979518890380859375</LongitudeDegrees>
            </Position>
            <AltitudeMeters>838</AltitudeMeters>
            <DistanceMeters>64250.52320913</DistanceMeters>
          </Trackpoint>
          <Trackpoint>
            <Time>2020-01-19T10:57:00.000Z</Time>
            <Position>
              <LatitudeDegrees>38.95481653511524200439453125</LatitudeDegrees>
              <LongitudeDegrees>-2.86943349055945873260498046875</LongitudeDegrees>
            </Position>
            <AltitudeMeters>838.79998779296875</AltitudeMeters>
            <DistanceMeters>64255.515504292</DistanceMeters>
          </Trackpoint>
          <Trackpoint>
            <Time>2020-01-19T10:57:10.000Z</Time>
            <Position>
              <LatitudeDegrees>38.9547640644013881683349609375</LatitudeDegrees>
              <LongitudeDegrees>-2.8695980273187160491943359375</LongitudeDegrees>
            </Position>
            <AltitudeMeters>841.4000244140625</AltitudeMeters>
            <DistanceMeters>64270.907485503</DistanceMeters>
          </Trackpoint>
          <Trackpoint>
            <Time>2020-01-19T10:57:20.000Z</Time>
            <Position>
              <LatitudeDegrees>38.95472609438002109527587890625</LatitudeDegrees>
              <LongitudeDegrees>-2.8697532601654529571533203125</LongitudeDegrees>
            </Position>
            <AltitudeMeters>843.4000244140625</AltitudeMeters>
            <DistanceMeters>64284.99197056</DistanceMeters>
          </Trackpoint>
          <Trackpoint>
            <Time>2020-01-19T10:57:30.000Z</Time>
            <Position>
              <LatitudeDegrees>38.9547072350978851318359375</LatitudeDegrees>
              <LongitudeDegrees>-2.8699054755270481109619140625</LongitudeDegrees>
            </Position>
            <AltitudeMeters>845.20001220703125</AltitudeMeters>
            <DistanceMeters>64298.332990263</DistanceMeters>
          </Trackpoint>
          <Trackpoint>
            <Time>2020-01-19T10:57:34.000Z</Time>
            <Position>
              <LatitudeDegrees>38.95467915572226047515869140625</LatitudeDegrees>
              <LongitudeDegrees>-2.86994713358581066131591796875</LongitudeDegrees>
            </Position>
            <AltitudeMeters>846</AltitudeMeters>
            <DistanceMeters>64303.105186067</DistanceMeters>
          </Trackpoint>
          <Trackpoint>
            <Time>2020-01-19T10:57:40.000Z</Time>
            <Position>
              <LatitudeDegrees>38.95462132059037685394287109375</LatitudeDegrees>
              <LongitudeDegrees>-2.8699906356632709503173828125</LongitudeDegrees>
            </Position>
            <AltitudeMeters>847.20001220703125</AltitudeMeters>
            <DistanceMeters>64310.562210322</DistanceMeters>
          </Trackpoint>
          <Trackpoint>
            <Time>2020-01-19T10:57:50.000Z</Time>
            <Position>
              <LatitudeDegrees>38.95449592731893062591552734375</LatitudeDegrees>
              <LongitudeDegrees>-2.86997261457145214080810546875</LongitudeDegrees>
            </Position>
            <AltitudeMeters>848.79998779296875</AltitudeMeters>
            <DistanceMeters>64324.605602702</DistanceMeters>
          </Trackpoint>
          <Trackpoint>
            <Time>2020-01-19T10:58:00.000Z</Time>
            <Position>
              <LatitudeDegrees>38.9543721266090869903564453125</LatitudeDegrees>
              <LongitudeDegrees>-2.8698856942355632781982421875</LongitudeDegrees>
            </Position>
            <AltitudeMeters>849</AltitudeMeters>
            <DistanceMeters>64340.304867221</DistanceMeters>
          </Trackpoint>
          <Trackpoint>
            <Time>2020-01-19T10:58:10.000Z</Time>
            <Position>
              <LatitudeDegrees>38.95427648909389972686767578125</LatitudeDegrees>
              <LongitudeDegrees>-2.86970757879316806793212890625</LongitudeDegrees>
            </Position>
            <AltitudeMeters>846.79998779296875</AltitudeMeters>
            <DistanceMeters>64359.039354437</DistanceMeters>
          </Trackpoint>
          <Trackpoint>
            <Time>2020-01-19T10:58:20.000Z</Time>
            <Position>
              <LatitudeDegrees>38.95417288877069950103759765625</LatitudeDegrees>
              <LongitudeDegrees>-2.8695175610482692718505859375</LongitudeDegrees>
            </Position>
            <AltitudeMeters>844.20001220703125</AltitudeMeters>
            <DistanceMeters>64379.125538381</DistanceMeters>
          </Trackpoint>
          <Trackpoint>
            <Time>2020-01-19T10:58:30.000Z</Time>
            <Position>
              <LatitudeDegrees>38.95400256849825382232666015625</LatitudeDegrees>
              <LongitudeDegrees>-2.86936911754310131072998046875</LongitudeDegrees>
            </Position>
            <AltitudeMeters>846.5999755859375</AltitudeMeters>
            <DistanceMeters>64402.026385084</DistanceMeters>
          </Trackpoint>
          <Trackpoint>
            <Time>2020-01-19T10:58:39.000Z</Time>
            <Position>
              <LatitudeDegrees>38.9538145624101161956787109375</LatitudeDegrees>
              <LongitudeDegrees>-2.869269289076328277587890625</LongitudeDegrees>
            </Position>
            <AltitudeMeters>849.5999755859375</AltitudeMeters>
            <DistanceMeters>64424.665889031</DistanceMeters>
          </Trackpoint>
          <Trackpoint>
            <Time>2020-01-19T10:58:40.000Z</Time>
            <Position>
              <LatitudeDegrees>38.95379235036671161651611328125</LatitudeDegrees>
              <LongitudeDegrees>-2.86925512365996837615966796875</LongitudeDegrees>
            </Position>
            <AltitudeMeters>850</AltitudeMeters>
            <DistanceMeters>64427.426574547</DistanceMeters>
          </Trackpoint>
          <Trackpoint>
            <Time>2020-01-19T10:58:41.000Z</Time>
            <Position>
              <LatitudeDegrees>38.95376871339976787567138671875</LatitudeDegrees>
              <LongitudeDegrees>-2.86923970095813274383544921875</LongitudeDegrees>
            </Position>
            <AltitudeMeters>850.4000244140625</AltitudeMeters>
            <DistanceMeters>64430.376997176</DistanceMeters>
          </Trackpoint>
          <Trackpoint>
            <Time>2020-01-19T10:58:46.000Z</Time>
            <Position>
              <LatitudeDegrees>38.95365941338241100311279296875</LatitudeDegrees>
              <LongitudeDegrees>-2.86915269680321216583251953125</LongitudeDegrees>
            </Position>
            <AltitudeMeters>852.20001220703125</AltitudeMeters>
            <DistanceMeters>64444.684751472</DistanceMeters>
          </Trackpoint>
          <Trackpoint>
            <Time>2020-01-19T10:58:56.000Z</Time>
            <Position>
              <LatitudeDegrees>38.9534719102084636688232421875</LatitudeDegrees>
              <LongitudeDegrees>-2.869031243026256561279296875</LongitudeDegrees>
            </Position>
            <AltitudeMeters>852.79998779296875</AltitudeMeters>
            <DistanceMeters>64468.052436907</DistanceMeters>
          </Trackpoint>
          <Trackpoint>
            <Time>2020-01-19T10:59:03.000Z</Time>
            <Position>
              <LatitudeDegrees>38.95335297100245952606201171875</LatitudeDegrees>
              <LongitudeDegrees>-2.868983633816242218017578125</LongitudeDegrees>
            </Position>
            <AltitudeMeters>852.4000244140625</AltitudeMeters>
            <DistanceMeters>64481.91722206</DistanceMeters>
          </Trackpoint>
          <Trackpoint>
            <Time>2020-01-19T10:59:06.000Z</Time>
            <Position>
              <LatitudeDegrees>38.95330100320279598236083984375</LatitudeDegrees>
              <LongitudeDegrees>-2.86896712146699428558349609375</LongitudeDegrees>
            </Position>
            <AltitudeMeters>852.4000244140625</AltitudeMeters>
            <DistanceMeters>64487.875935056</DistanceMeters>
          </Trackpoint>
          <Trackpoint>
            <Time>2020-01-19T10:59:16.000Z</Time>
            <Position>
              <LatitudeDegrees>38.953130431473255157470703125</LatitudeDegrees>
              <LongitudeDegrees>-2.86892219446599483489990234375</LongitudeDegrees>
            </Position>
            <AltitudeMeters>851.79998779296875</AltitudeMeters>
            <DistanceMeters>64507.255328218</DistanceMeters>
          </Trackpoint>
          <Trackpoint>
            <Time>2020-01-19T10:59:26.000Z</Time>
            <Position>
              <LatitudeDegrees>38.952927924692630767822265625</LatitudeDegrees>
              <LongitudeDegrees>-2.86884608678519725799560546875</LongitudeDegrees>
            </Position>
            <AltitudeMeters>852</AltitudeMeters>
            <DistanceMeters>64530.737504181</DistanceMeters>
          </Trackpoint>
          <Trackpoint>
            <Time>2020-01-19T10:59:36.000Z</Time>
            <Position>
              <LatitudeDegrees>38.95268342457711696624755859375</LatitudeDegrees>
              <LongitudeDegrees>-2.868657410144805908203125</LongitudeDegrees>
            </Position>
            <AltitudeMeters>852.79998779296875</AltitudeMeters>
            <DistanceMeters>64562.475004193</DistanceMeters>
          </Trackpoint>
          <Trackpoint>
            <Time>2020-01-19T10:59:40.000Z</Time>
            <Position>
              <LatitudeDegrees>38.95256658084690570831298828125</LatitudeDegrees>
              <LongitudeDegrees>-2.86854182370007038116455078125</LongitudeDegrees>
            </Position>
            <AltitudeMeters>852.4000244140625</AltitudeMeters>
            <DistanceMeters>64578.883011357</DistanceMeters>
          </Trackpoint>
          <Trackpoint>
            <Time>2020-01-19T10:59:43.000Z</Time>
            <Position>
              <LatitudeDegrees>38.95245225168764591217041015625</LatitudeDegrees>
              <LongitudeDegrees>-2.868445850908756256103515625</LongitudeDegrees>
            </Position>
            <AltitudeMeters>853.5999755859375</AltitudeMeters>
            <DistanceMeters>64594.079562775</DistanceMeters>
          </Trackpoint>
          <Trackpoint>
            <Time>2020-01-19T10:59:46.000Z</Time>
            <Position>
              <LatitudeDegrees>38.9523155428469181060791015625</LatitudeDegrees>
              <LongitudeDegrees>-2.86836228333413600921630859375</LongitudeDegrees>
            </Position>
            <AltitudeMeters>853.5999755859375</AltitudeMeters>
            <DistanceMeters>64610.927453531</DistanceMeters>
          </Trackpoint>
          <Trackpoint>
            <Time>2020-01-19T10:59:51.000Z</Time>
            <Position>
              <LatitudeDegrees>38.95209987647831439971923828125</LatitudeDegrees>
              <LongitudeDegrees>-2.8682502172887325286865234375</LongitudeDegrees>
            </Position>
            <AltitudeMeters>851.79998779296875</AltitudeMeters>
            <DistanceMeters>64636.817307032</DistanceMeters>
          </Trackpoint>
          <Trackpoint>
            <Time>2020-01-19T10:59:56.000Z</Time>
            <Position>
              <LatitudeDegrees>38.951912038028240203857421875</LatitudeDegrees>
              <LongitudeDegrees>-2.8681573458015918731689453125</LongitudeDegrees>
            </Position>
            <AltitudeMeters>851.20001220703125</AltitudeMeters>
            <DistanceMeters>64659.216214309</DistanceMeters>
          </Trackpoint>
          <Trackpoint>
            <Time>2020-01-19T10:59:57.000Z</Time>
            <Position>
              <LatitudeDegrees>38.95186954177916049957275390625</LatitudeDegrees>
              <LongitudeDegrees>-2.8681439347565174102783203125</LongitudeDegrees>
            </Position>
            <AltitudeMeters>851.4000244140625</AltitudeMeters>
            <DistanceMeters>64664.086739006</DistanceMeters>
          </Trackpoint>
          <Trackpoint>
            <Time>2020-01-19T11:00:06.000Z</Time>
            <Position>
              <LatitudeDegrees>38.95148850046098232269287109375</LatitudeDegrees>
              <LongitudeDegrees>-2.86814033053815364837646484375</LongitudeDegrees>
            </Position>
            <AltitudeMeters>852.5999755859375</AltitudeMeters>
            <DistanceMeters>64706.498685052</DistanceMeters>
          </Trackpoint>
          <Trackpoint>
            <Time>2020-01-19T11:00:16.000Z</Time>
            <Position>
              <LatitudeDegrees>38.951143920421600341796875</LatitudeDegrees>
              <LongitudeDegrees>-2.86817017011344432830810546875</LongitudeDegrees>
            </Position>
            <AltitudeMeters>853.4000244140625</AltitudeMeters>
            <DistanceMeters>64744.938136252</DistanceMeters>
          </Trackpoint>
          <Trackpoint>
            <Time>2020-01-19T11:00:26.000Z</Time>
            <Position>
              <LatitudeDegrees>38.9508171938359737396240234375</LatitudeDegrees>
              <LongitudeDegrees>-2.86823672242462635040283203125</LongitudeDegrees>
            </Position>
            <AltitudeMeters>856.5999755859375</AltitudeMeters>
            <DistanceMeters>64781.757033521</DistanceMeters>
          </Trackpoint>
          <Trackpoint>
            <Time>2020-01-19T11:00:36.000Z</Time>
            <Position>
              <LatitudeDegrees>38.95048384554684162139892578125</LatitudeDegrees>
              <LongitudeDegrees>-2.8682813979685306549072265625</LongitudeDegrees>
            </Position>
            <AltitudeMeters>860.4000244140625</AltitudeMeters>
            <DistanceMeters>64819.06031461</DistanceMeters>
          </Trackpoint>
          <Trackpoint>
            <Time>2020-01-19T11:00:42.000Z</Time>
            <Position>
              <LatitudeDegrees>38.95028896629810333251953125</LatitudeDegrees>
              <LongitudeDegrees>-2.86830813623964786529541015625</LongitudeDegrees>
            </Position>
            <AltitudeMeters>862.4000244140625</AltitudeMeters>
            <DistanceMeters>64840.873861963</DistanceMeters>
          </Trackpoint>
          <Trackpoint>
            <Time>2020-01-19T11:00:46.000Z</Time>
            <Position>
              <LatitudeDegrees>38.95016969181597232818603515625</LatitudeDegrees>
              <LongitudeDegrees>-2.86832171492278575897216796875</LongitudeDegrees>
            </Position>
            <AltitudeMeters>862.79998779296875</AltitudeMeters>
            <DistanceMeters>64854.20133748</DistanceMeters>
          </Trackpoint>
          <Trackpoint>
            <Time>2020-01-19T11:00:51.000Z</Time>
            <Position>
              <LatitudeDegrees>38.95002569071948528289794921875</LatitudeDegrees>
              <LongitudeDegrees>-2.86828751675784587860107421875</LongitudeDegrees>
            </Position>
            <AltitudeMeters>862</AltitudeMeters>
            <DistanceMeters>64870.50001193</DistanceMeters>
          </Trackpoint>
          <Trackpoint>
            <Time>2020-01-19T11:01:01.000Z</Time>
            <Position>
              <LatitudeDegrees>38.94975579343736171722412109375</LatitudeDegrees>
              <LongitudeDegrees>-2.86807729862630367279052734375</LongitudeDegrees>
            </Position>
            <AltitudeMeters>858.20001220703125</AltitudeMeters>
            <DistanceMeters>64905.621350775</DistanceMeters>
          </Trackpoint>
          <Trackpoint>
            <Time>2020-01-19T11:01:11.000Z</Time>
            <Position>
              <LatitudeDegrees>38.9494608342647552490234375</LatitudeDegrees>
              <LongitudeDegrees>-2.86787378601729869842529296875</LongitudeDegrees>
            </Position>
            <AltitudeMeters>862</AltitudeMeters>
            <DistanceMeters>64942.878488627</DistanceMeters>
          </Trackpoint>
          <Trackpoint>
            <Time>2020-01-19T11:01:21.000Z</Time>
            <Position>
              <LatitudeDegrees>38.94916512072086334228515625</LatitudeDegrees>
              <LongitudeDegrees>-2.86763657815754413604736328125</LongitudeDegrees>
            </Position>
            <AltitudeMeters>862</AltitudeMeters>
            <DistanceMeters>64981.67139171</DistanceMeters>
          </Trackpoint>
          <Trackpoint>
            <Time>2020-01-19T11:01:28.000Z</Time>
            <Position>
              <LatitudeDegrees>38.949000835418701171875</LatitudeDegrees>
              <LongitudeDegrees>-2.8674200735986232757568359375</LongitudeDegrees>
            </Position>
            <AltitudeMeters>862</AltitudeMeters>
            <DistanceMeters>65007.854657427</DistanceMeters>
          </Trackpoint>
          <Trackpoint>
            <Time>2020-01-19T11:01:31.000Z</Time>
            <Position>
              <LatitudeDegrees>38.948939479887485504150390625</LatitudeDegrees>
              <LongitudeDegrees>-2.8673292137682437896728515625</LongitudeDegrees>
            </Position>
            <AltitudeMeters>861.4000244140625</AltitudeMeters>
            <DistanceMeters>65018.270382961</DistanceMeters>
          </Trackpoint>
          <Trackpoint>
            <Time>2020-01-19T11:01:40.000Z</Time>
            <Position>
              <LatitudeDegrees>38.94876815378665924072265625</LatitudeDegrees>
              <LongitudeDegrees>-2.8671132959425449371337890625</LongitudeDegrees>
            </Position>
            <AltitudeMeters>862.20001220703125</AltitudeMeters>
            <DistanceMeters>65044.971367875</DistanceMeters>
          </Trackpoint>
          <Trackpoint>
            <Time>2020-01-19T11:01:41.000Z</Time>
            <Position>
              <LatitudeDegrees>38.94875013269484043121337890625</LatitudeDegrees>
              <LongitudeDegrees>-2.8670918382704257965087890625</LongitudeDegrees>
            </Position>
            <AltitudeMeters>862.4000244140625</AltitudeMeters>
            <DistanceMeters>65047.702456146</DistanceMeters>
          </Trackpoint>
          <Trackpoint>
            <Time>2020-01-19T11:01:46.000Z</Time>
            <Position>
              <LatitudeDegrees>38.94866044633090496063232421875</LatitudeDegrees>
              <LongitudeDegrees>-2.86699377000331878662109375</LongitudeDegrees>
            </Position>
            <AltitudeMeters>863.5999755859375</AltitudeMeters>
            <DistanceMeters>65060.805809668</DistanceMeters>
          </Trackpoint>
          <Trackpoint>
            <Time>2020-01-19T11:01:50.000Z</Time>
            <Position>
              <LatitudeDegrees>38.9485862664878368377685546875</LatitudeDegrees>
              <LongitudeDegrees>-2.86693015135824680328369140625</LongitudeDegrees>
            </Position>
            <AltitudeMeters>864.4000244140625</AltitudeMeters>
            <DistanceMeters>65070.73007507</DistanceMeters>
          </Trackpoint>
          <Trackpoint>
            <Time>2020-01-19T11:01:51.000Z</Time>
            <Position>
              <LatitudeDegrees>38.94856489263474941253662109375</LatitudeDegrees>
              <LongitudeDegrees>-2.8669164888560771942138671875</LongitudeDegrees>
            </Position>
            <AltitudeMeters>864.5999755859375</AltitudeMeters>
            <DistanceMeters>65073.387427094</DistanceMeters>
          </Trackpoint>
          <Trackpoint>
            <Time>2020-01-19T11:01:55.000Z</Time>
            <Position>
              <LatitudeDegrees>38.9484736137092113494873046875</LatitudeDegrees>
              <LongitudeDegrees>-2.86688807420432567596435546875</LongitudeDegrees>
            </Position>
            <AltitudeMeters>864.79998779296875</AltitudeMeters>
            <DistanceMeters>65083.840365674</DistanceMeters>
          </Trackpoint>
          <Trackpoint>
            <Time>2020-01-19T11:02:01.000Z</Time>
            <Position>
              <LatitudeDegrees>38.9483557641506195068359375</LatitudeDegrees>
              <LongitudeDegrees>-2.86689394153654575347900390625</LongitudeDegrees>
            </Position>
            <AltitudeMeters>864.5999755859375</AltitudeMeters>
            <DistanceMeters>65096.967129126</DistanceMeters>
          </Trackpoint>
          <Trackpoint>
            <Time>2020-01-19T11:02:05.000Z</Time>
            <Position>
              <LatitudeDegrees>38.94827135838568210601806640625</LatitudeDegrees>
              <LongitudeDegrees>-2.8669101186096668243408203125</LongitudeDegrees>
            </Position>
            <AltitudeMeters>864.20001220703125</AltitudeMeters>
            <DistanceMeters>65106.465048038</DistanceMeters>
          </Trackpoint>
          <Trackpoint>
            <Time>2020-01-19T11:02:09.000Z</Time>
            <Position>
              <LatitudeDegrees>38.94813909195363521575927734375</LatitudeDegrees>
              <LongitudeDegrees>-2.8669292293488979339599609375</LongitudeDegrees>
            </Position>
            <AltitudeMeters>863.5999755859375</AltitudeMeters>
            <DistanceMeters>65121.279161168</DistanceMeters>
          </Trackpoint>
          <Trackpoint>
            <Time>2020-01-19T11:02:11.000Z</Time>
            <Position>
              <LatitudeDegrees>38.948057033121585845947265625</LatitudeDegrees>
              <LongitudeDegrees>-2.86695127375423908233642578125</LongitudeDegrees>
            </Position>
            <AltitudeMeters>863.4000244140625</AltitudeMeters>
            <DistanceMeters>65130.609216737</DistanceMeters>
          </Trackpoint>
          <Trackpoint>
            <Time>2020-01-19T11:02:16.000Z</Time>
            <Position>
              <LatitudeDegrees>38.94778839312493801116943359375</LatitudeDegrees>
              <LongitudeDegrees>-2.86705755628645420074462890625</LongitudeDegrees>
            </Position>
            <AltitudeMeters>862.4000244140625</AltitudeMeters>
            <DistanceMeters>65161.892496052</DistanceMeters>
          </Trackpoint>
          <Trackpoint>
            <Time>2020-01-19T11:02:19.000Z</Time>
            <Position>
              <LatitudeDegrees>38.94759460352361202239990234375</LatitudeDegrees>
              <LongitudeDegrees>-2.86715210415422916412353515625</LongitudeDegrees>
            </Position>
            <AltitudeMeters>864.20001220703125</AltitudeMeters>
            <DistanceMeters>65184.962273802</DistanceMeters>
          </Trackpoint>
          <Trackpoint>
            <Time>2020-01-19T11:02:21.000Z</Time>
            <Position>
              <LatitudeDegrees>38.94745864905416965484619140625</LatitudeDegrees>
              <LongitudeDegrees>-2.86719552241265773773193359375</LongitudeDegrees>
            </Position>
            <AltitudeMeters>865.79998779296875</AltitudeMeters>
            <DistanceMeters>65200.554185745</DistanceMeters>
          </Trackpoint>
          <Trackpoint>
            <Time>2020-01-19T11:02:29.000Z</Time>
            <Position>
              <LatitudeDegrees>38.94720501266419887542724609375</LatitudeDegrees>
              <LongitudeDegrees>-2.86718957126140594482421875</LongitudeDegrees>
            </Position>
            <AltitudeMeters>868.20001220703125</AltitudeMeters>
            <DistanceMeters>65228.789115686</DistanceMeters>
          </Trackpoint>
          <Trackpoint>
            <Time>2020-01-19T11:02:30.000Z</Time>
            <Position>
              <LatitudeDegrees>38.947185985743999481201171875</LatitudeDegrees>
              <LongitudeDegrees>-2.8671934269368648529052734375</LongitudeDegrees>
            </Position>
            <AltitudeMeters>868.4000244140625</AltitudeMeters>
            <DistanceMeters>65230.930909055</DistanceMeters>
          </Trackpoint>
          <Trackpoint>
            <Time>2020-01-19T11:02:31.000Z</Time>
            <Position>
              <LatitudeDegrees>38.94716553390026092529296875</LatitudeDegrees>
              <LongitudeDegrees>-2.86719518713653087615966796875</LongitudeDegrees>
            </Position>
            <AltitudeMeters>868.5999755859375</AltitudeMeters>
            <DistanceMeters>65233.211550199</DistanceMeters>
          </Trackpoint>
          <Trackpoint>
            <Time>2020-01-19T11:02:36.000Z</Time>
            <Position>
              <LatitudeDegrees>38.9470674656331539154052734375</LatitudeDegrees>
              <LongitudeDegrees>-2.86719149909913539886474609375</LongitudeDegrees>
            </Position>
            <AltitudeMeters>869.20001220703125</AltitudeMeters>
            <DistanceMeters>65244.130942553</DistanceMeters>
          </Trackpoint>
          <Trackpoint>
            <Time>2020-01-19T11:02:41.000Z</Time>
            <Position>
              <LatitudeDegrees>38.94696545787155628204345703125</LatitudeDegrees>
              <LongitudeDegrees>-2.86720708943903446197509765625</LongitudeDegrees>
            </Position>
            <AltitudeMeters>870</AltitudeMeters>
            <DistanceMeters>65255.56420047</DistanceMeters>
          </Trackpoint>
          <Trackpoint>
            <Time>2020-01-19T11:02:46.000Z</Time>
            <Position>
              <LatitudeDegrees>38.94686521030962467193603515625</LatitudeDegrees>
              <LongitudeDegrees>-2.867214046418666839599609375</LongitudeDegrees>
            </Position>
            <AltitudeMeters>870.5999755859375</AltitudeMeters>
            <DistanceMeters>65266.738630973</DistanceMeters>
          </Trackpoint>
          <Trackpoint>
            <Time>2020-01-19T11:02:51.000Z</Time>
            <Position>
              <LatitudeDegrees>38.94677200354635715484619140625</LatitudeDegrees>
              <LongitudeDegrees>-2.86722737364470958709716796875</LongitudeDegrees>
            </Position>
            <AltitudeMeters>871</AltitudeMeters>
            <DistanceMeters>65277.176873276</DistanceMeters>
          </Trackpoint>
          <Trackpoint>
            <Time>2020-01-19T11:02:56.000Z</Time>
            <Position>
              <LatitudeDegrees>38.94667443819344043731689453125</LatitudeDegrees>
              <LongitudeDegrees>-2.86723743192851543426513671875</LongitudeDegrees>
            </Position>
            <AltitudeMeters>871.5999755859375</AltitudeMeters>
            <DistanceMeters>65288.07101366</DistanceMeters>
          </Trackpoint>
          <Trackpoint>
            <Time>2020-01-19T11:03:06.000Z</Time>
            <Position>
              <LatitudeDegrees>38.94651132635772228240966796875</LatitudeDegrees>
              <LongitudeDegrees>-2.86728638224303722381591796875</LongitudeDegrees>
            </Position>
            <AltitudeMeters>872.4000244140625</AltitudeMeters>
            <DistanceMeters>65306.713695392</DistanceMeters>
          </Trackpoint>
          <Trackpoint>
            <Time>2020-01-19T11:03:16.000Z</Time>
            <Position>
              <LatitudeDegrees>38.9463253319263458251953125</LatitudeDegrees>
              <LongitudeDegrees>-2.8673198260366916656494140625</LongitudeDegrees>
            </Position>
            <AltitudeMeters>873.4000244140625</AltitudeMeters>
            <DistanceMeters>65327.616764758</DistanceMeters>
          </Trackpoint>
          <Trackpoint>
            <Time>2020-01-19T11:03:26.000Z</Time>
            <Position>
              <LatitudeDegrees>38.94609742797911167144775390625</LatitudeDegrees>
              <LongitudeDegrees>-2.8673417866230010986328125</LongitudeDegrees>
            </Position>
            <AltitudeMeters>873.4000244140625</AltitudeMeters>
            <DistanceMeters>65353.054122279</DistanceMeters>
          </Trackpoint>
          <Trackpoint>
            <Time>2020-01-19T11:03:36.000Z</Time>
            <Position>
              <LatitudeDegrees>38.9458142034709453582763671875</LatitudeDegrees>
              <LongitudeDegrees>-2.867348492145538330078125</LongitudeDegrees>
            </Position>
            <AltitudeMeters>870.5999755859375</AltitudeMeters>
            <DistanceMeters>65384.582949331</DistanceMeters>
          </Trackpoint>
          <Trackpoint>
            <Time>2020-01-19T11:03:45.000Z</Time>
            <Position>
              <LatitudeDegrees>38.94551639445126056671142578125</LatitudeDegrees>
              <LongitudeDegrees>-2.867397107183933258056640625</LongitudeDegrees>
            </Position>
            <AltitudeMeters>868</AltitudeMeters>
            <DistanceMeters>65417.99561775</DistanceMeters>
          </Trackpoint>
          <Trackpoint>
            <Time>2020-01-19T11:03:46.000Z</Time>
            <Position>
              <LatitudeDegrees>38.94548722542822360992431640625</LatitudeDegrees>
              <LongitudeDegrees>-2.86740154959261417388916015625</LongitudeDegrees>
            </Position>
            <AltitudeMeters>867.79998779296875</AltitudeMeters>
            <DistanceMeters>65421.264039454</DistanceMeters>
          </Trackpoint>
          <Trackpoint>
            <Time>2020-01-19T11:03:51.000Z</Time>
            <Position>
              <LatitudeDegrees>38.94534699618816375732421875</LatitudeDegrees>
              <LongitudeDegrees>-2.8673731349408626556396484375</LongitudeDegrees>
            </Position>
            <AltitudeMeters>867.20001220703125</AltitudeMeters>
            <DistanceMeters>65437.06449905</DistanceMeters>
          </Trackpoint>
          <Trackpoint>
            <Time>2020-01-19T11:03:54.000Z</Time>
            <Position>
              <LatitudeDegrees>38.94523308612406253814697265625</LatitudeDegrees>
              <LongitudeDegrees>-2.86729090847074985504150390625</LongitudeDegrees>
            </Position>
            <AltitudeMeters>867.79998779296875</AltitudeMeters>
            <DistanceMeters>65451.604207425</DistanceMeters>
          </Trackpoint>
          <Trackpoint>
            <Time>2020-01-19T11:03:56.000Z</Time>
            <Position>
              <LatitudeDegrees>38.94515228457748889923095703125</LatitudeDegrees>
              <LongitudeDegrees>-2.86722251214087009429931640625</LongitudeDegrees>
            </Position>
            <AltitudeMeters>867</AltitudeMeters>
            <DistanceMeters>65462.371199641</DistanceMeters>
          </Trackpoint>
          <Trackpoint>
            <Time>2020-01-19T11:03:58.000Z</Time>
            <Position>
              <LatitudeDegrees>38.94507215358316898345947265625</LatitudeDegrees>
              <LongitudeDegrees>-2.867155373096466064453125</LongitudeDegrees>
            </Position>
            <AltitudeMeters>866.20001220703125</AltitudeMeters>
            <DistanceMeters>65473.016736705</DistanceMeters>
          </Trackpoint>
          <Trackpoint>
            <Time>2020-01-19T11:04:00.000Z</Time>
            <Position>
              <LatitudeDegrees>38.945001661777496337890625</LatitudeDegrees>
              <LongitudeDegrees>-2.8670884855091571807861328125</LongitudeDegrees>
            </Position>
            <AltitudeMeters>865.5999755859375</AltitudeMeters>
            <DistanceMeters>65482.767977906</DistanceMeters>
          </Trackpoint>
          <Trackpoint>
            <Time>2020-01-19T11:04:06.000Z</Time>
            <Position>
              <LatitudeDegrees>38.9448127336800098419189453125</LatitudeDegrees>
              <LongitudeDegrees>-2.86692797206342220306396484375</LongitudeDegrees>
            </Position>
            <AltitudeMeters>868.5999755859375</AltitudeMeters>
            <DistanceMeters>65507.972100935</DistanceMeters>
          </Trackpoint>
          <Trackpoint>
            <Time>2020-01-19T11:04:16.000Z</Time>
            <Position>
              <LatitudeDegrees>38.9444908685982227325439453125</LatitudeDegrees>
              <LongitudeDegrees>-2.86678883247077465057373046875</LongitudeDegrees>
            </Position>
            <AltitudeMeters>874.79998779296875</AltitudeMeters>
            <DistanceMeters>65545.766938314</DistanceMeters>
          </Trackpoint>
          <Trackpoint>
            <Time>2020-01-19T11:04:23.000Z</Time>
            <Position>
              <LatitudeDegrees>38.94430403597652912139892578125</LatitudeDegrees>
              <LongitudeDegrees>-2.866576015949249267578125</LongitudeDegrees>
            </Position>
            <AltitudeMeters>876</AltitudeMeters>
            <DistanceMeters>65573.548563425</DistanceMeters>
          </Trackpoint>
          <Trackpoint>
            <Time>2020-01-19T11:04:26.000Z</Time>
            <Position>
              <LatitudeDegrees>38.94420060329139232635498046875</LatitudeDegrees>
              <LongitudeDegrees>-2.8665451705455780029296875</LongitudeDegrees>
            </Position>
            <AltitudeMeters>876</AltitudeMeters>
            <DistanceMeters>65585.366311192</DistanceMeters>
          </Trackpoint>
          <Trackpoint>
            <Time>2020-01-19T11:04:33.000Z</Time>
            <Position>
              <LatitudeDegrees>38.94396591000258922576904296875</LatitudeDegrees>
              <LongitudeDegrees>-2.86646763794124126434326171875</LongitudeDegrees>
            </Position>
            <AltitudeMeters>875.79998779296875</AltitudeMeters>
            <DistanceMeters>65612.336828018</DistanceMeters>
          </Trackpoint>
          <Trackpoint>
            <Time>2020-01-19T11:04:36.000Z</Time>
            <Position>
              <LatitudeDegrees>38.9438696019351482391357421875</LatitudeDegrees>
              <LongitudeDegrees>-2.8664041869342327117919921875</LongitudeDegrees>
            </Position>
            <AltitudeMeters>875.79998779296875</AltitudeMeters>
            <DistanceMeters>65624.381628064</DistanceMeters>
          </Trackpoint>
          <Trackpoint>
            <Time>2020-01-19T11:04:46.000Z</Time>
            <Position>
              <LatitudeDegrees>38.94355368800461292266845703125</LatitudeDegrees>
              <LongitudeDegrees>-2.86616890691220760345458984375</LongitudeDegrees>
            </Position>
            <AltitudeMeters>880.4000244140625</AltitudeMeters>
            <DistanceMeters>65665.016411171</DistanceMeters>
          </Trackpoint>
          <Trackpoint>
            <Time>2020-01-19T11:04:56.000Z</Time>
            <Position>
              <LatitudeDegrees>38.94324003718793392181396484375</LatitudeDegrees>
              <LongitudeDegrees>-2.8659953176975250244140625</LongitudeDegrees>
            </Position>
            <AltitudeMeters>882.20001220703125</AltitudeMeters>
            <DistanceMeters>65703.02329566</DistanceMeters>
          </Trackpoint>
          <Trackpoint>
            <Time>2020-01-19T11:05:06.000Z</Time>
            <Position>
              <LatitudeDegrees>38.94291901029646396636962890625</LatitudeDegrees>
              <LongitudeDegrees>-2.86581468768417835235595703125</LongitudeDegrees>
            </Position>
            <AltitudeMeters>883.5999755859375</AltitudeMeters>
            <DistanceMeters>65742.025945285</DistanceMeters>
          </Trackpoint>
          <Trackpoint>
            <Time>2020-01-19T11:05:16.000Z</Time>
            <Position>
              <LatitudeDegrees>38.94262178801000118255615234375</LatitudeDegrees>
              <LongitudeDegrees>-2.86561385728418827056884765625</LongitudeDegrees>
            </Position>
            <AltitudeMeters>884.4000244140625</AltitudeMeters>
            <DistanceMeters>65779.39754912</DistanceMeters>
          </Trackpoint>
          <Trackpoint>
            <Time>2020-01-19T11:05:23.000Z</Time>
            <Position>
              <LatitudeDegrees>38.94241475500166416168212890625</LatitudeDegrees>
              <LongitudeDegrees>-2.86546968854963779449462890625</LongitudeDegrees>
            </Position>
            <AltitudeMeters>882.4000244140625</AltitudeMeters>
            <DistanceMeters>65805.603567011</DistanceMeters>
          </Trackpoint>
          <Trackpoint>
            <Time>2020-01-19T11:05:26.000Z</Time>
            <Position>
              <LatitudeDegrees>38.942325823009014129638671875</LatitudeDegrees>
              <LongitudeDegrees>-2.865416966378688812255859375</LongitudeDegrees>
            </Position>
            <AltitudeMeters>882.4000244140625</AltitudeMeters>
            <DistanceMeters>65816.503093868</DistanceMeters>
          </Trackpoint>
          <Trackpoint>
            <Time>2020-01-19T11:05:35.000Z</Time>
            <Position>
              <LatitudeDegrees>38.94205399788916110992431640625</LatitudeDegrees>
              <LongitudeDegrees>-2.86521957255899906158447265625</LongitudeDegrees>
            </Position>
            <AltitudeMeters>886.20001220703125</AltitudeMeters>
            <DistanceMeters>65851.250011872</DistanceMeters>
          </Trackpoint>
          <Trackpoint>
            <Time>2020-01-19T11:05:36.000Z</Time>
            <Position>
              <LatitudeDegrees>38.9420259185135364532470703125</LatitudeDegrees>
              <LongitudeDegrees>-2.8651968576014041900634765625</LongitudeDegrees>
            </Position>
            <AltitudeMeters>886.5999755859375</AltitudeMeters>
            <DistanceMeters>65854.942628211</DistanceMeters>
          </Trackpoint>
          <Trackpoint>
            <Time>2020-01-19T11:05:46.000Z</Time>
            <Position>
              <LatitudeDegrees>38.94173917360603809356689453125</LatitudeDegrees>
              <LongitudeDegrees>-2.86499476991593837738037109375</LongitudeDegrees>
            </Position>
            <AltitudeMeters>890.5999755859375</AltitudeMeters>
            <DistanceMeters>65891.338231981</DistanceMeters>
          </Trackpoint>
          <Trackpoint>
            <Time>2020-01-19T11:05:56.000Z</Time>
            <Position>
              <LatitudeDegrees>38.94146449863910675048828125</LatitudeDegrees>
              <LongitudeDegrees>-2.86482646130025386810302734375</LongitudeDegrees>
            </Position>
            <AltitudeMeters>893.5999755859375</AltitudeMeters>
            <DistanceMeters>65925.204825099</DistanceMeters>
          </Trackpoint>
          <Trackpoint>
            <Time>2020-01-19T11:06:06.000Z</Time>
            <Position>
              <LatitudeDegrees>38.94122955389320850372314453125</LatitudeDegrees>
              <LongitudeDegrees>-2.8645953722298145294189453125</LongitudeDegrees>
            </Position>
            <AltitudeMeters>896.5999755859375</AltitudeMeters>
            <DistanceMeters>65958.129353293</DistanceMeters>
          </Trackpoint>
          <Trackpoint>
            <Time>2020-01-19T11:06:16.000Z</Time>
            <Position>
              <LatitudeDegrees>38.9409724809229373931884765625</LatitudeDegrees>
              <LongitudeDegrees>-2.8643643669784069061279296875</LongitudeDegrees>
            </Position>
            <AltitudeMeters>899.79998779296875</AltitudeMeters>
            <DistanceMeters>65993.037931266</DistanceMeters>
          </Trackpoint>
          <Trackpoint>
            <Time>2020-01-19T11:06:26.000Z</Time>
            <Position>
              <LatitudeDegrees>38.94070786423981189727783203125</LatitudeDegrees>
              <LongitudeDegrees>-2.8641526401042938232421875</LongitudeDegrees>
            </Position>
            <AltitudeMeters>900.79998779296875</AltitudeMeters>
            <DistanceMeters>66027.728018718</DistanceMeters>
          </Trackpoint>
          <Trackpoint>
            <Time>2020-01-19T11:06:35.000Z</Time>
            <Position>
              <LatitudeDegrees>38.94048004411160945892333984375</LatitudeDegrees>
              <LongitudeDegrees>-2.86395910196006298065185546875</LongitudeDegrees>
            </Position>
            <AltitudeMeters>901.4000244140625</AltitudeMeters>
            <DistanceMeters>66058.120230211</DistanceMeters>
          </Trackpoint>
          <Trackpoint>
            <Time>2020-01-19T11:06:40.000Z</Time>
            <Position>
              <LatitudeDegrees>38.9403602667152881622314453125</LatitudeDegrees>
              <LongitudeDegrees>-2.86384209059178829193115234375</LongitudeDegrees>
            </Position>
            <AltitudeMeters>901.79998779296875</AltitudeMeters>
            <DistanceMeters>66074.86327931</DistanceMeters>
          </Trackpoint>
          <Trackpoint>
            <Time>2020-01-19T11:06:50.000Z</Time>
            <Position>
              <LatitudeDegrees>38.9401222206652164459228515625</LatitudeDegrees>
              <LongitudeDegrees>-2.86360588856041431427001953125</LongitudeDegrees>
            </Position>
            <AltitudeMeters>902.20001220703125</AltitudeMeters>
            <DistanceMeters>66108.33130498</DistanceMeters>
          </Trackpoint>
          <Trackpoint>
            <Time>2020-01-19T11:07:00.000Z</Time>
            <Position>
              <LatitudeDegrees>38.93985877744853496551513671875</LatitudeDegrees>
              <LongitudeDegrees>-2.8633803315460681915283203125</LongitudeDegrees>
            </Position>
            <AltitudeMeters>902.4000244140625</AltitudeMeters>
            <DistanceMeters>66143.559952217</DistanceMeters>
          </Trackpoint>
          <Trackpoint>
            <Time>2020-01-19T11:07:10.000Z</Time>
            <Position>
              <LatitudeDegrees>38.93980060704052448272705078125</LatitudeDegrees>
              <LongitudeDegrees>-2.86303759552538394927978515625</LongitudeDegrees>
            </Position>
            <AltitudeMeters>902.5999755859375</AltitudeMeters>
            <DistanceMeters>66173.929276999</DistanceMeters>
          </Trackpoint>
          <Trackpoint>
            <Time>2020-01-19T11:07:20.000Z</Time>
            <Position>
              <LatitudeDegrees>38.94000998698174953460693359375</LatitudeDegrees>
              <LongitudeDegrees>-2.8627493418753147125244140625</LongitudeDegrees>
            </Position>
            <AltitudeMeters>902.20001220703125</AltitudeMeters>
            <DistanceMeters>66208.07336857</DistanceMeters>
          </Trackpoint>
          <Trackpoint>
            <Time>2020-01-19T11:07:28.000Z</Time>
            <Position>
              <LatitudeDegrees>38.9402402378618717193603515625</LatitudeDegrees>
              <LongitudeDegrees>-2.86259050481021404266357421875</LongitudeDegrees>
            </Position>
            <AltitudeMeters>902</AltitudeMeters>
            <DistanceMeters>66237.15651146</DistanceMeters>
          </Trackpoint>
          <Trackpoint>
            <Time>2020-01-19T11:07:30.000Z</Time>
            <Position>
              <LatitudeDegrees>38.9403103105723857879638671875</LatitudeDegrees>
              <LongitudeDegrees>-2.86256016232073307037353515625</LongitudeDegrees>
            </Position>
            <AltitudeMeters>901.79998779296875</AltitudeMeters>
            <DistanceMeters>66245.386066328</DistanceMeters>
          </Trackpoint>
          <Trackpoint>
            <Time>2020-01-19T11:07:32.000Z</Time>
            <Position>
              <LatitudeDegrees>38.940387926995754241943359375</LatitudeDegrees>
              <LongitudeDegrees>-2.86253484897315502166748046875</LongitudeDegrees>
            </Position>
            <AltitudeMeters>901.5999755859375</AltitudeMeters>
            <DistanceMeters>66254.298336095</DistanceMeters>
          </Trackpoint>
          <Trackpoint>
            <Time>2020-01-19T11:07:33.000Z</Time>
            <Position>
              <LatitudeDegrees>38.9404286630451679229736328125</LatitudeDegrees>
              <LongitudeDegrees>-2.8625237010419368743896484375</LongitudeDegrees>
            </Position>
            <AltitudeMeters>901.5999755859375</AltitudeMeters>
            <DistanceMeters>66258.934237511</DistanceMeters>
          </Trackpoint>
          <Trackpoint>
            <Time>2020-01-19T11:07:37.000Z</Time>
            <Position>
              <LatitudeDegrees>38.9406036771833896636962890625</LatitudeDegrees>
              <LongitudeDegrees>-2.86248506046831607818603515625</LongitudeDegrees>
            </Position>
            <AltitudeMeters>901.20001220703125</AltitudeMeters>
            <DistanceMeters>66278.69888036</DistanceMeters>
          </Trackpoint>
          <Trackpoint>
            <Time>2020-01-19T11:07:38.000Z</Time>
            <Position>
              <LatitudeDegrees>38.9406482689082622528076171875</LatitudeDegrees>
              <LongitudeDegrees>-2.8624700568616390228271484375</LongitudeDegrees>
            </Position>
            <AltitudeMeters>901</AltitudeMeters>
            <DistanceMeters>66283.829442984</DistanceMeters>
          </Trackpoint>
          <Trackpoint>
            <Time>2020-01-19T11:07:40.000Z</Time>
            <Position>
              <LatitudeDegrees>38.9407329261302947998046875</LatitudeDegrees>
              <LongitudeDegrees>-2.86242186091840267181396484375</LongitudeDegrees>
            </Position>
            <AltitudeMeters>900.79998779296875</AltitudeMeters>
            <DistanceMeters>66294.134475685</DistanceMeters>
          </Trackpoint>
          <Trackpoint>
            <Time>2020-01-19T11:07:43.000Z</Time>
            <Position>
              <LatitudeDegrees>38.94084851257503032684326171875</LatitudeDegrees>
              <LongitudeDegrees>-2.86233401857316493988037109375</LongitudeDegrees>
            </Position>
            <AltitudeMeters>900.5999755859375</AltitudeMeters>
            <DistanceMeters>66309.079371495</DistanceMeters>
          </Trackpoint>
          <Trackpoint>
            <Time>2020-01-19T11:07:44.000Z</Time>
            <Position>
              <LatitudeDegrees>38.94088782370090484619140625</LatitudeDegrees>
              <LongitudeDegrees>-2.86230937577784061431884765625</LongitudeDegrees>
            </Position>
            <AltitudeMeters>900.4000244140625</AltitudeMeters>
            <DistanceMeters>66313.947114359</DistanceMeters>
          </Trackpoint>
          <Trackpoint>
            <Time>2020-01-19T11:07:46.000Z</Time>
            <Position>
              <LatitudeDegrees>38.9409617520868778228759765625</LatitudeDegrees>
              <LongitudeDegrees>-2.8623000718653202056884765625</LongitudeDegrees>
            </Position>
            <AltitudeMeters>900.20001220703125</AltitudeMeters>
            <DistanceMeters>66322.214984622</DistanceMeters>
          </Trackpoint>
          <Trackpoint>
            <Time>2020-01-19T11:07:48.000Z</Time>
            <Position>
              <LatitudeDegrees>38.94100491888821125030517578125</LatitudeDegrees>
              <LongitudeDegrees>-2.862346172332763671875</LongitudeDegrees>
            </Position>
            <AltitudeMeters>900.20001220703125</AltitudeMeters>
            <DistanceMeters>66328.460777625</DistanceMeters>
          </Trackpoint>
          <Trackpoint>
            <Time>2020-01-19T11:07:50.000Z</Time>
            <Position>
              <LatitudeDegrees>38.94103777594864368438720703125</LatitudeDegrees>
              <LongitudeDegrees>-2.862385399639606475830078125</LongitudeDegrees>
            </Position>
            <AltitudeMeters>900</AltitudeMeters>
            <DistanceMeters>66333.451263656</DistanceMeters>
          </Trackpoint>
          <Trackpoint>
            <Time>2020-01-19T11:07:54.000Z</Time>
            <Position>
              <LatitudeDegrees>38.941114805638790130615234375</LatitudeDegrees>
              <LongitudeDegrees>-2.8624851442873477935791015625</LongitudeDegrees>
            </Position>
            <AltitudeMeters>900.20001220703125</AltitudeMeters>
            <DistanceMeters>66345.619136658</DistanceMeters>
          </Trackpoint>
          <Trackpoint>
            <Time>2020-01-19T11:07:59.000Z</Time>
            <Position>
              <LatitudeDegrees>38.94127816893160343170166015625</LatitudeDegrees>
              <LongitudeDegrees>-2.86268354393541812896728515625</LongitudeDegrees>
            </Position>
            <AltitudeMeters>899.79998779296875</AltitudeMeters>
            <DistanceMeters>66370.631207664</DistanceMeters>
          </Trackpoint>
          <Trackpoint>
            <Time>2020-01-19T11:08:00.000Z</Time>
            <Position>
              <LatitudeDegrees>38.9413101039826869964599609375</LatitudeDegrees>
              <LongitudeDegrees>-2.8627362661063671112060546875</LongitudeDegrees>
            </Position>
            <AltitudeMeters>899.79998779296875</AltitudeMeters>
            <DistanceMeters>66376.41614183</DistanceMeters>
          </Trackpoint>
          <Trackpoint>
            <Time>2020-01-19T11:08:01.000Z</Time>
            <Position>
              <LatitudeDegrees>38.94134723581373691558837890625</LatitudeDegrees>
              <LongitudeDegrees>-2.862790413200855255126953125</LongitudeDegrees>
            </Position>
            <AltitudeMeters>899.5999755859375</AltitudeMeters>
            <DistanceMeters>66382.664825735</DistanceMeters>
          </Trackpoint>
          <Trackpoint>
            <Time>2020-01-19T11:08:03.000Z</Time>
            <Position>
              <LatitudeDegrees>38.94142292439937591552734375</LatitudeDegrees>
              <LongitudeDegrees>-2.86288655363023281097412109375</LongitudeDegrees>
            </Position>
            <AltitudeMeters>899.5999755859375</AltitudeMeters>
            <DistanceMeters>66394.506999825</DistanceMeters>
          </Trackpoint>
          <Trackpoint>
            <Time>2020-01-19T11:08:05.000Z</Time>
            <Position>
              <LatitudeDegrees>38.94148637540638446807861328125</LatitudeDegrees>
              <LongitudeDegrees>-2.8630078397691249847412109375</LongitudeDegrees>
            </Position>
            <AltitudeMeters>899.4000244140625</AltitudeMeters>
            <DistanceMeters>66407.160904973</DistanceMeters>
          </Trackpoint>
          <Trackpoint>
            <Time>2020-01-19T11:08:07.000Z</Time>
            <Position>
              <LatitudeDegrees>38.9415608905255794525146484375</LatitudeDegrees>
              <LongitudeDegrees>-2.86313935182988643646240234375</LongitudeDegrees>
            </Position>
            <AltitudeMeters>898.5999755859375</AltitudeMeters>
            <DistanceMeters>66421.246672245</DistanceMeters>
          </Trackpoint>
          <Trackpoint>
            <Time>2020-01-19T11:08:09.000Z</Time>
            <Position>
              <LatitudeDegrees>38.94164613448083400726318359375</LatitudeDegrees>
              <LongitudeDegrees>-2.86326910369098186492919921875</LongitudeDegrees>
            </Position>
            <AltitudeMeters>897.5999755859375</AltitudeMeters>
            <DistanceMeters>66435.950041251</DistanceMeters>
          </Trackpoint>
          <Trackpoint>
            <Time>2020-01-19T11:08:10.000Z</Time>
            <Position>
              <LatitudeDegrees>38.94169156439602375030517578125</LatitudeDegrees>
              <LongitudeDegrees>-2.86332727409899234771728515625</LongitudeDegrees>
            </Position>
            <AltitudeMeters>897.20001220703125</AltitudeMeters>
            <DistanceMeters>66443.086541174</DistanceMeters>
          </Trackpoint>
          <Trackpoint>
            <Time>2020-01-19T11:08:11.000Z</Time>
            <Position>
              <LatitudeDegrees>38.94173146225512027740478515625</LatitudeDegrees>
              <LongitudeDegrees>-2.86338896490633487701416015625</LongitudeDegrees>
            </Position>
            <AltitudeMeters>896.79998779296875</AltitudeMeters>
            <DistanceMeters>66450.031947452</DistanceMeters>
          </Trackpoint>
          <Trackpoint>
            <Time>2020-01-19T11:08:13.000Z</Time>
            <Position>
              <LatitudeDegrees>38.9418089948594570159912109375</LatitudeDegrees>
              <LongitudeDegrees>-2.8635204769670963287353515625</LongitudeDegrees>
            </Position>
            <AltitudeMeters>896.4000244140625</AltitudeMeters>
            <DistanceMeters>66464.318227156</DistanceMeters>
          </Trackpoint>
          <Trackpoint>
            <Time>2020-01-19T11:08:15.000Z</Time>
            <Position>
              <LatitudeDegrees>38.941899351775646209716796875</LatitudeDegrees>
              <LongitudeDegrees>-2.86361695267260074615478515625</LongitudeDegrees>
            </Position>
            <AltitudeMeters>895.5999755859375</AltitudeMeters>
            <DistanceMeters>66477.39087787</DistanceMeters>
          </Trackpoint>
          <Trackpoint>
            <Time>2020-01-19T11:08:18.000Z</Time>
            <Position>
              <LatitudeDegrees>38.94198057241737842559814453125</LatitudeDegrees>
              <LongitudeDegrees>-2.86376430653035640716552734375</LongitudeDegrees>
            </Position>
            <AltitudeMeters>894.79998779296875</AltitudeMeters>
            <DistanceMeters>66493.025588272</DistanceMeters>
          </Trackpoint>
          <Trackpoint>
            <Time>2020-01-19T11:08:20.000Z</Time>
            <Position>
              <LatitudeDegrees>38.94201762042939662933349609375</LatitudeDegrees>
              <LongitudeDegrees>-2.86386002786457538604736328125</LongitudeDegrees>
            </Position>
            <AltitudeMeters>894.4000244140625</AltitudeMeters>
            <DistanceMeters>66502.281795124</DistanceMeters>
          </Trackpoint>
          <Trackpoint>
            <Time>2020-01-19T11:08:22.000Z</Time>
            <Position>
              <LatitudeDegrees>38.9420527406036853790283203125</LatitudeDegrees>
              <LongitudeDegrees>-2.863927669823169708251953125</LongitudeDegrees>
            </Position>
            <AltitudeMeters>894</AltitudeMeters>
            <DistanceMeters>66509.322755263</DistanceMeters>
          </Trackpoint>
          <Trackpoint>
            <Time>2020-01-19T11:08:30.000Z</Time>
            <Position>
              <LatitudeDegrees>38.94229388795793056488037109375</LatitudeDegrees>
              <LongitudeDegrees>-2.86401517689228057861328125</LongitudeDegrees>
            </Position>
            <AltitudeMeters>892.20001220703125</AltitudeMeters>
            <DistanceMeters>66537.211436556</DistanceMeters>
          </Trackpoint>
          <Trackpoint>
            <Time>2020-01-19T11:08:32.000Z</Time>
            <Position>
              <LatitudeDegrees>38.9423675648868083953857421875</LatitudeDegrees>
              <LongitudeDegrees>-2.8640502132475376129150390625</LongitudeDegrees>
            </Position>
            <AltitudeMeters>891.5999755859375</AltitudeMeters>
            <DistanceMeters>66545.954927117</DistanceMeters>
          </Trackpoint>
          <Trackpoint>
            <Time>2020-01-19T11:08:34.000Z</Time>
            <Position>
              <LatitudeDegrees>38.942453563213348388671875</LatitudeDegrees>
              <LongitudeDegrees>-2.86407829262316226959228515625</LongitudeDegrees>
            </Position>
            <AltitudeMeters>890.79998779296875</AltitudeMeters>
            <DistanceMeters>66555.830392958</DistanceMeters>
          </Trackpoint>
          <Trackpoint>
            <Time>2020-01-19T11:08:40.000Z</Time>
            <Position>
              <LatitudeDegrees>38.94264911301434040069580078125</LatitudeDegrees>
              <LongitudeDegrees>-2.86413042806088924407958984375</LongitudeDegrees>
            </Position>
            <AltitudeMeters>889.20001220703125</AltitudeMeters>
            <DistanceMeters>66578.058520696</DistanceMeters>
          </Trackpoint>
          <Trackpoint>
            <Time>2020-01-19T11:08:48.000Z</Time>
            <Position>
              <LatitudeDegrees>38.9428379572927951812744140625</LatitudeDegrees>
              <LongitudeDegrees>-2.8641360439360141754150390625</LongitudeDegrees>
            </Position>
            <AltitudeMeters>888.4000244140625</AltitudeMeters>
            <DistanceMeters>66599.082845701</DistanceMeters>
          </Trackpoint>
          <Trackpoint>
            <Time>2020-01-19T11:08:50.000Z</Time>
            <Position>
              <LatitudeDegrees>38.94288682378828525543212890625</LatitudeDegrees>
              <LongitudeDegrees>-2.86415775306522846221923828125</LongitudeDegrees>
            </Position>
            <AltitudeMeters>887.79998779296875</AltitudeMeters>
            <DistanceMeters>66604.838045124</DistanceMeters>
          </Trackpoint>
          <Trackpoint>
            <Time>2020-01-19T11:08:55.000Z</Time>
            <Position>
              <LatitudeDegrees>38.9429405517876148223876953125</LatitudeDegrees>
              <LongitudeDegrees>-2.86418960429728031158447265625</LongitudeDegrees>
            </Position>
            <AltitudeMeters>887</AltitudeMeters>
            <DistanceMeters>66611.423060468</DistanceMeters>
          </Trackpoint>
          <Trackpoint>
            <Time>2020-01-19T11:09:54.000Z</Time>
            <Position>
              <LatitudeDegrees>38.9430260471999645233154296875</LatitudeDegrees>
              <LongitudeDegrees>-2.86428448744118213653564453125</LongitudeDegrees>
            </Position>
            <AltitudeMeters>885.79998779296875</AltitudeMeters>
            <DistanceMeters>66623.99319482</DistanceMeters>
          </Trackpoint>
          <Trackpoint>
            <Time>2020-01-19T11:09:57.000Z</Time>
            <Position>
              <LatitudeDegrees>38.9431055076420307159423828125</LatitudeDegrees>
              <LongitudeDegrees>-2.86434148438274860382080078125</LongitudeDegrees>
            </Position>
            <AltitudeMeters>885.20001220703125</AltitudeMeters>
            <DistanceMeters>66634.120564086</DistanceMeters>
          </Trackpoint>
          <Trackpoint>
            <Time>2020-01-19T11:10:00.000Z</Time>
            <Position>
              <LatitudeDegrees>38.9432275481522083282470703125</LatitudeDegrees>
              <LongitudeDegrees>-2.864435277879238128662109375</LongitudeDegrees>
            </Position>
            <AltitudeMeters>884.20001220703125</AltitudeMeters>
            <DistanceMeters>66649.945864718</DistanceMeters>
          </Trackpoint>
          <Trackpoint>
            <Time>2020-01-19T11:10:01.000Z</Time>
            <Position>
              <LatitudeDegrees>38.94326635636389255523681640625</LatitudeDegrees>
              <LongitudeDegrees>-2.8644729964435100555419921875</LongitudeDegrees>
            </Position>
            <AltitudeMeters>884</AltitudeMeters>
            <DistanceMeters>66655.360720045</DistanceMeters>
          </Trackpoint>
          <Trackpoint>
            <Time>2020-01-19T11:10:03.000Z</Time>
            <Position>
              <LatitudeDegrees>38.9433143846690654754638671875</LatitudeDegrees>
              <LongitudeDegrees>-2.86457500420510768890380859375</LongitudeDegrees>
            </Position>
            <AltitudeMeters>882.79998779296875</AltitudeMeters>
            <DistanceMeters>66665.683263435</DistanceMeters>
          </Trackpoint>
          <Trackpoint>
            <Time>2020-01-19T11:10:05.000Z</Time>
            <Position>
              <LatitudeDegrees>38.9433844573795795440673828125</LatitudeDegrees>
              <LongitudeDegrees>-2.86468531005084514617919921875</LongitudeDegrees>
            </Position>
            <AltitudeMeters>880.79998779296875</AltitudeMeters>
            <DistanceMeters>66678.01259054</DistanceMeters>
          </Trackpoint>
          <Trackpoint>
            <Time>2020-01-19T11:10:07.000Z</Time>
            <Position>
              <LatitudeDegrees>38.94346098415553569793701171875</LatitudeDegrees>
              <LongitudeDegrees>-2.86479611881077289581298828125</LongitudeDegrees>
            </Position>
            <AltitudeMeters>878.79998779296875</AltitudeMeters>
            <DistanceMeters>66690.840845024</DistanceMeters>
          </Trackpoint>
          <Trackpoint>
            <Time>2020-01-19T11:10:10.000Z</Time>
            <Position>
              <LatitudeDegrees>38.94357648678123950958251953125</LatitudeDegrees>
              <LongitudeDegrees>-2.86492721177637577056884765625</LongitudeDegrees>
            </Position>
            <AltitudeMeters>876.20001220703125</AltitudeMeters>
            <DistanceMeters>66707.988625617</DistanceMeters>
          </Trackpoint>
          <Trackpoint>
            <Time>2020-01-19T11:10:14.000Z</Time>
            <Position>
              <LatitudeDegrees>38.9437405206263065338134765625</LatitudeDegrees>
              <LongitudeDegrees>-2.8649921715259552001953125</LongitudeDegrees>
            </Position>
            <AltitudeMeters>874.20001220703125</AltitudeMeters>
            <DistanceMeters>66727.092304306</DistanceMeters>
          </Trackpoint>
          <Trackpoint>
            <Time>2020-01-19T11:10:16.000Z</Time>
            <Position>
              <LatitudeDegrees>38.94382442347705364227294921875</LatitudeDegrees>
              <LongitudeDegrees>-2.865015976130962371826171875</LongitudeDegrees>
            </Position>
            <AltitudeMeters>872.79998779296875</AltitudeMeters>
            <DistanceMeters>66736.655599462</DistanceMeters>
          </Trackpoint>
          <Trackpoint>
            <Time>2020-01-19T11:10:18.000Z</Time>
            <Position>
              <LatitudeDegrees>38.94390807487070560455322265625</LatitudeDegrees>
              <LongitudeDegrees>-2.8650726377964019775390625</LongitudeDegrees>
            </Position>
            <AltitudeMeters>871</AltitudeMeters>
            <DistanceMeters>66747.179137721</DistanceMeters>
          </Trackpoint>
          <Trackpoint>
            <Time>2020-01-19T11:10:20.000Z</Time>
            <Position>
              <LatitudeDegrees>38.9439960010349750518798828125</LatitudeDegrees>
              <LongitudeDegrees>-2.8651395253837108612060546875</LongitudeDegrees>
            </Position>
            <AltitudeMeters>870.5999755859375</AltitudeMeters>
            <DistanceMeters>66758.550623758</DistanceMeters>
          </Trackpoint>
          <Trackpoint>
            <Time>2020-01-19T11:10:21.000Z</Time>
            <Position>
              <LatitudeDegrees>38.94404453225433826446533203125</LatitudeDegrees>
              <LongitudeDegrees>-2.86518135108053684234619140625</LongitudeDegrees>
            </Position>
            <AltitudeMeters>870.20001220703125</AltitudeMeters>
            <DistanceMeters>66765.05353449</DistanceMeters>
          </Trackpoint>
          <Trackpoint>
            <Time>2020-01-19T11:10:23.000Z</Time>
            <Position>
              <LatitudeDegrees>38.944159112870693206787109375</LatitudeDegrees>
              <LongitudeDegrees>-2.86524706520140171051025390625</LongitudeDegrees>
            </Position>
            <AltitudeMeters>869.4000244140625</AltitudeMeters>
            <DistanceMeters>66779.017612359</DistanceMeters>
          </Trackpoint>
          <Trackpoint>
            <Time>2020-01-19T11:10:26.000Z</Time>
            <Position>
              <LatitudeDegrees>38.94434946589171886444091796875</LatitudeDegrees>
              <LongitudeDegrees>-2.86532652564346790313720703125</LongitudeDegrees>
            </Position>
            <AltitudeMeters>867.4000244140625</AltitudeMeters>
            <DistanceMeters>66801.293220108</DistanceMeters>
          </Trackpoint>
          <Trackpoint>
            <Time>2020-01-19T11:10:27.000Z</Time>
            <Position>
              <LatitudeDegrees>38.94441752694547176361083984375</LatitudeDegrees>
              <LongitudeDegrees>-2.86535267718136310577392578125</LongitudeDegrees>
            </Position>
            <AltitudeMeters>866.79998779296875</AltitudeMeters>
            <DistanceMeters>66809.199876748</DistanceMeters>
          </Trackpoint>
          <Trackpoint>
            <Time>2020-01-19T11:10:30.000Z</Time>
            <Position>
              <LatitudeDegrees>38.944617770612239837646484375</LatitudeDegrees>
              <LongitudeDegrees>-2.86538586951792240142822265625</LongitudeDegrees>
            </Position>
            <AltitudeMeters>866.20001220703125</AltitudeMeters>
            <DistanceMeters>66831.672037193</DistanceMeters>
          </Trackpoint>
          <Trackpoint>
            <Time>2020-01-19T11:10:31.000Z</Time>
            <Position>
              <LatitudeDegrees>38.94468641839921474456787109375</LatitudeDegrees>
              <LongitudeDegrees>-2.86540783010423183441162109375</LongitudeDegrees>
            </Position>
            <AltitudeMeters>866</AltitudeMeters>
            <DistanceMeters>66839.544930226</DistanceMeters>
          </Trackpoint>
          <Trackpoint>
            <Time>2020-01-19T11:10:33.000Z</Time>
            <Position>
              <LatitudeDegrees>38.94481751136481761932373046875</LatitudeDegrees>
              <LongitudeDegrees>-2.86547119729220867156982421875</LongitudeDegrees>
            </Position>
            <AltitudeMeters>866</AltitudeMeters>
            <DistanceMeters>66855.132787582</DistanceMeters>
          </Trackpoint>
          <Trackpoint>
            <Time>2020-01-19T11:10:34.000Z</Time>
            <Position>
              <LatitudeDegrees>38.944887332618236541748046875</LatitudeDegrees>
              <LongitudeDegrees>-2.86549399606883525848388671875</LongitudeDegrees>
            </Position>
            <AltitudeMeters>864.79998779296875</AltitudeMeters>
            <DistanceMeters>66863.150587418</DistanceMeters>
          </Trackpoint>
          <Trackpoint>
            <Time>2020-01-19T11:10:36.000Z</Time>
            <Position>
              <LatitudeDegrees>38.94501565955579280853271484375</LatitudeDegrees>
              <LongitudeDegrees>-2.86552660167217254638671875</LongitudeDegrees>
            </Position>
            <AltitudeMeters>862.4000244140625</AltitudeMeters>
            <DistanceMeters>66877.709846136</DistanceMeters>
          </Trackpoint>
          <Trackpoint>
            <Time>2020-01-19T11:10:38.000Z</Time>
            <Position>
              <LatitudeDegrees>38.94513116218149662017822265625</LatitudeDegrees>
              <LongitudeDegrees>-2.86557060666382312774658203125</LongitudeDegrees>
            </Position>
            <AltitudeMeters>860.20001220703125</AltitudeMeters>
            <DistanceMeters>66891.117708078</DistanceMeters>
          </Trackpoint>
          <Trackpoint>
            <Time>2020-01-19T11:10:40.000Z</Time>
            <Position>
              <LatitudeDegrees>38.94523677416145801544189453125</LatitudeDegrees>
              <LongitudeDegrees>-2.86560514010488986968994140625</LongitudeDegrees>
            </Position>
            <AltitudeMeters>858.20001220703125</AltitudeMeters>
            <DistanceMeters>66903.246929217</DistanceMeters>
          </Trackpoint>
          <Trackpoint>
            <Time>2020-01-19T11:10:42.000Z</Time>
            <Position>
              <LatitudeDegrees>38.9453582279384136199951171875</LatitudeDegrees>
              <LongitudeDegrees>-2.86565224640071392059326171875</LongitudeDegrees>
            </Position>
            <AltitudeMeters>855.5999755859375</AltitudeMeters>
            <DistanceMeters>66917.366632745</DistanceMeters>
          </Trackpoint>
          <Trackpoint>
            <Time>2020-01-19T11:10:45.000Z</Time>
            <Position>
              <LatitudeDegrees>38.945534415543079376220703125</LatitudeDegrees>
              <LongitudeDegrees>-2.8657257556915283203125</LongitudeDegrees>
            </Position>
            <AltitudeMeters>853.20001220703125</AltitudeMeters>
            <DistanceMeters>66937.983269188</DistanceMeters>
          </Trackpoint>
          <Trackpoint>
            <Time>2020-01-19T11:10:47.000Z</Time>
            <Position>
              <LatitudeDegrees>38.94566022790968418121337890625</LatitudeDegrees>
              <LongitudeDegrees>-2.86572734825313091278076171875</LongitudeDegrees>
            </Position>
            <AltitudeMeters>852.4000244140625</AltitudeMeters>
            <DistanceMeters>66951.987382877</DistanceMeters>
          </Trackpoint>
          <Trackpoint>
            <Time>2020-01-19T11:10:49.000Z</Time>
            <Position>
              <LatitudeDegrees>38.9457893930375576019287109375</LatitudeDegrees>
              <LongitudeDegrees>-2.86569281481206417083740234375</LongitudeDegrees>
            </Position>
            <AltitudeMeters>851.4000244140625</AltitudeMeters>
            <DistanceMeters>66966.67139341</DistanceMeters>
          </Trackpoint>
          <Trackpoint>
            <Time>2020-01-19T11:10:50.000Z</Time>
            <Position>
              <LatitudeDegrees>38.94584362395107746124267578125</LatitudeDegrees>
              <LongitudeDegrees>-2.86567018367350101470947265625</LongitudeDegrees>
            </Position>
            <AltitudeMeters>850.79998779296875</AltitudeMeters>
            <DistanceMeters>66973.018295884</DistanceMeters>
          </Trackpoint>
          <Trackpoint>
            <Time>2020-01-19T11:10:52.000Z</Time>
            <Position>
              <LatitudeDegrees>38.9459251798689365386962890625</LatitudeDegrees>
              <LongitudeDegrees>-2.8656203113496303558349609375</LongitudeDegrees>
            </Position>
            <AltitudeMeters>850</AltitudeMeters>
            <DistanceMeters>66983.070038286</DistanceMeters>
          </Trackpoint>
          <Trackpoint>
            <Time>2020-01-19T11:10:54.000Z</Time>
            <Position>
              <LatitudeDegrees>38.94598091952502727508544921875</LatitudeDegrees>
              <LongitudeDegrees>-2.86553330719470977783203125</LongitudeDegrees>
            </Position>
            <AltitudeMeters>849.4000244140625</AltitudeMeters>
            <DistanceMeters>66992.827759641</DistanceMeters>
          </Trackpoint>
          <Trackpoint>
            <Time>2020-01-19T11:10:57.000Z</Time>
            <Position>
              <LatitudeDegrees>38.94604034721851348876953125</LatitudeDegrees>
              <LongitudeDegrees>-2.86535586230456829071044921875</LongitudeDegrees>
            </Position>
            <AltitudeMeters>848.4000244140625</AltitudeMeters>
            <DistanceMeters>67009.551381486</DistanceMeters>
          </Trackpoint>
          <Trackpoint>
            <Time>2020-01-19T11:10:59.000Z</Time>
            <Position>
              <LatitudeDegrees>38.946079909801483154296875</LatitudeDegrees>
              <LongitudeDegrees>-2.86524672992527484893798828125</LongitudeDegrees>
            </Position>
            <AltitudeMeters>847.5999755859375</AltitudeMeters>
            <DistanceMeters>67019.974040437</DistanceMeters>
          </Trackpoint>
          <Trackpoint>
            <Time>2020-01-19T11:11:00.000Z</Time>
            <Position>
              <LatitudeDegrees>38.94611150957643985748291015625</LatitudeDegrees>
              <LongitudeDegrees>-2.86519878543913364410400390625</LongitudeDegrees>
            </Position>
            <AltitudeMeters>847.20001220703125</AltitudeMeters>
            <DistanceMeters>67025.413852981</DistanceMeters>
          </Trackpoint>
          <Trackpoint>
            <Time>2020-01-19T11:11:01.000Z</Time>
            <Position>
              <LatitudeDegrees>38.9461545087397098541259765625</LatitudeDegrees>
              <LongitudeDegrees>-2.865152768790721893310546875</LongitudeDegrees>
            </Position>
            <AltitudeMeters>846.79998779296875</AltitudeMeters>
            <DistanceMeters>67031.640822408</DistanceMeters>
          </Trackpoint>
          <Trackpoint>
            <Time>2020-01-19T11:11:03.000Z</Time>
            <Position>
              <LatitudeDegrees>38.94624394364655017852783203125</LatitudeDegrees>
              <LongitudeDegrees>-2.86504204384982585906982421875</LongitudeDegrees>
            </Position>
            <AltitudeMeters>846</AltitudeMeters>
            <DistanceMeters>67045.459288187</DistanceMeters>
          </Trackpoint>
          <Trackpoint>
            <Time>2020-01-19T11:11:06.000Z</Time>
            <Position>
              <LatitudeDegrees>38.94637855701148509979248046875</LatitudeDegrees>
              <LongitudeDegrees>-2.8648749925196170806884765625</LongitudeDegrees>
            </Position>
            <AltitudeMeters>846.4000244140625</AltitudeMeters>
            <DistanceMeters>67066.282067793</DistanceMeters>
          </Trackpoint>
          <Trackpoint>
            <Time>2020-01-19T11:11:08.000Z</Time>
            <Position>
              <LatitudeDegrees>38.9464871026575565338134765625</LatitudeDegrees>
              <LongitudeDegrees>-2.8648330830037593841552734375</LongitudeDegrees>
            </Position>
            <AltitudeMeters>846</AltitudeMeters>
            <DistanceMeters>67078.89630487</DistanceMeters>
          </Trackpoint>
          <Trackpoint>
            <Time>2020-01-19T11:11:10.000Z</Time>
            <Position>
              <LatitudeDegrees>38.94659154117107391357421875</LatitudeDegrees>
              <LongitudeDegrees>-2.8648200072348117828369140625</LongitudeDegrees>
            </Position>
            <AltitudeMeters>845.20001220703125</AltitudeMeters>
            <DistanceMeters>67090.575702747</DistanceMeters>
          </Trackpoint>
          <Trackpoint>
            <Time>2020-01-19T11:11:14.000Z</Time>
            <Position>
              <LatitudeDegrees>38.9467643760144710540771484375</LatitudeDegrees>
              <LongitudeDegrees>-2.8647908382117748260498046875</LongitudeDegrees>
            </Position>
            <AltitudeMeters>844.20001220703125</AltitudeMeters>
            <DistanceMeters>67109.977681942</DistanceMeters>
          </Trackpoint>
          <Trackpoint>
            <Time>2020-01-19T11:11:18.000Z</Time>
            <Position>
              <LatitudeDegrees>38.946919105947017669677734375</LatitudeDegrees>
              <LongitudeDegrees>-2.86478254012763500213623046875</LongitudeDegrees>
            </Position>
            <AltitudeMeters>843.20001220703125</AltitudeMeters>
            <DistanceMeters>67127.214228728</DistanceMeters>
          </Trackpoint>
          <Trackpoint>
            <Time>2020-01-19T11:11:19.000Z</Time>
            <Position>
              <LatitudeDegrees>38.9469578303396701812744140625</LatitudeDegrees>
              <LongitudeDegrees>-2.86477935500442981719970703125</LongitudeDegrees>
            </Position>
            <AltitudeMeters>842.4000244140625</AltitudeMeters>
            <DistanceMeters>67131.532458441</DistanceMeters>
          </Trackpoint>
          <Trackpoint>
            <Time>2020-01-19T11:11:21.000Z</Time>
            <Position>
              <LatitudeDegrees>38.94700032658874988555908203125</LatitudeDegrees>
              <LongitudeDegrees>-2.864764519035816192626953125</LongitudeDegrees>
            </Position>
            <AltitudeMeters>841.5999755859375</AltitudeMeters>
            <DistanceMeters>67136.433479084</DistanceMeters>
          </Trackpoint>
          <Trackpoint>
            <Time>2020-01-19T11:11:28.000Z</Time>
            <Position>
              <LatitudeDegrees>38.9471445791423320770263671875</LatitudeDegrees>
              <LongitudeDegrees>-2.86463334225118160247802734375</LongitudeDegrees>
            </Position>
            <AltitudeMeters>839.79998779296875</AltitudeMeters>
            <DistanceMeters>67156.098499392</DistanceMeters>
          </Trackpoint>
          <Trackpoint>
            <Time>2020-01-19T11:11:30.000Z</Time>
            <Position>
              <LatitudeDegrees>38.947244994342327117919921875</LatitudeDegrees>
              <LongitudeDegrees>-2.864568717777729034423828125</LongitudeDegrees>
            </Position>
            <AltitudeMeters>838.20001220703125</AltitudeMeters>
            <DistanceMeters>67168.596589739</DistanceMeters>
          </Trackpoint>
          <Trackpoint>
            <Time>2020-01-19T11:11:32.000Z</Time>
            <Position>
              <LatitudeDegrees>38.94733577035367488861083984375</LatitudeDegrees>
              <LongitudeDegrees>-2.864492274820804595947265625</LongitudeDegrees>
            </Position>
            <AltitudeMeters>837</AltitudeMeters>
            <DistanceMeters>67180.673958029</DistanceMeters>
          </Trackpoint>
          <Trackpoint>
            <Time>2020-01-19T11:11:34.000Z</Time>
            <Position>
              <LatitudeDegrees>38.9474138058722019195556640625</LatitudeDegrees>
              <LongitudeDegrees>-2.864419184625148773193359375</LongitudeDegrees>
            </Position>
            <AltitudeMeters>836</AltitudeMeters>
            <DistanceMeters>67191.419122402</DistanceMeters>
          </Trackpoint>
          <Trackpoint>
            <Time>2020-01-19T11:11:36.000Z</Time>
            <Position>
              <LatitudeDegrees>38.9475055038928985595703125</LatitudeDegrees>
              <LongitudeDegrees>-2.86436411552131175994873046875</LongitudeDegrees>
            </Position>
            <AltitudeMeters>834.5999755859375</AltitudeMeters>
            <DistanceMeters>67202.683696703</DistanceMeters>
          </Trackpoint>
          <Trackpoint>
            <Time>2020-01-19T11:11:40.000Z</Time>
            <Position>
              <LatitudeDegrees>38.9477336592972278594970703125</LatitudeDegrees>
              <LongitudeDegrees>-2.8642698191106319427490234375</LongitudeDegrees>
            </Position>
            <AltitudeMeters>831.4000244140625</AltitudeMeters>
            <DistanceMeters>67229.357273948</DistanceMeters>
          </Trackpoint>
          <Trackpoint>
            <Time>2020-01-19T11:11:43.000Z</Time>
            <Position>
              <LatitudeDegrees>38.9479214139282703399658203125</LatitudeDegrees>
              <LongitudeDegrees>-2.86417183466255664825439453125</LongitudeDegrees>
            </Position>
            <AltitudeMeters>828.20001220703125</AltitudeMeters>
            <DistanceMeters>67251.910458777</DistanceMeters>
          </Trackpoint>
          <Trackpoint>
            <Time>2020-01-19T11:11:45.000Z</Time>
            <Position>
              <LatitudeDegrees>38.94801923073828220367431640625</LatitudeDegrees>
              <LongitudeDegrees>-2.86408097483217716217041015625</LongitudeDegrees>
            </Position>
            <AltitudeMeters>826.5999755859375</AltitudeMeters>
            <DistanceMeters>67265.341872224</DistanceMeters>
          </Trackpoint>
          <Trackpoint>
            <Time>2020-01-19T11:11:49.000Z</Time>
            <Position>
              <LatitudeDegrees>38.94826649688184261322021484375</LatitudeDegrees>
              <LongitudeDegrees>-2.86400671117007732391357421875</LongitudeDegrees>
            </Position>
            <AltitudeMeters>822.79998779296875</AltitudeMeters>
            <DistanceMeters>67293.603973735</DistanceMeters>
          </Trackpoint>
          <Trackpoint>
            <Time>2020-01-19T11:11:50.000Z</Time>
            <Position>
              <LatitudeDegrees>38.94833589904010295867919921875</LatitudeDegrees>
              <LongitudeDegrees>-2.8639952279627323150634765625</LongitudeDegrees>
            </Position>
            <AltitudeMeters>821.79998779296875</AltitudeMeters>
            <DistanceMeters>67301.392107239</DistanceMeters>
          </Trackpoint>
          <Trackpoint>
            <Time>2020-01-19T11:11:53.000Z</Time>
            <Position>
              <LatitudeDegrees>38.9485480450093746185302734375</LatitudeDegrees>
              <LongitudeDegrees>-2.8639553301036357879638671875</LongitudeDegrees>
            </Position>
            <AltitudeMeters>818.4000244140625</AltitudeMeters>
            <DistanceMeters>67325.255546026</DistanceMeters>
          </Trackpoint>
          <Trackpoint>
            <Time>2020-01-19T11:11:55.000Z</Time>
            <Position>
              <LatitudeDegrees>38.94867922179400920867919921875</LatitudeDegrees>
              <LongitudeDegrees>-2.86388240754604339599609375</LongitudeDegrees>
            </Position>
            <AltitudeMeters>816</AltitudeMeters>
            <DistanceMeters>67341.161666918</DistanceMeters>
          </Trackpoint>
          <Trackpoint>
            <Time>2020-01-19T11:11:58.000Z</Time>
            <Position>
              <LatitudeDegrees>38.94886563532054424285888671875</LatitudeDegrees>
              <LongitudeDegrees>-2.86373714916408061981201171875</LongitudeDegrees>
            </Position>
            <AltitudeMeters>812.4000244140625</AltitudeMeters>
            <DistanceMeters>67365.422528664</DistanceMeters>
          </Trackpoint>
          <Trackpoint>
            <Time>2020-01-19T11:12:00.000Z</Time>
            <Position>
              <LatitudeDegrees>38.94897962920367717742919921875</LatitudeDegrees>
              <LongitudeDegrees>-2.86368199624121189117431640625</LongitudeDegrees>
            </Position>
            <AltitudeMeters>810.20001220703125</AltitudeMeters>
            <DistanceMeters>67378.978748112</DistanceMeters>
          </Trackpoint>
          <Trackpoint>
            <Time>2020-01-19T11:12:01.000Z</Time>
            <Position>
              <LatitudeDegrees>38.94902254454791545867919921875</LatitudeDegrees>
              <LongitudeDegrees>-2.86365617997944355010986328125</LongitudeDegrees>
            </Position>
            <AltitudeMeters>809.4000244140625</AltitudeMeters>
            <DistanceMeters>67384.252516731</DistanceMeters>
          </Trackpoint>
          <Trackpoint>
            <Time>2020-01-19T11:12:03.000Z</Time>
            <Position>
              <LatitudeDegrees>38.94903461448848247528076171875</LatitudeDegrees>
              <LongitudeDegrees>-2.86356590688228607177734375</LongitudeDegrees>
            </Position>
            <AltitudeMeters>809.20001220703125</AltitudeMeters>
            <DistanceMeters>67392.181412758</DistanceMeters>
          </Trackpoint>
          <Trackpoint>
            <Time>2020-01-19T11:12:10.000Z</Time>
            <Position>
              <LatitudeDegrees>38.94892430864274501800537109375</LatitudeDegrees>
              <LongitudeDegrees>-2.8633213229477405548095703125</LongitudeDegrees>
            </Position>
            <AltitudeMeters>811.20001220703125</AltitudeMeters>
            <DistanceMeters>67416.654804643</DistanceMeters>
          </Trackpoint>
          <Trackpoint>
            <Time>2020-01-19T11:12:20.000Z</Time>
            <Position>
              <LatitudeDegrees>38.94889949820935726165771484375</LatitudeDegrees>
              <LongitudeDegrees>-2.8628884814679622650146484375</LongitudeDegrees>
            </Position>
            <AltitudeMeters>813.20001220703125</AltitudeMeters>
            <DistanceMeters>67454.223300995</DistanceMeters>
          </Trackpoint>
          <Trackpoint>
            <Time>2020-01-19T11:12:29.000Z</Time>
            <Position>
              <LatitudeDegrees>38.94899136386811733245849609375</LatitudeDegrees>
              <LongitudeDegrees>-2.86246754229068756103515625</LongitudeDegrees>
            </Position>
            <AltitudeMeters>814.4000244140625</AltitudeMeters>
            <DistanceMeters>67492.067324618</DistanceMeters>
          </Trackpoint>
          <Trackpoint>
            <Time>2020-01-19T11:12:30.000Z</Time>
            <Position>
              <LatitudeDegrees>38.94900494255125522613525390625</LatitudeDegrees>
              <LongitudeDegrees>-2.8624150715768337249755859375</LongitudeDegrees>
            </Position>
            <AltitudeMeters>814.5999755859375</AltitudeMeters>
            <DistanceMeters>67496.853691083</DistanceMeters>
          </Trackpoint>
          <Trackpoint>
            <Time>2020-01-19T11:12:32.000Z</Time>
            <Position>
              <LatitudeDegrees>38.94904173910617828369140625</LatitudeDegrees>
              <LongitudeDegrees>-2.86231121979653835296630859375</LongitudeDegrees>
            </Position>
            <AltitudeMeters>814.5999755859375</AltitudeMeters>
            <DistanceMeters>67506.731899729</DistanceMeters>
          </Trackpoint>
          <Trackpoint>
            <Time>2020-01-19T11:12:40.000Z</Time>
            <Position>
              <LatitudeDegrees>38.9491984806954860687255859375</LatitudeDegrees>
              <LongitudeDegrees>-2.8619567491114139556884765625</LongitudeDegrees>
            </Position>
            <AltitudeMeters>813.5999755859375</AltitudeMeters>
            <DistanceMeters>67542.02776884</DistanceMeters>
          </Trackpoint>
          <Trackpoint>
            <Time>2020-01-19T11:12:49.000Z</Time>
            <Position>
              <LatitudeDegrees>38.94933753646910190582275390625</LatitudeDegrees>
              <LongitudeDegrees>-2.86158467642962932586669921875</LongitudeDegrees>
            </Position>
            <AltitudeMeters>813.5999755859375</AltitudeMeters>
            <DistanceMeters>67577.760214304</DistanceMeters>
          </Trackpoint>
          <Trackpoint>
            <Time>2020-01-19T11:12:54.000Z</Time>
            <Position>
              <LatitudeDegrees>38.94937827251851558685302734375</LatitudeDegrees>
              <LongitudeDegrees>-2.8613773919641971588134765625</LongitudeDegrees>
            </Position>
            <AltitudeMeters>815.4000244140625</AltitudeMeters>
            <DistanceMeters>67596.266773664</DistanceMeters>
          </Trackpoint>
          <Trackpoint>
            <Time>2020-01-19T11:12:57.000Z</Time>
            <Position>
              <LatitudeDegrees>38.9493972994387149810791015625</LatitudeDegrees>
              <LongitudeDegrees>-2.86126725375652313232421875</LongitudeDegrees>
            </Position>
            <AltitudeMeters>816.4000244140625</AltitudeMeters>
            <DistanceMeters>67606.032820326</DistanceMeters>
          </Trackpoint>
          <Trackpoint>
            <Time>2020-01-19T11:13:00.000Z</Time>
            <Position>
              <LatitudeDegrees>38.94944147206842899322509765625</LatitudeDegrees>
              <LongitudeDegrees>-2.8611463867127895355224609375</LongitudeDegrees>
            </Position>
            <AltitudeMeters>817</AltitudeMeters>
            <DistanceMeters>67617.592537936</DistanceMeters>
          </Trackpoint>
          <Trackpoint>
            <Time>2020-01-19T11:13:05.000Z</Time>
            <Position>
              <LatitudeDegrees>38.94952856004238128662109375</LatitudeDegrees>
              <LongitudeDegrees>-2.86093055270612239837646484375</LongitudeDegrees>
            </Position>
            <AltitudeMeters>818</AltitudeMeters>
            <DistanceMeters>67638.640043493</DistanceMeters>
          </Trackpoint>
          <Trackpoint>
            <Time>2020-01-19T11:13:10.000Z</Time>
            <Position>
              <LatitudeDegrees>38.94959117285907268524169921875</LatitudeDegrees>
              <LongitudeDegrees>-2.8607108630239963531494140625</LongitudeDegrees>
            </Position>
            <AltitudeMeters>816.79998779296875</AltitudeMeters>
            <DistanceMeters>67658.892998645</DistanceMeters>
          </Trackpoint>
          <Trackpoint>
            <Time>2020-01-19T11:13:20.000Z</Time>
            <Position>
              <LatitudeDegrees>38.94961464218795299530029296875</LatitudeDegrees>
              <LongitudeDegrees>-2.86022345535457134246826171875</LongitudeDegrees>
            </Position>
            <AltitudeMeters>816.20001220703125</AltitudeMeters>
            <DistanceMeters>67701.16354733</DistanceMeters>
          </Trackpoint>
          <Trackpoint>
            <Time>2020-01-19T11:13:30.000Z</Time>
            <Position>
              <LatitudeDegrees>38.9496759139001369476318359375</LatitudeDegrees>
              <LongitudeDegrees>-2.8597613610327243804931640625</LongitudeDegrees>
            </Position>
            <AltitudeMeters>815.79998779296875</AltitudeMeters>
            <DistanceMeters>67741.739398</DistanceMeters>
          </Trackpoint>
          <Trackpoint>
            <Time>2020-01-19T11:13:40.000Z</Time>
            <Position>
              <LatitudeDegrees>38.94973400048911571502685546875</LatitudeDegrees>
              <LongitudeDegrees>-2.8592943213880062103271484375</LongitudeDegrees>
            </Position>
            <AltitudeMeters>813.5999755859375</AltitudeMeters>
            <DistanceMeters>67782.679813718</DistanceMeters>
          </Trackpoint>
          <Trackpoint>
            <Time>2020-01-19T11:13:50.000Z</Time>
            <Position>
              <LatitudeDegrees>38.9497074298560619354248046875</LatitudeDegrees>
              <LongitudeDegrees>-2.85880674608051776885986328125</LongitudeDegrees>
            </Position>
            <AltitudeMeters>814.5999755859375</AltitudeMeters>
            <DistanceMeters>67824.987303511</DistanceMeters>
          </Trackpoint>
          <Trackpoint>
            <Time>2020-01-19T11:14:00.000Z</Time>
            <Position>
              <LatitudeDegrees>38.9495837129652500152587890625</LatitudeDegrees>
              <LongitudeDegrees>-2.85835311748087406158447265625</LongitudeDegrees>
            </Position>
            <AltitudeMeters>817.79998779296875</AltitudeMeters>
            <DistanceMeters>67866.59750415</DistanceMeters>
          </Trackpoint>
          <Trackpoint>
            <Time>2020-01-19T11:14:07.000Z</Time>
            <Position>
              <LatitudeDegrees>38.9494663663208484649658203125</LatitudeDegrees>
              <LongitudeDegrees>-2.85806880332529544830322265625</LongitudeDegrees>
            </Position>
            <AltitudeMeters>817.79998779296875</AltitudeMeters>
            <DistanceMeters>67894.458649698</DistanceMeters>
          </Trackpoint>
          <Trackpoint>
            <Time>2020-01-19T11:14:10.000Z</Time>
            <Position>
              <LatitudeDegrees>38.94941464997828006744384765625</LatitudeDegrees>
              <LongitudeDegrees>-2.857956402003765106201171875</LongitudeDegrees>
            </Position>
            <AltitudeMeters>817.20001220703125</AltitudeMeters>
            <DistanceMeters>67905.76323469</DistanceMeters>
          </Trackpoint>
          <Trackpoint>
            <Time>2020-01-19T11:14:19.000Z</Time>
            <Position>
              <LatitudeDegrees>38.94924298860132694244384765625</LatitudeDegrees>
              <LongitudeDegrees>-2.8576749376952648162841796875</LongitudeDegrees>
            </Position>
            <AltitudeMeters>816.5999755859375</AltitudeMeters>
            <DistanceMeters>67936.725032365</DistanceMeters>
          </Trackpoint>
          <Trackpoint>
            <Time>2020-01-19T11:14:30.000Z</Time>
            <Position>
              <LatitudeDegrees>38.94904115237295627593994140625</LatitudeDegrees>
              <LongitudeDegrees>-2.85767049528658390045166015625</LongitudeDegrees>
            </Position>
            <AltitudeMeters>818</AltitudeMeters>
            <DistanceMeters>67959.193174111</DistanceMeters>
          </Trackpoint>
          <Trackpoint>
            <Time>2020-01-19T11:14:34.000Z</Time>
            <Position>
              <LatitudeDegrees>38.94899220205843448638916015625</LatitudeDegrees>
              <LongitudeDegrees>-2.8577480278909206390380859375</LongitudeDegrees>
            </Position>
            <AltitudeMeters>819.20001220703125</AltitudeMeters>
            <DistanceMeters>67967.837994101</DistanceMeters>
          </Trackpoint>
          <Trackpoint>
            <Time>2020-01-19T11:14:40.000Z</Time>
            <Position>
              <LatitudeDegrees>38.94892799668014049530029296875</LatitudeDegrees>
              <LongitudeDegrees>-2.85785020329058170318603515625</LongitudeDegrees>
            </Position>
            <AltitudeMeters>821</AltitudeMeters>
            <DistanceMeters>67979.208288928</DistanceMeters>
          </Trackpoint>
          <Trackpoint>
            <Time>2020-01-19T11:14:50.000Z</Time>
            <Position>
              <LatitudeDegrees>38.94881769083440303802490234375</LatitudeDegrees>
              <LongitudeDegrees>-2.85798020660877227783203125</LongitudeDegrees>
            </Position>
            <AltitudeMeters>823.4000244140625</AltitudeMeters>
            <DistanceMeters>67995.862652562</DistanceMeters>
          </Trackpoint>
          <Trackpoint>
            <Time>2020-01-19T11:15:00.000Z</Time>
            <Position>
              <LatitudeDegrees>38.94869883544743061065673828125</LatitudeDegrees>
              <LongitudeDegrees>-2.85810568369925022125244140625</LongitudeDegrees>
            </Position>
            <AltitudeMeters>825.5999755859375</AltitudeMeters>
            <DistanceMeters>68012.979071584</DistanceMeters>
          </Trackpoint>
          <Trackpoint>
            <Time>2020-01-19T11:15:10.000Z</Time>
            <Position>
              <LatitudeDegrees>38.94856791011989116668701171875</LatitudeDegrees>
              <LongitudeDegrees>-2.85815144889056682586669921875</LongitudeDegrees>
            </Position>
            <AltitudeMeters>827.20001220703125</AltitudeMeters>
            <DistanceMeters>68028.080248707</DistanceMeters>
          </Trackpoint>
          <Trackpoint>
            <Time>2020-01-19T11:15:19.000Z</Time>
            <Position>
              <LatitudeDegrees>38.94847034476697444915771484375</LatitudeDegrees>
              <LongitudeDegrees>-2.85818564705550670623779296875</LongitudeDegrees>
            </Position>
            <AltitudeMeters>828.20001220703125</AltitudeMeters>
            <DistanceMeters>68039.33600157</DistanceMeters>
          </Trackpoint>
          <Trackpoint>
            <Time>2020-01-19T11:15:23.000Z</Time>
            <Position>
              <LatitudeDegrees>38.94843866117298603057861328125</LatitudeDegrees>
              <LongitudeDegrees>-2.8581855632364749908447265625</LongitudeDegrees>
            </Position>
            <AltitudeMeters>828.4000244140625</AltitudeMeters>
            <DistanceMeters>68042.863528372</DistanceMeters>
          </Trackpoint>
          <Trackpoint>
            <Time>2020-01-19T11:15:51.000Z</Time>
            <Position>
              <LatitudeDegrees>38.94831888377666473388671875</LatitudeDegrees>
              <LongitudeDegrees>-2.85810283385217189788818359375</LongitudeDegrees>
            </Position>
            <AltitudeMeters>828.4000244140625</AltitudeMeters>
            <DistanceMeters>68057.996663166</DistanceMeters>
          </Trackpoint>
          <Trackpoint>
            <Time>2020-01-19T11:16:00.000Z</Time>
            <Position>
              <LatitudeDegrees>38.9482120983302593231201171875</LatitudeDegrees>
              <LongitudeDegrees>-2.85802890546619892120361328125</LongitudeDegrees>
            </Position>
            <AltitudeMeters>828.20001220703125</AltitudeMeters>
            <DistanceMeters>68071.495809163</DistanceMeters>
          </Trackpoint>
          <Trackpoint>
            <Time>2020-01-19T11:16:07.000Z</Time>
            <Position>
              <LatitudeDegrees>38.9481403492391109466552734375</LatitudeDegrees>
              <LongitudeDegrees>-2.8580082021653652191162109375</LongitudeDegrees>
            </Position>
            <AltitudeMeters>828.5999755859375</AltitudeMeters>
            <DistanceMeters>68079.680252153</DistanceMeters>
          </Trackpoint>
          <Trackpoint>
            <Time>2020-01-19T11:16:10.000Z</Time>
            <Position>
              <LatitudeDegrees>38.94810640253126621246337890625</LatitudeDegrees>
              <LongitudeDegrees>-2.85799873061478137969970703125</LongitudeDegrees>
            </Position>
            <AltitudeMeters>828.5999755859375</AltitudeMeters>
            <DistanceMeters>68083.547267358</DistanceMeters>
          </Trackpoint>
          <Trackpoint>
            <Time>2020-01-19T11:16:20.000Z</Time>
            <Position>
              <LatitudeDegrees>38.94799240864813327789306640625</LatitudeDegrees>
              <LongitudeDegrees>-2.85798951052129268646240234375</LongitudeDegrees>
            </Position>
            <AltitudeMeters>829</AltitudeMeters>
            <DistanceMeters>68096.260264966</DistanceMeters>
          </Trackpoint>
          <Trackpoint>
            <Time>2020-01-19T11:16:23.000Z</Time>
            <Position>
              <LatitudeDegrees>38.94796072505414485931396484375</LatitudeDegrees>
              <LongitudeDegrees>-2.85798230208456516265869140625</LongitudeDegrees>
            </Position>
            <AltitudeMeters>829</AltitudeMeters>
            <DistanceMeters>68099.84114594</DistanceMeters>
          </Trackpoint>
          <Trackpoint>
            <Time>2020-01-19T11:16:27.000Z</Time>
            <Position>
              <LatitudeDegrees>38.94791261292994022369384765625</LatitudeDegrees>
              <LongitudeDegrees>-2.857960760593414306640625</LongitudeDegrees>
            </Position>
            <AltitudeMeters>829</AltitudeMeters>
            <DistanceMeters>68105.511781021</DistanceMeters>
          </Trackpoint>
          <Trackpoint>
            <Time>2020-01-19T11:16:30.000Z</Time>
            <Position>
              <LatitudeDegrees>38.9478721283376216888427734375</LatitudeDegrees>
              <LongitudeDegrees>-2.8579615987837314605712890625</LongitudeDegrees>
            </Position>
            <AltitudeMeters>829.20001220703125</AltitudeMeters>
            <DistanceMeters>68110.01929386</DistanceMeters>
          </Trackpoint>
          <Trackpoint>
            <Time>2020-01-19T11:16:40.000Z</Time>
            <Position>
              <LatitudeDegrees>38.94772150553762912750244140625</LatitudeDegrees>
              <LongitudeDegrees>-2.8579649515450000762939453125</LongitudeDegrees>
            </Position>
            <AltitudeMeters>829.79998779296875</AltitudeMeters>
            <DistanceMeters>68126.786595373</DistanceMeters>
          </Trackpoint>
          <Trackpoint>
            <Time>2020-01-19T11:16:47.000Z</Time>
            <Position>
              <LatitudeDegrees>38.9475559629499912261962890625</LatitudeDegrees>
              <LongitudeDegrees>-2.85807542502880096435546875</LongitudeDegrees>
            </Position>
            <AltitudeMeters>830.79998779296875</AltitudeMeters>
            <DistanceMeters>68147.545528584</DistanceMeters>
          </Trackpoint>
          <Trackpoint>
            <Time>2020-01-19T11:16:50.000Z</Time>
            <Position>
              <LatitudeDegrees>38.94747197628021240234375</LatitudeDegrees>
              <LongitudeDegrees>-2.85812596790492534637451171875</LongitudeDegrees>
            </Position>
            <AltitudeMeters>831.20001220703125</AltitudeMeters>
            <DistanceMeters>68157.867197145</DistanceMeters>
          </Trackpoint>
          <Trackpoint>
            <Time>2020-01-19T11:16:54.000Z</Time>
            <Position>
              <LatitudeDegrees>38.9473410509526729583740234375</LatitudeDegrees>
              <LongitudeDegrees>-2.85818271338939666748046875</LongitudeDegrees>
            </Position>
            <AltitudeMeters>831.5999755859375</AltitudeMeters>
            <DistanceMeters>68173.245091732</DistanceMeters>
          </Trackpoint>
          <Trackpoint>
            <Time>2020-01-19T11:16:57.000Z</Time>
            <Position>
              <LatitudeDegrees>38.9472525380551815032958984375</LatitudeDegrees>
              <LongitudeDegrees>-2.85821733064949512481689453125</LongitudeDegrees>
            </Position>
            <AltitudeMeters>831.79998779296875</AltitudeMeters>
            <DistanceMeters>68183.542234908</DistanceMeters>
          </Trackpoint>
          <Trackpoint>
            <Time>2020-01-19T11:17:00.000Z</Time>
            <Position>
              <LatitudeDegrees>38.94716595299541950225830078125</LatitudeDegrees>
              <LongitudeDegrees>-2.85824297927320003509521484375</LongitudeDegrees>
            </Position>
            <AltitudeMeters>831.79998779296875</AltitudeMeters>
            <DistanceMeters>68193.431407163</DistanceMeters>
          </Trackpoint>
          <Trackpoint>
            <Time>2020-01-19T11:17:08.000Z</Time>
            <Position>
              <LatitudeDegrees>38.94690510816872119903564453125</LatitudeDegrees>
              <LongitudeDegrees>-2.8582506068050861358642578125</LongitudeDegrees>
            </Position>
            <AltitudeMeters>829.20001220703125</AltitudeMeters>
            <DistanceMeters>68222.471359627</DistanceMeters>
          </Trackpoint>
          <Trackpoint>
            <Time>2020-01-19T11:17:10.000Z</Time>
            <Position>
              <LatitudeDegrees>38.946835957467555999755859375</LatitudeDegrees>
              <LongitudeDegrees>-2.8582378663122653961181640625</LongitudeDegrees>
            </Position>
            <AltitudeMeters>829.20001220703125</AltitudeMeters>
            <DistanceMeters>68230.246728544</DistanceMeters>
          </Trackpoint>
          <Trackpoint>
            <Time>2020-01-19T11:17:15.000Z</Time>
            <Position>
              <LatitudeDegrees>38.9467456005513668060302734375</LatitudeDegrees>
              <LongitudeDegrees>-2.8582365252077579498291015625</LongitudeDegrees>
            </Position>
            <AltitudeMeters>829.5999755859375</AltitudeMeters>
            <DistanceMeters>68240.304308587</DistanceMeters>
          </Trackpoint>
          <Trackpoint>
            <Time>2020-01-19T11:17:31.000Z</Time>
            <Position>
              <LatitudeDegrees>38.94670846872031688690185546875</LatitudeDegrees>
              <LongitudeDegrees>-2.85824230872094631195068359375</LongitudeDegrees>
            </Position>
            <AltitudeMeters>830</AltitudeMeters>
            <DistanceMeters>68244.468170589</DistanceMeters>
          </Trackpoint>
          <Trackpoint>
            <Time>2020-01-19T11:17:34.000Z</Time>
            <Position>
              <LatitudeDegrees>38.94664476625621318817138671875</LatitudeDegrees>
              <LongitudeDegrees>-2.85825722850859165191650390625</LongitudeDegrees>
            </Position>
            <AltitudeMeters>830.5999755859375</AltitudeMeters>
            <DistanceMeters>68251.675181045</DistanceMeters>
          </Trackpoint>
          <Trackpoint>
            <Time>2020-01-19T11:17:40.000Z</Time>
            <Position>
              <LatitudeDegrees>38.94649229943752288818359375</LatitudeDegrees>
              <LongitudeDegrees>-2.8582740761339664459228515625</LongitudeDegrees>
            </Position>
            <AltitudeMeters>831.79998779296875</AltitudeMeters>
            <DistanceMeters>68268.707510182</DistanceMeters>
          </Trackpoint>
          <Trackpoint>
            <Time>2020-01-19T11:17:42.000Z</Time>
            <Position>
              <LatitudeDegrees>38.94644728861749172210693359375</LatitudeDegrees>
              <LongitudeDegrees>-2.85828597843647003173828125</LongitudeDegrees>
            </Position>
            <AltitudeMeters>832.4000244140625</AltitudeMeters>
            <DistanceMeters>68273.82132494</DistanceMeters>
          </Trackpoint>
          <Trackpoint>
            <Time>2020-01-19T11:17:49.000Z</Time>
            <Position>
              <LatitudeDegrees>38.94624662585556507110595703125</LatitudeDegrees>
              <LongitudeDegrees>-2.85822822712361812591552734375</LongitudeDegrees>
            </Position>
            <AltitudeMeters>831.79998779296875</AltitudeMeters>
            <DistanceMeters>68296.707972012</DistanceMeters>
          </Trackpoint>
          <Trackpoint>
            <Time>2020-01-19T11:17:50.000Z</Time>
            <Position>
              <LatitudeDegrees>38.946220390498638153076171875</LatitudeDegrees>
              <LongitudeDegrees>-2.85819235257804393768310546875</LongitudeDegrees>
            </Position>
            <AltitudeMeters>831.5999755859375</AltitudeMeters>
            <DistanceMeters>68300.970425978</DistanceMeters>
          </Trackpoint>
          <Trackpoint>
            <Time>2020-01-19T11:17:52.000Z</Time>
            <Position>
              <LatitudeDegrees>38.9461588673293590545654296875</LatitudeDegrees>
              <LongitudeDegrees>-2.85811071284115314483642578125</LongitudeDegrees>
            </Position>
            <AltitudeMeters>831.20001220703125</AltitudeMeters>
            <DistanceMeters>68310.811542269</DistanceMeters>
          </Trackpoint>
          <Trackpoint>
            <Time>2020-01-19T11:18:00.000Z</Time>
            <Position>
              <LatitudeDegrees>38.94586726091802120208740234375</LatitudeDegrees>
              <LongitudeDegrees>-2.85774576477706432342529296875</LongitudeDegrees>
            </Position>
            <AltitudeMeters>830</AltitudeMeters>
            <DistanceMeters>68356.10430887</DistanceMeters>
          </Trackpoint>
          <Trackpoint>
            <Time>2020-01-19T11:18:06.000Z</Time>
            <Position>
              <LatitudeDegrees>38.94558110274374485015869140625</LatitudeDegrees>
              <LongitudeDegrees>-2.8573208861052989959716796875</LongitudeDegrees>
            </Position>
            <AltitudeMeters>824.4000244140625</AltitudeMeters>
            <DistanceMeters>68404.757522628</DistanceMeters>
          </Trackpoint>
          <Trackpoint>
            <Time>2020-01-19T11:18:10.000Z</Time>
            <Position>
              <LatitudeDegrees>38.945307768881320953369140625</LatitudeDegrees>
              <LongitudeDegrees>-2.85707923583686351776123046875</LongitudeDegrees>
            </Position>
            <AltitudeMeters>819.4000244140625</AltitudeMeters>
            <DistanceMeters>68441.677816497</DistanceMeters>
          </Trackpoint>
          <Trackpoint>
            <Time>2020-01-19T11:18:13.000Z</Time>
            <Position>
              <LatitudeDegrees>38.9450913481414318084716796875</LatitudeDegrees>
              <LongitudeDegrees>-2.85694755613803863525390625</LongitudeDegrees>
            </Position>
            <AltitudeMeters>817</AltitudeMeters>
            <DistanceMeters>68468.326668852</DistanceMeters>
          </Trackpoint>
          <Trackpoint>
            <Time>2020-01-19T11:18:15.000Z</Time>
            <Position>
              <LatitudeDegrees>38.94493871368467807769775390625</LatitudeDegrees>
              <LongitudeDegrees>-2.85692500881850719451904296875</LongitudeDegrees>
            </Position>
            <AltitudeMeters>816.79998779296875</AltitudeMeters>
            <DistanceMeters>68485.426989478</DistanceMeters>
          </Trackpoint>
          <Trackpoint>
            <Time>2020-01-19T11:18:17.000Z</Time>
            <Position>
              <LatitudeDegrees>38.94479957409203052520751953125</LatitudeDegrees>
              <LongitudeDegrees>-2.856917046010494232177734375</LongitudeDegrees>
            </Position>
            <AltitudeMeters>816.5999755859375</AltitudeMeters>
            <DistanceMeters>68500.928873051</DistanceMeters>
          </Trackpoint>
          <Trackpoint>
            <Time>2020-01-19T11:18:19.000Z</Time>
            <Position>
              <LatitudeDegrees>38.94467636011540889739990234375</LatitudeDegrees>
              <LongitudeDegrees>-2.85687471739947795867919921875</LongitudeDegrees>
            </Position>
            <AltitudeMeters>815.20001220703125</AltitudeMeters>
            <DistanceMeters>68515.124159446</DistanceMeters>
          </Trackpoint>
          <Trackpoint>
            <Time>2020-01-19T11:18:20.000Z</Time>
            <Position>
              <LatitudeDegrees>38.94461416639387607574462890625</LatitudeDegrees>
              <LongitudeDegrees>-2.856866084039211273193359375</LongitudeDegrees>
            </Position>
            <AltitudeMeters>815</AltitudeMeters>
            <DistanceMeters>68522.087095639</DistanceMeters>
          </Trackpoint>
          <Trackpoint>
            <Time>2020-01-19T11:18:21.000Z</Time>
            <Position>
              <LatitudeDegrees>38.944550044834613800048828125</LatitudeDegrees>
              <LongitudeDegrees>-2.85687019117176532745361328125</LongitudeDegrees>
            </Position>
            <AltitudeMeters>815.20001220703125</AltitudeMeters>
            <DistanceMeters>68529.233079287</DistanceMeters>
          </Trackpoint>
          <Trackpoint>
            <Time>2020-01-19T11:18:23.000Z</Time>
            <Position>
              <LatitudeDegrees>38.94442037679255008697509765625</LatitudeDegrees>
              <LongitudeDegrees>-2.85690707154572010040283203125</LongitudeDegrees>
            </Position>
            <AltitudeMeters>816.20001220703125</AltitudeMeters>
            <DistanceMeters>68544.014545034</DistanceMeters>
          </Trackpoint>
          <Trackpoint>
            <Time>2020-01-19T11:18:25.000Z</Time>
            <Position>
              <LatitudeDegrees>38.9442970789968967437744140625</LatitudeDegrees>
              <LongitudeDegrees>-2.85694378428161144256591796875</LongitudeDegrees>
            </Position>
            <AltitudeMeters>817.5999755859375</AltitudeMeters>
            <DistanceMeters>68558.10127389</DistanceMeters>
          </Trackpoint>
          <Trackpoint>
            <Time>2020-01-19T11:18:27.000Z</Time>
            <Position>
              <LatitudeDegrees>38.94417629577219486236572265625</LatitudeDegrees>
              <LongitudeDegrees>-2.85696901381015777587890625</LongitudeDegrees>
            </Position>
            <AltitudeMeters>818.5999755859375</AltitudeMeters>
            <DistanceMeters>68571.720959287</DistanceMeters>
          </Trackpoint>
          <Trackpoint>
            <Time>2020-01-19T11:18:28.000Z</Time>
            <Position>
              <LatitudeDegrees>38.9441203884780406951904296875</LatitudeDegrees>
              <LongitudeDegrees>-2.85697395913302898406982421875</LongitudeDegrees>
            </Position>
            <AltitudeMeters>819.20001220703125</AltitudeMeters>
            <DistanceMeters>68577.958795402</DistanceMeters>
          </Trackpoint>
          <Trackpoint>
            <Time>2020-01-19T11:18:30.000Z</Time>
            <Position>
              <LatitudeDegrees>38.944004885852336883544921875</LatitudeDegrees>
              <LongitudeDegrees>-2.8569777309894561767578125</LongitudeDegrees>
            </Position>
            <AltitudeMeters>820.4000244140625</AltitudeMeters>
            <DistanceMeters>68590.818687314</DistanceMeters>
          </Trackpoint>
          <Trackpoint>
            <Time>2020-01-19T11:18:32.000Z</Time>
            <Position>
              <LatitudeDegrees>38.9438964240252971649169921875</LatitudeDegrees>
              <LongitudeDegrees>-2.85701117478311061859130859375</LongitudeDegrees>
            </Position>
            <AltitudeMeters>822.4000244140625</AltitudeMeters>
            <DistanceMeters>68603.233046527</DistanceMeters>
          </Trackpoint>
          <Trackpoint>
            <Time>2020-01-19T11:18:36.000Z</Time>
            <Position>
              <LatitudeDegrees>38.9437073282897472381591796875</LatitudeDegrees>
              <LongitudeDegrees>-2.8571150265634059906005859375</LongitudeDegrees>
            </Position>
            <AltitudeMeters>826.5999755859375</AltitudeMeters>
            <DistanceMeters>68626.119693599</DistanceMeters>
          </Trackpoint>
          <Trackpoint>
            <Time>2020-01-19T11:18:38.000Z</Time>
            <Position>
              <LatitudeDegrees>38.943596519529819488525390625</LatitudeDegrees>
              <LongitudeDegrees>-2.857098095118999481201171875</LongitudeDegrees>
            </Position>
            <AltitudeMeters>827.4000244140625</AltitudeMeters>
            <DistanceMeters>68638.540234086</DistanceMeters>
          </Trackpoint>
          <Trackpoint>
            <Time>2020-01-19T11:18:40.000Z</Time>
            <Position>
              <LatitudeDegrees>38.94350297749042510986328125</LatitudeDegrees>
              <LongitudeDegrees>-2.8570335544645786285400390625</LongitudeDegrees>
            </Position>
            <AltitudeMeters>827.5999755859375</AltitudeMeters>
            <DistanceMeters>68650.356453531</DistanceMeters>
          </Trackpoint>
          <Trackpoint>
            <Time>2020-01-19T11:18:43.000Z</Time>
            <Position>
              <LatitudeDegrees>38.9433951862156391143798828125</LatitudeDegrees>
              <LongitudeDegrees>-2.85689567215740680694580078125</LongitudeDegrees>
            </Position>
            <AltitudeMeters>826.5999755859375</AltitudeMeters>
            <DistanceMeters>68667.27974826</DistanceMeters>
          </Trackpoint>
          <Trackpoint>
            <Time>2020-01-19T11:18:45.000Z</Time>
            <Position>
              <LatitudeDegrees>38.9433106966316699981689453125</LatitudeDegrees>
              <LongitudeDegrees>-2.856831885874271392822265625</LongitudeDegrees>
            </Position>
            <AltitudeMeters>824.4000244140625</AltitudeMeters>
            <DistanceMeters>68678.185072958</DistanceMeters>
          </Trackpoint>
          <Trackpoint>
            <Time>2020-01-19T11:18:50.000Z</Time>
            <Position>
              <LatitudeDegrees>38.94306351430714130401611328125</LatitudeDegrees>
              <LongitudeDegrees>-2.8567284531891345977783203125</LongitudeDegrees>
            </Position>
            <AltitudeMeters>821.4000244140625</AltitudeMeters>
            <DistanceMeters>68707.117235445</DistanceMeters>
          </Trackpoint>
          <Trackpoint>
            <Time>2020-01-19T11:18:59.000Z</Time>
            <Position>
              <LatitudeDegrees>38.9426019228994846343994140625</LatitudeDegrees>
              <LongitudeDegrees>-2.85666567273437976837158203125</LongitudeDegrees>
            </Position>
            <AltitudeMeters>820.4000244140625</AltitudeMeters>
            <DistanceMeters>68758.779966255</DistanceMeters>
          </Trackpoint>
          <Trackpoint>
            <Time>2020-01-19T11:19:00.000Z</Time>
            <Position>
              <LatitudeDegrees>38.94254953600466251373291015625</LatitudeDegrees>
              <LongitudeDegrees>-2.8566746413707733154296875</LongitudeDegrees>
            </Position>
            <AltitudeMeters>820.20001220703125</AltitudeMeters>
            <DistanceMeters>68764.662419224</DistanceMeters>
          </Trackpoint>
          <Trackpoint>
            <Time>2020-01-19T11:19:03.000Z</Time>
            <Position>
              <LatitudeDegrees>38.94239832647144794464111328125</LatitudeDegrees>
              <LongitudeDegrees>-2.8567173890769481658935546875</LongitudeDegrees>
            </Position>
            <AltitudeMeters>819.79998779296875</AltitudeMeters>
            <DistanceMeters>68781.894512358</DistanceMeters>
          </Trackpoint>
          <Trackpoint>
            <Time>2020-01-19T11:19:05.000Z</Time>
            <Position>
              <LatitudeDegrees>38.94229690544307231903076171875</LatitudeDegrees>
              <LongitudeDegrees>-2.85672317259013652801513671875</LongitudeDegrees>
            </Position>
            <AltitudeMeters>819.4000244140625</AltitudeMeters>
            <DistanceMeters>68793.193903972</DistanceMeters>
          </Trackpoint>
          <Trackpoint>
            <Time>2020-01-19T11:19:08.000Z</Time>
            <Position>
              <LatitudeDegrees>38.94214821048080921173095703125</LatitudeDegrees>
              <LongitudeDegrees>-2.85670422948896884918212890625</LongitudeDegrees>
            </Position>
            <AltitudeMeters>818.20001220703125</AltitudeMeters>
            <DistanceMeters>68809.824936456</DistanceMeters>
          </Trackpoint>
          <Trackpoint>
            <Time>2020-01-19T11:19:10.000Z</Time>
            <Position>
              <LatitudeDegrees>38.9420463703572750091552734375</LatitudeDegrees>
              <LongitudeDegrees>-2.85671764053404331207275390625</LongitudeDegrees>
            </Position>
            <AltitudeMeters>817.79998779296875</AltitudeMeters>
            <DistanceMeters>68821.219428069</DistanceMeters>
          </Trackpoint>
          <Trackpoint>
            <Time>2020-01-19T11:19:12.000Z</Time>
            <Position>
              <LatitudeDegrees>38.9419481344521045684814453125</LatitudeDegrees>
              <LongitudeDegrees>-2.85674429498612880706787109375</LongitudeDegrees>
            </Position>
            <AltitudeMeters>817.79998779296875</AltitudeMeters>
            <DistanceMeters>68832.394666644</DistanceMeters>
          </Trackpoint>
          <Trackpoint>
            <Time>2020-01-19T11:19:19.000Z</Time>
            <Position>
              <LatitudeDegrees>38.9416054822504520416259765625</LatitudeDegrees>
              <LongitudeDegrees>-2.85687572322785854339599609375</LongitudeDegrees>
            </Position>
            <AltitudeMeters>820.79998779296875</AltitudeMeters>
            <DistanceMeters>68872.193506437</DistanceMeters>
          </Trackpoint>
          <Trackpoint>
            <Time>2020-01-19T11:19:20.000Z</Time>
            <Position>
              <LatitudeDegrees>38.941557705402374267578125</LatitudeDegrees>
              <LongitudeDegrees>-2.856876142323017120361328125</LongitudeDegrees>
            </Position>
            <AltitudeMeters>821.20001220703125</AltitudeMeters>
            <DistanceMeters>68877.511607548</DistanceMeters>
          </Trackpoint>
          <Trackpoint>
            <Time>2020-01-19T11:19:21.000Z</Time>
            <Position>
              <LatitudeDegrees>38.94150548614561557769775390625</LatitudeDegrees>
              <LongitudeDegrees>-2.85686650313436985015869140625</LongitudeDegrees>
            </Position>
            <AltitudeMeters>821.5999755859375</AltitudeMeters>
            <DistanceMeters>68883.383305076</DistanceMeters>
          </Trackpoint>
          <Trackpoint>
            <Time>2020-01-19T11:19:26.000Z</Time>
            <Position>
              <LatitudeDegrees>38.941269032657146453857421875</LatitudeDegrees>
              <LongitudeDegrees>-2.85673105157911777496337890625</LongitudeDegrees>
            </Position>
            <AltitudeMeters>822.4000244140625</AltitudeMeters>
            <DistanceMeters>68912.195053849</DistanceMeters>
          </Trackpoint>
          <Trackpoint>
            <Time>2020-01-19T11:19:28.000Z</Time>
            <Position>
              <LatitudeDegrees>38.941201306879520416259765625</LatitudeDegrees>
              <LongitudeDegrees>-2.856646142899990081787109375</LongitudeDegrees>
            </Position>
            <AltitudeMeters>822.4000244140625</AltitudeMeters>
            <DistanceMeters>68922.723739352</DistanceMeters>
          </Trackpoint>
          <Trackpoint>
            <Time>2020-01-19T11:19:30.000Z</Time>
            <Position>
              <LatitudeDegrees>38.94113190472126007080078125</LatitudeDegrees>
              <LongitudeDegrees>-2.8565531037747859954833984375</LongitudeDegrees>
            </Position>
            <AltitudeMeters>821.79998779296875</AltitudeMeters>
            <DistanceMeters>68933.88320996</DistanceMeters>
          </Trackpoint>
          <Trackpoint>
            <Time>2020-01-19T11:19:34.000Z</Time>
            <Position>
              <LatitudeDegrees>38.940945826470851898193359375</LatitudeDegrees>
              <LongitudeDegrees>-2.856418825685977935791015625</LongitudeDegrees>
            </Position>
            <AltitudeMeters>823.4000244140625</AltitudeMeters>
            <DistanceMeters>68957.633425856</DistanceMeters>
          </Trackpoint>
          <Trackpoint>
            <Time>2020-01-19T11:19:38.000Z</Time>
            <Position>
              <LatitudeDegrees>38.940781541168689727783203125</LatitudeDegrees>
              <LongitudeDegrees>-2.856228053569793701171875</LongitudeDegrees>
            </Position>
            <AltitudeMeters>825</AltitudeMeters>
            <DistanceMeters>68982.272663656</DistanceMeters>
          </Trackpoint>
          <Trackpoint>
            <Time>2020-01-19T11:19:40.000Z</Time>
            <Position>
              <LatitudeDegrees>38.940722532570362091064453125</LatitudeDegrees>
              <LongitudeDegrees>-2.85610408522188663482666015625</LongitudeDegrees>
            </Position>
            <AltitudeMeters>823.5999755859375</AltitudeMeters>
            <DistanceMeters>68994.855004464</DistanceMeters>
          </Trackpoint>
          <Trackpoint>
            <Time>2020-01-19T11:19:46.000Z</Time>
            <Position>
              <LatitudeDegrees>38.9405285753309726715087890625</LatitudeDegrees>
              <LongitudeDegrees>-2.85576377995312213897705078125</LongitudeDegrees>
            </Position>
            <AltitudeMeters>821</AltitudeMeters>
            <DistanceMeters>69031.378284472</DistanceMeters>
          </Trackpoint>
          <Trackpoint>
            <Time>2020-01-19T11:19:48.000Z</Time>
            <Position>
              <LatitudeDegrees>38.94044366665184497833251953125</LatitudeDegrees>
              <LongitudeDegrees>-2.85568918101489543914794921875</LongitudeDegrees>
            </Position>
            <AltitudeMeters>821.5999755859375</AltitudeMeters>
            <DistanceMeters>69042.824172338</DistanceMeters>
          </Trackpoint>
          <Trackpoint>
            <Time>2020-01-19T11:19:50.000Z</Time>
            <Position>
              <LatitudeDegrees>38.94035129807889461517333984375</LatitudeDegrees>
              <LongitudeDegrees>-2.85563972778618335723876953125</LongitudeDegrees>
            </Position>
            <AltitudeMeters>820.79998779296875</AltitudeMeters>
            <DistanceMeters>69053.960557294</DistanceMeters>
          </Trackpoint>
          <Trackpoint>
            <Time>2020-01-19T11:19:57.000Z</Time>
            <Position>
              <LatitudeDegrees>38.93999339081346988677978515625</LatitudeDegrees>
              <LongitudeDegrees>-2.85550452768802642822265625</LongitudeDegrees>
            </Position>
            <AltitudeMeters>823.5999755859375</AltitudeMeters>
            <DistanceMeters>69095.480272413</DistanceMeters>
          </Trackpoint>
          <Trackpoint>
            <Time>2020-01-19T11:20:00.000Z</Time>
            <Position>
              <LatitudeDegrees>38.939848802983760833740234375</LatitudeDegrees>
              <LongitudeDegrees>-2.85549723543226718902587890625</LongitudeDegrees>
            </Position>
            <AltitudeMeters>826.4000244140625</AltitudeMeters>
            <DistanceMeters>69111.585548436</DistanceMeters>
          </Trackpoint>
          <Trackpoint>
            <Time>2020-01-19T11:20:02.000Z</Time>
            <Position>
              <LatitudeDegrees>38.93975635059177875518798828125</LatitudeDegrees>
              <LongitudeDegrees>-2.85549438558518886566162109375</LongitudeDegrees>
            </Position>
            <AltitudeMeters>828</AltitudeMeters>
            <DistanceMeters>69121.878744582</DistanceMeters>
          </Trackpoint>
          <Trackpoint>
            <Time>2020-01-19T11:20:05.000Z</Time>
            <Position>
              <LatitudeDegrees>38.939622826874256134033203125</LatitudeDegrees>
              <LongitudeDegrees>-2.85545834340155124664306640625</LongitudeDegrees>
            </Position>
            <AltitudeMeters>829.79998779296875</AltitudeMeters>
            <DistanceMeters>69137.064001645</DistanceMeters>
          </Trackpoint>
          <Trackpoint>
            <Time>2020-01-19T11:20:10.000Z</Time>
            <Position>
              <LatitudeDegrees>38.93940053880214691162109375</LatitudeDegrees>
              <LongitudeDegrees>-2.85531166009604930877685546875</LongitudeDegrees>
            </Position>
            <AltitudeMeters>831.20001220703125</AltitudeMeters>
            <DistanceMeters>69164.873565953</DistanceMeters>
          </Trackpoint>
          <Trackpoint>
            <Time>2020-01-19T11:20:12.000Z</Time>
            <Position>
              <LatitudeDegrees>38.939326442778110504150390625</LatitudeDegrees>
              <LongitudeDegrees>-2.85523873753845691680908203125</LongitudeDegrees>
            </Position>
            <AltitudeMeters>832.79998779296875</AltitudeMeters>
            <DistanceMeters>69175.259338101</DistanceMeters>
          </Trackpoint>
          <Trackpoint>
            <Time>2020-01-19T11:20:14.000Z</Time>
            <Position>
              <LatitudeDegrees>38.93927321769297122955322265625</LatitudeDegrees>
              <LongitudeDegrees>-2.8551399149000644683837890625</LongitudeDegrees>
            </Position>
            <AltitudeMeters>833.20001220703125</AltitudeMeters>
            <DistanceMeters>69185.665522643</DistanceMeters>
          </Trackpoint>
          <Trackpoint>
            <Time>2020-01-19T11:20:17.000Z</Time>
            <Position>
              <LatitudeDegrees>38.93919828347861766815185546875</LatitudeDegrees>
              <LongitudeDegrees>-2.85494687967002391815185546875</LongitudeDegrees>
            </Position>
            <AltitudeMeters>832.4000244140625</AltitudeMeters>
            <DistanceMeters>69204.342563443</DistanceMeters>
          </Trackpoint>
          <Trackpoint>
            <Time>2020-01-19T11:20:20.000Z</Time>
            <Position>
              <LatitudeDegrees>38.93910826183855533599853515625</LatitudeDegrees>
              <LongitudeDegrees>-2.854782678186893463134765625</LongitudeDegrees>
            </Position>
            <AltitudeMeters>833.20001220703125</AltitudeMeters>
            <DistanceMeters>69221.734269528</DistanceMeters>
          </Trackpoint>
          <Trackpoint>
            <Time>2020-01-19T11:20:30.000Z</Time>
            <Position>
              <LatitudeDegrees>38.9387703873217105865478515625</LatitudeDegrees>
              <LongitudeDegrees>-2.8542417101562023162841796875</LongitudeDegrees>
            </Position>
            <AltitudeMeters>829</AltitudeMeters>
            <DistanceMeters>69281.797167058</DistanceMeters>
          </Trackpoint>
          <Trackpoint>
            <Time>2020-01-19T11:20:40.000Z</Time>
            <Position>
              <LatitudeDegrees>38.938450030982494354248046875</LatitudeDegrees>
              <LongitudeDegrees>-2.85375279374420642852783203125</LongitudeDegrees>
            </Position>
            <AltitudeMeters>825.4000244140625</AltitudeMeters>
            <DistanceMeters>69337.141071414</DistanceMeters>
          </Trackpoint>
          <Trackpoint>
            <Time>2020-01-19T11:20:43.000Z</Time>
            <Position>
              <LatitudeDegrees>38.93834969960153102874755859375</LatitudeDegrees>
              <LongitudeDegrees>-2.85364030860364437103271484375</LongitudeDegrees>
            </Position>
            <AltitudeMeters>824.4000244140625</AltitudeMeters>
            <DistanceMeters>69351.957927306</DistanceMeters>
          </Trackpoint>
          <Trackpoint>
            <Time>2020-01-19T11:20:48.000Z</Time>
            <Position>
              <LatitudeDegrees>38.93817569129168987274169921875</LatitudeDegrees>
              <LongitudeDegrees>-2.85349714569747447967529296875</LongitudeDegrees>
            </Position>
            <AltitudeMeters>821.79998779296875</AltitudeMeters>
            <DistanceMeters>69374.951446952</DistanceMeters>
          </Trackpoint>
          <Trackpoint>
            <Time>2020-01-19T11:20:50.000Z</Time>
            <Position>
              <LatitudeDegrees>38.9380961470305919647216796875</LatitudeDegrees>
              <LongitudeDegrees>-2.85345573909580707550048828125</LongitudeDegrees>
            </Position>
            <AltitudeMeters>821.20001220703125</AltitudeMeters>
            <DistanceMeters>69384.502459057</DistanceMeters>
          </Trackpoint>
          <Trackpoint>
            <Time>2020-01-19T11:20:53.000Z</Time>
            <Position>
              <LatitudeDegrees>38.93797695636749267578125</LatitudeDegrees>
              <LongitudeDegrees>-2.85342338494956493377685546875</LongitudeDegrees>
            </Position>
            <AltitudeMeters>821.20001220703125</AltitudeMeters>
            <DistanceMeters>69398.061009726</DistanceMeters>
          </Trackpoint>
          <Trackpoint>
            <Time>2020-01-19T11:20:57.000Z</Time>
            <Position>
              <LatitudeDegrees>38.93781669437885284423828125</LatitudeDegrees>
              <LongitudeDegrees>-2.8533733449876308441162109375</LongitudeDegrees>
            </Position>
            <AltitudeMeters>821.5999755859375</AltitudeMeters>
            <DistanceMeters>69416.417160533</DistanceMeters>
          </Trackpoint>
          <Trackpoint>
            <Time>2020-01-19T11:20:59.000Z</Time>
            <Position>
              <LatitudeDegrees>38.93773731775581836700439453125</LatitudeDegrees>
              <LongitudeDegrees>-2.853309474885463714599609375</LongitudeDegrees>
            </Position>
            <AltitudeMeters>822.5999755859375</AltitudeMeters>
            <DistanceMeters>69426.839819484</DistanceMeters>
          </Trackpoint>
          <Trackpoint>
            <Time>2020-01-19T11:21:00.000Z</Time>
            <Position>
              <LatitudeDegrees>38.937705717980861663818359375</LatitudeDegrees>
              <LongitudeDegrees>-2.85326479934155941009521484375</LongitudeDegrees>
            </Position>
            <AltitudeMeters>822.79998779296875</AltitudeMeters>
            <DistanceMeters>69432.068016247</DistanceMeters>
          </Trackpoint>
          <Trackpoint>
            <Time>2020-01-19T11:21:06.000Z</Time>
            <Position>
              <LatitudeDegrees>38.93753950484097003936767578125</LatitudeDegrees>
              <LongitudeDegrees>-2.85301099531352519989013671875</LongitudeDegrees>
            </Position>
            <AltitudeMeters>824.20001220703125</AltitudeMeters>
            <DistanceMeters>69460.791717166</DistanceMeters>
          </Trackpoint>
          <Trackpoint>
            <Time>2020-01-19T11:21:10.000Z</Time>
            <Position>
              <LatitudeDegrees>38.93739600665867328643798828125</LatitudeDegrees>
              <LongitudeDegrees>-2.85293824039399623870849609375</LongitudeDegrees>
            </Position>
            <AltitudeMeters>824.4000244140625</AltitudeMeters>
            <DistanceMeters>69477.960811942</DistanceMeters>
          </Trackpoint>
          <Trackpoint>
            <Time>2020-01-19T11:21:19.000Z</Time>
            <Position>
              <LatitudeDegrees>38.93711906857788562774658203125</LatitudeDegrees>
              <LongitudeDegrees>-2.8530766256153583526611328125</LongitudeDegrees>
            </Position>
            <AltitudeMeters>823.79998779296875</AltitudeMeters>
            <DistanceMeters>69511.031064258</DistanceMeters>
          </Trackpoint>
          <Trackpoint>
            <Time>2020-01-19T11:21:20.000Z</Time>
            <Position>
              <LatitudeDegrees>38.937086798250675201416015625</LatitudeDegrees>
              <LongitudeDegrees>-2.85309724509716033935546875</LongitudeDegrees>
            </Position>
            <AltitudeMeters>823.79998779296875</AltitudeMeters>
            <DistanceMeters>69515.042497446</DistanceMeters>
          </Trackpoint>
          <Trackpoint>
            <Time>2020-01-19T11:21:30.000Z</Time>
            <Position>
              <LatitudeDegrees>38.9367416314780712127685546875</LatitudeDegrees>
              <LongitudeDegrees>-2.85328424535691738128662109375</LongitudeDegrees>
            </Position>
            <AltitudeMeters>823.4000244140625</AltitudeMeters>
            <DistanceMeters>69556.732050252</DistanceMeters>
          </Trackpoint>
          <Trackpoint>
            <Time>2020-01-19T11:21:40.000Z</Time>
            <Position>
              <LatitudeDegrees>38.9364630170166492462158203125</LatitudeDegrees>
              <LongitudeDegrees>-2.85311493091285228729248046875</LongitudeDegrees>
            </Position>
            <AltitudeMeters>828.79998779296875</AltitudeMeters>
            <DistanceMeters>69591.032350538</DistanceMeters>
          </Trackpoint>
          <Trackpoint>
            <Time>2020-01-19T11:21:50.000Z</Time>
            <Position>
              <LatitudeDegrees>38.93614760600030422210693359375</LatitudeDegrees>
              <LongitudeDegrees>-2.85303832031786441802978515625</LongitudeDegrees>
            </Position>
            <AltitudeMeters>831.4000244140625</AltitudeMeters>
            <DistanceMeters>69626.759362245</DistanceMeters>
          </Trackpoint>
          <Trackpoint>
            <Time>2020-01-19T11:22:00.000Z</Time>
            <Position>
              <LatitudeDegrees>38.935826160013675689697265625</LatitudeDegrees>
              <LongitudeDegrees>-2.8530159406363964080810546875</LongitudeDegrees>
            </Position>
            <AltitudeMeters>833.79998779296875</AltitudeMeters>
            <DistanceMeters>69662.589348401</DistanceMeters>
          </Trackpoint>
          <Trackpoint>
            <Time>2020-01-19T11:22:10.000Z</Time>
            <Position>
              <LatitudeDegrees>38.935515023767948150634765625</LatitudeDegrees>
              <LongitudeDegrees>-2.8529220633208751678466796875</LongitudeDegrees>
            </Position>
            <AltitudeMeters>835.20001220703125</AltitudeMeters>
            <DistanceMeters>69698.160324088</DistanceMeters>
          </Trackpoint>
          <Trackpoint>
            <Time>2020-01-19T11:22:20.000Z</Time>
            <Position>
              <LatitudeDegrees>38.93528393469750881195068359375</LatitudeDegrees>
              <LongitudeDegrees>-2.85271796397864818572998046875</LongitudeDegrees>
            </Position>
            <AltitudeMeters>834.79998779296875</AltitudeMeters>
            <DistanceMeters>69729.366003277</DistanceMeters>
          </Trackpoint>
          <Trackpoint>
            <Time>2020-01-19T11:22:30.000Z</Time>
            <Position>
              <LatitudeDegrees>38.93502593971788883209228515625</LatitudeDegrees>
              <LongitudeDegrees>-2.85271997563540935516357421875</LongitudeDegrees>
            </Position>
            <AltitudeMeters>835.5999755859375</AltitudeMeters>
            <DistanceMeters>69758.082000921</DistanceMeters>
          </Trackpoint>
          <Trackpoint>
            <Time>2020-01-19T11:22:40.000Z</Time>
            <Position>
              <LatitudeDegrees>38.93480457365512847900390625</LatitudeDegrees>
              <LongitudeDegrees>-2.85269365645945072174072265625</LongitudeDegrees>
            </Position>
            <AltitudeMeters>836.4000244140625</AltitudeMeters>
            <DistanceMeters>69782.825833345</DistanceMeters>
          </Trackpoint>
          <Trackpoint>
            <Time>2020-01-19T11:22:41.000Z</Time>
            <Position>
              <LatitudeDegrees>38.93478018231689929962158203125</LatitudeDegrees>
              <LongitudeDegrees>-2.852692566812038421630859375</LongitudeDegrees>
            </Position>
            <AltitudeMeters>836.4000244140625</AltitudeMeters>
            <DistanceMeters>69785.543663828</DistanceMeters>
          </Trackpoint>
          <Trackpoint>
            <Time>2020-01-19T11:22:46.000Z</Time>
            <Position>
              <LatitudeDegrees>38.93465545959770679473876953125</LatitudeDegrees>
              <LongitudeDegrees>-2.8526907227933406829833984375</LongitudeDegrees>
            </Position>
            <AltitudeMeters>837</AltitudeMeters>
            <DistanceMeters>69799.426673286</DistanceMeters>
          </Trackpoint>
          <Trackpoint>
            <Time>2020-01-19T11:22:56.000Z</Time>
            <Position>
              <LatitudeDegrees>38.93440802581608295440673828125</LatitudeDegrees>
              <LongitudeDegrees>-2.852810919284820556640625</LongitudeDegrees>
            </Position>
            <AltitudeMeters>837.5999755859375</AltitudeMeters>
            <DistanceMeters>69828.867170181</DistanceMeters>
          </Trackpoint>
          <Trackpoint>
            <Time>2020-01-19T11:23:00.000Z</Time>
            <Position>
              <LatitudeDegrees>38.9342827163636684417724609375</LatitudeDegrees>
              <LongitudeDegrees>-2.8528939001262187957763671875</LongitudeDegrees>
            </Position>
            <AltitudeMeters>839</AltitudeMeters>
            <DistanceMeters>69844.556077845</DistanceMeters>
          </Trackpoint>
          <Trackpoint>
            <Time>2020-01-19T11:23:06.000Z</Time>
            <Position>
              <LatitudeDegrees>38.934078700840473175048828125</LatitudeDegrees>
              <LongitudeDegrees>-2.85290404222905635833740234375</LongitudeDegrees>
            </Position>
            <AltitudeMeters>841.20001220703125</AltitudeMeters>
            <DistanceMeters>69867.280380949</DistanceMeters>
          </Trackpoint>
          <Trackpoint>
            <Time>2020-01-19T11:23:16.000Z</Time>
            <Position>
              <LatitudeDegrees>38.93381039611995220184326171875</LatitudeDegrees>
              <LongitudeDegrees>-2.85293287597596645355224609375</LongitudeDegrees>
            </Position>
            <AltitudeMeters>842.20001220703125</AltitudeMeters>
            <DistanceMeters>69897.247413538</DistanceMeters>
          </Trackpoint>
          <Trackpoint>
            <Time>2020-01-19T11:23:26.000Z</Time>
            <Position>
              <LatitudeDegrees>38.9335311949253082275390625</LatitudeDegrees>
              <LongitudeDegrees>-2.852891720831394195556640625</LongitudeDegrees>
            </Position>
            <AltitudeMeters>842.5999755859375</AltitudeMeters>
            <DistanceMeters>69928.526651421</DistanceMeters>
          </Trackpoint>
          <Trackpoint>
            <Time>2020-01-19T11:23:36.000Z</Time>
            <Position>
              <LatitudeDegrees>38.93325853161513805389404296875</LatitudeDegrees>
              <LongitudeDegrees>-2.85282634198665618896484375</LongitudeDegrees>
            </Position>
            <AltitudeMeters>843.20001220703125</AltitudeMeters>
            <DistanceMeters>69959.39790452</DistanceMeters>
          </Trackpoint>
          <Trackpoint>
            <Time>2020-01-19T11:23:46.000Z</Time>
            <Position>
              <LatitudeDegrees>38.93298737704753875732421875</LatitudeDegrees>
              <LongitudeDegrees>-2.8527867794036865234375</LongitudeDegrees>
            </Position>
            <AltitudeMeters>842.79998779296875</AltitudeMeters>
            <DistanceMeters>69989.771689104</DistanceMeters>
          </Trackpoint>
          <Trackpoint>
            <Time>2020-01-19T11:23:56.000Z</Time>
            <Position>
              <LatitudeDegrees>38.932713456451892852783203125</LatitudeDegrees>
              <LongitudeDegrees>-2.85273120738565921783447265625</LongitudeDegrees>
            </Position>
            <AltitudeMeters>842.4000244140625</AltitudeMeters>
            <DistanceMeters>70020.636945215</DistanceMeters>
          </Trackpoint>
          <Trackpoint>
            <Time>2020-01-19T11:24:06.000Z</Time>
            <Position>
              <LatitudeDegrees>38.93244045786559581756591796875</LatitudeDegrees>
              <LongitudeDegrees>-2.85266448743641376495361328125</LongitudeDegrees>
            </Position>
            <AltitudeMeters>843.5999755859375</AltitudeMeters>
            <DistanceMeters>70051.566352553</DistanceMeters>
          </Trackpoint>
          <Trackpoint>
            <Time>2020-01-19T11:24:16.000Z</Time>
            <Position>
              <LatitudeDegrees>38.9321698062121868133544921875</LatitudeDegrees>
              <LongitudeDegrees>-2.85272986628115177154541015625</LongitudeDegrees>
            </Position>
            <AltitudeMeters>846.5999755859375</AltitudeMeters>
            <DistanceMeters>70082.217439862</DistanceMeters>
          </Trackpoint>
          <Trackpoint>
            <Time>2020-01-19T11:24:22.000Z</Time>
            <Position>
              <LatitudeDegrees>38.93202153034508228302001953125</LatitudeDegrees>
              <LongitudeDegrees>-2.852734811604022979736328125</LongitudeDegrees>
            </Position>
            <AltitudeMeters>847.79998779296875</AltitudeMeters>
            <DistanceMeters>70098.726400073</DistanceMeters>
          </Trackpoint>
          <Trackpoint>
            <Time>2020-01-19T11:24:26.000Z</Time>
            <Position>
              <LatitudeDegrees>38.93194810487329959869384765625</LatitudeDegrees>
              <LongitudeDegrees>-2.852644957602024078369140625</LongitudeDegrees>
            </Position>
            <AltitudeMeters>847</AltitudeMeters>
            <DistanceMeters>70110.009396913</DistanceMeters>
          </Trackpoint>
          <Trackpoint>
            <Time>2020-01-19T11:24:36.000Z</Time>
            <Position>
              <LatitudeDegrees>38.93181516788899898529052734375</LatitudeDegrees>
              <LongitudeDegrees>-2.85234220325946807861328125</LongitudeDegrees>
            </Position>
            <AltitudeMeters>847.5999755859375</AltitudeMeters>
            <DistanceMeters>70140.109924319</DistanceMeters>
          </Trackpoint>
          <Trackpoint>
            <Time>2020-01-19T11:24:46.000Z</Time>
            <Position>
              <LatitudeDegrees>38.9316142536699771881103515625</LatitudeDegrees>
              <LongitudeDegrees>-2.852145396173000335693359375</LongitudeDegrees>
            </Position>
            <AltitudeMeters>849.79998779296875</AltitudeMeters>
            <DistanceMeters>70168.224345019</DistanceMeters>
          </Trackpoint>
          <Trackpoint>
            <Time>2020-01-19T11:24:54.000Z</Time>
            <Position>
              <LatitudeDegrees>38.93151710741221904754638671875</LatitudeDegrees>
              <LongitudeDegrees>-2.85206903703510761260986328125</LongitudeDegrees>
            </Position>
            <AltitudeMeters>850.79998779296875</AltitudeMeters>
            <DistanceMeters>70180.898215769</DistanceMeters>
          </Trackpoint>
          <Trackpoint>
            <Time>2020-01-19T11:25:04.000Z</Time>
            <Position>
              <LatitudeDegrees>38.931453488767147064208984375</LatitudeDegrees>
              <LongitudeDegrees>-2.85192671231925487518310546875</LongitudeDegrees>
            </Position>
            <AltitudeMeters>853</AltitudeMeters>
            <DistanceMeters>70195.110349665</DistanceMeters>
          </Trackpoint>
          <Trackpoint>
            <Time>2020-01-19T11:25:06.000Z</Time>
            <Position>
              <LatitudeDegrees>38.931438066065311431884765625</LatitudeDegrees>
              <LongitudeDegrees>-2.851897291839122772216796875</LongitudeDegrees>
            </Position>
            <AltitudeMeters>853.4000244140625</AltitudeMeters>
            <DistanceMeters>70198.180756773</DistanceMeters>
          </Trackpoint>
          <Trackpoint>
            <Time>2020-01-19T11:25:16.000Z</Time>
            <Position>
              <LatitudeDegrees>38.93140747211873531341552734375</LatitudeDegrees>
              <LongitudeDegrees>-2.8517207689583301544189453125</LongitudeDegrees>
            </Position>
            <AltitudeMeters>855.4000244140625</AltitudeMeters>
            <DistanceMeters>70213.839129473</DistanceMeters>
          </Trackpoint>
          <Trackpoint>
            <Time>2020-01-19T11:25:23.000Z</Time>
            <Position>
              <LatitudeDegrees>38.93138919956982135772705078125</LatitudeDegrees>
              <LongitudeDegrees>-2.85159386694431304931640625</LongitudeDegrees>
            </Position>
            <AltitudeMeters>857.5999755859375</AltitudeMeters>
            <DistanceMeters>70225.013155918</DistanceMeters>
          </Trackpoint>
          <Trackpoint>
            <Time>2020-01-19T11:25:26.000Z</Time>
            <Position>
              <LatitudeDegrees>38.931397497653961181640625</LatitudeDegrees>
              <LongitudeDegrees>-2.85153863020241260528564453125</LongitudeDegrees>
            </Position>
            <AltitudeMeters>858.4000244140625</AltitudeMeters>
            <DistanceMeters>70229.882753513</DistanceMeters>
          </Trackpoint>
          <Trackpoint>
            <Time>2020-01-19T11:25:36.000Z</Time>
            <Position>
              <LatitudeDegrees>38.9314140938222408294677734375</LatitudeDegrees>
              <LongitudeDegrees>-2.85137333907186985015869140625</LongitudeDegrees>
            </Position>
            <AltitudeMeters>860.79998779296875</AltitudeMeters>
            <DistanceMeters>70244.312427891</DistanceMeters>
          </Trackpoint>
          <Trackpoint>
            <Time>2020-01-19T11:25:46.000Z</Time>
            <Position>
              <LatitudeDegrees>38.93136153928935527801513671875</LatitudeDegrees>
              <LongitudeDegrees>-2.85121961496770381927490234375</LongitudeDegrees>
            </Position>
            <AltitudeMeters>863</AltitudeMeters>
            <DistanceMeters>70258.850583525</DistanceMeters>
          </Trackpoint>
          <Trackpoint>
            <Time>2020-01-19T11:25:50.000Z</Time>
            <Position>
              <LatitudeDegrees>38.9313594438135623931884765625</LatitudeDegrees>
              <LongitudeDegrees>-2.85116471350193023681640625</LongitudeDegrees>
            </Position>
            <AltitudeMeters>863.5999755859375</AltitudeMeters>
            <DistanceMeters>70263.609515309</DistanceMeters>
          </Trackpoint>
          <Trackpoint>
            <Time>2020-01-19T11:25:56.000Z</Time>
            <Position>
              <LatitudeDegrees>38.93139305524528026580810546875</LatitudeDegrees>
              <LongitudeDegrees>-2.85106773488223552703857421875</LongitudeDegrees>
            </Position>
            <AltitudeMeters>864.5999755859375</AltitudeMeters>
            <DistanceMeters>70272.801600235</DistanceMeters>
          </Trackpoint>
          <Trackpoint>
            <Time>2020-01-19T11:25:58.000Z</Time>
            <Position>
              <LatitudeDegrees>38.93139892257750034332275390625</LatitudeDegrees>
              <LongitudeDegrees>-2.85103739239275455474853515625</LongitudeDegrees>
            </Position>
            <AltitudeMeters>864.79998779296875</AltitudeMeters>
            <DistanceMeters>70275.507776873</DistanceMeters>
          </Trackpoint>
          <Trackpoint>
            <Time>2020-01-19T11:26:06.000Z</Time>
            <Position>
              <LatitudeDegrees>38.93135868944227695465087890625</LatitudeDegrees>
              <LongitudeDegrees>-2.8509318642318248748779296875</LongitudeDegrees>
            </Position>
            <AltitudeMeters>866.4000244140625</AltitudeMeters>
            <DistanceMeters>70285.683181361</DistanceMeters>
          </Trackpoint>
          <Trackpoint>
            <Time>2020-01-19T11:26:14.000Z</Time>
            <Position>
              <LatitudeDegrees>38.931328095495700836181640625</LatitudeDegrees>
              <LongitudeDegrees>-2.85081460140645503997802734375</LongitudeDegrees>
            </Position>
            <AltitudeMeters>868.4000244140625</AltitudeMeters>
            <DistanceMeters>70296.392148204</DistanceMeters>
          </Trackpoint>
          <Trackpoint>
            <Time>2020-01-19T11:26:16.000Z</Time>
            <Position>
              <LatitudeDegrees>38.93130789510905742645263671875</LatitudeDegrees>
              <LongitudeDegrees>-2.8508001007139682769775390625</LongitudeDegrees>
            </Position>
            <AltitudeMeters>868.79998779296875</AltitudeMeters>
            <DistanceMeters>70298.966653227</DistanceMeters>
          </Trackpoint>
          <Trackpoint>
            <Time>2020-01-19T11:26:19.000Z</Time>
            <Position>
              <LatitudeDegrees>38.9312840066850185394287109375</LatitudeDegrees>
              <LongitudeDegrees>-2.8507648967206478118896484375</LongitudeDegrees>
            </Position>
            <AltitudeMeters>869.4000244140625</AltitudeMeters>
            <DistanceMeters>70303.011711757</DistanceMeters>
          </Trackpoint>
          <Trackpoint>
            <Time>2020-01-19T11:26:25.000Z</Time>
            <Position>
              <LatitudeDegrees>38.9312665723264217376708984375</LatitudeDegrees>
              <LongitudeDegrees>-2.85067026503384113311767578125</LongitudeDegrees>
            </Position>
            <AltitudeMeters>870.79998779296875</AltitudeMeters>
            <DistanceMeters>70311.431636351</DistanceMeters>
          </Trackpoint>
          <Trackpoint>
            <Time>2020-01-19T11:26:26.000Z</Time>
            <Position>
              <LatitudeDegrees>38.93126414157450199127197265625</LatitudeDegrees>
              <LongitudeDegrees>-2.850654087960720062255859375</LongitudeDegrees>
            </Position>
            <AltitudeMeters>870.79998779296875</AltitudeMeters>
            <DistanceMeters>70312.860201112</DistanceMeters>
          </Trackpoint>
          <Trackpoint>
            <Time>2020-01-19T11:26:31.000Z</Time>
            <Position>
              <LatitudeDegrees>38.93126229755580425262451171875</LatitudeDegrees>
              <LongitudeDegrees>-2.85057504661381244659423828125</LongitudeDegrees>
            </Position>
            <AltitudeMeters>871.4000244140625</AltitudeMeters>
            <DistanceMeters>70319.707401773</DistanceMeters>
          </Trackpoint>
          <Trackpoint>
            <Time>2020-01-19T11:26:36.000Z</Time>
            <Position>
              <LatitudeDegrees>38.93124938942492008209228515625</LatitudeDegrees>
              <LongitudeDegrees>-2.85050128586590290069580078125</LongitudeDegrees>
            </Position>
            <AltitudeMeters>871.79998779296875</AltitudeMeters>
            <DistanceMeters>70326.253907925</DistanceMeters>
          </Trackpoint>
          <Trackpoint>
            <Time>2020-01-19T11:26:39.000Z</Time>
            <Position>
              <LatitudeDegrees>38.9312352240085601806640625</LatitudeDegrees>
              <LongitudeDegrees>-2.850462310016155242919921875</LongitudeDegrees>
            </Position>
            <AltitudeMeters>872</AltitudeMeters>
            <DistanceMeters>70329.97817932</DistanceMeters>
          </Trackpoint>
          <Trackpoint>
            <Time>2020-01-19T11:26:43.000Z</Time>
            <Position>
              <LatitudeDegrees>38.9312223158776760101318359375</LatitudeDegrees>
              <LongitudeDegrees>-2.85042433999478816986083984375</LongitudeDegrees>
            </Position>
            <AltitudeMeters>872.20001220703125</AltitudeMeters>
            <DistanceMeters>70333.565359122</DistanceMeters>
          </Trackpoint>
          <Trackpoint>
            <Time>2020-01-19T11:28:33.000Z</Time>
            <Position>
              <LatitudeDegrees>38.930885531008243560791015625</LatitudeDegrees>
              <LongitudeDegrees>-2.8495713137090206146240234375</LongitudeDegrees>
            </Position>
            <AltitudeMeters>878.20001220703125</AltitudeMeters>
            <DistanceMeters>70416.39006771</DistanceMeters>
          </Trackpoint>
          <Trackpoint>
            <Time>2020-01-19T11:28:36.000Z</Time>
            <Position>
              <LatitudeDegrees>38.93084739334881305694580078125</LatitudeDegrees>
              <LongitudeDegrees>-2.849543653428554534912109375</LongitudeDegrees>
            </Position>
            <AltitudeMeters>878.79998779296875</AltitudeMeters>
            <DistanceMeters>70421.263372651</DistanceMeters>
          </Trackpoint>
          <Trackpoint>
            <Time>2020-01-19T11:28:45.000Z</Time>
            <Position>
              <LatitudeDegrees>38.93071445636451244354248046875</LatitudeDegrees>
              <LongitudeDegrees>-2.84949160180985927581787109375</LongitudeDegrees>
            </Position>
            <AltitudeMeters>879.79998779296875</AltitudeMeters>
            <DistanceMeters>70436.730849669</DistanceMeters>
          </Trackpoint>
          <Trackpoint>
            <Time>2020-01-19T11:28:46.000Z</Time>
            <Position>
              <LatitudeDegrees>38.93070406280457973480224609375</LatitudeDegrees>
              <LongitudeDegrees>-2.8494809567928314208984375</LongitudeDegrees>
            </Position>
            <AltitudeMeters>880</AltitudeMeters>
            <DistanceMeters>70438.20911842</DistanceMeters>
          </Trackpoint>
          <Trackpoint>
            <Time>2020-01-19T11:28:47.000Z</Time>
            <Position>
              <LatitudeDegrees>38.93069677054882049560546875</LatitudeDegrees>
              <LongitudeDegrees>-2.8494660370051860809326171875</LongitudeDegrees>
            </Position>
            <AltitudeMeters>880</AltitudeMeters>
            <DistanceMeters>70439.735473465</DistanceMeters>
          </Trackpoint>
          <Trackpoint>
            <Time>2020-01-19T11:28:56.000Z</Time>
            <Position>
              <LatitudeDegrees>38.9306355826556682586669921875</LatitudeDegrees>
              <LongitudeDegrees>-2.849308289587497711181640625</LongitudeDegrees>
            </Position>
            <AltitudeMeters>881.20001220703125</AltitudeMeters>
            <DistanceMeters>70454.997248977</DistanceMeters>
          </Trackpoint>
          <Trackpoint>
            <Time>2020-01-19T11:29:06.000Z</Time>
            <Position>
              <LatitudeDegrees>38.9305014722049236297607421875</LatitudeDegrees>
              <LongitudeDegrees>-2.8492243029177188873291015625</LongitudeDegrees>
            </Position>
            <AltitudeMeters>882.4000244140625</AltitudeMeters>
            <DistanceMeters>70471.601110993</DistanceMeters>
          </Trackpoint>
          <Trackpoint>
            <Time>2020-01-19T11:29:16.000Z</Time>
            <Position>
              <LatitudeDegrees>38.930473811924457550048828125</LatitudeDegrees>
              <LongitudeDegrees>-2.84904719330370426177978515625</LongitudeDegrees>
            </Position>
            <AltitudeMeters>883.20001220703125</AltitudeMeters>
            <DistanceMeters>70487.241595987</DistanceMeters>
          </Trackpoint>
          <Trackpoint>
            <Time>2020-01-19T11:29:26.000Z</Time>
            <Position>
              <LatitudeDegrees>38.93054765649139881134033203125</LatitudeDegrees>
              <LongitudeDegrees>-2.8488799743354320526123046875</LongitudeDegrees>
            </Position>
            <AltitudeMeters>883.4000244140625</AltitudeMeters>
            <DistanceMeters>70503.8899943</DistanceMeters>
          </Trackpoint>
          <Trackpoint>
            <Time>2020-01-19T11:29:36.000Z</Time>
            <Position>
              <LatitudeDegrees>38.9306727983057498931884765625</LatitudeDegrees>
              <LongitudeDegrees>-2.84872566349804401397705078125</LongitudeDegrees>
            </Position>
            <AltitudeMeters>883.20001220703125</AltitudeMeters>
            <DistanceMeters>70523.190713031</DistanceMeters>
          </Trackpoint>
          <Trackpoint>
            <Time>2020-01-19T11:29:42.000Z</Time>
            <Position>
              <LatitudeDegrees>38.93076189793646335601806640625</LatitudeDegrees>
              <LongitudeDegrees>-2.8486077301204204559326171875</LongitudeDegrees>
            </Position>
            <AltitudeMeters>883</AltitudeMeters>
            <DistanceMeters>70537.424750588</DistanceMeters>
          </Trackpoint>
          <Trackpoint>
            <Time>2020-01-19T11:29:46.000Z</Time>
            <Position>
              <LatitudeDegrees>38.9308250136673450469970703125</LatitudeDegrees>
              <LongitudeDegrees>-2.84854059107601642608642578125</LongitudeDegrees>
            </Position>
            <AltitudeMeters>883</AltitudeMeters>
            <DistanceMeters>70546.542859702</DistanceMeters>
          </Trackpoint>
          <Trackpoint>
            <Time>2020-01-19T11:29:56.000Z</Time>
            <Position>
              <LatitudeDegrees>38.9309440366923809051513671875</LatitudeDegrees>
              <LongitudeDegrees>-2.8482395969331264495849609375</LongitudeDegrees>
            </Position>
            <AltitudeMeters>883.20001220703125</AltitudeMeters>
            <DistanceMeters>70575.77728436</DistanceMeters>
          </Trackpoint>
          <Trackpoint>
            <Time>2020-01-19T11:29:58.000Z</Time>
            <Position>
              <LatitudeDegrees>38.93096004612743854522705078125</LatitudeDegrees>
              <LongitudeDegrees>-2.8481547720730304718017578125</LongitudeDegrees>
            </Position>
            <AltitudeMeters>883.20001220703125</AltitudeMeters>
            <DistanceMeters>70583.334746467</DistanceMeters>
          </Trackpoint>
          <Trackpoint>
            <Time>2020-01-19T11:30:00.000Z</Time>
            <Position>
              <LatitudeDegrees>38.93094143830239772796630859375</LatitudeDegrees>
              <LongitudeDegrees>-2.848065756261348724365234375</LongitudeDegrees>
            </Position>
            <AltitudeMeters>883.5999755859375</AltitudeMeters>
            <DistanceMeters>70591.315859124</DistanceMeters>
          </Trackpoint>
          <Trackpoint>
            <Time>2020-01-19T11:30:05.000Z</Time>
            <Position>
              <LatitudeDegrees>38.9309363253414630889892578125</LatitudeDegrees>
              <LongitudeDegrees>-2.84783315844833850860595703125</LongitudeDegrees>
            </Position>
            <AltitudeMeters>884.20001220703125</AltitudeMeters>
            <DistanceMeters>70611.462867243</DistanceMeters>
          </Trackpoint>
          <Trackpoint>
            <Time>2020-01-19T11:30:06.000Z</Time>
            <Position>
              <LatitudeDegrees>38.93094395287334918975830078125</LatitudeDegrees>
              <LongitudeDegrees>-2.8477829508483409881591796875</LongitudeDegrees>
            </Position>
            <AltitudeMeters>884.20001220703125</AltitudeMeters>
            <DistanceMeters>70615.891560734</DistanceMeters>
          </Trackpoint>
          <Trackpoint>
            <Time>2020-01-19T11:30:07.000Z</Time>
            <Position>
              <LatitudeDegrees>38.93095518462359905242919921875</LatitudeDegrees>
              <LongitudeDegrees>-2.847731150686740875244140625</LongitudeDegrees>
            </Position>
            <AltitudeMeters>884.20001220703125</AltitudeMeters>
            <DistanceMeters>70620.546899977</DistanceMeters>
          </Trackpoint>
          <Trackpoint>
            <Time>2020-01-19T11:30:13.000Z</Time>
            <Position>
              <LatitudeDegrees>38.9310637302696704864501953125</LatitudeDegrees>
              <LongitudeDegrees>-2.8474386222660541534423828125</LongitudeDegrees>
            </Position>
            <AltitudeMeters>884</AltitudeMeters>
            <DistanceMeters>70648.608596045</DistanceMeters>
          </Trackpoint>
          <Trackpoint>
            <Time>2020-01-19T11:30:16.000Z</Time>
            <Position>
              <LatitudeDegrees>38.9311435259878635406494140625</LatitudeDegrees>
              <LongitudeDegrees>-2.84731934778392314910888671875</LongitudeDegrees>
            </Position>
            <AltitudeMeters>883.20001220703125</AltitudeMeters>
            <DistanceMeters>70662.22960741</DistanceMeters>
          </Trackpoint>
          <Trackpoint>
            <Time>2020-01-19T11:30:17.000Z</Time>
            <Position>
              <LatitudeDegrees>38.93117948435246944427490234375</LatitudeDegrees>
              <LongitudeDegrees>-2.847296297550201416015625</LongitudeDegrees>
            </Position>
            <AltitudeMeters>883</AltitudeMeters>
            <DistanceMeters>70666.700914741</DistanceMeters>
          </Trackpoint>
          <Trackpoint>
            <Time>2020-01-19T11:30:19.000Z</Time>
            <Position>
              <LatitudeDegrees>38.93125760369002819061279296875</LatitudeDegrees>
              <LongitudeDegrees>-2.84725732170045375823974609375</LongitudeDegrees>
            </Position>
            <AltitudeMeters>882.5999755859375</AltitudeMeters>
            <DistanceMeters>70676.027582227</DistanceMeters>
          </Trackpoint>
          <Trackpoint>
            <Time>2020-01-19T11:30:21.000Z</Time>
            <Position>
              <LatitudeDegrees>38.93132918514311313629150390625</LatitudeDegrees>
              <LongitudeDegrees>-2.84720099531114101409912109375</LongitudeDegrees>
            </Position>
            <AltitudeMeters>882</AltitudeMeters>
            <DistanceMeters>70685.368278057</DistanceMeters>
          </Trackpoint>
          <Trackpoint>
            <Time>2020-01-19T11:30:25.000Z</Time>
            <Position>
              <LatitudeDegrees>38.9314690791070461273193359375</LatitudeDegrees>
              <LongitudeDegrees>-2.84706990234553813934326171875</LongitudeDegrees>
            </Position>
            <AltitudeMeters>881</AltitudeMeters>
            <DistanceMeters>70704.636218602</DistanceMeters>
          </Trackpoint>
          <Trackpoint>
            <Time>2020-01-19T11:30:26.000Z</Time>
            <Position>
              <LatitudeDegrees>38.9315032772719860076904296875</LatitudeDegrees>
              <LongitudeDegrees>-2.84703939221799373626708984375</LongitudeDegrees>
            </Position>
            <AltitudeMeters>880.79998779296875</AltitudeMeters>
            <DistanceMeters>70709.26919731</DistanceMeters>
          </Trackpoint>
          <Trackpoint>
            <Time>2020-01-19T11:30:31.000Z</Time>
            <Position>
              <LatitudeDegrees>38.93168508075177669525146484375</LatitudeDegrees>
              <LongitudeDegrees>-2.84688499756157398223876953125</LongitudeDegrees>
            </Position>
            <AltitudeMeters>879.5999755859375</AltitudeMeters>
            <DistanceMeters>70733.520938257</DistanceMeters>
          </Trackpoint>
          <Trackpoint>
            <Time>2020-01-19T11:30:33.000Z</Time>
            <Position>
              <LatitudeDegrees>38.93174392171204090118408203125</LatitudeDegrees>
              <LongitudeDegrees>-2.8467928804457187652587890625</LongitudeDegrees>
            </Position>
            <AltitudeMeters>879</AltitudeMeters>
            <DistanceMeters>70743.840856938</DistanceMeters>
          </Trackpoint>
          <Trackpoint>
            <Time>2020-01-19T11:30:36.000Z</Time>
            <Position>
              <LatitudeDegrees>38.93175087869167327880859375</LatitudeDegrees>
              <LongitudeDegrees>-2.846647202968597412109375</LongitudeDegrees>
            </Position>
            <AltitudeMeters>878.4000244140625</AltitudeMeters>
            <DistanceMeters>70756.477266307</DistanceMeters>
          </Trackpoint>
          <Trackpoint>
            <Time>2020-01-19T11:30:42.000Z</Time>
            <Position>
              <LatitudeDegrees>38.93164669163525104522705078125</LatitudeDegrees>
              <LongitudeDegrees>-2.84646104089915752410888671875</LongitudeDegrees>
            </Position>
            <AltitudeMeters>878</AltitudeMeters>
            <DistanceMeters>70776.333529745</DistanceMeters>
          </Trackpoint>
          <Trackpoint>
            <Time>2020-01-19T11:30:44.000Z</Time>
            <Position>
              <LatitudeDegrees>38.93165071494877338409423828125</LatitudeDegrees>
              <LongitudeDegrees>-2.84642315469682216644287109375</LongitudeDegrees>
            </Position>
            <AltitudeMeters>877.79998779296875</AltitudeMeters>
            <DistanceMeters>70779.644498304</DistanceMeters>
          </Trackpoint>
          <Trackpoint>
            <Time>2020-01-19T11:30:46.000Z</Time>
            <Position>
              <LatitudeDegrees>38.93165255896747112274169921875</LatitudeDegrees>
              <LongitudeDegrees>-2.846414856612682342529296875</LongitudeDegrees>
            </Position>
            <AltitudeMeters>877.5999755859375</AltitudeMeters>
            <DistanceMeters>70780.392739401</DistanceMeters>
          </Trackpoint>
          <Trackpoint>
            <Time>2020-01-19T11:30:57.000Z</Time>
            <Position>
              <LatitudeDegrees>38.9315991662442684173583984375</LatitudeDegrees>
              <LongitudeDegrees>-2.8464344702661037445068359375</LongitudeDegrees>
            </Position>
            <AltitudeMeters>878.20001220703125</AltitudeMeters>
            <DistanceMeters>70786.573860128</DistanceMeters>
          </Trackpoint>
          <Trackpoint>
            <Time>2020-01-19T11:31:01.000Z</Time>
            <Position>
              <LatitudeDegrees>38.9315153472125530242919921875</LatitudeDegrees>
              <LongitudeDegrees>-2.8464867733418941497802734375</LongitudeDegrees>
            </Position>
            <AltitudeMeters>879</AltitudeMeters>
            <DistanceMeters>70796.944405458</DistanceMeters>
          </Trackpoint>
          <Trackpoint>
            <Time>2020-01-19T11:31:03.000Z</Time>
            <Position>
              <LatitudeDegrees>38.9314690791070461273193359375</LatitudeDegrees>
              <LongitudeDegrees>-2.84650437533855438232421875</LongitudeDegrees>
            </Position>
            <AltitudeMeters>879.4000244140625</AltitudeMeters>
            <DistanceMeters>70802.314045491</DistanceMeters>
          </Trackpoint>
          <Trackpoint>
            <Time>2020-01-19T11:31:06.000Z</Time>
            <Position>
              <LatitudeDegrees>38.93139741383492946624755859375</LatitudeDegrees>
              <LongitudeDegrees>-2.84649423323571681976318359375</LongitudeDegrees>
            </Position>
            <AltitudeMeters>879.5999755859375</AltitudeMeters>
            <DistanceMeters>70810.338037331</DistanceMeters>
          </Trackpoint>
          <Trackpoint>
            <Time>2020-01-19T11:31:13.000Z</Time>
            <Position>
              <LatitudeDegrees>38.93128811381757259368896484375</LatitudeDegrees>
              <LongitudeDegrees>-2.84645819105207920074462890625</LongitudeDegrees>
            </Position>
            <AltitudeMeters>880.20001220703125</AltitudeMeters>
            <DistanceMeters>70822.897391428</DistanceMeters>
          </Trackpoint>
          <Trackpoint>
            <Time>2020-01-19T11:31:16.000Z</Time>
            <Position>
              <LatitudeDegrees>38.93125257454812526702880859375</LatitudeDegrees>
              <LongitudeDegrees>-2.84644712693989276885986328125</LongitudeDegrees>
            </Position>
            <AltitudeMeters>880.4000244140625</AltitudeMeters>
            <DistanceMeters>70826.966931967</DistanceMeters>
          </Trackpoint>
          <Trackpoint>
            <Time>2020-01-19T11:31:19.000Z</Time>
            <Position>
              <LatitudeDegrees>38.93121636472642421722412109375</LatitudeDegrees>
              <LongitudeDegrees>-2.846424914896488189697265625</LongitudeDegrees>
            </Position>
            <AltitudeMeters>880.79998779296875</AltitudeMeters>
            <DistanceMeters>70831.432176505</DistanceMeters>
          </Trackpoint>
          <Trackpoint>
            <Time>2020-01-19T11:31:26.000Z</Time>
            <Position>
              <LatitudeDegrees>38.9311091601848602294921875</LatitudeDegrees>
              <LongitudeDegrees>-2.84633732400834560394287109375</LongitudeDegrees>
            </Position>
            <AltitudeMeters>881.20001220703125</AltitudeMeters>
            <DistanceMeters>70845.570414449</DistanceMeters>
          </Trackpoint>
          <Trackpoint>
            <Time>2020-01-19T11:31:33.000Z</Time>
            <Position>
              <LatitudeDegrees>38.93094328232109546661376953125</LatitudeDegrees>
              <LongitudeDegrees>-2.84630186855792999267578125</LongitudeDegrees>
            </Position>
            <AltitudeMeters>882.20001220703125</AltitudeMeters>
            <DistanceMeters>70864.286576594</DistanceMeters>
          </Trackpoint>
          <Trackpoint>
            <Time>2020-01-19T11:31:36.000Z</Time>
            <Position>
              <LatitudeDegrees>38.93086901865899562835693359375</LatitudeDegrees>
              <LongitudeDegrees>-2.84633263014256954193115234375</LongitudeDegrees>
            </Position>
            <AltitudeMeters>882.79998779296875</AltitudeMeters>
            <DistanceMeters>70872.970999341</DistanceMeters>
          </Trackpoint>
          <Trackpoint>
            <Time>2020-01-19T11:31:40.000Z</Time>
            <Position>
              <LatitudeDegrees>38.93077849410474300384521484375</LatitudeDegrees>
              <LongitudeDegrees>-2.84636347554624080657958984375</LongitudeDegrees>
            </Position>
            <AltitudeMeters>883.4000244140625</AltitudeMeters>
            <DistanceMeters>70883.394524646</DistanceMeters>
          </Trackpoint>
          <Trackpoint>
            <Time>2020-01-19T11:31:43.000Z</Time>
            <Position>
              <LatitudeDegrees>38.93070640973746776580810546875</LatitudeDegrees>
              <LongitudeDegrees>-2.84637269563972949981689453125</LongitudeDegrees>
            </Position>
            <AltitudeMeters>884</AltitudeMeters>
            <DistanceMeters>70891.457248771</DistanceMeters>
          </Trackpoint>
          <Trackpoint>
            <Time>2020-01-19T11:31:46.000Z</Time>
            <Position>
              <LatitudeDegrees>38.930634744465351104736328125</LatitudeDegrees>
              <LongitudeDegrees>-2.84637705422937870025634765625</LongitudeDegrees>
            </Position>
            <AltitudeMeters>884.4000244140625</AltitudeMeters>
            <DistanceMeters>70899.442885868</DistanceMeters>
          </Trackpoint>
          <Trackpoint>
            <Time>2020-01-19T11:31:54.000Z</Time>
            <Position>
              <LatitudeDegrees>38.9304468221962451934814453125</LatitudeDegrees>
              <LongitudeDegrees>-2.84641762264072895050048828125</LongitudeDegrees>
            </Position>
            <AltitudeMeters>886</AltitudeMeters>
            <DistanceMeters>70920.651733029</DistanceMeters>
          </Trackpoint>
          <Trackpoint>
            <Time>2020-01-19T11:31:56.000Z</Time>
            <Position>
              <LatitudeDegrees>38.93039979971945285797119140625</LatitudeDegrees>
              <LongitudeDegrees>-2.8464324586093425750732421875</LongitudeDegrees>
            </Position>
            <AltitudeMeters>886.4000244140625</AltitudeMeters>
            <DistanceMeters>70926.040677809</DistanceMeters>
          </Trackpoint>
          <Trackpoint>
            <Time>2020-01-19T11:32:02.000Z</Time>
            <Position>
              <LatitudeDegrees>38.93026703037321567535400390625</LatitudeDegrees>
              <LongitudeDegrees>-2.846486605703830718994140625</LongitudeDegrees>
            </Position>
            <AltitudeMeters>887.79998779296875</AltitudeMeters>
            <DistanceMeters>70941.544308829</DistanceMeters>
          </Trackpoint>
          <Trackpoint>
            <Time>2020-01-19T11:32:06.000Z</Time>
            <Position>
              <LatitudeDegrees>38.93019544892013072967529296875</LatitudeDegrees>
              <LongitudeDegrees>-2.84651954658329486846923828125</LongitudeDegrees>
            </Position>
            <AltitudeMeters>888.4000244140625</AltitudeMeters>
            <DistanceMeters>70950.007023303</DistanceMeters>
          </Trackpoint>
          <Trackpoint>
            <Time>2020-01-19T11:32:11.000Z</Time>
            <Position>
              <LatitudeDegrees>38.93011204898357391357421875</LatitudeDegrees>
              <LongitudeDegrees>-2.8465759567916393280029296875</LongitudeDegrees>
            </Position>
            <AltitudeMeters>889.20001220703125</AltitudeMeters>
            <DistanceMeters>70960.496182059</DistanceMeters>
          </Trackpoint>
          <Trackpoint>
            <Time>2020-01-19T11:32:16.000Z</Time>
            <Position>
              <LatitudeDegrees>38.93002596683800220489501953125</LatitudeDegrees>
              <LongitudeDegrees>-2.84661644138395786285400390625</LongitudeDegrees>
            </Position>
            <AltitudeMeters>890</AltitudeMeters>
            <DistanceMeters>70970.698617609</DistanceMeters>
          </Trackpoint>
          <Trackpoint>
            <Time>2020-01-19T11:32:26.000Z</Time>
            <Position>
              <LatitudeDegrees>38.92987894825637340545654296875</LatitudeDegrees>
              <LongitudeDegrees>-2.8467224724590778350830078125</LongitudeDegrees>
            </Position>
            <AltitudeMeters>891.4000244140625</AltitudeMeters>
            <DistanceMeters>70989.461521442</DistanceMeters>
          </Trackpoint>
          <Trackpoint>
            <Time>2020-01-19T11:32:36.000Z</Time>
            <Position>
              <LatitudeDegrees>38.92970175482332706451416015625</LatitudeDegrees>
              <LongitudeDegrees>-2.8466753661632537841796875</LongitudeDegrees>
            </Position>
            <AltitudeMeters>893.20001220703125</AltitudeMeters>
            <DistanceMeters>71009.600908562</DistanceMeters>
          </Trackpoint>
          <Trackpoint>
            <Time>2020-01-19T11:32:46.000Z</Time>
            <Position>
              <LatitudeDegrees>38.929549120366573333740234375</LatitudeDegrees>
              <LongitudeDegrees>-2.846561372280120849609375</LongitudeDegrees>
            </Position>
            <AltitudeMeters>894.5999755859375</AltitudeMeters>
            <DistanceMeters>71029.248701516</DistanceMeters>
          </Trackpoint>
          <Trackpoint>
            <Time>2020-01-19T11:32:56.000Z</Time>
            <Position>
              <LatitudeDegrees>38.929382152855396270751953125</LatitudeDegrees>
              <LongitudeDegrees>-2.8465477935969829559326171875</LongitudeDegrees>
            </Position>
            <AltitudeMeters>895.4000244140625</AltitudeMeters>
            <DistanceMeters>71047.86957355</DistanceMeters>
          </Trackpoint>
          <Trackpoint>
            <Time>2020-01-19T11:33:02.000Z</Time>
            <Position>
              <LatitudeDegrees>38.92927788197994232177734375</LatitudeDegrees>
              <LongitudeDegrees>-2.8465846739709377288818359375</LongitudeDegrees>
            </Position>
            <AltitudeMeters>895.20001220703125</AltitudeMeters>
            <DistanceMeters>71059.906499094</DistanceMeters>
          </Trackpoint>
          <Trackpoint>
            <Time>2020-01-19T11:33:06.000Z</Time>
            <Position>
              <LatitudeDegrees>38.9291994273662567138671875</LatitudeDegrees>
              <LongitudeDegrees>-2.84658752381801605224609375</LongitudeDegrees>
            </Position>
            <AltitudeMeters>895</AltitudeMeters>
            <DistanceMeters>71068.642240392</DistanceMeters>
          </Trackpoint>
          <Trackpoint>
            <Time>2020-01-19T11:33:16.000Z</Time>
            <Position>
              <LatitudeDegrees>38.928962387144565582275390625</LatitudeDegrees>
              <LongitudeDegrees>-2.84668584354221820831298828125</LongitudeDegrees>
            </Position>
            <AltitudeMeters>894.79998779296875</AltitudeMeters>
            <DistanceMeters>71096.364645518</DistanceMeters>
          </Trackpoint>
          <Trackpoint>
            <Time>2020-01-19T11:33:26.000Z</Time>
            <Position>
              <LatitudeDegrees>38.92867296002805233001708984375</LatitudeDegrees>
              <LongitudeDegrees>-2.846807129681110382080078125</LongitudeDegrees>
            </Position>
            <AltitudeMeters>894.20001220703125</AltitudeMeters>
            <DistanceMeters>71130.247099806</DistanceMeters>
          </Trackpoint>
          <Trackpoint>
            <Time>2020-01-19T11:33:30.000Z</Time>
            <Position>
              <LatitudeDegrees>38.92855108715593814849853515625</LatitudeDegrees>
              <LongitudeDegrees>-2.8468471951782703399658203125</LongitudeDegrees>
            </Position>
            <AltitudeMeters>894</AltitudeMeters>
            <DistanceMeters>71144.248311522</DistanceMeters>
          </Trackpoint>
          <Trackpoint>
            <Time>2020-01-19T11:33:34.000Z</Time>
            <Position>
              <LatitudeDegrees>38.92843876965343952178955078125</LatitudeDegrees>
              <LongitudeDegrees>-2.846943251788616180419921875</LongitudeDegrees>
            </Position>
            <AltitudeMeters>894.5999755859375</AltitudeMeters>
            <DistanceMeters>71159.263133815</DistanceMeters>
          </Trackpoint>
          <Trackpoint>
            <Time>2020-01-19T11:33:36.000Z</Time>
            <Position>
              <LatitudeDegrees>38.92839065752923488616943359375</LatitudeDegrees>
              <LongitudeDegrees>-2.8470081277191638946533203125</LongitudeDegrees>
            </Position>
            <AltitudeMeters>894.79998779296875</AltitudeMeters>
            <DistanceMeters>71167.023972036</DistanceMeters>
          </Trackpoint>
          <Trackpoint>
            <Time>2020-01-19T11:33:46.000Z</Time>
            <Position>
              <LatitudeDegrees>38.92813928425312042236328125</LatitudeDegrees>
              <LongitudeDegrees>-2.8473504446446895599365234375</LongitudeDegrees>
            </Position>
            <AltitudeMeters>896</AltitudeMeters>
            <DistanceMeters>71207.78290055</DistanceMeters>
          </Trackpoint>
          <Trackpoint>
            <Time>2020-01-19T11:33:52.000Z</Time>
            <Position>
              <LatitudeDegrees>38.9279468357563018798828125</LatitudeDegrees>
              <LongitudeDegrees>-2.84740735776722431182861328125</LongitudeDegrees>
            </Position>
            <AltitudeMeters>897</AltitudeMeters>
            <DistanceMeters>71229.762437844</DistanceMeters>
          </Trackpoint>
          <Trackpoint>
            <Time>2020-01-19T11:33:56.000Z</Time>
            <Position>
              <LatitudeDegrees>38.92782303504645824432373046875</LatitudeDegrees>
              <LongitudeDegrees>-2.8474510274827480316162109375</LongitudeDegrees>
            </Position>
            <AltitudeMeters>897.4000244140625</AltitudeMeters>
            <DistanceMeters>71244.051245646</DistanceMeters>
          </Trackpoint>
          <Trackpoint>
            <Time>2020-01-19T11:34:00.000Z</Time>
            <Position>
              <LatitudeDegrees>38.92770300619304180145263671875</LatitudeDegrees>
              <LongitudeDegrees>-2.8474983014166355133056640625</LongitudeDegrees>
            </Position>
            <AltitudeMeters>897.5999755859375</AltitudeMeters>
            <DistanceMeters>71258.024050762</DistanceMeters>
          </Trackpoint>
          <Trackpoint>
            <Time>2020-01-19T11:34:04.000Z</Time>
            <Position>
              <LatitudeDegrees>38.92756923101842403411865234375</LatitudeDegrees>
              <LongitudeDegrees>-2.84750844351947307586669921875</LongitudeDegrees>
            </Position>
            <AltitudeMeters>897.79998779296875</AltitudeMeters>
            <DistanceMeters>71272.939310172</DistanceMeters>
          </Trackpoint>
          <Trackpoint>
            <Time>2020-01-19T11:34:06.000Z</Time>
            <Position>
              <LatitudeDegrees>38.9275030978024005889892578125</LatitudeDegrees>
              <LongitudeDegrees>-2.84750978462398052215576171875</LongitudeDegrees>
            </Position>
            <AltitudeMeters>897.79998779296875</AltitudeMeters>
            <DistanceMeters>71280.300047816</DistanceMeters>
          </Trackpoint>
          <Trackpoint>
            <Time>2020-01-19T11:34:16.000Z</Time>
            <Position>
              <LatitudeDegrees>38.92720713280141353607177734375</LatitudeDegrees>
              <LongitudeDegrees>-2.847559154033660888671875</LongitudeDegrees>
            </Position>
            <AltitudeMeters>898.5999755859375</AltitudeMeters>
            <DistanceMeters>71313.517831622</DistanceMeters>
          </Trackpoint>
          <Trackpoint>
            <Time>2020-01-19T11:34:26.000Z</Time>
            <Position>
              <LatitudeDegrees>38.92694997601211071014404296875</LatitudeDegrees>
              <LongitudeDegrees>-2.84736595116555690765380859375</LongitudeDegrees>
            </Position>
            <AltitudeMeters>898</AltitudeMeters>
            <DistanceMeters>71346.670172327</DistanceMeters>
          </Trackpoint>
          <Trackpoint>
            <Time>2020-01-19T11:34:36.000Z</Time>
            <Position>
              <LatitudeDegrees>38.92665845341980457305908203125</LatitudeDegrees>
              <LongitudeDegrees>-2.8470956347882747650146484375</LongitudeDegrees>
            </Position>
            <AltitudeMeters>895.5999755859375</AltitudeMeters>
            <DistanceMeters>71386.678337623</DistanceMeters>
          </Trackpoint>
          <Trackpoint>
            <Time>2020-01-19T11:34:41.000Z</Time>
            <Position>
              <LatitudeDegrees>38.92647019587457180023193359375</LatitudeDegrees>
              <LongitudeDegrees>-2.84692673943936824798583984375</LongitudeDegrees>
            </Position>
            <AltitudeMeters>894.4000244140625</AltitudeMeters>
            <DistanceMeters>71412.230807315</DistanceMeters>
          </Trackpoint>
          <Trackpoint>
            <Time>2020-01-19T11:34:46.000Z</Time>
            <Position>
              <LatitudeDegrees>38.92625109292566776275634765625</LatitudeDegrees>
              <LongitudeDegrees>-2.8467157669365406036376953125</LongitudeDegrees>
            </Position>
            <AltitudeMeters>893.5999755859375</AltitudeMeters>
            <DistanceMeters>71442.700764313</DistanceMeters>
          </Trackpoint>
          <Trackpoint>
            <Time>2020-01-19T11:34:48.000Z</Time>
            <Position>
              <LatitudeDegrees>38.92614564858376979827880859375</LatitudeDegrees>
              <LongitudeDegrees>-2.84662616439163684844970703125</LongitudeDegrees>
            </Position>
            <AltitudeMeters>892.79998779296875</AltitudeMeters>
            <DistanceMeters>71456.769211829</DistanceMeters>
          </Trackpoint>
          <Trackpoint>
            <Time>2020-01-19T11:34:52.000Z</Time>
            <Position>
              <LatitudeDegrees>38.92590659670531749725341796875</LatitudeDegrees>
              <LongitudeDegrees>-2.84653580747544765472412109375</LongitudeDegrees>
            </Position>
            <AltitudeMeters>892.20001220703125</AltitudeMeters>
            <DistanceMeters>71484.502364031</DistanceMeters>
          </Trackpoint>
          <Trackpoint>
            <Time>2020-01-19T11:34:53.000Z</Time>
            <Position>
              <LatitudeDegrees>38.9258562214672565460205078125</LatitudeDegrees>
              <LongitudeDegrees>-2.84652155824005603790283203125</LongitudeDegrees>
            </Position>
            <AltitudeMeters>892</AltitudeMeters>
            <DistanceMeters>71490.243424823</DistanceMeters>
          </Trackpoint>
          <Trackpoint>
            <Time>2020-01-19T11:34:56.000Z</Time>
            <Position>
              <LatitudeDegrees>38.92572529613971710205078125</LatitudeDegrees>
              <LongitudeDegrees>-2.8464569337666034698486328125</LongitudeDegrees>
            </Position>
            <AltitudeMeters>891.20001220703125</AltitudeMeters>
            <DistanceMeters>71505.852701635</DistanceMeters>
          </Trackpoint>
          <Trackpoint>
            <Time>2020-01-19T11:34:59.000Z</Time>
            <Position>
              <LatitudeDegrees>38.9256181754171848297119140625</LatitudeDegrees>
              <LongitudeDegrees>-2.84634637646377086639404296875</LongitudeDegrees>
            </Position>
            <AltitudeMeters>890.79998779296875</AltitudeMeters>
            <DistanceMeters>71521.142851377</DistanceMeters>
          </Trackpoint>
          <Trackpoint>
            <Time>2020-01-19T11:35:03.000Z</Time>
            <Position>
              <LatitudeDegrees>38.92548850737512111663818359375</LatitudeDegrees>
              <LongitudeDegrees>-2.84621201455593109130859375</LongitudeDegrees>
            </Position>
            <AltitudeMeters>891</AltitudeMeters>
            <DistanceMeters>71539.680856104</DistanceMeters>
          </Trackpoint>
          <Trackpoint>
            <Time>2020-01-19T11:35:05.000Z</Time>
            <Position>
              <LatitudeDegrees>38.925437964498996734619140625</LatitudeDegrees>
              <LongitudeDegrees>-2.84612928517162799835205078125</LongitudeDegrees>
            </Position>
            <AltitudeMeters>891.4000244140625</AltitudeMeters>
            <DistanceMeters>71548.789056381</DistanceMeters>
          </Trackpoint>
          <Trackpoint>
            <Time>2020-01-19T11:35:06.000Z</Time>
            <Position>
              <LatitudeDegrees>38.9254156686365604400634765625</LatitudeDegrees>
              <LongitudeDegrees>-2.8460852801799774169921875</LongitudeDegrees>
            </Position>
            <AltitudeMeters>891.4000244140625</AltitudeMeters>
            <DistanceMeters>71553.336459492</DistanceMeters>
          </Trackpoint>
          <Trackpoint>
            <Time>2020-01-19T11:35:07.000Z</Time>
            <Position>
              <LatitudeDegrees>38.92538733780384063720703125</LatitudeDegrees>
              <LongitudeDegrees>-2.846045382320880889892578125</LongitudeDegrees>
            </Position>
            <AltitudeMeters>891.5999755859375</AltitudeMeters>
            <DistanceMeters>71558.01405238</DistanceMeters>
          </Trackpoint>
          <Trackpoint>
            <Time>2020-01-19T11:35:10.000Z</Time>
            <Position>
              <LatitudeDegrees>38.9252721704542636871337890625</LatitudeDegrees>
              <LongitudeDegrees>-2.8459587134420871734619140625</LongitudeDegrees>
            </Position>
            <AltitudeMeters>891.79998779296875</AltitudeMeters>
            <DistanceMeters>71572.867734003</DistanceMeters>
          </Trackpoint>
          <Trackpoint>
            <Time>2020-01-19T11:35:12.000Z</Time>
            <Position>
              <LatitudeDegrees>38.9252037741243839263916015625</LatitudeDegrees>
              <LongitudeDegrees>-2.84587698988616466522216796875</LongitudeDegrees>
            </Position>
            <AltitudeMeters>891.79998779296875</AltitudeMeters>
            <DistanceMeters>71583.260893985</DistanceMeters>
          </Trackpoint>
          <Trackpoint>
            <Time>2020-01-19T11:35:15.000Z</Time>
            <Position>
              <LatitudeDegrees>38.92515130341053009033203125</LatitudeDegrees>
              <LongitudeDegrees>-2.84571974538266658782958984375</LongitudeDegrees>
            </Position>
            <AltitudeMeters>891.79998779296875</AltitudeMeters>
            <DistanceMeters>71598.076226183</DistanceMeters>
          </Trackpoint>
          <Trackpoint>
            <Time>2020-01-19T11:35:16.000Z</Time>
            <Position>
              <LatitudeDegrees>38.92512573860585689544677734375</LatitudeDegrees>
              <LongitudeDegrees>-2.84566995687782764434814453125</LongitudeDegrees>
            </Position>
            <AltitudeMeters>891.79998779296875</AltitudeMeters>
            <DistanceMeters>71603.241869985</DistanceMeters>
          </Trackpoint>
          <Trackpoint>
            <Time>2020-01-19T11:35:17.000Z</Time>
            <Position>
              <LatitudeDegrees>38.9251018501818180084228515625</LatitudeDegrees>
              <LongitudeDegrees>-2.8456174023449420928955078125</LongitudeDegrees>
            </Position>
            <AltitudeMeters>891.79998779296875</AltitudeMeters>
            <DistanceMeters>71608.512212967</DistanceMeters>
          </Trackpoint>
          <Trackpoint>
            <Time>2020-01-19T11:35:21.000Z</Time>
            <Position>
              <LatitudeDegrees>38.9250448532402515411376953125</LatitudeDegrees>
              <LongitudeDegrees>-2.84538924694061279296875</LongitudeDegrees>
            </Position>
            <AltitudeMeters>892</AltitudeMeters>
            <DistanceMeters>71629.261791632</DistanceMeters>
          </Trackpoint>
          <Trackpoint>
            <Time>2020-01-19T11:35:23.000Z</Time>
            <Position>
              <LatitudeDegrees>38.9250026084482669830322265625</LatitudeDegrees>
              <LongitudeDegrees>-2.84528841264545917510986328125</LongitudeDegrees>
            </Position>
            <AltitudeMeters>891.79998779296875</AltitudeMeters>
            <DistanceMeters>71639.178775172</DistanceMeters>
          </Trackpoint>
          <Trackpoint>
            <Time>2020-01-19T11:35:25.000Z</Time>
            <Position>
              <LatitudeDegrees>38.92496765591204166412353515625</LatitudeDegrees>
              <LongitudeDegrees>-2.84518112428486347198486328125</LongitudeDegrees>
            </Position>
            <AltitudeMeters>891.79998779296875</AltitudeMeters>
            <DistanceMeters>71649.250710377</DistanceMeters>
          </Trackpoint>
          <Trackpoint>
            <Time>2020-01-19T11:35:26.000Z</Time>
            <Position>
              <LatitudeDegrees>38.92494142055511474609375</LatitudeDegrees>
              <LongitudeDegrees>-2.84513376653194427490234375</LongitudeDegrees>
            </Position>
            <AltitudeMeters>891.79998779296875</AltitudeMeters>
            <DistanceMeters>71654.284436085</DistanceMeters>
          </Trackpoint>
          <Trackpoint>
            <Time>2020-01-19T11:35:27.000Z</Time>
            <Position>
              <LatitudeDegrees>38.92490579746663570404052734375</LatitudeDegrees>
              <LongitudeDegrees>-2.8450990654528141021728515625</LongitudeDegrees>
            </Position>
            <AltitudeMeters>891.79998779296875</AltitudeMeters>
            <DistanceMeters>71659.258610334</DistanceMeters>
          </Trackpoint>
          <Trackpoint>
            <Time>2020-01-19T11:35:30.000Z</Time>
            <Position>
              <LatitudeDegrees>38.92477311193943023681640625</LatitudeDegrees>
              <LongitudeDegrees>-2.845031507313251495361328125</LongitudeDegrees>
            </Position>
            <AltitudeMeters>891.20001220703125</AltitudeMeters>
            <DistanceMeters>71675.142859322</DistanceMeters>
          </Trackpoint>
          <Trackpoint>
            <Time>2020-01-19T11:35:32.000Z</Time>
            <Position>
              <LatitudeDegrees>38.9246971718966960906982421875</LatitudeDegrees>
              <LongitudeDegrees>-2.8449357859790325164794921875</LongitudeDegrees>
            </Position>
            <AltitudeMeters>890.4000244140625</AltitudeMeters>
            <DistanceMeters>71686.981220121</DistanceMeters>
          </Trackpoint>
          <Trackpoint>
            <Time>2020-01-19T11:35:36.000Z</Time>
            <Position>
              <LatitudeDegrees>38.924578316509723663330078125</LatitudeDegrees>
              <LongitudeDegrees>-2.844682820141315460205078125</LongitudeDegrees>
            </Position>
            <AltitudeMeters>889.79998779296875</AltitudeMeters>
            <DistanceMeters>71712.570416343</DistanceMeters>
          </Trackpoint>
          <Trackpoint>
            <Time>2020-01-19T11:35:37.000Z</Time>
            <Position>
              <LatitudeDegrees>38.9245473034679889678955078125</LatitudeDegrees>
              <LongitudeDegrees>-2.84462607465684413909912109375</LongitudeDegrees>
            </Position>
            <AltitudeMeters>889.79998779296875</AltitudeMeters>
            <DistanceMeters>71718.575172394</DistanceMeters>
          </Trackpoint>
          <Trackpoint>
            <Time>2020-01-19T11:35:39.000Z</Time>
            <Position>
              <LatitudeDegrees>38.92449961043894290924072265625</LatitudeDegrees>
              <LongitudeDegrees>-2.844522558152675628662109375</LongitudeDegrees>
            </Position>
            <AltitudeMeters>889.79998779296875</AltitudeMeters>
            <DistanceMeters>71728.992631715</DistanceMeters>
          </Trackpoint>
          <Trackpoint>
            <Time>2020-01-19T11:35:41.000Z</Time>
            <Position>
              <LatitudeDegrees>38.9244524203240871429443359375</LatitudeDegrees>
              <LongitudeDegrees>-2.8444134257733821868896484375</LongitudeDegrees>
            </Position>
            <AltitudeMeters>890</AltitudeMeters>
            <DistanceMeters>71739.803982671</DistanceMeters>
          </Trackpoint>
          <Trackpoint>
            <Time>2020-01-19T11:35:44.000Z</Time>
            <Position>
              <LatitudeDegrees>38.924359045922756195068359375</LatitudeDegrees>
              <LongitudeDegrees>-2.84426984377205371856689453125</LongitudeDegrees>
            </Position>
            <AltitudeMeters>890</AltitudeMeters>
            <DistanceMeters>71756.008754283</DistanceMeters>
          </Trackpoint>
          <Trackpoint>
            <Time>2020-01-19T11:35:46.000Z</Time>
            <Position>
              <LatitudeDegrees>38.924296684563159942626953125</LatitudeDegrees>
              <LongitudeDegrees>-2.844208069145679473876953125</LongitudeDegrees>
            </Position>
            <AltitudeMeters>890</AltitudeMeters>
            <DistanceMeters>71764.771845637</DistanceMeters>
          </Trackpoint>
          <Trackpoint>
            <Time>2020-01-19T11:35:51.000Z</Time>
            <Position>
              <LatitudeDegrees>38.9241406135261058807373046875</LatitudeDegrees>
              <LongitudeDegrees>-2.844088375568389892578125</LongitudeDegrees>
            </Position>
            <AltitudeMeters>889.5999755859375</AltitudeMeters>
            <DistanceMeters>71785.000040166</DistanceMeters>
          </Trackpoint>
          <Trackpoint>
            <Time>2020-01-19T11:35:55.000Z</Time>
            <Position>
              <LatitudeDegrees>38.923980183899402618408203125</LatitudeDegrees>
              <LongitudeDegrees>-2.84413958899676799774169921875</LongitudeDegrees>
            </Position>
            <AltitudeMeters>890</AltitudeMeters>
            <DistanceMeters>71803.398694347</DistanceMeters>
          </Trackpoint>
          <Trackpoint>
            <Time>2020-01-19T11:35:56.000Z</Time>
            <Position>
              <LatitudeDegrees>38.923937939107418060302734375</LatitudeDegrees>
              <LongitudeDegrees>-2.844138331711292266845703125</LongitudeDegrees>
            </Position>
            <AltitudeMeters>890</AltitudeMeters>
            <DistanceMeters>71808.102276735</DistanceMeters>
          </Trackpoint>
          <Trackpoint>
            <Time>2020-01-19T11:35:57.000Z</Time>
            <Position>
              <LatitudeDegrees>38.92389812506735324859619140625</LatitudeDegrees>
              <LongitudeDegrees>-2.84412148408591747283935546875</LongitudeDegrees>
            </Position>
            <AltitudeMeters>890</AltitudeMeters>
            <DistanceMeters>71812.76730452</DistanceMeters>
          </Trackpoint>
          <Trackpoint>
            <Time>2020-01-19T11:36:00.000Z</Time>
            <Position>
              <LatitudeDegrees>38.9237760007381439208984375</LatitudeDegrees>
              <LongitudeDegrees>-2.84398720599710941314697265625</LongitudeDegrees>
            </Position>
            <AltitudeMeters>889.5999755859375</AltitudeMeters>
            <DistanceMeters>71830.65455329</DistanceMeters>
          </Trackpoint>
          <Trackpoint>
            <Time>2020-01-19T11:36:03.000Z</Time>
            <Position>
              <LatitudeDegrees>38.92369461245834827423095703125</LatitudeDegrees>
              <LongitudeDegrees>-2.8437703661620616912841796875</LongitudeDegrees>
            </Position>
            <AltitudeMeters>890.5999755859375</AltitudeMeters>
            <DistanceMeters>71851.502037053</DistanceMeters>
          </Trackpoint>
          <Trackpoint>
            <Time>2020-01-19T11:36:05.000Z</Time>
            <Position>
              <LatitudeDegrees>38.92371288500726222991943359375</LatitudeDegrees>
              <LongitudeDegrees>-2.84364740364253520965576171875</LongitudeDegrees>
            </Position>
            <AltitudeMeters>890.4000244140625</AltitudeMeters>
            <DistanceMeters>71862.341748981</DistanceMeters>
          </Trackpoint>
          <Trackpoint>
            <Time>2020-01-19T11:36:06.000Z</Time>
            <Position>
              <LatitudeDegrees>38.92374473623931407928466796875</LatitudeDegrees>
              <LongitudeDegrees>-2.84360826015472412109375</LongitudeDegrees>
            </Position>
            <AltitudeMeters>890.20001220703125</AltitudeMeters>
            <DistanceMeters>71867.246453218</DistanceMeters>
          </Trackpoint>
          <Trackpoint>
            <Time>2020-01-19T11:36:07.000Z</Time>
            <Position>
              <LatitudeDegrees>38.9237754978239536285400390625</LatitudeDegrees>
              <LongitudeDegrees>-2.84356492571532726287841796875</LongitudeDegrees>
            </Position>
            <AltitudeMeters>890</AltitudeMeters>
            <DistanceMeters>71872.326606609</DistanceMeters>
          </Trackpoint>
          <Trackpoint>
            <Time>2020-01-19T11:36:09.000Z</Time>
            <Position>
              <LatitudeDegrees>38.92382788471877574920654296875</LatitudeDegrees>
              <LongitudeDegrees>-2.84345227293670177459716796875</LongitudeDegrees>
            </Position>
            <AltitudeMeters>889.79998779296875</AltitudeMeters>
            <DistanceMeters>71883.691340806</DistanceMeters>
          </Trackpoint>
          <Trackpoint>
            <Time>2020-01-19T11:36:13.000Z</Time>
            <Position>
              <LatitudeDegrees>38.92391882836818695068359375</LatitudeDegrees>
              <LongitudeDegrees>-2.84317441284656524658203125</LongitudeDegrees>
            </Position>
            <AltitudeMeters>887</AltitudeMeters>
            <DistanceMeters>71909.794125868</DistanceMeters>
          </Trackpoint>
          <Trackpoint>
            <Time>2020-01-19T11:36:15.000Z</Time>
            <Position>
              <LatitudeDegrees>38.9239930920302867889404296875</LatitudeDegrees>
              <LongitudeDegrees>-2.8430357761681079864501953125</LongitudeDegrees>
            </Position>
            <AltitudeMeters>885</AltitudeMeters>
            <DistanceMeters>71924.369191849</DistanceMeters>
          </Trackpoint>
          <Trackpoint>
            <Time>2020-01-19T11:36:17.000Z</Time>
            <Position>
              <LatitudeDegrees>38.9240437187254428863525390625</LatitudeDegrees>
              <LongitudeDegrees>-2.84288632683455944061279296875</LongitudeDegrees>
            </Position>
            <AltitudeMeters>883.4000244140625</AltitudeMeters>
            <DistanceMeters>71938.483778152</DistanceMeters>
          </Trackpoint>
          <Trackpoint>
            <Time>2020-01-19T11:36:22.000Z</Time>
            <Position>
              <LatitudeDegrees>38.9240115322172641754150390625</LatitudeDegrees>
              <LongitudeDegrees>-2.84251433797180652618408203125</LongitudeDegrees>
            </Position>
            <AltitudeMeters>883.4000244140625</AltitudeMeters>
            <DistanceMeters>71970.893182063</DistanceMeters>
          </Trackpoint>
          <Trackpoint>
            <Time>2020-01-19T11:36:23.000Z</Time>
            <Position>
              <LatitudeDegrees>38.92401480115950107574462890625</LatitudeDegrees>
              <LongitudeDegrees>-2.84244074486196041107177734375</LongitudeDegrees>
            </Position>
            <AltitudeMeters>883.20001220703125</AltitudeMeters>
            <DistanceMeters>71977.276261643</DistanceMeters>
          </Trackpoint>
          <Trackpoint>
            <Time>2020-01-19T11:36:27.000Z</Time>
            <Position>
              <LatitudeDegrees>38.9241005480289459228515625</LatitudeDegrees>
              <LongitudeDegrees>-2.84216456115245819091796875</LongitudeDegrees>
            </Position>
            <AltitudeMeters>880.5999755859375</AltitudeMeters>
            <DistanceMeters>72003.025169827</DistanceMeters>
          </Trackpoint>
          <Trackpoint>
            <Time>2020-01-19T11:36:29.000Z</Time>
            <Position>
              <LatitudeDegrees>38.92418042756617069244384765625</LatitudeDegrees>
              <LongitudeDegrees>-2.84208568744361400604248046875</LongitudeDegrees>
            </Position>
            <AltitudeMeters>879</AltitudeMeters>
            <DistanceMeters>72014.237114091</DistanceMeters>
          </Trackpoint>
          <Trackpoint>
            <Time>2020-01-19T11:36:31.000Z</Time>
            <Position>
              <LatitudeDegrees>38.9242707006633281707763671875</LatitudeDegrees>
              <LongitudeDegrees>-2.8420748747885227203369140625</LongitudeDegrees>
            </Position>
            <AltitudeMeters>877.5999755859375</AltitudeMeters>
            <DistanceMeters>72024.328754301</DistanceMeters>
          </Trackpoint>
          <Trackpoint>
            <Time>2020-01-19T11:36:35.000Z</Time>
            <Position>
              <LatitudeDegrees>38.92445334233343601226806640625</LatitudeDegrees>
              <LongitudeDegrees>-2.8418556042015552520751953125</LongitudeDegrees>
            </Position>
            <AltitudeMeters>874.4000244140625</AltitudeMeters>
            <DistanceMeters>72052.144812074</DistanceMeters>
          </Trackpoint>
          <Trackpoint>
            <Time>2020-01-19T11:36:37.000Z</Time>
            <Position>
              <LatitudeDegrees>38.92451670952141284942626953125</LatitudeDegrees>
              <LongitudeDegrees>-2.84170699305832386016845703125</LongitudeDegrees>
            </Position>
            <AltitudeMeters>873.5999755859375</AltitudeMeters>
            <DistanceMeters>72066.818979951</DistanceMeters>
          </Trackpoint>
          <Trackpoint>
            <Time>2020-01-19T11:36:40.000Z</Time>
            <Position>
              <LatitudeDegrees>38.92450095154345035552978515625</LatitudeDegrees>
              <LongitudeDegrees>-2.8414549492299556732177734375</LongitudeDegrees>
            </Position>
            <AltitudeMeters>873.4000244140625</AltitudeMeters>
            <DistanceMeters>72088.713926817</DistanceMeters>
          </Trackpoint>
          <Trackpoint>
            <Time>2020-01-19T11:36:42.000Z</Time>
            <Position>
              <LatitudeDegrees>38.924548812210559844970703125</LatitudeDegrees>
              <LongitudeDegrees>-2.84128136001527309417724609375</LongitudeDegrees>
            </Position>
            <AltitudeMeters>873</AltitudeMeters>
            <DistanceMeters>72104.661153625</DistanceMeters>
          </Trackpoint>
          <Trackpoint>
            <Time>2020-01-19T11:36:47.000Z</Time>
            <Position>
              <LatitudeDegrees>38.9246884547173976898193359375</LatitudeDegrees>
              <LongitudeDegrees>-2.84091087989509105682373046875</LongitudeDegrees>
            </Position>
            <AltitudeMeters>872</AltitudeMeters>
            <DistanceMeters>72140.307699558</DistanceMeters>
          </Trackpoint>
          <Trackpoint>
            <Time>2020-01-19T11:36:51.000Z</Time>
            <Position>
              <LatitudeDegrees>38.9248115010559558868408203125</LatitudeDegrees>
              <LongitudeDegrees>-2.8406237997114658355712890625</LongitudeDegrees>
            </Position>
            <AltitudeMeters>869.79998779296875</AltitudeMeters>
            <DistanceMeters>72168.688728764</DistanceMeters>
          </Trackpoint>
          <Trackpoint>
            <Time>2020-01-19T11:36:53.000Z</Time>
            <Position>
              <LatitudeDegrees>38.9248701743781566619873046875</LatitudeDegrees>
              <LongitudeDegrees>-2.8404789604246616363525390625</LongitudeDegrees>
            </Position>
            <AltitudeMeters>868.5999755859375</AltitudeMeters>
            <DistanceMeters>72182.828882675</DistanceMeters>
          </Trackpoint>
          <Trackpoint>
            <Time>2020-01-19T11:36:57.000Z</Time>
            <Position>
              <LatitudeDegrees>38.92498190514743328094482421875</LatitudeDegrees>
              <LongitudeDegrees>-2.8401587717235088348388671875</LongitudeDegrees>
            </Position>
            <AltitudeMeters>867</AltitudeMeters>
            <DistanceMeters>72213.215151225</DistanceMeters>
          </Trackpoint>
          <Trackpoint>
            <Time>2020-01-19T11:36:58.000Z</Time>
            <Position>
              <LatitudeDegrees>38.925020210444927215576171875</LatitudeDegrees>
              <LongitudeDegrees>-2.84008744172751903533935546875</LongitudeDegrees>
            </Position>
            <AltitudeMeters>866.5999755859375</AltitudeMeters>
            <DistanceMeters>72220.720457138</DistanceMeters>
          </Trackpoint>
          <Trackpoint>
            <Time>2020-01-19T11:37:00.000Z</Time>
            <Position>
              <LatitudeDegrees>38.92509439028799533843994140625</LatitudeDegrees>
              <LongitudeDegrees>-2.83995014615356922149658203125</LongitudeDegrees>
            </Position>
            <AltitudeMeters>865</AltitudeMeters>
            <DistanceMeters>72235.194495051</DistanceMeters>
          </Trackpoint>
          <Trackpoint>
            <Time>2020-01-19T11:37:03.000Z</Time>
            <Position>
              <LatitudeDegrees>38.9251655526459217071533203125</LatitudeDegrees>
              <LongitudeDegrees>-2.83971863798797130584716796875</LongitudeDegrees>
            </Position>
            <AltitudeMeters>862.4000244140625</AltitudeMeters>
            <DistanceMeters>72256.74859844</DistanceMeters>
          </Trackpoint>
          <Trackpoint>
            <Time>2020-01-19T11:37:05.000Z</Time>
            <Position>
              <LatitudeDegrees>38.925255239009857177734375</LatitudeDegrees>
              <LongitudeDegrees>-2.83962249755859375</LongitudeDegrees>
            </Position>
            <AltitudeMeters>860.5999755859375</AltitudeMeters>
            <DistanceMeters>72269.746432882</DistanceMeters>
          </Trackpoint>
          <Trackpoint>
            <Time>2020-01-19T11:37:07.000Z</Time>
            <Position>
              <LatitudeDegrees>38.92536512576043605804443359375</LatitudeDegrees>
              <LongitudeDegrees>-2.83960313536226749420166015625</LongitudeDegrees>
            </Position>
            <AltitudeMeters>859.4000244140625</AltitudeMeters>
            <DistanceMeters>72282.091130937</DistanceMeters>
          </Trackpoint>
          <Trackpoint>
            <Time>2020-01-19T11:37:08.000Z</Time>
            <Position>
              <LatitudeDegrees>38.92541642300784587860107421875</LatitudeDegrees>
              <LongitudeDegrees>-2.83960036933422088623046875</LongitudeDegrees>
            </Position>
            <AltitudeMeters>858.79998779296875</AltitudeMeters>
            <DistanceMeters>72287.805389981</DistanceMeters>
          </Trackpoint>
          <Trackpoint>
            <Time>2020-01-19T11:37:10.000Z</Time>
            <Position>
              <LatitudeDegrees>38.92550895921885967254638671875</LatitudeDegrees>
              <LongitudeDegrees>-2.8396236710250377655029296875</LongitudeDegrees>
            </Position>
            <AltitudeMeters>858</AltitudeMeters>
            <DistanceMeters>72298.300143069</DistanceMeters>
          </Trackpoint>
          <Trackpoint>
            <Time>2020-01-19T11:37:12.000Z</Time>
            <Position>
              <LatitudeDegrees>38.92559478990733623504638671875</LatitudeDegrees>
              <LongitudeDegrees>-2.83968829549849033355712890625</LongitudeDegrees>
            </Position>
            <AltitudeMeters>857.4000244140625</AltitudeMeters>
            <DistanceMeters>72309.371061169</DistanceMeters>
          </Trackpoint>
          <Trackpoint>
            <Time>2020-01-19T11:37:14.000Z</Time>
            <Position>
              <LatitudeDegrees>38.9256791956722736358642578125</LatitudeDegrees>
              <LongitudeDegrees>-2.8397775627672672271728515625</LongitudeDegrees>
            </Position>
            <AltitudeMeters>857.20001220703125</AltitudeMeters>
            <DistanceMeters>72321.536707593</DistanceMeters>
          </Trackpoint>
          <Trackpoint>
            <Time>2020-01-19T11:37:17.000Z</Time>
            <Position>
              <LatitudeDegrees>38.92583250068128108978271484375</LatitudeDegrees>
              <LongitudeDegrees>-2.839885689318180084228515625</LongitudeDegrees>
            </Position>
            <AltitudeMeters>856.4000244140625</AltitudeMeters>
            <DistanceMeters>72340.99956136</DistanceMeters>
          </Trackpoint>
          <Trackpoint>
            <Time>2020-01-19T11:37:18.000Z</Time>
            <Position>
              <LatitudeDegrees>38.92588212154805660247802734375</LatitudeDegrees>
              <LongitudeDegrees>-2.8399294428527355194091796875</LongitudeDegrees>
            </Position>
            <AltitudeMeters>856.20001220703125</AltitudeMeters>
            <DistanceMeters>72347.69607983</DistanceMeters>
          </Trackpoint>
          <Trackpoint>
            <Time>2020-01-19T11:37:20.000Z</Time>
            <Position>
              <LatitudeDegrees>38.92595856450498104095458984375</LatitudeDegrees>
              <LongitudeDegrees>-2.840052656829357147216796875</LongitudeDegrees>
            </Position>
            <AltitudeMeters>856.20001220703125</AltitudeMeters>
            <DistanceMeters>72361.341929249</DistanceMeters>
          </Trackpoint>
          <Trackpoint>
            <Time>2020-01-19T11:37:21.000Z</Time>
            <Position>
              <LatitudeDegrees>38.92600231803953647613525390625</LatitudeDegrees>
              <LongitudeDegrees>-2.84010990522801876068115234375</LongitudeDegrees>
            </Position>
            <AltitudeMeters>856</AltitudeMeters>
            <DistanceMeters>72368.290585144</DistanceMeters>
          </Trackpoint>
          <Trackpoint>
            <Time>2020-01-19T11:37:24.000Z</Time>
            <Position>
              <LatitudeDegrees>38.92610625363886356353759765625</LatitudeDegrees>
              <LongitudeDegrees>-2.84030788578093051910400390625</LongitudeDegrees>
            </Position>
            <AltitudeMeters>855.79998779296875</AltitudeMeters>
            <DistanceMeters>72388.971507287</DistanceMeters>
          </Trackpoint>
          <Trackpoint>
            <Time>2020-01-19T11:37:27.000Z</Time>
            <Position>
              <LatitudeDegrees>38.92617129720747470855712890625</LatitudeDegrees>
              <LongitudeDegrees>-2.840579040348529815673828125</LongitudeDegrees>
            </Position>
            <AltitudeMeters>856</AltitudeMeters>
            <DistanceMeters>72413.541012985</DistanceMeters>
          </Trackpoint>
          <Trackpoint>
            <Time>2020-01-19T11:37:28.000Z</Time>
            <Position>
              <LatitudeDegrees>38.92620398662984371185302734375</LatitudeDegrees>
              <LongitudeDegrees>-2.840672917664051055908203125</LongitudeDegrees>
            </Position>
            <AltitudeMeters>855.79998779296875</AltitudeMeters>
            <DistanceMeters>72422.446694397</DistanceMeters>
          </Trackpoint>
          <Trackpoint>
            <Time>2020-01-19T11:37:30.000Z</Time>
            <Position>
              <LatitudeDegrees>38.926286883652210235595703125</LatitudeDegrees>
              <LongitudeDegrees>-2.84085564315319061279296875</LongitudeDegrees>
            </Position>
            <AltitudeMeters>855.20001220703125</AltitudeMeters>
            <DistanceMeters>72440.762215406</DistanceMeters>
          </Trackpoint>
          <Trackpoint>
            <Time>2020-01-19T11:37:32.000Z</Time>
            <Position>
              <LatitudeDegrees>38.92637950368225574493408203125</LatitudeDegrees>
              <LongitudeDegrees>-2.84099151380360126495361328125</LongitudeDegrees>
            </Position>
            <AltitudeMeters>854</AltitudeMeters>
            <DistanceMeters>72456.405009641</DistanceMeters>
          </Trackpoint>
          <Trackpoint>
            <Time>2020-01-19T11:37:34.000Z</Time>
            <Position>
              <LatitudeDegrees>38.9264905638992786407470703125</LatitudeDegrees>
              <LongitudeDegrees>-2.84099377691745758056640625</LongitudeDegrees>
            </Position>
            <AltitudeMeters>851.5999755859375</AltitudeMeters>
            <DistanceMeters>72468.767616316</DistanceMeters>
          </Trackpoint>
          <Trackpoint>
            <Time>2020-01-19T11:37:36.000Z</Time>
            <Position>
              <LatitudeDegrees>38.926564157009124755859375</LatitudeDegrees>
              <LongitudeDegrees>-2.84089394845068454742431640625</LongitudeDegrees>
            </Position>
            <AltitudeMeters>849.4000244140625</AltitudeMeters>
            <DistanceMeters>72480.675567038</DistanceMeters>
          </Trackpoint>
          <Trackpoint>
            <Time>2020-01-19T11:37:37.000Z</Time>
            <Position>
              <LatitudeDegrees>38.9265911467373371124267578125</LatitudeDegrees>
              <LongitudeDegrees>-2.8408115543425083160400390625</LongitudeDegrees>
            </Position>
            <AltitudeMeters>848.4000244140625</AltitudeMeters>
            <DistanceMeters>72488.41659974</DistanceMeters>
          </Trackpoint>
          <Trackpoint>
            <Time>2020-01-19T11:37:40.000Z</Time>
            <Position>
              <LatitudeDegrees>38.92669751308858394622802734375</LatitudeDegrees>
              <LongitudeDegrees>-2.84055280499160289764404296875</LongitudeDegrees>
            </Position>
            <AltitudeMeters>844.4000244140625</AltitudeMeters>
            <DistanceMeters>72513.756502576</DistanceMeters>
          </Trackpoint>
          <Trackpoint>
            <Time>2020-01-19T11:37:42.000Z</Time>
            <Position>
              <LatitudeDegrees>38.92677806317806243896484375</LatitudeDegrees>
              <LongitudeDegrees>-2.84042338840663433074951171875</LongitudeDegrees>
            </Position>
            <AltitudeMeters>842</AltitudeMeters>
            <DistanceMeters>72528.10742427</DistanceMeters>
          </Trackpoint>
          <Trackpoint>
            <Time>2020-01-19T11:37:44.000Z</Time>
            <Position>
              <LatitudeDegrees>38.92682977952063083648681640625</LatitudeDegrees>
              <LongitudeDegrees>-2.84037527628242969512939453125</LongitudeDegrees>
            </Position>
            <AltitudeMeters>840.5999755859375</AltitudeMeters>
            <DistanceMeters>72535.212855812</DistanceMeters>
          </Trackpoint>
          <Trackpoint>
            <Time>2020-01-19T11:37:47.000Z</Time>
            <Position>
              <LatitudeDegrees>38.9268741197884082794189453125</LatitudeDegrees>
              <LongitudeDegrees>-2.8403797186911106109619140625</LongitudeDegrees>
            </Position>
            <AltitudeMeters>839.5999755859375</AltitudeMeters>
            <DistanceMeters>72540.162461594</DistanceMeters>
          </Trackpoint>
          <Trackpoint>
            <Time>2020-01-19T11:37:53.000Z</Time>
            <Position>
              <LatitudeDegrees>38.927001021802425384521484375</LatitudeDegrees>
              <LongitudeDegrees>-2.8404269926249980926513671875</LongitudeDegrees>
            </Position>
            <AltitudeMeters>838.5999755859375</AltitudeMeters>
            <DistanceMeters>72554.867979969</DistanceMeters>
          </Trackpoint>
          <Trackpoint>
            <Time>2020-01-19T11:37:57.000Z</Time>
            <Position>
              <LatitudeDegrees>38.9271104894578456878662109375</LatitudeDegrees>
              <LongitudeDegrees>-2.840463034808635711669921875</LongitudeDegrees>
            </Position>
            <AltitudeMeters>838.20001220703125</AltitudeMeters>
            <DistanceMeters>72567.445296024</DistanceMeters>
          </Trackpoint>
          <Trackpoint>
            <Time>2020-01-19T11:38:00.000Z</Time>
            <Position>
              <LatitudeDegrees>38.927194140851497650146484375</LatitudeDegrees>
              <LongitudeDegrees>-2.840495221316814422607421875</LongitudeDegrees>
            </Position>
            <AltitudeMeters>837.79998779296875</AltitudeMeters>
            <DistanceMeters>72577.164071646</DistanceMeters>
          </Trackpoint>
          <Trackpoint>
            <Time>2020-01-19T11:38:07.000Z</Time>
            <Position>
              <LatitudeDegrees>38.927402012050151824951171875</LatitudeDegrees>
              <LongitudeDegrees>-2.84056688658893108367919921875</LongitudeDegrees>
            </Position>
            <AltitudeMeters>837.20001220703125</AltitudeMeters>
            <DistanceMeters>72601.118344283</DistanceMeters>
          </Trackpoint>
          <Trackpoint>
            <Time>2020-01-19T11:38:17.000Z</Time>
            <Position>
              <LatitudeDegrees>38.92770552076399326324462890625</LatitudeDegrees>
              <LongitudeDegrees>-2.84068389795720577239990234375</LongitudeDegrees>
            </Position>
            <AltitudeMeters>836.5999755859375</AltitudeMeters>
            <DistanceMeters>72636.386059824</DistanceMeters>
          </Trackpoint>
          <Trackpoint>
            <Time>2020-01-19T11:38:22.000Z</Time>
            <Position>
              <LatitudeDegrees>38.92786695621907711029052734375</LatitudeDegrees>
              <LongitudeDegrees>-2.84074433147907257080078125</LongitudeDegrees>
            </Position>
            <AltitudeMeters>837</AltitudeMeters>
            <DistanceMeters>72655.100291969</DistanceMeters>
          </Trackpoint>
          <Trackpoint>
            <Time>2020-01-19T11:38:27.000Z</Time>
            <Position>
              <LatitudeDegrees>38.92802990041673183441162109375</LatitudeDegrees>
              <LongitudeDegrees>-2.84081398509442806243896484375</LongitudeDegrees>
            </Position>
            <AltitudeMeters>836.5999755859375</AltitudeMeters>
            <DistanceMeters>72674.212713384</DistanceMeters>
          </Trackpoint>
          <Trackpoint>
            <Time>2020-01-19T11:38:37.000Z</Time>
            <Position>
              <LatitudeDegrees>38.92838629893958568572998046875</LatitudeDegrees>
              <LongitudeDegrees>-2.840939462184906005859375</LongitudeDegrees>
            </Position>
            <AltitudeMeters>836</AltitudeMeters>
            <DistanceMeters>72715.341390726</DistanceMeters>
          </Trackpoint>
          <Trackpoint>
            <Time>2020-01-19T11:38:47.000Z</Time>
            <Position>
              <LatitudeDegrees>38.928720317780971527099609375</LatitudeDegrees>
              <LongitudeDegrees>-2.84106762148439884185791015625</LongitudeDegrees>
            </Position>
            <AltitudeMeters>837.20001220703125</AltitudeMeters>
            <DistanceMeters>72754.139181808</DistanceMeters>
          </Trackpoint>
          <Trackpoint>
            <Time>2020-01-19T11:38:52.000Z</Time>
            <Position>
              <LatitudeDegrees>38.928894661366939544677734375</LatitudeDegrees>
              <LongitudeDegrees>-2.841138951480388641357421875</LongitudeDegrees>
            </Position>
            <AltitudeMeters>838</AltitudeMeters>
            <DistanceMeters>72774.503298057</DistanceMeters>
          </Trackpoint>
          <Trackpoint>
            <Time>2020-01-19T11:39:02.000Z</Time>
            <Position>
              <LatitudeDegrees>38.92925013788044452667236328125</LatitudeDegrees>
              <LongitudeDegrees>-2.8412782587110996246337890625</LongitudeDegrees>
            </Position>
            <AltitudeMeters>839.4000244140625</AltitudeMeters>
            <DistanceMeters>72815.866233924</DistanceMeters>
          </Trackpoint>
          <Trackpoint>
            <Time>2020-01-19T11:39:12.000Z</Time>
            <Position>
              <LatitudeDegrees>38.92960284836590290069580078125</LatitudeDegrees>
              <LongitudeDegrees>-2.8415092639625072479248046875</LongitudeDegrees>
            </Position>
            <AltitudeMeters>841.20001220703125</AltitudeMeters>
            <DistanceMeters>72859.925234516</DistanceMeters>
          </Trackpoint>
          <Trackpoint>
            <Time>2020-01-19T11:39:22.000Z</Time>
            <Position>
              <LatitudeDegrees>38.929968215525150299072265625</LatitudeDegrees>
              <LongitudeDegrees>-2.8417996130883693695068359375</LongitudeDegrees>
            </Position>
            <AltitudeMeters>838.20001220703125</AltitudeMeters>
            <DistanceMeters>72907.734533505</DistanceMeters>
          </Trackpoint>
          <Trackpoint>
            <Time>2020-01-19T11:39:32.000Z</Time>
            <Position>
              <LatitudeDegrees>38.930337019264698028564453125</LatitudeDegrees>
              <LongitudeDegrees>-2.84207428805530071258544921875</LongitudeDegrees>
            </Position>
            <AltitudeMeters>837.79998779296875</AltitudeMeters>
            <DistanceMeters>72955.174854038</DistanceMeters>
          </Trackpoint>
          <Trackpoint>
            <Time>2020-01-19T11:39:36.000Z</Time>
            <Position>
              <LatitudeDegrees>38.9304716326296329498291015625</LatitudeDegrees>
              <LongitudeDegrees>-2.8420557640492916107177734375</LongitudeDegrees>
            </Position>
            <AltitudeMeters>837.20001220703125</AltitudeMeters>
            <DistanceMeters>72970.243406463</DistanceMeters>
          </Trackpoint>
          <Trackpoint>
            <Time>2020-01-19T11:39:42.000Z</Time>
            <Position>
              <LatitudeDegrees>38.930652849376201629638671875</LatitudeDegrees>
              <LongitudeDegrees>-2.84202952869236469268798828125</LongitudeDegrees>
            </Position>
            <AltitudeMeters>836.5999755859375</AltitudeMeters>
            <DistanceMeters>72990.540454217</DistanceMeters>
          </Trackpoint>
          <Trackpoint>
            <Time>2020-01-19T11:39:52.000Z</Time>
            <Position>
              <LatitudeDegrees>38.9310120977461338043212890625</LatitudeDegrees>
              <LongitudeDegrees>-2.84215274266898632049560546875</LongitudeDegrees>
            </Position>
            <AltitudeMeters>838</AltitudeMeters>
            <DistanceMeters>73031.924124645</DistanceMeters>
          </Trackpoint>
          <Trackpoint>
            <Time>2020-01-19T11:40:00.000Z</Time>
            <Position>
              <LatitudeDegrees>38.931307308375835418701171875</LatitudeDegrees>
              <LongitudeDegrees>-2.84228031523525714874267578125</LongitudeDegrees>
            </Position>
            <AltitudeMeters>839.20001220703125</AltitudeMeters>
            <DistanceMeters>73066.588562363</DistanceMeters>
          </Trackpoint>
          <Trackpoint>
            <Time>2020-01-19T11:40:02.000Z</Time>
            <Position>
              <LatitudeDegrees>38.93139322288334369659423828125</LatitudeDegrees>
              <LongitudeDegrees>-2.84226723946630954742431640625</LongitudeDegrees>
            </Position>
            <AltitudeMeters>838.5999755859375</AltitudeMeters>
            <DistanceMeters>73076.217727692</DistanceMeters>
          </Trackpoint>
          <Trackpoint>
            <Time>2020-01-19T11:40:04.000Z</Time>
            <Position>
              <LatitudeDegrees>38.9314452745020389556884765625</LatitudeDegrees>
              <LongitudeDegrees>-2.8421664051711559295654296875</LongitudeDegrees>
            </Position>
            <AltitudeMeters>837.4000244140625</AltitudeMeters>
            <DistanceMeters>73086.69568882</DistanceMeters>
          </Trackpoint>
          <Trackpoint>
            <Time>2020-01-19T11:40:05.000Z</Time>
            <Position>
              <LatitudeDegrees>38.93147218041121959686279296875</LatitudeDegrees>
              <LongitudeDegrees>-2.84211368300020694732666015625</LongitudeDegrees>
            </Position>
            <AltitudeMeters>836.79998779296875</AltitudeMeters>
            <DistanceMeters>73092.154557958</DistanceMeters>
          </Trackpoint>
          <Trackpoint>
            <Time>2020-01-19T11:40:06.000Z</Time>
            <Position>
              <LatitudeDegrees>38.931507132947444915771484375</LatitudeDegrees>
              <LongitudeDegrees>-2.84207403659820556640625</LongitudeDegrees>
            </Position>
            <AltitudeMeters>836.20001220703125</AltitudeMeters>
            <DistanceMeters>73097.342007023</DistanceMeters>
          </Trackpoint>
          <Trackpoint>
            <Time>2020-01-19T11:40:08.000Z</Time>
            <Position>
              <LatitudeDegrees>38.93159874714910984039306640625</LatitudeDegrees>
              <LongitudeDegrees>-2.84201745875179767608642578125</LongitudeDegrees>
            </Position>
            <AltitudeMeters>835.20001220703125</AltitudeMeters>
            <DistanceMeters>73108.654577171</DistanceMeters>
          </Trackpoint>
          <Trackpoint>
            <Time>2020-01-19T11:40:10.000Z</Time>
            <Position>
              <LatitudeDegrees>38.931692875921726226806640625</LatitudeDegrees>
              <LongitudeDegrees>-2.84203120507299900054931640625</LongitudeDegrees>
            </Position>
            <AltitudeMeters>834.79998779296875</AltitudeMeters>
            <DistanceMeters>73119.198689328</DistanceMeters>
          </Trackpoint>
          <Trackpoint>
            <Time>2020-01-19T11:40:12.000Z</Time>
            <Position>
              <LatitudeDegrees>38.9317745156586170196533203125</LatitudeDegrees>
              <LongitudeDegrees>-2.842060960829257965087890625</LongitudeDegrees>
            </Position>
            <AltitudeMeters>834.4000244140625</AltitudeMeters>
            <DistanceMeters>73128.643216586</DistanceMeters>
          </Trackpoint>
          <Trackpoint>
            <Time>2020-01-19T11:40:22.000Z</Time>
            <Position>
              <LatitudeDegrees>38.93212898634374141693115234375</LatitudeDegrees>
              <LongitudeDegrees>-2.84218576736748218536376953125</LongitudeDegrees>
            </Position>
            <AltitudeMeters>834.4000244140625</AltitudeMeters>
            <DistanceMeters>73169.549650989</DistanceMeters>
          </Trackpoint>
          <Trackpoint>
            <Time>2020-01-19T11:40:25.000Z</Time>
            <Position>
              <LatitudeDegrees>38.93220358528196811676025390625</LatitudeDegrees>
              <LongitudeDegrees>-2.842235974967479705810546875</LongitudeDegrees>
            </Position>
            <AltitudeMeters>834.5999755859375</AltitudeMeters>
            <DistanceMeters>73178.921713386</DistanceMeters>
          </Trackpoint>
          <Trackpoint>
            <Time>2020-01-19T11:40:27.000Z</Time>
            <Position>
              <LatitudeDegrees>38.93227851949632167816162109375</LatitudeDegrees>
              <LongitudeDegrees>-2.84223186783492565155029296875</LongitudeDegrees>
            </Position>
            <AltitudeMeters>834.4000244140625</AltitudeMeters>
            <DistanceMeters>73187.27001441</DistanceMeters>
          </Trackpoint>
          <Trackpoint>
            <Time>2020-01-19T11:40:30.000Z</Time>
            <Position>
              <LatitudeDegrees>38.9323910884559154510498046875</LatitudeDegrees>
              <LongitudeDegrees>-2.84220286644995212554931640625</LongitudeDegrees>
            </Position>
            <AltitudeMeters>833.5999755859375</AltitudeMeters>
            <DistanceMeters>73200.048192773</DistanceMeters>
          </Trackpoint>
          <Trackpoint>
            <Time>2020-01-19T11:40:32.000Z</Time>
            <Position>
              <LatitudeDegrees>38.9324584789574146270751953125</LatitudeDegrees>
              <LongitudeDegrees>-2.84218928776681423187255859375</LongitudeDegrees>
            </Position>
            <AltitudeMeters>833</AltitudeMeters>
            <DistanceMeters>73207.64022662</DistanceMeters>
          </Trackpoint>
          <Trackpoint>
            <Time>2020-01-19T11:40:42.000Z</Time>
            <Position>
              <LatitudeDegrees>38.9328028075397014617919921875</LatitudeDegrees>
              <LongitudeDegrees>-2.84215475432574748992919921875</LongitudeDegrees>
            </Position>
            <AltitudeMeters>831</AltitudeMeters>
            <DistanceMeters>73246.081322203</DistanceMeters>
          </Trackpoint>
          <Trackpoint>
            <Time>2020-01-19T11:40:51.000Z</Time>
            <Position>
              <LatitudeDegrees>38.93305719830095767974853515625</LatitudeDegrees>
              <LongitudeDegrees>-2.84207403659820556640625</LongitudeDegrees>
            </Position>
            <AltitudeMeters>831</AltitudeMeters>
            <DistanceMeters>73275.245081222</DistanceMeters>
          </Trackpoint>
          <Trackpoint>
            <Time>2020-01-19T11:40:52.000Z</Time>
            <Position>
              <LatitudeDegrees>38.933080248534679412841796875</LatitudeDegrees>
              <LongitudeDegrees>-2.84207177348434925079345703125</LongitudeDegrees>
            </Position>
            <AltitudeMeters>831</AltitudeMeters>
            <DistanceMeters>73277.816076351</DistanceMeters>
          </Trackpoint>
          <Trackpoint>
            <Time>2020-01-19T11:40:59.000Z</Time>
            <Position>
              <LatitudeDegrees>38.9332768879830837249755859375</LatitudeDegrees>
              <LongitudeDegrees>-2.84213094972074031829833984375</LongitudeDegrees>
            </Position>
            <AltitudeMeters>831</AltitudeMeters>
            <DistanceMeters>73300.294062633</DistanceMeters>
          </Trackpoint>
          <Trackpoint>
            <Time>2020-01-19T11:41:02.000Z</Time>
            <Position>
              <LatitudeDegrees>38.933390043675899505615234375</LatitudeDegrees>
              <LongitudeDegrees>-2.8421369008719921112060546875</LongitudeDegrees>
            </Position>
            <AltitudeMeters>831</AltitudeMeters>
            <DistanceMeters>73312.899348235</DistanceMeters>
          </Trackpoint>
          <Trackpoint>
            <Time>2020-01-19T11:41:12.000Z</Time>
            <Position>
              <LatitudeDegrees>38.93361090682446956634521484375</LatitudeDegrees>
              <LongitudeDegrees>-2.8421392478048801422119140625</LongitudeDegrees>
            </Position>
            <AltitudeMeters>831</AltitudeMeters>
            <DistanceMeters>73337.482632515</DistanceMeters>
          </Trackpoint>
          <Trackpoint>
            <Time>2020-01-19T11:41:22.000Z</Time>
            <Position>
              <LatitudeDegrees>38.9338961429893970489501953125</LatitudeDegrees>
              <LongitudeDegrees>-2.842092812061309814453125</LongitudeDegrees>
            </Position>
            <AltitudeMeters>831</AltitudeMeters>
            <DistanceMeters>73369.483645768</DistanceMeters>
          </Trackpoint>
          <Trackpoint>
            <Time>2020-01-19T11:41:28.000Z</Time>
            <Position>
              <LatitudeDegrees>38.93405380658805370330810546875</LatitudeDegrees>
              <LongitudeDegrees>-2.842136733233928680419921875</LongitudeDegrees>
            </Position>
            <AltitudeMeters>831</AltitudeMeters>
            <DistanceMeters>73387.439169132</DistanceMeters>
          </Trackpoint>
          <Trackpoint>
            <Time>2020-01-19T11:41:32.000Z</Time>
            <Position>
              <LatitudeDegrees>38.934132345020771026611328125</LatitudeDegrees>
              <LongitudeDegrees>-2.842183001339435577392578125</LongitudeDegrees>
            </Position>
            <AltitudeMeters>831</AltitudeMeters>
            <DistanceMeters>73397.054726979</DistanceMeters>
          </Trackpoint>
          <Trackpoint>
            <Time>2020-01-19T11:41:34.000Z</Time>
            <Position>
              <LatitudeDegrees>38.934153132140636444091796875</LatitudeDegrees>
              <LongitudeDegrees>-2.84222281537950038909912109375</LongitudeDegrees>
            </Position>
            <AltitudeMeters>831</AltitudeMeters>
            <DistanceMeters>73401.205556517</DistanceMeters>
          </Trackpoint>
          <Trackpoint>
            <Time>2020-01-19T11:41:42.000Z</Time>
            <Position>
              <LatitudeDegrees>38.93433040939271450042724609375</LatitudeDegrees>
              <LongitudeDegrees>-2.8423789702355861663818359375</LongitudeDegrees>
            </Position>
            <AltitudeMeters>831</AltitudeMeters>
            <DistanceMeters>73425.123990058</DistanceMeters>
          </Trackpoint>
          <Trackpoint>
            <Time>2020-01-19T11:41:52.000Z</Time>
            <Position>
              <LatitudeDegrees>38.93462142907083034515380859375</LatitudeDegrees>
              <LongitudeDegrees>-2.8423301875591278076171875</LongitudeDegrees>
            </Position>
            <AltitudeMeters>831</AltitudeMeters>
            <DistanceMeters>73457.789414484</DistanceMeters>
          </Trackpoint>
          <Trackpoint>
            <Time>2020-01-19T11:42:02.000Z</Time>
            <Position>
              <LatitudeDegrees>38.934763334691524505615234375</LatitudeDegrees>
              <LongitudeDegrees>-2.84258608706295490264892578125</LongitudeDegrees>
            </Position>
            <AltitudeMeters>831.20001220703125</AltitudeMeters>
            <DistanceMeters>73484.998269424</DistanceMeters>
          </Trackpoint>
          <Trackpoint>
            <Time>2020-01-19T11:42:12.000Z</Time>
            <Position>
              <LatitudeDegrees>38.934973888099193572998046875</LatitudeDegrees>
              <LongitudeDegrees>-2.84297014586627483367919921875</LongitudeDegrees>
            </Position>
            <AltitudeMeters>833.5999755859375</AltitudeMeters>
            <DistanceMeters>73525.677695291</DistanceMeters>
          </Trackpoint>
          <Trackpoint>
            <Time>2020-01-19T11:42:17.000Z</Time>
            <Position>
              <LatitudeDegrees>38.93508478067815303802490234375</LatitudeDegrees>
              <LongitudeDegrees>-2.8431762568652629852294921875</LongitudeDegrees>
            </Position>
            <AltitudeMeters>832.4000244140625</AltitudeMeters>
            <DistanceMeters>73547.375022438</DistanceMeters>
          </Trackpoint>
          <Trackpoint>
            <Time>2020-01-19T11:42:21.000Z</Time>
            <Position>
              <LatitudeDegrees>38.93520263023674488067626953125</LatitudeDegrees>
              <LongitudeDegrees>-2.84331254661083221435546875</LongitudeDegrees>
            </Position>
            <AltitudeMeters>831.4000244140625</AltitudeMeters>
            <DistanceMeters>73565.018031396</DistanceMeters>
          </Trackpoint>
          <Trackpoint>
            <Time>2020-01-19T11:42:22.000Z</Time>
            <Position>
              <LatitudeDegrees>38.935236074030399322509765625</LatitudeDegrees>
              <LongitudeDegrees>-2.84334112890064716339111328125</LongitudeDegrees>
            </Position>
            <AltitudeMeters>831</AltitudeMeters>
            <DistanceMeters>73569.488328833</DistanceMeters>
          </Trackpoint>
          <Trackpoint>
            <Time>2020-01-19T11:42:32.000Z</Time>
            <Position>
              <LatitudeDegrees>38.935594819486141204833984375</LatitudeDegrees>
              <LongitudeDegrees>-2.84353290684521198272705078125</LongitudeDegrees>
            </Position>
            <AltitudeMeters>831</AltitudeMeters>
            <DistanceMeters>73612.731957734</DistanceMeters>
          </Trackpoint>
          <Trackpoint>
            <Time>2020-01-19T11:42:40.000Z</Time>
            <Position>
              <LatitudeDegrees>38.93578399904072284698486328125</LatitudeDegrees>
              <LongitudeDegrees>-2.843799032270908355712890625</LongitudeDegrees>
            </Position>
            <AltitudeMeters>831</AltitudeMeters>
            <DistanceMeters>73643.944291789</DistanceMeters>
          </Trackpoint>
          <Trackpoint>
            <Time>2020-01-19T11:42:42.000Z</Time>
            <Position>
              <LatitudeDegrees>38.9358043670654296875</LatitudeDegrees>
              <LongitudeDegrees>-2.84388796426355838775634765625</LongitudeDegrees>
            </Position>
            <AltitudeMeters>831</AltitudeMeters>
            <DistanceMeters>73651.971096597</DistanceMeters>
          </Trackpoint>
          <Trackpoint>
            <Time>2020-01-19T11:42:47.000Z</Time>
            <Position>
              <LatitudeDegrees>38.93584300763905048370361328125</LatitudeDegrees>
              <LongitudeDegrees>-2.84413422457873821258544921875</LongitudeDegrees>
            </Position>
            <AltitudeMeters>831</AltitudeMeters>
            <DistanceMeters>73673.721007279</DistanceMeters>
          </Trackpoint>
          <Trackpoint>
            <Time>2020-01-19T11:42:52.000Z</Time>
            <Position>
              <LatitudeDegrees>38.93591425381600856781005859375</LatitudeDegrees>
              <LongitudeDegrees>-2.8443393297493457794189453125</LongitudeDegrees>
            </Position>
            <AltitudeMeters>832.20001220703125</AltitudeMeters>
            <DistanceMeters>73693.168312018</DistanceMeters>
          </Trackpoint>
          <Trackpoint>
            <Time>2020-01-19T11:42:55.000Z</Time>
            <Position>
              <LatitudeDegrees>38.93595297820866107940673828125</LatitudeDegrees>
              <LongitudeDegrees>-2.844432704150676727294921875</LongitudeDegrees>
            </Position>
            <AltitudeMeters>832</AltitudeMeters>
            <DistanceMeters>73702.329399861</DistanceMeters>
          </Trackpoint>
          <Trackpoint>
            <Time>2020-01-19T11:43:02.000Z</Time>
            <Position>
              <LatitudeDegrees>38.93595582805573940277099609375</LatitudeDegrees>
              <LongitudeDegrees>-2.84469095058739185333251953125</LongitudeDegrees>
            </Position>
            <AltitudeMeters>831.20001220703125</AltitudeMeters>
            <DistanceMeters>73724.689571429</DistanceMeters>
          </Trackpoint>
          <Trackpoint>
            <Time>2020-01-19T11:43:06.000Z</Time>
            <Position>
              <LatitudeDegrees>38.93595993518829345703125</LatitudeDegrees>
              <LongitudeDegrees>-2.84482170827686786651611328125</LongitudeDegrees>
            </Position>
            <AltitudeMeters>831</AltitudeMeters>
            <DistanceMeters>73736.019689113</DistanceMeters>
          </Trackpoint>
          <Trackpoint>
            <Time>2020-01-19T11:43:08.000Z</Time>
            <Position>
              <LatitudeDegrees>38.93594878725707530975341796875</LatitudeDegrees>
              <LongitudeDegrees>-2.8448841534554958343505859375</LongitudeDegrees>
            </Position>
            <AltitudeMeters>831</AltitudeMeters>
            <DistanceMeters>73741.566352114</DistanceMeters>
          </Trackpoint>
          <Trackpoint>
            <Time>2020-01-19T11:43:12.000Z</Time>
            <Position>
              <LatitudeDegrees>38.93583990633487701416015625</LatitudeDegrees>
              <LongitudeDegrees>-2.84498817287385463714599609375</LongitudeDegrees>
            </Position>
            <AltitudeMeters>832</AltitudeMeters>
            <DistanceMeters>73756.665137161</DistanceMeters>
          </Trackpoint>
          <Trackpoint>
            <Time>2020-01-19T11:43:18.000Z</Time>
            <Position>
              <LatitudeDegrees>38.9357049576938152313232421875</LatitudeDegrees>
              <LongitudeDegrees>-2.84514927305281162261962890625</LongitudeDegrees>
            </Position>
            <AltitudeMeters>832.79998779296875</AltitudeMeters>
            <DistanceMeters>73777.162291516</DistanceMeters>
          </Trackpoint>
          <Trackpoint>
            <Time>2020-01-19T11:43:22.000Z</Time>
            <Position>
              <LatitudeDegrees>38.9356999285519123077392578125</LatitudeDegrees>
              <LongitudeDegrees>-2.84531489945948123931884765625</LongitudeDegrees>
            </Position>
            <AltitudeMeters>832</AltitudeMeters>
            <DistanceMeters>73791.512583962</DistanceMeters>
          </Trackpoint>
          <Trackpoint>
            <Time>2020-01-19T11:43:28.000Z</Time>
            <Position>
              <LatitudeDegrees>38.9357011020183563232421875</LatitudeDegrees>
              <LongitudeDegrees>-2.84553634934127330780029296875</LongitudeDegrees>
            </Position>
            <AltitudeMeters>831.4000244140625</AltitudeMeters>
            <DistanceMeters>73810.685386363</DistanceMeters>
          </Trackpoint>
          <Trackpoint>
            <Time>2020-01-19T11:43:32.000Z</Time>
            <Position>
              <LatitudeDegrees>38.93568878062069416046142578125</LatitudeDegrees>
              <LongitudeDegrees>-2.845694012939929962158203125</LongitudeDegrees>
            </Position>
            <AltitudeMeters>832</AltitudeMeters>
            <DistanceMeters>73824.404492869</DistanceMeters>
          </Trackpoint>
          <Trackpoint>
            <Time>2020-01-19T11:43:42.000Z</Time>
            <Position>
              <LatitudeDegrees>38.9356278441846370697021484375</LatitudeDegrees>
              <LongitudeDegrees>-2.8460504114627838134765625</LongitudeDegrees>
            </Position>
            <AltitudeMeters>832</AltitudeMeters>
            <DistanceMeters>73855.99683829</DistanceMeters>
          </Trackpoint>
          <Trackpoint>
            <Time>2020-01-19T11:43:46.000Z</Time>
            <Position>
              <LatitudeDegrees>38.935626335442066192626953125</LatitudeDegrees>
              <LongitudeDegrees>-2.84617354162037372589111328125</LongitudeDegrees>
            </Position>
            <AltitudeMeters>831.5999755859375</AltitudeMeters>
            <DistanceMeters>73866.658479921</DistanceMeters>
          </Trackpoint>
          <Trackpoint>
            <Time>2020-01-19T11:43:52.000Z</Time>
            <Position>
              <LatitudeDegrees>38.935584090650081634521484375</LatitudeDegrees>
              <LongitudeDegrees>-2.84643061459064483642578125</LongitudeDegrees>
            </Position>
            <AltitudeMeters>830.79998779296875</AltitudeMeters>
            <DistanceMeters>73889.406216084</DistanceMeters>
          </Trackpoint>
          <Trackpoint>
            <Time>2020-01-19T11:43:54.000Z</Time>
            <Position>
              <LatitudeDegrees>38.93560077063739299774169921875</LatitudeDegrees>
              <LongitudeDegrees>-2.8465082310140132904052734375</LongitudeDegrees>
            </Position>
            <AltitudeMeters>830.5999755859375</AltitudeMeters>
            <DistanceMeters>73896.378224511</DistanceMeters>
          </Trackpoint>
          <Trackpoint>
            <Time>2020-01-19T11:44:02.000Z</Time>
            <Position>
              <LatitudeDegrees>38.9358243159949779510498046875</LatitudeDegrees>
              <LongitudeDegrees>-2.8465873561799526214599609375</LongitudeDegrees>
            </Position>
            <AltitudeMeters>830</AltitudeMeters>
            <DistanceMeters>73922.18528281</DistanceMeters>
          </Trackpoint>
          <Trackpoint>
            <Time>2020-01-19T11:44:05.000Z</Time>
            <Position>
              <LatitudeDegrees>38.9359049499034881591796875</LatitudeDegrees>
              <LongitudeDegrees>-2.8466014377772808074951171875</LongitudeDegrees>
            </Position>
            <AltitudeMeters>829.5999755859375</AltitudeMeters>
            <DistanceMeters>73931.2422809</DistanceMeters>
          </Trackpoint>
          <Trackpoint>
            <Time>2020-01-19T11:44:10.000Z</Time>
            <Position>
              <LatitudeDegrees>38.93606428988277912139892578125</LatitudeDegrees>
              <LongitudeDegrees>-2.8466440178453922271728515625</LongitudeDegrees>
            </Position>
            <AltitudeMeters>829.20001220703125</AltitudeMeters>
            <DistanceMeters>73949.356277082</DistanceMeters>
          </Trackpoint>
          <Trackpoint>
            <Time>2020-01-19T11:44:12.000Z</Time>
            <Position>
              <LatitudeDegrees>38.93614810891449451446533203125</LatitudeDegrees>
              <LongitudeDegrees>-2.8466621227562427520751953125</LongitudeDegrees>
            </Position>
            <AltitudeMeters>828.79998779296875</AltitudeMeters>
            <DistanceMeters>73958.816089848</DistanceMeters>
          </Trackpoint>
          <Trackpoint>
            <Time>2020-01-19T11:44:16.000Z</Time>
            <Position>
              <LatitudeDegrees>38.93634508363902568817138671875</LatitudeDegrees>
              <LongitudeDegrees>-2.84669724293053150177001953125</LongitudeDegrees>
            </Position>
            <AltitudeMeters>828.4000244140625</AltitudeMeters>
            <DistanceMeters>73980.94976797</DistanceMeters>
          </Trackpoint>
          <Trackpoint>
            <Time>2020-01-19T11:44:18.000Z</Time>
            <Position>
              <LatitudeDegrees>38.93645086325705051422119140625</LatitudeDegrees>
              <LongitudeDegrees>-2.8467338718473911285400390625</LongitudeDegrees>
            </Position>
            <AltitudeMeters>828</AltitudeMeters>
            <DistanceMeters>73993.143587664</DistanceMeters>
          </Trackpoint>
          <Trackpoint>
            <Time>2020-01-19T11:44:22.000Z</Time>
            <Position>
              <LatitudeDegrees>38.93664917908608913421630859375</LatitudeDegrees>
              <LongitudeDegrees>-2.84686303697526454925537109375</LongitudeDegrees>
            </Position>
            <AltitudeMeters>827.5999755859375</AltitudeMeters>
            <DistanceMeters>74017.887785028</DistanceMeters>
          </Trackpoint>
          <Trackpoint>
            <Time>2020-01-19T11:44:25.000Z</Time>
            <Position>
              <LatitudeDegrees>38.93678245134651660919189453125</LatitudeDegrees>
              <LongitudeDegrees>-2.846988178789615631103515625</LongitudeDegrees>
            </Position>
            <AltitudeMeters>827.20001220703125</AltitudeMeters>
            <DistanceMeters>74036.256721753</DistanceMeters>
          </Trackpoint>
          <Trackpoint>
            <Time>2020-01-19T11:44:32.000Z</Time>
            <Position>
              <LatitudeDegrees>38.93707908689975738525390625</LatitudeDegrees>
              <LongitudeDegrees>-2.847303338348865509033203125</LongitudeDegrees>
            </Position>
            <AltitudeMeters>829.4000244140625</AltitudeMeters>
            <DistanceMeters>74079.08816196</DistanceMeters>
          </Trackpoint>
          <Trackpoint>
            <Time>2020-01-19T11:44:34.000Z</Time>
            <Position>
              <LatitudeDegrees>38.93716114573180675506591796875</LatitudeDegrees>
              <LongitudeDegrees>-2.84738908521831035614013671875</LongitudeDegrees>
            </Position>
            <AltitudeMeters>829.20001220703125</AltitudeMeters>
            <DistanceMeters>74090.857672258</DistanceMeters>
          </Trackpoint>
          <Trackpoint>
            <Time>2020-01-19T11:44:41.000Z</Time>
            <Position>
              <LatitudeDegrees>38.9374353177845478057861328125</LatitudeDegrees>
              <LongitudeDegrees>-2.8476632572710514068603515625</LongitudeDegrees>
            </Position>
            <AltitudeMeters>825</AltitudeMeters>
            <DistanceMeters>74129.518132198</DistanceMeters>
          </Trackpoint>
          <Trackpoint>
            <Time>2020-01-19T11:44:42.000Z</Time>
            <Position>
              <LatitudeDegrees>38.93747613765299320220947265625</LatitudeDegrees>
              <LongitudeDegrees>-2.8476920910179615020751953125</LongitudeDegrees>
            </Position>
            <AltitudeMeters>824.79998779296875</AltitudeMeters>
            <DistanceMeters>74134.702098585</DistanceMeters>
          </Trackpoint>
          <Trackpoint>
            <Time>2020-01-19T11:44:48.000Z</Time>
            <Position>
              <LatitudeDegrees>38.937670178711414337158203125</LatitudeDegrees>
              <LongitudeDegrees>-2.84777783788740634918212890625</LongitudeDegrees>
            </Position>
            <AltitudeMeters>823.79998779296875</AltitudeMeters>
            <DistanceMeters>74157.539570537</DistanceMeters>
          </Trackpoint>
          <Trackpoint>
            <Time>2020-01-19T11:44:50.000Z</Time>
            <Position>
              <LatitudeDegrees>38.9376783929765224456787109375</LatitudeDegrees>
              <LongitudeDegrees>-2.8477896563708782196044921875</LongitudeDegrees>
            </Position>
            <AltitudeMeters>823.79998779296875</AltitudeMeters>
            <DistanceMeters>74158.910065302</DistanceMeters>
          </Trackpoint>
          <Trackpoint>
            <Time>2020-01-19T11:53:55.000Z</Time>
            <Position>
              <LatitudeDegrees>38.9377796463668346405029296875</LatitudeDegrees>
              <LongitudeDegrees>-2.84769519232213497161865234375</LongitudeDegrees>
            </Position>
            <AltitudeMeters>823.5999755859375</AltitudeMeters>
            <DistanceMeters>74172.83464075</DistanceMeters>
          </Trackpoint>
          <Trackpoint>
            <Time>2020-01-19T11:54:02.000Z</Time>
            <Position>
              <LatitudeDegrees>38.93825682811439037322998046875</LatitudeDegrees>
              <LongitudeDegrees>-2.8475019894540309906005859375</LongitudeDegrees>
            </Position>
            <AltitudeMeters>824.5999755859375</AltitudeMeters>
            <DistanceMeters>74228.517538555</DistanceMeters>
          </Trackpoint>
          <Trackpoint>
            <Time>2020-01-19T11:54:07.000Z</Time>
            <Position>
              <LatitudeDegrees>38.9386449940502643585205078125</LatitudeDegrees>
              <LongitudeDegrees>-2.84719982184469699859619140625</LongitudeDegrees>
            </Position>
            <AltitudeMeters>829</AltitudeMeters>
            <DistanceMeters>74279.023767918</DistanceMeters>
          </Trackpoint>
          <Trackpoint>
            <Time>2020-01-19T11:54:10.000Z</Time>
            <Position>
              <LatitudeDegrees>38.9388672821223735809326171875</LatitudeDegrees>
              <LongitudeDegrees>-2.847107537090778350830078125</LongitudeDegrees>
            </Position>
            <AltitudeMeters>827.20001220703125</AltitudeMeters>
            <DistanceMeters>74305.022910255</DistanceMeters>
          </Trackpoint>
          <Trackpoint>
            <Time>2020-01-19T11:54:12.000Z</Time>
            <Position>
              <LatitudeDegrees>38.9390298910439014434814453125</LatitudeDegrees>
              <LongitudeDegrees>-2.8471288271248340606689453125</LongitudeDegrees>
            </Position>
            <AltitudeMeters>824.4000244140625</AltitudeMeters>
            <DistanceMeters>74323.215501105</DistanceMeters>
          </Trackpoint>
          <Trackpoint>
            <Time>2020-01-19T11:54:17.000Z</Time>
            <Position>
              <LatitudeDegrees>38.93931311555206775665283203125</LatitudeDegrees>
              <LongitudeDegrees>-2.84724156372249126434326171875</LongitudeDegrees>
            </Position>
            <AltitudeMeters>822.20001220703125</AltitudeMeters>
            <DistanceMeters>74356.215366239</DistanceMeters>
          </Trackpoint>
          <Trackpoint>
            <Time>2020-01-19T11:54:21.000Z</Time>
            <Position>
              <LatitudeDegrees>38.9394261874258518218994140625</LatitudeDegrees>
              <LongitudeDegrees>-2.8471331857144832611083984375</LongitudeDegrees>
            </Position>
            <AltitudeMeters>823</AltitudeMeters>
            <DistanceMeters>74371.913192715</DistanceMeters>
          </Trackpoint>
          <Trackpoint>
            <Time>2020-01-19T11:54:22.000Z</Time>
            <Position>
              <LatitudeDegrees>38.93942727707326412200927734375</LatitudeDegrees>
              <LongitudeDegrees>-2.84706856124103069305419921875</LongitudeDegrees>
            </Position>
            <AltitudeMeters>823.5999755859375</AltitudeMeters>
            <DistanceMeters>74377.509290025</DistanceMeters>
          </Trackpoint>
          <Trackpoint>
            <Time>2020-01-19T11:54:23.000Z</Time>
            <Position>
              <LatitudeDegrees>38.93943599425256252288818359375</LatitudeDegrees>
              <LongitudeDegrees>-2.84700326621532440185546875</LongitudeDegrees>
            </Position>
            <AltitudeMeters>824.4000244140625</AltitudeMeters>
            <DistanceMeters>74383.245630197</DistanceMeters>
          </Trackpoint>
          <Trackpoint>
            <Time>2020-01-19T11:54:28.000Z</Time>
            <Position>
              <LatitudeDegrees>38.93942476250231266021728515625</LatitudeDegrees>
              <LongitudeDegrees>-2.84658442251384258270263671875</LongitudeDegrees>
            </Position>
            <AltitudeMeters>827</AltitudeMeters>
            <DistanceMeters>74419.5274221</DistanceMeters>
          </Trackpoint>
          <Trackpoint>
            <Time>2020-01-19T11:54:30.000Z</Time>
            <Position>
              <LatitudeDegrees>38.93942610360682010650634765625</LatitudeDegrees>
              <LongitudeDegrees>-2.84638694487512111663818359375</LongitudeDegrees>
            </Position>
            <AltitudeMeters>828.20001220703125</AltitudeMeters>
            <DistanceMeters>74436.62430996</DistanceMeters>
          </Trackpoint>
          <Trackpoint>
            <Time>2020-01-19T11:54:32.000Z</Time>
            <Position>
              <LatitudeDegrees>38.9394476450979709625244140625</LatitudeDegrees>
              <LongitudeDegrees>-2.8461810015141963958740234375</LongitudeDegrees>
            </Position>
            <AltitudeMeters>829.79998779296875</AltitudeMeters>
            <DistanceMeters>74454.613747961</DistanceMeters>
          </Trackpoint>
          <Trackpoint>
            <Time>2020-01-19T11:54:34.000Z</Time>
            <Position>
              <LatitudeDegrees>38.93948997370898723602294921875</LatitudeDegrees>
              <LongitudeDegrees>-2.8459573723375797271728515625</LongitudeDegrees>
            </Position>
            <AltitudeMeters>831.5999755859375</AltitudeMeters>
            <DistanceMeters>74474.538563663</DistanceMeters>
          </Trackpoint>
          <Trackpoint>
            <Time>2020-01-19T11:54:40.000Z</Time>
            <Position>
              <LatitudeDegrees>38.939755260944366455078125</LatitudeDegrees>
              <LongitudeDegrees>-2.84521431662142276763916015625</LongitudeDegrees>
            </Position>
            <AltitudeMeters>839</AltitudeMeters>
            <DistanceMeters>74545.319114743</DistanceMeters>
          </Trackpoint>
          <Trackpoint>
            <Time>2020-01-19T11:54:42.000Z</Time>
            <Position>
              <LatitudeDegrees>38.939841091632843017578125</LatitudeDegrees>
              <LongitudeDegrees>-2.844932265579700469970703125</LongitudeDegrees>
            </Position>
            <AltitudeMeters>841.4000244140625</AltitudeMeters>
            <DistanceMeters>74571.538912222</DistanceMeters>
          </Trackpoint>
          <Trackpoint>
            <Time>2020-01-19T11:54:44.000Z</Time>
            <Position>
              <LatitudeDegrees>38.93991552293300628662109375</LatitudeDegrees>
              <LongitudeDegrees>-2.84462272189557552337646484375</LongitudeDegrees>
            </Position>
            <AltitudeMeters>842.20001220703125</AltitudeMeters>
            <DistanceMeters>74599.587733589</DistanceMeters>
          </Trackpoint>
          <Trackpoint>
            <Time>2020-01-19T11:54:47.000Z</Time>
            <Position>
              <LatitudeDegrees>38.93996237777173519134521484375</LatitudeDegrees>
              <LongitudeDegrees>-2.84413003362715244293212890625</LongitudeDegrees>
            </Position>
            <AltitudeMeters>848.4000244140625</AltitudeMeters>
            <DistanceMeters>74642.557884985</DistanceMeters>
          </Trackpoint>
          <Trackpoint>
            <Time>2020-01-19T11:54:49.000Z</Time>
            <Position>
              <LatitudeDegrees>38.939937986433506011962890625</LatitudeDegrees>
              <LongitudeDegrees>-2.84378461539745330810546875</LongitudeDegrees>
            </Position>
            <AltitudeMeters>849.4000244140625</AltitudeMeters>
            <DistanceMeters>74672.58422163</DistanceMeters>
          </Trackpoint>
          <Trackpoint>
            <Time>2020-01-19T11:54:52.000Z</Time>
            <Position>
              <LatitudeDegrees>38.93983304500579833984375</LatitudeDegrees>
              <LongitudeDegrees>-2.84326904453337192535400390625</LongitudeDegrees>
            </Position>
            <AltitudeMeters>856.4000244140625</AltitudeMeters>
            <DistanceMeters>74718.721037078</DistanceMeters>
          </Trackpoint>
          <Trackpoint>
            <Time>2020-01-19T11:54:53.000Z</Time>
            <Position>
              <LatitudeDegrees>38.9398263394832611083984375</LatitudeDegrees>
              <LongitudeDegrees>-2.843093611299991607666015625</LongitudeDegrees>
            </Position>
            <AltitudeMeters>858.20001220703125</AltitudeMeters>
            <DistanceMeters>74733.926796097</DistanceMeters>
          </Trackpoint>
          <Trackpoint>
            <Time>2020-01-19T11:54:57.000Z</Time>
            <Position>
              <LatitudeDegrees>38.9399441890418529510498046875</LatitudeDegrees>
              <LongitudeDegrees>-2.84251132048666477203369140625</LongitudeDegrees>
            </Position>
            <AltitudeMeters>858.5999755859375</AltitudeMeters>
            <DistanceMeters>74786.014959516</DistanceMeters>
          </Trackpoint>
          <Trackpoint>
            <Time>2020-01-19T11:55:00.000Z</Time>
            <Position>
              <LatitudeDegrees>38.940055668354034423828125</LatitudeDegrees>
              <LongitudeDegrees>-2.84207277931272983551025390625</LongitudeDegrees>
            </Position>
            <AltitudeMeters>861.20001220703125</AltitudeMeters>
            <DistanceMeters>74825.956146967</DistanceMeters>
          </Trackpoint>
          <Trackpoint>
            <Time>2020-01-19T11:55:02.000Z</Time>
            <Position>
              <LatitudeDegrees>38.94014392979443073272705078125</LatitudeDegrees>
              <LongitudeDegrees>-2.84177027642726898193359375</LongitudeDegrees>
            </Position>
            <AltitudeMeters>862.5999755859375</AltitudeMeters>
            <DistanceMeters>74853.925981479</DistanceMeters>
          </Trackpoint>
          <Trackpoint>
            <Time>2020-01-19T11:55:07.000Z</Time>
            <Position>
              <LatitudeDegrees>38.94039572216570377349853515625</LatitudeDegrees>
              <LongitudeDegrees>-2.840968631207942962646484375</LongitudeDegrees>
            </Position>
            <AltitudeMeters>871.5999755859375</AltitudeMeters>
            <DistanceMeters>74928.770001418</DistanceMeters>
          </Trackpoint>
          <Trackpoint>
            <Time>2020-01-19T11:55:11.000Z</Time>
            <Position>
              <LatitudeDegrees>38.94050653092563152313232421875</LatitudeDegrees>
              <LongitudeDegrees>-2.84025172702968120574951171875</LongitudeDegrees>
            </Position>
            <AltitudeMeters>876</AltitudeMeters>
            <DistanceMeters>74992.046377538</DistanceMeters>
          </Trackpoint>
          <Trackpoint>
            <Time>2020-01-19T11:55:12.000Z</Time>
            <Position>
              <LatitudeDegrees>38.94052530638873577117919921875</LatitudeDegrees>
              <LongitudeDegrees>-2.84006715752184391021728515625</LongitudeDegrees>
            </Position>
            <AltitudeMeters>877.5999755859375</AltitudeMeters>
            <DistanceMeters>75008.160622113</DistanceMeters>
          </Trackpoint>
          <Trackpoint>
            <Time>2020-01-19T11:55:15.000Z</Time>
            <Position>
              <LatitudeDegrees>38.94056336022913455963134765625</LatitudeDegrees>
              <LongitudeDegrees>-2.8395137004554271697998046875</LongitudeDegrees>
            </Position>
            <AltitudeMeters>878.5999755859375</AltitudeMeters>
            <DistanceMeters>75056.260475395</DistanceMeters>
          </Trackpoint>
          <Trackpoint>
            <Time>2020-01-19T11:55:18.000Z</Time>
            <Position>
              <LatitudeDegrees>38.94060376100242137908935546875</LatitudeDegrees>
              <LongitudeDegrees>-2.838976420462131500244140625</LongitudeDegrees>
            </Position>
            <AltitudeMeters>879.79998779296875</AltitudeMeters>
            <DistanceMeters>75102.989952769</DistanceMeters>
          </Trackpoint>
          <Trackpoint>
            <Time>2020-01-19T11:55:22.000Z</Time>
            <Position>
              <LatitudeDegrees>38.940666206181049346923828125</LatitudeDegrees>
              <LongitudeDegrees>-2.8382547385990619659423828125</LongitudeDegrees>
            </Position>
            <AltitudeMeters>882.79998779296875</AltitudeMeters>
            <DistanceMeters>75165.851686536</DistanceMeters>
          </Trackpoint>
          <Trackpoint>
            <Time>2020-01-19T11:55:24.000Z</Time>
            <Position>
              <LatitudeDegrees>38.9406945370137691497802734375</LatitudeDegrees>
              <LongitudeDegrees>-2.83787193708121776580810546875</LongitudeDegrees>
            </Position>
            <AltitudeMeters>885</AltitudeMeters>
            <DistanceMeters>75199.140617445</DistanceMeters>
          </Trackpoint>
          <Trackpoint>
            <Time>2020-01-19T11:55:29.000Z</Time>
            <Position>
              <LatitudeDegrees>38.9407704770565032958984375</LatitudeDegrees>
              <LongitudeDegrees>-2.8370239399373531341552734375</LongitudeDegrees>
            </Position>
            <AltitudeMeters>888</AltitudeMeters>
            <DistanceMeters>75273.037010167</DistanceMeters>
          </Trackpoint>
          <Trackpoint>
            <Time>2020-01-19T11:55:32.000Z</Time>
            <Position>
              <LatitudeDegrees>38.94071188755333423614501953125</LatitudeDegrees>
              <LongitudeDegrees>-2.83657609485089778900146484375</LongitudeDegrees>
            </Position>
            <AltitudeMeters>889.4000244140625</AltitudeMeters>
            <DistanceMeters>75312.351664745</DistanceMeters>
          </Trackpoint>
          <Trackpoint>
            <Time>2020-01-19T11:55:36.000Z</Time>
            <Position>
              <LatitudeDegrees>38.9404236339032649993896484375</LatitudeDegrees>
              <LongitudeDegrees>-2.836073935031890869140625</LongitudeDegrees>
            </Position>
            <AltitudeMeters>891.5999755859375</AltitudeMeters>
            <DistanceMeters>75366.380849563</DistanceMeters>
          </Trackpoint>
          <Trackpoint>
            <Time>2020-01-19T11:55:38.000Z</Time>
            <Position>
              <LatitudeDegrees>38.9401091448962688446044921875</LatitudeDegrees>
              <LongitudeDegrees>-2.83591710962355136871337890625</LongitudeDegrees>
            </Position>
            <AltitudeMeters>893.4000244140625</AltitudeMeters>
            <DistanceMeters>75403.924820883</DistanceMeters>
          </Trackpoint>
          <Trackpoint>
            <Time>2020-01-19T11:55:42.000Z</Time>
            <Position>
              <LatitudeDegrees>38.93954026512801647186279296875</LatitudeDegrees>
              <LongitudeDegrees>-2.8355805762112140655517578125</LongitudeDegrees>
            </Position>
            <AltitudeMeters>900.79998779296875</AltitudeMeters>
            <DistanceMeters>75473.623401675</DistanceMeters>
          </Trackpoint>
          <Trackpoint>
            <Time>2020-01-19T11:55:46.000Z</Time>
            <Position>
              <LatitudeDegrees>38.93905193544924259185791015625</LatitudeDegrees>
              <LongitudeDegrees>-2.83511898480355739593505859375</LongitudeDegrees>
            </Position>
            <AltitudeMeters>903.79998779296875</AltitudeMeters>
            <DistanceMeters>75541.084739542</DistanceMeters>
          </Trackpoint>
          <Trackpoint>
            <Time>2020-01-19T11:55:47.000Z</Time>
            <Position>
              <LatitudeDegrees>38.938956968486309051513671875</LatitudeDegrees>
              <LongitudeDegrees>-2.8349747322499752044677734375</LongitudeDegrees>
            </Position>
            <AltitudeMeters>905</AltitudeMeters>
            <DistanceMeters>75557.445900445</DistanceMeters>
          </Trackpoint>
          <Trackpoint>
            <Time>2020-01-19T11:55:49.000Z</Time>
            <Position>
              <LatitudeDegrees>38.93882947973906993865966796875</LatitudeDegrees>
              <LongitudeDegrees>-2.8346578963100910186767578125</LongitudeDegrees>
            </Position>
            <AltitudeMeters>907.5999755859375</AltitudeMeters>
            <DistanceMeters>75588.328266833</DistanceMeters>
          </Trackpoint>
          <Trackpoint>
            <Time>2020-01-19T11:55:52.000Z</Time>
            <Position>
              <LatitudeDegrees>38.93868749029934406280517578125</LatitudeDegrees>
              <LongitudeDegrees>-2.83409689553081989288330078125</LongitudeDegrees>
            </Position>
            <AltitudeMeters>912.5999755859375</AltitudeMeters>
            <DistanceMeters>75639.402274926</DistanceMeters>
          </Trackpoint>
          <Trackpoint>
            <Time>2020-01-19T11:55:53.000Z</Time>
            <Position>
              <LatitudeDegrees>38.9386657811701297760009765625</LatitudeDegrees>
              <LongitudeDegrees>-2.83391098491847515106201171875</LongitudeDegrees>
            </Position>
            <AltitudeMeters>913.20001220703125</AltitudeMeters>
            <DistanceMeters>75655.677663167</DistanceMeters>
          </Trackpoint>
          <Trackpoint>
            <Time>2020-01-19T11:55:55.000Z</Time>
            <Position>
              <LatitudeDegrees>38.9386822097003459930419921875</LatitudeDegrees>
              <LongitudeDegrees>-2.83352516591548919677734375</LongitudeDegrees>
            </Position>
            <AltitudeMeters>914.5999755859375</AltitudeMeters>
            <DistanceMeters>75689.129226254</DistanceMeters>
          </Trackpoint>
          <Trackpoint>
            <Time>2020-01-19T11:55:57.000Z</Time>
            <Position>
              <LatitudeDegrees>38.93879377283155918121337890625</LatitudeDegrees>
              <LongitudeDegrees>-2.83314890228211879730224609375</LongitudeDegrees>
            </Position>
            <AltitudeMeters>916</AltitudeMeters>
            <DistanceMeters>75723.989915975</DistanceMeters>
          </Trackpoint>
          <Trackpoint>
            <Time>2020-01-19T11:55:59.000Z</Time>
            <Position>
              <LatitudeDegrees>38.938973732292652130126953125</LatitudeDegrees>
              <LongitudeDegrees>-2.83281303942203521728515625</LongitudeDegrees>
            </Position>
            <AltitudeMeters>917.20001220703125</AltitudeMeters>
            <DistanceMeters>75759.297679617</DistanceMeters>
          </Trackpoint>
          <Trackpoint>
            <Time>2020-01-19T11:56:02.000Z</Time>
            <Position>
              <LatitudeDegrees>38.9393068291246891021728515625</LatitudeDegrees>
              <LongitudeDegrees>-2.8323733247816562652587890625</LongitudeDegrees>
            </Position>
            <AltitudeMeters>919.20001220703125</AltitudeMeters>
            <DistanceMeters>75812.435289398</DistanceMeters>
          </Trackpoint>
          <Trackpoint>
            <Time>2020-01-19T11:56:04.000Z</Time>
            <Position>
              <LatitudeDegrees>38.9395589567720890045166015625</LatitudeDegrees>
              <LongitudeDegrees>-2.83205053769052028656005859375</LongitudeDegrees>
            </Position>
            <AltitudeMeters>920.79998779296875</AltitudeMeters>
            <DistanceMeters>75852.037950508</DistanceMeters>
          </Trackpoint>
          <Trackpoint>
            <Time>2020-01-19T11:56:07.000Z</Time>
            <Position>
              <LatitudeDegrees>38.93994393758475780487060546875</LatitudeDegrees>
              <LongitudeDegrees>-2.83154527656733989715576171875</LongitudeDegrees>
            </Position>
            <AltitudeMeters>922.5999755859375</AltitudeMeters>
            <DistanceMeters>75913.269746904</DistanceMeters>
          </Trackpoint>
          <Trackpoint>
            <Time>2020-01-19T11:56:10.000Z</Time>
            <Position>
              <LatitudeDegrees>38.94032665528357028961181640625</LatitudeDegrees>
              <LongitudeDegrees>-2.83099693246185779571533203125</LongitudeDegrees>
            </Position>
            <AltitudeMeters>924.4000244140625</AltitudeMeters>
            <DistanceMeters>75977.050584603</DistanceMeters>
          </Trackpoint>
          <Trackpoint>
            <Time>2020-01-19T11:56:12.000Z</Time>
            <Position>
              <LatitudeDegrees>38.9405959658324718475341796875</LatitudeDegrees>
              <LongitudeDegrees>-2.830627374351024627685546875</LongitudeDegrees>
            </Position>
            <AltitudeMeters>925</AltitudeMeters>
            <DistanceMeters>76020.891589507</DistanceMeters>
          </Trackpoint>
          <Trackpoint>
            <Time>2020-01-19T11:56:14.000Z</Time>
            <Position>
              <LatitudeDegrees>38.9408477582037448883056640625</LatitudeDegrees>
              <LongitudeDegrees>-2.83026686869561672210693359375</LongitudeDegrees>
            </Position>
            <AltitudeMeters>925.79998779296875</AltitudeMeters>
            <DistanceMeters>76062.837031385</DistanceMeters>
          </Trackpoint>
          <Trackpoint>
            <Time>2020-01-19T11:56:16.000Z</Time>
            <Position>
              <LatitudeDegrees>38.941112458705902099609375</LatitudeDegrees>
              <LongitudeDegrees>-2.8298902697861194610595703125</LongitudeDegrees>
            </Position>
            <AltitudeMeters>926</AltitudeMeters>
            <DistanceMeters>76106.77895005</DistanceMeters>
          </Trackpoint>
          <Trackpoint>
            <Time>2020-01-19T11:56:19.000Z</Time>
            <Position>
              <LatitudeDegrees>38.94149341620504856109619140625</LatitudeDegrees>
              <LongitudeDegrees>-2.82934636808931827545166015625</LongitudeDegrees>
            </Position>
            <AltitudeMeters>925.4000244140625</AltitudeMeters>
            <DistanceMeters>76170.142176041</DistanceMeters>
          </Trackpoint>
          <Trackpoint>
            <Time>2020-01-19T11:56:22.000Z</Time>
            <Position>
              <LatitudeDegrees>38.94181343726813793182373046875</LatitudeDegrees>
              <LongitudeDegrees>-2.82878008671104907989501953125</LongitudeDegrees>
            </Position>
            <AltitudeMeters>924.4000244140625</AltitudeMeters>
            <DistanceMeters>76230.738454925</DistanceMeters>
          </Trackpoint>
          <Trackpoint>
            <Time>2020-01-19T11:56:25.000Z</Time>
            <Position>
              <LatitudeDegrees>38.9420785568654537200927734375</LatitudeDegrees>
              <LongitudeDegrees>-2.8281451575458049774169921875</LongitudeDegrees>
            </Position>
            <AltitudeMeters>923</AltitudeMeters>
            <DistanceMeters>76293.123547189</DistanceMeters>
          </Trackpoint>
          <Trackpoint>
            <Time>2020-01-19T11:56:27.000Z</Time>
            <Position>
              <LatitudeDegrees>38.9422150142490863800048828125</LatitudeDegrees>
              <LongitudeDegrees>-2.8277041018009185791015625</LongitudeDegrees>
            </Position>
            <AltitudeMeters>921.20001220703125</AltitudeMeters>
            <DistanceMeters>76334.215102698</DistanceMeters>
          </Trackpoint>
          <Trackpoint>
            <Time>2020-01-19T11:56:30.000Z</Time>
            <Position>
              <LatitudeDegrees>38.94237318076193332672119140625</LatitudeDegrees>
              <LongitudeDegrees>-2.82699708826839923858642578125</LongitudeDegrees>
            </Position>
            <AltitudeMeters>919.5999755859375</AltitudeMeters>
            <DistanceMeters>76397.901578466</DistanceMeters>
          </Trackpoint>
          <Trackpoint>
            <Time>2020-01-19T11:56:32.000Z</Time>
            <Position>
              <LatitudeDegrees>38.942457251250743865966796875</LatitudeDegrees>
              <LongitudeDegrees>-2.82650691457092761993408203125</LongitudeDegrees>
            </Position>
            <AltitudeMeters>919.79998779296875</AltitudeMeters>
            <DistanceMeters>76441.35445943</DistanceMeters>
          </Trackpoint>
          <Trackpoint>
            <Time>2020-01-19T11:56:35.000Z</Time>
            <Position>
              <LatitudeDegrees>38.9425844885408878326416015625</LatitudeDegrees>
              <LongitudeDegrees>-2.8257720731198787689208984375</LongitudeDegrees>
            </Position>
            <AltitudeMeters>922</AltitudeMeters>
            <DistanceMeters>76506.525606384</DistanceMeters>
          </Trackpoint>
          <Trackpoint>
            <Time>2020-01-19T11:56:38.000Z</Time>
            <Position>
              <LatitudeDegrees>38.94271885044872760772705078125</LatitudeDegrees>
              <LongitudeDegrees>-2.8250555880367755889892578125</LongitudeDegrees>
            </Position>
            <AltitudeMeters>923</AltitudeMeters>
            <DistanceMeters>76570.327677515</DistanceMeters>
          </Trackpoint>
          <Trackpoint>
            <Time>2020-01-19T11:56:40.000Z</Time>
            <Position>
              <LatitudeDegrees>38.94280602224171161651611328125</LatitudeDegrees>
              <LongitudeDegrees>-2.82457589171826839447021484375</LongitudeDegrees>
            </Position>
            <AltitudeMeters>923.4000244140625</AltitudeMeters>
            <DistanceMeters>76612.972338318</DistanceMeters>
          </Trackpoint>
          <Trackpoint>
            <Time>2020-01-19T11:56:42.000Z</Time>
            <Position>
              <LatitudeDegrees>38.9428818784654140472412109375</LatitudeDegrees>
              <LongitudeDegrees>-2.82411438412964344024658203125</LongitudeDegrees>
            </Position>
            <AltitudeMeters>924.4000244140625</AltitudeMeters>
            <DistanceMeters>76653.80641325</DistanceMeters>
          </Trackpoint>
          <Trackpoint>
            <Time>2020-01-19T11:56:46.000Z</Time>
            <Position>
              <LatitudeDegrees>38.94302822649478912353515625</LatitudeDegrees>
              <LongitudeDegrees>-2.8232149221003055572509765625</LongitudeDegrees>
            </Position>
            <AltitudeMeters>926.5999755859375</AltitudeMeters>
            <DistanceMeters>76733.356204017</DistanceMeters>
          </Trackpoint>
          <Trackpoint>
            <Time>2020-01-19T11:56:49.000Z</Time>
            <Position>
              <LatitudeDegrees>38.94316191785037517547607421875</LatitudeDegrees>
              <LongitudeDegrees>-2.82252735458314418792724609375</LongitudeDegrees>
            </Position>
            <AltitudeMeters>928</AltitudeMeters>
            <DistanceMeters>76794.70888322</DistanceMeters>
          </Trackpoint>
          <Trackpoint>
            <Time>2020-01-19T11:56:52.000Z</Time>
            <Position>
              <LatitudeDegrees>38.943293094635009765625</LatitudeDegrees>
              <LongitudeDegrees>-2.82185412012040615081787109375</LongitudeDegrees>
            </Position>
            <AltitudeMeters>928.79998779296875</AltitudeMeters>
            <DistanceMeters>76854.78996958</DistanceMeters>
          </Trackpoint>
          <Trackpoint>
            <Time>2020-01-19T11:56:56.000Z</Time>
            <Position>
              <LatitudeDegrees>38.94345813430845737457275390625</LatitudeDegrees>
              <LongitudeDegrees>-2.82095943577587604522705078125</LongitudeDegrees>
            </Position>
            <AltitudeMeters>930.79998779296875</AltitudeMeters>
            <DistanceMeters>76934.388670179</DistanceMeters>
          </Trackpoint>
          <Trackpoint>
            <Time>2020-01-19T11:57:00.000Z</Time>
            <Position>
              <LatitudeDegrees>38.94362141378223896026611328125</LatitudeDegrees>
              <LongitudeDegrees>-2.82007313333451747894287109375</LongitudeDegrees>
            </Position>
            <AltitudeMeters>932</AltitudeMeters>
            <DistanceMeters>77013.235994858</DistanceMeters>
          </Trackpoint>
          <Trackpoint>
            <Time>2020-01-19T11:57:02.000Z</Time>
            <Position>
              <LatitudeDegrees>38.9436902292072772979736328125</LatitudeDegrees>
              <LongitudeDegrees>-2.8196626715362071990966796875</LongitudeDegrees>
            </Position>
            <AltitudeMeters>931.79998779296875</AltitudeMeters>
            <DistanceMeters>77049.584427351</DistanceMeters>
          </Trackpoint>
          <Trackpoint>
            <Time>2020-01-19T11:57:06.000Z</Time>
            <Position>
              <LatitudeDegrees>38.94377522170543670654296875</LatitudeDegrees>
              <LongitudeDegrees>-2.8188942186534404754638671875</LongitudeDegrees>
            </Position>
            <AltitudeMeters>931.79998779296875</AltitudeMeters>
            <DistanceMeters>77116.776042447</DistanceMeters>
          </Trackpoint>
          <Trackpoint>
            <Time>2020-01-19T11:57:08.000Z</Time>
            <Position>
              <LatitudeDegrees>38.94373741932213306427001953125</LatitudeDegrees>
              <LongitudeDegrees>-2.81852114014327526092529296875</LongitudeDegrees>
            </Position>
            <AltitudeMeters>932</AltitudeMeters>
            <DistanceMeters>77149.344845919</DistanceMeters>
          </Trackpoint>
          <Trackpoint>
            <Time>2020-01-19T11:57:10.000Z</Time>
            <Position>
              <LatitudeDegrees>38.9436163008213043212890625</LatitudeDegrees>
              <LongitudeDegrees>-2.81813842244446277618408203125</LongitudeDegrees>
            </Position>
            <AltitudeMeters>933.79998779296875</AltitudeMeters>
            <DistanceMeters>77185.113032488</DistanceMeters>
          </Trackpoint>
          <Trackpoint>
            <Time>2020-01-19T11:57:12.000Z</Time>
            <Position>
              <LatitudeDegrees>38.94342209212481975555419921875</LatitudeDegrees>
              <LongitudeDegrees>-2.8178025595843791961669921875</LongitudeDegrees>
            </Position>
            <AltitudeMeters>935.20001220703125</AltitudeMeters>
            <DistanceMeters>77221.342520362</DistanceMeters>
          </Trackpoint>
          <Trackpoint>
            <Time>2020-01-19T11:57:16.000Z</Time>
            <Position>
              <LatitudeDegrees>38.943067453801631927490234375</LatitudeDegrees>
              <LongitudeDegrees>-2.8171145729720592498779296875</LongitudeDegrees>
            </Position>
            <AltitudeMeters>933.20001220703125</AltitudeMeters>
            <DistanceMeters>77292.792436437</DistanceMeters>
          </Trackpoint>
          <Trackpoint>
            <Time>2020-01-19T11:57:17.000Z</Time>
            <Position>
              <LatitudeDegrees>38.94300987012684345245361328125</LatitudeDegrees>
              <LongitudeDegrees>-2.8169248066842555999755859375</LongitudeDegrees>
            </Position>
            <AltitudeMeters>934.20001220703125</AltitudeMeters>
            <DistanceMeters>77310.425974149</DistanceMeters>
          </Trackpoint>
          <Trackpoint>
            <Time>2020-01-19T11:57:19.000Z</Time>
            <Position>
              <LatitudeDegrees>38.94296829588711261749267578125</LatitudeDegrees>
              <LongitudeDegrees>-2.81650529243052005767822265625</LongitudeDegrees>
            </Position>
            <AltitudeMeters>935</AltitudeMeters>
            <DistanceMeters>77347.035809797</DistanceMeters>
          </Trackpoint>
          <Trackpoint>
            <Time>2020-01-19T11:57:22.000Z</Time>
            <Position>
              <LatitudeDegrees>38.94296729005873203277587890625</LatitudeDegrees>
              <LongitudeDegrees>-2.81578277237713336944580078125</LongitudeDegrees>
            </Position>
            <AltitudeMeters>936</AltitudeMeters>
            <DistanceMeters>77409.582664617</DistanceMeters>
          </Trackpoint>
          <Trackpoint>
            <Time>2020-01-19T11:57:25.000Z</Time>
            <Position>
              <LatitudeDegrees>38.9429526217281818389892578125</LatitudeDegrees>
              <LongitudeDegrees>-2.8150727413594722747802734375</LongitudeDegrees>
            </Position>
            <AltitudeMeters>934.79998779296875</AltitudeMeters>
            <DistanceMeters>77471.070015718</DistanceMeters>
          </Trackpoint>
          <Trackpoint>
            <Time>2020-01-19T11:57:27.000Z</Time>
            <Position>
              <LatitudeDegrees>38.9429489336907863616943359375</LatitudeDegrees>
              <LongitudeDegrees>-2.814600504934787750244140625</LongitudeDegrees>
            </Position>
            <AltitudeMeters>933.79998779296875</AltitudeMeters>
            <DistanceMeters>77511.952491781</DistanceMeters>
          </Trackpoint>
          <Trackpoint>
            <Time>2020-01-19T11:57:30.000Z</Time>
            <Position>
              <LatitudeDegrees>38.94294532947242259979248046875</LatitudeDegrees>
              <LongitudeDegrees>-2.813891731202602386474609375</LongitudeDegrees>
            </Position>
            <AltitudeMeters>932.79998779296875</AltitudeMeters>
            <DistanceMeters>77573.310616516</DistanceMeters>
          </Trackpoint>
          <Trackpoint>
            <Time>2020-01-19T11:57:32.000Z</Time>
            <Position>
              <LatitudeDegrees>38.94293703138828277587890625</LatitudeDegrees>
              <LongitudeDegrees>-2.8134124539792537689208984375</LongitudeDegrees>
            </Position>
            <AltitudeMeters>934</AltitudeMeters>
            <DistanceMeters>77614.810753019</DistanceMeters>
          </Trackpoint>
          <Trackpoint>
            <Time>2020-01-19T11:57:35.000Z</Time>
            <Position>
              <LatitudeDegrees>38.94293108023703098297119140625</LatitudeDegrees>
              <LongitudeDegrees>-2.812696136534214019775390625</LongitudeDegrees>
            </Position>
            <AltitudeMeters>933.79998779296875</AltitudeMeters>
            <DistanceMeters>77676.824112188</DistanceMeters>
          </Trackpoint>
          <Trackpoint>
            <Time>2020-01-19T11:57:39.000Z</Time>
            <Position>
              <LatitudeDegrees>38.942919932305812835693359375</LatitudeDegrees>
              <LongitudeDegrees>-2.8117773123085498809814453125</LongitudeDegrees>
            </Position>
            <AltitudeMeters>932</AltitudeMeters>
            <DistanceMeters>77756.374243499</DistanceMeters>
          </Trackpoint>
          <Trackpoint>
            <Time>2020-01-19T11:57:42.000Z</Time>
            <Position>
              <LatitudeDegrees>38.9428624324500560760498046875</LatitudeDegrees>
              <LongitudeDegrees>-2.8110770881175994873046875</LongitudeDegrees>
            </Position>
            <AltitudeMeters>928</AltitudeMeters>
            <DistanceMeters>77817.327936679</DistanceMeters>
          </Trackpoint>
          <Trackpoint>
            <Time>2020-01-19T11:57:45.000Z</Time>
            <Position>
              <LatitudeDegrees>38.9427105523645877838134765625</LatitudeDegrees>
              <LongitudeDegrees>-2.8103647939860820770263671875</LongitudeDegrees>
            </Position>
            <AltitudeMeters>925</AltitudeMeters>
            <DistanceMeters>77881.264816774</DistanceMeters>
          </Trackpoint>
          <Trackpoint>
            <Time>2020-01-19T11:57:48.000Z</Time>
            <Position>
              <LatitudeDegrees>38.94251969642937183380126953125</LatitudeDegrees>
              <LongitudeDegrees>-2.80966800637543201446533203125</LongitudeDegrees>
            </Position>
            <AltitudeMeters>923.79998779296875</AltitudeMeters>
            <DistanceMeters>77945.215536326</DistanceMeters>
          </Trackpoint>
          <Trackpoint>
            <Time>2020-01-19T11:57:51.000Z</Time>
            <Position>
              <LatitudeDegrees>38.94233060069382190704345703125</LatitudeDegrees>
              <LongitudeDegrees>-2.8089965321123600006103515625</LongitudeDegrees>
            </Position>
            <AltitudeMeters>922.79998779296875</AltitudeMeters>
            <DistanceMeters>78007.036896098</DistanceMeters>
          </Trackpoint>
          <Trackpoint>
            <Time>2020-01-19T11:57:52.000Z</Time>
            <Position>
              <LatitudeDegrees>38.94226840697228908538818359375</LatitudeDegrees>
              <LongitudeDegrees>-2.80877784825861454010009765625</LongitudeDegrees>
            </Position>
            <AltitudeMeters>923</AltitudeMeters>
            <DistanceMeters>78027.19376241</DistanceMeters>
          </Trackpoint>
          <Trackpoint>
            <Time>2020-01-19T11:57:56.000Z</Time>
            <Position>
              <LatitudeDegrees>38.942024745047092437744140625</LatitudeDegrees>
              <LongitudeDegrees>-2.8079839982092380523681640625</LongitudeDegrees>
            </Position>
            <AltitudeMeters>924.20001220703125</AltitudeMeters>
            <DistanceMeters>78101.073839745</DistanceMeters>
          </Trackpoint>
          <Trackpoint>
            <Time>2020-01-19T11:58:00.000Z</Time>
            <Position>
              <LatitudeDegrees>38.9418043009936809539794921875</LatitudeDegrees>
              <LongitudeDegrees>-2.80729726888239383697509765625</LongitudeDegrees>
            </Position>
            <AltitudeMeters>925.4000244140625</AltitudeMeters>
            <DistanceMeters>78165.387481963</DistanceMeters>
          </Trackpoint>
          <Trackpoint>
            <Time>2020-01-19T11:58:02.000Z</Time>
            <Position>
              <LatitudeDegrees>38.9417107589542865753173828125</LatitudeDegrees>
              <LongitudeDegrees>-2.80701018869876861572265625</LongitudeDegrees>
            </Position>
            <AltitudeMeters>925.79998779296875</AltitudeMeters>
            <DistanceMeters>78192.332540995</DistanceMeters>
          </Trackpoint>
          <Trackpoint>
            <Time>2020-01-19T11:58:12.000Z</Time>
            <Position>
              <LatitudeDegrees>38.94145754165947437286376953125</LatitudeDegrees>
              <LongitudeDegrees>-2.806435190141201019287109375</LongitudeDegrees>
            </Position>
            <AltitudeMeters>925.20001220703125</AltitudeMeters>
            <DistanceMeters>78249.534676617</DistanceMeters>
          </Trackpoint>
          <Trackpoint>
            <Time>2020-01-19T11:58:13.000Z</Time>
            <Position>
              <LatitudeDegrees>38.9414542727172374725341796875</LatitudeDegrees>
              <LongitudeDegrees>-2.8064323402941226959228515625</LongitudeDegrees>
            </Position>
            <AltitudeMeters>925.20001220703125</AltitudeMeters>
            <DistanceMeters>78249.980391416</DistanceMeters>
          </Trackpoint>
          <Trackpoint>
            <Time>2020-01-19T11:58:16.000Z</Time>
            <Position>
              <LatitudeDegrees>38.94144815392792224884033203125</LatitudeDegrees>
              <LongitudeDegrees>-2.8063756786286830902099609375</LongitudeDegrees>
            </Position>
            <AltitudeMeters>925.20001220703125</AltitudeMeters>
            <DistanceMeters>78254.931821265</DistanceMeters>
          </Trackpoint>
          <Trackpoint>
            <Time>2020-01-19T11:58:19.000Z</Time>
            <Position>
              <LatitudeDegrees>38.94148327410221099853515625</LatitudeDegrees>
              <LongitudeDegrees>-2.8062355332076549530029296875</LongitudeDegrees>
            </Position>
            <AltitudeMeters>925.5999755859375</AltitudeMeters>
            <DistanceMeters>78267.678513599</DistanceMeters>
          </Trackpoint>
          <Trackpoint>
            <Time>2020-01-19T11:58:22.000Z</Time>
            <Position>
              <LatitudeDegrees>38.94157111644744873046875</LatitudeDegrees>
              <LongitudeDegrees>-2.80596169643104076385498046875</LongitudeDegrees>
            </Position>
            <AltitudeMeters>926.5999755859375</AltitudeMeters>
            <DistanceMeters>78293.32146851</DistanceMeters>
          </Trackpoint>
          <Trackpoint>
            <Time>2020-01-19T11:58:24.000Z</Time>
            <Position>
              <LatitudeDegrees>38.94162467680871486663818359375</LatitudeDegrees>
              <LongitudeDegrees>-2.8057161904871463775634765625</LongitudeDegrees>
            </Position>
            <AltitudeMeters>927.5999755859375</AltitudeMeters>
            <DistanceMeters>78315.395092244</DistanceMeters>
          </Trackpoint>
          <Trackpoint>
            <Time>2020-01-19T11:58:25.000Z</Time>
            <Position>
              <LatitudeDegrees>38.94165359437465667724609375</LatitudeDegrees>
              <LongitudeDegrees>-2.8055817447602748870849609375</LongitudeDegrees>
            </Position>
            <AltitudeMeters>928.20001220703125</AltitudeMeters>
            <DistanceMeters>78327.471338953</DistanceMeters>
          </Trackpoint>
        </Track>
      </Lap>
    </Activity>
  </Activities>
</TrainingCenterDatabase>
